<?xml version="1.0" encoding="UTF-8" standalone="no" ?>
<gpx xmlns="http://www.topografix.com/GPX/1/1" xmlns:xsi="http://www.w3.org/2001/XMLSchema-instance" xsi:schemaLocation="http://www.topografix.com/GPX/1/1 http://www.topografix.com/GPX/1/1/gpx.xsd" version="1.1" creator="VisuGPX - https://www.visugpx.com">
  <metadata>
    <name>Saint Vallier/La Moulière/Escragnole</name>
  </metadata>
  <trk>
    <name><![CDATA[Saint Vallier/La Moulière/Escragnole]]></name>
    <trkseg>
      <trkpt lat="43.71175" lon="6.86563">
        <ele>992.055989</ele>
        <time>2024-12-06T09:18:15.000Z</time>
      </trkpt>
      <trkpt lat="43.71175" lon="6.86563">
        <ele>992.055989</ele>
        <time>2024-12-06T09:18:16.000Z</time>
      </trkpt>
      <trkpt lat="43.71174" lon="6.86564">
        <ele>992.055989</ele>
        <time>2024-12-06T09:18:23.000Z</time>
      </trkpt>
      <trkpt lat="43.71171" lon="6.86565">
        <ele>992.055989</ele>
        <time>2024-12-06T09:19:07.000Z</time>
      </trkpt>
      <trkpt lat="43.71173" lon="6.86569">
        <ele>992.055989</ele>
        <time>2024-12-06T09:20:25.000Z</time>
      </trkpt>
      <trkpt lat="43.71173" lon="6.86569">
        <ele>992.055989</ele>
        <time>2024-12-06T09:20:36.000Z</time>
      </trkpt>
      <trkpt lat="43.71173" lon="6.86569">
        <ele>992.055989</ele>
        <time>2024-12-06T09:21:02.000Z</time>
      </trkpt>
      <trkpt lat="43.71173" lon="6.86568">
        <ele>992.055989</ele>
        <time>2024-12-06T09:21:20.000Z</time>
      </trkpt>
      <trkpt lat="43.71173" lon="6.86568">
        <ele>992.055989</ele>
        <time>2024-12-06T09:22:43.000Z</time>
      </trkpt>
      <trkpt lat="43.71173" lon="6.86568">
        <ele>992.055989</ele>
        <time>2024-12-06T09:22:49.000Z</time>
      </trkpt>
      <trkpt lat="43.71173" lon="6.86568">
        <ele>992.055989</ele>
        <time>2024-12-06T09:22:50.000Z</time>
      </trkpt>
      <trkpt lat="43.71173" lon="6.86567">
        <ele>992.055989</ele>
        <time>2024-12-06T09:22:54.000Z</time>
      </trkpt>
      <trkpt lat="43.71175" lon="6.86556">
        <ele>992.055989</ele>
        <time>2024-12-06T09:22:57.000Z</time>
      </trkpt>
      <trkpt lat="43.71175" lon="6.86552">
        <ele>992.055989</ele>
        <time>2024-12-06T09:22:58.000Z</time>
      </trkpt>
      <trkpt lat="43.71175" lon="6.86529">
        <ele>992.055989</ele>
        <time>2024-12-06T09:23:02.000Z</time>
      </trkpt>
      <trkpt lat="43.71178" lon="6.86518">
        <ele>992.055989</ele>
        <time>2024-12-06T09:23:04.000Z</time>
      </trkpt>
      <trkpt lat="43.7118" lon="6.86514">
        <ele>992.055989</ele>
        <time>2024-12-06T09:23:05.000Z</time>
      </trkpt>
      <trkpt lat="43.71183" lon="6.8651">
        <ele>992.055989</ele>
        <time>2024-12-06T09:23:06.000Z</time>
      </trkpt>
      <trkpt lat="43.71186" lon="6.86506">
        <ele>992.055989</ele>
        <time>2024-12-06T09:23:07.000Z</time>
      </trkpt>
      <trkpt lat="43.7119" lon="6.86502">
        <ele>992.055989</ele>
        <time>2024-12-06T09:23:08.000Z</time>
      </trkpt>
      <trkpt lat="43.71194" lon="6.86499">
        <ele>992.055989</ele>
        <time>2024-12-06T09:23:09.000Z</time>
      </trkpt>
      <trkpt lat="43.71204" lon="6.86492">
        <ele>992.055989</ele>
        <time>2024-12-06T09:23:11.000Z</time>
      </trkpt>
      <trkpt lat="43.71208" lon="6.86488">
        <ele>992.055989</ele>
        <time>2024-12-06T09:23:12.000Z</time>
      </trkpt>
      <trkpt lat="43.71212" lon="6.86484">
        <ele>992.055989</ele>
        <time>2024-12-06T09:23:13.000Z</time>
      </trkpt>
      <trkpt lat="43.71217" lon="6.8648">
        <ele>992.116164</ele>
        <time>2024-12-06T09:23:14.000Z</time>
      </trkpt>
      <trkpt lat="43.71233" lon="6.86466">
        <ele>992.508362</ele>
        <time>2024-12-06T09:23:18.000Z</time>
      </trkpt>
      <trkpt lat="43.71241" lon="6.86457">
        <ele>992.709254</ele>
        <time>2024-12-06T09:23:20.000Z</time>
      </trkpt>
      <trkpt lat="43.71245" lon="6.86453">
        <ele>992.803758</ele>
        <time>2024-12-06T09:23:21.000Z</time>
      </trkpt>
      <trkpt lat="43.71249" lon="6.86449">
        <ele>992.900718</ele>
        <time>2024-12-06T09:23:22.000Z</time>
      </trkpt>
      <trkpt lat="43.71252" lon="6.86444">
        <ele>993.00369</ele>
        <time>2024-12-06T09:23:23.000Z</time>
      </trkpt>
      <trkpt lat="43.71256" lon="6.86439">
        <ele>993.109508</ele>
        <time>2024-12-06T09:23:24.000Z</time>
      </trkpt>
      <trkpt lat="43.7126" lon="6.86435">
        <ele>993.210741</ele>
        <time>2024-12-06T09:23:25.000Z</time>
      </trkpt>
      <trkpt lat="43.71264" lon="6.8643">
        <ele>993.317149</ele>
        <time>2024-12-06T09:23:26.000Z</time>
      </trkpt>
      <trkpt lat="43.71268" lon="6.86425">
        <ele>993.424883</ele>
        <time>2024-12-06T09:23:27.000Z</time>
      </trkpt>
      <trkpt lat="43.71272" lon="6.86419">
        <ele>993.531821</ele>
        <time>2024-12-06T09:23:28.000Z</time>
      </trkpt>
      <trkpt lat="43.71276" lon="6.86414">
        <ele>993.639554</ele>
        <time>2024-12-06T09:23:29.000Z</time>
      </trkpt>
      <trkpt lat="43.7128" lon="6.8641">
        <ele>993.740123</ele>
        <time>2024-12-06T09:23:30.000Z</time>
      </trkpt>
      <trkpt lat="43.71283" lon="6.86406">
        <ele>993.825348</ele>
        <time>2024-12-06T09:23:31.000Z</time>
      </trkpt>
      <trkpt lat="43.71286" lon="6.86402">
        <ele>993.897461</ele>
        <time>2024-12-06T09:23:32.000Z</time>
      </trkpt>
      <trkpt lat="43.71288" lon="6.864">
        <ele>993.96897</ele>
        <time>2024-12-06T09:23:33.000Z</time>
      </trkpt>
      <trkpt lat="43.71292" lon="6.86397">
        <ele>994.044605</ele>
        <time>2024-12-06T09:23:34.000Z</time>
      </trkpt>
      <trkpt lat="43.71296" lon="6.86396">
        <ele>994.122498</ele>
        <time>2024-12-06T09:23:35.000Z</time>
      </trkpt>
      <trkpt lat="43.713" lon="6.86396">
        <ele>994.204485</ele>
        <time>2024-12-06T09:23:36.000Z</time>
      </trkpt>
      <trkpt lat="43.71303" lon="6.86394">
        <ele>994.274857</ele>
        <time>2024-12-06T09:23:37.000Z</time>
      </trkpt>
      <trkpt lat="43.71305" lon="6.86391">
        <ele>994.337597</ele>
        <time>2024-12-06T09:23:38.000Z</time>
      </trkpt>
      <trkpt lat="43.71307" lon="6.86388">
        <ele>994.397619</ele>
        <time>2024-12-06T09:23:39.000Z</time>
      </trkpt>
      <trkpt lat="43.7131" lon="6.86384">
        <ele>994.472712</ele>
        <time>2024-12-06T09:23:40.000Z</time>
      </trkpt>
      <trkpt lat="43.71312" lon="6.8638">
        <ele>994.549096</ele>
        <time>2024-12-06T09:23:41.000Z</time>
      </trkpt>
      <trkpt lat="43.71315" lon="6.86376">
        <ele>994.629919</ele>
        <time>2024-12-06T09:23:42.000Z</time>
      </trkpt>
      <trkpt lat="43.71318" lon="6.86373">
        <ele>994.710236</ele>
        <time>2024-12-06T09:23:43.000Z</time>
      </trkpt>
      <trkpt lat="43.71321" lon="6.86369">
        <ele>994.789997</ele>
        <time>2024-12-06T09:23:44.000Z</time>
      </trkpt>
      <trkpt lat="43.71325" lon="6.86367">
        <ele>994.86274</ele>
        <time>2024-12-06T09:23:45.000Z</time>
      </trkpt>
      <trkpt lat="43.71328" lon="6.86364">
        <ele>994.945021</ele>
        <time>2024-12-06T09:23:46.000Z</time>
      </trkpt>
      <trkpt lat="43.71332" lon="6.86361">
        <ele>995.026856</ele>
        <time>2024-12-06T09:23:47.000Z</time>
      </trkpt>
      <trkpt lat="43.71335" lon="6.86359">
        <ele>995.099447</ele>
        <time>2024-12-06T09:23:48.000Z</time>
      </trkpt>
      <trkpt lat="43.71338" lon="6.86356">
        <ele>995.169302</ele>
        <time>2024-12-06T09:23:49.000Z</time>
      </trkpt>
      <trkpt lat="43.71341" lon="6.86354">
        <ele>995.240825</ele>
        <time>2024-12-06T09:23:50.000Z</time>
      </trkpt>
      <trkpt lat="43.71344" lon="6.86351">
        <ele>995.311497</ele>
        <time>2024-12-06T09:23:51.000Z</time>
      </trkpt>
      <trkpt lat="43.71346" lon="6.86348">
        <ele>995.376345</ele>
        <time>2024-12-06T09:23:52.000Z</time>
      </trkpt>
      <trkpt lat="43.71347" lon="6.86344">
        <ele>995.430748</ele>
        <time>2024-12-06T09:23:53.000Z</time>
      </trkpt>
      <trkpt lat="43.71347" lon="6.8634">
        <ele>995.484231</ele>
        <time>2024-12-06T09:23:54.000Z</time>
      </trkpt>
      <trkpt lat="43.71346" lon="6.86337">
        <ele>995.528297</ele>
        <time>2024-12-06T09:23:55.000Z</time>
      </trkpt>
      <trkpt lat="43.71346" lon="6.86334">
        <ele>995.575588</ele>
        <time>2024-12-06T09:23:56.000Z</time>
      </trkpt>
      <trkpt lat="43.71345" lon="6.86331">
        <ele>995.615849</ele>
        <time>2024-12-06T09:23:57.000Z</time>
      </trkpt>
      <trkpt lat="43.71345" lon="6.8633">
        <ele>995.641126</ele>
        <time>2024-12-06T09:23:58.000Z</time>
      </trkpt>
      <trkpt lat="43.71345" lon="6.86327">
        <ele>995.573364</ele>
        <time>2024-12-06T09:23:59.000Z</time>
      </trkpt>
      <trkpt lat="43.71345" lon="6.86324">
        <ele>995.425228</ele>
        <time>2024-12-06T09:24:00.000Z</time>
      </trkpt>
      <trkpt lat="43.71346" lon="6.86321">
        <ele>995.266303</ele>
        <time>2024-12-06T09:24:01.000Z</time>
      </trkpt>
      <trkpt lat="43.71347" lon="6.86318">
        <ele>995.113604</ele>
        <time>2024-12-06T09:24:02.000Z</time>
      </trkpt>
      <trkpt lat="43.71348" lon="6.86315">
        <ele>994.960905</ele>
        <time>2024-12-06T09:24:03.000Z</time>
      </trkpt>
      <trkpt lat="43.7135" lon="6.86312">
        <ele>994.786065</ele>
        <time>2024-12-06T09:24:04.000Z</time>
      </trkpt>
      <trkpt lat="43.71352" lon="6.86309">
        <ele>994.604315</ele>
        <time>2024-12-06T09:24:05.000Z</time>
      </trkpt>
      <trkpt lat="43.71357" lon="6.86298">
        <ele>994.04436</ele>
        <time>2024-12-06T09:24:08.000Z</time>
      </trkpt>
      <trkpt lat="43.71363" lon="6.86287">
        <ele>993.378958</ele>
        <time>2024-12-06T09:24:11.000Z</time>
      </trkpt>
      <trkpt lat="43.7137" lon="6.86281">
        <ele>992.866435</ele>
        <time>2024-12-06T09:24:13.000Z</time>
      </trkpt>
      <trkpt lat="43.71375" lon="6.8628">
        <ele>992.591614</ele>
        <time>2024-12-06T09:24:14.000Z</time>
      </trkpt>
      <trkpt lat="43.71379" lon="6.86281">
        <ele>992.305303</ele>
        <time>2024-12-06T09:24:15.000Z</time>
      </trkpt>
      <trkpt lat="43.71389" lon="6.86287">
        <ele>991.657306</ele>
        <time>2024-12-06T09:24:17.000Z</time>
      </trkpt>
      <trkpt lat="43.71394" lon="6.86291">
        <ele>991.322542</ele>
        <time>2024-12-06T09:24:18.000Z</time>
      </trkpt>
      <trkpt lat="43.71398" lon="6.86295">
        <ele>990.983006</ele>
        <time>2024-12-06T09:24:19.000Z</time>
      </trkpt>
      <trkpt lat="43.71403" lon="6.86299">
        <ele>990.646132</ele>
        <time>2024-12-06T09:24:20.000Z</time>
      </trkpt>
      <trkpt lat="43.71422" lon="6.86322">
        <ele>989.091353</ele>
        <time>2024-12-06T09:24:24.000Z</time>
      </trkpt>
      <trkpt lat="43.71426" lon="6.86328">
        <ele>988.675813</ele>
        <time>2024-12-06T09:24:25.000Z</time>
      </trkpt>
      <trkpt lat="43.71431" lon="6.86335">
        <ele>988.230046</ele>
        <time>2024-12-06T09:24:26.000Z</time>
      </trkpt>
      <trkpt lat="43.71441" lon="6.86349">
        <ele>987.384487</ele>
        <time>2024-12-06T09:24:28.000Z</time>
      </trkpt>
      <trkpt lat="43.71446" lon="6.86354">
        <ele>986.967946</ele>
        <time>2024-12-06T09:24:29.000Z</time>
      </trkpt>
      <trkpt lat="43.71452" lon="6.8636">
        <ele>986.523801</ele>
        <time>2024-12-06T09:24:30.000Z</time>
      </trkpt>
      <trkpt lat="43.71459" lon="6.86364">
        <ele>986.057678</ele>
        <time>2024-12-06T09:24:31.000Z</time>
      </trkpt>
      <trkpt lat="43.71472" lon="6.86373">
        <ele>985.16719</ele>
        <time>2024-12-06T09:24:33.000Z</time>
      </trkpt>
      <trkpt lat="43.71501" lon="6.8639">
        <ele>983.008563</ele>
        <time>2024-12-06T09:24:37.000Z</time>
      </trkpt>
      <trkpt lat="43.71507" lon="6.86395">
        <ele>982.445547</ele>
        <time>2024-12-06T09:24:38.000Z</time>
      </trkpt>
      <trkpt lat="43.71513" lon="6.86401">
        <ele>981.906075</ele>
        <time>2024-12-06T09:24:39.000Z</time>
      </trkpt>
      <trkpt lat="43.71525" lon="6.86413">
        <ele>980.839027</ele>
        <time>2024-12-06T09:24:41.000Z</time>
      </trkpt>
      <trkpt lat="43.71532" lon="6.86418">
        <ele>980.287348</ele>
        <time>2024-12-06T09:24:42.000Z</time>
      </trkpt>
      <trkpt lat="43.71538" lon="6.86424">
        <ele>979.72268</ele>
        <time>2024-12-06T09:24:43.000Z</time>
      </trkpt>
      <trkpt lat="43.71545" lon="6.86429">
        <ele>979.164277</ele>
        <time>2024-12-06T09:24:44.000Z</time>
      </trkpt>
      <trkpt lat="43.71558" lon="6.86439">
        <ele>978.027451</ele>
        <time>2024-12-06T09:24:46.000Z</time>
      </trkpt>
      <trkpt lat="43.7158" lon="6.86451">
        <ele>976.324373</ele>
        <time>2024-12-06T09:24:49.000Z</time>
      </trkpt>
      <trkpt lat="43.71587" lon="6.86456">
        <ele>975.756356</ele>
        <time>2024-12-06T09:24:50.000Z</time>
      </trkpt>
      <trkpt lat="43.71594" lon="6.8646">
        <ele>975.206186</ele>
        <time>2024-12-06T09:24:51.000Z</time>
      </trkpt>
      <trkpt lat="43.71608" lon="6.86467">
        <ele>974.109701</ele>
        <time>2024-12-06T09:24:53.000Z</time>
      </trkpt>
      <trkpt lat="43.71623" lon="6.86472">
        <ele>972.970499</ele>
        <time>2024-12-06T09:24:55.000Z</time>
      </trkpt>
      <trkpt lat="43.71631" lon="6.86474">
        <ele>972.389116</ele>
        <time>2024-12-06T09:24:56.000Z</time>
      </trkpt>
      <trkpt lat="43.71638" lon="6.86475">
        <ele>971.826485</ele>
        <time>2024-12-06T09:24:57.000Z</time>
      </trkpt>
      <trkpt lat="43.71646" lon="6.86477">
        <ele>971.283698</ele>
        <time>2024-12-06T09:24:58.000Z</time>
      </trkpt>
      <trkpt lat="43.71654" lon="6.86478">
        <ele>970.902432</ele>
        <time>2024-12-06T09:24:59.000Z</time>
      </trkpt>
      <trkpt lat="43.71669" lon="6.86481">
        <ele>970.139463</ele>
        <time>2024-12-06T09:25:01.000Z</time>
      </trkpt>
      <trkpt lat="43.71677" lon="6.86482">
        <ele>969.757751</ele>
        <time>2024-12-06T09:25:02.000Z</time>
      </trkpt>
      <trkpt lat="43.71685" lon="6.86484">
        <ele>969.369082</ele>
        <time>2024-12-06T09:25:03.000Z</time>
      </trkpt>
      <trkpt lat="43.71714" lon="6.86491">
        <ele>967.891165</ele>
        <time>2024-12-06T09:25:07.000Z</time>
      </trkpt>
      <trkpt lat="43.71736" lon="6.86496">
        <ele>966.819013</ele>
        <time>2024-12-06T09:25:10.000Z</time>
      </trkpt>
      <trkpt lat="43.71743" lon="6.86497">
        <ele>966.465447</ele>
        <time>2024-12-06T09:25:11.000Z</time>
      </trkpt>
      <trkpt lat="43.7175" lon="6.86499">
        <ele>966.123179</ele>
        <time>2024-12-06T09:25:12.000Z</time>
      </trkpt>
      <trkpt lat="43.71757" lon="6.865">
        <ele>965.776915</ele>
        <time>2024-12-06T09:25:13.000Z</time>
      </trkpt>
      <trkpt lat="43.71763" lon="6.86501">
        <ele>965.449733</ele>
        <time>2024-12-06T09:25:14.000Z</time>
      </trkpt>
      <trkpt lat="43.7177" lon="6.86503">
        <ele>965.124598</ele>
        <time>2024-12-06T09:25:15.000Z</time>
      </trkpt>
      <trkpt lat="43.71776" lon="6.86504">
        <ele>964.804291</ele>
        <time>2024-12-06T09:25:16.000Z</time>
      </trkpt>
      <trkpt lat="43.71783" lon="6.86506">
        <ele>964.490092</ele>
        <time>2024-12-06T09:25:17.000Z</time>
      </trkpt>
      <trkpt lat="43.71789" lon="6.86507">
        <ele>964.188574</ele>
        <time>2024-12-06T09:25:18.000Z</time>
      </trkpt>
      <trkpt lat="43.71795" lon="6.86508">
        <ele>963.891944</ele>
        <time>2024-12-06T09:25:19.000Z</time>
      </trkpt>
      <trkpt lat="43.718" lon="6.86508">
        <ele>963.605085</ele>
        <time>2024-12-06T09:25:20.000Z</time>
      </trkpt>
      <trkpt lat="43.71806" lon="6.8651">
        <ele>963.311981</ele>
        <time>2024-12-06T09:25:21.000Z</time>
      </trkpt>
      <trkpt lat="43.71812" lon="6.86511">
        <ele>963.024704</ele>
        <time>2024-12-06T09:25:22.000Z</time>
      </trkpt>
      <trkpt lat="43.71818" lon="6.86511">
        <ele>962.738218</ele>
        <time>2024-12-06T09:25:23.000Z</time>
      </trkpt>
      <trkpt lat="43.71824" lon="6.86512">
        <ele>962.462282</ele>
        <time>2024-12-06T09:25:24.000Z</time>
      </trkpt>
      <trkpt lat="43.71829" lon="6.86514">
        <ele>962.334655</ele>
        <time>2024-12-06T09:25:25.000Z</time>
      </trkpt>
      <trkpt lat="43.71835" lon="6.86515">
        <ele>962.207029</ele>
        <time>2024-12-06T09:25:26.000Z</time>
      </trkpt>
      <trkpt lat="43.71841" lon="6.86516">
        <ele>962.086289</ele>
        <time>2024-12-06T09:25:27.000Z</time>
      </trkpt>
      <trkpt lat="43.71846" lon="6.86516">
        <ele>961.972226</ele>
        <time>2024-12-06T09:25:28.000Z</time>
      </trkpt>
      <trkpt lat="43.71851" lon="6.86517">
        <ele>961.851816</ele>
        <time>2024-12-06T09:25:29.000Z</time>
      </trkpt>
      <trkpt lat="43.71857" lon="6.86518">
        <ele>961.727302</ele>
        <time>2024-12-06T09:25:30.000Z</time>
      </trkpt>
      <trkpt lat="43.71863" lon="6.86518">
        <ele>961.607233</ele>
        <time>2024-12-06T09:25:31.000Z</time>
      </trkpt>
      <trkpt lat="43.71868" lon="6.86518">
        <ele>961.484895</ele>
        <time>2024-12-06T09:25:32.000Z</time>
      </trkpt>
      <trkpt lat="43.71874" lon="6.86519">
        <ele>961.36716</ele>
        <time>2024-12-06T09:25:33.000Z</time>
      </trkpt>
      <trkpt lat="43.71879" lon="6.86519">
        <ele>961.247245</ele>
        <time>2024-12-06T09:25:34.000Z</time>
      </trkpt>
      <trkpt lat="43.71885" lon="6.86519">
        <ele>961.129511</ele>
        <time>2024-12-06T09:25:35.000Z</time>
      </trkpt>
      <trkpt lat="43.71889" lon="6.86519">
        <ele>961.029178</ele>
        <time>2024-12-06T09:25:36.000Z</time>
      </trkpt>
      <trkpt lat="43.71893" lon="6.86517">
        <ele>960.933323</ele>
        <time>2024-12-06T09:25:37.000Z</time>
      </trkpt>
      <trkpt lat="43.71903" lon="6.86512">
        <ele>960.707205</ele>
        <time>2024-12-06T09:25:39.000Z</time>
      </trkpt>
      <trkpt lat="43.71908" lon="6.8651">
        <ele>960.594402</ele>
        <time>2024-12-06T09:25:40.000Z</time>
      </trkpt>
      <trkpt lat="43.71918" lon="6.86505">
        <ele>960.359856</ele>
        <time>2024-12-06T09:25:42.000Z</time>
      </trkpt>
      <trkpt lat="43.71935" lon="6.865">
        <ele>959.976763</ele>
        <time>2024-12-06T09:25:45.000Z</time>
      </trkpt>
      <trkpt lat="43.71954" lon="6.86494">
        <ele>959.568169</ele>
        <time>2024-12-06T09:25:48.000Z</time>
      </trkpt>
      <trkpt lat="43.71977" lon="6.86487">
        <ele>959.049126</ele>
        <time>2024-12-06T09:25:52.000Z</time>
      </trkpt>
      <trkpt lat="43.72018" lon="6.86476">
        <ele>958.247963</ele>
        <time>2024-12-06T09:25:59.000Z</time>
      </trkpt>
      <trkpt lat="43.72049" lon="6.86476">
        <ele>957.738514</ele>
        <time>2024-12-06T09:26:04.000Z</time>
      </trkpt>
      <trkpt lat="43.72056" lon="6.86476">
        <ele>957.634599</ele>
        <time>2024-12-06T09:26:05.000Z</time>
      </trkpt>
      <trkpt lat="43.72068" lon="6.86479">
        <ele>957.431963</ele>
        <time>2024-12-06T09:26:07.000Z</time>
      </trkpt>
      <trkpt lat="43.72087" lon="6.86482">
        <ele>957.129858</ele>
        <time>2024-12-06T09:26:10.000Z</time>
      </trkpt>
      <trkpt lat="43.72092" lon="6.86484">
        <ele>957.034844</ele>
        <time>2024-12-06T09:26:11.000Z</time>
      </trkpt>
      <trkpt lat="43.72098" lon="6.86485">
        <ele>956.947122</ele>
        <time>2024-12-06T09:26:12.000Z</time>
      </trkpt>
      <trkpt lat="43.72103" lon="6.86486">
        <ele>956.863983</ele>
        <time>2024-12-06T09:26:13.000Z</time>
      </trkpt>
      <trkpt lat="43.72107" lon="6.86486">
        <ele>956.799257</ele>
        <time>2024-12-06T09:26:14.000Z</time>
      </trkpt>
      <trkpt lat="43.7211" lon="6.86487">
        <ele>956.742358</ele>
        <time>2024-12-06T09:26:15.000Z</time>
      </trkpt>
      <trkpt lat="43.72115" lon="6.86487">
        <ele>956.672667</ele>
        <time>2024-12-06T09:26:16.000Z</time>
      </trkpt>
      <trkpt lat="43.72119" lon="6.86488">
        <ele>956.594967</ele>
        <time>2024-12-06T09:26:17.000Z</time>
      </trkpt>
      <trkpt lat="43.72124" lon="6.86489">
        <ele>956.525107</ele>
        <time>2024-12-06T09:26:18.000Z</time>
      </trkpt>
      <trkpt lat="43.72126" lon="6.8649">
        <ele>956.478622</ele>
        <time>2024-12-06T09:26:19.000Z</time>
      </trkpt>
      <trkpt lat="43.72128" lon="6.86491">
        <ele>956.443692</ele>
        <time>2024-12-06T09:26:20.000Z</time>
      </trkpt>
      <trkpt lat="43.72131" lon="6.86491">
        <ele>956.406043</ele>
        <time>2024-12-06T09:26:21.000Z</time>
      </trkpt>
      <trkpt lat="43.72133" lon="6.86492">
        <ele>956.368195</ele>
        <time>2024-12-06T09:26:22.000Z</time>
      </trkpt>
      <trkpt lat="43.72135" lon="6.86492">
        <ele>956.333519</ele>
        <time>2024-12-06T09:26:23.000Z</time>
      </trkpt>
      <trkpt lat="43.72138" lon="6.86493">
        <ele>956.29141</ele>
        <time>2024-12-06T09:26:24.000Z</time>
      </trkpt>
      <trkpt lat="43.72141" lon="6.86493">
        <ele>956.244456</ele>
        <time>2024-12-06T09:26:25.000Z</time>
      </trkpt>
      <trkpt lat="43.72147" lon="6.86494">
        <ele>956.139854</ele>
        <time>2024-12-06T09:26:27.000Z</time>
      </trkpt>
      <trkpt lat="43.7217" lon="6.865">
        <ele>955.766355</ele>
        <time>2024-12-06T09:26:33.000Z</time>
      </trkpt>
      <trkpt lat="43.72195" lon="6.86509">
        <ele>955.494854</ele>
        <time>2024-12-06T09:26:38.000Z</time>
      </trkpt>
      <trkpt lat="43.722" lon="6.86511">
        <ele>955.451684</ele>
        <time>2024-12-06T09:26:39.000Z</time>
      </trkpt>
      <trkpt lat="43.72224" lon="6.8652">
        <ele>955.255721</ele>
        <time>2024-12-06T09:26:43.000Z</time>
      </trkpt>
      <trkpt lat="43.7223" lon="6.86523">
        <ele>955.201854</ele>
        <time>2024-12-06T09:26:44.000Z</time>
      </trkpt>
      <trkpt lat="43.72242" lon="6.86527">
        <ele>955.100235</ele>
        <time>2024-12-06T09:26:46.000Z</time>
      </trkpt>
      <trkpt lat="43.72249" lon="6.8653">
        <ele>955.048118</ele>
        <time>2024-12-06T09:26:47.000Z</time>
      </trkpt>
      <trkpt lat="43.72255" lon="6.86532">
        <ele>954.994925</ele>
        <time>2024-12-06T09:26:48.000Z</time>
      </trkpt>
      <trkpt lat="43.72274" lon="6.8654">
        <ele>954.836886</ele>
        <time>2024-12-06T09:26:51.000Z</time>
      </trkpt>
      <trkpt lat="43.72293" lon="6.86548">
        <ele>954.678625</ele>
        <time>2024-12-06T09:26:54.000Z</time>
      </trkpt>
      <trkpt lat="43.7231" lon="6.86559">
        <ele>954.523415</ele>
        <time>2024-12-06T09:26:57.000Z</time>
      </trkpt>
      <trkpt lat="43.72315" lon="6.86564">
        <ele>954.478346</ele>
        <time>2024-12-06T09:26:58.000Z</time>
      </trkpt>
      <trkpt lat="43.7232" lon="6.86568">
        <ele>954.434264</ele>
        <time>2024-12-06T09:26:59.000Z</time>
      </trkpt>
      <trkpt lat="43.72324" lon="6.86572">
        <ele>954.3941</ele>
        <time>2024-12-06T09:27:00.000Z</time>
      </trkpt>
      <trkpt lat="43.72328" lon="6.86577">
        <ele>954.3502</ele>
        <time>2024-12-06T09:27:01.000Z</time>
      </trkpt>
      <trkpt lat="43.72332" lon="6.86582">
        <ele>954.306102</ele>
        <time>2024-12-06T09:27:02.000Z</time>
      </trkpt>
      <trkpt lat="43.7234" lon="6.86594">
        <ele>954.210609</ele>
        <time>2024-12-06T09:27:04.000Z</time>
      </trkpt>
      <trkpt lat="43.72349" lon="6.86605">
        <ele>953.986111</ele>
        <time>2024-12-06T09:27:06.000Z</time>
      </trkpt>
      <trkpt lat="43.72356" lon="6.86618">
        <ele>953.754241</ele>
        <time>2024-12-06T09:27:08.000Z</time>
      </trkpt>
      <trkpt lat="43.72359" lon="6.86626">
        <ele>953.625207</ele>
        <time>2024-12-06T09:27:09.000Z</time>
      </trkpt>
      <trkpt lat="43.72365" lon="6.86641">
        <ele>953.36714</ele>
        <time>2024-12-06T09:27:11.000Z</time>
      </trkpt>
      <trkpt lat="43.72375" lon="6.86686">
        <ele>952.677154</ele>
        <time>2024-12-06T09:27:17.000Z</time>
      </trkpt>
      <trkpt lat="43.72381" lon="6.86728">
        <ele>952.046624</ele>
        <time>2024-12-06T09:27:22.000Z</time>
      </trkpt>
      <trkpt lat="43.72384" lon="6.86744">
        <ele>951.807974</ele>
        <time>2024-12-06T09:27:24.000Z</time>
      </trkpt>
      <trkpt lat="43.72384" lon="6.8676">
        <ele>951.568847</ele>
        <time>2024-12-06T09:27:26.000Z</time>
      </trkpt>
      <trkpt lat="43.72384" lon="6.86768">
        <ele>951.459817</ele>
        <time>2024-12-06T09:27:27.000Z</time>
      </trkpt>
      <trkpt lat="43.72387" lon="6.86773">
        <ele>951.366971</ele>
        <time>2024-12-06T09:27:28.000Z</time>
      </trkpt>
      <trkpt lat="43.7239" lon="6.86776">
        <ele>951.278495</ele>
        <time>2024-12-06T09:27:29.000Z</time>
      </trkpt>
      <trkpt lat="43.72395" lon="6.86778">
        <ele>951.191132</ele>
        <time>2024-12-06T09:27:30.000Z</time>
      </trkpt>
      <trkpt lat="43.72399" lon="6.86776">
        <ele>951.108048</ele>
        <time>2024-12-06T09:27:31.000Z</time>
      </trkpt>
      <trkpt lat="43.72402" lon="6.86774">
        <ele>951.028473</ele>
        <time>2024-12-06T09:27:32.000Z</time>
      </trkpt>
      <trkpt lat="43.72411" lon="6.86765">
        <ele>950.806205</ele>
        <time>2024-12-06T09:27:34.000Z</time>
      </trkpt>
      <trkpt lat="43.72415" lon="6.86759">
        <ele>950.683282</ele>
        <time>2024-12-06T09:27:35.000Z</time>
      </trkpt>
      <trkpt lat="43.72419" lon="6.86752">
        <ele>950.554491</ele>
        <time>2024-12-06T09:27:36.000Z</time>
      </trkpt>
      <trkpt lat="43.72427" lon="6.86738">
        <ele>950.254246</ele>
        <time>2024-12-06T09:27:38.000Z</time>
      </trkpt>
      <trkpt lat="43.72431" lon="6.86732">
        <ele>950.111485</ele>
        <time>2024-12-06T09:27:39.000Z</time>
      </trkpt>
      <trkpt lat="43.72441" lon="6.86724">
        <ele>949.8384</ele>
        <time>2024-12-06T09:27:41.000Z</time>
      </trkpt>
      <trkpt lat="43.72446" lon="6.86723">
        <ele>949.703088</ele>
        <time>2024-12-06T09:27:42.000Z</time>
      </trkpt>
      <trkpt lat="43.72452" lon="6.86723">
        <ele>949.573614</ele>
        <time>2024-12-06T09:27:43.000Z</time>
      </trkpt>
      <trkpt lat="43.72457" lon="6.86725">
        <ele>949.443037</ele>
        <time>2024-12-06T09:27:44.000Z</time>
      </trkpt>
      <trkpt lat="43.72463" lon="6.86726">
        <ele>949.295873</ele>
        <time>2024-12-06T09:27:45.000Z</time>
      </trkpt>
      <trkpt lat="43.72489" lon="6.8673">
        <ele>948.685639</ele>
        <time>2024-12-06T09:27:49.000Z</time>
      </trkpt>
      <trkpt lat="43.72508" lon="6.86731">
        <ele>948.214152</ele>
        <time>2024-12-06T09:27:52.000Z</time>
      </trkpt>
      <trkpt lat="43.72521" lon="6.8673">
        <ele>947.902979</ele>
        <time>2024-12-06T09:27:54.000Z</time>
      </trkpt>
      <trkpt lat="43.72535" lon="6.86731">
        <ele>947.582368</ele>
        <time>2024-12-06T09:27:56.000Z</time>
      </trkpt>
      <trkpt lat="43.7256" lon="6.86734">
        <ele>946.965061</ele>
        <time>2024-12-06T09:28:00.000Z</time>
      </trkpt>
      <trkpt lat="43.72573" lon="6.86735">
        <ele>946.653754</ele>
        <time>2024-12-06T09:28:02.000Z</time>
      </trkpt>
      <trkpt lat="43.7258" lon="6.86734">
        <ele>946.502405</ele>
        <time>2024-12-06T09:28:03.000Z</time>
      </trkpt>
      <trkpt lat="43.72586" lon="6.86732">
        <ele>946.353876</ele>
        <time>2024-12-06T09:28:04.000Z</time>
      </trkpt>
      <trkpt lat="43.72592" lon="6.8673">
        <ele>946.268618</ele>
        <time>2024-12-06T09:28:05.000Z</time>
      </trkpt>
      <trkpt lat="43.72608" lon="6.86724">
        <ele>946.53362</ele>
        <time>2024-12-06T09:28:08.000Z</time>
      </trkpt>
      <trkpt lat="43.72613" lon="6.86722">
        <ele>946.612531</ele>
        <time>2024-12-06T09:28:09.000Z</time>
      </trkpt>
      <trkpt lat="43.72619" lon="6.86721">
        <ele>946.698903</ele>
        <time>2024-12-06T09:28:10.000Z</time>
      </trkpt>
      <trkpt lat="43.72624" lon="6.86719">
        <ele>946.783542</ele>
        <time>2024-12-06T09:28:11.000Z</time>
      </trkpt>
      <trkpt lat="43.7263" lon="6.86718">
        <ele>946.870392</ele>
        <time>2024-12-06T09:28:12.000Z</time>
      </trkpt>
      <trkpt lat="43.72635" lon="6.86717">
        <ele>946.953892</ele>
        <time>2024-12-06T09:28:13.000Z</time>
      </trkpt>
      <trkpt lat="43.72641" lon="6.86716">
        <ele>947.035491</ele>
        <time>2024-12-06T09:28:14.000Z</time>
      </trkpt>
      <trkpt lat="43.72646" lon="6.86715">
        <ele>947.119146</ele>
        <time>2024-12-06T09:28:15.000Z</time>
      </trkpt>
      <trkpt lat="43.72651" lon="6.86714">
        <ele>947.204662</ele>
        <time>2024-12-06T09:28:16.000Z</time>
      </trkpt>
      <trkpt lat="43.72657" lon="6.86713">
        <ele>947.292365</ele>
        <time>2024-12-06T09:28:17.000Z</time>
      </trkpt>
      <trkpt lat="43.72663" lon="6.86713">
        <ele>947.378307</ele>
        <time>2024-12-06T09:28:18.000Z</time>
      </trkpt>
      <trkpt lat="43.72681" lon="6.86715">
        <ele>947.653087</ele>
        <time>2024-12-06T09:28:21.000Z</time>
      </trkpt>
      <trkpt lat="43.72696" lon="6.86721">
        <ele>947.904492</ele>
        <time>2024-12-06T09:28:24.000Z</time>
      </trkpt>
      <trkpt lat="43.72711" lon="6.86728">
        <ele>948.143565</ele>
        <time>2024-12-06T09:28:27.000Z</time>
      </trkpt>
      <trkpt lat="43.72716" lon="6.86731">
        <ele>948.223606</ele>
        <time>2024-12-06T09:28:28.000Z</time>
      </trkpt>
      <trkpt lat="43.7272" lon="6.86733">
        <ele>948.284898</ele>
        <time>2024-12-06T09:28:29.000Z</time>
      </trkpt>
      <trkpt lat="43.72725" lon="6.86736">
        <ele>948.375917</ele>
        <time>2024-12-06T09:28:30.000Z</time>
      </trkpt>
      <trkpt lat="43.7273" lon="6.86739">
        <ele>948.45339</ele>
        <time>2024-12-06T09:28:31.000Z</time>
      </trkpt>
      <trkpt lat="43.72734" lon="6.86743">
        <ele>948.532301</ele>
        <time>2024-12-06T09:28:32.000Z</time>
      </trkpt>
      <trkpt lat="43.72738" lon="6.86747">
        <ele>948.61171</ele>
        <time>2024-12-06T09:28:33.000Z</time>
      </trkpt>
      <trkpt lat="43.72742" lon="6.8675">
        <ele>948.67536</ele>
        <time>2024-12-06T09:28:34.000Z</time>
      </trkpt>
      <trkpt lat="43.72746" lon="6.86754">
        <ele>948.752888</ele>
        <time>2024-12-06T09:28:35.000Z</time>
      </trkpt>
      <trkpt lat="43.7275" lon="6.86758">
        <ele>948.828628</ele>
        <time>2024-12-06T09:28:36.000Z</time>
      </trkpt>
      <trkpt lat="43.72754" lon="6.86763">
        <ele>948.908148</ele>
        <time>2024-12-06T09:28:37.000Z</time>
      </trkpt>
      <trkpt lat="43.72758" lon="6.86768">
        <ele>948.990023</ele>
        <time>2024-12-06T09:28:38.000Z</time>
      </trkpt>
      <trkpt lat="43.72762" lon="6.86772">
        <ele>948.984298</ele>
        <time>2024-12-06T09:28:39.000Z</time>
      </trkpt>
      <trkpt lat="43.72766" lon="6.86777">
        <ele>948.963513</ele>
        <time>2024-12-06T09:28:40.000Z</time>
      </trkpt>
      <trkpt lat="43.72769" lon="6.86783">
        <ele>948.942477</ele>
        <time>2024-12-06T09:28:41.000Z</time>
      </trkpt>
      <trkpt lat="43.72772" lon="6.86789">
        <ele>948.921471</ele>
        <time>2024-12-06T09:28:42.000Z</time>
      </trkpt>
      <trkpt lat="43.72776" lon="6.86795">
        <ele>948.900013</ele>
        <time>2024-12-06T09:28:43.000Z</time>
      </trkpt>
      <trkpt lat="43.72778" lon="6.86801">
        <ele>948.879471</ele>
        <time>2024-12-06T09:28:44.000Z</time>
      </trkpt>
      <trkpt lat="43.7279" lon="6.86826">
        <ele>948.793995</ele>
        <time>2024-12-06T09:28:48.000Z</time>
      </trkpt>
      <trkpt lat="43.72793" lon="6.86832">
        <ele>948.772754</ele>
        <time>2024-12-06T09:28:49.000Z</time>
      </trkpt>
      <trkpt lat="43.72796" lon="6.86838">
        <ele>948.752705</ele>
        <time>2024-12-06T09:28:50.000Z</time>
      </trkpt>
      <trkpt lat="43.72799" lon="6.86843">
        <ele>948.731957</ele>
        <time>2024-12-06T09:28:51.000Z</time>
      </trkpt>
      <trkpt lat="43.72802" lon="6.86849">
        <ele>948.711196</ele>
        <time>2024-12-06T09:28:52.000Z</time>
      </trkpt>
      <trkpt lat="43.72804" lon="6.86855">
        <ele>948.691135</ele>
        <time>2024-12-06T09:28:53.000Z</time>
      </trkpt>
      <trkpt lat="43.72807" lon="6.86862">
        <ele>948.667679</ele>
        <time>2024-12-06T09:28:54.000Z</time>
      </trkpt>
      <trkpt lat="43.7281" lon="6.86869">
        <ele>948.646942</ele>
        <time>2024-12-06T09:28:55.000Z</time>
      </trkpt>
      <trkpt lat="43.72812" lon="6.86874">
        <ele>948.629691</ele>
        <time>2024-12-06T09:28:56.000Z</time>
      </trkpt>
      <trkpt lat="43.72815" lon="6.86879">
        <ele>948.60957</ele>
        <time>2024-12-06T09:28:57.000Z</time>
      </trkpt>
      <trkpt lat="43.72818" lon="6.86884">
        <ele>948.590905</ele>
        <time>2024-12-06T09:28:58.000Z</time>
      </trkpt>
      <trkpt lat="43.72822" lon="6.8689">
        <ele>948.570372</ele>
        <time>2024-12-06T09:28:59.000Z</time>
      </trkpt>
      <trkpt lat="43.72825" lon="6.86895">
        <ele>948.550084</ele>
        <time>2024-12-06T09:29:00.000Z</time>
      </trkpt>
      <trkpt lat="43.72827" lon="6.86901">
        <ele>948.529963</ele>
        <time>2024-12-06T09:29:01.000Z</time>
      </trkpt>
      <trkpt lat="43.72829" lon="6.86908">
        <ele>948.509943</ele>
        <time>2024-12-06T09:29:02.000Z</time>
      </trkpt>
      <trkpt lat="43.72831" lon="6.86913">
        <ele>948.492356</ele>
        <time>2024-12-06T09:29:03.000Z</time>
      </trkpt>
      <trkpt lat="43.72832" lon="6.86918">
        <ele>948.476982</ele>
        <time>2024-12-06T09:29:04.000Z</time>
      </trkpt>
      <trkpt lat="43.72834" lon="6.86922">
        <ele>948.464149</ele>
        <time>2024-12-06T09:29:05.000Z</time>
      </trkpt>
      <trkpt lat="43.72837" lon="6.86925">
        <ele>948.449323</ele>
        <time>2024-12-06T09:29:06.000Z</time>
      </trkpt>
      <trkpt lat="43.7284" lon="6.86929">
        <ele>948.434148</ele>
        <time>2024-12-06T09:29:07.000Z</time>
      </trkpt>
      <trkpt lat="43.72841" lon="6.86933">
        <ele>948.422719</ele>
        <time>2024-12-06T09:29:08.000Z</time>
      </trkpt>
      <trkpt lat="43.72843" lon="6.86935">
        <ele>948.413809</ele>
        <time>2024-12-06T09:29:09.000Z</time>
      </trkpt>
      <trkpt lat="43.72844" lon="6.86937">
        <ele>948.404739</ele>
        <time>2024-12-06T09:29:10.000Z</time>
      </trkpt>
      <trkpt lat="43.72846" lon="6.8694">
        <ele>948.394221</ele>
        <time>2024-12-06T09:29:11.000Z</time>
      </trkpt>
      <trkpt lat="43.72847" lon="6.86942">
        <ele>948.387897</ele>
        <time>2024-12-06T09:29:12.000Z</time>
      </trkpt>
      <trkpt lat="43.72848" lon="6.86943">
        <ele>948.383</ele>
        <time>2024-12-06T09:29:13.000Z</time>
      </trkpt>
      <trkpt lat="43.72848" lon="6.86945">
        <ele>948.377621</ele>
        <time>2024-12-06T09:29:14.000Z</time>
      </trkpt>
      <trkpt lat="43.72849" lon="6.86947">
        <ele>948.370099</ele>
        <time>2024-12-06T09:29:15.000Z</time>
      </trkpt>
      <trkpt lat="43.72852" lon="6.86954">
        <ele>948.347207</ele>
        <time>2024-12-06T09:29:18.000Z</time>
      </trkpt>
      <trkpt lat="43.72854" lon="6.8696">
        <ele>948.327821</ele>
        <time>2024-12-06T09:29:20.000Z</time>
      </trkpt>
      <trkpt lat="43.72859" lon="6.86968">
        <ele>948.297747</ele>
        <time>2024-12-06T09:29:23.000Z</time>
      </trkpt>
      <trkpt lat="43.72864" lon="6.86982">
        <ele>948.900977</ele>
        <time>2024-12-06T09:29:27.000Z</time>
      </trkpt>
      <trkpt lat="43.72878" lon="6.8701">
        <ele>950.745974</ele>
        <time>2024-12-06T09:29:33.000Z</time>
      </trkpt>
      <trkpt lat="43.72885" lon="6.87025">
        <ele>951.723391</ele>
        <time>2024-12-06T09:29:36.000Z</time>
      </trkpt>
      <trkpt lat="43.72888" lon="6.87029">
        <ele>952.049394</ele>
        <time>2024-12-06T09:29:37.000Z</time>
      </trkpt>
      <trkpt lat="43.72891" lon="6.87035">
        <ele>952.441322</ele>
        <time>2024-12-06T09:29:38.000Z</time>
      </trkpt>
      <trkpt lat="43.72893" lon="6.87039">
        <ele>952.705697</ele>
        <time>2024-12-06T09:29:39.000Z</time>
      </trkpt>
      <trkpt lat="43.72896" lon="6.87043">
        <ele>953.025053</ele>
        <time>2024-12-06T09:29:40.000Z</time>
      </trkpt>
      <trkpt lat="43.72899" lon="6.87048">
        <ele>953.320498</ele>
        <time>2024-12-06T09:29:41.000Z</time>
      </trkpt>
      <trkpt lat="43.72901" lon="6.87052">
        <ele>953.629795</ele>
        <time>2024-12-06T09:29:42.000Z</time>
      </trkpt>
      <trkpt lat="43.72904" lon="6.87056">
        <ele>953.9413</ele>
        <time>2024-12-06T09:29:43.000Z</time>
      </trkpt>
      <trkpt lat="43.72907" lon="6.8706">
        <ele>954.264646</ele>
        <time>2024-12-06T09:29:44.000Z</time>
      </trkpt>
      <trkpt lat="43.7291" lon="6.87066">
        <ele>954.665459</ele>
        <time>2024-12-06T09:29:45.000Z</time>
      </trkpt>
      <trkpt lat="43.72913" lon="6.87071">
        <ele>955.000397</ele>
        <time>2024-12-06T09:29:46.000Z</time>
      </trkpt>
      <trkpt lat="43.72915" lon="6.87075">
        <ele>955.260556</ele>
        <time>2024-12-06T09:29:47.000Z</time>
      </trkpt>
      <trkpt lat="43.72918" lon="6.87079">
        <ele>955.57813</ele>
        <time>2024-12-06T09:29:48.000Z</time>
      </trkpt>
      <trkpt lat="43.72922" lon="6.87085">
        <ele>955.976043</ele>
        <time>2024-12-06T09:29:49.000Z</time>
      </trkpt>
      <trkpt lat="43.72925" lon="6.87089">
        <ele>956.308469</ele>
        <time>2024-12-06T09:29:50.000Z</time>
      </trkpt>
      <trkpt lat="43.72927" lon="6.87094">
        <ele>956.603462</ele>
        <time>2024-12-06T09:29:51.000Z</time>
      </trkpt>
      <trkpt lat="43.7293" lon="6.87098">
        <ele>956.925232</ele>
        <time>2024-12-06T09:29:52.000Z</time>
      </trkpt>
      <trkpt lat="43.72932" lon="6.87103">
        <ele>957.233422</ele>
        <time>2024-12-06T09:29:53.000Z</time>
      </trkpt>
      <trkpt lat="43.72934" lon="6.87107">
        <ele>957.468521</ele>
        <time>2024-12-06T09:29:54.000Z</time>
      </trkpt>
      <trkpt lat="43.72935" lon="6.87111">
        <ele>957.7515</ele>
        <time>2024-12-06T09:29:55.000Z</time>
      </trkpt>
      <trkpt lat="43.72937" lon="6.87116">
        <ele>958.064557</ele>
        <time>2024-12-06T09:29:56.000Z</time>
      </trkpt>
      <trkpt lat="43.72939" lon="6.87122">
        <ele>958.423317</ele>
        <time>2024-12-06T09:29:57.000Z</time>
      </trkpt>
      <trkpt lat="43.7294" lon="6.87126">
        <ele>958.64848</ele>
        <time>2024-12-06T09:29:58.000Z</time>
      </trkpt>
      <trkpt lat="43.72942" lon="6.87131">
        <ele>958.938715</ele>
        <time>2024-12-06T09:29:59.000Z</time>
      </trkpt>
      <trkpt lat="43.72944" lon="6.87135">
        <ele>959.190674</ele>
        <time>2024-12-06T09:30:00.000Z</time>
      </trkpt>
      <trkpt lat="43.72946" lon="6.87139">
        <ele>959.45205</ele>
        <time>2024-12-06T09:30:01.000Z</time>
      </trkpt>
      <trkpt lat="43.72947" lon="6.87143">
        <ele>959.721864</ele>
        <time>2024-12-06T09:30:02.000Z</time>
      </trkpt>
      <trkpt lat="43.72949" lon="6.87149">
        <ele>960.0417</ele>
        <time>2024-12-06T09:30:03.000Z</time>
      </trkpt>
      <trkpt lat="43.72951" lon="6.87153">
        <ele>960.292957</ele>
        <time>2024-12-06T09:30:04.000Z</time>
      </trkpt>
      <trkpt lat="43.72953" lon="6.87156">
        <ele>960.552612</ele>
        <time>2024-12-06T09:30:05.000Z</time>
      </trkpt>
      <trkpt lat="43.72955" lon="6.87159">
        <ele>960.741973</ele>
        <time>2024-12-06T09:30:06.000Z</time>
      </trkpt>
      <trkpt lat="43.72957" lon="6.87163">
        <ele>961.034089</ele>
        <time>2024-12-06T09:30:07.000Z</time>
      </trkpt>
      <trkpt lat="43.7296" lon="6.87166">
        <ele>961.282718</ele>
        <time>2024-12-06T09:30:08.000Z</time>
      </trkpt>
      <trkpt lat="43.72962" lon="6.8717">
        <ele>961.551497</ele>
        <time>2024-12-06T09:30:09.000Z</time>
      </trkpt>
      <trkpt lat="43.72965" lon="6.87173">
        <ele>961.824383</ele>
        <time>2024-12-06T09:30:10.000Z</time>
      </trkpt>
      <trkpt lat="43.72968" lon="6.87177">
        <ele>962.045551</ele>
        <time>2024-12-06T09:30:11.000Z</time>
      </trkpt>
      <trkpt lat="43.72971" lon="6.8718">
        <ele>962.262313</ele>
        <time>2024-12-06T09:30:12.000Z</time>
      </trkpt>
      <trkpt lat="43.72974" lon="6.87183">
        <ele>962.487357</ele>
        <time>2024-12-06T09:30:13.000Z</time>
      </trkpt>
      <trkpt lat="43.72977" lon="6.87186">
        <ele>962.708323</ele>
        <time>2024-12-06T09:30:14.000Z</time>
      </trkpt>
      <trkpt lat="43.72981" lon="6.87188">
        <ele>962.924979</ele>
        <time>2024-12-06T09:30:15.000Z</time>
      </trkpt>
      <trkpt lat="43.72984" lon="6.8719">
        <ele>963.133762</ele>
        <time>2024-12-06T09:30:16.000Z</time>
      </trkpt>
      <trkpt lat="43.72987" lon="6.87194">
        <ele>963.374741</ele>
        <time>2024-12-06T09:30:17.000Z</time>
      </trkpt>
      <trkpt lat="43.72989" lon="6.87198">
        <ele>963.59585</ele>
        <time>2024-12-06T09:30:18.000Z</time>
      </trkpt>
      <trkpt lat="43.72992" lon="6.87202">
        <ele>963.827915</ele>
        <time>2024-12-06T09:30:19.000Z</time>
      </trkpt>
      <trkpt lat="43.72995" lon="6.87206">
        <ele>964.051033</ele>
        <time>2024-12-06T09:30:20.000Z</time>
      </trkpt>
      <trkpt lat="43.72997" lon="6.87209">
        <ele>964.254997</ele>
        <time>2024-12-06T09:30:21.000Z</time>
      </trkpt>
      <trkpt lat="43.73" lon="6.87213">
        <ele>964.466306</ele>
        <time>2024-12-06T09:30:22.000Z</time>
      </trkpt>
      <trkpt lat="43.73003" lon="6.87216">
        <ele>964.69135</ele>
        <time>2024-12-06T09:30:23.000Z</time>
      </trkpt>
      <trkpt lat="43.73006" lon="6.87219">
        <ele>964.885189</ele>
        <time>2024-12-06T09:30:24.000Z</time>
      </trkpt>
      <trkpt lat="43.73008" lon="6.87221">
        <ele>965.040706</ele>
        <time>2024-12-06T09:30:25.000Z</time>
      </trkpt>
      <trkpt lat="43.73012" lon="6.87224">
        <ele>965.304018</ele>
        <time>2024-12-06T09:30:26.000Z</time>
      </trkpt>
      <trkpt lat="43.73015" lon="6.87227">
        <ele>965.524137</ele>
        <time>2024-12-06T09:30:27.000Z</time>
      </trkpt>
      <trkpt lat="43.73017" lon="6.8723">
        <ele>965.733751</ele>
        <time>2024-12-06T09:30:28.000Z</time>
      </trkpt>
      <trkpt lat="43.7302" lon="6.87234">
        <ele>965.943366</ele>
        <time>2024-12-06T09:30:29.000Z</time>
      </trkpt>
      <trkpt lat="43.73022" lon="6.87236">
        <ele>966.113053</ele>
        <time>2024-12-06T09:30:30.000Z</time>
      </trkpt>
      <trkpt lat="43.73025" lon="6.87241">
        <ele>966.360374</ele>
        <time>2024-12-06T09:30:31.000Z</time>
      </trkpt>
      <trkpt lat="43.73027" lon="6.87244">
        <ele>966.558622</ele>
        <time>2024-12-06T09:30:32.000Z</time>
      </trkpt>
      <trkpt lat="43.7303" lon="6.87248">
        <ele>966.760677</ele>
        <time>2024-12-06T09:30:33.000Z</time>
      </trkpt>
      <trkpt lat="43.73032" lon="6.87252">
        <ele>966.962153</ele>
        <time>2024-12-06T09:30:34.000Z</time>
      </trkpt>
      <trkpt lat="43.73034" lon="6.87255">
        <ele>967.138951</ele>
        <time>2024-12-06T09:30:35.000Z</time>
      </trkpt>
      <trkpt lat="43.73037" lon="6.87257">
        <ele>967.326099</ele>
        <time>2024-12-06T09:30:36.000Z</time>
      </trkpt>
      <trkpt lat="43.73039" lon="6.87261">
        <ele>967.537163</ele>
        <time>2024-12-06T09:30:37.000Z</time>
      </trkpt>
      <trkpt lat="43.73041" lon="6.87265">
        <ele>967.738317</ele>
        <time>2024-12-06T09:30:38.000Z</time>
      </trkpt>
      <trkpt lat="43.73044" lon="6.87268">
        <ele>967.928098</ele>
        <time>2024-12-06T09:30:39.000Z</time>
      </trkpt>
      <trkpt lat="43.73046" lon="6.87271">
        <ele>968.132061</ele>
        <time>2024-12-06T09:30:40.000Z</time>
      </trkpt>
      <trkpt lat="43.73048" lon="6.87275">
        <ele>968.302471</ele>
        <time>2024-12-06T09:30:41.000Z</time>
      </trkpt>
      <trkpt lat="43.73049" lon="6.87278">
        <ele>968.476616</ele>
        <time>2024-12-06T09:30:42.000Z</time>
      </trkpt>
      <trkpt lat="43.73051" lon="6.87281">
        <ele>968.620114</ele>
        <time>2024-12-06T09:30:43.000Z</time>
      </trkpt>
      <trkpt lat="43.73053" lon="6.87285">
        <ele>968.83487</ele>
        <time>2024-12-06T09:30:44.000Z</time>
      </trkpt>
      <trkpt lat="43.73054" lon="6.87288">
        <ele>968.97121</ele>
        <time>2024-12-06T09:30:45.000Z</time>
      </trkpt>
      <trkpt lat="43.73056" lon="6.87291">
        <ele>969.141724</ele>
        <time>2024-12-06T09:30:46.000Z</time>
      </trkpt>
      <trkpt lat="43.73058" lon="6.87295">
        <ele>969.343201</ele>
        <time>2024-12-06T09:30:47.000Z</time>
      </trkpt>
      <trkpt lat="43.7306" lon="6.87298">
        <ele>969.518827</ele>
        <time>2024-12-06T09:30:48.000Z</time>
      </trkpt>
      <trkpt lat="43.73062" lon="6.873">
        <ele>969.65613</ele>
        <time>2024-12-06T09:30:49.000Z</time>
      </trkpt>
      <trkpt lat="43.73064" lon="6.87304">
        <ele>969.879247</ele>
        <time>2024-12-06T09:30:50.000Z</time>
      </trkpt>
      <trkpt lat="43.73067" lon="6.87307">
        <ele>970.048934</ele>
        <time>2024-12-06T09:30:51.000Z</time>
      </trkpt>
      <trkpt lat="43.73068" lon="6.8731">
        <ele>970.209681</ele>
        <time>2024-12-06T09:30:52.000Z</time>
      </trkpt>
      <trkpt lat="43.73071" lon="6.87312">
        <ele>970.383606</ele>
        <time>2024-12-06T09:30:53.000Z</time>
      </trkpt>
      <trkpt lat="43.73072" lon="6.87314">
        <ele>970.501932</ele>
        <time>2024-12-06T09:30:54.000Z</time>
      </trkpt>
      <trkpt lat="43.73074" lon="6.87316">
        <ele>970.648018</ele>
        <time>2024-12-06T09:30:55.000Z</time>
      </trkpt>
      <trkpt lat="43.73075" lon="6.87318">
        <ele>970.756398</ele>
        <time>2024-12-06T09:30:56.000Z</time>
      </trkpt>
      <trkpt lat="43.73077" lon="6.87319">
        <ele>970.845076</ele>
        <time>2024-12-06T09:30:57.000Z</time>
      </trkpt>
      <trkpt lat="43.73078" lon="6.87321">
        <ele>970.936406</ele>
        <time>2024-12-06T09:30:58.000Z</time>
      </trkpt>
      <trkpt lat="43.73079" lon="6.87322">
        <ele>971.018386</ele>
        <time>2024-12-06T09:30:59.000Z</time>
      </trkpt>
      <trkpt lat="43.73079" lon="6.87324">
        <ele>971.085663</ele>
        <time>2024-12-06T09:31:00.000Z</time>
      </trkpt>
      <trkpt lat="43.73078" lon="6.87325">
        <ele>971.126568</ele>
        <time>2024-12-06T09:31:01.000Z</time>
      </trkpt>
      <trkpt lat="43.73078" lon="6.87325">
        <ele>971.173874</ele>
        <time>2024-12-06T09:31:02.000Z</time>
      </trkpt>
      <trkpt lat="43.73075" lon="6.87324">
        <ele>971.311476</ele>
        <time>2024-12-06T09:31:03.000Z</time>
      </trkpt>
      <trkpt lat="43.73074" lon="6.87322">
        <ele>971.404337</ele>
        <time>2024-12-06T09:31:04.000Z</time>
      </trkpt>
      <trkpt lat="43.73073" lon="6.8732">
        <ele>971.507895</ele>
        <time>2024-12-06T09:31:05.000Z</time>
      </trkpt>
      <trkpt lat="43.73073" lon="6.87317">
        <ele>971.62851</ele>
        <time>2024-12-06T09:31:06.000Z</time>
      </trkpt>
      <trkpt lat="43.73072" lon="6.87315">
        <ele>971.734811</ele>
        <time>2024-12-06T09:31:07.000Z</time>
      </trkpt>
      <trkpt lat="43.73071" lon="6.87314">
        <ele>971.813782</ele>
        <time>2024-12-06T09:31:08.000Z</time>
      </trkpt>
      <trkpt lat="43.73069" lon="6.87312">
        <ele>971.935828</ele>
        <time>2024-12-06T09:31:09.000Z</time>
      </trkpt>
      <trkpt lat="43.73068" lon="6.87311">
        <ele>972.014218</ele>
        <time>2024-12-06T09:31:10.000Z</time>
      </trkpt>
      <trkpt lat="43.73067" lon="6.87309">
        <ele>972.119903</ele>
        <time>2024-12-06T09:31:11.000Z</time>
      </trkpt>
      <trkpt lat="43.73066" lon="6.87307">
        <ele>972.208581</ele>
        <time>2024-12-06T09:31:12.000Z</time>
      </trkpt>
      <trkpt lat="43.73065" lon="6.87306">
        <ele>972.192338</ele>
        <time>2024-12-06T09:31:13.000Z</time>
      </trkpt>
      <trkpt lat="43.73063" lon="6.87303">
        <ele>971.944438</ele>
        <time>2024-12-06T09:31:14.000Z</time>
      </trkpt>
      <trkpt lat="43.7306" lon="6.87299">
        <ele>971.600386</ele>
        <time>2024-12-06T09:31:15.000Z</time>
      </trkpt>
      <trkpt lat="43.73058" lon="6.87296">
        <ele>971.324703</ele>
        <time>2024-12-06T09:31:16.000Z</time>
      </trkpt>
      <trkpt lat="43.73056" lon="6.87294">
        <ele>971.084611</ele>
        <time>2024-12-06T09:31:17.000Z</time>
      </trkpt>
      <trkpt lat="43.73044" lon="6.87276">
        <ele>969.570519</ele>
        <time>2024-12-06T09:31:21.000Z</time>
      </trkpt>
      <trkpt lat="43.73041" lon="6.8727">
        <ele>969.073733</ele>
        <time>2024-12-06T09:31:22.000Z</time>
      </trkpt>
      <trkpt lat="43.73037" lon="6.87264">
        <ele>968.538366</ele>
        <time>2024-12-06T09:31:23.000Z</time>
      </trkpt>
      <trkpt lat="43.73032" lon="6.87257">
        <ele>967.93994</ele>
        <time>2024-12-06T09:31:24.000Z</time>
      </trkpt>
      <trkpt lat="43.73026" lon="6.87251">
        <ele>967.304826</ele>
        <time>2024-12-06T09:31:25.000Z</time>
      </trkpt>
      <trkpt lat="43.73021" lon="6.87244">
        <ele>966.709995</ele>
        <time>2024-12-06T09:31:26.000Z</time>
      </trkpt>
      <trkpt lat="43.73017" lon="6.87237">
        <ele>966.149777</ele>
        <time>2024-12-06T09:31:27.000Z</time>
      </trkpt>
      <trkpt lat="43.73013" lon="6.87231">
        <ele>965.589998</ele>
        <time>2024-12-06T09:31:28.000Z</time>
      </trkpt>
      <trkpt lat="43.73004" lon="6.87221">
        <ele>964.548166</ele>
        <time>2024-12-06T09:31:30.000Z</time>
      </trkpt>
      <trkpt lat="43.72997" lon="6.87214">
        <ele>963.825994</ele>
        <time>2024-12-06T09:31:31.000Z</time>
      </trkpt>
      <trkpt lat="43.72987" lon="6.87201">
        <ele>962.568923</ele>
        <time>2024-12-06T09:31:33.000Z</time>
      </trkpt>
      <trkpt lat="43.72977" lon="6.87188">
        <ele>961.378675</ele>
        <time>2024-12-06T09:31:35.000Z</time>
      </trkpt>
      <trkpt lat="43.72969" lon="6.8718">
        <ele>960.552593</ele>
        <time>2024-12-06T09:31:36.000Z</time>
      </trkpt>
      <trkpt lat="43.72963" lon="6.87172">
        <ele>959.813289</ele>
        <time>2024-12-06T09:31:37.000Z</time>
      </trkpt>
      <trkpt lat="43.72958" lon="6.87166">
        <ele>959.219045</ele>
        <time>2024-12-06T09:31:38.000Z</time>
      </trkpt>
      <trkpt lat="43.72952" lon="6.87158">
        <ele>958.471759</ele>
        <time>2024-12-06T09:31:39.000Z</time>
      </trkpt>
      <trkpt lat="43.72946" lon="6.87149">
        <ele>957.679513</ele>
        <time>2024-12-06T09:31:40.000Z</time>
      </trkpt>
      <trkpt lat="43.72941" lon="6.87138">
        <ele>956.858094</ele>
        <time>2024-12-06T09:31:41.000Z</time>
      </trkpt>
      <trkpt lat="43.72936" lon="6.87127">
        <ele>956.157619</ele>
        <time>2024-12-06T09:31:42.000Z</time>
      </trkpt>
      <trkpt lat="43.72927" lon="6.87103">
        <ele>954.98669</ele>
        <time>2024-12-06T09:31:44.000Z</time>
      </trkpt>
      <trkpt lat="43.72922" lon="6.87092">
        <ele>954.397118</ele>
        <time>2024-12-06T09:31:45.000Z</time>
      </trkpt>
      <trkpt lat="43.72917" lon="6.87081">
        <ele>953.81274</ele>
        <time>2024-12-06T09:31:46.000Z</time>
      </trkpt>
      <trkpt lat="43.72911" lon="6.8707">
        <ele>953.221158</ele>
        <time>2024-12-06T09:31:47.000Z</time>
      </trkpt>
      <trkpt lat="43.72905" lon="6.87059">
        <ele>952.639668</ele>
        <time>2024-12-06T09:31:48.000Z</time>
      </trkpt>
      <trkpt lat="43.72897" lon="6.87048">
        <ele>951.957604</ele>
        <time>2024-12-06T09:31:49.000Z</time>
      </trkpt>
      <trkpt lat="43.72891" lon="6.87038">
        <ele>951.416857</ele>
        <time>2024-12-06T09:31:50.000Z</time>
      </trkpt>
      <trkpt lat="43.72881" lon="6.87019">
        <ele>950.353943</ele>
        <time>2024-12-06T09:31:52.000Z</time>
      </trkpt>
      <trkpt lat="43.72876" lon="6.8701">
        <ele>949.861501</ele>
        <time>2024-12-06T09:31:53.000Z</time>
      </trkpt>
      <trkpt lat="43.72872" lon="6.87002">
        <ele>949.46483</ele>
        <time>2024-12-06T09:31:54.000Z</time>
      </trkpt>
      <trkpt lat="43.72867" lon="6.86993">
        <ele>948.954831</ele>
        <time>2024-12-06T09:31:55.000Z</time>
      </trkpt>
      <trkpt lat="43.72862" lon="6.86982">
        <ele>948.387765</ele>
        <time>2024-12-06T09:31:56.000Z</time>
      </trkpt>
      <trkpt lat="43.72858" lon="6.86974">
        <ele>947.951497</ele>
        <time>2024-12-06T09:31:57.000Z</time>
      </trkpt>
      <trkpt lat="43.72855" lon="6.86965">
        <ele>947.530801</ele>
        <time>2024-12-06T09:31:58.000Z</time>
      </trkpt>
      <trkpt lat="43.72852" lon="6.86956">
        <ele>947.101465</ele>
        <time>2024-12-06T09:31:59.000Z</time>
      </trkpt>
      <trkpt lat="43.72848" lon="6.86948">
        <ele>946.692829</ele>
        <time>2024-12-06T09:32:00.000Z</time>
      </trkpt>
      <trkpt lat="43.72845" lon="6.86942">
        <ele>946.356212</ele>
        <time>2024-12-06T09:32:01.000Z</time>
      </trkpt>
      <trkpt lat="43.72842" lon="6.86938">
        <ele>946.11786</ele>
        <time>2024-12-06T09:32:02.000Z</time>
      </trkpt>
      <trkpt lat="43.7284" lon="6.86935">
        <ele>945.932628</ele>
        <time>2024-12-06T09:32:03.000Z</time>
      </trkpt>
      <trkpt lat="43.72838" lon="6.86933">
        <ele>945.803607</ele>
        <time>2024-12-06T09:32:04.000Z</time>
      </trkpt>
      <trkpt lat="43.72837" lon="6.86931">
        <ele>945.654794</ele>
        <time>2024-12-06T09:32:05.000Z</time>
      </trkpt>
      <trkpt lat="43.72835" lon="6.86928">
        <ele>945.524854</ele>
        <time>2024-12-06T09:32:06.000Z</time>
      </trkpt>
      <trkpt lat="43.72833" lon="6.86925">
        <ele>945.488123</ele>
        <time>2024-12-06T09:32:07.000Z</time>
      </trkpt>
      <trkpt lat="43.7283" lon="6.86916">
        <ele>945.396475</ele>
        <time>2024-12-06T09:32:10.000Z</time>
      </trkpt>
      <trkpt lat="43.7283" lon="6.86913">
        <ele>945.370322</ele>
        <time>2024-12-06T09:32:11.000Z</time>
      </trkpt>
      <trkpt lat="43.72832" lon="6.86911">
        <ele>945.348015</ele>
        <time>2024-12-06T09:32:12.000Z</time>
      </trkpt>
      <trkpt lat="43.72833" lon="6.8691">
        <ele>945.329975</ele>
        <time>2024-12-06T09:32:13.000Z</time>
      </trkpt>
      <trkpt lat="43.72834" lon="6.8691">
        <ele>945.316027</ele>
        <time>2024-12-06T09:32:14.000Z</time>
      </trkpt>
      <trkpt lat="43.72835" lon="6.8691">
        <ele>945.308201</ele>
        <time>2024-12-06T09:32:15.000Z</time>
      </trkpt>
      <trkpt lat="43.72835" lon="6.86911">
        <ele>945.30038</ele>
        <time>2024-12-06T09:32:22.000Z</time>
      </trkpt>
      <trkpt lat="43.72836" lon="6.86912">
        <ele>945.281059</ele>
        <time>2024-12-06T09:32:33.000Z</time>
      </trkpt>
      <trkpt lat="43.72838" lon="6.86914">
        <ele>945.258619</ele>
        <time>2024-12-06T09:32:34.000Z</time>
      </trkpt>
      <trkpt lat="43.72838" lon="6.86916">
        <ele>945.240691</ele>
        <time>2024-12-06T09:32:35.000Z</time>
      </trkpt>
      <trkpt lat="43.72839" lon="6.86918">
        <ele>945.214698</ele>
        <time>2024-12-06T09:32:36.000Z</time>
      </trkpt>
      <trkpt lat="43.72841" lon="6.86921">
        <ele>945.18202</ele>
        <time>2024-12-06T09:32:37.000Z</time>
      </trkpt>
      <trkpt lat="43.72851" lon="6.86937">
        <ele>944.9868</ele>
        <time>2024-12-06T09:32:41.000Z</time>
      </trkpt>
      <trkpt lat="43.72858" lon="6.86946">
        <ele>944.866571</ele>
        <time>2024-12-06T09:32:43.000Z</time>
      </trkpt>
      <trkpt lat="43.72866" lon="6.86955">
        <ele>944.738384</ele>
        <time>2024-12-06T09:32:45.000Z</time>
      </trkpt>
      <trkpt lat="43.72869" lon="6.86958">
        <ele>944.68707</ele>
        <time>2024-12-06T09:32:46.000Z</time>
      </trkpt>
      <trkpt lat="43.72873" lon="6.86963">
        <ele>944.618582</ele>
        <time>2024-12-06T09:32:47.000Z</time>
      </trkpt>
      <trkpt lat="43.72881" lon="6.86973">
        <ele>944.485612</ele>
        <time>2024-12-06T09:32:49.000Z</time>
      </trkpt>
      <trkpt lat="43.72885" lon="6.86978">
        <ele>944.415134</ele>
        <time>2024-12-06T09:32:50.000Z</time>
      </trkpt>
      <trkpt lat="43.72894" lon="6.86988">
        <ele>944.270552</ele>
        <time>2024-12-06T09:32:52.000Z</time>
      </trkpt>
      <trkpt lat="43.72899" lon="6.86994">
        <ele>944.182742</ele>
        <time>2024-12-06T09:32:53.000Z</time>
      </trkpt>
      <trkpt lat="43.72927" lon="6.8702">
        <ele>943.751055</ele>
        <time>2024-12-06T09:32:59.000Z</time>
      </trkpt>
      <trkpt lat="43.72934" lon="6.87026">
        <ele>943.654083</ele>
        <time>2024-12-06T09:33:00.000Z</time>
      </trkpt>
      <trkpt lat="43.72944" lon="6.87034">
        <ele>943.508255</ele>
        <time>2024-12-06T09:33:02.000Z</time>
      </trkpt>
      <trkpt lat="43.72949" lon="6.87039">
        <ele>943.426876</ele>
        <time>2024-12-06T09:33:03.000Z</time>
      </trkpt>
      <trkpt lat="43.7296" lon="6.87049">
        <ele>943.264509</ele>
        <time>2024-12-06T09:33:05.000Z</time>
      </trkpt>
      <trkpt lat="43.72966" lon="6.87054">
        <ele>943.145389</ele>
        <time>2024-12-06T09:33:06.000Z</time>
      </trkpt>
      <trkpt lat="43.72982" lon="6.87068">
        <ele>942.838301</ele>
        <time>2024-12-06T09:33:09.000Z</time>
      </trkpt>
      <trkpt lat="43.72991" lon="6.87079">
        <ele>942.645497</ele>
        <time>2024-12-06T09:33:11.000Z</time>
      </trkpt>
      <trkpt lat="43.73006" lon="6.87093">
        <ele>942.350031</ele>
        <time>2024-12-06T09:33:14.000Z</time>
      </trkpt>
      <trkpt lat="43.73011" lon="6.87097">
        <ele>942.25196</ele>
        <time>2024-12-06T09:33:15.000Z</time>
      </trkpt>
      <trkpt lat="43.73016" lon="6.87101">
        <ele>942.158077</ele>
        <time>2024-12-06T09:33:16.000Z</time>
      </trkpt>
      <trkpt lat="43.73021" lon="6.87106">
        <ele>942.064941</ele>
        <time>2024-12-06T09:33:17.000Z</time>
      </trkpt>
      <trkpt lat="43.73044" lon="6.87128">
        <ele>941.610193</ele>
        <time>2024-12-06T09:33:22.000Z</time>
      </trkpt>
      <trkpt lat="43.73048" lon="6.87132">
        <ele>941.518363</ele>
        <time>2024-12-06T09:33:23.000Z</time>
      </trkpt>
      <trkpt lat="43.73058" lon="6.87142">
        <ele>941.329497</ele>
        <time>2024-12-06T09:33:25.000Z</time>
      </trkpt>
      <trkpt lat="43.73063" lon="6.87146">
        <ele>941.233721</ele>
        <time>2024-12-06T09:33:26.000Z</time>
      </trkpt>
      <trkpt lat="43.73068" lon="6.87152">
        <ele>941.12238</ele>
        <time>2024-12-06T09:33:27.000Z</time>
      </trkpt>
      <trkpt lat="43.73072" lon="6.87157">
        <ele>941.031367</ele>
        <time>2024-12-06T09:33:28.000Z</time>
      </trkpt>
      <trkpt lat="43.73076" lon="6.87161">
        <ele>940.95591</ele>
        <time>2024-12-06T09:33:29.000Z</time>
      </trkpt>
      <trkpt lat="43.7308" lon="6.87166">
        <ele>940.865669</ele>
        <time>2024-12-06T09:33:30.000Z</time>
      </trkpt>
      <trkpt lat="43.73085" lon="6.87172">
        <ele>940.767655</ele>
        <time>2024-12-06T09:33:31.000Z</time>
      </trkpt>
      <trkpt lat="43.73088" lon="6.87177">
        <ele>940.680255</ele>
        <time>2024-12-06T09:33:32.000Z</time>
      </trkpt>
      <trkpt lat="43.73092" lon="6.87182">
        <ele>940.587576</ele>
        <time>2024-12-06T09:33:33.000Z</time>
      </trkpt>
      <trkpt lat="43.73096" lon="6.87188">
        <ele>940.494897</ele>
        <time>2024-12-06T09:33:34.000Z</time>
      </trkpt>
      <trkpt lat="43.731" lon="6.87193">
        <ele>940.41229</ele>
        <time>2024-12-06T09:33:35.000Z</time>
      </trkpt>
      <trkpt lat="43.73103" lon="6.87198">
        <ele>940.331</ele>
        <time>2024-12-06T09:33:36.000Z</time>
      </trkpt>
      <trkpt lat="43.73107" lon="6.87203">
        <ele>940.168538</ele>
        <time>2024-12-06T09:33:37.000Z</time>
      </trkpt>
      <trkpt lat="43.7311" lon="6.87209">
        <ele>939.995818</ele>
        <time>2024-12-06T09:33:38.000Z</time>
      </trkpt>
      <trkpt lat="43.73114" lon="6.87214">
        <ele>939.822366</ele>
        <time>2024-12-06T09:33:39.000Z</time>
      </trkpt>
      <trkpt lat="43.73117" lon="6.8722">
        <ele>939.641407</ele>
        <time>2024-12-06T09:33:40.000Z</time>
      </trkpt>
      <trkpt lat="43.73121" lon="6.87226">
        <ele>939.453356</ele>
        <time>2024-12-06T09:33:41.000Z</time>
      </trkpt>
      <trkpt lat="43.73131" lon="6.87234">
        <ele>939.085687</ele>
        <time>2024-12-06T09:33:43.000Z</time>
      </trkpt>
      <trkpt lat="43.73143" lon="6.87241">
        <ele>938.661245</ele>
        <time>2024-12-06T09:33:45.000Z</time>
      </trkpt>
      <trkpt lat="43.73166" lon="6.87256">
        <ele>937.81163</ele>
        <time>2024-12-06T09:33:49.000Z</time>
      </trkpt>
      <trkpt lat="43.73177" lon="6.87264">
        <ele>937.413976</ele>
        <time>2024-12-06T09:33:51.000Z</time>
      </trkpt>
      <trkpt lat="43.73194" lon="6.87275">
        <ele>936.800315</ele>
        <time>2024-12-06T09:33:54.000Z</time>
      </trkpt>
      <trkpt lat="43.73204" lon="6.87283">
        <ele>936.414368</ele>
        <time>2024-12-06T09:33:56.000Z</time>
      </trkpt>
      <trkpt lat="43.73209" lon="6.87287">
        <ele>936.217526</ele>
        <time>2024-12-06T09:33:57.000Z</time>
      </trkpt>
      <trkpt lat="43.73215" lon="6.87292">
        <ele>936.011779</ele>
        <time>2024-12-06T09:33:58.000Z</time>
      </trkpt>
      <trkpt lat="43.73219" lon="6.87294">
        <ele>935.859087</ele>
        <time>2024-12-06T09:33:59.000Z</time>
      </trkpt>
      <trkpt lat="43.73225" lon="6.87299">
        <ele>935.639917</ele>
        <time>2024-12-06T09:34:00.000Z</time>
      </trkpt>
      <trkpt lat="43.73236" lon="6.87306">
        <ele>935.246707</ele>
        <time>2024-12-06T09:34:02.000Z</time>
      </trkpt>
      <trkpt lat="43.7325" lon="6.87319">
        <ele>934.68843</ele>
        <time>2024-12-06T09:34:05.000Z</time>
      </trkpt>
      <trkpt lat="43.73254" lon="6.87322">
        <ele>934.522588</ele>
        <time>2024-12-06T09:34:06.000Z</time>
      </trkpt>
      <trkpt lat="43.7326" lon="6.87325">
        <ele>934.393256</ele>
        <time>2024-12-06T09:34:07.000Z</time>
      </trkpt>
      <trkpt lat="43.73271" lon="6.87332">
        <ele>934.247787</ele>
        <time>2024-12-06T09:34:09.000Z</time>
      </trkpt>
      <trkpt lat="43.73276" lon="6.87335">
        <ele>934.176516</ele>
        <time>2024-12-06T09:34:10.000Z</time>
      </trkpt>
      <trkpt lat="43.73292" lon="6.87348">
        <ele>933.944113</ele>
        <time>2024-12-06T09:34:13.000Z</time>
      </trkpt>
      <trkpt lat="43.73308" lon="6.8736">
        <ele>933.71887</ele>
        <time>2024-12-06T09:34:16.000Z</time>
      </trkpt>
      <trkpt lat="43.73331" lon="6.87374">
        <ele>933.414422</ele>
        <time>2024-12-06T09:34:20.000Z</time>
      </trkpt>
      <trkpt lat="43.73347" lon="6.87382">
        <ele>933.20076</ele>
        <time>2024-12-06T09:34:23.000Z</time>
      </trkpt>
      <trkpt lat="43.73356" lon="6.87388">
        <ele>933.072164</ele>
        <time>2024-12-06T09:34:25.000Z</time>
      </trkpt>
      <trkpt lat="43.73366" lon="6.87394">
        <ele>932.935306</ele>
        <time>2024-12-06T09:34:27.000Z</time>
      </trkpt>
      <trkpt lat="43.73378" lon="6.87399">
        <ele>932.782449</ele>
        <time>2024-12-06T09:34:29.000Z</time>
      </trkpt>
      <trkpt lat="43.73384" lon="6.87401">
        <ele>932.710032</ele>
        <time>2024-12-06T09:34:30.000Z</time>
      </trkpt>
      <trkpt lat="43.7339" lon="6.87402">
        <ele>932.636167</ele>
        <time>2024-12-06T09:34:31.000Z</time>
      </trkpt>
      <trkpt lat="43.73406" lon="6.87407">
        <ele>932.425927</ele>
        <time>2024-12-06T09:34:34.000Z</time>
      </trkpt>
      <trkpt lat="43.73413" lon="6.87408">
        <ele>932.346528</ele>
        <time>2024-12-06T09:34:35.000Z</time>
      </trkpt>
      <trkpt lat="43.73418" lon="6.87408">
        <ele>932.284492</ele>
        <time>2024-12-06T09:34:36.000Z</time>
      </trkpt>
      <trkpt lat="43.73428" lon="6.8741">
        <ele>932.20717</ele>
        <time>2024-12-06T09:34:38.000Z</time>
      </trkpt>
      <trkpt lat="43.73434" lon="6.87412">
        <ele>932.209676</ele>
        <time>2024-12-06T09:34:39.000Z</time>
      </trkpt>
      <trkpt lat="43.73439" lon="6.87413">
        <ele>932.21199</ele>
        <time>2024-12-06T09:34:40.000Z</time>
      </trkpt>
      <trkpt lat="43.7346" lon="6.8742">
        <ele>932.222007</ele>
        <time>2024-12-06T09:34:44.000Z</time>
      </trkpt>
      <trkpt lat="43.73465" lon="6.87422">
        <ele>932.224379</ele>
        <time>2024-12-06T09:34:45.000Z</time>
      </trkpt>
      <trkpt lat="43.7347" lon="6.87424">
        <ele>932.226921</ele>
        <time>2024-12-06T09:34:46.000Z</time>
      </trkpt>
      <trkpt lat="43.73499" lon="6.87426">
        <ele>932.240036</ele>
        <time>2024-12-06T09:34:51.000Z</time>
      </trkpt>
      <trkpt lat="43.73511" lon="6.87426">
        <ele>932.245358</ele>
        <time>2024-12-06T09:34:53.000Z</time>
      </trkpt>
      <trkpt lat="43.73551" lon="6.87427">
        <ele>932.263374</ele>
        <time>2024-12-06T09:34:59.000Z</time>
      </trkpt>
      <trkpt lat="43.73557" lon="6.87427">
        <ele>932.266242</ele>
        <time>2024-12-06T09:35:00.000Z</time>
      </trkpt>
      <trkpt lat="43.73567" lon="6.87428">
        <ele>932.27098</ele>
        <time>2024-12-06T09:35:02.000Z</time>
      </trkpt>
      <trkpt lat="43.7358" lon="6.87429">
        <ele>932.276687</ele>
        <time>2024-12-06T09:35:04.000Z</time>
      </trkpt>
      <trkpt lat="43.73585" lon="6.8743">
        <ele>932.279191</ele>
        <time>2024-12-06T09:35:05.000Z</time>
      </trkpt>
      <trkpt lat="43.73591" lon="6.8743">
        <ele>932.281739</ele>
        <time>2024-12-06T09:35:06.000Z</time>
      </trkpt>
      <trkpt lat="43.73596" lon="6.8743">
        <ele>932.284104</ele>
        <time>2024-12-06T09:35:07.000Z</time>
      </trkpt>
      <trkpt lat="43.73601" lon="6.8743">
        <ele>932.286378</ele>
        <time>2024-12-06T09:35:08.000Z</time>
      </trkpt>
      <trkpt lat="43.73606" lon="6.8743">
        <ele>932.235851</ele>
        <time>2024-12-06T09:35:09.000Z</time>
      </trkpt>
      <trkpt lat="43.73611" lon="6.8743">
        <ele>932.170076</ele>
        <time>2024-12-06T09:35:10.000Z</time>
      </trkpt>
      <trkpt lat="43.73616" lon="6.8743">
        <ele>932.086355</ele>
        <time>2024-12-06T09:35:11.000Z</time>
      </trkpt>
      <trkpt lat="43.73636" lon="6.87431">
        <ele>931.796058</ele>
        <time>2024-12-06T09:35:14.000Z</time>
      </trkpt>
      <trkpt lat="43.73642" lon="6.87431">
        <ele>931.703369</ele>
        <time>2024-12-06T09:35:15.000Z</time>
      </trkpt>
      <trkpt lat="43.73648" lon="6.87432">
        <ele>931.612079</ele>
        <time>2024-12-06T09:35:16.000Z</time>
      </trkpt>
      <trkpt lat="43.73673" lon="6.87432">
        <ele>931.23234</ele>
        <time>2024-12-06T09:35:20.000Z</time>
      </trkpt>
      <trkpt lat="43.73679" lon="6.87432">
        <ele>931.13965</ele>
        <time>2024-12-06T09:35:21.000Z</time>
      </trkpt>
      <trkpt lat="43.73692" lon="6.87432">
        <ele>930.95578</ele>
        <time>2024-12-06T09:35:23.000Z</time>
      </trkpt>
      <trkpt lat="43.73729" lon="6.87434">
        <ele>930.393288</ele>
        <time>2024-12-06T09:35:29.000Z</time>
      </trkpt>
      <trkpt lat="43.73734" lon="6.87434">
        <ele>930.318536</ele>
        <time>2024-12-06T09:35:30.000Z</time>
      </trkpt>
      <trkpt lat="43.73758" lon="6.87432">
        <ele>929.966758</ele>
        <time>2024-12-06T09:35:34.000Z</time>
      </trkpt>
      <trkpt lat="43.73765" lon="6.87432">
        <ele>929.860616</ele>
        <time>2024-12-06T09:35:35.000Z</time>
      </trkpt>
      <trkpt lat="43.7377" lon="6.87432">
        <ele>929.790348</ele>
        <time>2024-12-06T09:35:36.000Z</time>
      </trkpt>
      <trkpt lat="43.73777" lon="6.87433">
        <ele>929.686924</ele>
        <time>2024-12-06T09:35:37.000Z</time>
      </trkpt>
      <trkpt lat="43.73782" lon="6.87434">
        <ele>929.603037</ele>
        <time>2024-12-06T09:35:38.000Z</time>
      </trkpt>
      <trkpt lat="43.73787" lon="6.87433">
        <ele>929.793352</ele>
        <time>2024-12-06T09:35:39.000Z</time>
      </trkpt>
      <trkpt lat="43.73792" lon="6.87431">
        <ele>929.986601</ele>
        <time>2024-12-06T09:35:40.000Z</time>
      </trkpt>
      <trkpt lat="43.73797" lon="6.87429">
        <ele>930.16955</ele>
        <time>2024-12-06T09:35:41.000Z</time>
      </trkpt>
      <trkpt lat="43.73801" lon="6.87426">
        <ele>930.352324</ele>
        <time>2024-12-06T09:35:42.000Z</time>
      </trkpt>
      <trkpt lat="43.73805" lon="6.87423">
        <ele>930.542645</ele>
        <time>2024-12-06T09:35:43.000Z</time>
      </trkpt>
      <trkpt lat="43.7381" lon="6.87419">
        <ele>930.73636</ele>
        <time>2024-12-06T09:35:44.000Z</time>
      </trkpt>
      <trkpt lat="43.73818" lon="6.87412">
        <ele>931.107272</ele>
        <time>2024-12-06T09:35:46.000Z</time>
      </trkpt>
      <trkpt lat="43.73822" lon="6.87409">
        <ele>931.288113</ele>
        <time>2024-12-06T09:35:47.000Z</time>
      </trkpt>
      <trkpt lat="43.73826" lon="6.87406">
        <ele>931.466951</ele>
        <time>2024-12-06T09:35:48.000Z</time>
      </trkpt>
      <trkpt lat="43.7383" lon="6.87403">
        <ele>931.64046</ele>
        <time>2024-12-06T09:35:49.000Z</time>
      </trkpt>
      <trkpt lat="43.73833" lon="6.874">
        <ele>931.801695</ele>
        <time>2024-12-06T09:35:50.000Z</time>
      </trkpt>
      <trkpt lat="43.73837" lon="6.87397">
        <ele>931.959595</ele>
        <time>2024-12-06T09:35:51.000Z</time>
      </trkpt>
      <trkpt lat="43.7384" lon="6.87395">
        <ele>932.087079</ele>
        <time>2024-12-06T09:35:52.000Z</time>
      </trkpt>
      <trkpt lat="43.73843" lon="6.87392">
        <ele>932.233623</ele>
        <time>2024-12-06T09:35:53.000Z</time>
      </trkpt>
      <trkpt lat="43.73846" lon="6.87389">
        <ele>932.375267</ele>
        <time>2024-12-06T09:35:54.000Z</time>
      </trkpt>
      <trkpt lat="43.7385" lon="6.87386">
        <ele>932.547184</ele>
        <time>2024-12-06T09:35:55.000Z</time>
      </trkpt>
      <trkpt lat="43.73853" lon="6.87383">
        <ele>932.69047</ele>
        <time>2024-12-06T09:35:56.000Z</time>
      </trkpt>
      <trkpt lat="43.73856" lon="6.8738">
        <ele>932.843614</ele>
        <time>2024-12-06T09:35:57.000Z</time>
      </trkpt>
      <trkpt lat="43.73859" lon="6.87377">
        <ele>932.995346</ele>
        <time>2024-12-06T09:35:58.000Z</time>
      </trkpt>
      <trkpt lat="43.73863" lon="6.87375">
        <ele>933.153515</ele>
        <time>2024-12-06T09:35:59.000Z</time>
      </trkpt>
      <trkpt lat="43.73867" lon="6.87372">
        <ele>933.311685</ele>
        <time>2024-12-06T09:36:00.000Z</time>
      </trkpt>
      <trkpt lat="43.7387" lon="6.8737">
        <ele>933.468866</ele>
        <time>2024-12-06T09:36:01.000Z</time>
      </trkpt>
      <trkpt lat="43.73874" lon="6.87368">
        <ele>933.605015</ele>
        <time>2024-12-06T09:36:02.000Z</time>
      </trkpt>
      <trkpt lat="43.73878" lon="6.87364">
        <ele>933.79873</ele>
        <time>2024-12-06T09:36:03.000Z</time>
      </trkpt>
      <trkpt lat="43.73881" lon="6.87362">
        <ele>933.953831</ele>
        <time>2024-12-06T09:36:04.000Z</time>
      </trkpt>
      <trkpt lat="43.73885" lon="6.87359">
        <ele>934.114454</ele>
        <time>2024-12-06T09:36:05.000Z</time>
      </trkpt>
      <trkpt lat="43.73889" lon="6.87356">
        <ele>934.280822</ele>
        <time>2024-12-06T09:36:06.000Z</time>
      </trkpt>
      <trkpt lat="43.73893" lon="6.87354">
        <ele>934.449578</ele>
        <time>2024-12-06T09:36:07.000Z</time>
      </trkpt>
      <trkpt lat="43.73897" lon="6.87352">
        <ele>934.616188</ele>
        <time>2024-12-06T09:36:08.000Z</time>
      </trkpt>
      <trkpt lat="43.73901" lon="6.87349">
        <ele>934.789611</ele>
        <time>2024-12-06T09:36:09.000Z</time>
      </trkpt>
      <trkpt lat="43.73905" lon="6.87347">
        <ele>934.956221</ele>
        <time>2024-12-06T09:36:10.000Z</time>
      </trkpt>
      <trkpt lat="43.73909" lon="6.87346">
        <ele>935.127873</ele>
        <time>2024-12-06T09:36:11.000Z</time>
      </trkpt>
      <trkpt lat="43.73913" lon="6.87344">
        <ele>935.286145</ele>
        <time>2024-12-06T09:36:12.000Z</time>
      </trkpt>
      <trkpt lat="43.73917" lon="6.87342">
        <ele>935.443513</ele>
        <time>2024-12-06T09:36:13.000Z</time>
      </trkpt>
      <trkpt lat="43.7392" lon="6.8734">
        <ele>935.578862</ele>
        <time>2024-12-06T09:36:14.000Z</time>
      </trkpt>
      <trkpt lat="43.73924" lon="6.87338">
        <ele>935.743488</ele>
        <time>2024-12-06T09:36:15.000Z</time>
      </trkpt>
      <trkpt lat="43.73929" lon="6.87336">
        <ele>935.933019</ele>
        <time>2024-12-06T09:36:16.000Z</time>
      </trkpt>
      <trkpt lat="43.73933" lon="6.87335">
        <ele>936.088977</ele>
        <time>2024-12-06T09:36:17.000Z</time>
      </trkpt>
      <trkpt lat="43.73937" lon="6.87334">
        <ele>936.242024</ele>
        <time>2024-12-06T09:36:18.000Z</time>
      </trkpt>
      <trkpt lat="43.7394" lon="6.87333">
        <ele>936.380952</ele>
        <time>2024-12-06T09:36:19.000Z</time>
      </trkpt>
      <trkpt lat="43.73944" lon="6.87332">
        <ele>936.510634</ele>
        <time>2024-12-06T09:36:20.000Z</time>
      </trkpt>
      <trkpt lat="43.73947" lon="6.87332">
        <ele>936.625379</ele>
        <time>2024-12-06T09:36:21.000Z</time>
      </trkpt>
      <trkpt lat="43.73951" lon="6.87331">
        <ele>936.813641</ele>
        <time>2024-12-06T09:36:22.000Z</time>
      </trkpt>
      <trkpt lat="43.73955" lon="6.8733">
        <ele>936.981229</ele>
        <time>2024-12-06T09:36:23.000Z</time>
      </trkpt>
      <trkpt lat="43.73959" lon="6.87329">
        <ele>937.153488</ele>
        <time>2024-12-06T09:36:24.000Z</time>
      </trkpt>
      <trkpt lat="43.73963" lon="6.87329">
        <ele>937.316873</ele>
        <time>2024-12-06T09:36:25.000Z</time>
      </trkpt>
      <trkpt lat="43.73967" lon="6.87328">
        <ele>937.483671</ele>
        <time>2024-12-06T09:36:26.000Z</time>
      </trkpt>
      <trkpt lat="43.73971" lon="6.87328">
        <ele>937.653726</ele>
        <time>2024-12-06T09:36:27.000Z</time>
      </trkpt>
      <trkpt lat="43.73975" lon="6.87328">
        <ele>937.832255</ele>
        <time>2024-12-06T09:36:28.000Z</time>
      </trkpt>
      <trkpt lat="43.73979" lon="6.87327">
        <ele>938.016295</ele>
        <time>2024-12-06T09:36:29.000Z</time>
      </trkpt>
      <trkpt lat="43.73982" lon="6.87327">
        <ele>938.16134</ele>
        <time>2024-12-06T09:36:30.000Z</time>
      </trkpt>
      <trkpt lat="43.73987" lon="6.87327">
        <ele>938.352843</ele>
        <time>2024-12-06T09:36:31.000Z</time>
      </trkpt>
      <trkpt lat="43.73992" lon="6.87326">
        <ele>938.578464</ele>
        <time>2024-12-06T09:36:32.000Z</time>
      </trkpt>
      <trkpt lat="43.73996" lon="6.87326">
        <ele>938.727745</ele>
        <time>2024-12-06T09:36:33.000Z</time>
      </trkpt>
      <trkpt lat="43.74001" lon="6.87325">
        <ele>938.949548</ele>
        <time>2024-12-06T09:36:34.000Z</time>
      </trkpt>
      <trkpt lat="43.74004" lon="6.87324">
        <ele>939.100868</ele>
        <time>2024-12-06T09:36:35.000Z</time>
      </trkpt>
      <trkpt lat="43.74009" lon="6.87323">
        <ele>939.290958</ele>
        <time>2024-12-06T09:36:36.000Z</time>
      </trkpt>
      <trkpt lat="43.74014" lon="6.8732">
        <ele>939.51514</ele>
        <time>2024-12-06T09:36:37.000Z</time>
      </trkpt>
      <trkpt lat="43.74017" lon="6.87317">
        <ele>939.667249</ele>
        <time>2024-12-06T09:36:38.000Z</time>
      </trkpt>
      <trkpt lat="43.7402" lon="6.87314">
        <ele>939.854252</ele>
        <time>2024-12-06T09:36:39.000Z</time>
      </trkpt>
      <trkpt lat="43.74025" lon="6.87309">
        <ele>940.086689</ele>
        <time>2024-12-06T09:36:40.000Z</time>
      </trkpt>
      <trkpt lat="43.74028" lon="6.87305">
        <ele>940.276365</ele>
        <time>2024-12-06T09:36:41.000Z</time>
      </trkpt>
      <trkpt lat="43.74031" lon="6.87301">
        <ele>940.456515</ele>
        <time>2024-12-06T09:36:42.000Z</time>
      </trkpt>
      <trkpt lat="43.74034" lon="6.87297">
        <ele>940.640091</ele>
        <time>2024-12-06T09:36:43.000Z</time>
      </trkpt>
      <trkpt lat="43.74037" lon="6.87292">
        <ele>940.83225</ele>
        <time>2024-12-06T09:36:44.000Z</time>
      </trkpt>
      <trkpt lat="43.7404" lon="6.87288">
        <ele>941.024903</ele>
        <time>2024-12-06T09:36:45.000Z</time>
      </trkpt>
      <trkpt lat="43.74044" lon="6.87283">
        <ele>941.218811</ele>
        <time>2024-12-06T09:36:46.000Z</time>
      </trkpt>
      <trkpt lat="43.74047" lon="6.87279">
        <ele>941.406853</ele>
        <time>2024-12-06T09:36:47.000Z</time>
      </trkpt>
      <trkpt lat="43.7405" lon="6.87274">
        <ele>941.611535</ele>
        <time>2024-12-06T09:36:48.000Z</time>
      </trkpt>
      <trkpt lat="43.74053" lon="6.87269">
        <ele>941.813633</ele>
        <time>2024-12-06T09:36:49.000Z</time>
      </trkpt>
      <trkpt lat="43.74056" lon="6.87265">
        <ele>942.011965</ele>
        <time>2024-12-06T09:36:50.000Z</time>
      </trkpt>
      <trkpt lat="43.7406" lon="6.87261">
        <ele>942.202959</ele>
        <time>2024-12-06T09:36:51.000Z</time>
      </trkpt>
      <trkpt lat="43.74063" lon="6.87257">
        <ele>942.391454</ele>
        <time>2024-12-06T09:36:52.000Z</time>
      </trkpt>
      <trkpt lat="43.74066" lon="6.87252">
        <ele>942.575846</ele>
        <time>2024-12-06T09:36:53.000Z</time>
      </trkpt>
      <trkpt lat="43.74069" lon="6.87248">
        <ele>942.761199</ele>
        <time>2024-12-06T09:36:54.000Z</time>
      </trkpt>
      <trkpt lat="43.74073" lon="6.87244">
        <ele>942.945591</ele>
        <time>2024-12-06T09:36:55.000Z</time>
      </trkpt>
      <trkpt lat="43.74076" lon="6.8724">
        <ele>943.133633</ele>
        <time>2024-12-06T09:36:56.000Z</time>
      </trkpt>
      <trkpt lat="43.74079" lon="6.87236">
        <ele>943.310697</ele>
        <time>2024-12-06T09:36:57.000Z</time>
      </trkpt>
      <trkpt lat="43.74082" lon="6.87232">
        <ele>943.492658</ele>
        <time>2024-12-06T09:36:58.000Z</time>
      </trkpt>
      <trkpt lat="43.74085" lon="6.87228">
        <ele>943.684337</ele>
        <time>2024-12-06T09:36:59.000Z</time>
      </trkpt>
      <trkpt lat="43.74088" lon="6.87223">
        <ele>943.871825</ele>
        <time>2024-12-06T09:37:00.000Z</time>
      </trkpt>
      <trkpt lat="43.74091" lon="6.87218">
        <ele>944.068564</ele>
        <time>2024-12-06T09:37:01.000Z</time>
      </trkpt>
      <trkpt lat="43.74094" lon="6.87213">
        <ele>944.219244</ele>
        <time>2024-12-06T09:37:02.000Z</time>
      </trkpt>
      <trkpt lat="43.74097" lon="6.87209">
        <ele>944.270927</ele>
        <time>2024-12-06T09:37:03.000Z</time>
      </trkpt>
      <trkpt lat="43.74099" lon="6.87204">
        <ele>944.321558</ele>
        <time>2024-12-06T09:37:04.000Z</time>
      </trkpt>
      <trkpt lat="43.74102" lon="6.872">
        <ele>944.370875</ele>
        <time>2024-12-06T09:37:05.000Z</time>
      </trkpt>
      <trkpt lat="43.74104" lon="6.87196">
        <ele>944.409741</ele>
        <time>2024-12-06T09:37:06.000Z</time>
      </trkpt>
      <trkpt lat="43.74107" lon="6.87192">
        <ele>944.45616</ele>
        <time>2024-12-06T09:37:07.000Z</time>
      </trkpt>
      <trkpt lat="43.74109" lon="6.87188">
        <ele>944.50325</ele>
        <time>2024-12-06T09:37:08.000Z</time>
      </trkpt>
      <trkpt lat="43.74112" lon="6.87182">
        <ele>944.558653</ele>
        <time>2024-12-06T09:37:09.000Z</time>
      </trkpt>
      <trkpt lat="43.74114" lon="6.87178">
        <ele>944.607876</ele>
        <time>2024-12-06T09:37:10.000Z</time>
      </trkpt>
      <trkpt lat="43.74117" lon="6.87174">
        <ele>944.656436</ele>
        <time>2024-12-06T09:37:11.000Z</time>
      </trkpt>
      <trkpt lat="43.7412" lon="6.8717">
        <ele>944.704837</ele>
        <time>2024-12-06T09:37:12.000Z</time>
      </trkpt>
      <trkpt lat="43.74123" lon="6.87166">
        <ele>944.752648</ele>
        <time>2024-12-06T09:37:13.000Z</time>
      </trkpt>
      <trkpt lat="43.74125" lon="6.87163">
        <ele>944.791007</ele>
        <time>2024-12-06T09:37:14.000Z</time>
      </trkpt>
      <trkpt lat="43.74128" lon="6.87158">
        <ele>944.845227</ele>
        <time>2024-12-06T09:37:15.000Z</time>
      </trkpt>
      <trkpt lat="43.7413" lon="6.87154">
        <ele>944.885644</ele>
        <time>2024-12-06T09:37:16.000Z</time>
      </trkpt>
      <trkpt lat="43.74132" lon="6.87152">
        <ele>944.91846</ele>
        <time>2024-12-06T09:37:17.000Z</time>
      </trkpt>
      <trkpt lat="43.74135" lon="6.87148">
        <ele>944.95825</ele>
        <time>2024-12-06T09:37:18.000Z</time>
      </trkpt>
      <trkpt lat="43.74137" lon="6.87144">
        <ele>945.00666</ele>
        <time>2024-12-06T09:37:19.000Z</time>
      </trkpt>
      <trkpt lat="43.7414" lon="6.87141">
        <ele>945.048372</ele>
        <time>2024-12-06T09:37:20.000Z</time>
      </trkpt>
      <trkpt lat="43.74143" lon="6.87138">
        <ele>945.090402</ele>
        <time>2024-12-06T09:37:21.000Z</time>
      </trkpt>
      <trkpt lat="43.74146" lon="6.87134">
        <ele>945.136176</ele>
        <time>2024-12-06T09:37:22.000Z</time>
      </trkpt>
      <trkpt lat="43.74148" lon="6.8713">
        <ele>945.185192</ele>
        <time>2024-12-06T09:37:23.000Z</time>
      </trkpt>
      <trkpt lat="43.74151" lon="6.87126">
        <ele>945.230118</ele>
        <time>2024-12-06T09:37:24.000Z</time>
      </trkpt>
      <trkpt lat="43.74154" lon="6.87123">
        <ele>945.273602</ele>
        <time>2024-12-06T09:37:25.000Z</time>
      </trkpt>
      <trkpt lat="43.74156" lon="6.87119">
        <ele>945.317507</ele>
        <time>2024-12-06T09:37:26.000Z</time>
      </trkpt>
      <trkpt lat="43.74158" lon="6.87116">
        <ele>945.354962</ele>
        <time>2024-12-06T09:37:27.000Z</time>
      </trkpt>
      <trkpt lat="43.7416" lon="6.87113">
        <ele>945.384138</ele>
        <time>2024-12-06T09:37:28.000Z</time>
      </trkpt>
      <trkpt lat="43.74161" lon="6.87111">
        <ele>945.409085</ele>
        <time>2024-12-06T09:37:29.000Z</time>
      </trkpt>
      <trkpt lat="43.74162" lon="6.87109">
        <ele>945.425707</ele>
        <time>2024-12-06T09:37:30.000Z</time>
      </trkpt>
      <trkpt lat="43.74163" lon="6.87108">
        <ele>945.434744</ele>
        <time>2024-12-06T09:37:31.000Z</time>
      </trkpt>
      <trkpt lat="43.74163" lon="6.87108">
        <ele>945.442568</ele>
        <time>2024-12-06T09:37:33.000Z</time>
      </trkpt>
      <trkpt lat="43.74163" lon="6.87108">
        <ele>945.442568</ele>
        <time>2024-12-06T09:37:44.000Z</time>
      </trkpt>
      <trkpt lat="43.74163" lon="6.87108">
        <ele>945.442568</ele>
        <time>2024-12-06T09:37:57.000Z</time>
      </trkpt>
      <trkpt lat="43.74164" lon="6.87108">
        <ele>945.450889</ele>
        <time>2024-12-06T09:38:02.000Z</time>
      </trkpt>
      <trkpt lat="43.74164" lon="6.87108">
        <ele>945.450889</ele>
        <time>2024-12-06T09:38:08.000Z</time>
      </trkpt>
      <trkpt lat="43.74164" lon="6.87108">
        <ele>945.452598</ele>
        <time>2024-12-06T09:38:17.000Z</time>
      </trkpt>
      <trkpt lat="43.74164" lon="6.87108">
        <ele>945.456247</ele>
        <time>2024-12-06T09:38:18.000Z</time>
      </trkpt>
      <trkpt lat="43.74164" lon="6.87108">
        <ele>945.456247</ele>
        <time>2024-12-06T09:38:21.000Z</time>
      </trkpt>
      <trkpt lat="43.74164" lon="6.87108">
        <ele>945.456247</ele>
        <time>2024-12-06T09:38:24.000Z</time>
      </trkpt>
      <trkpt lat="43.74163" lon="6.87108">
        <ele>945.459164</ele>
        <time>2024-12-06T09:38:40.000Z</time>
      </trkpt>
      <trkpt lat="43.74163" lon="6.87108">
        <ele>945.46332</ele>
        <time>2024-12-06T09:38:44.000Z</time>
      </trkpt>
      <trkpt lat="43.74163" lon="6.87108">
        <ele>945.46332</ele>
        <time>2024-12-06T09:38:53.000Z</time>
      </trkpt>
      <trkpt lat="43.74163" lon="6.87108">
        <ele>945.46332</ele>
        <time>2024-12-06T09:38:57.000Z</time>
      </trkpt>
      <trkpt lat="43.74163" lon="6.87108">
        <ele>945.46332</ele>
        <time>2024-12-06T09:39:04.000Z</time>
      </trkpt>
      <trkpt lat="43.74163" lon="6.87108">
        <ele>945.46332</ele>
        <time>2024-12-06T09:39:16.000Z</time>
      </trkpt>
      <trkpt lat="43.74163" lon="6.87108">
        <ele>945.46332</ele>
        <time>2024-12-06T09:39:25.000Z</time>
      </trkpt>
      <trkpt lat="43.74163" lon="6.87108">
        <ele>945.46332</ele>
        <time>2024-12-06T09:39:29.000Z</time>
      </trkpt>
      <trkpt lat="43.74163" lon="6.87108">
        <ele>945.46332</ele>
        <time>2024-12-06T09:39:38.000Z</time>
      </trkpt>
      <trkpt lat="43.74163" lon="6.87108">
        <ele>945.46332</ele>
        <time>2024-12-06T09:39:45.000Z</time>
      </trkpt>
      <trkpt lat="43.74163" lon="6.87108">
        <ele>945.46332</ele>
        <time>2024-12-06T09:39:54.000Z</time>
      </trkpt>
      <trkpt lat="43.74163" lon="6.87107">
        <ele>945.469415</ele>
        <time>2024-12-06T09:40:07.000Z</time>
      </trkpt>
      <trkpt lat="43.74163" lon="6.87107">
        <ele>945.469415</ele>
        <time>2024-12-06T09:40:17.000Z</time>
      </trkpt>
      <trkpt lat="43.74168" lon="6.871">
        <ele>945.544077</ele>
        <time>2024-12-06T09:40:47.000Z</time>
      </trkpt>
      <trkpt lat="43.74181" lon="6.8708">
        <ele>945.785952</ele>
        <time>2024-12-06T09:40:53.000Z</time>
      </trkpt>
      <trkpt lat="43.7419" lon="6.87068">
        <ele>945.926435</ele>
        <time>2024-12-06T09:40:56.000Z</time>
      </trkpt>
      <trkpt lat="43.74202" lon="6.87054">
        <ele>946.109823</ele>
        <time>2024-12-06T09:41:00.000Z</time>
      </trkpt>
      <trkpt lat="43.74223" lon="6.87039">
        <ele>946.365807</ele>
        <time>2024-12-06T09:41:06.000Z</time>
      </trkpt>
      <trkpt lat="43.74227" lon="6.87037">
        <ele>946.392055</ele>
        <time>2024-12-06T09:41:07.000Z</time>
      </trkpt>
      <trkpt lat="43.74235" lon="6.87033">
        <ele>946.446087</ele>
        <time>2024-12-06T09:41:09.000Z</time>
      </trkpt>
      <trkpt lat="43.74247" lon="6.87027">
        <ele>946.531579</ele>
        <time>2024-12-06T09:41:12.000Z</time>
      </trkpt>
      <trkpt lat="43.74251" lon="6.87025">
        <ele>946.55774</ele>
        <time>2024-12-06T09:41:13.000Z</time>
      </trkpt>
      <trkpt lat="43.74255" lon="6.87023">
        <ele>946.58614</ele>
        <time>2024-12-06T09:41:14.000Z</time>
      </trkpt>
      <trkpt lat="43.74264" lon="6.87019">
        <ele>946.646168</ele>
        <time>2024-12-06T09:41:16.000Z</time>
      </trkpt>
      <trkpt lat="43.74271" lon="6.87013">
        <ele>946.704262</ele>
        <time>2024-12-06T09:41:18.000Z</time>
      </trkpt>
      <trkpt lat="43.74275" lon="6.8701">
        <ele>946.733597</ele>
        <time>2024-12-06T09:41:19.000Z</time>
      </trkpt>
      <trkpt lat="43.74279" lon="6.87008">
        <ele>946.762717</ele>
        <time>2024-12-06T09:41:20.000Z</time>
      </trkpt>
      <trkpt lat="43.74289" lon="6.87003">
        <ele>946.825337</ele>
        <time>2024-12-06T09:41:22.000Z</time>
      </trkpt>
      <trkpt lat="43.74305" lon="6.86993">
        <ele>946.943137</ele>
        <time>2024-12-06T09:41:26.000Z</time>
      </trkpt>
      <trkpt lat="43.74309" lon="6.8699">
        <ele>946.971327</ele>
        <time>2024-12-06T09:41:27.000Z</time>
      </trkpt>
      <trkpt lat="43.74313" lon="6.86988">
        <ele>947.000246</ele>
        <time>2024-12-06T09:41:28.000Z</time>
      </trkpt>
      <trkpt lat="43.74317" lon="6.86986">
        <ele>947.028943</ele>
        <time>2024-12-06T09:41:29.000Z</time>
      </trkpt>
      <trkpt lat="43.74321" lon="6.86984">
        <ele>947.05751</ele>
        <time>2024-12-06T09:41:30.000Z</time>
      </trkpt>
      <trkpt lat="43.74325" lon="6.86982">
        <ele>947.085838</ele>
        <time>2024-12-06T09:41:31.000Z</time>
      </trkpt>
      <trkpt lat="43.74329" lon="6.86979">
        <ele>947.11242</ele>
        <time>2024-12-06T09:41:32.000Z</time>
      </trkpt>
      <trkpt lat="43.74333" lon="6.86978">
        <ele>947.139603</ele>
        <time>2024-12-06T09:41:33.000Z</time>
      </trkpt>
      <trkpt lat="43.74337" lon="6.86976">
        <ele>947.165695</ele>
        <time>2024-12-06T09:41:34.000Z</time>
      </trkpt>
      <trkpt lat="43.74341" lon="6.86974">
        <ele>947.192638</ele>
        <time>2024-12-06T09:41:35.000Z</time>
      </trkpt>
      <trkpt lat="43.74345" lon="6.86971">
        <ele>947.22076</ele>
        <time>2024-12-06T09:41:36.000Z</time>
      </trkpt>
      <trkpt lat="43.74353" lon="6.86966">
        <ele>947.278783</ele>
        <time>2024-12-06T09:41:38.000Z</time>
      </trkpt>
      <trkpt lat="43.74357" lon="6.86964">
        <ele>947.306142</ele>
        <time>2024-12-06T09:41:39.000Z</time>
      </trkpt>
      <trkpt lat="43.7437" lon="6.86956">
        <ele>947.400164</ele>
        <time>2024-12-06T09:41:42.000Z</time>
      </trkpt>
      <trkpt lat="43.74374" lon="6.86953">
        <ele>947.431244</ele>
        <time>2024-12-06T09:41:43.000Z</time>
      </trkpt>
      <trkpt lat="43.74387" lon="6.86947">
        <ele>947.610636</ele>
        <time>2024-12-06T09:41:46.000Z</time>
      </trkpt>
      <trkpt lat="43.74391" lon="6.86945">
        <ele>947.784253</ele>
        <time>2024-12-06T09:41:47.000Z</time>
      </trkpt>
      <trkpt lat="43.74395" lon="6.86942">
        <ele>947.96895</ele>
        <time>2024-12-06T09:41:48.000Z</time>
      </trkpt>
      <trkpt lat="43.74408" lon="6.86935">
        <ele>948.530596</ele>
        <time>2024-12-06T09:41:51.000Z</time>
      </trkpt>
      <trkpt lat="43.74411" lon="6.86933">
        <ele>948.704213</ele>
        <time>2024-12-06T09:41:52.000Z</time>
      </trkpt>
      <trkpt lat="43.74415" lon="6.8693">
        <ele>948.891764</ele>
        <time>2024-12-06T09:41:53.000Z</time>
      </trkpt>
      <trkpt lat="43.7442" lon="6.86927">
        <ele>949.081438</ele>
        <time>2024-12-06T09:41:54.000Z</time>
      </trkpt>
      <trkpt lat="43.74423" lon="6.86924">
        <ele>949.251673</ele>
        <time>2024-12-06T09:41:55.000Z</time>
      </trkpt>
      <trkpt lat="43.74427" lon="6.86921">
        <ele>949.429677</ele>
        <time>2024-12-06T09:41:56.000Z</time>
      </trkpt>
      <trkpt lat="43.74431" lon="6.86918">
        <ele>949.620863</ele>
        <time>2024-12-06T09:41:57.000Z</time>
      </trkpt>
      <trkpt lat="43.74435" lon="6.86914">
        <ele>949.820865</ele>
        <time>2024-12-06T09:41:58.000Z</time>
      </trkpt>
      <trkpt lat="43.74438" lon="6.8691">
        <ele>950.00242</ele>
        <time>2024-12-06T09:41:59.000Z</time>
      </trkpt>
      <trkpt lat="43.74442" lon="6.86907">
        <ele>950.177097</ele>
        <time>2024-12-06T09:42:00.000Z</time>
      </trkpt>
      <trkpt lat="43.74445" lon="6.86903">
        <ele>950.343401</ele>
        <time>2024-12-06T09:42:01.000Z</time>
      </trkpt>
      <trkpt lat="43.74449" lon="6.869">
        <ele>950.513113</ele>
        <time>2024-12-06T09:42:02.000Z</time>
      </trkpt>
      <trkpt lat="43.74452" lon="6.86897">
        <ele>950.691117</ele>
        <time>2024-12-06T09:42:03.000Z</time>
      </trkpt>
      <trkpt lat="43.74455" lon="6.86894">
        <ele>950.852136</ele>
        <time>2024-12-06T09:42:04.000Z</time>
      </trkpt>
      <trkpt lat="43.74459" lon="6.86891">
        <ele>951.033975</ele>
        <time>2024-12-06T09:42:05.000Z</time>
      </trkpt>
      <trkpt lat="43.74463" lon="6.86888">
        <ele>951.21075</ele>
        <time>2024-12-06T09:42:06.000Z</time>
      </trkpt>
      <trkpt lat="43.74466" lon="6.86885">
        <ele>951.383667</ele>
        <time>2024-12-06T09:42:07.000Z</time>
      </trkpt>
      <trkpt lat="43.7447" lon="6.86882">
        <ele>951.541698</ele>
        <time>2024-12-06T09:42:08.000Z</time>
      </trkpt>
      <trkpt lat="43.74473" lon="6.86879">
        <ele>951.684544</ele>
        <time>2024-12-06T09:42:09.000Z</time>
      </trkpt>
      <trkpt lat="43.74476" lon="6.86877">
        <ele>951.840612</ele>
        <time>2024-12-06T09:42:10.000Z</time>
      </trkpt>
      <trkpt lat="43.74479" lon="6.86873">
        <ele>952.008443</ele>
        <time>2024-12-06T09:42:11.000Z</time>
      </trkpt>
      <trkpt lat="43.74482" lon="6.86869">
        <ele>952.177217</ele>
        <time>2024-12-06T09:42:12.000Z</time>
      </trkpt>
      <trkpt lat="43.74484" lon="6.86866">
        <ele>952.330286</ele>
        <time>2024-12-06T09:42:13.000Z</time>
      </trkpt>
      <trkpt lat="43.74487" lon="6.86862">
        <ele>952.477739</ele>
        <time>2024-12-06T09:42:14.000Z</time>
      </trkpt>
      <trkpt lat="43.7449" lon="6.8686">
        <ele>952.631417</ele>
        <time>2024-12-06T09:42:15.000Z</time>
      </trkpt>
      <trkpt lat="43.74493" lon="6.86857">
        <ele>952.785664</ele>
        <time>2024-12-06T09:42:16.000Z</time>
      </trkpt>
      <trkpt lat="43.74497" lon="6.86854">
        <ele>952.955161</ele>
        <time>2024-12-06T09:42:17.000Z</time>
      </trkpt>
      <trkpt lat="43.745" lon="6.8685">
        <ele>953.115748</ele>
        <time>2024-12-06T09:42:18.000Z</time>
      </trkpt>
      <trkpt lat="43.74503" lon="6.86847">
        <ele>953.265175</ele>
        <time>2024-12-06T09:42:19.000Z</time>
      </trkpt>
      <trkpt lat="43.74506" lon="6.86845">
        <ele>953.419422</ele>
        <time>2024-12-06T09:42:20.000Z</time>
      </trkpt>
      <trkpt lat="43.74509" lon="6.86842">
        <ele>953.577453</ele>
        <time>2024-12-06T09:42:21.000Z</time>
      </trkpt>
      <trkpt lat="43.74512" lon="6.86839">
        <ele>953.73195</ele>
        <time>2024-12-06T09:42:22.000Z</time>
      </trkpt>
      <trkpt lat="43.74516" lon="6.86837">
        <ele>953.891673</ele>
        <time>2024-12-06T09:42:23.000Z</time>
      </trkpt>
      <trkpt lat="43.74519" lon="6.86835">
        <ele>954.035218</ele>
        <time>2024-12-06T09:42:24.000Z</time>
      </trkpt>
      <trkpt lat="43.74522" lon="6.86833">
        <ele>954.17249</ele>
        <time>2024-12-06T09:42:25.000Z</time>
      </trkpt>
      <trkpt lat="43.74525" lon="6.86831">
        <ele>954.321002</ele>
        <time>2024-12-06T09:42:26.000Z</time>
      </trkpt>
      <trkpt lat="43.74529" lon="6.86829">
        <ele>954.468345</ele>
        <time>2024-12-06T09:42:27.000Z</time>
      </trkpt>
      <trkpt lat="43.74532" lon="6.86828">
        <ele>954.610634</ele>
        <time>2024-12-06T09:42:28.000Z</time>
      </trkpt>
      <trkpt lat="43.74536" lon="6.86827">
        <ele>954.756877</ele>
        <time>2024-12-06T09:42:29.000Z</time>
      </trkpt>
      <trkpt lat="43.74539" lon="6.86827">
        <ele>954.905557</ele>
        <time>2024-12-06T09:42:30.000Z</time>
      </trkpt>
      <trkpt lat="43.74543" lon="6.86827">
        <ele>955.022511</ele>
        <time>2024-12-06T09:42:31.000Z</time>
      </trkpt>
      <trkpt lat="43.74546" lon="6.86827">
        <ele>955.140423</ele>
        <time>2024-12-06T09:42:32.000Z</time>
      </trkpt>
      <trkpt lat="43.7455" lon="6.86827">
        <ele>955.264908</ele>
        <time>2024-12-06T09:42:33.000Z</time>
      </trkpt>
      <trkpt lat="43.74554" lon="6.86828">
        <ele>955.386671</ele>
        <time>2024-12-06T09:42:34.000Z</time>
      </trkpt>
      <trkpt lat="43.74557" lon="6.86829">
        <ele>955.50005</ele>
        <time>2024-12-06T09:42:35.000Z</time>
      </trkpt>
      <trkpt lat="43.7456" lon="6.86829">
        <ele>955.608782</ele>
        <time>2024-12-06T09:42:36.000Z</time>
      </trkpt>
      <trkpt lat="43.74564" lon="6.8683">
        <ele>955.718513</ele>
        <time>2024-12-06T09:42:37.000Z</time>
      </trkpt>
      <trkpt lat="43.74567" lon="6.86831">
        <ele>955.822207</ele>
        <time>2024-12-06T09:42:38.000Z</time>
      </trkpt>
      <trkpt lat="43.74569" lon="6.86833">
        <ele>955.918404</ele>
        <time>2024-12-06T09:42:39.000Z</time>
      </trkpt>
      <trkpt lat="43.74572" lon="6.86834">
        <ele>956.009778</ele>
        <time>2024-12-06T09:42:40.000Z</time>
      </trkpt>
      <trkpt lat="43.74575" lon="6.86836">
        <ele>956.11884</ele>
        <time>2024-12-06T09:42:41.000Z</time>
      </trkpt>
      <trkpt lat="43.74578" lon="6.86839">
        <ele>956.219903</ele>
        <time>2024-12-06T09:42:42.000Z</time>
      </trkpt>
      <trkpt lat="43.7458" lon="6.86841">
        <ele>956.320918</ele>
        <time>2024-12-06T09:42:43.000Z</time>
      </trkpt>
      <trkpt lat="43.74583" lon="6.86844">
        <ele>956.422213</ele>
        <time>2024-12-06T09:42:44.000Z</time>
      </trkpt>
      <trkpt lat="43.74585" lon="6.86847">
        <ele>956.533077</ele>
        <time>2024-12-06T09:42:45.000Z</time>
      </trkpt>
      <trkpt lat="43.74588" lon="6.86849">
        <ele>956.646244</ele>
        <time>2024-12-06T09:42:46.000Z</time>
      </trkpt>
      <trkpt lat="43.74591" lon="6.86852">
        <ele>956.754558</ele>
        <time>2024-12-06T09:42:47.000Z</time>
      </trkpt>
      <trkpt lat="43.74594" lon="6.86854">
        <ele>956.859655</ele>
        <time>2024-12-06T09:42:48.000Z</time>
      </trkpt>
      <trkpt lat="43.74596" lon="6.86856">
        <ele>956.953835</ele>
        <time>2024-12-06T09:42:49.000Z</time>
      </trkpt>
      <trkpt lat="43.74599" lon="6.86857">
        <ele>957.053052</ele>
        <time>2024-12-06T09:42:50.000Z</time>
      </trkpt>
      <trkpt lat="43.74602" lon="6.86859">
        <ele>957.153195</ele>
        <time>2024-12-06T09:42:51.000Z</time>
      </trkpt>
      <trkpt lat="43.74605" lon="6.86861">
        <ele>957.257291</ele>
        <time>2024-12-06T09:42:52.000Z</time>
      </trkpt>
      <trkpt lat="43.74608" lon="6.86863">
        <ele>957.369615</ele>
        <time>2024-12-06T09:42:53.000Z</time>
      </trkpt>
      <trkpt lat="43.74611" lon="6.86865">
        <ele>957.480812</ele>
        <time>2024-12-06T09:42:54.000Z</time>
      </trkpt>
      <trkpt lat="43.74614" lon="6.86868">
        <ele>957.593979</ele>
        <time>2024-12-06T09:42:55.000Z</time>
      </trkpt>
      <trkpt lat="43.74617" lon="6.8687">
        <ele>957.707468</ele>
        <time>2024-12-06T09:42:56.000Z</time>
      </trkpt>
      <trkpt lat="43.7462" lon="6.86873">
        <ele>957.826674</ele>
        <time>2024-12-06T09:42:57.000Z</time>
      </trkpt>
      <trkpt lat="43.74623" lon="6.86874">
        <ele>957.932849</ele>
        <time>2024-12-06T09:42:58.000Z</time>
      </trkpt>
      <trkpt lat="43.74626" lon="6.86876">
        <ele>958.034248</ele>
        <time>2024-12-06T09:42:59.000Z</time>
      </trkpt>
      <trkpt lat="43.74629" lon="6.86878">
        <ele>958.14346</ele>
        <time>2024-12-06T09:43:00.000Z</time>
      </trkpt>
      <trkpt lat="43.74632" lon="6.8688">
        <ele>958.251774</ele>
        <time>2024-12-06T09:43:01.000Z</time>
      </trkpt>
      <trkpt lat="43.74635" lon="6.86882">
        <ele>958.372125</ele>
        <time>2024-12-06T09:43:02.000Z</time>
      </trkpt>
      <trkpt lat="43.74647" lon="6.86892">
        <ele>958.828468</ele>
        <time>2024-12-06T09:43:06.000Z</time>
      </trkpt>
      <trkpt lat="43.7465" lon="6.86893">
        <ele>958.924472</ele>
        <time>2024-12-06T09:43:07.000Z</time>
      </trkpt>
      <trkpt lat="43.74653" lon="6.86895">
        <ele>959.033061</ele>
        <time>2024-12-06T09:43:08.000Z</time>
      </trkpt>
      <trkpt lat="43.74673" lon="6.86899">
        <ele>959.704994</ele>
        <time>2024-12-06T09:43:14.000Z</time>
      </trkpt>
      <trkpt lat="43.74677" lon="6.869">
        <ele>959.835356</ele>
        <time>2024-12-06T09:43:15.000Z</time>
      </trkpt>
      <trkpt lat="43.74695" lon="6.86903">
        <ele>960.433007</ele>
        <time>2024-12-06T09:43:20.000Z</time>
      </trkpt>
      <trkpt lat="43.74699" lon="6.86904">
        <ele>960.562508</ele>
        <time>2024-12-06T09:43:21.000Z</time>
      </trkpt>
      <trkpt lat="43.74703" lon="6.86906">
        <ele>960.709591</ele>
        <time>2024-12-06T09:43:22.000Z</time>
      </trkpt>
      <trkpt lat="43.74707" lon="6.86908">
        <ele>960.860962</ele>
        <time>2024-12-06T09:43:23.000Z</time>
      </trkpt>
      <trkpt lat="43.74711" lon="6.8691">
        <ele>961.027587</ele>
        <time>2024-12-06T09:43:24.000Z</time>
      </trkpt>
      <trkpt lat="43.74715" lon="6.86912">
        <ele>961.200324</ele>
        <time>2024-12-06T09:43:25.000Z</time>
      </trkpt>
      <trkpt lat="43.7472" lon="6.86912">
        <ele>961.387615</ele>
        <time>2024-12-06T09:43:26.000Z</time>
      </trkpt>
      <trkpt lat="43.74724" lon="6.86912">
        <ele>961.586955</ele>
        <time>2024-12-06T09:43:27.000Z</time>
      </trkpt>
      <trkpt lat="43.74729" lon="6.86912">
        <ele>961.770381</ele>
        <time>2024-12-06T09:43:28.000Z</time>
      </trkpt>
      <trkpt lat="43.74733" lon="6.86913">
        <ele>961.953144</ele>
        <time>2024-12-06T09:43:29.000Z</time>
      </trkpt>
      <trkpt lat="43.74737" lon="6.86913">
        <ele>962.123267</ele>
        <time>2024-12-06T09:43:30.000Z</time>
      </trkpt>
      <trkpt lat="43.74742" lon="6.86912">
        <ele>962.310174</ele>
        <time>2024-12-06T09:43:31.000Z</time>
      </trkpt>
      <trkpt lat="43.74746" lon="6.86912">
        <ele>962.501108</ele>
        <time>2024-12-06T09:43:32.000Z</time>
      </trkpt>
      <trkpt lat="43.74751" lon="6.86912">
        <ele>962.67131</ele>
        <time>2024-12-06T09:43:33.000Z</time>
      </trkpt>
      <trkpt lat="43.74755" lon="6.86913">
        <ele>962.872689</ele>
        <time>2024-12-06T09:43:34.000Z</time>
      </trkpt>
      <trkpt lat="43.74759" lon="6.86913">
        <ele>963.043208</ele>
        <time>2024-12-06T09:43:35.000Z</time>
      </trkpt>
      <trkpt lat="43.74764" lon="6.86913">
        <ele>963.217556</ele>
        <time>2024-12-06T09:43:36.000Z</time>
      </trkpt>
      <trkpt lat="43.74768" lon="6.86913">
        <ele>963.404246</ele>
        <time>2024-12-06T09:43:37.000Z</time>
      </trkpt>
      <trkpt lat="43.74772" lon="6.86914">
        <ele>963.57458</ele>
        <time>2024-12-06T09:43:38.000Z</time>
      </trkpt>
      <trkpt lat="43.74776" lon="6.86914">
        <ele>963.741203</ele>
        <time>2024-12-06T09:43:39.000Z</time>
      </trkpt>
      <trkpt lat="43.7478" lon="6.86915">
        <ele>963.896131</ele>
        <time>2024-12-06T09:43:40.000Z</time>
      </trkpt>
      <trkpt lat="43.74784" lon="6.86915">
        <ele>964.05818</ele>
        <time>2024-12-06T09:43:41.000Z</time>
      </trkpt>
      <trkpt lat="43.74788" lon="6.86916">
        <ele>964.22456</ele>
        <time>2024-12-06T09:43:42.000Z</time>
      </trkpt>
      <trkpt lat="43.74792" lon="6.86916">
        <ele>964.391479</ele>
        <time>2024-12-06T09:43:43.000Z</time>
      </trkpt>
      <trkpt lat="43.74795" lon="6.86917">
        <ele>964.524541</ele>
        <time>2024-12-06T09:43:44.000Z</time>
      </trkpt>
      <trkpt lat="43.748" lon="6.86917">
        <ele>964.724488</ele>
        <time>2024-12-06T09:43:45.000Z</time>
      </trkpt>
      <trkpt lat="43.74804" lon="6.86918">
        <ele>964.907644</ele>
        <time>2024-12-06T09:43:46.000Z</time>
      </trkpt>
      <trkpt lat="43.74808" lon="6.86918">
        <ele>965.083531</ele>
        <time>2024-12-06T09:43:47.000Z</time>
      </trkpt>
      <trkpt lat="43.74812" lon="6.8692">
        <ele>965.253331</ele>
        <time>2024-12-06T09:43:48.000Z</time>
      </trkpt>
      <trkpt lat="43.74816" lon="6.86921">
        <ele>965.422521</ele>
        <time>2024-12-06T09:43:49.000Z</time>
      </trkpt>
      <trkpt lat="43.7482" lon="6.86922">
        <ele>965.586086</ele>
        <time>2024-12-06T09:43:50.000Z</time>
      </trkpt>
      <trkpt lat="43.74824" lon="6.86922">
        <ele>965.753757</ele>
        <time>2024-12-06T09:43:51.000Z</time>
      </trkpt>
      <trkpt lat="43.74828" lon="6.86923">
        <ele>965.922389</ele>
        <time>2024-12-06T09:43:52.000Z</time>
      </trkpt>
      <trkpt lat="43.74832" lon="6.86925">
        <ele>966.084782</ele>
        <time>2024-12-06T09:43:53.000Z</time>
      </trkpt>
      <trkpt lat="43.74836" lon="6.86926">
        <ele>966.250529</ele>
        <time>2024-12-06T09:43:54.000Z</time>
      </trkpt>
      <trkpt lat="43.7484" lon="6.86927">
        <ele>966.41972</ele>
        <time>2024-12-06T09:43:55.000Z</time>
      </trkpt>
      <trkpt lat="43.74844" lon="6.86928">
        <ele>966.598267</ele>
        <time>2024-12-06T09:43:56.000Z</time>
      </trkpt>
      <trkpt lat="43.74848" lon="6.86929">
        <ele>966.774587</ele>
        <time>2024-12-06T09:43:57.000Z</time>
      </trkpt>
      <trkpt lat="43.74852" lon="6.8693">
        <ele>966.937382</ele>
        <time>2024-12-06T09:43:58.000Z</time>
      </trkpt>
      <trkpt lat="43.74856" lon="6.8693">
        <ele>967.096422</ele>
        <time>2024-12-06T09:43:59.000Z</time>
      </trkpt>
      <trkpt lat="43.7486" lon="6.86931">
        <ele>967.264093</ele>
        <time>2024-12-06T09:44:00.000Z</time>
      </trkpt>
      <trkpt lat="43.74864" lon="6.86932">
        <ele>967.431011</ele>
        <time>2024-12-06T09:44:01.000Z</time>
      </trkpt>
      <trkpt lat="43.74868" lon="6.86932">
        <ele>967.597391</ele>
        <time>2024-12-06T09:44:02.000Z</time>
      </trkpt>
      <trkpt lat="43.74872" lon="6.86932">
        <ele>967.767488</ele>
        <time>2024-12-06T09:44:03.000Z</time>
      </trkpt>
      <trkpt lat="43.74877" lon="6.86932">
        <ele>967.946108</ele>
        <time>2024-12-06T09:44:04.000Z</time>
      </trkpt>
      <trkpt lat="43.74881" lon="6.86931">
        <ele>968.122428</ele>
        <time>2024-12-06T09:44:05.000Z</time>
      </trkpt>
      <trkpt lat="43.74885" lon="6.86931">
        <ele>968.303781</ele>
        <time>2024-12-06T09:44:06.000Z</time>
      </trkpt>
      <trkpt lat="43.74889" lon="6.8693">
        <ele>968.520491</ele>
        <time>2024-12-06T09:44:07.000Z</time>
      </trkpt>
      <trkpt lat="43.74893" lon="6.86931">
        <ele>968.726894</ele>
        <time>2024-12-06T09:44:08.000Z</time>
      </trkpt>
      <trkpt lat="43.74897" lon="6.8693">
        <ele>968.935869</ele>
        <time>2024-12-06T09:44:09.000Z</time>
      </trkpt>
      <trkpt lat="43.74901" lon="6.86928">
        <ele>969.138644</ele>
        <time>2024-12-06T09:44:10.000Z</time>
      </trkpt>
      <trkpt lat="43.74904" lon="6.86927">
        <ele>969.327581</ele>
        <time>2024-12-06T09:44:11.000Z</time>
      </trkpt>
      <trkpt lat="43.74908" lon="6.86925">
        <ele>969.502406</ele>
        <time>2024-12-06T09:44:12.000Z</time>
      </trkpt>
      <trkpt lat="43.7491" lon="6.86923">
        <ele>969.667853</ele>
        <time>2024-12-06T09:44:13.000Z</time>
      </trkpt>
      <trkpt lat="43.74913" lon="6.86922">
        <ele>969.827889</ele>
        <time>2024-12-06T09:44:14.000Z</time>
      </trkpt>
      <trkpt lat="43.74917" lon="6.8692">
        <ele>970.016765</ele>
        <time>2024-12-06T09:44:15.000Z</time>
      </trkpt>
      <trkpt lat="43.7492" lon="6.86918">
        <ele>970.177749</ele>
        <time>2024-12-06T09:44:16.000Z</time>
      </trkpt>
      <trkpt lat="43.74923" lon="6.86917">
        <ele>970.32955</ele>
        <time>2024-12-06T09:44:17.000Z</time>
      </trkpt>
      <trkpt lat="43.74925" lon="6.86916">
        <ele>970.47341</ele>
        <time>2024-12-06T09:44:18.000Z</time>
      </trkpt>
      <trkpt lat="43.74928" lon="6.86915">
        <ele>970.618662</ele>
        <time>2024-12-06T09:44:19.000Z</time>
      </trkpt>
      <trkpt lat="43.74931" lon="6.86913">
        <ele>970.769811</ele>
        <time>2024-12-06T09:44:20.000Z</time>
      </trkpt>
      <trkpt lat="43.74933" lon="6.86911">
        <ele>970.938579</ele>
        <time>2024-12-06T09:44:21.000Z</time>
      </trkpt>
      <trkpt lat="43.74937" lon="6.86909">
        <ele>971.150981</ele>
        <time>2024-12-06T09:44:22.000Z</time>
      </trkpt>
      <trkpt lat="43.74942" lon="6.86906">
        <ele>971.403891</ele>
        <time>2024-12-06T09:44:23.000Z</time>
      </trkpt>
      <trkpt lat="43.74946" lon="6.86903">
        <ele>971.666491</ele>
        <time>2024-12-06T09:44:24.000Z</time>
      </trkpt>
      <trkpt lat="43.7495" lon="6.86899">
        <ele>971.936305</ele>
        <time>2024-12-06T09:44:25.000Z</time>
      </trkpt>
      <trkpt lat="43.74955" lon="6.86894">
        <ele>972.205682</ele>
        <time>2024-12-06T09:44:26.000Z</time>
      </trkpt>
      <trkpt lat="43.74959" lon="6.8689">
        <ele>972.477292</ele>
        <time>2024-12-06T09:44:27.000Z</time>
      </trkpt>
      <trkpt lat="43.74963" lon="6.86887">
        <ele>972.708612</ele>
        <time>2024-12-06T09:44:28.000Z</time>
      </trkpt>
      <trkpt lat="43.74966" lon="6.86883">
        <ele>972.934797</ele>
        <time>2024-12-06T09:44:29.000Z</time>
      </trkpt>
      <trkpt lat="43.74969" lon="6.86877">
        <ele>973.185448</ele>
        <time>2024-12-06T09:44:30.000Z</time>
      </trkpt>
      <trkpt lat="43.74971" lon="6.86872">
        <ele>973.412181</ele>
        <time>2024-12-06T09:44:31.000Z</time>
      </trkpt>
      <trkpt lat="43.74975" lon="6.86869">
        <ele>973.63483</ele>
        <time>2024-12-06T09:44:32.000Z</time>
      </trkpt>
      <trkpt lat="43.74977" lon="6.86864">
        <ele>973.858904</ele>
        <time>2024-12-06T09:44:33.000Z</time>
      </trkpt>
      <trkpt lat="43.7498" lon="6.86858">
        <ele>974.120155</ele>
        <time>2024-12-06T09:44:34.000Z</time>
      </trkpt>
      <trkpt lat="43.74983" lon="6.86852">
        <ele>974.368128</ele>
        <time>2024-12-06T09:44:35.000Z</time>
      </trkpt>
      <trkpt lat="43.74985" lon="6.86846">
        <ele>974.622101</ele>
        <time>2024-12-06T09:44:36.000Z</time>
      </trkpt>
      <trkpt lat="43.74987" lon="6.8684">
        <ele>974.87718</ele>
        <time>2024-12-06T09:44:37.000Z</time>
      </trkpt>
      <trkpt lat="43.74989" lon="6.86834">
        <ele>975.141199</ele>
        <time>2024-12-06T09:44:38.000Z</time>
      </trkpt>
      <trkpt lat="43.74991" lon="6.86827">
        <ele>975.395207</ele>
        <time>2024-12-06T09:44:39.000Z</time>
      </trkpt>
      <trkpt lat="43.74993" lon="6.86821">
        <ele>975.642657</ele>
        <time>2024-12-06T09:44:40.000Z</time>
      </trkpt>
      <trkpt lat="43.74995" lon="6.86815">
        <ele>975.888419</ele>
        <time>2024-12-06T09:44:41.000Z</time>
      </trkpt>
      <trkpt lat="43.74998" lon="6.8681">
        <ele>976.136128</ele>
        <time>2024-12-06T09:44:42.000Z</time>
      </trkpt>
      <trkpt lat="43.75" lon="6.86805">
        <ele>976.374676</ele>
        <time>2024-12-06T09:44:43.000Z</time>
      </trkpt>
      <trkpt lat="43.75003" lon="6.86799">
        <ele>976.613225</ele>
        <time>2024-12-06T09:44:44.000Z</time>
      </trkpt>
      <trkpt lat="43.75007" lon="6.86795">
        <ele>976.845743</ele>
        <time>2024-12-06T09:44:45.000Z</time>
      </trkpt>
      <trkpt lat="43.7501" lon="6.86792">
        <ele>977.045151</ele>
        <time>2024-12-06T09:44:46.000Z</time>
      </trkpt>
      <trkpt lat="43.75013" lon="6.86791">
        <ele>977.219369</ele>
        <time>2024-12-06T09:44:47.000Z</time>
      </trkpt>
      <trkpt lat="43.75016" lon="6.8679">
        <ele>977.395052</ele>
        <time>2024-12-06T09:44:48.000Z</time>
      </trkpt>
      <trkpt lat="43.75019" lon="6.8679">
        <ele>977.562434</ele>
        <time>2024-12-06T09:44:49.000Z</time>
      </trkpt>
      <trkpt lat="43.75022" lon="6.86789">
        <ele>977.785</ele>
        <time>2024-12-06T09:44:50.000Z</time>
      </trkpt>
      <trkpt lat="43.75025" lon="6.86787">
        <ele>978.002392</ele>
        <time>2024-12-06T09:44:51.000Z</time>
      </trkpt>
      <trkpt lat="43.75028" lon="6.86786">
        <ele>978.21229</ele>
        <time>2024-12-06T09:44:52.000Z</time>
      </trkpt>
      <trkpt lat="43.7503" lon="6.86785">
        <ele>978.396338</ele>
        <time>2024-12-06T09:44:53.000Z</time>
      </trkpt>
      <trkpt lat="43.75032" lon="6.86784">
        <ele>978.561359</ele>
        <time>2024-12-06T09:44:54.000Z</time>
      </trkpt>
      <trkpt lat="43.75034" lon="6.86784">
        <ele>978.718264</ele>
        <time>2024-12-06T09:44:55.000Z</time>
      </trkpt>
      <trkpt lat="43.75037" lon="6.86784">
        <ele>978.888843</ele>
        <time>2024-12-06T09:44:56.000Z</time>
      </trkpt>
      <trkpt lat="43.75039" lon="6.86784">
        <ele>979.081366</ele>
        <time>2024-12-06T09:44:57.000Z</time>
      </trkpt>
      <trkpt lat="43.75042" lon="6.86785">
        <ele>979.273983</ele>
        <time>2024-12-06T09:44:58.000Z</time>
      </trkpt>
      <trkpt lat="43.75044" lon="6.86787">
        <ele>979.473533</ele>
        <time>2024-12-06T09:44:59.000Z</time>
      </trkpt>
      <trkpt lat="43.75047" lon="6.86789">
        <ele>979.683688</ele>
        <time>2024-12-06T09:45:00.000Z</time>
      </trkpt>
      <trkpt lat="43.75049" lon="6.8679">
        <ele>979.863754</ele>
        <time>2024-12-06T09:45:01.000Z</time>
      </trkpt>
      <trkpt lat="43.75051" lon="6.86792">
        <ele>980.018335</ele>
        <time>2024-12-06T09:45:02.000Z</time>
      </trkpt>
      <trkpt lat="43.75053" lon="6.86793">
        <ele>980.179679</ele>
        <time>2024-12-06T09:45:03.000Z</time>
      </trkpt>
      <trkpt lat="43.75055" lon="6.86794">
        <ele>980.368556</ele>
        <time>2024-12-06T09:45:04.000Z</time>
      </trkpt>
      <trkpt lat="43.75058" lon="6.86795">
        <ele>980.582595</ele>
        <time>2024-12-06T09:45:05.000Z</time>
      </trkpt>
      <trkpt lat="43.7506" lon="6.86795">
        <ele>980.761523</ele>
        <time>2024-12-06T09:45:06.000Z</time>
      </trkpt>
      <trkpt lat="43.75063" lon="6.86795">
        <ele>980.946648</ele>
        <time>2024-12-06T09:45:07.000Z</time>
      </trkpt>
      <trkpt lat="43.75065" lon="6.86795">
        <ele>981.116891</ele>
        <time>2024-12-06T09:45:08.000Z</time>
      </trkpt>
      <trkpt lat="43.75066" lon="6.86795">
        <ele>981.221068</ele>
        <time>2024-12-06T09:45:09.000Z</time>
      </trkpt>
      <trkpt lat="43.75068" lon="6.86795">
        <ele>981.33261</ele>
        <time>2024-12-06T09:45:10.000Z</time>
      </trkpt>
      <trkpt lat="43.75069" lon="6.86796">
        <ele>981.452956</ele>
        <time>2024-12-06T09:45:11.000Z</time>
      </trkpt>
      <trkpt lat="43.75071" lon="6.86796">
        <ele>981.581597</ele>
        <time>2024-12-06T09:45:12.000Z</time>
      </trkpt>
      <trkpt lat="43.75073" lon="6.86796">
        <ele>981.737862</ele>
        <time>2024-12-06T09:45:13.000Z</time>
      </trkpt>
      <trkpt lat="43.75075" lon="6.86796">
        <ele>981.902102</ele>
        <time>2024-12-06T09:45:14.000Z</time>
      </trkpt>
      <trkpt lat="43.75077" lon="6.86795">
        <ele>982.029935</ele>
        <time>2024-12-06T09:45:15.000Z</time>
      </trkpt>
      <trkpt lat="43.75079" lon="6.86794">
        <ele>982.162166</ele>
        <time>2024-12-06T09:45:16.000Z</time>
      </trkpt>
      <trkpt lat="43.7508" lon="6.86793">
        <ele>982.28087</ele>
        <time>2024-12-06T09:45:17.000Z</time>
      </trkpt>
      <trkpt lat="43.75081" lon="6.86792">
        <ele>982.378277</ele>
        <time>2024-12-06T09:45:18.000Z</time>
      </trkpt>
      <trkpt lat="43.75082" lon="6.86792">
        <ele>982.453064</ele>
        <time>2024-12-06T09:45:19.000Z</time>
      </trkpt>
      <trkpt lat="43.75083" lon="6.86792">
        <ele>982.497476</ele>
        <time>2024-12-06T09:45:20.000Z</time>
      </trkpt>
      <trkpt lat="43.75084" lon="6.86791">
        <ele>982.605954</ele>
        <time>2024-12-06T09:45:23.000Z</time>
      </trkpt>
      <trkpt lat="43.75086" lon="6.86791">
        <ele>982.740894</ele>
        <time>2024-12-06T09:45:24.000Z</time>
      </trkpt>
      <trkpt lat="43.75088" lon="6.86792">
        <ele>982.919822</ele>
        <time>2024-12-06T09:45:25.000Z</time>
      </trkpt>
      <trkpt lat="43.75091" lon="6.86792">
        <ele>983.105178</ele>
        <time>2024-12-06T09:45:26.000Z</time>
      </trkpt>
      <trkpt lat="43.75093" lon="6.86791">
        <ele>983.301233</ele>
        <time>2024-12-06T09:45:27.000Z</time>
      </trkpt>
      <trkpt lat="43.75096" lon="6.8679">
        <ele>983.497288</ele>
        <time>2024-12-06T09:45:28.000Z</time>
      </trkpt>
      <trkpt lat="43.75098" lon="6.86789">
        <ele>983.687215</ele>
        <time>2024-12-06T09:45:29.000Z</time>
      </trkpt>
      <trkpt lat="43.75101" lon="6.86789">
        <ele>983.860454</ele>
        <time>2024-12-06T09:45:30.000Z</time>
      </trkpt>
      <trkpt lat="43.75103" lon="6.86788">
        <ele>984.033694</ele>
        <time>2024-12-06T09:45:31.000Z</time>
      </trkpt>
      <trkpt lat="43.75105" lon="6.86787">
        <ele>984.203497</ele>
        <time>2024-12-06T09:45:32.000Z</time>
      </trkpt>
      <trkpt lat="43.75108" lon="6.86786">
        <ele>984.381939</ele>
        <time>2024-12-06T09:45:33.000Z</time>
      </trkpt>
      <trkpt lat="43.7511" lon="6.86785">
        <ele>984.567913</ele>
        <time>2024-12-06T09:45:34.000Z</time>
      </trkpt>
      <trkpt lat="43.75112" lon="6.86783">
        <ele>984.732524</ele>
        <time>2024-12-06T09:45:35.000Z</time>
      </trkpt>
      <trkpt lat="43.75114" lon="6.86782">
        <ele>984.898411</ele>
        <time>2024-12-06T09:45:36.000Z</time>
      </trkpt>
      <trkpt lat="43.75116" lon="6.86781">
        <ele>985.057704</ele>
        <time>2024-12-06T09:45:37.000Z</time>
      </trkpt>
      <trkpt lat="43.75118" lon="6.8678">
        <ele>985.219048</ele>
        <time>2024-12-06T09:45:38.000Z</time>
      </trkpt>
      <trkpt lat="43.7512" lon="6.86778">
        <ele>985.378364</ele>
        <time>2024-12-06T09:45:39.000Z</time>
      </trkpt>
      <trkpt lat="43.75122" lon="6.86777">
        <ele>985.540262</ele>
        <time>2024-12-06T09:45:40.000Z</time>
      </trkpt>
      <trkpt lat="43.75124" lon="6.86775">
        <ele>985.71124</ele>
        <time>2024-12-06T09:45:41.000Z</time>
      </trkpt>
      <trkpt lat="43.75125" lon="6.86773">
        <ele>985.88473</ele>
        <time>2024-12-06T09:45:42.000Z</time>
      </trkpt>
      <trkpt lat="43.75127" lon="6.86772">
        <ele>986.033948</ele>
        <time>2024-12-06T09:45:43.000Z</time>
      </trkpt>
      <trkpt lat="43.75129" lon="6.8677">
        <ele>986.174051</ele>
        <time>2024-12-06T09:45:44.000Z</time>
      </trkpt>
      <trkpt lat="43.7513" lon="6.86768">
        <ele>986.315475</ele>
        <time>2024-12-06T09:45:45.000Z</time>
      </trkpt>
      <trkpt lat="43.75132" lon="6.86767">
        <ele>986.470703</ele>
        <time>2024-12-06T09:45:46.000Z</time>
      </trkpt>
      <trkpt lat="43.75134" lon="6.86765">
        <ele>986.638248</ele>
        <time>2024-12-06T09:45:47.000Z</time>
      </trkpt>
      <trkpt lat="43.75136" lon="6.86763">
        <ele>986.800145</ele>
        <time>2024-12-06T09:45:48.000Z</time>
      </trkpt>
      <trkpt lat="43.75137" lon="6.86762">
        <ele>986.967598</ele>
        <time>2024-12-06T09:45:49.000Z</time>
      </trkpt>
      <trkpt lat="43.75139" lon="6.8676">
        <ele>987.138438</ele>
        <time>2024-12-06T09:45:50.000Z</time>
      </trkpt>
      <trkpt lat="43.75141" lon="6.86757">
        <ele>987.310688</ele>
        <time>2024-12-06T09:45:51.000Z</time>
      </trkpt>
      <trkpt lat="43.75143" lon="6.86756">
        <ele>987.469105</ele>
        <time>2024-12-06T09:45:52.000Z</time>
      </trkpt>
      <trkpt lat="43.75145" lon="6.86754">
        <ele>987.639519</ele>
        <time>2024-12-06T09:45:53.000Z</time>
      </trkpt>
      <trkpt lat="43.75146" lon="6.86752">
        <ele>987.809933</ele>
        <time>2024-12-06T09:45:54.000Z</time>
      </trkpt>
      <trkpt lat="43.75148" lon="6.8675">
        <ele>987.984169</ele>
        <time>2024-12-06T09:45:55.000Z</time>
      </trkpt>
      <trkpt lat="43.7515" lon="6.86748">
        <ele>988.160843</ele>
        <time>2024-12-06T09:45:56.000Z</time>
      </trkpt>
      <trkpt lat="43.75152" lon="6.86746">
        <ele>988.338572</ele>
        <time>2024-12-06T09:45:57.000Z</time>
      </trkpt>
      <trkpt lat="43.75154" lon="6.86743">
        <ele>988.518294</ele>
        <time>2024-12-06T09:45:58.000Z</time>
      </trkpt>
      <trkpt lat="43.75155" lon="6.86741">
        <ele>988.694239</ele>
        <time>2024-12-06T09:45:59.000Z</time>
      </trkpt>
      <trkpt lat="43.75162" lon="6.86733">
        <ele>989.342212</ele>
        <time>2024-12-06T09:46:03.000Z</time>
      </trkpt>
      <trkpt lat="43.75164" lon="6.86732">
        <ele>989.497439</ele>
        <time>2024-12-06T09:46:04.000Z</time>
      </trkpt>
      <trkpt lat="43.75165" lon="6.86729">
        <ele>989.664358</ele>
        <time>2024-12-06T09:46:05.000Z</time>
      </trkpt>
      <trkpt lat="43.75167" lon="6.86727">
        <ele>989.825172</ele>
        <time>2024-12-06T09:46:06.000Z</time>
      </trkpt>
      <trkpt lat="43.7517" lon="6.86723">
        <ele>990.142515</ele>
        <time>2024-12-06T09:46:08.000Z</time>
      </trkpt>
      <trkpt lat="43.75171" lon="6.86721">
        <ele>990.300421</ele>
        <time>2024-12-06T09:46:09.000Z</time>
      </trkpt>
      <trkpt lat="43.75173" lon="6.86719">
        <ele>990.458327</ele>
        <time>2024-12-06T09:46:10.000Z</time>
      </trkpt>
      <trkpt lat="43.75174" lon="6.86716">
        <ele>990.623027</ele>
        <time>2024-12-06T09:46:11.000Z</time>
      </trkpt>
      <trkpt lat="43.75177" lon="6.86712">
        <ele>990.941746</ele>
        <time>2024-12-06T09:46:13.000Z</time>
      </trkpt>
      <trkpt lat="43.75178" lon="6.86709">
        <ele>991.126309</ele>
        <time>2024-12-06T09:46:14.000Z</time>
      </trkpt>
      <trkpt lat="43.75179" lon="6.86707">
        <ele>991.305987</ele>
        <time>2024-12-06T09:46:15.000Z</time>
      </trkpt>
      <trkpt lat="43.7518" lon="6.86705">
        <ele>991.480546</ele>
        <time>2024-12-06T09:46:16.000Z</time>
      </trkpt>
      <trkpt lat="43.75182" lon="6.86703">
        <ele>991.641559</ele>
        <time>2024-12-06T09:46:17.000Z</time>
      </trkpt>
      <trkpt lat="43.75183" lon="6.86701">
        <ele>991.801155</ele>
        <time>2024-12-06T09:46:18.000Z</time>
      </trkpt>
      <trkpt lat="43.75184" lon="6.86699">
        <ele>991.941574</ele>
        <time>2024-12-06T09:46:19.000Z</time>
      </trkpt>
      <trkpt lat="43.75185" lon="6.86697">
        <ele>992.106191</ele>
        <time>2024-12-06T09:46:20.000Z</time>
      </trkpt>
      <trkpt lat="43.75188" lon="6.86692">
        <ele>992.481834</ele>
        <time>2024-12-06T09:46:22.000Z</time>
      </trkpt>
      <trkpt lat="43.75199" lon="6.86676">
        <ele>993.864556</ele>
        <time>2024-12-06T09:46:30.000Z</time>
      </trkpt>
      <trkpt lat="43.752" lon="6.86674">
        <ele>994.035904</ele>
        <time>2024-12-06T09:46:31.000Z</time>
      </trkpt>
      <trkpt lat="43.75203" lon="6.86669">
        <ele>994.395816</ele>
        <time>2024-12-06T09:46:33.000Z</time>
      </trkpt>
      <trkpt lat="43.75204" lon="6.86667">
        <ele>994.55443</ele>
        <time>2024-12-06T09:46:34.000Z</time>
      </trkpt>
      <trkpt lat="43.75206" lon="6.86666">
        <ele>994.694713</ele>
        <time>2024-12-06T09:46:35.000Z</time>
      </trkpt>
      <trkpt lat="43.75207" lon="6.86665">
        <ele>994.810291</ele>
        <time>2024-12-06T09:46:36.000Z</time>
      </trkpt>
      <trkpt lat="43.75208" lon="6.86665">
        <ele>994.882738</ele>
        <time>2024-12-06T09:46:37.000Z</time>
      </trkpt>
      <trkpt lat="43.75208" lon="6.86664">
        <ele>994.943305</ele>
        <time>2024-12-06T09:46:38.000Z</time>
      </trkpt>
      <trkpt lat="43.75209" lon="6.86663">
        <ele>995.038219</ele>
        <time>2024-12-06T09:46:39.000Z</time>
      </trkpt>
      <trkpt lat="43.7521" lon="6.86661">
        <ele>995.188029</ele>
        <time>2024-12-06T09:46:40.000Z</time>
      </trkpt>
      <trkpt lat="43.75211" lon="6.86659">
        <ele>995.33873</ele>
        <time>2024-12-06T09:46:41.000Z</time>
      </trkpt>
      <trkpt lat="43.75212" lon="6.86658">
        <ele>995.4654</ele>
        <time>2024-12-06T09:46:42.000Z</time>
      </trkpt>
      <trkpt lat="43.75213" lon="6.86657">
        <ele>995.522121</ele>
        <time>2024-12-06T09:46:43.000Z</time>
      </trkpt>
      <trkpt lat="43.75213" lon="6.86657">
        <ele>995.522121</ele>
        <time>2024-12-06T09:46:46.000Z</time>
      </trkpt>
      <trkpt lat="43.75213" lon="6.86658">
        <ele>995.540233</ele>
        <time>2024-12-06T09:46:50.000Z</time>
      </trkpt>
      <trkpt lat="43.75215" lon="6.86654">
        <ele>995.822364</ele>
        <time>2024-12-06T09:46:57.000Z</time>
      </trkpt>
      <trkpt lat="43.75216" lon="6.86653">
        <ele>995.912977</ele>
        <time>2024-12-06T09:46:58.000Z</time>
      </trkpt>
      <trkpt lat="43.75216" lon="6.86652">
        <ele>995.999913</ele>
        <time>2024-12-06T09:46:59.000Z</time>
      </trkpt>
      <trkpt lat="43.75217" lon="6.86651">
        <ele>996.079874</ele>
        <time>2024-12-06T09:47:00.000Z</time>
      </trkpt>
      <trkpt lat="43.75217" lon="6.8665">
        <ele>996.11535</ele>
        <time>2024-12-06T09:47:04.000Z</time>
      </trkpt>
      <trkpt lat="43.75217" lon="6.8665">
        <ele>996.11535</ele>
        <time>2024-12-06T09:47:11.000Z</time>
      </trkpt>
      <trkpt lat="43.75217" lon="6.86651">
        <ele>996.165301</ele>
        <time>2024-12-06T09:47:22.000Z</time>
      </trkpt>
      <trkpt lat="43.75219" lon="6.86649">
        <ele>996.337005</ele>
        <time>2024-12-06T09:47:24.000Z</time>
      </trkpt>
      <trkpt lat="43.75224" lon="6.86646">
        <ele>996.865643</ele>
        <time>2024-12-06T09:47:28.000Z</time>
      </trkpt>
      <trkpt lat="43.75226" lon="6.86645">
        <ele>997.020665</ele>
        <time>2024-12-06T09:47:29.000Z</time>
      </trkpt>
      <trkpt lat="43.75233" lon="6.86643">
        <ele>997.604445</ele>
        <time>2024-12-06T09:47:32.000Z</time>
      </trkpt>
      <trkpt lat="43.75237" lon="6.86643">
        <ele>997.989501</ele>
        <time>2024-12-06T09:47:34.000Z</time>
      </trkpt>
      <trkpt lat="43.75239" lon="6.86642">
        <ele>998.160292</ele>
        <time>2024-12-06T09:47:35.000Z</time>
      </trkpt>
      <trkpt lat="43.75241" lon="6.86642">
        <ele>998.314098</ele>
        <time>2024-12-06T09:47:36.000Z</time>
      </trkpt>
      <trkpt lat="43.75243" lon="6.86642">
        <ele>998.467904</ele>
        <time>2024-12-06T09:47:37.000Z</time>
      </trkpt>
      <trkpt lat="43.75245" lon="6.86641">
        <ele>998.612798</ele>
        <time>2024-12-06T09:47:38.000Z</time>
      </trkpt>
      <trkpt lat="43.75246" lon="6.8664">
        <ele>998.74258</ele>
        <time>2024-12-06T09:47:39.000Z</time>
      </trkpt>
      <trkpt lat="43.75247" lon="6.86638">
        <ele>998.888648</ele>
        <time>2024-12-06T09:47:40.000Z</time>
      </trkpt>
      <trkpt lat="43.75247" lon="6.86635">
        <ele>999.05822</ele>
        <time>2024-12-06T09:47:41.000Z</time>
      </trkpt>
      <trkpt lat="43.75247" lon="6.86628">
        <ele>999.496367</ele>
        <time>2024-12-06T09:47:43.000Z</time>
      </trkpt>
      <trkpt lat="43.75248" lon="6.86625">
        <ele>999.708304</ele>
        <time>2024-12-06T09:47:44.000Z</time>
      </trkpt>
      <trkpt lat="43.75248" lon="6.86614">
        <ele>1000.378969</ele>
        <time>2024-12-06T09:47:47.000Z</time>
      </trkpt>
      <trkpt lat="43.75247" lon="6.86611">
        <ele>1000.561262</ele>
        <time>2024-12-06T09:47:48.000Z</time>
      </trkpt>
      <trkpt lat="43.75246" lon="6.86608">
        <ele>1000.75801</ele>
        <time>2024-12-06T09:47:49.000Z</time>
      </trkpt>
      <trkpt lat="43.75246" lon="6.86601">
        <ele>1001.164425</ele>
        <time>2024-12-06T09:47:51.000Z</time>
      </trkpt>
      <trkpt lat="43.75248" lon="6.86599">
        <ele>1001.368907</ele>
        <time>2024-12-06T09:47:52.000Z</time>
      </trkpt>
      <trkpt lat="43.7525" lon="6.86597">
        <ele>1001.575506</ele>
        <time>2024-12-06T09:47:53.000Z</time>
      </trkpt>
      <trkpt lat="43.75252" lon="6.86595">
        <ele>1001.782706</ele>
        <time>2024-12-06T09:47:54.000Z</time>
      </trkpt>
      <trkpt lat="43.75254" lon="6.86594">
        <ele>1001.988937</ele>
        <time>2024-12-06T09:47:55.000Z</time>
      </trkpt>
      <trkpt lat="43.75256" lon="6.86592">
        <ele>1002.175231</ele>
        <time>2024-12-06T09:47:56.000Z</time>
      </trkpt>
      <trkpt lat="43.75258" lon="6.8659">
        <ele>1002.350319</ele>
        <time>2024-12-06T09:47:57.000Z</time>
      </trkpt>
      <trkpt lat="43.7526" lon="6.86589">
        <ele>1002.557519</ele>
        <time>2024-12-06T09:47:58.000Z</time>
      </trkpt>
      <trkpt lat="43.75262" lon="6.86587">
        <ele>1002.753452</ele>
        <time>2024-12-06T09:47:59.000Z</time>
      </trkpt>
      <trkpt lat="43.75264" lon="6.86587">
        <ele>1002.932573</ele>
        <time>2024-12-06T09:48:00.000Z</time>
      </trkpt>
      <trkpt lat="43.75266" lon="6.86585">
        <ele>1003.120762</ele>
        <time>2024-12-06T09:48:01.000Z</time>
      </trkpt>
      <trkpt lat="43.75268" lon="6.86584">
        <ele>1003.301278</ele>
        <time>2024-12-06T09:48:02.000Z</time>
      </trkpt>
      <trkpt lat="43.75269" lon="6.86582">
        <ele>1003.472982</ele>
        <time>2024-12-06T09:48:03.000Z</time>
      </trkpt>
      <trkpt lat="43.75271" lon="6.8658">
        <ele>1003.650362</ele>
        <time>2024-12-06T09:48:04.000Z</time>
      </trkpt>
      <trkpt lat="43.75272" lon="6.86578">
        <ele>1003.791016</ele>
        <time>2024-12-06T09:48:05.000Z</time>
      </trkpt>
      <trkpt lat="43.75272" lon="6.86577">
        <ele>1003.892654</ele>
        <time>2024-12-06T09:48:06.000Z</time>
      </trkpt>
      <trkpt lat="43.75272" lon="6.86575">
        <ele>1004.003567</ele>
        <time>2024-12-06T09:48:07.000Z</time>
      </trkpt>
      <trkpt lat="43.7527" lon="6.86574">
        <ele>1004.178654</ele>
        <time>2024-12-06T09:48:08.000Z</time>
      </trkpt>
      <trkpt lat="43.75268" lon="6.86573">
        <ele>1004.329719</ele>
        <time>2024-12-06T09:48:09.000Z</time>
      </trkpt>
      <trkpt lat="43.75267" lon="6.86573">
        <ele>1004.441126</ele>
        <time>2024-12-06T09:48:10.000Z</time>
      </trkpt>
      <trkpt lat="43.75265" lon="6.86574">
        <ele>1004.579609</ele>
        <time>2024-12-06T09:48:11.000Z</time>
      </trkpt>
      <trkpt lat="43.75263" lon="6.86574">
        <ele>1004.762243</ele>
        <time>2024-12-06T09:48:12.000Z</time>
      </trkpt>
      <trkpt lat="43.75261" lon="6.86575">
        <ele>1004.972502</ele>
        <time>2024-12-06T09:48:13.000Z</time>
      </trkpt>
      <trkpt lat="43.75259" lon="6.86575">
        <ele>1005.168402</ele>
        <time>2024-12-06T09:48:14.000Z</time>
      </trkpt>
      <trkpt lat="43.75257" lon="6.86575">
        <ele>1005.339746</ele>
        <time>2024-12-06T09:48:15.000Z</time>
      </trkpt>
      <trkpt lat="43.75254" lon="6.86574">
        <ele>1005.528738</ele>
        <time>2024-12-06T09:48:16.000Z</time>
      </trkpt>
      <trkpt lat="43.75252" lon="6.86574">
        <ele>1005.710229</ele>
        <time>2024-12-06T09:48:17.000Z</time>
      </trkpt>
      <trkpt lat="43.7525" lon="6.86573">
        <ele>1005.920488</ele>
        <time>2024-12-06T09:48:18.000Z</time>
      </trkpt>
      <trkpt lat="43.75248" lon="6.86573">
        <ele>1006.099776</ele>
        <time>2024-12-06T09:48:19.000Z</time>
      </trkpt>
      <trkpt lat="43.75246" lon="6.86572">
        <ele>1006.288031</ele>
        <time>2024-12-06T09:48:20.000Z</time>
      </trkpt>
      <trkpt lat="43.75244" lon="6.86572">
        <ele>1006.545547</ele>
        <time>2024-12-06T09:48:21.000Z</time>
      </trkpt>
      <trkpt lat="43.75242" lon="6.86571">
        <ele>1006.824232</ele>
        <time>2024-12-06T09:48:22.000Z</time>
      </trkpt>
      <trkpt lat="43.7524" lon="6.8657">
        <ele>1007.089941</ele>
        <time>2024-12-06T09:48:23.000Z</time>
      </trkpt>
      <trkpt lat="43.75238" lon="6.86568">
        <ele>1007.351821</ele>
        <time>2024-12-06T09:48:24.000Z</time>
      </trkpt>
      <trkpt lat="43.75237" lon="6.86565">
        <ele>1007.615217</ele>
        <time>2024-12-06T09:48:25.000Z</time>
      </trkpt>
      <trkpt lat="43.75236" lon="6.86562">
        <ele>1007.871503</ele>
        <time>2024-12-06T09:48:26.000Z</time>
      </trkpt>
      <trkpt lat="43.75236" lon="6.86559">
        <ele>1008.147836</ele>
        <time>2024-12-06T09:48:27.000Z</time>
      </trkpt>
      <trkpt lat="43.75236" lon="6.86556">
        <ele>1008.40491</ele>
        <time>2024-12-06T09:48:28.000Z</time>
      </trkpt>
      <trkpt lat="43.75236" lon="6.86554">
        <ele>1008.615512</ele>
        <time>2024-12-06T09:48:29.000Z</time>
      </trkpt>
      <trkpt lat="43.75235" lon="6.86552">
        <ele>1008.834698</ele>
        <time>2024-12-06T09:48:30.000Z</time>
      </trkpt>
      <trkpt lat="43.75234" lon="6.86549">
        <ele>1009.05656</ele>
        <time>2024-12-06T09:48:31.000Z</time>
      </trkpt>
      <trkpt lat="43.75233" lon="6.86547">
        <ele>1009.312832</ele>
        <time>2024-12-06T09:48:32.000Z</time>
      </trkpt>
      <trkpt lat="43.75232" lon="6.86545">
        <ele>1009.562251</ele>
        <time>2024-12-06T09:48:33.000Z</time>
      </trkpt>
      <trkpt lat="43.75231" lon="6.86543">
        <ele>1009.782967</ele>
        <time>2024-12-06T09:48:34.000Z</time>
      </trkpt>
      <trkpt lat="43.7523" lon="6.8654">
        <ele>1010.018535</ele>
        <time>2024-12-06T09:48:35.000Z</time>
      </trkpt>
      <trkpt lat="43.75229" lon="6.86538">
        <ele>1010.271532</ele>
        <time>2024-12-06T09:48:36.000Z</time>
      </trkpt>
      <trkpt lat="43.75228" lon="6.86535">
        <ele>1010.530011</ele>
        <time>2024-12-06T09:48:37.000Z</time>
      </trkpt>
      <trkpt lat="43.75227" lon="6.86533">
        <ele>1010.765578</ele>
        <time>2024-12-06T09:48:38.000Z</time>
      </trkpt>
      <trkpt lat="43.75226" lon="6.86531">
        <ele>1010.96853</ele>
        <time>2024-12-06T09:48:39.000Z</time>
      </trkpt>
      <trkpt lat="43.75225" lon="6.86529">
        <ele>1011.196624</ele>
        <time>2024-12-06T09:48:40.000Z</time>
      </trkpt>
      <trkpt lat="43.75224" lon="6.86526">
        <ele>1011.444613</ele>
        <time>2024-12-06T09:48:41.000Z</time>
      </trkpt>
      <trkpt lat="43.75224" lon="6.86524">
        <ele>1011.671736</ele>
        <time>2024-12-06T09:48:42.000Z</time>
      </trkpt>
      <trkpt lat="43.75223" lon="6.86521">
        <ele>1011.886322</ele>
        <time>2024-12-06T09:48:43.000Z</time>
      </trkpt>
      <trkpt lat="43.75223" lon="6.86518">
        <ele>1012.145398</ele>
        <time>2024-12-06T09:48:44.000Z</time>
      </trkpt>
      <trkpt lat="43.75223" lon="6.86516">
        <ele>1012.400165</ele>
        <time>2024-12-06T09:48:45.000Z</time>
      </trkpt>
      <trkpt lat="43.75223" lon="6.86513">
        <ele>1012.633435</ele>
        <time>2024-12-06T09:48:46.000Z</time>
      </trkpt>
      <trkpt lat="43.75224" lon="6.8651">
        <ele>1012.881321</ele>
        <time>2024-12-06T09:48:47.000Z</time>
      </trkpt>
      <trkpt lat="43.75224" lon="6.86508">
        <ele>1013.105329</ele>
        <time>2024-12-06T09:48:48.000Z</time>
      </trkpt>
      <trkpt lat="43.75225" lon="6.86506">
        <ele>1013.327191</ele>
        <time>2024-12-06T09:48:49.000Z</time>
      </trkpt>
      <trkpt lat="43.75226" lon="6.86504">
        <ele>1013.543326</ele>
        <time>2024-12-06T09:48:50.000Z</time>
      </trkpt>
      <trkpt lat="43.75227" lon="6.86501">
        <ele>1013.767333</ele>
        <time>2024-12-06T09:48:51.000Z</time>
      </trkpt>
      <trkpt lat="43.75228" lon="6.86499">
        <ele>1014.006846</ele>
        <time>2024-12-06T09:48:52.000Z</time>
      </trkpt>
      <trkpt lat="43.75228" lon="6.86496">
        <ele>1014.250331</ele>
        <time>2024-12-06T09:48:53.000Z</time>
      </trkpt>
      <trkpt lat="43.75229" lon="6.86494">
        <ele>1014.466466</ele>
        <time>2024-12-06T09:48:54.000Z</time>
      </trkpt>
      <trkpt lat="43.75229" lon="6.86491">
        <ele>1014.691161</ele>
        <time>2024-12-06T09:48:55.000Z</time>
      </trkpt>
      <trkpt lat="43.75229" lon="6.86488">
        <ele>1014.938062</ele>
        <time>2024-12-06T09:48:56.000Z</time>
      </trkpt>
      <trkpt lat="43.75229" lon="6.86485">
        <ele>1015.201314</ele>
        <time>2024-12-06T09:48:57.000Z</time>
      </trkpt>
      <trkpt lat="43.75229" lon="6.86483">
        <ele>1015.42979</ele>
        <time>2024-12-06T09:48:58.000Z</time>
      </trkpt>
      <trkpt lat="43.75229" lon="6.8648">
        <ele>1015.650509</ele>
        <time>2024-12-06T09:48:59.000Z</time>
      </trkpt>
      <trkpt lat="43.75228" lon="6.86478">
        <ele>1015.865094</ele>
        <time>2024-12-06T09:49:00.000Z</time>
      </trkpt>
      <trkpt lat="43.75228" lon="6.86476">
        <ele>1016.087953</ele>
        <time>2024-12-06T09:49:01.000Z</time>
      </trkpt>
      <trkpt lat="43.75227" lon="6.86474">
        <ele>1016.288567</ele>
        <time>2024-12-06T09:49:02.000Z</time>
      </trkpt>
      <trkpt lat="43.75226" lon="6.86471">
        <ele>1016.512574</ele>
        <time>2024-12-06T09:49:03.000Z</time>
      </trkpt>
      <trkpt lat="43.75225" lon="6.86469">
        <ele>1016.76866</ele>
        <time>2024-12-06T09:49:04.000Z</time>
      </trkpt>
      <trkpt lat="43.75225" lon="6.86466">
        <ele>1017.012145</ele>
        <time>2024-12-06T09:49:05.000Z</time>
      </trkpt>
      <trkpt lat="43.75224" lon="6.86463">
        <ele>1017.263871</ele>
        <time>2024-12-06T09:49:06.000Z</time>
      </trkpt>
      <trkpt lat="43.75223" lon="6.8646">
        <ele>1017.51697</ele>
        <time>2024-12-06T09:49:07.000Z</time>
      </trkpt>
      <trkpt lat="43.75223" lon="6.86458">
        <ele>1017.744093</ele>
        <time>2024-12-06T09:49:08.000Z</time>
      </trkpt>
      <trkpt lat="43.75222" lon="6.86455">
        <ele>1018.000379</ele>
        <time>2024-12-06T09:49:09.000Z</time>
      </trkpt>
      <trkpt lat="43.75222" lon="6.86452">
        <ele>1018.276714</ele>
        <time>2024-12-06T09:49:10.000Z</time>
      </trkpt>
      <trkpt lat="43.75222" lon="6.86449">
        <ele>1018.531191</ele>
        <time>2024-12-06T09:49:11.000Z</time>
      </trkpt>
      <trkpt lat="43.75222" lon="6.86447">
        <ele>1018.773051</ele>
        <time>2024-12-06T09:49:12.000Z</time>
      </trkpt>
      <trkpt lat="43.75223" lon="6.86444">
        <ele>1019.018164</ele>
        <time>2024-12-06T09:49:13.000Z</time>
      </trkpt>
      <trkpt lat="43.75224" lon="6.86442">
        <ele>1019.254261</ele>
        <time>2024-12-06T09:49:14.000Z</time>
      </trkpt>
      <trkpt lat="43.75226" lon="6.86441">
        <ele>1019.49916</ele>
        <time>2024-12-06T09:49:15.000Z</time>
      </trkpt>
      <trkpt lat="43.75228" lon="6.8644">
        <ele>1019.712286</ele>
        <time>2024-12-06T09:49:16.000Z</time>
      </trkpt>
      <trkpt lat="43.7523" lon="6.8644">
        <ele>1019.931657</ele>
        <time>2024-12-06T09:49:17.000Z</time>
      </trkpt>
      <trkpt lat="43.75231" lon="6.86439">
        <ele>1020.151903</ele>
        <time>2024-12-06T09:49:18.000Z</time>
      </trkpt>
      <trkpt lat="43.75233" lon="6.86439">
        <ele>1020.355749</ele>
        <time>2024-12-06T09:49:19.000Z</time>
      </trkpt>
      <trkpt lat="43.75235" lon="6.86437">
        <ele>1020.591681</ele>
        <time>2024-12-06T09:49:20.000Z</time>
      </trkpt>
      <trkpt lat="43.75236" lon="6.86436">
        <ele>1020.806666</ele>
        <time>2024-12-06T09:49:21.000Z</time>
      </trkpt>
      <trkpt lat="43.75238" lon="6.86435">
        <ele>1021.057481</ele>
        <time>2024-12-06T09:49:22.000Z</time>
      </trkpt>
      <trkpt lat="43.75239" lon="6.86433">
        <ele>1021.314763</ele>
        <time>2024-12-06T09:49:23.000Z</time>
      </trkpt>
      <trkpt lat="43.75241" lon="6.86431">
        <ele>1021.544704</ele>
        <time>2024-12-06T09:49:24.000Z</time>
      </trkpt>
      <trkpt lat="43.75243" lon="6.8643">
        <ele>1021.804565</ele>
        <time>2024-12-06T09:49:25.000Z</time>
      </trkpt>
      <trkpt lat="43.75245" lon="6.86428">
        <ele>1022.059793</ele>
        <time>2024-12-06T09:49:26.000Z</time>
      </trkpt>
      <trkpt lat="43.75246" lon="6.86427">
        <ele>1022.294538</ele>
        <time>2024-12-06T09:49:27.000Z</time>
      </trkpt>
      <trkpt lat="43.75248" lon="6.86425">
        <ele>1022.534315</ele>
        <time>2024-12-06T09:49:28.000Z</time>
      </trkpt>
      <trkpt lat="43.7525" lon="6.86424">
        <ele>1022.78095</ele>
        <time>2024-12-06T09:49:29.000Z</time>
      </trkpt>
      <trkpt lat="43.75252" lon="6.86422">
        <ele>1023.066055</ele>
        <time>2024-12-06T09:49:30.000Z</time>
      </trkpt>
      <trkpt lat="43.75254" lon="6.8642">
        <ele>1023.378756</ele>
        <time>2024-12-06T09:49:31.000Z</time>
      </trkpt>
      <trkpt lat="43.75256" lon="6.8642">
        <ele>1023.64335</ele>
        <time>2024-12-06T09:49:32.000Z</time>
      </trkpt>
      <trkpt lat="43.75258" lon="6.86419">
        <ele>1023.891954</ele>
        <time>2024-12-06T09:49:33.000Z</time>
      </trkpt>
      <trkpt lat="43.7526" lon="6.86418">
        <ele>1024.15339</ele>
        <time>2024-12-06T09:49:34.000Z</time>
      </trkpt>
      <trkpt lat="43.75262" lon="6.86416">
        <ele>1024.451305</ele>
        <time>2024-12-06T09:49:35.000Z</time>
      </trkpt>
      <trkpt lat="43.75264" lon="6.86414">
        <ele>1024.760954</ele>
        <time>2024-12-06T09:49:36.000Z</time>
      </trkpt>
      <trkpt lat="43.75266" lon="6.86413">
        <ele>1025.026663</ele>
        <time>2024-12-06T09:49:37.000Z</time>
      </trkpt>
      <trkpt lat="43.75268" lon="6.86411">
        <ele>1025.296411</ele>
        <time>2024-12-06T09:49:38.000Z</time>
      </trkpt>
      <trkpt lat="43.7527" lon="6.86409">
        <ele>1025.581516</ele>
        <time>2024-12-06T09:49:39.000Z</time>
      </trkpt>
      <trkpt lat="43.75272" lon="6.86407">
        <ele>1025.856495</ele>
        <time>2024-12-06T09:49:40.000Z</time>
      </trkpt>
      <trkpt lat="43.75273" lon="6.86405">
        <ele>1026.107259</ele>
        <time>2024-12-06T09:49:41.000Z</time>
      </trkpt>
      <trkpt lat="43.75275" lon="6.86403">
        <ele>1026.402612</ele>
        <time>2024-12-06T09:49:42.000Z</time>
      </trkpt>
      <trkpt lat="43.75278" lon="6.86401">
        <ele>1026.755758</ele>
        <time>2024-12-06T09:49:43.000Z</time>
      </trkpt>
      <trkpt lat="43.7528" lon="6.864">
        <ele>1027.025921</ele>
        <time>2024-12-06T09:49:44.000Z</time>
      </trkpt>
      <trkpt lat="43.75281" lon="6.86398">
        <ele>1027.296939</ele>
        <time>2024-12-06T09:49:45.000Z</time>
      </trkpt>
      <trkpt lat="43.75283" lon="6.86396">
        <ele>1027.561644</ele>
        <time>2024-12-06T09:49:46.000Z</time>
      </trkpt>
      <trkpt lat="43.75284" lon="6.86394">
        <ele>1027.804334</ele>
        <time>2024-12-06T09:49:47.000Z</time>
      </trkpt>
      <trkpt lat="43.75285" lon="6.86392">
        <ele>1028.012666</ele>
        <time>2024-12-06T09:49:48.000Z</time>
      </trkpt>
      <trkpt lat="43.75286" lon="6.8639">
        <ele>1028.152113</ele>
        <time>2024-12-06T09:49:49.000Z</time>
      </trkpt>
      <trkpt lat="43.75287" lon="6.86388">
        <ele>1028.312155</ele>
        <time>2024-12-06T09:49:50.000Z</time>
      </trkpt>
      <trkpt lat="43.75288" lon="6.86386">
        <ele>1028.472713</ele>
        <time>2024-12-06T09:49:51.000Z</time>
      </trkpt>
      <trkpt lat="43.7529" lon="6.86384">
        <ele>1028.628908</ele>
        <time>2024-12-06T09:49:52.000Z</time>
      </trkpt>
      <trkpt lat="43.75291" lon="6.86381">
        <ele>1028.804536</ele>
        <time>2024-12-06T09:49:53.000Z</time>
      </trkpt>
      <trkpt lat="43.75292" lon="6.86379">
        <ele>1028.984493</ele>
        <time>2024-12-06T09:49:54.000Z</time>
      </trkpt>
      <trkpt lat="43.75293" lon="6.86376">
        <ele>1029.160641</ele>
        <time>2024-12-06T09:49:55.000Z</time>
      </trkpt>
      <trkpt lat="43.75294" lon="6.86374">
        <ele>1029.308838</ele>
        <time>2024-12-06T09:49:56.000Z</time>
      </trkpt>
      <trkpt lat="43.75295" lon="6.86371">
        <ele>1029.467576</ele>
        <time>2024-12-06T09:49:57.000Z</time>
      </trkpt>
      <trkpt lat="43.75296" lon="6.86368">
        <ele>1029.645493</ele>
        <time>2024-12-06T09:49:58.000Z</time>
      </trkpt>
      <trkpt lat="43.75297" lon="6.86366">
        <ele>1029.809555</ele>
        <time>2024-12-06T09:49:59.000Z</time>
      </trkpt>
      <trkpt lat="43.75297" lon="6.86363">
        <ele>1029.968143</ele>
        <time>2024-12-06T09:50:00.000Z</time>
      </trkpt>
      <trkpt lat="43.75298" lon="6.8636">
        <ele>1030.140772</ele>
        <time>2024-12-06T09:50:01.000Z</time>
      </trkpt>
      <trkpt lat="43.75299" lon="6.86357">
        <ele>1030.320986</ele>
        <time>2024-12-06T09:50:02.000Z</time>
      </trkpt>
      <trkpt lat="43.75299" lon="6.86354">
        <ele>1030.498089</ele>
        <time>2024-12-06T09:50:03.000Z</time>
      </trkpt>
      <trkpt lat="43.75299" lon="6.86351">
        <ele>1030.692343</ele>
        <time>2024-12-06T09:50:04.000Z</time>
      </trkpt>
      <trkpt lat="43.753" lon="6.86348">
        <ele>1030.878657</ele>
        <time>2024-12-06T09:50:05.000Z</time>
      </trkpt>
      <trkpt lat="43.75301" lon="6.86345">
        <ele>1031.094335</ele>
        <time>2024-12-06T09:50:06.000Z</time>
      </trkpt>
      <trkpt lat="43.75302" lon="6.86341">
        <ele>1031.301925</ele>
        <time>2024-12-06T09:50:07.000Z</time>
      </trkpt>
      <trkpt lat="43.75303" lon="6.86338">
        <ele>1031.520429</ele>
        <time>2024-12-06T09:50:08.000Z</time>
      </trkpt>
      <trkpt lat="43.75304" lon="6.86333">
        <ele>1031.779786</ele>
        <time>2024-12-06T09:50:09.000Z</time>
      </trkpt>
      <trkpt lat="43.75305" lon="6.8633">
        <ele>1031.98552</ele>
        <time>2024-12-06T09:50:10.000Z</time>
      </trkpt>
      <trkpt lat="43.75306" lon="6.86327">
        <ele>1032.206706</ele>
        <time>2024-12-06T09:50:11.000Z</time>
      </trkpt>
      <trkpt lat="43.75309" lon="6.86325">
        <ele>1032.438044</ele>
        <time>2024-12-06T09:50:12.000Z</time>
      </trkpt>
      <trkpt lat="43.75312" lon="6.86324">
        <ele>1032.665951</ele>
        <time>2024-12-06T09:50:13.000Z</time>
      </trkpt>
      <trkpt lat="43.75314" lon="6.86323">
        <ele>1032.898354</ele>
        <time>2024-12-06T09:50:14.000Z</time>
      </trkpt>
      <trkpt lat="43.75317" lon="6.86322">
        <ele>1033.092026</ele>
        <time>2024-12-06T09:50:15.000Z</time>
      </trkpt>
      <trkpt lat="43.75319" lon="6.86322">
        <ele>1033.293034</ele>
        <time>2024-12-06T09:50:16.000Z</time>
      </trkpt>
      <trkpt lat="43.75322" lon="6.86322">
        <ele>1033.477976</ele>
        <time>2024-12-06T09:50:17.000Z</time>
      </trkpt>
      <trkpt lat="43.75324" lon="6.86322">
        <ele>1033.638821</ele>
        <time>2024-12-06T09:50:18.000Z</time>
      </trkpt>
      <trkpt lat="43.75325" lon="6.86323">
        <ele>1033.776555</ele>
        <time>2024-12-06T09:50:19.000Z</time>
      </trkpt>
      <trkpt lat="43.75327" lon="6.86323">
        <ele>1033.919099</ele>
        <time>2024-12-06T09:50:20.000Z</time>
      </trkpt>
      <trkpt lat="43.75329" lon="6.86324">
        <ele>1034.113379</ele>
        <time>2024-12-06T09:50:21.000Z</time>
      </trkpt>
      <trkpt lat="43.75331" lon="6.86324">
        <ele>1034.246605</ele>
        <time>2024-12-06T09:50:22.000Z</time>
      </trkpt>
      <trkpt lat="43.75333" lon="6.86325">
        <ele>1034.39687</ele>
        <time>2024-12-06T09:50:23.000Z</time>
      </trkpt>
      <trkpt lat="43.75335" lon="6.86326">
        <ele>1034.556479</ele>
        <time>2024-12-06T09:50:24.000Z</time>
      </trkpt>
      <trkpt lat="43.75336" lon="6.86327">
        <ele>1034.704929</ele>
        <time>2024-12-06T09:50:25.000Z</time>
      </trkpt>
      <trkpt lat="43.75338" lon="6.86327">
        <ele>1034.858073</ele>
        <time>2024-12-06T09:50:26.000Z</time>
      </trkpt>
      <trkpt lat="43.7534" lon="6.86327">
        <ele>1035.020481</ele>
        <time>2024-12-06T09:50:27.000Z</time>
      </trkpt>
      <trkpt lat="43.75343" lon="6.86328">
        <ele>1035.214233</ele>
        <time>2024-12-06T09:50:28.000Z</time>
      </trkpt>
      <trkpt lat="43.75345" lon="6.86329">
        <ele>1035.429627</ele>
        <time>2024-12-06T09:50:29.000Z</time>
      </trkpt>
      <trkpt lat="43.75347" lon="6.8633">
        <ele>1035.618892</ele>
        <time>2024-12-06T09:50:30.000Z</time>
      </trkpt>
      <trkpt lat="43.7535" lon="6.8633">
        <ele>1035.844227</ele>
        <time>2024-12-06T09:50:31.000Z</time>
      </trkpt>
      <trkpt lat="43.75353" lon="6.86331">
        <ele>1036.079888</ele>
        <time>2024-12-06T09:50:32.000Z</time>
      </trkpt>
      <trkpt lat="43.75356" lon="6.86331">
        <ele>1036.297584</ele>
        <time>2024-12-06T09:50:33.000Z</time>
      </trkpt>
      <trkpt lat="43.75358" lon="6.8633">
        <ele>1036.472634</ele>
        <time>2024-12-06T09:50:34.000Z</time>
      </trkpt>
      <trkpt lat="43.75359" lon="6.86329">
        <ele>1036.595325</ele>
        <time>2024-12-06T09:50:35.000Z</time>
      </trkpt>
      <trkpt lat="43.75359" lon="6.86327">
        <ele>1036.712538</ele>
        <time>2024-12-06T09:50:36.000Z</time>
      </trkpt>
      <trkpt lat="43.75357" lon="6.86325">
        <ele>1036.835</ele>
        <time>2024-12-06T09:50:37.000Z</time>
      </trkpt>
      <trkpt lat="43.75355" lon="6.86323">
        <ele>1037.040383</ele>
        <time>2024-12-06T09:50:38.000Z</time>
      </trkpt>
      <trkpt lat="43.75354" lon="6.86321">
        <ele>1037.205392</ele>
        <time>2024-12-06T09:50:39.000Z</time>
      </trkpt>
      <trkpt lat="43.75353" lon="6.86319">
        <ele>1037.365948</ele>
        <time>2024-12-06T09:50:40.000Z</time>
      </trkpt>
      <trkpt lat="43.75351" lon="6.86317">
        <ele>1037.551323</ele>
        <time>2024-12-06T09:50:41.000Z</time>
      </trkpt>
      <trkpt lat="43.75349" lon="6.86314">
        <ele>1037.763136</ele>
        <time>2024-12-06T09:50:42.000Z</time>
      </trkpt>
      <trkpt lat="43.75348" lon="6.86311">
        <ele>1037.97538</ele>
        <time>2024-12-06T09:50:43.000Z</time>
      </trkpt>
      <trkpt lat="43.75347" lon="6.86308">
        <ele>1038.187192</ele>
        <time>2024-12-06T09:50:44.000Z</time>
      </trkpt>
      <trkpt lat="43.75345" lon="6.86305">
        <ele>1038.361343</ele>
        <time>2024-12-06T09:50:45.000Z</time>
      </trkpt>
      <trkpt lat="43.75344" lon="6.86303">
        <ele>1038.513272</ele>
        <time>2024-12-06T09:50:46.000Z</time>
      </trkpt>
      <trkpt lat="43.75342" lon="6.86302">
        <ele>1038.672246</ele>
        <time>2024-12-06T09:50:47.000Z</time>
      </trkpt>
      <trkpt lat="43.75341" lon="6.863">
        <ele>1038.82809</ele>
        <time>2024-12-06T09:50:48.000Z</time>
      </trkpt>
      <trkpt lat="43.7534" lon="6.86297">
        <ele>1038.995465</ele>
        <time>2024-12-06T09:50:49.000Z</time>
      </trkpt>
      <trkpt lat="43.7534" lon="6.86294">
        <ele>1039.172566</ele>
        <time>2024-12-06T09:50:50.000Z</time>
      </trkpt>
      <trkpt lat="43.75339" lon="6.86291">
        <ele>1039.355586</ele>
        <time>2024-12-06T09:50:51.000Z</time>
      </trkpt>
      <trkpt lat="43.75338" lon="6.86288">
        <ele>1039.571263</ele>
        <time>2024-12-06T09:50:52.000Z</time>
      </trkpt>
      <trkpt lat="43.75337" lon="6.86285">
        <ele>1039.768358</ele>
        <time>2024-12-06T09:50:53.000Z</time>
      </trkpt>
      <trkpt lat="43.75336" lon="6.86282">
        <ele>1039.958512</ele>
        <time>2024-12-06T09:50:54.000Z</time>
      </trkpt>
      <trkpt lat="43.75335" lon="6.86279">
        <ele>1040.120671</ele>
        <time>2024-12-06T09:50:55.000Z</time>
      </trkpt>
      <trkpt lat="43.75334" lon="6.86276">
        <ele>1040.300627</ele>
        <time>2024-12-06T09:50:56.000Z</time>
      </trkpt>
      <trkpt lat="43.75333" lon="6.86274">
        <ele>1040.473255</ele>
        <time>2024-12-06T09:50:57.000Z</time>
      </trkpt>
      <trkpt lat="43.75333" lon="6.86271">
        <ele>1040.653967</ele>
        <time>2024-12-06T09:50:58.000Z</time>
      </trkpt>
      <trkpt lat="43.75332" lon="6.86267">
        <ele>1040.853948</ele>
        <time>2024-12-06T09:50:59.000Z</time>
      </trkpt>
      <trkpt lat="43.75332" lon="6.86264">
        <ele>1041.029072</ele>
        <time>2024-12-06T09:51:00.000Z</time>
      </trkpt>
      <trkpt lat="43.75331" lon="6.86263">
        <ele>1041.156348</ele>
        <time>2024-12-06T09:51:01.000Z</time>
      </trkpt>
      <trkpt lat="43.7533" lon="6.86261">
        <ele>1041.266597</ele>
        <time>2024-12-06T09:51:02.000Z</time>
      </trkpt>
      <trkpt lat="43.75328" lon="6.8626">
        <ele>1041.386122</ele>
        <time>2024-12-06T09:51:03.000Z</time>
      </trkpt>
      <trkpt lat="43.75327" lon="6.86259">
        <ele>1041.505095</ele>
        <time>2024-12-06T09:51:04.000Z</time>
      </trkpt>
      <trkpt lat="43.75327" lon="6.86258">
        <ele>1041.566509</ele>
        <time>2024-12-06T09:51:05.000Z</time>
      </trkpt>
      <trkpt lat="43.75327" lon="6.86258">
        <ele>1041.596252</ele>
        <time>2024-12-06T09:51:14.000Z</time>
      </trkpt>
      <trkpt lat="43.75327" lon="6.86258">
        <ele>1041.596252</ele>
        <time>2024-12-06T09:51:26.000Z</time>
      </trkpt>
      <trkpt lat="43.75327" lon="6.86258">
        <ele>1041.596252</ele>
        <time>2024-12-06T09:51:36.000Z</time>
      </trkpt>
      <trkpt lat="43.75327" lon="6.86256">
        <ele>1041.723969</ele>
        <time>2024-12-06T09:51:40.000Z</time>
      </trkpt>
      <trkpt lat="43.75327" lon="6.86254">
        <ele>1041.828773</ele>
        <time>2024-12-06T09:51:41.000Z</time>
      </trkpt>
      <trkpt lat="43.75324" lon="6.86237">
        <ele>1042.718735</ele>
        <time>2024-12-06T09:51:46.000Z</time>
      </trkpt>
      <trkpt lat="43.75321" lon="6.86226">
        <ele>1043.092376</ele>
        <time>2024-12-06T09:51:48.000Z</time>
      </trkpt>
      <trkpt lat="43.75316" lon="6.86209">
        <ele>1043.720171</ele>
        <time>2024-12-06T09:51:51.000Z</time>
      </trkpt>
      <trkpt lat="43.75314" lon="6.86204">
        <ele>1043.928895</ele>
        <time>2024-12-06T09:51:52.000Z</time>
      </trkpt>
      <trkpt lat="43.75312" lon="6.86199">
        <ele>1044.124861</ele>
        <time>2024-12-06T09:51:53.000Z</time>
      </trkpt>
      <trkpt lat="43.7531" lon="6.86195">
        <ele>1044.314466</ele>
        <time>2024-12-06T09:51:54.000Z</time>
      </trkpt>
      <trkpt lat="43.75308" lon="6.86191">
        <ele>1044.487636</ele>
        <time>2024-12-06T09:51:55.000Z</time>
      </trkpt>
      <trkpt lat="43.75305" lon="6.86187">
        <ele>1044.647216</ele>
        <time>2024-12-06T09:51:56.000Z</time>
      </trkpt>
      <trkpt lat="43.75303" lon="6.86184">
        <ele>1044.798483</ele>
        <time>2024-12-06T09:51:57.000Z</time>
      </trkpt>
      <trkpt lat="43.75301" lon="6.86181">
        <ele>1044.953752</ele>
        <time>2024-12-06T09:51:58.000Z</time>
      </trkpt>
      <trkpt lat="43.75299" lon="6.86178">
        <ele>1045.098399</ele>
        <time>2024-12-06T09:51:59.000Z</time>
      </trkpt>
      <trkpt lat="43.75288" lon="6.86168">
        <ele>1045.721042</ele>
        <time>2024-12-06T09:52:03.000Z</time>
      </trkpt>
      <trkpt lat="43.75264" lon="6.86146">
        <ele>1047.092099</ele>
        <time>2024-12-06T09:52:11.000Z</time>
      </trkpt>
      <trkpt lat="43.75248" lon="6.86133">
        <ele>1047.95821</ele>
        <time>2024-12-06T09:52:16.000Z</time>
      </trkpt>
      <trkpt lat="43.75243" lon="6.86128">
        <ele>1048.279291</ele>
        <time>2024-12-06T09:52:18.000Z</time>
      </trkpt>
      <trkpt lat="43.7524" lon="6.86125">
        <ele>1048.447824</ele>
        <time>2024-12-06T09:52:19.000Z</time>
      </trkpt>
      <trkpt lat="43.75237" lon="6.86122">
        <ele>1048.61817</ele>
        <time>2024-12-06T09:52:20.000Z</time>
      </trkpt>
      <trkpt lat="43.75234" lon="6.86119">
        <ele>1048.777156</ele>
        <time>2024-12-06T09:52:21.000Z</time>
      </trkpt>
      <trkpt lat="43.75232" lon="6.86116">
        <ele>1048.942811</ele>
        <time>2024-12-06T09:52:22.000Z</time>
      </trkpt>
      <trkpt lat="43.75228" lon="6.86108">
        <ele>1049.283006</ele>
        <time>2024-12-06T09:52:24.000Z</time>
      </trkpt>
      <trkpt lat="43.75226" lon="6.86104">
        <ele>1049.4486</ele>
        <time>2024-12-06T09:52:25.000Z</time>
      </trkpt>
      <trkpt lat="43.75224" lon="6.86099">
        <ele>1049.621113</ele>
        <time>2024-12-06T09:52:26.000Z</time>
      </trkpt>
      <trkpt lat="43.75223" lon="6.86085">
        <ele>1050.099788</ele>
        <time>2024-12-06T09:52:29.000Z</time>
      </trkpt>
      <trkpt lat="43.75223" lon="6.86081">
        <ele>1050.264885</ele>
        <time>2024-12-06T09:52:30.000Z</time>
      </trkpt>
      <trkpt lat="43.75223" lon="6.86076">
        <ele>1050.430599</ele>
        <time>2024-12-06T09:52:31.000Z</time>
      </trkpt>
      <trkpt lat="43.75222" lon="6.86071">
        <ele>1050.589104</ele>
        <time>2024-12-06T09:52:32.000Z</time>
      </trkpt>
      <trkpt lat="43.75222" lon="6.86067">
        <ele>1050.737692</ele>
        <time>2024-12-06T09:52:33.000Z</time>
      </trkpt>
      <trkpt lat="43.75222" lon="6.86063">
        <ele>1050.879993</ele>
        <time>2024-12-06T09:52:34.000Z</time>
      </trkpt>
      <trkpt lat="43.75221" lon="6.86058">
        <ele>1051.030627</ele>
        <time>2024-12-06T09:52:35.000Z</time>
      </trkpt>
      <trkpt lat="43.75221" lon="6.86054">
        <ele>1051.350516</ele>
        <time>2024-12-06T09:52:36.000Z</time>
      </trkpt>
      <trkpt lat="43.7522" lon="6.8605">
        <ele>1051.68929</ele>
        <time>2024-12-06T09:52:37.000Z</time>
      </trkpt>
      <trkpt lat="43.7522" lon="6.86046">
        <ele>1052.01257</ele>
        <time>2024-12-06T09:52:38.000Z</time>
      </trkpt>
      <trkpt lat="43.75219" lon="6.86042">
        <ele>1052.324148</ele>
        <time>2024-12-06T09:52:39.000Z</time>
      </trkpt>
      <trkpt lat="43.75219" lon="6.86038">
        <ele>1052.666359</ele>
        <time>2024-12-06T09:52:40.000Z</time>
      </trkpt>
      <trkpt lat="43.75218" lon="6.86033">
        <ele>1053.010342</ele>
        <time>2024-12-06T09:52:41.000Z</time>
      </trkpt>
      <trkpt lat="43.75219" lon="6.86029">
        <ele>1053.347037</ele>
        <time>2024-12-06T09:52:42.000Z</time>
      </trkpt>
      <trkpt lat="43.75219" lon="6.86025">
        <ele>1053.675935</ele>
        <time>2024-12-06T09:52:43.000Z</time>
      </trkpt>
      <trkpt lat="43.75219" lon="6.8602">
        <ele>1054.004298</ele>
        <time>2024-12-06T09:52:44.000Z</time>
      </trkpt>
      <trkpt lat="43.75218" lon="6.86016">
        <ele>1054.318536</ele>
        <time>2024-12-06T09:52:45.000Z</time>
      </trkpt>
      <trkpt lat="43.75218" lon="6.86012">
        <ele>1054.643441</ele>
        <time>2024-12-06T09:52:46.000Z</time>
      </trkpt>
      <trkpt lat="43.75217" lon="6.86008">
        <ele>1054.993327</ele>
        <time>2024-12-06T09:52:47.000Z</time>
      </trkpt>
      <trkpt lat="43.75217" lon="6.86004">
        <ele>1055.347865</ele>
        <time>2024-12-06T09:52:48.000Z</time>
      </trkpt>
      <trkpt lat="43.75216" lon="6.85999">
        <ele>1055.707553</ele>
        <time>2024-12-06T09:52:49.000Z</time>
      </trkpt>
      <trkpt lat="43.75215" lon="6.85995">
        <ele>1056.040165</ele>
        <time>2024-12-06T09:52:50.000Z</time>
      </trkpt>
      <trkpt lat="43.75215" lon="6.85991">
        <ele>1056.376973</ele>
        <time>2024-12-06T09:52:51.000Z</time>
      </trkpt>
      <trkpt lat="43.75214" lon="6.85986">
        <ele>1056.734541</ele>
        <time>2024-12-06T09:52:52.000Z</time>
      </trkpt>
      <trkpt lat="43.75213" lon="6.85982">
        <ele>1057.099795</ele>
        <time>2024-12-06T09:52:53.000Z</time>
      </trkpt>
      <trkpt lat="43.75213" lon="6.85977">
        <ele>1057.454075</ele>
        <time>2024-12-06T09:52:54.000Z</time>
      </trkpt>
      <trkpt lat="43.75213" lon="6.85973">
        <ele>1057.798568</ele>
        <time>2024-12-06T09:52:55.000Z</time>
      </trkpt>
      <trkpt lat="43.75212" lon="6.85968">
        <ele>1058.160605</ele>
        <time>2024-12-06T09:52:56.000Z</time>
      </trkpt>
      <trkpt lat="43.75212" lon="6.85963">
        <ele>1058.531822</ele>
        <time>2024-12-06T09:52:57.000Z</time>
      </trkpt>
      <trkpt lat="43.75212" lon="6.85959">
        <ele>1058.886102</ele>
        <time>2024-12-06T09:52:58.000Z</time>
      </trkpt>
      <trkpt lat="43.75211" lon="6.85955">
        <ele>1059.208113</ele>
        <time>2024-12-06T09:52:59.000Z</time>
      </trkpt>
      <trkpt lat="43.75211" lon="6.85951">
        <ele>1059.530124</ele>
        <time>2024-12-06T09:53:00.000Z</time>
      </trkpt>
      <trkpt lat="43.7521" lon="6.85947">
        <ele>1059.83194</ele>
        <time>2024-12-06T09:53:01.000Z</time>
      </trkpt>
      <trkpt lat="43.7521" lon="6.85944">
        <ele>1060.085702</ele>
        <time>2024-12-06T09:53:02.000Z</time>
      </trkpt>
      <trkpt lat="43.7521" lon="6.85941">
        <ele>1060.328176</ele>
        <time>2024-12-06T09:53:03.000Z</time>
      </trkpt>
      <trkpt lat="43.7521" lon="6.85938">
        <ele>1060.554781</ele>
        <time>2024-12-06T09:53:04.000Z</time>
      </trkpt>
      <trkpt lat="43.7521" lon="6.85934">
        <ele>1060.804827</ele>
        <time>2024-12-06T09:53:05.000Z</time>
      </trkpt>
      <trkpt lat="43.7521" lon="6.85931">
        <ele>1061.063593</ele>
        <time>2024-12-06T09:53:06.000Z</time>
      </trkpt>
      <trkpt lat="43.7521" lon="6.85928">
        <ele>1061.298261</ele>
        <time>2024-12-06T09:53:07.000Z</time>
      </trkpt>
      <trkpt lat="43.75211" lon="6.85925">
        <ele>1061.542658</ele>
        <time>2024-12-06T09:53:08.000Z</time>
      </trkpt>
      <trkpt lat="43.75211" lon="6.85922">
        <ele>1061.793435</ele>
        <time>2024-12-06T09:53:09.000Z</time>
      </trkpt>
      <trkpt lat="43.75212" lon="6.85919">
        <ele>1062.024133</ele>
        <time>2024-12-06T09:53:10.000Z</time>
      </trkpt>
      <trkpt lat="43.75212" lon="6.85916">
        <ele>1062.245317</ele>
        <time>2024-12-06T09:53:11.000Z</time>
      </trkpt>
      <trkpt lat="43.75212" lon="6.85913">
        <ele>1062.476016</ele>
        <time>2024-12-06T09:53:12.000Z</time>
      </trkpt>
      <trkpt lat="43.75213" lon="6.8591">
        <ele>1062.76287</ele>
        <time>2024-12-06T09:53:13.000Z</time>
      </trkpt>
      <trkpt lat="43.75214" lon="6.85906">
        <ele>1063.041655</ele>
        <time>2024-12-06T09:53:14.000Z</time>
      </trkpt>
      <trkpt lat="43.75214" lon="6.85903">
        <ele>1063.323787</ele>
        <time>2024-12-06T09:53:15.000Z</time>
      </trkpt>
      <trkpt lat="43.75214" lon="6.85899">
        <ele>1063.636532</ele>
        <time>2024-12-06T09:53:16.000Z</time>
      </trkpt>
      <trkpt lat="43.75214" lon="6.85895">
        <ele>1063.918665</ele>
        <time>2024-12-06T09:53:17.000Z</time>
      </trkpt>
      <trkpt lat="43.75214" lon="6.85891">
        <ele>1064.2236</ele>
        <time>2024-12-06T09:53:18.000Z</time>
      </trkpt>
      <trkpt lat="43.75214" lon="6.85887">
        <ele>1064.521317</ele>
        <time>2024-12-06T09:53:19.000Z</time>
      </trkpt>
      <trkpt lat="43.75215" lon="6.85883">
        <ele>1064.850215</ele>
        <time>2024-12-06T09:53:20.000Z</time>
      </trkpt>
      <trkpt lat="43.75215" lon="6.85879">
        <ele>1065.178579</ele>
        <time>2024-12-06T09:53:21.000Z</time>
      </trkpt>
      <trkpt lat="43.75215" lon="6.85875">
        <ele>1065.499133</ele>
        <time>2024-12-06T09:53:22.000Z</time>
      </trkpt>
      <trkpt lat="43.75215" lon="6.85871">
        <ele>1065.819504</ele>
        <time>2024-12-06T09:53:23.000Z</time>
      </trkpt>
      <trkpt lat="43.75215" lon="6.85867">
        <ele>1066.139876</ele>
        <time>2024-12-06T09:53:24.000Z</time>
      </trkpt>
      <trkpt lat="43.75215" lon="6.85863">
        <ele>1066.453181</ele>
        <time>2024-12-06T09:53:25.000Z</time>
      </trkpt>
      <trkpt lat="43.75214" lon="6.85859">
        <ele>1066.751879</ele>
        <time>2024-12-06T09:53:26.000Z</time>
      </trkpt>
      <trkpt lat="43.75214" lon="6.85855">
        <ele>1067.050577</ele>
        <time>2024-12-06T09:53:27.000Z</time>
      </trkpt>
      <trkpt lat="43.75213" lon="6.85852">
        <ele>1067.33927</ele>
        <time>2024-12-06T09:53:28.000Z</time>
      </trkpt>
      <trkpt lat="43.75212" lon="6.85848">
        <ele>1067.626123</ele>
        <time>2024-12-06T09:53:29.000Z</time>
      </trkpt>
      <trkpt lat="43.75211" lon="6.85845">
        <ele>1067.940618</ele>
        <time>2024-12-06T09:53:30.000Z</time>
      </trkpt>
      <trkpt lat="43.7521" lon="6.85841">
        <ele>1068.280919</ele>
        <time>2024-12-06T09:53:31.000Z</time>
      </trkpt>
      <trkpt lat="43.75208" lon="6.85837">
        <ele>1068.609467</ele>
        <time>2024-12-06T09:53:32.000Z</time>
      </trkpt>
      <trkpt lat="43.75207" lon="6.85833">
        <ele>1068.941005</ele>
        <time>2024-12-06T09:53:33.000Z</time>
      </trkpt>
      <trkpt lat="43.75205" lon="6.85829">
        <ele>1069.286256</ele>
        <time>2024-12-06T09:53:34.000Z</time>
      </trkpt>
      <trkpt lat="43.75204" lon="6.85825">
        <ele>1069.631507</ele>
        <time>2024-12-06T09:53:35.000Z</time>
      </trkpt>
      <trkpt lat="43.75203" lon="6.85822">
        <ele>1069.939033</ele>
        <time>2024-12-06T09:53:36.000Z</time>
      </trkpt>
      <trkpt lat="43.75201" lon="6.85818">
        <ele>1070.24656</ele>
        <time>2024-12-06T09:53:37.000Z</time>
      </trkpt>
      <trkpt lat="43.752" lon="6.85815">
        <ele>1070.543461</ele>
        <time>2024-12-06T09:53:38.000Z</time>
      </trkpt>
      <trkpt lat="43.75199" lon="6.85811">
        <ele>1070.738926</ele>
        <time>2024-12-06T09:53:39.000Z</time>
      </trkpt>
      <trkpt lat="43.75198" lon="6.85807">
        <ele>1070.923792</ele>
        <time>2024-12-06T09:53:40.000Z</time>
      </trkpt>
      <trkpt lat="43.75197" lon="6.85804">
        <ele>1071.09692</ele>
        <time>2024-12-06T09:53:41.000Z</time>
      </trkpt>
      <trkpt lat="43.75196" lon="6.85801">
        <ele>1071.251115</ele>
        <time>2024-12-06T09:53:42.000Z</time>
      </trkpt>
      <trkpt lat="43.75195" lon="6.85799">
        <ele>1071.384694</ele>
        <time>2024-12-06T09:53:43.000Z</time>
      </trkpt>
      <trkpt lat="43.75194" lon="6.85797">
        <ele>1071.508209</ele>
        <time>2024-12-06T09:53:44.000Z</time>
      </trkpt>
      <trkpt lat="43.75193" lon="6.85794">
        <ele>1071.635194</ele>
        <time>2024-12-06T09:53:45.000Z</time>
      </trkpt>
      <trkpt lat="43.75192" lon="6.85793">
        <ele>1071.750039</ele>
        <time>2024-12-06T09:53:46.000Z</time>
      </trkpt>
      <trkpt lat="43.75191" lon="6.85791">
        <ele>1071.856172</ele>
        <time>2024-12-06T09:53:47.000Z</time>
      </trkpt>
      <trkpt lat="43.7519" lon="6.85789">
        <ele>1072.01065</ele>
        <time>2024-12-06T09:53:48.000Z</time>
      </trkpt>
      <trkpt lat="43.75189" lon="6.85786">
        <ele>1072.169346</ele>
        <time>2024-12-06T09:53:49.000Z</time>
      </trkpt>
      <trkpt lat="43.75188" lon="6.85783">
        <ele>1072.312025</ele>
        <time>2024-12-06T09:53:50.000Z</time>
      </trkpt>
      <trkpt lat="43.75187" lon="6.8578">
        <ele>1072.441153</ele>
        <time>2024-12-06T09:53:51.000Z</time>
      </trkpt>
      <trkpt lat="43.75186" lon="6.85778">
        <ele>1072.572299</ele>
        <time>2024-12-06T09:53:52.000Z</time>
      </trkpt>
      <trkpt lat="43.75185" lon="6.85776">
        <ele>1072.715305</ele>
        <time>2024-12-06T09:53:53.000Z</time>
      </trkpt>
      <trkpt lat="43.75184" lon="6.85773">
        <ele>1072.865791</ele>
        <time>2024-12-06T09:53:54.000Z</time>
      </trkpt>
      <trkpt lat="43.75183" lon="6.85771">
        <ele>1072.989306</ele>
        <time>2024-12-06T09:53:55.000Z</time>
      </trkpt>
      <trkpt lat="43.75182" lon="6.85769">
        <ele>1073.104421</ele>
        <time>2024-12-06T09:53:56.000Z</time>
      </trkpt>
      <trkpt lat="43.75181" lon="6.85766">
        <ele>1073.243278</ele>
        <time>2024-12-06T09:53:57.000Z</time>
      </trkpt>
      <trkpt lat="43.7518" lon="6.85764">
        <ele>1073.397756</ele>
        <time>2024-12-06T09:53:58.000Z</time>
      </trkpt>
      <trkpt lat="43.75178" lon="6.85761">
        <ele>1073.55618</ele>
        <time>2024-12-06T09:53:59.000Z</time>
      </trkpt>
      <trkpt lat="43.75177" lon="6.85758">
        <ele>1073.734424</ele>
        <time>2024-12-06T09:54:00.000Z</time>
      </trkpt>
      <trkpt lat="43.75175" lon="6.85755">
        <ele>1073.924566</ele>
        <time>2024-12-06T09:54:01.000Z</time>
      </trkpt>
      <trkpt lat="43.75173" lon="6.85752">
        <ele>1074.118622</ele>
        <time>2024-12-06T09:54:02.000Z</time>
      </trkpt>
      <trkpt lat="43.75172" lon="6.85748">
        <ele>1074.324667</ele>
        <time>2024-12-06T09:54:03.000Z</time>
      </trkpt>
      <trkpt lat="43.7517" lon="6.85745">
        <ele>1074.542594</ele>
        <time>2024-12-06T09:54:04.000Z</time>
      </trkpt>
      <trkpt lat="43.75168" lon="6.85741">
        <ele>1074.76837</ele>
        <time>2024-12-06T09:54:05.000Z</time>
      </trkpt>
      <trkpt lat="43.75166" lon="6.85737">
        <ele>1074.986183</ele>
        <time>2024-12-06T09:54:06.000Z</time>
      </trkpt>
      <trkpt lat="43.75164" lon="6.85734">
        <ele>1075.200075</ele>
        <time>2024-12-06T09:54:07.000Z</time>
      </trkpt>
      <trkpt lat="43.75163" lon="6.8573">
        <ele>1075.410746</ele>
        <time>2024-12-06T09:54:08.000Z</time>
      </trkpt>
      <trkpt lat="43.75161" lon="6.85726">
        <ele>1075.633275</ele>
        <time>2024-12-06T09:54:09.000Z</time>
      </trkpt>
      <trkpt lat="43.75159" lon="6.85722">
        <ele>1075.851636</ele>
        <time>2024-12-06T09:54:10.000Z</time>
      </trkpt>
      <trkpt lat="43.75158" lon="6.85719">
        <ele>1076.066513</ele>
        <time>2024-12-06T09:54:11.000Z</time>
      </trkpt>
      <trkpt lat="43.75156" lon="6.85715">
        <ele>1076.308085</ele>
        <time>2024-12-06T09:54:12.000Z</time>
      </trkpt>
      <trkpt lat="43.75153" lon="6.8571">
        <ele>1076.565893</ele>
        <time>2024-12-06T09:54:13.000Z</time>
      </trkpt>
      <trkpt lat="43.75151" lon="6.85706">
        <ele>1076.823701</ele>
        <time>2024-12-06T09:54:14.000Z</time>
      </trkpt>
      <trkpt lat="43.75148" lon="6.85702">
        <ele>1077.102914</ele>
        <time>2024-12-06T09:54:15.000Z</time>
      </trkpt>
      <trkpt lat="43.75145" lon="6.85698">
        <ele>1077.390309</ele>
        <time>2024-12-06T09:54:16.000Z</time>
      </trkpt>
      <trkpt lat="43.75143" lon="6.85694">
        <ele>1077.664259</ele>
        <time>2024-12-06T09:54:17.000Z</time>
      </trkpt>
      <trkpt lat="43.7514" lon="6.8569">
        <ele>1077.937696</ele>
        <time>2024-12-06T09:54:18.000Z</time>
      </trkpt>
      <trkpt lat="43.75137" lon="6.85686">
        <ele>1078.204417</ele>
        <time>2024-12-06T09:54:19.000Z</time>
      </trkpt>
      <trkpt lat="43.75134" lon="6.85683">
        <ele>1078.460551</ele>
        <time>2024-12-06T09:54:20.000Z</time>
      </trkpt>
      <trkpt lat="43.75131" lon="6.8568">
        <ele>1078.702552</ele>
        <time>2024-12-06T09:54:21.000Z</time>
      </trkpt>
      <trkpt lat="43.75128" lon="6.85678">
        <ele>1078.942766</ele>
        <time>2024-12-06T09:54:22.000Z</time>
      </trkpt>
      <trkpt lat="43.75124" lon="6.85676">
        <ele>1079.203332</ele>
        <time>2024-12-06T09:54:23.000Z</time>
      </trkpt>
      <trkpt lat="43.75121" lon="6.85674">
        <ele>1079.449518</ele>
        <time>2024-12-06T09:54:24.000Z</time>
      </trkpt>
      <trkpt lat="43.75117" lon="6.85672">
        <ele>1079.703342</ele>
        <time>2024-12-06T09:54:25.000Z</time>
      </trkpt>
      <trkpt lat="43.75114" lon="6.85669">
        <ele>1079.976733</ele>
        <time>2024-12-06T09:54:26.000Z</time>
      </trkpt>
      <trkpt lat="43.75111" lon="6.85666">
        <ele>1080.246599</ele>
        <time>2024-12-06T09:54:27.000Z</time>
      </trkpt>
      <trkpt lat="43.75108" lon="6.85662">
        <ele>1080.493447</ele>
        <time>2024-12-06T09:54:28.000Z</time>
      </trkpt>
      <trkpt lat="43.75105" lon="6.85659">
        <ele>1080.743609</ele>
        <time>2024-12-06T09:54:29.000Z</time>
      </trkpt>
      <trkpt lat="43.75103" lon="6.85655">
        <ele>1080.991118</ele>
        <time>2024-12-06T09:54:30.000Z</time>
      </trkpt>
      <trkpt lat="43.75101" lon="6.85651">
        <ele>1081.217176</ele>
        <time>2024-12-06T09:54:31.000Z</time>
      </trkpt>
      <trkpt lat="43.75098" lon="6.85648">
        <ele>1081.454815</ele>
        <time>2024-12-06T09:54:32.000Z</time>
      </trkpt>
      <trkpt lat="43.75096" lon="6.85643">
        <ele>1081.704358</ele>
        <time>2024-12-06T09:54:33.000Z</time>
      </trkpt>
      <trkpt lat="43.75095" lon="6.85639">
        <ele>1081.932019</ele>
        <time>2024-12-06T09:54:34.000Z</time>
      </trkpt>
      <trkpt lat="43.75093" lon="6.85635">
        <ele>1082.159745</ele>
        <time>2024-12-06T09:54:35.000Z</time>
      </trkpt>
      <trkpt lat="43.75092" lon="6.8563">
        <ele>1082.39911</ele>
        <time>2024-12-06T09:54:36.000Z</time>
      </trkpt>
      <trkpt lat="43.75092" lon="6.85626">
        <ele>1082.628769</ele>
        <time>2024-12-06T09:54:37.000Z</time>
      </trkpt>
      <trkpt lat="43.75091" lon="6.85621">
        <ele>1082.997319</ele>
        <time>2024-12-06T09:54:38.000Z</time>
      </trkpt>
      <trkpt lat="43.75091" lon="6.85616">
        <ele>1083.386369</ele>
        <time>2024-12-06T09:54:39.000Z</time>
      </trkpt>
      <trkpt lat="43.7509" lon="6.85612">
        <ele>1083.748865</ele>
        <time>2024-12-06T09:54:40.000Z</time>
      </trkpt>
      <trkpt lat="43.75089" lon="6.85608">
        <ele>1084.105202</ele>
        <time>2024-12-06T09:54:41.000Z</time>
      </trkpt>
      <trkpt lat="43.75089" lon="6.85603">
        <ele>1084.499001</ele>
        <time>2024-12-06T09:54:42.000Z</time>
      </trkpt>
      <trkpt lat="43.75088" lon="6.85599">
        <ele>1084.898411</ele>
        <time>2024-12-06T09:54:43.000Z</time>
      </trkpt>
      <trkpt lat="43.75087" lon="6.85594">
        <ele>1085.308411</ele>
        <time>2024-12-06T09:54:44.000Z</time>
      </trkpt>
      <trkpt lat="43.75086" lon="6.85589">
        <ele>1085.718412</ele>
        <time>2024-12-06T09:54:45.000Z</time>
      </trkpt>
      <trkpt lat="43.75085" lon="6.85584">
        <ele>1086.141166</ele>
        <time>2024-12-06T09:54:46.000Z</time>
      </trkpt>
      <trkpt lat="43.75084" lon="6.85579">
        <ele>1086.560294</ele>
        <time>2024-12-06T09:54:47.000Z</time>
      </trkpt>
      <trkpt lat="43.75084" lon="6.85574">
        <ele>1086.976444</ele>
        <time>2024-12-06T09:54:48.000Z</time>
      </trkpt>
      <trkpt lat="43.75084" lon="6.85569">
        <ele>1087.409854</ele>
        <time>2024-12-06T09:54:49.000Z</time>
      </trkpt>
      <trkpt lat="43.75085" lon="6.85564">
        <ele>1087.831708</ele>
        <time>2024-12-06T09:54:50.000Z</time>
      </trkpt>
      <trkpt lat="43.75086" lon="6.85559">
        <ele>1088.255603</ele>
        <time>2024-12-06T09:54:51.000Z</time>
      </trkpt>
      <trkpt lat="43.75086" lon="6.85554">
        <ele>1088.681482</ele>
        <time>2024-12-06T09:54:52.000Z</time>
      </trkpt>
      <trkpt lat="43.75086" lon="6.85549">
        <ele>1089.106581</ele>
        <time>2024-12-06T09:54:53.000Z</time>
      </trkpt>
      <trkpt lat="43.75086" lon="6.85544">
        <ele>1089.524165</ele>
        <time>2024-12-06T09:54:54.000Z</time>
      </trkpt>
      <trkpt lat="43.75085" lon="6.85539">
        <ele>1089.927802</ele>
        <time>2024-12-06T09:54:55.000Z</time>
      </trkpt>
      <trkpt lat="43.75085" lon="6.85535">
        <ele>1090.296903</ele>
        <time>2024-12-06T09:54:56.000Z</time>
      </trkpt>
      <trkpt lat="43.75084" lon="6.85531">
        <ele>1090.657074</ele>
        <time>2024-12-06T09:54:57.000Z</time>
      </trkpt>
      <trkpt lat="43.75083" lon="6.85527">
        <ele>1090.997799</ele>
        <time>2024-12-06T09:54:58.000Z</time>
      </trkpt>
      <trkpt lat="43.75081" lon="6.85523">
        <ele>1091.332782</ele>
        <time>2024-12-06T09:54:59.000Z</time>
      </trkpt>
      <trkpt lat="43.7508" lon="6.8552">
        <ele>1091.650281</ele>
        <time>2024-12-06T09:55:00.000Z</time>
      </trkpt>
      <trkpt lat="43.75079" lon="6.85517">
        <ele>1091.920187</ele>
        <time>2024-12-06T09:55:01.000Z</time>
      </trkpt>
      <trkpt lat="43.75077" lon="6.85515">
        <ele>1092.197133</ele>
        <time>2024-12-06T09:55:02.000Z</time>
      </trkpt>
      <trkpt lat="43.75075" lon="6.85512">
        <ele>1092.500851</ele>
        <time>2024-12-06T09:55:03.000Z</time>
      </trkpt>
      <trkpt lat="43.75074" lon="6.85509">
        <ele>1092.792733</ele>
        <time>2024-12-06T09:55:04.000Z</time>
      </trkpt>
      <trkpt lat="43.75072" lon="6.85507">
        <ele>1093.082872</ele>
        <time>2024-12-06T09:55:05.000Z</time>
      </trkpt>
      <trkpt lat="43.75071" lon="6.85504">
        <ele>1093.387301</ele>
        <time>2024-12-06T09:55:06.000Z</time>
      </trkpt>
      <trkpt lat="43.7507" lon="6.855">
        <ele>1093.708321</ele>
        <time>2024-12-06T09:55:07.000Z</time>
      </trkpt>
      <trkpt lat="43.75068" lon="6.85497">
        <ele>1094.033654</ele>
        <time>2024-12-06T09:55:08.000Z</time>
      </trkpt>
      <trkpt lat="43.75068" lon="6.85493">
        <ele>1094.330602</ele>
        <time>2024-12-06T09:55:09.000Z</time>
      </trkpt>
      <trkpt lat="43.75067" lon="6.85489">
        <ele>1094.648942</ele>
        <time>2024-12-06T09:55:10.000Z</time>
      </trkpt>
      <trkpt lat="43.75067" lon="6.85486">
        <ele>1094.962237</ele>
        <time>2024-12-06T09:55:11.000Z</time>
      </trkpt>
      <trkpt lat="43.75066" lon="6.85482">
        <ele>1095.273619</ele>
        <time>2024-12-06T09:55:12.000Z</time>
      </trkpt>
      <trkpt lat="43.75066" lon="6.85478">
        <ele>1095.582432</ele>
        <time>2024-12-06T09:55:13.000Z</time>
      </trkpt>
      <trkpt lat="43.75066" lon="6.85475">
        <ele>1095.889934</ele>
        <time>2024-12-06T09:55:14.000Z</time>
      </trkpt>
      <trkpt lat="43.75064" lon="6.85471">
        <ele>1096.222948</ele>
        <time>2024-12-06T09:55:15.000Z</time>
      </trkpt>
      <trkpt lat="43.75063" lon="6.85467">
        <ele>1096.560516</ele>
        <time>2024-12-06T09:55:16.000Z</time>
      </trkpt>
      <trkpt lat="43.75062" lon="6.85464">
        <ele>1096.88297</ele>
        <time>2024-12-06T09:55:17.000Z</time>
      </trkpt>
      <trkpt lat="43.75061" lon="6.8546">
        <ele>1097.208701</ele>
        <time>2024-12-06T09:55:18.000Z</time>
      </trkpt>
      <trkpt lat="43.75059" lon="6.85457">
        <ele>1097.548993</ele>
        <time>2024-12-06T09:55:19.000Z</time>
      </trkpt>
      <trkpt lat="43.75058" lon="6.85454">
        <ele>1097.847335</ele>
        <time>2024-12-06T09:55:20.000Z</time>
      </trkpt>
      <trkpt lat="43.75057" lon="6.85451">
        <ele>1098.11831</ele>
        <time>2024-12-06T09:55:21.000Z</time>
      </trkpt>
      <trkpt lat="43.75056" lon="6.85448">
        <ele>1098.403727</ele>
        <time>2024-12-06T09:55:22.000Z</time>
      </trkpt>
      <trkpt lat="43.75054" lon="6.85445">
        <ele>1098.703815</ele>
        <time>2024-12-06T09:55:23.000Z</time>
      </trkpt>
      <trkpt lat="43.75053" lon="6.85441">
        <ele>1098.998772</ele>
        <time>2024-12-06T09:55:24.000Z</time>
      </trkpt>
      <trkpt lat="43.75052" lon="6.85438">
        <ele>1099.301266</ele>
        <time>2024-12-06T09:55:25.000Z</time>
      </trkpt>
      <trkpt lat="43.75051" lon="6.85435">
        <ele>1099.611337</ele>
        <time>2024-12-06T09:55:26.000Z</time>
      </trkpt>
      <trkpt lat="43.7505" lon="6.85431">
        <ele>1099.918836</ele>
        <time>2024-12-06T09:55:27.000Z</time>
      </trkpt>
      <trkpt lat="43.75049" lon="6.85428">
        <ele>1100.218925</ele>
        <time>2024-12-06T09:55:28.000Z</time>
      </trkpt>
      <trkpt lat="43.75047" lon="6.85425">
        <ele>1100.531775</ele>
        <time>2024-12-06T09:55:29.000Z</time>
      </trkpt>
      <trkpt lat="43.75046" lon="6.85421">
        <ele>1100.859335</ele>
        <time>2024-12-06T09:55:30.000Z</time>
      </trkpt>
      <trkpt lat="43.75045" lon="6.85418">
        <ele>1101.166835</ele>
        <time>2024-12-06T09:55:31.000Z</time>
      </trkpt>
      <trkpt lat="43.75044" lon="6.85415">
        <ele>1101.474335</ele>
        <time>2024-12-06T09:55:32.000Z</time>
      </trkpt>
      <trkpt lat="43.75042" lon="6.85411">
        <ele>1101.79679</ele>
        <time>2024-12-06T09:55:33.000Z</time>
      </trkpt>
      <trkpt lat="43.75041" lon="6.85408">
        <ele>1102.146743</ele>
        <time>2024-12-06T09:55:34.000Z</time>
      </trkpt>
      <trkpt lat="43.7504" lon="6.85404">
        <ele>1102.446832</ele>
        <time>2024-12-06T09:55:35.000Z</time>
      </trkpt>
      <trkpt lat="43.75039" lon="6.85401">
        <ele>1102.767014</ele>
        <time>2024-12-06T09:55:36.000Z</time>
      </trkpt>
      <trkpt lat="43.75037" lon="6.85397">
        <ele>1103.08947</ele>
        <time>2024-12-06T09:55:37.000Z</time>
      </trkpt>
      <trkpt lat="43.75036" lon="6.85394">
        <ele>1103.391964</ele>
        <time>2024-12-06T09:55:38.000Z</time>
      </trkpt>
      <trkpt lat="43.75035" lon="6.85391">
        <ele>1103.444765</ele>
        <time>2024-12-06T09:55:39.000Z</time>
      </trkpt>
      <trkpt lat="43.75034" lon="6.85388">
        <ele>1103.498019</ele>
        <time>2024-12-06T09:55:40.000Z</time>
      </trkpt>
      <trkpt lat="43.75033" lon="6.85384">
        <ele>1103.555107</ele>
        <time>2024-12-06T09:55:41.000Z</time>
      </trkpt>
      <trkpt lat="43.75031" lon="6.85381">
        <ele>1103.609997</ele>
        <time>2024-12-06T09:55:42.000Z</time>
      </trkpt>
      <trkpt lat="43.7503" lon="6.85377">
        <ele>1103.664888</ele>
        <time>2024-12-06T09:55:43.000Z</time>
      </trkpt>
      <trkpt lat="43.75029" lon="6.85374">
        <ele>1103.718138</ele>
        <time>2024-12-06T09:55:44.000Z</time>
      </trkpt>
      <trkpt lat="43.75028" lon="6.85371">
        <ele>1103.771729</ele>
        <time>2024-12-06T09:55:45.000Z</time>
      </trkpt>
      <trkpt lat="43.75027" lon="6.85368">
        <ele>1103.823134</ele>
        <time>2024-12-06T09:55:46.000Z</time>
      </trkpt>
      <trkpt lat="43.75026" lon="6.85364">
        <ele>1103.876725</ele>
        <time>2024-12-06T09:55:47.000Z</time>
      </trkpt>
      <trkpt lat="43.75025" lon="6.85361">
        <ele>1103.934763</ele>
        <time>2024-12-06T09:55:48.000Z</time>
      </trkpt>
      <trkpt lat="43.75024" lon="6.85357">
        <ele>1103.991463</ele>
        <time>2024-12-06T09:55:49.000Z</time>
      </trkpt>
      <trkpt lat="43.75023" lon="6.85353">
        <ele>1104.046721</ele>
        <time>2024-12-06T09:55:50.000Z</time>
      </trkpt>
      <trkpt lat="43.75022" lon="6.8535">
        <ele>1104.104136</ele>
        <time>2024-12-06T09:55:51.000Z</time>
      </trkpt>
      <trkpt lat="43.75021" lon="6.85346">
        <ele>1104.162144</ele>
        <time>2024-12-06T09:55:52.000Z</time>
      </trkpt>
      <trkpt lat="43.7502" lon="6.85342">
        <ele>1104.217402</ele>
        <time>2024-12-06T09:55:53.000Z</time>
      </trkpt>
      <trkpt lat="43.75019" lon="6.85338">
        <ele>1104.275243</ele>
        <time>2024-12-06T09:55:54.000Z</time>
      </trkpt>
      <trkpt lat="43.75019" lon="6.85335">
        <ele>1104.325211</ele>
        <time>2024-12-06T09:55:55.000Z</time>
      </trkpt>
      <trkpt lat="43.75019" lon="6.8533">
        <ele>1104.392688</ele>
        <time>2024-12-06T09:55:56.000Z</time>
      </trkpt>
      <trkpt lat="43.75018" lon="6.85326">
        <ele>1104.449401</ele>
        <time>2024-12-06T09:55:57.000Z</time>
      </trkpt>
      <trkpt lat="43.75018" lon="6.85322">
        <ele>1104.506857</ele>
        <time>2024-12-06T09:55:58.000Z</time>
      </trkpt>
      <trkpt lat="43.75017" lon="6.85318">
        <ele>1104.566117</ele>
        <time>2024-12-06T09:55:59.000Z</time>
      </trkpt>
      <trkpt lat="43.75017" lon="6.85314">
        <ele>1104.624692</ele>
        <time>2024-12-06T09:56:00.000Z</time>
      </trkpt>
      <trkpt lat="43.75017" lon="6.8531">
        <ele>1104.685912</ele>
        <time>2024-12-06T09:56:01.000Z</time>
      </trkpt>
      <trkpt lat="43.75016" lon="6.85306">
        <ele>1104.75024</ele>
        <time>2024-12-06T09:56:02.000Z</time>
      </trkpt>
      <trkpt lat="43.75016" lon="6.85301">
        <ele>1104.817086</ele>
        <time>2024-12-06T09:56:03.000Z</time>
      </trkpt>
      <trkpt lat="43.75016" lon="6.85297">
        <ele>1104.88538</ele>
        <time>2024-12-06T09:56:04.000Z</time>
      </trkpt>
      <trkpt lat="43.75016" lon="6.85292">
        <ele>1104.955122</ele>
        <time>2024-12-06T09:56:05.000Z</time>
      </trkpt>
      <trkpt lat="43.75015" lon="6.85287">
        <ele>1105.023564</ele>
        <time>2024-12-06T09:56:06.000Z</time>
      </trkpt>
      <trkpt lat="43.75015" lon="6.85282">
        <ele>1105.093451</ele>
        <time>2024-12-06T09:56:07.000Z</time>
      </trkpt>
      <trkpt lat="43.75015" lon="6.85277">
        <ele>1105.166228</ele>
        <time>2024-12-06T09:56:08.000Z</time>
      </trkpt>
      <trkpt lat="43.75014" lon="6.85272">
        <ele>1105.240884</ele>
        <time>2024-12-06T09:56:09.000Z</time>
      </trkpt>
      <trkpt lat="43.75014" lon="6.85267">
        <ele>1105.310627</ele>
        <time>2024-12-06T09:56:10.000Z</time>
      </trkpt>
      <trkpt lat="43.75014" lon="6.85262">
        <ele>1105.381958</ele>
        <time>2024-12-06T09:56:11.000Z</time>
      </trkpt>
      <trkpt lat="43.75013" lon="6.85258">
        <ele>1105.453488</ele>
        <time>2024-12-06T09:56:12.000Z</time>
      </trkpt>
      <trkpt lat="43.75012" lon="6.85252">
        <ele>1105.532463</ele>
        <time>2024-12-06T09:56:13.000Z</time>
      </trkpt>
      <trkpt lat="43.75011" lon="6.85247">
        <ele>1105.611059</ele>
        <time>2024-12-06T09:56:14.000Z</time>
      </trkpt>
      <trkpt lat="43.7501" lon="6.85242">
        <ele>1105.686922</ele>
        <time>2024-12-06T09:56:15.000Z</time>
      </trkpt>
      <trkpt lat="43.75008" lon="6.85238">
        <ele>1105.759302</ele>
        <time>2024-12-06T09:56:16.000Z</time>
      </trkpt>
      <trkpt lat="43.75006" lon="6.85234">
        <ele>1105.830406</ele>
        <time>2024-12-06T09:56:17.000Z</time>
      </trkpt>
      <trkpt lat="43.74997" lon="6.85198">
        <ele>1106.375474</ele>
        <time>2024-12-06T09:56:24.000Z</time>
      </trkpt>
      <trkpt lat="43.74992" lon="6.8518">
        <ele>1106.658644</ele>
        <time>2024-12-06T09:56:27.000Z</time>
      </trkpt>
      <trkpt lat="43.7499" lon="6.85174">
        <ele>1106.751486</ele>
        <time>2024-12-06T09:56:28.000Z</time>
      </trkpt>
      <trkpt lat="43.74989" lon="6.85169">
        <ele>1106.828683</ele>
        <time>2024-12-06T09:56:29.000Z</time>
      </trkpt>
      <trkpt lat="43.74985" lon="6.85156">
        <ele>1107.024817</ele>
        <time>2024-12-06T09:56:31.000Z</time>
      </trkpt>
      <trkpt lat="43.74977" lon="6.85128">
        <ele>1107.298582</ele>
        <time>2024-12-06T09:56:36.000Z</time>
      </trkpt>
      <trkpt lat="43.74976" lon="6.85123">
        <ele>1107.349924</ele>
        <time>2024-12-06T09:56:37.000Z</time>
      </trkpt>
      <trkpt lat="43.74975" lon="6.85117">
        <ele>1107.402712</ele>
        <time>2024-12-06T09:56:38.000Z</time>
      </trkpt>
      <trkpt lat="43.74974" lon="6.85111">
        <ele>1107.4555</ele>
        <time>2024-12-06T09:56:39.000Z</time>
      </trkpt>
      <trkpt lat="43.74973" lon="6.85105">
        <ele>1107.51159</ele>
        <time>2024-12-06T09:56:40.000Z</time>
      </trkpt>
      <trkpt lat="43.74971" lon="6.85087">
        <ele>1107.67999</ele>
        <time>2024-12-06T09:56:43.000Z</time>
      </trkpt>
      <trkpt lat="43.74969" lon="6.85063">
        <ele>1107.903169</ele>
        <time>2024-12-06T09:56:47.000Z</time>
      </trkpt>
      <trkpt lat="43.74963" lon="6.85022">
        <ele>1108.288182</ele>
        <time>2024-12-06T09:56:54.000Z</time>
      </trkpt>
      <trkpt lat="43.74961" lon="6.85017">
        <ele>1108.341508</ele>
        <time>2024-12-06T09:56:55.000Z</time>
      </trkpt>
      <trkpt lat="43.74959" lon="6.85011">
        <ele>1108.39593</ele>
        <time>2024-12-06T09:56:56.000Z</time>
      </trkpt>
      <trkpt lat="43.74958" lon="6.85006">
        <ele>1108.448506</ele>
        <time>2024-12-06T09:56:57.000Z</time>
      </trkpt>
      <trkpt lat="43.74957" lon="6.84995">
        <ele>1108.551123</ele>
        <time>2024-12-06T09:56:59.000Z</time>
      </trkpt>
      <trkpt lat="43.74958" lon="6.84989">
        <ele>1108.601327</ele>
        <time>2024-12-06T09:57:00.000Z</time>
      </trkpt>
      <trkpt lat="43.74959" lon="6.84984">
        <ele>1108.65267</ele>
        <time>2024-12-06T09:57:01.000Z</time>
      </trkpt>
      <trkpt lat="43.7496" lon="6.84979">
        <ele>1108.70216</ele>
        <time>2024-12-06T09:57:02.000Z</time>
      </trkpt>
      <trkpt lat="43.74961" lon="6.84974">
        <ele>1108.750203</ele>
        <time>2024-12-06T09:57:03.000Z</time>
      </trkpt>
      <trkpt lat="43.74962" lon="6.84968">
        <ele>1108.801104</ele>
        <time>2024-12-06T09:57:04.000Z</time>
      </trkpt>
      <trkpt lat="43.74962" lon="6.84962">
        <ele>1108.855109</ele>
        <time>2024-12-06T09:57:05.000Z</time>
      </trkpt>
      <trkpt lat="43.7496" lon="6.84957">
        <ele>1108.908936</ele>
        <time>2024-12-06T09:57:06.000Z</time>
      </trkpt>
      <trkpt lat="43.74958" lon="6.84951">
        <ele>1108.963655</ele>
        <time>2024-12-06T09:57:07.000Z</time>
      </trkpt>
      <trkpt lat="43.74956" lon="6.84947">
        <ele>1109.016486</ele>
        <time>2024-12-06T09:57:08.000Z</time>
      </trkpt>
      <trkpt lat="43.74953" lon="6.84944">
        <ele>1109.066588</ele>
        <time>2024-12-06T09:57:09.000Z</time>
      </trkpt>
      <trkpt lat="43.7495" lon="6.84941">
        <ele>1109.113479</ele>
        <time>2024-12-06T09:57:10.000Z</time>
      </trkpt>
      <trkpt lat="43.74946" lon="6.84938">
        <ele>1109.16193</ele>
        <time>2024-12-06T09:57:11.000Z</time>
      </trkpt>
      <trkpt lat="43.74941" lon="6.8493">
        <ele>1109.262474</ele>
        <time>2024-12-06T09:57:13.000Z</time>
      </trkpt>
      <trkpt lat="43.74938" lon="6.84925">
        <ele>1109.324844</ele>
        <time>2024-12-06T09:57:14.000Z</time>
      </trkpt>
      <trkpt lat="43.74936" lon="6.8492">
        <ele>1109.392505</ele>
        <time>2024-12-06T09:57:15.000Z</time>
      </trkpt>
      <trkpt lat="43.74935" lon="6.84914">
        <ele>1109.463476</ele>
        <time>2024-12-06T09:57:16.000Z</time>
      </trkpt>
      <trkpt lat="43.74933" lon="6.84907">
        <ele>1109.53556</ele>
        <time>2024-12-06T09:57:17.000Z</time>
      </trkpt>
      <trkpt lat="43.74932" lon="6.84901">
        <ele>1109.606162</ele>
        <time>2024-12-06T09:57:18.000Z</time>
      </trkpt>
      <trkpt lat="43.74931" lon="6.84895">
        <ele>1109.676357</ele>
        <time>2024-12-06T09:57:19.000Z</time>
      </trkpt>
      <trkpt lat="43.7493" lon="6.84889">
        <ele>1109.746898</ele>
        <time>2024-12-06T09:57:20.000Z</time>
      </trkpt>
      <trkpt lat="43.74929" lon="6.84882">
        <ele>1109.817129</ele>
        <time>2024-12-06T09:57:21.000Z</time>
      </trkpt>
      <trkpt lat="43.74928" lon="6.84876">
        <ele>1109.884675</ele>
        <time>2024-12-06T09:57:22.000Z</time>
      </trkpt>
      <trkpt lat="43.74927" lon="6.84869">
        <ele>1109.960566</ele>
        <time>2024-12-06T09:57:23.000Z</time>
      </trkpt>
      <trkpt lat="43.74926" lon="6.84862">
        <ele>1110.03784</ele>
        <time>2024-12-06T09:57:24.000Z</time>
      </trkpt>
      <trkpt lat="43.74925" lon="6.84855">
        <ele>1110.116673</ele>
        <time>2024-12-06T09:57:25.000Z</time>
      </trkpt>
      <trkpt lat="43.74924" lon="6.84848">
        <ele>1110.199272</ele>
        <time>2024-12-06T09:57:26.000Z</time>
      </trkpt>
      <trkpt lat="43.74922" lon="6.84841">
        <ele>1110.281561</ele>
        <time>2024-12-06T09:57:27.000Z</time>
      </trkpt>
      <trkpt lat="43.7492" lon="6.84834">
        <ele>1110.364452</ele>
        <time>2024-12-06T09:57:28.000Z</time>
      </trkpt>
      <trkpt lat="43.74918" lon="6.84827">
        <ele>1110.448281</ele>
        <time>2024-12-06T09:57:29.000Z</time>
      </trkpt>
      <trkpt lat="43.74916" lon="6.84819">
        <ele>1110.534212</ele>
        <time>2024-12-06T09:57:30.000Z</time>
      </trkpt>
      <trkpt lat="43.74914" lon="6.84812">
        <ele>1110.618091</ele>
        <time>2024-12-06T09:57:31.000Z</time>
      </trkpt>
      <trkpt lat="43.74911" lon="6.84784">
        <ele>1110.934144</ele>
        <time>2024-12-06T09:57:35.000Z</time>
      </trkpt>
      <trkpt lat="43.74913" lon="6.84762">
        <ele>1111.176276</ele>
        <time>2024-12-06T09:57:38.000Z</time>
      </trkpt>
      <trkpt lat="43.74916" lon="6.84746">
        <ele>1111.349247</ele>
        <time>2024-12-06T09:57:40.000Z</time>
      </trkpt>
      <trkpt lat="43.74918" lon="6.84739">
        <ele>1111.43521</ele>
        <time>2024-12-06T09:57:41.000Z</time>
      </trkpt>
      <trkpt lat="43.74917" lon="6.84723">
        <ele>1111.604962</ele>
        <time>2024-12-06T09:57:43.000Z</time>
      </trkpt>
      <trkpt lat="43.74914" lon="6.84695">
        <ele>1111.924602</ele>
        <time>2024-12-06T09:57:47.000Z</time>
      </trkpt>
      <trkpt lat="43.74912" lon="6.84688">
        <ele>1111.998185</ele>
        <time>2024-12-06T09:57:48.000Z</time>
      </trkpt>
      <trkpt lat="43.74911" lon="6.84682">
        <ele>1112.272894</ele>
        <time>2024-12-06T09:57:49.000Z</time>
      </trkpt>
      <trkpt lat="43.74909" lon="6.84677">
        <ele>1112.566031</ele>
        <time>2024-12-06T09:57:50.000Z</time>
      </trkpt>
      <trkpt lat="43.74907" lon="6.84672">
        <ele>1112.841475</ele>
        <time>2024-12-06T09:57:51.000Z</time>
      </trkpt>
      <trkpt lat="43.74906" lon="6.84667">
        <ele>1113.109798</ele>
        <time>2024-12-06T09:57:52.000Z</time>
      </trkpt>
      <trkpt lat="43.74904" lon="6.84662">
        <ele>1113.356177</ele>
        <time>2024-12-06T09:57:53.000Z</time>
      </trkpt>
      <trkpt lat="43.74903" lon="6.84658">
        <ele>1113.576683</ele>
        <time>2024-12-06T09:57:54.000Z</time>
      </trkpt>
      <trkpt lat="43.74902" lon="6.84654">
        <ele>1113.783229</ele>
        <time>2024-12-06T09:57:55.000Z</time>
      </trkpt>
      <trkpt lat="43.74901" lon="6.8465">
        <ele>1113.976213</ele>
        <time>2024-12-06T09:57:56.000Z</time>
      </trkpt>
      <trkpt lat="43.749" lon="6.84646">
        <ele>1114.156756</ele>
        <time>2024-12-06T09:57:57.000Z</time>
      </trkpt>
      <trkpt lat="43.749" lon="6.84643">
        <ele>1114.320969</ele>
        <time>2024-12-06T09:57:58.000Z</time>
      </trkpt>
      <trkpt lat="43.74901" lon="6.8464">
        <ele>1114.467123</ele>
        <time>2024-12-06T09:57:59.000Z</time>
      </trkpt>
      <trkpt lat="43.74901" lon="6.84637">
        <ele>1114.598952</ele>
        <time>2024-12-06T09:58:00.000Z</time>
      </trkpt>
      <trkpt lat="43.74901" lon="6.84634">
        <ele>1114.729419</ele>
        <time>2024-12-06T09:58:01.000Z</time>
      </trkpt>
      <trkpt lat="43.74901" lon="6.84632">
        <ele>1114.871896</ele>
        <time>2024-12-06T09:58:02.000Z</time>
      </trkpt>
      <trkpt lat="43.74902" lon="6.84629">
        <ele>1115.020789</ele>
        <time>2024-12-06T09:58:03.000Z</time>
      </trkpt>
      <trkpt lat="43.74904" lon="6.84627">
        <ele>1115.16675</ele>
        <time>2024-12-06T09:58:04.000Z</time>
      </trkpt>
      <trkpt lat="43.74906" lon="6.84626">
        <ele>1115.29423</ele>
        <time>2024-12-06T09:58:05.000Z</time>
      </trkpt>
      <trkpt lat="43.74907" lon="6.84624">
        <ele>1115.415511</ele>
        <time>2024-12-06T09:58:06.000Z</time>
      </trkpt>
      <trkpt lat="43.74909" lon="6.84622">
        <ele>1115.558029</ele>
        <time>2024-12-06T09:58:07.000Z</time>
      </trkpt>
      <trkpt lat="43.74911" lon="6.84619">
        <ele>1115.742542</ele>
        <time>2024-12-06T09:58:08.000Z</time>
      </trkpt>
      <trkpt lat="43.74913" lon="6.84616">
        <ele>1115.952217</ele>
        <time>2024-12-06T09:58:09.000Z</time>
      </trkpt>
      <trkpt lat="43.74916" lon="6.84614">
        <ele>1116.177453</ele>
        <time>2024-12-06T09:58:10.000Z</time>
      </trkpt>
      <trkpt lat="43.74919" lon="6.84612">
        <ele>1116.412415</ele>
        <time>2024-12-06T09:58:11.000Z</time>
      </trkpt>
      <trkpt lat="43.74922" lon="6.8461">
        <ele>1116.649366</ele>
        <time>2024-12-06T09:58:12.000Z</time>
      </trkpt>
      <trkpt lat="43.74925" lon="6.84609">
        <ele>1116.868519</ele>
        <time>2024-12-06T09:58:13.000Z</time>
      </trkpt>
      <trkpt lat="43.74929" lon="6.84608">
        <ele>1117.104762</ele>
        <time>2024-12-06T09:58:14.000Z</time>
      </trkpt>
      <trkpt lat="43.74932" lon="6.84608">
        <ele>1117.325217</ele>
        <time>2024-12-06T09:58:15.000Z</time>
      </trkpt>
      <trkpt lat="43.74935" lon="6.84608">
        <ele>1117.545883</ele>
        <time>2024-12-06T09:58:16.000Z</time>
      </trkpt>
      <trkpt lat="43.74939" lon="6.84609">
        <ele>1117.774856</ele>
        <time>2024-12-06T09:58:17.000Z</time>
      </trkpt>
      <trkpt lat="43.74942" lon="6.84609">
        <ele>1118.003269</ele>
        <time>2024-12-06T09:58:18.000Z</time>
      </trkpt>
      <trkpt lat="43.74945" lon="6.84609">
        <ele>1118.203682</ele>
        <time>2024-12-06T09:58:19.000Z</time>
      </trkpt>
      <trkpt lat="43.74948" lon="6.84609">
        <ele>1118.399567</ele>
        <time>2024-12-06T09:58:20.000Z</time>
      </trkpt>
      <trkpt lat="43.74951" lon="6.84608">
        <ele>1118.570982</ele>
        <time>2024-12-06T09:58:21.000Z</time>
      </trkpt>
      <trkpt lat="43.74953" lon="6.84606">
        <ele>1118.728845</ele>
        <time>2024-12-06T09:58:22.000Z</time>
      </trkpt>
      <trkpt lat="43.74954" lon="6.84604">
        <ele>1118.877711</ele>
        <time>2024-12-06T09:58:23.000Z</time>
      </trkpt>
      <trkpt lat="43.74955" lon="6.84601">
        <ele>1119.0273</ele>
        <time>2024-12-06T09:58:24.000Z</time>
      </trkpt>
      <trkpt lat="43.74957" lon="6.84599">
        <ele>1119.168786</ele>
        <time>2024-12-06T09:58:25.000Z</time>
      </trkpt>
      <trkpt lat="43.74958" lon="6.84597">
        <ele>1119.309612</ele>
        <time>2024-12-06T09:58:26.000Z</time>
      </trkpt>
      <trkpt lat="43.7496" lon="6.84596">
        <ele>1119.449711</ele>
        <time>2024-12-06T09:58:27.000Z</time>
      </trkpt>
      <trkpt lat="43.74961" lon="6.84594">
        <ele>1119.582325</ele>
        <time>2024-12-06T09:58:28.000Z</time>
      </trkpt>
      <trkpt lat="43.74963" lon="6.84592">
        <ele>1119.705942</ele>
        <time>2024-12-06T09:58:29.000Z</time>
      </trkpt>
      <trkpt lat="43.74964" lon="6.84591">
        <ele>1119.832445</ele>
        <time>2024-12-06T09:58:30.000Z</time>
      </trkpt>
      <trkpt lat="43.74966" lon="6.84589">
        <ele>1119.971573</ele>
        <time>2024-12-06T09:58:31.000Z</time>
      </trkpt>
      <trkpt lat="43.74967" lon="6.84587">
        <ele>1120.105969</ele>
        <time>2024-12-06T09:58:32.000Z</time>
      </trkpt>
      <trkpt lat="43.74969" lon="6.84584">
        <ele>1120.247455</ele>
        <time>2024-12-06T09:58:33.000Z</time>
      </trkpt>
      <trkpt lat="43.7497" lon="6.84582">
        <ele>1120.393443</ele>
        <time>2024-12-06T09:58:34.000Z</time>
      </trkpt>
      <trkpt lat="43.74972" lon="6.8458">
        <ele>1120.564097</ele>
        <time>2024-12-06T09:58:35.000Z</time>
      </trkpt>
      <trkpt lat="43.74974" lon="6.84578">
        <ele>1120.746017</ele>
        <time>2024-12-06T09:58:36.000Z</time>
      </trkpt>
      <trkpt lat="43.74976" lon="6.84575">
        <ele>1120.917844</ele>
        <time>2024-12-06T09:58:37.000Z</time>
      </trkpt>
      <trkpt lat="43.74978" lon="6.84573">
        <ele>1121.09673</ele>
        <time>2024-12-06T09:58:38.000Z</time>
      </trkpt>
      <trkpt lat="43.74981" lon="6.84571">
        <ele>1121.275251</ele>
        <time>2024-12-06T09:58:39.000Z</time>
      </trkpt>
      <trkpt lat="43.74983" lon="6.84569">
        <ele>1121.448476</ele>
        <time>2024-12-06T09:58:40.000Z</time>
      </trkpt>
      <trkpt lat="43.74985" lon="6.84567">
        <ele>1121.62643</ele>
        <time>2024-12-06T09:58:41.000Z</time>
      </trkpt>
      <trkpt lat="43.74993" lon="6.84563">
        <ele>1122.182925</ele>
        <time>2024-12-06T09:58:44.000Z</time>
      </trkpt>
      <trkpt lat="43.75001" lon="6.8456">
        <ele>1122.713564</ele>
        <time>2024-12-06T09:58:47.000Z</time>
      </trkpt>
      <trkpt lat="43.75009" lon="6.84558">
        <ele>1123.269797</ele>
        <time>2024-12-06T09:58:50.000Z</time>
      </trkpt>
      <trkpt lat="43.75015" lon="6.84557">
        <ele>1123.663966</ele>
        <time>2024-12-06T09:58:52.000Z</time>
      </trkpt>
      <trkpt lat="43.7502" lon="6.84555">
        <ele>1124.007915</ele>
        <time>2024-12-06T09:58:54.000Z</time>
      </trkpt>
      <trkpt lat="43.75022" lon="6.84554">
        <ele>1124.283621</ele>
        <time>2024-12-06T09:58:55.000Z</time>
      </trkpt>
      <trkpt lat="43.75025" lon="6.84554">
        <ele>1124.566559</ele>
        <time>2024-12-06T09:58:56.000Z</time>
      </trkpt>
      <trkpt lat="43.75027" lon="6.84553">
        <ele>1124.850767</ele>
        <time>2024-12-06T09:58:57.000Z</time>
      </trkpt>
      <trkpt lat="43.75029" lon="6.84553">
        <ele>1125.088209</ele>
        <time>2024-12-06T09:58:58.000Z</time>
      </trkpt>
      <trkpt lat="43.75031" lon="6.84553">
        <ele>1125.323434</ele>
        <time>2024-12-06T09:58:59.000Z</time>
      </trkpt>
      <trkpt lat="43.75034" lon="6.84553">
        <ele>1125.581062</ele>
        <time>2024-12-06T09:59:00.000Z</time>
      </trkpt>
      <trkpt lat="43.75036" lon="6.84553">
        <ele>1125.86156</ele>
        <time>2024-12-06T09:59:01.000Z</time>
      </trkpt>
      <trkpt lat="43.75038" lon="6.84552">
        <ele>1126.121213</ele>
        <time>2024-12-06T09:59:02.000Z</time>
      </trkpt>
      <trkpt lat="43.75041" lon="6.84552">
        <ele>1126.369756</ele>
        <time>2024-12-06T09:59:03.000Z</time>
      </trkpt>
      <trkpt lat="43.75043" lon="6.84551">
        <ele>1126.668095</ele>
        <time>2024-12-06T09:59:04.000Z</time>
      </trkpt>
      <trkpt lat="43.75046" lon="6.8455">
        <ele>1126.990072</ele>
        <time>2024-12-06T09:59:05.000Z</time>
      </trkpt>
      <trkpt lat="43.75049" lon="6.84549">
        <ele>1127.297763</ele>
        <time>2024-12-06T09:59:06.000Z</time>
      </trkpt>
      <trkpt lat="43.75051" lon="6.84549">
        <ele>1127.576281</ele>
        <time>2024-12-06T09:59:07.000Z</time>
      </trkpt>
      <trkpt lat="43.75054" lon="6.84548">
        <ele>1127.872969</ele>
        <time>2024-12-06T09:59:08.000Z</time>
      </trkpt>
      <trkpt lat="43.75056" lon="6.84547">
        <ele>1128.133754</ele>
        <time>2024-12-06T09:59:09.000Z</time>
      </trkpt>
      <trkpt lat="43.75058" lon="6.84547">
        <ele>1128.381374</ele>
        <time>2024-12-06T09:59:10.000Z</time>
      </trkpt>
      <trkpt lat="43.7506" lon="6.84547">
        <ele>1128.60671</ele>
        <time>2024-12-06T09:59:11.000Z</time>
      </trkpt>
      <trkpt lat="43.75062" lon="6.84549">
        <ele>1128.813979</ele>
        <time>2024-12-06T09:59:12.000Z</time>
      </trkpt>
      <trkpt lat="43.75063" lon="6.84552">
        <ele>1129.076526</ele>
        <time>2024-12-06T09:59:13.000Z</time>
      </trkpt>
      <trkpt lat="43.75064" lon="6.84555">
        <ele>1129.40024</ele>
        <time>2024-12-06T09:59:14.000Z</time>
      </trkpt>
      <trkpt lat="43.75066" lon="6.84559">
        <ele>1129.738201</ele>
        <time>2024-12-06T09:59:15.000Z</time>
      </trkpt>
      <trkpt lat="43.75068" lon="6.84562">
        <ele>1130.068517</ele>
        <time>2024-12-06T09:59:16.000Z</time>
      </trkpt>
      <trkpt lat="43.7507" lon="6.84564">
        <ele>1130.363329</ele>
        <time>2024-12-06T09:59:17.000Z</time>
      </trkpt>
      <trkpt lat="43.75072" lon="6.84565">
        <ele>1130.657163</ele>
        <time>2024-12-06T09:59:18.000Z</time>
      </trkpt>
      <trkpt lat="43.75075" lon="6.84565">
        <ele>1130.925993</ele>
        <time>2024-12-06T09:59:19.000Z</time>
      </trkpt>
      <trkpt lat="43.75077" lon="6.84564">
        <ele>1131.188155</ele>
        <time>2024-12-06T09:59:20.000Z</time>
      </trkpt>
      <trkpt lat="43.75079" lon="6.84563">
        <ele>1131.432315</ele>
        <time>2024-12-06T09:59:21.000Z</time>
      </trkpt>
      <trkpt lat="43.75081" lon="6.84561">
        <ele>1131.665591</ele>
        <time>2024-12-06T09:59:22.000Z</time>
      </trkpt>
      <trkpt lat="43.75082" lon="6.84559">
        <ele>1131.887946</ele>
        <time>2024-12-06T09:59:23.000Z</time>
      </trkpt>
      <trkpt lat="43.75083" lon="6.84557">
        <ele>1132.124244</ele>
        <time>2024-12-06T09:59:24.000Z</time>
      </trkpt>
      <trkpt lat="43.75085" lon="6.84554">
        <ele>1132.387672</ele>
        <time>2024-12-06T09:59:25.000Z</time>
      </trkpt>
      <trkpt lat="43.75085" lon="6.84551">
        <ele>1132.676351</ele>
        <time>2024-12-06T09:59:26.000Z</time>
      </trkpt>
      <trkpt lat="43.75085" lon="6.84547">
        <ele>1132.960429</ele>
        <time>2024-12-06T09:59:27.000Z</time>
      </trkpt>
      <trkpt lat="43.75084" lon="6.84543">
        <ele>1133.285583</ele>
        <time>2024-12-06T09:59:28.000Z</time>
      </trkpt>
      <trkpt lat="43.75083" lon="6.84539">
        <ele>1133.632303</ele>
        <time>2024-12-06T09:59:29.000Z</time>
      </trkpt>
      <trkpt lat="43.75082" lon="6.84535">
        <ele>1133.967152</ele>
        <time>2024-12-06T09:59:30.000Z</time>
      </trkpt>
      <trkpt lat="43.75082" lon="6.84531">
        <ele>1134.28446</ele>
        <time>2024-12-06T09:59:31.000Z</time>
      </trkpt>
      <trkpt lat="43.75081" lon="6.84527">
        <ele>1134.623447</ele>
        <time>2024-12-06T09:59:32.000Z</time>
      </trkpt>
      <trkpt lat="43.7508" lon="6.84524">
        <ele>1134.951482</ele>
        <time>2024-12-06T09:59:33.000Z</time>
      </trkpt>
      <trkpt lat="43.75079" lon="6.84519">
        <ele>1135.298203</ele>
        <time>2024-12-06T09:59:34.000Z</time>
      </trkpt>
      <trkpt lat="43.75079" lon="6.84516">
        <ele>1135.594823</ele>
        <time>2024-12-06T09:59:35.000Z</time>
      </trkpt>
      <trkpt lat="43.75079" lon="6.84512">
        <ele>1135.902291</ele>
        <time>2024-12-06T09:59:36.000Z</time>
      </trkpt>
      <trkpt lat="43.75079" lon="6.84508">
        <ele>1136.214818</ele>
        <time>2024-12-06T09:59:37.000Z</time>
      </trkpt>
      <trkpt lat="43.7508" lon="6.84505">
        <ele>1136.526897</ele>
        <time>2024-12-06T09:59:38.000Z</time>
      </trkpt>
      <trkpt lat="43.75082" lon="6.84502">
        <ele>1136.804706</ele>
        <time>2024-12-06T09:59:39.000Z</time>
      </trkpt>
      <trkpt lat="43.75084" lon="6.84501">
        <ele>1137.090532</ele>
        <time>2024-12-06T09:59:40.000Z</time>
      </trkpt>
      <trkpt lat="43.75087" lon="6.845">
        <ele>1137.42343</ele>
        <time>2024-12-06T09:59:41.000Z</time>
      </trkpt>
      <trkpt lat="43.7509" lon="6.84499">
        <ele>1137.734507</ele>
        <time>2024-12-06T09:59:42.000Z</time>
      </trkpt>
      <trkpt lat="43.75092" lon="6.84498">
        <ele>1138.013024</ele>
        <time>2024-12-06T09:59:43.000Z</time>
      </trkpt>
      <trkpt lat="43.75094" lon="6.84497">
        <ele>1138.28306</ele>
        <time>2024-12-06T09:59:44.000Z</time>
      </trkpt>
      <trkpt lat="43.75097" lon="6.84496">
        <ele>1138.563802</ele>
        <time>2024-12-06T09:59:45.000Z</time>
      </trkpt>
      <trkpt lat="43.75099" lon="6.84495">
        <ele>1138.864</ele>
        <time>2024-12-06T09:59:46.000Z</time>
      </trkpt>
      <trkpt lat="43.75102" lon="6.84495">
        <ele>1139.144147</ele>
        <time>2024-12-06T09:59:47.000Z</time>
      </trkpt>
      <trkpt lat="43.75104" lon="6.84496">
        <ele>1139.396999</ele>
        <time>2024-12-06T09:59:48.000Z</time>
      </trkpt>
      <trkpt lat="43.75106" lon="6.84498">
        <ele>1139.679216</ele>
        <time>2024-12-06T09:59:49.000Z</time>
      </trkpt>
      <trkpt lat="43.75108" lon="6.845">
        <ele>1139.945472</ele>
        <time>2024-12-06T09:59:50.000Z</time>
      </trkpt>
      <trkpt lat="43.75109" lon="6.84502">
        <ele>1140.201419</ele>
        <time>2024-12-06T09:59:51.000Z</time>
      </trkpt>
      <trkpt lat="43.75111" lon="6.84505">
        <ele>1140.476952</ele>
        <time>2024-12-06T09:59:52.000Z</time>
      </trkpt>
      <trkpt lat="43.75112" lon="6.84508">
        <ele>1140.765549</ele>
        <time>2024-12-06T09:59:53.000Z</time>
      </trkpt>
      <trkpt lat="43.75114" lon="6.84511">
        <ele>1141.034468</ele>
        <time>2024-12-06T09:59:54.000Z</time>
      </trkpt>
      <trkpt lat="43.75116" lon="6.84514">
        <ele>1141.343838</ele>
        <time>2024-12-06T09:59:55.000Z</time>
      </trkpt>
      <trkpt lat="43.75117" lon="6.84517">
        <ele>1141.639789</ele>
        <time>2024-12-06T09:59:56.000Z</time>
      </trkpt>
      <trkpt lat="43.75119" lon="6.84519">
        <ele>1141.931177</ele>
        <time>2024-12-06T09:59:57.000Z</time>
      </trkpt>
      <trkpt lat="43.7512" lon="6.84522">
        <ele>1142.20671</ele>
        <time>2024-12-06T09:59:58.000Z</time>
      </trkpt>
      <trkpt lat="43.75122" lon="6.84525">
        <ele>1142.489773</ele>
        <time>2024-12-06T09:59:59.000Z</time>
      </trkpt>
      <trkpt lat="43.75123" lon="6.84528">
        <ele>1142.772836</ele>
        <time>2024-12-06T10:00:00.000Z</time>
      </trkpt>
      <trkpt lat="43.75124" lon="6.84531">
        <ele>1143.047537</ele>
        <time>2024-12-06T10:00:01.000Z</time>
      </trkpt>
      <trkpt lat="43.75125" lon="6.84534">
        <ele>1143.344594</ele>
        <time>2024-12-06T10:00:02.000Z</time>
      </trkpt>
      <trkpt lat="43.75126" lon="6.84538">
        <ele>1143.638661</ele>
        <time>2024-12-06T10:00:03.000Z</time>
      </trkpt>
      <trkpt lat="43.75127" lon="6.84541">
        <ele>1143.924067</ele>
        <time>2024-12-06T10:00:04.000Z</time>
      </trkpt>
      <trkpt lat="43.75128" lon="6.84544">
        <ele>1144.168147</ele>
        <time>2024-12-06T10:00:05.000Z</time>
      </trkpt>
      <trkpt lat="43.75129" lon="6.84546">
        <ele>1144.355903</ele>
        <time>2024-12-06T10:00:06.000Z</time>
      </trkpt>
      <trkpt lat="43.7513" lon="6.84549">
        <ele>1144.530528</ele>
        <time>2024-12-06T10:00:07.000Z</time>
      </trkpt>
      <trkpt lat="43.75131" lon="6.84551">
        <ele>1144.704382</ele>
        <time>2024-12-06T10:00:08.000Z</time>
      </trkpt>
      <trkpt lat="43.75132" lon="6.84554">
        <ele>1144.882498</ele>
        <time>2024-12-06T10:00:09.000Z</time>
      </trkpt>
      <trkpt lat="43.75132" lon="6.84557">
        <ele>1145.072625</ele>
        <time>2024-12-06T10:00:10.000Z</time>
      </trkpt>
      <trkpt lat="43.75133" lon="6.8456">
        <ele>1145.280994</ele>
        <time>2024-12-06T10:00:11.000Z</time>
      </trkpt>
      <trkpt lat="43.75133" lon="6.84563">
        <ele>1145.473267</ele>
        <time>2024-12-06T10:00:12.000Z</time>
      </trkpt>
      <trkpt lat="43.75134" lon="6.84565">
        <ele>1145.632993</ele>
        <time>2024-12-06T10:00:13.000Z</time>
      </trkpt>
      <trkpt lat="43.75134" lon="6.84568">
        <ele>1145.797789</ele>
        <time>2024-12-06T10:00:14.000Z</time>
      </trkpt>
      <trkpt lat="43.75134" lon="6.8457">
        <ele>1145.955596</ele>
        <time>2024-12-06T10:00:15.000Z</time>
      </trkpt>
      <trkpt lat="43.75134" lon="6.84573">
        <ele>1146.107112</ele>
        <time>2024-12-06T10:00:16.000Z</time>
      </trkpt>
      <trkpt lat="43.75134" lon="6.84576">
        <ele>1146.283802</ele>
        <time>2024-12-06T10:00:17.000Z</time>
      </trkpt>
      <trkpt lat="43.75134" lon="6.84579">
        <ele>1146.499685</ele>
        <time>2024-12-06T10:00:18.000Z</time>
      </trkpt>
      <trkpt lat="43.75135" lon="6.84582">
        <ele>1146.698159</ele>
        <time>2024-12-06T10:00:19.000Z</time>
      </trkpt>
      <trkpt lat="43.75135" lon="6.84585">
        <ele>1146.892207</ele>
        <time>2024-12-06T10:00:20.000Z</time>
      </trkpt>
      <trkpt lat="43.75135" lon="6.84589">
        <ele>1147.10809</ele>
        <time>2024-12-06T10:00:21.000Z</time>
      </trkpt>
      <trkpt lat="43.75136" lon="6.84592">
        <ele>1147.320603</ele>
        <time>2024-12-06T10:00:22.000Z</time>
      </trkpt>
      <trkpt lat="43.75136" lon="6.84595">
        <ele>1147.550167</ele>
        <time>2024-12-06T10:00:23.000Z</time>
      </trkpt>
      <trkpt lat="43.75137" lon="6.84598">
        <ele>1147.748867</ele>
        <time>2024-12-06T10:00:24.000Z</time>
      </trkpt>
      <trkpt lat="43.75138" lon="6.84601">
        <ele>1147.944519</ele>
        <time>2024-12-06T10:00:25.000Z</time>
      </trkpt>
      <trkpt lat="43.75139" lon="6.84604">
        <ele>1148.149256</ele>
        <time>2024-12-06T10:00:26.000Z</time>
      </trkpt>
      <trkpt lat="43.7514" lon="6.84607">
        <ele>1148.343719</ele>
        <time>2024-12-06T10:00:27.000Z</time>
      </trkpt>
      <trkpt lat="43.75141" lon="6.8461">
        <ele>1148.538182</ele>
        <time>2024-12-06T10:00:28.000Z</time>
      </trkpt>
      <trkpt lat="43.75142" lon="6.84612">
        <ele>1148.733553</ele>
        <time>2024-12-06T10:00:29.000Z</time>
      </trkpt>
      <trkpt lat="43.75144" lon="6.84615">
        <ele>1148.932849</ele>
        <time>2024-12-06T10:00:30.000Z</time>
      </trkpt>
      <trkpt lat="43.75145" lon="6.84618">
        <ele>1149.133734</ele>
        <time>2024-12-06T10:00:31.000Z</time>
      </trkpt>
      <trkpt lat="43.75145" lon="6.84621">
        <ele>1149.33844</ele>
        <time>2024-12-06T10:00:32.000Z</time>
      </trkpt>
      <trkpt lat="43.75146" lon="6.84624">
        <ele>1149.54668</ele>
        <time>2024-12-06T10:00:33.000Z</time>
      </trkpt>
      <trkpt lat="43.75147" lon="6.84627">
        <ele>1149.760659</ele>
        <time>2024-12-06T10:00:34.000Z</time>
      </trkpt>
      <trkpt lat="43.75148" lon="6.8463">
        <ele>1149.972703</ele>
        <time>2024-12-06T10:00:35.000Z</time>
      </trkpt>
      <trkpt lat="43.7515" lon="6.84633">
        <ele>1150.213908</ele>
        <time>2024-12-06T10:00:36.000Z</time>
      </trkpt>
      <trkpt lat="43.75151" lon="6.84636">
        <ele>1150.439829</ele>
        <time>2024-12-06T10:00:37.000Z</time>
      </trkpt>
      <trkpt lat="43.75152" lon="6.8464">
        <ele>1150.676735</ele>
        <time>2024-12-06T10:00:38.000Z</time>
      </trkpt>
      <trkpt lat="43.75154" lon="6.84643">
        <ele>1150.905799</ele>
        <time>2024-12-06T10:00:39.000Z</time>
      </trkpt>
      <trkpt lat="43.75155" lon="6.84646">
        <ele>1151.117842</ele>
        <time>2024-12-06T10:00:40.000Z</time>
      </trkpt>
      <trkpt lat="43.75156" lon="6.84649">
        <ele>1151.329886</ele>
        <time>2024-12-06T10:00:41.000Z</time>
      </trkpt>
      <trkpt lat="43.75157" lon="6.84652">
        <ele>1151.538126</ele>
        <time>2024-12-06T10:00:42.000Z</time>
      </trkpt>
      <trkpt lat="43.75158" lon="6.84655">
        <ele>1151.754558</ele>
        <time>2024-12-06T10:00:43.000Z</time>
      </trkpt>
      <trkpt lat="43.75158" lon="6.84658">
        <ele>1151.962926</ele>
        <time>2024-12-06T10:00:44.000Z</time>
      </trkpt>
      <trkpt lat="43.75159" lon="6.84661">
        <ele>1152.1652</ele>
        <time>2024-12-06T10:00:45.000Z</time>
      </trkpt>
      <trkpt lat="43.75159" lon="6.84665">
        <ele>1152.379674</ele>
        <time>2024-12-06T10:00:46.000Z</time>
      </trkpt>
      <trkpt lat="43.7516" lon="6.84668">
        <ele>1152.613034</ele>
        <time>2024-12-06T10:00:47.000Z</time>
      </trkpt>
      <trkpt lat="43.7516" lon="6.84672">
        <ele>1152.821021</ele>
        <time>2024-12-06T10:00:48.000Z</time>
      </trkpt>
      <trkpt lat="43.75159" lon="6.84675">
        <ele>1153.022894</ele>
        <time>2024-12-06T10:00:49.000Z</time>
      </trkpt>
      <trkpt lat="43.75159" lon="6.84678">
        <ele>1153.243658</ele>
        <time>2024-12-06T10:00:50.000Z</time>
      </trkpt>
      <trkpt lat="43.75159" lon="6.84682">
        <ele>1153.465798</ele>
        <time>2024-12-06T10:00:51.000Z</time>
      </trkpt>
      <trkpt lat="43.75159" lon="6.84685">
        <ele>1153.680265</ele>
        <time>2024-12-06T10:00:52.000Z</time>
      </trkpt>
      <trkpt lat="43.75159" lon="6.84688">
        <ele>1153.878739</ele>
        <time>2024-12-06T10:00:53.000Z</time>
      </trkpt>
      <trkpt lat="43.75158" lon="6.84691">
        <ele>1154.078932</ele>
        <time>2024-12-06T10:00:54.000Z</time>
      </trkpt>
      <trkpt lat="43.75157" lon="6.84695">
        <ele>1154.2873</ele>
        <time>2024-12-06T10:00:55.000Z</time>
      </trkpt>
      <trkpt lat="43.75157" lon="6.84698">
        <ele>1154.477425</ele>
        <time>2024-12-06T10:00:56.000Z</time>
      </trkpt>
      <trkpt lat="43.75156" lon="6.84701">
        <ele>1154.673618</ele>
        <time>2024-12-06T10:00:57.000Z</time>
      </trkpt>
      <trkpt lat="43.75156" lon="6.84704">
        <ele>1154.888092</ele>
        <time>2024-12-06T10:00:58.000Z</time>
      </trkpt>
      <trkpt lat="43.75155" lon="6.84707">
        <ele>1155.101514</ele>
        <time>2024-12-06T10:00:59.000Z</time>
      </trkpt>
      <trkpt lat="43.75154" lon="6.8471">
        <ele>1155.300213</ele>
        <time>2024-12-06T10:01:00.000Z</time>
      </trkpt>
      <trkpt lat="43.75153" lon="6.84713">
        <ele>1155.52576</ele>
        <time>2024-12-06T10:01:01.000Z</time>
      </trkpt>
      <trkpt lat="43.75152" lon="6.84717">
        <ele>1155.742529</ele>
        <time>2024-12-06T10:01:02.000Z</time>
      </trkpt>
      <trkpt lat="43.75152" lon="6.8472">
        <ele>1155.941228</ele>
        <time>2024-12-06T10:01:03.000Z</time>
      </trkpt>
      <trkpt lat="43.75151" lon="6.84723">
        <ele>1156.129139</ele>
        <time>2024-12-06T10:01:04.000Z</time>
      </trkpt>
      <trkpt lat="43.75151" lon="6.84726">
        <ele>1156.338767</ele>
        <time>2024-12-06T10:01:05.000Z</time>
      </trkpt>
      <trkpt lat="43.75151" lon="6.84729">
        <ele>1156.521751</ele>
        <time>2024-12-06T10:01:06.000Z</time>
      </trkpt>
      <trkpt lat="43.75151" lon="6.84732">
        <ele>1156.711634</ele>
        <time>2024-12-06T10:01:07.000Z</time>
      </trkpt>
      <trkpt lat="43.75152" lon="6.84735">
        <ele>1156.927516</ele>
        <time>2024-12-06T10:01:08.000Z</time>
      </trkpt>
      <trkpt lat="43.75152" lon="6.84738">
        <ele>1157.132222</ele>
        <time>2024-12-06T10:01:09.000Z</time>
      </trkpt>
      <trkpt lat="43.75153" lon="6.84741">
        <ele>1157.331153</ele>
        <time>2024-12-06T10:01:10.000Z</time>
      </trkpt>
      <trkpt lat="43.75154" lon="6.84744">
        <ele>1157.52106</ele>
        <time>2024-12-06T10:01:11.000Z</time>
      </trkpt>
      <trkpt lat="43.75156" lon="6.84746">
        <ele>1157.725892</ele>
        <time>2024-12-06T10:01:12.000Z</time>
      </trkpt>
      <trkpt lat="43.75157" lon="6.84749">
        <ele>1157.94573</ele>
        <time>2024-12-06T10:01:13.000Z</time>
      </trkpt>
      <trkpt lat="43.75158" lon="6.84752">
        <ele>1158.163412</ele>
        <time>2024-12-06T10:01:14.000Z</time>
      </trkpt>
      <trkpt lat="43.75159" lon="6.84756">
        <ele>1158.391637</ele>
        <time>2024-12-06T10:01:15.000Z</time>
      </trkpt>
      <trkpt lat="43.7516" lon="6.84759">
        <ele>1158.604149</ele>
        <time>2024-12-06T10:01:16.000Z</time>
      </trkpt>
      <trkpt lat="43.7516" lon="6.84763">
        <ele>1158.833713</ele>
        <time>2024-12-06T10:01:17.000Z</time>
      </trkpt>
      <trkpt lat="43.7516" lon="6.84766">
        <ele>1159.054994</ele>
        <time>2024-12-06T10:01:18.000Z</time>
      </trkpt>
      <trkpt lat="43.75161" lon="6.8477">
        <ele>1159.298434</ele>
        <time>2024-12-06T10:01:19.000Z</time>
      </trkpt>
      <trkpt lat="43.75161" lon="6.84774">
        <ele>1159.534229</ele>
        <time>2024-12-06T10:01:20.000Z</time>
      </trkpt>
      <trkpt lat="43.75161" lon="6.84777">
        <ele>1159.775155</ele>
        <time>2024-12-06T10:01:21.000Z</time>
      </trkpt>
      <trkpt lat="43.75162" lon="6.84781">
        <ele>1160.079035</ele>
        <time>2024-12-06T10:01:22.000Z</time>
      </trkpt>
      <trkpt lat="43.75163" lon="6.84785">
        <ele>1160.409895</ele>
        <time>2024-12-06T10:01:23.000Z</time>
      </trkpt>
      <trkpt lat="43.75164" lon="6.84787">
        <ele>1160.705106</ele>
        <time>2024-12-06T10:01:24.000Z</time>
      </trkpt>
      <trkpt lat="43.75166" lon="6.8479">
        <ele>1161.006139</ele>
        <time>2024-12-06T10:01:25.000Z</time>
      </trkpt>
      <trkpt lat="43.75168" lon="6.84791">
        <ele>1161.296954</ele>
        <time>2024-12-06T10:01:26.000Z</time>
      </trkpt>
      <trkpt lat="43.7517" lon="6.84791">
        <ele>1161.559126</ele>
        <time>2024-12-06T10:01:27.000Z</time>
      </trkpt>
      <trkpt lat="43.75171" lon="6.8479">
        <ele>1161.805927</ele>
        <time>2024-12-06T10:01:28.000Z</time>
      </trkpt>
      <trkpt lat="43.75173" lon="6.84787">
        <ele>1162.062099</ele>
        <time>2024-12-06T10:01:29.000Z</time>
      </trkpt>
      <trkpt lat="43.75173" lon="6.84784">
        <ele>1162.363439</ele>
        <time>2024-12-06T10:01:30.000Z</time>
      </trkpt>
      <trkpt lat="43.75173" lon="6.84781">
        <ele>1162.679868</ele>
        <time>2024-12-06T10:01:31.000Z</time>
      </trkpt>
      <trkpt lat="43.75174" lon="6.84777">
        <ele>1163.01357</ele>
        <time>2024-12-06T10:01:32.000Z</time>
      </trkpt>
      <trkpt lat="43.75173" lon="6.84773">
        <ele>1163.347272</ele>
        <time>2024-12-06T10:01:33.000Z</time>
      </trkpt>
      <trkpt lat="43.75173" lon="6.8477">
        <ele>1163.671728</ele>
        <time>2024-12-06T10:01:34.000Z</time>
      </trkpt>
      <trkpt lat="43.75173" lon="6.84766">
        <ele>1164.015117</ele>
        <time>2024-12-06T10:01:35.000Z</time>
      </trkpt>
      <trkpt lat="43.75173" lon="6.84762">
        <ele>1164.358506</ele>
        <time>2024-12-06T10:01:36.000Z</time>
      </trkpt>
      <trkpt lat="43.75174" lon="6.84758">
        <ele>1164.711948</ele>
        <time>2024-12-06T10:01:37.000Z</time>
      </trkpt>
      <trkpt lat="43.75175" lon="6.84755">
        <ele>1165.060035</ele>
        <time>2024-12-06T10:01:38.000Z</time>
      </trkpt>
      <trkpt lat="43.75177" lon="6.84751">
        <ele>1165.433341</ele>
        <time>2024-12-06T10:01:39.000Z</time>
      </trkpt>
      <trkpt lat="43.75178" lon="6.84748">
        <ele>1165.791809</ele>
        <time>2024-12-06T10:01:40.000Z</time>
      </trkpt>
      <trkpt lat="43.7518" lon="6.84745">
        <ele>1166.138048</ele>
        <time>2024-12-06T10:01:41.000Z</time>
      </trkpt>
      <trkpt lat="43.75182" lon="6.84743">
        <ele>1166.452798</ele>
        <time>2024-12-06T10:01:42.000Z</time>
      </trkpt>
      <trkpt lat="43.75183" lon="6.8474">
        <ele>1166.767549</ele>
        <time>2024-12-06T10:01:43.000Z</time>
      </trkpt>
      <trkpt lat="43.75185" lon="6.84737">
        <ele>1167.052645</ele>
        <time>2024-12-06T10:01:44.000Z</time>
      </trkpt>
      <trkpt lat="43.75186" lon="6.84735">
        <ele>1167.323008</ele>
        <time>2024-12-06T10:01:45.000Z</time>
      </trkpt>
      <trkpt lat="43.75188" lon="6.84732">
        <ele>1167.652664</ele>
        <time>2024-12-06T10:01:46.000Z</time>
      </trkpt>
      <trkpt lat="43.7519" lon="6.84729">
        <ele>1168.004152</ele>
        <time>2024-12-06T10:01:47.000Z</time>
      </trkpt>
      <trkpt lat="43.75191" lon="6.84726">
        <ele>1168.34796</ele>
        <time>2024-12-06T10:01:48.000Z</time>
      </trkpt>
      <trkpt lat="43.75193" lon="6.84723">
        <ele>1168.669729</ele>
        <time>2024-12-06T10:01:49.000Z</time>
      </trkpt>
      <trkpt lat="43.75194" lon="6.8472">
        <ele>1169.005821</ele>
        <time>2024-12-06T10:01:50.000Z</time>
      </trkpt>
      <trkpt lat="43.75196" lon="6.84717">
        <ele>1169.313427</ele>
        <time>2024-12-06T10:01:51.000Z</time>
      </trkpt>
      <trkpt lat="43.75197" lon="6.84715">
        <ele>1169.620415</ele>
        <time>2024-12-06T10:01:52.000Z</time>
      </trkpt>
      <trkpt lat="43.75199" lon="6.84712">
        <ele>1169.941879</ele>
        <time>2024-12-06T10:01:53.000Z</time>
      </trkpt>
      <trkpt lat="43.752" lon="6.84709">
        <ele>1170.23415</ele>
        <time>2024-12-06T10:01:54.000Z</time>
      </trkpt>
      <trkpt lat="43.75202" lon="6.84706">
        <ele>1170.54833</ele>
        <time>2024-12-06T10:01:55.000Z</time>
      </trkpt>
      <trkpt lat="43.75203" lon="6.84704">
        <ele>1170.849361</ele>
        <time>2024-12-06T10:01:56.000Z</time>
      </trkpt>
      <trkpt lat="43.75205" lon="6.84701">
        <ele>1171.148906</ele>
        <time>2024-12-06T10:01:57.000Z</time>
      </trkpt>
      <trkpt lat="43.75206" lon="6.84698">
        <ele>1171.428283</ele>
        <time>2024-12-06T10:01:58.000Z</time>
      </trkpt>
      <trkpt lat="43.75207" lon="6.84695">
        <ele>1171.743582</ele>
        <time>2024-12-06T10:01:59.000Z</time>
      </trkpt>
      <trkpt lat="43.75208" lon="6.84693">
        <ele>1172.036027</ele>
        <time>2024-12-06T10:02:00.000Z</time>
      </trkpt>
      <trkpt lat="43.75209" lon="6.8469">
        <ele>1172.33724</ele>
        <time>2024-12-06T10:02:01.000Z</time>
      </trkpt>
      <trkpt lat="43.75211" lon="6.84687">
        <ele>1172.632449</ele>
        <time>2024-12-06T10:02:02.000Z</time>
      </trkpt>
      <trkpt lat="43.75212" lon="6.84684">
        <ele>1172.918162</ele>
        <time>2024-12-06T10:02:03.000Z</time>
      </trkpt>
      <trkpt lat="43.75213" lon="6.84681">
        <ele>1173.22138</ele>
        <time>2024-12-06T10:02:04.000Z</time>
      </trkpt>
      <trkpt lat="43.75214" lon="6.84678">
        <ele>1173.508641</ele>
        <time>2024-12-06T10:02:05.000Z</time>
      </trkpt>
      <trkpt lat="43.75215" lon="6.84675">
        <ele>1173.809753</ele>
        <time>2024-12-06T10:02:06.000Z</time>
      </trkpt>
      <trkpt lat="43.75216" lon="6.84672">
        <ele>1174.08953</ele>
        <time>2024-12-06T10:02:07.000Z</time>
      </trkpt>
      <trkpt lat="43.75217" lon="6.84669">
        <ele>1174.3823</ele>
        <time>2024-12-06T10:02:08.000Z</time>
      </trkpt>
      <trkpt lat="43.75217" lon="6.84666">
        <ele>1174.687488</ele>
        <time>2024-12-06T10:02:09.000Z</time>
      </trkpt>
      <trkpt lat="43.75218" lon="6.84663">
        <ele>1174.996981</ele>
        <time>2024-12-06T10:02:10.000Z</time>
      </trkpt>
      <trkpt lat="43.75219" lon="6.84661">
        <ele>1175.2221</ele>
        <time>2024-12-06T10:02:11.000Z</time>
      </trkpt>
      <trkpt lat="43.75219" lon="6.84658">
        <ele>1175.50265</ele>
        <time>2024-12-06T10:02:12.000Z</time>
      </trkpt>
      <trkpt lat="43.7522" lon="6.84654">
        <ele>1175.859378</ele>
        <time>2024-12-06T10:02:13.000Z</time>
      </trkpt>
      <trkpt lat="43.75221" lon="6.84651">
        <ele>1176.156064</ele>
        <time>2024-12-06T10:02:14.000Z</time>
      </trkpt>
      <trkpt lat="43.75222" lon="6.84647">
        <ele>1176.478339</ele>
        <time>2024-12-06T10:02:15.000Z</time>
      </trkpt>
      <trkpt lat="43.75222" lon="6.84644">
        <ele>1176.823053</ele>
        <time>2024-12-06T10:02:16.000Z</time>
      </trkpt>
      <trkpt lat="43.75223" lon="6.8464">
        <ele>1177.180037</ele>
        <time>2024-12-06T10:02:17.000Z</time>
      </trkpt>
      <trkpt lat="43.75224" lon="6.84636">
        <ele>1177.513015</ele>
        <time>2024-12-06T10:02:18.000Z</time>
      </trkpt>
      <trkpt lat="43.75224" lon="6.84633">
        <ele>1177.840324</ele>
        <time>2024-12-06T10:02:19.000Z</time>
      </trkpt>
      <trkpt lat="43.75225" lon="6.84629">
        <ele>1178.162599</ele>
        <time>2024-12-06T10:02:20.000Z</time>
      </trkpt>
      <trkpt lat="43.75225" lon="6.84626">
        <ele>1178.437544</ele>
        <time>2024-12-06T10:02:21.000Z</time>
      </trkpt>
      <trkpt lat="43.75226" lon="6.84623">
        <ele>1178.71943</ele>
        <time>2024-12-06T10:02:22.000Z</time>
      </trkpt>
      <trkpt lat="43.75226" lon="6.8462">
        <ele>1179.023318</ele>
        <time>2024-12-06T10:02:23.000Z</time>
      </trkpt>
      <trkpt lat="43.75227" lon="6.84617">
        <ele>1179.298263</ele>
        <time>2024-12-06T10:02:24.000Z</time>
      </trkpt>
      <trkpt lat="43.75227" lon="6.84614">
        <ele>1179.548338</ele>
        <time>2024-12-06T10:02:25.000Z</time>
      </trkpt>
      <trkpt lat="43.75228" lon="6.84611">
        <ele>1179.828114</ele>
        <time>2024-12-06T10:02:26.000Z</time>
      </trkpt>
      <trkpt lat="43.75229" lon="6.84608">
        <ele>1180.123323</ele>
        <time>2024-12-06T10:02:27.000Z</time>
      </trkpt>
      <trkpt lat="43.75231" lon="6.84606">
        <ele>1180.415767</ele>
        <time>2024-12-06T10:02:28.000Z</time>
      </trkpt>
      <trkpt lat="43.75232" lon="6.84603">
        <ele>1180.709193</ele>
        <time>2024-12-06T10:02:29.000Z</time>
      </trkpt>
      <trkpt lat="43.75233" lon="6.846">
        <ele>1181.004402</ele>
        <time>2024-12-06T10:02:30.000Z</time>
      </trkpt>
      <trkpt lat="43.75234" lon="6.84597">
        <ele>1181.296845</ele>
        <time>2024-12-06T10:02:31.000Z</time>
      </trkpt>
      <trkpt lat="43.75235" lon="6.84595">
        <ele>1181.56232</ele>
        <time>2024-12-06T10:02:32.000Z</time>
      </trkpt>
      <trkpt lat="43.75236" lon="6.84592">
        <ele>1181.835782</ele>
        <time>2024-12-06T10:02:33.000Z</time>
      </trkpt>
      <trkpt lat="43.75237" lon="6.84589">
        <ele>1182.115158</ele>
        <time>2024-12-06T10:02:34.000Z</time>
      </trkpt>
      <trkpt lat="43.75238" lon="6.84586">
        <ele>1182.378461</ele>
        <time>2024-12-06T10:02:35.000Z</time>
      </trkpt>
      <trkpt lat="43.75239" lon="6.84584">
        <ele>1182.609484</ele>
        <time>2024-12-06T10:02:36.000Z</time>
      </trkpt>
      <trkpt lat="43.7524" lon="6.84581">
        <ele>1182.833925</ele>
        <time>2024-12-06T10:02:37.000Z</time>
      </trkpt>
      <trkpt lat="43.75241" lon="6.84579">
        <ele>1183.058366</ele>
        <time>2024-12-06T10:02:38.000Z</time>
      </trkpt>
      <trkpt lat="43.75243" lon="6.84576">
        <ele>1183.282806</ele>
        <time>2024-12-06T10:02:39.000Z</time>
      </trkpt>
      <trkpt lat="43.75243" lon="6.84573">
        <ele>1183.527995</ele>
        <time>2024-12-06T10:02:40.000Z</time>
      </trkpt>
      <trkpt lat="43.75244" lon="6.84571">
        <ele>1183.747101</ele>
        <time>2024-12-06T10:02:41.000Z</time>
      </trkpt>
      <trkpt lat="43.75245" lon="6.84568">
        <ele>1183.956748</ele>
        <time>2024-12-06T10:02:42.000Z</time>
      </trkpt>
      <trkpt lat="43.75246" lon="6.84565">
        <ele>1184.216376</ele>
        <time>2024-12-06T10:02:43.000Z</time>
      </trkpt>
      <trkpt lat="43.75247" lon="6.84562">
        <ele>1184.474329</ele>
        <time>2024-12-06T10:02:44.000Z</time>
      </trkpt>
      <trkpt lat="43.75248" lon="6.84559">
        <ele>1184.706968</ele>
        <time>2024-12-06T10:02:45.000Z</time>
      </trkpt>
      <trkpt lat="43.75249" lon="6.84557">
        <ele>1184.939608</ele>
        <time>2024-12-06T10:02:46.000Z</time>
      </trkpt>
      <trkpt lat="43.7525" lon="6.84554">
        <ele>1185.158714</ele>
        <time>2024-12-06T10:02:47.000Z</time>
      </trkpt>
      <trkpt lat="43.75251" lon="6.84552">
        <ele>1185.382466</ele>
        <time>2024-12-06T10:02:48.000Z</time>
      </trkpt>
      <trkpt lat="43.75251" lon="6.84549">
        <ele>1185.613755</ele>
        <time>2024-12-06T10:02:49.000Z</time>
      </trkpt>
      <trkpt lat="43.75252" lon="6.84546">
        <ele>1185.837507</ele>
        <time>2024-12-06T10:02:50.000Z</time>
      </trkpt>
      <trkpt lat="43.75253" lon="6.84543">
        <ele>1186.093669</ele>
        <time>2024-12-06T10:02:51.000Z</time>
      </trkpt>
      <trkpt lat="43.75254" lon="6.8454">
        <ele>1186.353975</ele>
        <time>2024-12-06T10:02:52.000Z</time>
      </trkpt>
      <trkpt lat="43.75255" lon="6.84537">
        <ele>1186.597035</ele>
        <time>2024-12-06T10:02:53.000Z</time>
      </trkpt>
      <trkpt lat="43.75256" lon="6.84534">
        <ele>1186.829675</ele>
        <time>2024-12-06T10:02:54.000Z</time>
      </trkpt>
      <trkpt lat="43.75257" lon="6.84532">
        <ele>1187.028121</ele>
        <time>2024-12-06T10:02:55.000Z</time>
      </trkpt>
      <trkpt lat="43.75257" lon="6.84529">
        <ele>1187.252737</ele>
        <time>2024-12-06T10:02:56.000Z</time>
      </trkpt>
      <trkpt lat="43.75258" lon="6.84526">
        <ele>1187.501762</ele>
        <time>2024-12-06T10:02:57.000Z</time>
      </trkpt>
      <trkpt lat="43.75259" lon="6.84523">
        <ele>1187.726202</ele>
        <time>2024-12-06T10:02:58.000Z</time>
      </trkpt>
      <trkpt lat="43.7526" lon="6.84521">
        <ele>1187.94279</ele>
        <time>2024-12-06T10:02:59.000Z</time>
      </trkpt>
      <trkpt lat="43.7526" lon="6.84518">
        <ele>1188.193813</ele>
        <time>2024-12-06T10:03:00.000Z</time>
      </trkpt>
      <trkpt lat="43.75261" lon="6.84515">
        <ele>1188.427713</ele>
        <time>2024-12-06T10:03:01.000Z</time>
      </trkpt>
      <trkpt lat="43.75261" lon="6.84511">
        <ele>1188.676709</ele>
        <time>2024-12-06T10:03:02.000Z</time>
      </trkpt>
      <trkpt lat="43.75262" lon="6.84508">
        <ele>1188.942739</ele>
        <time>2024-12-06T10:03:03.000Z</time>
      </trkpt>
      <trkpt lat="43.75262" lon="6.84505">
        <ele>1189.197751</ele>
        <time>2024-12-06T10:03:04.000Z</time>
      </trkpt>
      <trkpt lat="43.75262" lon="6.84502">
        <ele>1189.431651</ele>
        <time>2024-12-06T10:03:05.000Z</time>
      </trkpt>
      <trkpt lat="43.75263" lon="6.84499">
        <ele>1189.667709</ele>
        <time>2024-12-06T10:03:06.000Z</time>
      </trkpt>
      <trkpt lat="43.75264" lon="6.84496">
        <ele>1189.912897</ele>
        <time>2024-12-06T10:03:07.000Z</time>
      </trkpt>
      <trkpt lat="43.75264" lon="6.84493">
        <ele>1190.129485</ele>
        <time>2024-12-06T10:03:08.000Z</time>
      </trkpt>
      <trkpt lat="43.75265" lon="6.8449">
        <ele>1190.392775</ele>
        <time>2024-12-06T10:03:09.000Z</time>
      </trkpt>
      <trkpt lat="43.75266" lon="6.84487">
        <ele>1190.641839</ele>
        <time>2024-12-06T10:03:10.000Z</time>
      </trkpt>
      <trkpt lat="43.75266" lon="6.84484">
        <ele>1190.877896</ele>
        <time>2024-12-06T10:03:11.000Z</time>
      </trkpt>
      <trkpt lat="43.75267" lon="6.84481">
        <ele>1191.113954</ele>
        <time>2024-12-06T10:03:12.000Z</time>
      </trkpt>
      <trkpt lat="43.75267" lon="6.84478">
        <ele>1191.342547</ele>
        <time>2024-12-06T10:03:13.000Z</time>
      </trkpt>
      <trkpt lat="43.75268" lon="6.84475">
        <ele>1191.596027</ele>
        <time>2024-12-06T10:03:14.000Z</time>
      </trkpt>
      <trkpt lat="43.75268" lon="6.84472">
        <ele>1191.83747</ele>
        <time>2024-12-06T10:03:15.000Z</time>
      </trkpt>
      <trkpt lat="43.75269" lon="6.84469">
        <ele>1192.066063</ele>
        <time>2024-12-06T10:03:16.000Z</time>
      </trkpt>
      <trkpt lat="43.75269" lon="6.84466">
        <ele>1192.299963</ele>
        <time>2024-12-06T10:03:17.000Z</time>
      </trkpt>
      <trkpt lat="43.7527" lon="6.84463">
        <ele>1192.530955</ele>
        <time>2024-12-06T10:03:18.000Z</time>
      </trkpt>
      <trkpt lat="43.7527" lon="6.84459">
        <ele>1192.795073</ele>
        <time>2024-12-06T10:03:19.000Z</time>
      </trkpt>
      <trkpt lat="43.7527" lon="6.84456">
        <ele>1193.042479</ele>
        <time>2024-12-06T10:03:20.000Z</time>
      </trkpt>
      <trkpt lat="43.75271" lon="6.84453">
        <ele>1193.276379</ele>
        <time>2024-12-06T10:03:21.000Z</time>
      </trkpt>
      <trkpt lat="43.75271" lon="6.8445">
        <ele>1193.517822</ele>
        <time>2024-12-06T10:03:22.000Z</time>
      </trkpt>
      <trkpt lat="43.75271" lon="6.84447">
        <ele>1193.766817</ele>
        <time>2024-12-06T10:03:23.000Z</time>
      </trkpt>
      <trkpt lat="43.75272" lon="6.84444">
        <ele>1194.014223</ele>
        <time>2024-12-06T10:03:24.000Z</time>
      </trkpt>
      <trkpt lat="43.75272" lon="6.8444">
        <ele>1194.261629</ele>
        <time>2024-12-06T10:03:25.000Z</time>
      </trkpt>
      <trkpt lat="43.75272" lon="6.84437">
        <ele>1194.529979</ele>
        <time>2024-12-06T10:03:26.000Z</time>
      </trkpt>
      <trkpt lat="43.75272" lon="6.84433">
        <ele>1194.792599</ele>
        <time>2024-12-06T10:03:27.000Z</time>
      </trkpt>
      <trkpt lat="43.75273" lon="6.8443">
        <ele>1195.028657</ele>
        <time>2024-12-06T10:03:28.000Z</time>
      </trkpt>
      <trkpt lat="43.75273" lon="6.84427">
        <ele>1195.260864</ele>
        <time>2024-12-06T10:03:29.000Z</time>
      </trkpt>
      <trkpt lat="43.75273" lon="6.84424">
        <ele>1195.493072</ele>
        <time>2024-12-06T10:03:30.000Z</time>
      </trkpt>
      <trkpt lat="43.75274" lon="6.84421">
        <ele>1195.724064</ele>
        <time>2024-12-06T10:03:31.000Z</time>
      </trkpt>
      <trkpt lat="43.75274" lon="6.84419">
        <ele>1195.939005</ele>
        <time>2024-12-06T10:03:32.000Z</time>
      </trkpt>
      <trkpt lat="43.75273" lon="6.84416">
        <ele>1196.180449</ele>
        <time>2024-12-06T10:03:33.000Z</time>
      </trkpt>
      <trkpt lat="43.75273" lon="6.84412">
        <ele>1196.437002</ele>
        <time>2024-12-06T10:03:34.000Z</time>
      </trkpt>
      <trkpt lat="43.75272" lon="6.84409">
        <ele>1196.703887</ele>
        <time>2024-12-06T10:03:35.000Z</time>
      </trkpt>
      <trkpt lat="43.75271" lon="6.84406">
        <ele>1196.966813</ele>
        <time>2024-12-06T10:03:36.000Z</time>
      </trkpt>
      <trkpt lat="43.75269" lon="6.84403">
        <ele>1197.252731</ele>
        <time>2024-12-06T10:03:37.000Z</time>
      </trkpt>
      <trkpt lat="43.75268" lon="6.844">
        <ele>1197.526205</ele>
        <time>2024-12-06T10:03:38.000Z</time>
      </trkpt>
      <trkpt lat="43.75266" lon="6.84397">
        <ele>1197.78133</ele>
        <time>2024-12-06T10:03:39.000Z</time>
      </trkpt>
      <trkpt lat="43.75264" lon="6.84396">
        <ele>1198.012615</ele>
        <time>2024-12-06T10:03:40.000Z</time>
      </trkpt>
      <trkpt lat="43.75263" lon="6.84395">
        <ele>1198.161283</ele>
        <time>2024-12-06T10:03:41.000Z</time>
      </trkpt>
      <trkpt lat="43.75262" lon="6.84394">
        <ele>1198.286778</ele>
        <time>2024-12-06T10:03:42.000Z</time>
      </trkpt>
      <trkpt lat="43.75261" lon="6.84394">
        <ele>1198.389713</ele>
        <time>2024-12-06T10:03:43.000Z</time>
      </trkpt>
      <trkpt lat="43.7526" lon="6.84393">
        <ele>1198.520652</ele>
        <time>2024-12-06T10:03:44.000Z</time>
      </trkpt>
      <trkpt lat="43.7526" lon="6.84392">
        <ele>1198.577856</ele>
        <time>2024-12-06T10:03:45.000Z</time>
      </trkpt>
      <trkpt lat="43.7526" lon="6.84392">
        <ele>1198.577856</ele>
        <time>2024-12-06T10:03:48.000Z</time>
      </trkpt>
      <trkpt lat="43.7526" lon="6.84392">
        <ele>1198.577856</ele>
        <time>2024-12-06T10:03:56.000Z</time>
      </trkpt>
      <trkpt lat="43.7526" lon="6.84392">
        <ele>1198.577856</ele>
        <time>2024-12-06T10:04:05.000Z</time>
      </trkpt>
      <trkpt lat="43.7526" lon="6.84392">
        <ele>1198.577856</ele>
        <time>2024-12-06T10:04:08.000Z</time>
      </trkpt>
      <trkpt lat="43.7526" lon="6.84392">
        <ele>1198.577856</ele>
        <time>2024-12-06T10:04:13.000Z</time>
      </trkpt>
      <trkpt lat="43.7526" lon="6.84392">
        <ele>1198.577856</ele>
        <time>2024-12-06T10:04:19.000Z</time>
      </trkpt>
      <trkpt lat="43.7526" lon="6.84392">
        <ele>1198.577856</ele>
        <time>2024-12-06T10:04:23.000Z</time>
      </trkpt>
      <trkpt lat="43.7526" lon="6.84392">
        <ele>1198.577856</ele>
        <time>2024-12-06T10:04:25.000Z</time>
      </trkpt>
      <trkpt lat="43.75259" lon="6.84389">
        <ele>1198.810495</ele>
        <time>2024-12-06T10:04:29.000Z</time>
      </trkpt>
      <trkpt lat="43.75258" lon="6.84386">
        <ele>1199.080945</ele>
        <time>2024-12-06T10:04:32.000Z</time>
      </trkpt>
      <trkpt lat="43.75257" lon="6.84385">
        <ele>1199.225809</ele>
        <time>2024-12-06T10:04:34.000Z</time>
      </trkpt>
      <trkpt lat="43.75256" lon="6.84386">
        <ele>1199.283525</ele>
        <time>2024-12-06T10:04:36.000Z</time>
      </trkpt>
      <trkpt lat="43.75257" lon="6.84387">
        <ele>1199.330737</ele>
        <time>2024-12-06T10:04:44.000Z</time>
      </trkpt>
      <trkpt lat="43.75256" lon="6.84386">
        <ele>1199.36349</ele>
        <time>2024-12-06T10:04:50.000Z</time>
      </trkpt>
      <trkpt lat="43.75256" lon="6.84387">
        <ele>1199.400789</ele>
        <time>2024-12-06T10:04:54.000Z</time>
      </trkpt>
      <trkpt lat="43.75256" lon="6.84387">
        <ele>1199.400789</ele>
        <time>2024-12-06T10:04:58.000Z</time>
      </trkpt>
      <trkpt lat="43.75256" lon="6.84387">
        <ele>1199.400789</ele>
        <time>2024-12-06T10:05:00.000Z</time>
      </trkpt>
      <trkpt lat="43.75256" lon="6.84387">
        <ele>1199.423791</ele>
        <time>2024-12-06T10:05:07.000Z</time>
      </trkpt>
      <trkpt lat="43.75257" lon="6.84387">
        <ele>1199.456244</ele>
        <time>2024-12-06T10:05:11.000Z</time>
      </trkpt>
      <trkpt lat="43.75257" lon="6.84386">
        <ele>1199.50608</ele>
        <time>2024-12-06T10:05:13.000Z</time>
      </trkpt>
      <trkpt lat="43.75258" lon="6.84387">
        <ele>1199.60434</ele>
        <time>2024-12-06T10:05:19.000Z</time>
      </trkpt>
      <trkpt lat="43.75258" lon="6.84386">
        <ele>1199.635009</ele>
        <time>2024-12-06T10:05:22.000Z</time>
      </trkpt>
      <trkpt lat="43.75258" lon="6.84386">
        <ele>1199.661197</ele>
        <time>2024-12-06T10:05:26.000Z</time>
      </trkpt>
      <trkpt lat="43.75258" lon="6.84386">
        <ele>1199.704341</ele>
        <time>2024-12-06T10:05:37.000Z</time>
      </trkpt>
      <trkpt lat="43.75258" lon="6.84386">
        <ele>1199.748551</ele>
        <time>2024-12-06T10:05:43.000Z</time>
      </trkpt>
      <trkpt lat="43.75258" lon="6.84386">
        <ele>1199.773884</ele>
        <time>2024-12-06T10:05:48.000Z</time>
      </trkpt>
      <trkpt lat="43.75257" lon="6.84385">
        <ele>1199.857492</ele>
        <time>2024-12-06T10:05:52.000Z</time>
      </trkpt>
      <trkpt lat="43.75258" lon="6.84385">
        <ele>1199.909867</ele>
        <time>2024-12-06T10:05:56.000Z</time>
      </trkpt>
      <trkpt lat="43.75258" lon="6.84386">
        <ele>1199.971205</ele>
        <time>2024-12-06T10:05:59.000Z</time>
      </trkpt>
      <trkpt lat="43.75257" lon="6.84386">
        <ele>1200.015026</ele>
        <time>2024-12-06T10:06:01.000Z</time>
      </trkpt>
      <trkpt lat="43.75257" lon="6.84387">
        <ele>1200.098047</ele>
        <time>2024-12-06T10:06:06.000Z</time>
      </trkpt>
      <trkpt lat="43.75257" lon="6.84386">
        <ele>1200.174044</ele>
        <time>2024-12-06T10:06:20.000Z</time>
      </trkpt>
      <trkpt lat="43.75258" lon="6.84387">
        <ele>1200.280465</ele>
        <time>2024-12-06T10:06:25.000Z</time>
      </trkpt>
      <trkpt lat="43.75258" lon="6.84388">
        <ele>1200.41464</ele>
        <time>2024-12-06T10:06:27.000Z</time>
      </trkpt>
      <trkpt lat="43.75258" lon="6.84388">
        <ele>1200.435869</ele>
        <time>2024-12-06T10:06:31.000Z</time>
      </trkpt>
      <trkpt lat="43.75258" lon="6.84388">
        <ele>1200.510565</ele>
        <time>2024-12-06T10:06:35.000Z</time>
      </trkpt>
      <trkpt lat="43.75257" lon="6.84389">
        <ele>1200.630246</ele>
        <time>2024-12-06T10:06:40.000Z</time>
      </trkpt>
      <trkpt lat="43.75257" lon="6.84389">
        <ele>1200.630246</ele>
        <time>2024-12-06T10:06:46.000Z</time>
      </trkpt>
      <trkpt lat="43.75257" lon="6.8439">
        <ele>1200.6627</ele>
        <time>2024-12-06T10:06:54.000Z</time>
      </trkpt>
      <trkpt lat="43.75257" lon="6.8439">
        <ele>1200.6627</ele>
        <time>2024-12-06T10:06:55.000Z</time>
      </trkpt>
      <trkpt lat="43.75257" lon="6.8439">
        <ele>1200.6627</ele>
        <time>2024-12-06T10:07:03.000Z</time>
      </trkpt>
      <trkpt lat="43.75257" lon="6.8439">
        <ele>1200.705157</ele>
        <time>2024-12-06T10:07:10.000Z</time>
      </trkpt>
      <trkpt lat="43.75257" lon="6.8439">
        <ele>1200.736458</ele>
        <time>2024-12-06T10:07:12.000Z</time>
      </trkpt>
      <trkpt lat="43.75257" lon="6.84389">
        <ele>1200.767127</ele>
        <time>2024-12-06T10:07:22.000Z</time>
      </trkpt>
      <trkpt lat="43.75256" lon="6.84389">
        <ele>1200.832596</ele>
        <time>2024-12-06T10:07:28.000Z</time>
      </trkpt>
      <trkpt lat="43.75254" lon="6.84387">
        <ele>1201.081705</ele>
        <time>2024-12-06T10:07:59.000Z</time>
      </trkpt>
      <trkpt lat="43.75252" lon="6.84385">
        <ele>1201.343584</ele>
        <time>2024-12-06T10:08:00.000Z</time>
      </trkpt>
      <trkpt lat="43.7525" lon="6.84383">
        <ele>1201.595302</ele>
        <time>2024-12-06T10:08:01.000Z</time>
      </trkpt>
      <trkpt lat="43.75243" lon="6.84372">
        <ele>1202.572946</ele>
        <time>2024-12-06T10:08:04.000Z</time>
      </trkpt>
      <trkpt lat="43.75241" lon="6.84367">
        <ele>1202.94917</ele>
        <time>2024-12-06T10:08:05.000Z</time>
      </trkpt>
      <trkpt lat="43.75238" lon="6.84359">
        <ele>1203.563887</ele>
        <time>2024-12-06T10:08:07.000Z</time>
      </trkpt>
      <trkpt lat="43.75236" lon="6.84355">
        <ele>1203.871107</ele>
        <time>2024-12-06T10:08:08.000Z</time>
      </trkpt>
      <trkpt lat="43.75235" lon="6.84351">
        <ele>1204.157215</ele>
        <time>2024-12-06T10:08:09.000Z</time>
      </trkpt>
      <trkpt lat="43.75234" lon="6.84347">
        <ele>1204.428225</ele>
        <time>2024-12-06T10:08:10.000Z</time>
      </trkpt>
      <trkpt lat="43.75234" lon="6.84335">
        <ele>1205.284312</ele>
        <time>2024-12-06T10:08:13.000Z</time>
      </trkpt>
      <trkpt lat="43.75235" lon="6.84331">
        <ele>1205.570759</ele>
        <time>2024-12-06T10:08:14.000Z</time>
      </trkpt>
      <trkpt lat="43.75236" lon="6.84327">
        <ele>1205.842015</ele>
        <time>2024-12-06T10:08:15.000Z</time>
      </trkpt>
      <trkpt lat="43.75239" lon="6.84325">
        <ele>1206.112628</ele>
        <time>2024-12-06T10:08:16.000Z</time>
      </trkpt>
      <trkpt lat="43.75241" lon="6.84325">
        <ele>1206.355548</ele>
        <time>2024-12-06T10:08:17.000Z</time>
      </trkpt>
      <trkpt lat="43.75244" lon="6.84326">
        <ele>1206.587491</ele>
        <time>2024-12-06T10:08:18.000Z</time>
      </trkpt>
      <trkpt lat="43.75246" lon="6.84328">
        <ele>1206.873028</ele>
        <time>2024-12-06T10:08:19.000Z</time>
      </trkpt>
      <trkpt lat="43.7525" lon="6.84334">
        <ele>1207.382798</ele>
        <time>2024-12-06T10:08:21.000Z</time>
      </trkpt>
      <trkpt lat="43.75251" lon="6.84338">
        <ele>1207.671063</ele>
        <time>2024-12-06T10:08:22.000Z</time>
      </trkpt>
      <trkpt lat="43.75253" lon="6.84341">
        <ele>1207.962183</ele>
        <time>2024-12-06T10:08:23.000Z</time>
      </trkpt>
      <trkpt lat="43.75254" lon="6.84345">
        <ele>1208.23549</ele>
        <time>2024-12-06T10:08:24.000Z</time>
      </trkpt>
      <trkpt lat="43.75256" lon="6.84348">
        <ele>1208.506745</ele>
        <time>2024-12-06T10:08:25.000Z</time>
      </trkpt>
      <trkpt lat="43.75257" lon="6.84352">
        <ele>1208.75801</ele>
        <time>2024-12-06T10:08:26.000Z</time>
      </trkpt>
      <trkpt lat="43.75258" lon="6.84355">
        <ele>1208.993115</ele>
        <time>2024-12-06T10:08:27.000Z</time>
      </trkpt>
      <trkpt lat="43.7526" lon="6.84358">
        <ele>1209.215614</ele>
        <time>2024-12-06T10:08:28.000Z</time>
      </trkpt>
      <trkpt lat="43.75261" lon="6.8436">
        <ele>1209.466173</ele>
        <time>2024-12-06T10:08:29.000Z</time>
      </trkpt>
      <trkpt lat="43.75264" lon="6.84363">
        <ele>1209.718177</ele>
        <time>2024-12-06T10:08:30.000Z</time>
      </trkpt>
      <trkpt lat="43.75266" lon="6.84365">
        <ele>1209.950337</ele>
        <time>2024-12-06T10:08:31.000Z</time>
      </trkpt>
      <trkpt lat="43.75268" lon="6.84366">
        <ele>1210.149522</ele>
        <time>2024-12-06T10:08:32.000Z</time>
      </trkpt>
      <trkpt lat="43.75269" lon="6.84368">
        <ele>1210.348706</ele>
        <time>2024-12-06T10:08:33.000Z</time>
      </trkpt>
      <trkpt lat="43.75271" lon="6.84369">
        <ele>1210.520391</ele>
        <time>2024-12-06T10:08:34.000Z</time>
      </trkpt>
      <trkpt lat="43.75272" lon="6.8437">
        <ele>1210.645967</ele>
        <time>2024-12-06T10:08:35.000Z</time>
      </trkpt>
      <trkpt lat="43.75273" lon="6.84371">
        <ele>1210.782959</ele>
        <time>2024-12-06T10:08:36.000Z</time>
      </trkpt>
      <trkpt lat="43.75275" lon="6.84372">
        <ele>1210.912576</ele>
        <time>2024-12-06T10:08:37.000Z</time>
      </trkpt>
      <trkpt lat="43.75276" lon="6.84373">
        <ele>1211.060984</ele>
        <time>2024-12-06T10:08:38.000Z</time>
      </trkpt>
      <trkpt lat="43.75278" lon="6.84375">
        <ele>1211.270456</ele>
        <time>2024-12-06T10:08:39.000Z</time>
      </trkpt>
      <trkpt lat="43.7528" lon="6.84377">
        <ele>1211.483515</ele>
        <time>2024-12-06T10:08:40.000Z</time>
      </trkpt>
      <trkpt lat="43.75281" lon="6.84379">
        <ele>1211.69436</ele>
        <time>2024-12-06T10:08:41.000Z</time>
      </trkpt>
      <trkpt lat="43.75283" lon="6.84381">
        <ele>1211.909714</ele>
        <time>2024-12-06T10:08:42.000Z</time>
      </trkpt>
      <trkpt lat="43.75285" lon="6.84384">
        <ele>1212.113748</ele>
        <time>2024-12-06T10:08:43.000Z</time>
      </trkpt>
      <trkpt lat="43.75286" lon="6.84385">
        <ele>1212.315938</ele>
        <time>2024-12-06T10:08:44.000Z</time>
      </trkpt>
      <trkpt lat="43.75288" lon="6.84387">
        <ele>1212.540409</ele>
        <time>2024-12-06T10:08:45.000Z</time>
      </trkpt>
      <trkpt lat="43.7529" lon="6.84389">
        <ele>1212.764481</ele>
        <time>2024-12-06T10:08:46.000Z</time>
      </trkpt>
      <trkpt lat="43.75293" lon="6.8439">
        <ele>1212.980179</ele>
        <time>2024-12-06T10:08:47.000Z</time>
      </trkpt>
      <trkpt lat="43.75294" lon="6.84392">
        <ele>1213.193238</ele>
        <time>2024-12-06T10:08:48.000Z</time>
      </trkpt>
      <trkpt lat="43.75296" lon="6.84394">
        <ele>1213.399693</ele>
        <time>2024-12-06T10:08:49.000Z</time>
      </trkpt>
      <trkpt lat="43.75298" lon="6.84396">
        <ele>1213.594769</ele>
        <time>2024-12-06T10:08:50.000Z</time>
      </trkpt>
      <trkpt lat="43.753" lon="6.84398">
        <ele>1213.823341</ele>
        <time>2024-12-06T10:08:51.000Z</time>
      </trkpt>
      <trkpt lat="43.75302" lon="6.844">
        <ele>1214.071202</ele>
        <time>2024-12-06T10:08:52.000Z</time>
      </trkpt>
      <trkpt lat="43.75304" lon="6.84401">
        <ele>1214.315704</ele>
        <time>2024-12-06T10:08:53.000Z</time>
      </trkpt>
      <trkpt lat="43.75306" lon="6.84403">
        <ele>1214.528763</ele>
        <time>2024-12-06T10:08:54.000Z</time>
      </trkpt>
      <trkpt lat="43.75308" lon="6.84405">
        <ele>1214.776563</ele>
        <time>2024-12-06T10:08:55.000Z</time>
      </trkpt>
      <trkpt lat="43.7531" lon="6.84408">
        <ele>1214.998767</ele>
        <time>2024-12-06T10:08:56.000Z</time>
      </trkpt>
      <trkpt lat="43.75312" lon="6.84409">
        <ele>1215.208123</ele>
        <time>2024-12-06T10:08:57.000Z</time>
      </trkpt>
      <trkpt lat="43.75314" lon="6.84411">
        <ele>1215.433248</ele>
        <time>2024-12-06T10:08:58.000Z</time>
      </trkpt>
      <trkpt lat="43.75316" lon="6.84413">
        <ele>1215.639052</ele>
        <time>2024-12-06T10:08:59.000Z</time>
      </trkpt>
      <trkpt lat="43.75318" lon="6.84415">
        <ele>1215.834128</ele>
        <time>2024-12-06T10:09:00.000Z</time>
      </trkpt>
      <trkpt lat="43.7532" lon="6.84416">
        <ele>1216.039615</ele>
        <time>2024-12-06T10:09:01.000Z</time>
      </trkpt>
      <trkpt lat="43.75321" lon="6.84418">
        <ele>1216.245103</ele>
        <time>2024-12-06T10:09:02.000Z</time>
      </trkpt>
      <trkpt lat="43.75323" lon="6.8442">
        <ele>1216.458161</ele>
        <time>2024-12-06T10:09:03.000Z</time>
      </trkpt>
      <trkpt lat="43.75325" lon="6.84421">
        <ele>1216.649225</ele>
        <time>2024-12-06T10:09:04.000Z</time>
      </trkpt>
      <trkpt lat="43.75327" lon="6.84422">
        <ele>1216.839811</ele>
        <time>2024-12-06T10:09:05.000Z</time>
      </trkpt>
      <trkpt lat="43.75329" lon="6.84423">
        <ele>1217.027889</ele>
        <time>2024-12-06T10:09:06.000Z</time>
      </trkpt>
      <trkpt lat="43.75331" lon="6.84423">
        <ele>1217.212974</ele>
        <time>2024-12-06T10:09:07.000Z</time>
      </trkpt>
      <trkpt lat="43.75333" lon="6.84422">
        <ele>1217.412158</ele>
        <time>2024-12-06T10:09:08.000Z</time>
      </trkpt>
      <trkpt lat="43.75334" lon="6.84419">
        <ele>1217.61619</ele>
        <time>2024-12-06T10:09:09.000Z</time>
      </trkpt>
      <trkpt lat="43.75336" lon="6.84417">
        <ele>1217.822104</ele>
        <time>2024-12-06T10:09:10.000Z</time>
      </trkpt>
      <trkpt lat="43.75337" lon="6.84414">
        <ele>1218.029315</ele>
        <time>2024-12-06T10:09:11.000Z</time>
      </trkpt>
      <trkpt lat="43.75338" lon="6.84411">
        <ele>1218.236464</ele>
        <time>2024-12-06T10:09:12.000Z</time>
      </trkpt>
      <trkpt lat="43.75338" lon="6.84408">
        <ele>1218.466905</ele>
        <time>2024-12-06T10:09:13.000Z</time>
      </trkpt>
      <trkpt lat="43.7534" lon="6.84406">
        <ele>1218.679214</ele>
        <time>2024-12-06T10:09:14.000Z</time>
      </trkpt>
      <trkpt lat="43.75341" lon="6.84403">
        <ele>1218.897234</ele>
        <time>2024-12-06T10:09:15.000Z</time>
      </trkpt>
      <trkpt lat="43.75342" lon="6.84401">
        <ele>1219.103989</ele>
        <time>2024-12-06T10:09:16.000Z</time>
      </trkpt>
      <trkpt lat="43.75343" lon="6.84398">
        <ele>1219.31166</ele>
        <time>2024-12-06T10:09:17.000Z</time>
      </trkpt>
      <trkpt lat="43.75344" lon="6.84395">
        <ele>1219.541929</ele>
        <time>2024-12-06T10:09:18.000Z</time>
      </trkpt>
      <trkpt lat="43.75345" lon="6.84392">
        <ele>1219.779974</ele>
        <time>2024-12-06T10:09:19.000Z</time>
      </trkpt>
      <trkpt lat="43.75347" lon="6.84389">
        <ele>1220.01032</ele>
        <time>2024-12-06T10:09:20.000Z</time>
      </trkpt>
      <trkpt lat="43.75348" lon="6.84386">
        <ele>1220.236074</ele>
        <time>2024-12-06T10:09:21.000Z</time>
      </trkpt>
      <trkpt lat="43.75349" lon="6.84383">
        <ele>1220.46642</ele>
        <time>2024-12-06T10:09:22.000Z</time>
      </trkpt>
      <trkpt lat="43.7535" lon="6.8438">
        <ele>1220.68396</ele>
        <time>2024-12-06T10:09:23.000Z</time>
      </trkpt>
      <trkpt lat="43.75351" lon="6.84378">
        <ele>1220.891488</ele>
        <time>2024-12-06T10:09:24.000Z</time>
      </trkpt>
      <trkpt lat="43.75352" lon="6.84375">
        <ele>1221.121757</ele>
        <time>2024-12-06T10:09:25.000Z</time>
      </trkpt>
      <trkpt lat="43.75352" lon="6.84371">
        <ele>1221.358802</ele>
        <time>2024-12-06T10:09:26.000Z</time>
      </trkpt>
      <trkpt lat="43.75353" lon="6.84368">
        <ele>1221.585685</ele>
        <time>2024-12-06T10:09:27.000Z</time>
      </trkpt>
      <trkpt lat="43.75354" lon="6.84365">
        <ele>1221.813542</ele>
        <time>2024-12-06T10:09:28.000Z</time>
      </trkpt>
      <trkpt lat="43.75354" lon="6.84362">
        <ele>1222.048078</ele>
        <time>2024-12-06T10:09:29.000Z</time>
      </trkpt>
      <trkpt lat="43.75355" lon="6.84358">
        <ele>1222.280468</ele>
        <time>2024-12-06T10:09:30.000Z</time>
      </trkpt>
      <trkpt lat="43.75356" lon="6.84355">
        <ele>1222.513853</ele>
        <time>2024-12-06T10:09:31.000Z</time>
      </trkpt>
      <trkpt lat="43.75356" lon="6.84352">
        <ele>1222.728397</ele>
        <time>2024-12-06T10:09:32.000Z</time>
      </trkpt>
      <trkpt lat="43.75357" lon="6.84349">
        <ele>1222.952249</ele>
        <time>2024-12-06T10:09:33.000Z</time>
      </trkpt>
      <trkpt lat="43.75358" lon="6.84346">
        <ele>1223.176138</ele>
        <time>2024-12-06T10:09:34.000Z</time>
      </trkpt>
      <trkpt lat="43.75359" lon="6.84343">
        <ele>1223.396542</ele>
        <time>2024-12-06T10:09:35.000Z</time>
      </trkpt>
      <trkpt lat="43.75359" lon="6.8434">
        <ele>1223.633587</ele>
        <time>2024-12-06T10:09:36.000Z</time>
      </trkpt>
      <trkpt lat="43.7536" lon="6.84337">
        <ele>1223.866971</ele>
        <time>2024-12-06T10:09:37.000Z</time>
      </trkpt>
      <trkpt lat="43.75361" lon="6.84333">
        <ele>1224.104016</ele>
        <time>2024-12-06T10:09:38.000Z</time>
      </trkpt>
      <trkpt lat="43.75361" lon="6.8433">
        <ele>1224.347682</ele>
        <time>2024-12-06T10:09:39.000Z</time>
      </trkpt>
      <trkpt lat="43.75362" lon="6.84326">
        <ele>1224.607275</ele>
        <time>2024-12-06T10:09:40.000Z</time>
      </trkpt>
      <trkpt lat="43.75363" lon="6.84323">
        <ele>1224.853919</ele>
        <time>2024-12-06T10:09:41.000Z</time>
      </trkpt>
      <trkpt lat="43.75364" lon="6.8432">
        <ele>1225.09027</ele>
        <time>2024-12-06T10:09:42.000Z</time>
      </trkpt>
      <trkpt lat="43.75366" lon="6.84317">
        <ele>1225.347034</ele>
        <time>2024-12-06T10:09:43.000Z</time>
      </trkpt>
      <trkpt lat="43.75366" lon="6.84313">
        <ele>1225.603088</ele>
        <time>2024-12-06T10:09:44.000Z</time>
      </trkpt>
      <trkpt lat="43.75367" lon="6.8431">
        <ele>1225.843392</ele>
        <time>2024-12-06T10:09:45.000Z</time>
      </trkpt>
      <trkpt lat="43.75368" lon="6.84307">
        <ele>1226.07111</ele>
        <time>2024-12-06T10:09:46.000Z</time>
      </trkpt>
      <trkpt lat="43.7537" lon="6.84304">
        <ele>1226.295501</ele>
        <time>2024-12-06T10:09:47.000Z</time>
      </trkpt>
      <trkpt lat="43.75371" lon="6.84302">
        <ele>1226.50737</ele>
        <time>2024-12-06T10:09:48.000Z</time>
      </trkpt>
      <trkpt lat="43.75373" lon="6.84302">
        <ele>1226.700184</ele>
        <time>2024-12-06T10:09:49.000Z</time>
      </trkpt>
      <trkpt lat="43.75375" lon="6.84303">
        <ele>1226.898823</ele>
        <time>2024-12-06T10:09:50.000Z</time>
      </trkpt>
      <trkpt lat="43.75377" lon="6.84305">
        <ele>1227.109192</ele>
        <time>2024-12-06T10:09:51.000Z</time>
      </trkpt>
      <trkpt lat="43.75378" lon="6.84308">
        <ele>1227.330671</ele>
        <time>2024-12-06T10:09:52.000Z</time>
      </trkpt>
      <trkpt lat="43.75378" lon="6.84311">
        <ele>1227.532581</ele>
        <time>2024-12-06T10:09:53.000Z</time>
      </trkpt>
      <trkpt lat="43.75378" lon="6.84313">
        <ele>1227.732452</ele>
        <time>2024-12-06T10:09:54.000Z</time>
      </trkpt>
      <trkpt lat="43.75378" lon="6.84316">
        <ele>1227.933233</ele>
        <time>2024-12-06T10:09:55.000Z</time>
      </trkpt>
      <trkpt lat="43.75378" lon="6.84319">
        <ele>1228.123193</ele>
        <time>2024-12-06T10:09:56.000Z</time>
      </trkpt>
      <trkpt lat="43.75378" lon="6.84322">
        <ele>1228.317114</ele>
        <time>2024-12-06T10:09:57.000Z</time>
      </trkpt>
      <trkpt lat="43.75378" lon="6.84325">
        <ele>1228.523877</ele>
        <time>2024-12-06T10:09:58.000Z</time>
      </trkpt>
      <trkpt lat="43.75378" lon="6.84328">
        <ele>1228.710209</ele>
        <time>2024-12-06T10:09:59.000Z</time>
      </trkpt>
      <trkpt lat="43.75378" lon="6.84331">
        <ele>1228.934061</ele>
        <time>2024-12-06T10:10:00.000Z</time>
      </trkpt>
      <trkpt lat="43.75379" lon="6.84334">
        <ele>1229.14197</ele>
        <time>2024-12-06T10:10:01.000Z</time>
      </trkpt>
      <trkpt lat="43.7538" lon="6.84337">
        <ele>1229.356513</ele>
        <time>2024-12-06T10:10:02.000Z</time>
      </trkpt>
      <trkpt lat="43.7538" lon="6.84339">
        <ele>1229.567249</ele>
        <time>2024-12-06T10:10:03.000Z</time>
      </trkpt>
      <trkpt lat="43.75381" lon="6.84342">
        <ele>1229.784787</ele>
        <time>2024-12-06T10:10:04.000Z</time>
      </trkpt>
      <trkpt lat="43.75382" lon="6.84345">
        <ele>1230.008639</ele>
        <time>2024-12-06T10:10:05.000Z</time>
      </trkpt>
      <trkpt lat="43.75382" lon="6.84349">
        <ele>1230.231037</ele>
        <time>2024-12-06T10:10:06.000Z</time>
      </trkpt>
      <trkpt lat="43.75382" lon="6.84351">
        <ele>1230.426127</ele>
        <time>2024-12-06T10:10:07.000Z</time>
      </trkpt>
      <trkpt lat="43.75383" lon="6.84354">
        <ele>1230.62961</ele>
        <time>2024-12-06T10:10:08.000Z</time>
      </trkpt>
      <trkpt lat="43.75383" lon="6.84357">
        <ele>1230.848527</ele>
        <time>2024-12-06T10:10:09.000Z</time>
      </trkpt>
      <trkpt lat="43.75384" lon="6.84361">
        <ele>1231.091443</ele>
        <time>2024-12-06T10:10:10.000Z</time>
      </trkpt>
      <trkpt lat="43.75384" lon="6.84364">
        <ele>1231.332667</ele>
        <time>2024-12-06T10:10:11.000Z</time>
      </trkpt>
      <trkpt lat="43.75384" lon="6.84368">
        <ele>1231.574079</ele>
        <time>2024-12-06T10:10:12.000Z</time>
      </trkpt>
      <trkpt lat="43.75384" lon="6.84371">
        <ele>1231.808605</ele>
        <time>2024-12-06T10:10:13.000Z</time>
      </trkpt>
      <trkpt lat="43.75384" lon="6.84374">
        <ele>1232.023111</ele>
        <time>2024-12-06T10:10:14.000Z</time>
      </trkpt>
      <trkpt lat="43.75384" lon="6.84378">
        <ele>1232.265088</ele>
        <time>2024-12-06T10:10:15.000Z</time>
      </trkpt>
      <trkpt lat="43.75384" lon="6.84382">
        <ele>1232.513204</ele>
        <time>2024-12-06T10:10:16.000Z</time>
      </trkpt>
      <trkpt lat="43.75384" lon="6.84385">
        <ele>1232.76839</ele>
        <time>2024-12-06T10:10:17.000Z</time>
      </trkpt>
      <trkpt lat="43.75384" lon="6.84389">
        <ele>1233.023577</ele>
        <time>2024-12-06T10:10:18.000Z</time>
      </trkpt>
      <trkpt lat="43.75384" lon="6.84393">
        <ele>1233.280186</ele>
        <time>2024-12-06T10:10:19.000Z</time>
      </trkpt>
      <trkpt lat="43.75383" lon="6.84396">
        <ele>1233.539619</ele>
        <time>2024-12-06T10:10:20.000Z</time>
      </trkpt>
      <trkpt lat="43.75383" lon="6.844">
        <ele>1233.796228</ele>
        <time>2024-12-06T10:10:21.000Z</time>
      </trkpt>
      <trkpt lat="43.75382" lon="6.84404">
        <ele>1234.064312</ele>
        <time>2024-12-06T10:10:22.000Z</time>
      </trkpt>
      <trkpt lat="43.75382" lon="6.84408">
        <ele>1234.327772</ele>
        <time>2024-12-06T10:10:23.000Z</time>
      </trkpt>
      <trkpt lat="43.75382" lon="6.84411">
        <ele>1234.593982</ele>
        <time>2024-12-06T10:10:24.000Z</time>
      </trkpt>
      <trkpt lat="43.75381" lon="6.84415">
        <ele>1234.875548</ele>
        <time>2024-12-06T10:10:25.000Z</time>
      </trkpt>
      <trkpt lat="43.7538" lon="6.8442">
        <ele>1235.163866</ele>
        <time>2024-12-06T10:10:26.000Z</time>
      </trkpt>
      <trkpt lat="43.7538" lon="6.84423">
        <ele>1235.441335</ele>
        <time>2024-12-06T10:10:27.000Z</time>
      </trkpt>
      <trkpt lat="43.75379" lon="6.84427">
        <ele>1235.710836</ele>
        <time>2024-12-06T10:10:28.000Z</time>
      </trkpt>
      <trkpt lat="43.75379" lon="6.84431">
        <ele>1235.981615</ele>
        <time>2024-12-06T10:10:29.000Z</time>
      </trkpt>
      <trkpt lat="43.75379" lon="6.84435">
        <ele>1236.252394</ele>
        <time>2024-12-06T10:10:30.000Z</time>
      </trkpt>
      <trkpt lat="43.75379" lon="6.84438">
        <ele>1236.522457</ele>
        <time>2024-12-06T10:10:31.000Z</time>
      </trkpt>
      <trkpt lat="43.75378" lon="6.84442">
        <ele>1236.800325</ele>
        <time>2024-12-06T10:10:32.000Z</time>
      </trkpt>
      <trkpt lat="43.75378" lon="6.84446">
        <ele>1237.077495</ele>
        <time>2024-12-06T10:10:33.000Z</time>
      </trkpt>
      <trkpt lat="43.75379" lon="6.8445">
        <ele>1237.354839</ele>
        <time>2024-12-06T10:10:34.000Z</time>
      </trkpt>
      <trkpt lat="43.75378" lon="6.84454">
        <ele>1237.626511</ele>
        <time>2024-12-06T10:10:35.000Z</time>
      </trkpt>
      <trkpt lat="43.75378" lon="6.84458">
        <ele>1237.896574</ele>
        <time>2024-12-06T10:10:36.000Z</time>
      </trkpt>
      <trkpt lat="43.75378" lon="6.84462">
        <ele>1238.166816</ele>
        <time>2024-12-06T10:10:37.000Z</time>
      </trkpt>
      <trkpt lat="43.75378" lon="6.84465">
        <ele>1238.444161</ele>
        <time>2024-12-06T10:10:38.000Z</time>
      </trkpt>
      <trkpt lat="43.75378" lon="6.8447">
        <ele>1238.75702</ele>
        <time>2024-12-06T10:10:39.000Z</time>
      </trkpt>
      <trkpt lat="43.75378" lon="6.84474">
        <ele>1239.055673</ele>
        <time>2024-12-06T10:10:40.000Z</time>
      </trkpt>
      <trkpt lat="43.75379" lon="6.84478">
        <ele>1239.34772</ele>
        <time>2024-12-06T10:10:41.000Z</time>
      </trkpt>
      <trkpt lat="43.75379" lon="6.84482">
        <ele>1239.63927</ele>
        <time>2024-12-06T10:10:42.000Z</time>
      </trkpt>
      <trkpt lat="43.75379" lon="6.84486">
        <ele>1239.924227</ele>
        <time>2024-12-06T10:10:43.000Z</time>
      </trkpt>
      <trkpt lat="43.7538" lon="6.84489">
        <ele>1240.159186</ele>
        <time>2024-12-06T10:10:44.000Z</time>
      </trkpt>
      <trkpt lat="43.75381" lon="6.84493">
        <ele>1240.439947</ele>
        <time>2024-12-06T10:10:45.000Z</time>
      </trkpt>
      <trkpt lat="43.75382" lon="6.84497">
        <ele>1240.751592</ele>
        <time>2024-12-06T10:10:46.000Z</time>
      </trkpt>
      <trkpt lat="43.75384" lon="6.845">
        <ele>1241.010897</ele>
        <time>2024-12-06T10:10:47.000Z</time>
      </trkpt>
      <trkpt lat="43.75385" lon="6.84502">
        <ele>1241.218341</ele>
        <time>2024-12-06T10:10:48.000Z</time>
      </trkpt>
      <trkpt lat="43.75387" lon="6.84506">
        <ele>1241.5295</ele>
        <time>2024-12-06T10:10:49.000Z</time>
      </trkpt>
      <trkpt lat="43.75389" lon="6.84509">
        <ele>1241.806114</ele>
        <time>2024-12-06T10:10:50.000Z</time>
      </trkpt>
      <trkpt lat="43.7539" lon="6.84512">
        <ele>1242.071999</ele>
        <time>2024-12-06T10:10:51.000Z</time>
      </trkpt>
      <trkpt lat="43.75391" lon="6.84515">
        <ele>1242.336765</ele>
        <time>2024-12-06T10:10:52.000Z</time>
      </trkpt>
      <trkpt lat="43.75391" lon="6.84519">
        <ele>1242.602649</ele>
        <time>2024-12-06T10:10:53.000Z</time>
      </trkpt>
      <trkpt lat="43.75391" lon="6.84523">
        <ele>1242.886926</ele>
        <time>2024-12-06T10:10:54.000Z</time>
      </trkpt>
      <trkpt lat="43.75391" lon="6.84527">
        <ele>1243.178972</ele>
        <time>2024-12-06T10:10:55.000Z</time>
      </trkpt>
      <trkpt lat="43.75391" lon="6.84531">
        <ele>1243.45684</ele>
        <time>2024-12-06T10:10:56.000Z</time>
      </trkpt>
      <trkpt lat="43.75391" lon="6.84535">
        <ele>1243.727081</ele>
        <time>2024-12-06T10:10:57.000Z</time>
      </trkpt>
      <trkpt lat="43.75391" lon="6.84539">
        <ele>1244.019128</ele>
        <time>2024-12-06T10:10:58.000Z</time>
      </trkpt>
      <trkpt lat="43.75391" lon="6.84543">
        <ele>1244.304085</ele>
        <time>2024-12-06T10:10:59.000Z</time>
      </trkpt>
      <trkpt lat="43.75392" lon="6.84547">
        <ele>1244.587471</ele>
        <time>2024-12-06T10:11:00.000Z</time>
      </trkpt>
      <trkpt lat="43.75392" lon="6.84551">
        <ele>1244.846329</ele>
        <time>2024-12-06T10:11:01.000Z</time>
      </trkpt>
      <trkpt lat="43.75392" lon="6.84555">
        <ele>1245.141836</ele>
        <time>2024-12-06T10:11:02.000Z</time>
      </trkpt>
      <trkpt lat="43.75393" lon="6.84559">
        <ele>1245.423337</ele>
        <time>2024-12-06T10:11:03.000Z</time>
      </trkpt>
      <trkpt lat="43.75393" lon="6.84563">
        <ele>1245.710325</ele>
        <time>2024-12-06T10:11:04.000Z</time>
      </trkpt>
      <trkpt lat="43.75394" lon="6.84566">
        <ele>1245.984832</ele>
        <time>2024-12-06T10:11:05.000Z</time>
      </trkpt>
      <trkpt lat="43.75394" lon="6.8457">
        <ele>1246.254332</ele>
        <time>2024-12-06T10:11:06.000Z</time>
      </trkpt>
      <trkpt lat="43.75395" lon="6.84574">
        <ele>1246.530772</ele>
        <time>2024-12-06T10:11:07.000Z</time>
      </trkpt>
      <trkpt lat="43.75396" lon="6.84578">
        <ele>1246.798289</ele>
        <time>2024-12-06T10:11:08.000Z</time>
      </trkpt>
      <trkpt lat="43.75396" lon="6.84581">
        <ele>1247.06779</ele>
        <time>2024-12-06T10:11:09.000Z</time>
      </trkpt>
      <trkpt lat="43.75397" lon="6.84585">
        <ele>1247.328688</ele>
        <time>2024-12-06T10:11:10.000Z</time>
      </trkpt>
      <trkpt lat="43.75398" lon="6.84589">
        <ele>1247.612075</ele>
        <time>2024-12-06T10:11:11.000Z</time>
      </trkpt>
      <trkpt lat="43.75398" lon="6.84593">
        <ele>1247.897673</ele>
        <time>2024-12-06T10:11:12.000Z</time>
      </trkpt>
      <trkpt lat="43.75399" lon="6.84596">
        <ele>1248.178972</ele>
        <time>2024-12-06T10:11:13.000Z</time>
      </trkpt>
      <trkpt lat="43.754" lon="6.846">
        <ele>1248.446466</ele>
        <time>2024-12-06T10:11:14.000Z</time>
      </trkpt>
      <trkpt lat="43.75401" lon="6.84603">
        <ele>1248.704762</ele>
        <time>2024-12-06T10:11:15.000Z</time>
      </trkpt>
      <trkpt lat="43.75403" lon="6.84606">
        <ele>1248.981862</ele>
        <time>2024-12-06T10:11:16.000Z</time>
      </trkpt>
      <trkpt lat="43.75404" lon="6.8461">
        <ele>1249.264534</ele>
        <time>2024-12-06T10:11:17.000Z</time>
      </trkpt>
      <trkpt lat="43.75406" lon="6.84612">
        <ele>1249.523879</ele>
        <time>2024-12-06T10:11:18.000Z</time>
      </trkpt>
      <trkpt lat="43.75408" lon="6.84615">
        <ele>1249.783183</ele>
        <time>2024-12-06T10:11:19.000Z</time>
      </trkpt>
      <trkpt lat="43.75409" lon="6.84619">
        <ele>1250.049067</ele>
        <time>2024-12-06T10:11:20.000Z</time>
      </trkpt>
      <trkpt lat="43.7541" lon="6.84622">
        <ele>1250.320179</ele>
        <time>2024-12-06T10:11:21.000Z</time>
      </trkpt>
      <trkpt lat="43.75412" lon="6.84625">
        <ele>1250.585357</ele>
        <time>2024-12-06T10:11:22.000Z</time>
      </trkpt>
      <trkpt lat="43.75413" lon="6.84628">
        <ele>1250.856468</ele>
        <time>2024-12-06T10:11:23.000Z</time>
      </trkpt>
      <trkpt lat="43.75415" lon="6.84631">
        <ele>1251.121647</ele>
        <time>2024-12-06T10:11:24.000Z</time>
      </trkpt>
      <trkpt lat="43.75416" lon="6.84635">
        <ele>1251.399785</ele>
        <time>2024-12-06T10:11:25.000Z</time>
      </trkpt>
      <trkpt lat="43.75418" lon="6.84638">
        <ele>1251.671772</ele>
        <time>2024-12-06T10:11:26.000Z</time>
      </trkpt>
      <trkpt lat="43.75419" lon="6.84641">
        <ele>1251.932694</ele>
        <time>2024-12-06T10:11:27.000Z</time>
      </trkpt>
      <trkpt lat="43.7542" lon="6.84645">
        <ele>1252.229543</ele>
        <time>2024-12-06T10:11:28.000Z</time>
      </trkpt>
      <trkpt lat="43.75422" lon="6.84648">
        <ele>1252.49848</ele>
        <time>2024-12-06T10:11:29.000Z</time>
      </trkpt>
      <trkpt lat="43.75423" lon="6.84652">
        <ele>1252.773819</ele>
        <time>2024-12-06T10:11:30.000Z</time>
      </trkpt>
      <trkpt lat="43.75424" lon="6.84655">
        <ele>1253.112597</ele>
        <time>2024-12-06T10:11:31.000Z</time>
      </trkpt>
      <trkpt lat="43.75425" lon="6.84659">
        <ele>1253.552868</ele>
        <time>2024-12-06T10:11:32.000Z</time>
      </trkpt>
      <trkpt lat="43.75425" lon="6.84662">
        <ele>1253.985791</ele>
        <time>2024-12-06T10:11:33.000Z</time>
      </trkpt>
      <trkpt lat="43.75426" lon="6.84666">
        <ele>1254.408405</ele>
        <time>2024-12-06T10:11:34.000Z</time>
      </trkpt>
      <trkpt lat="43.75427" lon="6.84669">
        <ele>1254.824966</ele>
        <time>2024-12-06T10:11:35.000Z</time>
      </trkpt>
      <trkpt lat="43.75428" lon="6.84672">
        <ele>1255.258494</ele>
        <time>2024-12-06T10:11:36.000Z</time>
      </trkpt>
      <trkpt lat="43.75429" lon="6.84676">
        <ele>1255.713983</ele>
        <time>2024-12-06T10:11:37.000Z</time>
      </trkpt>
      <trkpt lat="43.7543" lon="6.84679">
        <ele>1256.154253</ele>
        <time>2024-12-06T10:11:38.000Z</time>
      </trkpt>
      <trkpt lat="43.7543" lon="6.84683">
        <ele>1256.575586</ele>
        <time>2024-12-06T10:11:39.000Z</time>
      </trkpt>
      <trkpt lat="43.75431" lon="6.84686">
        <ele>1257.004464</ele>
        <time>2024-12-06T10:11:40.000Z</time>
      </trkpt>
      <trkpt lat="43.75432" lon="6.8469">
        <ele>1257.437991</ele>
        <time>2024-12-06T10:11:41.000Z</time>
      </trkpt>
      <trkpt lat="43.75432" lon="6.84694">
        <ele>1257.889674</ele>
        <time>2024-12-06T10:11:42.000Z</time>
      </trkpt>
      <trkpt lat="43.75433" lon="6.84697">
        <ele>1258.337495</ele>
        <time>2024-12-06T10:11:43.000Z</time>
      </trkpt>
      <trkpt lat="43.75433" lon="6.84701">
        <ele>1258.782021</ele>
        <time>2024-12-06T10:11:44.000Z</time>
      </trkpt>
      <trkpt lat="43.75434" lon="6.84704">
        <ele>1259.191775</ele>
        <time>2024-12-06T10:11:45.000Z</time>
      </trkpt>
      <trkpt lat="43.75435" lon="6.84708">
        <ele>1259.62808</ele>
        <time>2024-12-06T10:11:46.000Z</time>
      </trkpt>
      <trkpt lat="43.75435" lon="6.84712">
        <ele>1260.044306</ele>
        <time>2024-12-06T10:11:47.000Z</time>
      </trkpt>
      <trkpt lat="43.75435" lon="6.84715">
        <ele>1260.457955</ele>
        <time>2024-12-06T10:11:48.000Z</time>
      </trkpt>
      <trkpt lat="43.75435" lon="6.84718">
        <ele>1260.848005</ele>
        <time>2024-12-06T10:11:49.000Z</time>
      </trkpt>
      <trkpt lat="43.75435" lon="6.84722">
        <ele>1261.239082</ele>
        <time>2024-12-06T10:11:50.000Z</time>
      </trkpt>
      <trkpt lat="43.75435" lon="6.84724">
        <ele>1261.571355</ele>
        <time>2024-12-06T10:11:51.000Z</time>
      </trkpt>
      <trkpt lat="43.75435" lon="6.84727">
        <ele>1261.854779</ele>
        <time>2024-12-06T10:11:52.000Z</time>
      </trkpt>
      <trkpt lat="43.75436" lon="6.84729">
        <ele>1262.116633</ele>
        <time>2024-12-06T10:11:53.000Z</time>
      </trkpt>
      <trkpt lat="43.75436" lon="6.84731">
        <ele>1262.376349</ele>
        <time>2024-12-06T10:11:54.000Z</time>
      </trkpt>
      <trkpt lat="43.75437" lon="6.84732">
        <ele>1262.585166</ele>
        <time>2024-12-06T10:11:55.000Z</time>
      </trkpt>
      <trkpt lat="43.75438" lon="6.84732">
        <ele>1262.752454</ele>
        <time>2024-12-06T10:11:56.000Z</time>
      </trkpt>
      <trkpt lat="43.75439" lon="6.84731">
        <ele>1262.947457</ele>
        <time>2024-12-06T10:11:57.000Z</time>
      </trkpt>
      <trkpt lat="43.7544" lon="6.8473">
        <ele>1263.187063</ele>
        <time>2024-12-06T10:11:58.000Z</time>
      </trkpt>
      <trkpt lat="43.75441" lon="6.84727">
        <ele>1263.544721</ele>
        <time>2024-12-06T10:11:59.000Z</time>
      </trkpt>
      <trkpt lat="43.75441" lon="6.84723">
        <ele>1263.934428</ele>
        <time>2024-12-06T10:12:00.000Z</time>
      </trkpt>
      <trkpt lat="43.75441" lon="6.8472">
        <ele>1264.313738</ele>
        <time>2024-12-06T10:12:01.000Z</time>
      </trkpt>
      <trkpt lat="43.75441" lon="6.84717">
        <ele>1264.700376</ele>
        <time>2024-12-06T10:12:02.000Z</time>
      </trkpt>
      <trkpt lat="43.75442" lon="6.84714">
        <ele>1265.073118</ele>
        <time>2024-12-06T10:12:03.000Z</time>
      </trkpt>
      <trkpt lat="43.75443" lon="6.84712">
        <ele>1265.373037</ele>
        <time>2024-12-06T10:12:04.000Z</time>
      </trkpt>
      <trkpt lat="43.75443" lon="6.84709">
        <ele>1265.717064</ele>
        <time>2024-12-06T10:12:05.000Z</time>
      </trkpt>
      <trkpt lat="43.75443" lon="6.84706">
        <ele>1266.084609</ele>
        <time>2024-12-06T10:12:06.000Z</time>
      </trkpt>
      <trkpt lat="43.75444" lon="6.84703">
        <ele>1266.413773</ele>
        <time>2024-12-06T10:12:07.000Z</time>
      </trkpt>
      <trkpt lat="43.75444" lon="6.847">
        <ele>1266.774037</ele>
        <time>2024-12-06T10:12:08.000Z</time>
      </trkpt>
      <trkpt lat="43.75444" lon="6.84697">
        <ele>1267.134301</ele>
        <time>2024-12-06T10:12:09.000Z</time>
      </trkpt>
      <trkpt lat="43.75445" lon="6.84694">
        <ele>1267.506184</ele>
        <time>2024-12-06T10:12:10.000Z</time>
      </trkpt>
      <trkpt lat="43.75445" lon="6.84691">
        <ele>1267.875543</ele>
        <time>2024-12-06T10:12:11.000Z</time>
      </trkpt>
      <trkpt lat="43.75445" lon="6.84688">
        <ele>1268.25661</ele>
        <time>2024-12-06T10:12:12.000Z</time>
      </trkpt>
      <trkpt lat="43.75446" lon="6.84684">
        <ele>1268.643248</ele>
        <time>2024-12-06T10:12:13.000Z</time>
      </trkpt>
      <trkpt lat="43.75447" lon="6.84682">
        <ele>1268.965579</ele>
        <time>2024-12-06T10:12:14.000Z</time>
      </trkpt>
      <trkpt lat="43.75447" lon="6.84679">
        <ele>1269.299178</ele>
        <time>2024-12-06T10:12:15.000Z</time>
      </trkpt>
      <trkpt lat="43.75448" lon="6.84676">
        <ele>1269.662766</ele>
        <time>2024-12-06T10:12:16.000Z</time>
      </trkpt>
      <trkpt lat="43.75448" lon="6.84673">
        <ele>1270.041769</ele>
        <time>2024-12-06T10:12:17.000Z</time>
      </trkpt>
      <trkpt lat="43.75449" lon="6.8467">
        <ele>1270.386673</ele>
        <time>2024-12-06T10:12:18.000Z</time>
      </trkpt>
      <trkpt lat="43.75449" lon="6.84667">
        <ele>1270.742914</ele>
        <time>2024-12-06T10:12:19.000Z</time>
      </trkpt>
      <trkpt lat="43.7545" lon="6.84664">
        <ele>1271.091571</ele>
        <time>2024-12-06T10:12:20.000Z</time>
      </trkpt>
      <trkpt lat="43.75451" lon="6.84662">
        <ele>1271.441476</ele>
        <time>2024-12-06T10:12:21.000Z</time>
      </trkpt>
      <trkpt lat="43.75451" lon="6.84659">
        <ele>1271.797718</ele>
        <time>2024-12-06T10:12:22.000Z</time>
      </trkpt>
      <trkpt lat="43.75452" lon="6.84656">
        <ele>1272.123206</ele>
        <time>2024-12-06T10:12:23.000Z</time>
      </trkpt>
      <trkpt lat="43.75452" lon="6.84653">
        <ele>1272.46811</ele>
        <time>2024-12-06T10:12:24.000Z</time>
      </trkpt>
      <trkpt lat="43.75453" lon="6.8465">
        <ele>1272.824351</ele>
        <time>2024-12-06T10:12:25.000Z</time>
      </trkpt>
      <trkpt lat="43.75453" lon="6.84648">
        <ele>1273.153514</ele>
        <time>2024-12-06T10:12:26.000Z</time>
      </trkpt>
      <trkpt lat="43.75454" lon="6.84645">
        <ele>1273.44849</ele>
        <time>2024-12-06T10:12:27.000Z</time>
      </trkpt>
      <trkpt lat="43.75454" lon="6.84643">
        <ele>1273.766226</ele>
        <time>2024-12-06T10:12:28.000Z</time>
      </trkpt>
      <trkpt lat="43.75455" lon="6.8464">
        <ele>1274.11219</ele>
        <time>2024-12-06T10:12:29.000Z</time>
      </trkpt>
      <trkpt lat="43.75455" lon="6.84637">
        <ele>1274.446467</ele>
        <time>2024-12-06T10:12:30.000Z</time>
      </trkpt>
      <trkpt lat="43.75455" lon="6.84634">
        <ele>1274.753943</ele>
        <time>2024-12-06T10:12:31.000Z</time>
      </trkpt>
      <trkpt lat="43.75455" lon="6.84632">
        <ele>1275.053222</ele>
        <time>2024-12-06T10:12:32.000Z</time>
      </trkpt>
      <trkpt lat="43.75456" lon="6.84629">
        <ele>1275.36715</ele>
        <time>2024-12-06T10:12:33.000Z</time>
      </trkpt>
      <trkpt lat="43.75456" lon="6.84627">
        <ele>1275.684887</ele>
        <time>2024-12-06T10:12:34.000Z</time>
      </trkpt>
      <trkpt lat="43.75457" lon="6.84624">
        <ele>1275.998815</ele>
        <time>2024-12-06T10:12:35.000Z</time>
      </trkpt>
      <trkpt lat="43.75457" lon="6.84622">
        <ele>1276.289684</ele>
        <time>2024-12-06T10:12:36.000Z</time>
      </trkpt>
      <trkpt lat="43.75458" lon="6.8462">
        <ele>1276.549399</ele>
        <time>2024-12-06T10:12:37.000Z</time>
      </trkpt>
      <trkpt lat="43.75459" lon="6.84618">
        <ele>1276.829771</ele>
        <time>2024-12-06T10:12:38.000Z</time>
      </trkpt>
      <trkpt lat="43.75459" lon="6.84615">
        <ele>1277.138681</ele>
        <time>2024-12-06T10:12:39.000Z</time>
      </trkpt>
      <trkpt lat="43.7546" lon="6.84613">
        <ele>1277.465878</ele>
        <time>2024-12-06T10:12:40.000Z</time>
      </trkpt>
      <trkpt lat="43.75461" lon="6.84611">
        <ele>1277.760618</ele>
        <time>2024-12-06T10:12:41.000Z</time>
      </trkpt>
      <trkpt lat="43.75462" lon="6.84608">
        <ele>1278.062082</ele>
        <time>2024-12-06T10:12:42.000Z</time>
      </trkpt>
      <trkpt lat="43.75463" lon="6.84606">
        <ele>1278.381424</ele>
        <time>2024-12-06T10:12:43.000Z</time>
      </trkpt>
      <trkpt lat="43.75464" lon="6.84603">
        <ele>1278.745204</ele>
        <time>2024-12-06T10:12:44.000Z</time>
      </trkpt>
      <trkpt lat="43.75465" lon="6.84601">
        <ele>1279.061419</ele>
        <time>2024-12-06T10:12:45.000Z</time>
      </trkpt>
      <trkpt lat="43.75466" lon="6.846">
        <ele>1279.33095</ele>
        <time>2024-12-06T10:12:46.000Z</time>
      </trkpt>
      <trkpt lat="43.75468" lon="6.84598">
        <ele>1279.600222</ele>
        <time>2024-12-06T10:12:47.000Z</time>
      </trkpt>
      <trkpt lat="43.75469" lon="6.84597">
        <ele>1279.842242</ele>
        <time>2024-12-06T10:12:48.000Z</time>
      </trkpt>
      <trkpt lat="43.7547" lon="6.84595">
        <ele>1280.072043</ele>
        <time>2024-12-06T10:12:49.000Z</time>
      </trkpt>
      <trkpt lat="43.7547" lon="6.84594">
        <ele>1280.273119</ele>
        <time>2024-12-06T10:12:50.000Z</time>
      </trkpt>
      <trkpt lat="43.75471" lon="6.84593">
        <ele>1280.436717</ele>
        <time>2024-12-06T10:12:51.000Z</time>
      </trkpt>
      <trkpt lat="43.75471" lon="6.84591">
        <ele>1280.631808</ele>
        <time>2024-12-06T10:12:52.000Z</time>
      </trkpt>
      <trkpt lat="43.75472" lon="6.8459">
        <ele>1280.8097</ele>
        <time>2024-12-06T10:12:53.000Z</time>
      </trkpt>
      <trkpt lat="43.75471" lon="6.84588">
        <ele>1281.013102</ele>
        <time>2024-12-06T10:12:54.000Z</time>
      </trkpt>
      <trkpt lat="43.75471" lon="6.84587">
        <ele>1281.147187</ele>
        <time>2024-12-06T10:12:55.000Z</time>
      </trkpt>
      <trkpt lat="43.75471" lon="6.84588">
        <ele>1281.204637</ele>
        <time>2024-12-06T10:12:57.000Z</time>
      </trkpt>
      <trkpt lat="43.75471" lon="6.84587">
        <ele>1281.321692</ele>
        <time>2024-12-06T10:13:04.000Z</time>
      </trkpt>
      <trkpt lat="43.75472" lon="6.84586">
        <ele>1281.442701</ele>
        <time>2024-12-06T10:13:05.000Z</time>
      </trkpt>
      <trkpt lat="43.75472" lon="6.84584">
        <ele>1281.711021</ele>
        <time>2024-12-06T10:13:08.000Z</time>
      </trkpt>
      <trkpt lat="43.75474" lon="6.84582">
        <ele>1282.027237</ele>
        <time>2024-12-06T10:13:13.000Z</time>
      </trkpt>
      <trkpt lat="43.75474" lon="6.84582">
        <ele>1282.027237</ele>
        <time>2024-12-06T10:13:14.000Z</time>
      </trkpt>
      <trkpt lat="43.75475" lon="6.8458">
        <ele>1282.295406</ele>
        <time>2024-12-06T10:13:19.000Z</time>
      </trkpt>
      <trkpt lat="43.75476" lon="6.84579">
        <ele>1282.403208</ele>
        <time>2024-12-06T10:13:24.000Z</time>
      </trkpt>
      <trkpt lat="43.75478" lon="6.84577">
        <ele>1282.50613</ele>
        <time>2024-12-06T10:13:32.000Z</time>
      </trkpt>
      <trkpt lat="43.75478" lon="6.84576">
        <ele>1282.538018</ele>
        <time>2024-12-06T10:13:39.000Z</time>
      </trkpt>
      <trkpt lat="43.75478" lon="6.84576">
        <ele>1282.538018</ele>
        <time>2024-12-06T10:13:43.000Z</time>
      </trkpt>
      <trkpt lat="43.75478" lon="6.84576">
        <ele>1282.538018</ele>
        <time>2024-12-06T10:13:46.000Z</time>
      </trkpt>
      <trkpt lat="43.75478" lon="6.84576">
        <ele>1282.538018</ele>
        <time>2024-12-06T10:14:00.000Z</time>
      </trkpt>
      <trkpt lat="43.75478" lon="6.84576">
        <ele>1282.538018</ele>
        <time>2024-12-06T10:14:06.000Z</time>
      </trkpt>
      <trkpt lat="43.75478" lon="6.84576">
        <ele>1282.538018</ele>
        <time>2024-12-06T10:14:10.000Z</time>
      </trkpt>
      <trkpt lat="43.75478" lon="6.84576">
        <ele>1282.538018</ele>
        <time>2024-12-06T10:14:12.000Z</time>
      </trkpt>
      <trkpt lat="43.75478" lon="6.84576">
        <ele>1282.538018</ele>
        <time>2024-12-06T10:14:19.000Z</time>
      </trkpt>
      <trkpt lat="43.75478" lon="6.84576">
        <ele>1282.538018</ele>
        <time>2024-12-06T10:14:24.000Z</time>
      </trkpt>
      <trkpt lat="43.75478" lon="6.84576">
        <ele>1282.538018</ele>
        <time>2024-12-06T10:14:30.000Z</time>
      </trkpt>
      <trkpt lat="43.75478" lon="6.84576">
        <ele>1282.538018</ele>
        <time>2024-12-06T10:14:31.000Z</time>
      </trkpt>
      <trkpt lat="43.75478" lon="6.84576">
        <ele>1282.538018</ele>
        <time>2024-12-06T10:14:36.000Z</time>
      </trkpt>
      <trkpt lat="43.75478" lon="6.84576">
        <ele>1282.538018</ele>
        <time>2024-12-06T10:14:39.000Z</time>
      </trkpt>
      <trkpt lat="43.75478" lon="6.84576">
        <ele>1282.538018</ele>
        <time>2024-12-06T10:14:41.000Z</time>
      </trkpt>
      <trkpt lat="43.75477" lon="6.84571">
        <ele>1282.74577</ele>
        <time>2024-12-06T10:14:44.000Z</time>
      </trkpt>
      <trkpt lat="43.75477" lon="6.84568">
        <ele>1282.859801</ele>
        <time>2024-12-06T10:14:45.000Z</time>
      </trkpt>
      <trkpt lat="43.75477" lon="6.84565">
        <ele>1282.981557</ele>
        <time>2024-12-06T10:14:46.000Z</time>
      </trkpt>
      <trkpt lat="43.75477" lon="6.84562">
        <ele>1283.099385</ele>
        <time>2024-12-06T10:14:47.000Z</time>
      </trkpt>
      <trkpt lat="43.75477" lon="6.84559">
        <ele>1283.217339</ele>
        <time>2024-12-06T10:14:48.000Z</time>
      </trkpt>
      <trkpt lat="43.75477" lon="6.84556">
        <ele>1283.33137</ele>
        <time>2024-12-06T10:14:49.000Z</time>
      </trkpt>
      <trkpt lat="43.75477" lon="6.84553">
        <ele>1283.442546</ele>
        <time>2024-12-06T10:14:50.000Z</time>
      </trkpt>
      <trkpt lat="43.75478" lon="6.84551">
        <ele>1283.550799</ele>
        <time>2024-12-06T10:14:51.000Z</time>
      </trkpt>
      <trkpt lat="43.75478" lon="6.84548">
        <ele>1283.661309</ele>
        <time>2024-12-06T10:14:52.000Z</time>
      </trkpt>
      <trkpt lat="43.75478" lon="6.84545">
        <ele>1283.771818</ele>
        <time>2024-12-06T10:14:53.000Z</time>
      </trkpt>
      <trkpt lat="43.75479" lon="6.84542">
        <ele>1283.887777</ele>
        <time>2024-12-06T10:14:54.000Z</time>
      </trkpt>
      <trkpt lat="43.75479" lon="6.84539">
        <ele>1284.012532</ele>
        <time>2024-12-06T10:14:55.000Z</time>
      </trkpt>
      <trkpt lat="43.7548" lon="6.84536">
        <ele>1284.131013</ele>
        <time>2024-12-06T10:14:56.000Z</time>
      </trkpt>
      <trkpt lat="43.7548" lon="6.84534">
        <ele>1284.230762</ele>
        <time>2024-12-06T10:14:57.000Z</time>
      </trkpt>
      <trkpt lat="43.75481" lon="6.84531">
        <ele>1284.344046</ele>
        <time>2024-12-06T10:14:58.000Z</time>
      </trkpt>
      <trkpt lat="43.75481" lon="6.84529">
        <ele>1284.445931</ele>
        <time>2024-12-06T10:14:59.000Z</time>
      </trkpt>
      <trkpt lat="43.75482" lon="6.84526">
        <ele>1284.566855</ele>
        <time>2024-12-06T10:15:00.000Z</time>
      </trkpt>
      <trkpt lat="43.75482" lon="6.84523">
        <ele>1284.653701</ele>
        <time>2024-12-06T10:15:01.000Z</time>
      </trkpt>
      <trkpt lat="43.75483" lon="6.84521">
        <ele>1284.769393</ele>
        <time>2024-12-06T10:15:02.000Z</time>
      </trkpt>
      <trkpt lat="43.75484" lon="6.84519">
        <ele>1284.865299</ele>
        <time>2024-12-06T10:15:03.000Z</time>
      </trkpt>
      <trkpt lat="43.75485" lon="6.84517">
        <ele>1284.964603</ele>
        <time>2024-12-06T10:15:04.000Z</time>
      </trkpt>
      <trkpt lat="43.75486" lon="6.84514">
        <ele>1285.068419</ele>
        <time>2024-12-06T10:15:05.000Z</time>
      </trkpt>
      <trkpt lat="43.75487" lon="6.84512">
        <ele>1285.145275</ele>
        <time>2024-12-06T10:15:06.000Z</time>
      </trkpt>
      <trkpt lat="43.75487" lon="6.8451">
        <ele>1285.254256</ele>
        <time>2024-12-06T10:15:07.000Z</time>
      </trkpt>
      <trkpt lat="43.75488" lon="6.84508">
        <ele>1285.341102</ele>
        <time>2024-12-06T10:15:08.000Z</time>
      </trkpt>
      <trkpt lat="43.75488" lon="6.84506">
        <ele>1285.415924</ele>
        <time>2024-12-06T10:15:09.000Z</time>
      </trkpt>
      <trkpt lat="43.75488" lon="6.84504">
        <ele>1285.506422</ele>
        <time>2024-12-06T10:15:10.000Z</time>
      </trkpt>
      <trkpt lat="43.75488" lon="6.84501">
        <ele>1285.59741</ele>
        <time>2024-12-06T10:15:11.000Z</time>
      </trkpt>
      <trkpt lat="43.75488" lon="6.845">
        <ele>1285.656324</ele>
        <time>2024-12-06T10:15:12.000Z</time>
      </trkpt>
      <trkpt lat="43.75488" lon="6.84498">
        <ele>1285.740401</ele>
        <time>2024-12-06T10:15:13.000Z</time>
      </trkpt>
      <trkpt lat="43.75487" lon="6.84495">
        <ele>1285.829504</ele>
        <time>2024-12-06T10:15:14.000Z</time>
      </trkpt>
      <trkpt lat="43.75487" lon="6.84494">
        <ele>1285.907234</ele>
        <time>2024-12-06T10:15:15.000Z</time>
      </trkpt>
      <trkpt lat="43.75487" lon="6.84491">
        <ele>1286.017743</ele>
        <time>2024-12-06T10:15:16.000Z</time>
      </trkpt>
      <trkpt lat="43.75488" lon="6.84489">
        <ele>1286.110293</ele>
        <time>2024-12-06T10:15:17.000Z</time>
      </trkpt>
      <trkpt lat="43.75489" lon="6.84488">
        <ele>1286.186444</ele>
        <time>2024-12-06T10:15:18.000Z</time>
      </trkpt>
      <trkpt lat="43.7549" lon="6.84487">
        <ele>1286.240962</ele>
        <time>2024-12-06T10:15:19.000Z</time>
      </trkpt>
      <trkpt lat="43.75491" lon="6.84488">
        <ele>1286.291298</ele>
        <time>2024-12-06T10:15:20.000Z</time>
      </trkpt>
      <trkpt lat="43.75491" lon="6.84488">
        <ele>1286.307611</ele>
        <time>2024-12-06T10:15:21.000Z</time>
      </trkpt>
      <trkpt lat="43.75491" lon="6.84488">
        <ele>1286.307611</ele>
        <time>2024-12-06T10:15:32.000Z</time>
      </trkpt>
      <trkpt lat="43.75491" lon="6.84488">
        <ele>1286.307611</ele>
        <time>2024-12-06T10:15:50.000Z</time>
      </trkpt>
      <trkpt lat="43.75491" lon="6.84488">
        <ele>1286.307611</ele>
        <time>2024-12-06T10:15:54.000Z</time>
      </trkpt>
      <trkpt lat="43.75491" lon="6.84488">
        <ele>1286.307611</ele>
        <time>2024-12-06T10:16:00.000Z</time>
      </trkpt>
      <trkpt lat="43.75491" lon="6.84488">
        <ele>1286.307611</ele>
        <time>2024-12-06T10:16:10.000Z</time>
      </trkpt>
      <trkpt lat="43.75491" lon="6.84488">
        <ele>1286.307611</ele>
        <time>2024-12-06T10:16:11.000Z</time>
      </trkpt>
      <trkpt lat="43.75491" lon="6.84488">
        <ele>1286.307611</ele>
        <time>2024-12-06T10:16:16.000Z</time>
      </trkpt>
      <trkpt lat="43.75491" lon="6.84488">
        <ele>1286.307611</ele>
        <time>2024-12-06T10:16:22.000Z</time>
      </trkpt>
      <trkpt lat="43.75491" lon="6.84488">
        <ele>1286.307611</ele>
        <time>2024-12-06T10:16:29.000Z</time>
      </trkpt>
      <trkpt lat="43.75491" lon="6.84488">
        <ele>1286.307611</ele>
        <time>2024-12-06T10:16:31.000Z</time>
      </trkpt>
      <trkpt lat="43.75491" lon="6.84488">
        <ele>1286.330059</ele>
        <time>2024-12-06T10:16:46.000Z</time>
      </trkpt>
      <trkpt lat="43.75492" lon="6.8449">
        <ele>1286.396935</ele>
        <time>2024-12-06T10:16:47.000Z</time>
      </trkpt>
      <trkpt lat="43.75493" lon="6.84491">
        <ele>1286.479943</ele>
        <time>2024-12-06T10:16:48.000Z</time>
      </trkpt>
      <trkpt lat="43.75494" lon="6.84494">
        <ele>1286.597766</ele>
        <time>2024-12-06T10:16:49.000Z</time>
      </trkpt>
      <trkpt lat="43.75496" lon="6.84496">
        <ele>1286.737621</ele>
        <time>2024-12-06T10:16:50.000Z</time>
      </trkpt>
      <trkpt lat="43.75501" lon="6.84501">
        <ele>1287.073656</ele>
        <time>2024-12-06T10:16:52.000Z</time>
      </trkpt>
      <trkpt lat="43.75505" lon="6.84502">
        <ele>1287.268923</ele>
        <time>2024-12-06T10:16:53.000Z</time>
      </trkpt>
      <trkpt lat="43.75508" lon="6.84504">
        <ele>1287.470612</ele>
        <time>2024-12-06T10:16:54.000Z</time>
      </trkpt>
      <trkpt lat="43.75516" lon="6.84509">
        <ele>1287.911693</ele>
        <time>2024-12-06T10:16:56.000Z</time>
      </trkpt>
      <trkpt lat="43.7552" lon="6.84511">
        <ele>1288.161863</ele>
        <time>2024-12-06T10:16:57.000Z</time>
      </trkpt>
      <trkpt lat="43.75524" lon="6.84514">
        <ele>1288.430132</ele>
        <time>2024-12-06T10:16:58.000Z</time>
      </trkpt>
      <trkpt lat="43.75529" lon="6.84518">
        <ele>1288.712738</ele>
        <time>2024-12-06T10:16:59.000Z</time>
      </trkpt>
      <trkpt lat="43.75533" lon="6.84522">
        <ele>1289.005663</ele>
        <time>2024-12-06T10:17:00.000Z</time>
      </trkpt>
      <trkpt lat="43.75542" lon="6.8453">
        <ele>1289.584669</ele>
        <time>2024-12-06T10:17:02.000Z</time>
      </trkpt>
      <trkpt lat="43.7555" lon="6.84539">
        <ele>1290.125098</ele>
        <time>2024-12-06T10:17:04.000Z</time>
      </trkpt>
      <trkpt lat="43.75554" lon="6.84542">
        <ele>1290.37545</ele>
        <time>2024-12-06T10:17:05.000Z</time>
      </trkpt>
      <trkpt lat="43.75558" lon="6.84544">
        <ele>1290.626072</ele>
        <time>2024-12-06T10:17:06.000Z</time>
      </trkpt>
      <trkpt lat="43.75563" lon="6.84545">
        <ele>1290.868529</ele>
        <time>2024-12-06T10:17:07.000Z</time>
      </trkpt>
      <trkpt lat="43.75567" lon="6.84545">
        <ele>1291.103956</ele>
        <time>2024-12-06T10:17:08.000Z</time>
      </trkpt>
      <trkpt lat="43.75571" lon="6.84547">
        <ele>1291.337974</ele>
        <time>2024-12-06T10:17:09.000Z</time>
      </trkpt>
      <trkpt lat="43.75579" lon="6.8455">
        <ele>1291.793017</ele>
        <time>2024-12-06T10:17:11.000Z</time>
      </trkpt>
      <trkpt lat="43.75583" lon="6.84552">
        <ele>1292.025634</ele>
        <time>2024-12-06T10:17:12.000Z</time>
      </trkpt>
      <trkpt lat="43.75587" lon="6.84554">
        <ele>1292.008761</ele>
        <time>2024-12-06T10:17:13.000Z</time>
      </trkpt>
      <trkpt lat="43.75591" lon="6.84557">
        <ele>1291.895653</ele>
        <time>2024-12-06T10:17:14.000Z</time>
      </trkpt>
      <trkpt lat="43.75604" lon="6.84566">
        <ele>1291.524524</ele>
        <time>2024-12-06T10:17:17.000Z</time>
      </trkpt>
      <trkpt lat="43.75608" lon="6.84569">
        <ele>1291.418439</ele>
        <time>2024-12-06T10:17:18.000Z</time>
      </trkpt>
      <trkpt lat="43.75611" lon="6.84572">
        <ele>1291.31948</ele>
        <time>2024-12-06T10:17:19.000Z</time>
      </trkpt>
      <trkpt lat="43.75615" lon="6.84574">
        <ele>1291.227578</ele>
        <time>2024-12-06T10:17:20.000Z</time>
      </trkpt>
      <trkpt lat="43.75618" lon="6.84573">
        <ele>1291.149226</ele>
        <time>2024-12-06T10:17:21.000Z</time>
      </trkpt>
      <trkpt lat="43.75621" lon="6.84572">
        <ele>1291.075225</ele>
        <time>2024-12-06T10:17:22.000Z</time>
      </trkpt>
      <trkpt lat="43.75623" lon="6.84571">
        <ele>1291.001774</ele>
        <time>2024-12-06T10:17:23.000Z</time>
      </trkpt>
      <trkpt lat="43.75626" lon="6.84569">
        <ele>1290.93986</ele>
        <time>2024-12-06T10:17:24.000Z</time>
      </trkpt>
      <trkpt lat="43.75628" lon="6.84568">
        <ele>1290.874107</ele>
        <time>2024-12-06T10:17:25.000Z</time>
      </trkpt>
      <trkpt lat="43.7563" lon="6.84567">
        <ele>1290.807304</ele>
        <time>2024-12-06T10:17:26.000Z</time>
      </trkpt>
      <trkpt lat="43.75633" lon="6.84566">
        <ele>1290.749386</ele>
        <time>2024-12-06T10:17:27.000Z</time>
      </trkpt>
      <trkpt lat="43.75635" lon="6.84565">
        <ele>1290.697303</ele>
        <time>2024-12-06T10:17:28.000Z</time>
      </trkpt>
      <trkpt lat="43.75636" lon="6.84564">
        <ele>1290.649573</ele>
        <time>2024-12-06T10:17:29.000Z</time>
      </trkpt>
      <trkpt lat="43.75638" lon="6.84563">
        <ele>1290.594541</ele>
        <time>2024-12-06T10:17:30.000Z</time>
      </trkpt>
      <trkpt lat="43.7564" lon="6.84562">
        <ele>1290.540855</ele>
        <time>2024-12-06T10:17:31.000Z</time>
      </trkpt>
      <trkpt lat="43.75643" lon="6.84561">
        <ele>1290.481764</ele>
        <time>2024-12-06T10:17:32.000Z</time>
      </trkpt>
      <trkpt lat="43.75645" lon="6.84561">
        <ele>1290.416121</ele>
        <time>2024-12-06T10:17:33.000Z</time>
      </trkpt>
      <trkpt lat="43.75648" lon="6.84562">
        <ele>1290.342813</ele>
        <time>2024-12-06T10:17:34.000Z</time>
      </trkpt>
      <trkpt lat="43.75651" lon="6.84562">
        <ele>1290.264547</ele>
        <time>2024-12-06T10:17:35.000Z</time>
      </trkpt>
      <trkpt lat="43.75655" lon="6.84561">
        <ele>1290.183674</ele>
        <time>2024-12-06T10:17:36.000Z</time>
      </trkpt>
      <trkpt lat="43.75658" lon="6.84561">
        <ele>1290.092619</ele>
        <time>2024-12-06T10:17:37.000Z</time>
      </trkpt>
      <trkpt lat="43.75662" lon="6.84561">
        <ele>1289.986439</ele>
        <time>2024-12-06T10:17:38.000Z</time>
      </trkpt>
      <trkpt lat="43.75667" lon="6.84561">
        <ele>1289.88026</ele>
        <time>2024-12-06T10:17:39.000Z</time>
      </trkpt>
      <trkpt lat="43.75675" lon="6.8456">
        <ele>1289.665032</ele>
        <time>2024-12-06T10:17:41.000Z</time>
      </trkpt>
      <trkpt lat="43.75679" lon="6.8456">
        <ele>1289.556469</ele>
        <time>2024-12-06T10:17:42.000Z</time>
      </trkpt>
      <trkpt lat="43.75692" lon="6.8456">
        <ele>1289.233175</ele>
        <time>2024-12-06T10:17:45.000Z</time>
      </trkpt>
      <trkpt lat="43.75697" lon="6.84561">
        <ele>1289.108807</ele>
        <time>2024-12-06T10:17:46.000Z</time>
      </trkpt>
      <trkpt lat="43.75702" lon="6.84561">
        <ele>1288.992312</ele>
        <time>2024-12-06T10:17:47.000Z</time>
      </trkpt>
      <trkpt lat="43.75715" lon="6.8456">
        <ele>1288.650379</ele>
        <time>2024-12-06T10:17:50.000Z</time>
      </trkpt>
      <trkpt lat="43.7572" lon="6.84558">
        <ele>1288.528605</ele>
        <time>2024-12-06T10:17:51.000Z</time>
      </trkpt>
      <trkpt lat="43.75725" lon="6.84556">
        <ele>1288.401511</ele>
        <time>2024-12-06T10:17:52.000Z</time>
      </trkpt>
      <trkpt lat="43.75734" lon="6.84552">
        <ele>1288.142645</ele>
        <time>2024-12-06T10:17:54.000Z</time>
      </trkpt>
      <trkpt lat="43.75739" lon="6.84549">
        <ele>1288.009038</ele>
        <time>2024-12-06T10:17:55.000Z</time>
      </trkpt>
      <trkpt lat="43.75749" lon="6.84544">
        <ele>1287.737374</ele>
        <time>2024-12-06T10:17:57.000Z</time>
      </trkpt>
      <trkpt lat="43.7576" lon="6.84539">
        <ele>1287.499388</ele>
        <time>2024-12-06T10:17:59.000Z</time>
      </trkpt>
      <trkpt lat="43.7577" lon="6.84537">
        <ele>1287.376548</ele>
        <time>2024-12-06T10:18:01.000Z</time>
      </trkpt>
      <trkpt lat="43.75774" lon="6.84537">
        <ele>1287.323166</ele>
        <time>2024-12-06T10:18:02.000Z</time>
      </trkpt>
      <trkpt lat="43.75778" lon="6.84536">
        <ele>1287.269839</ele>
        <time>2024-12-06T10:18:03.000Z</time>
      </trkpt>
      <trkpt lat="43.75801" lon="6.84536">
        <ele>1286.981988</ele>
        <time>2024-12-06T10:18:08.000Z</time>
      </trkpt>
      <trkpt lat="43.75805" lon="6.84537">
        <ele>1286.92971</ele>
        <time>2024-12-06T10:18:09.000Z</time>
      </trkpt>
      <trkpt lat="43.75809" lon="6.84538">
        <ele>1286.879417</ele>
        <time>2024-12-06T10:18:10.000Z</time>
      </trkpt>
      <trkpt lat="43.75812" lon="6.84539">
        <ele>1286.83123</ele>
        <time>2024-12-06T10:18:11.000Z</time>
      </trkpt>
      <trkpt lat="43.75816" lon="6.8454">
        <ele>1286.780867</ele>
        <time>2024-12-06T10:18:12.000Z</time>
      </trkpt>
      <trkpt lat="43.75825" lon="6.84545">
        <ele>1286.667308</ele>
        <time>2024-12-06T10:18:14.000Z</time>
      </trkpt>
      <trkpt lat="43.75833" lon="6.84548">
        <ele>1286.559437</ele>
        <time>2024-12-06T10:18:16.000Z</time>
      </trkpt>
      <trkpt lat="43.75849" lon="6.84554">
        <ele>1286.348363</ele>
        <time>2024-12-06T10:18:20.000Z</time>
      </trkpt>
      <trkpt lat="43.75853" lon="6.84553">
        <ele>1286.3001</ele>
        <time>2024-12-06T10:18:21.000Z</time>
      </trkpt>
      <trkpt lat="43.75856" lon="6.84552">
        <ele>1286.259029</ele>
        <time>2024-12-06T10:18:22.000Z</time>
      </trkpt>
      <trkpt lat="43.75859" lon="6.8455">
        <ele>1286.216188</ele>
        <time>2024-12-06T10:18:23.000Z</time>
      </trkpt>
      <trkpt lat="43.75861" lon="6.84546">
        <ele>1286.173695</ele>
        <time>2024-12-06T10:18:24.000Z</time>
      </trkpt>
      <trkpt lat="43.75863" lon="6.84542">
        <ele>1286.131819</ele>
        <time>2024-12-06T10:18:25.000Z</time>
      </trkpt>
      <trkpt lat="43.75864" lon="6.84538">
        <ele>1286.092481</ele>
        <time>2024-12-06T10:18:26.000Z</time>
      </trkpt>
      <trkpt lat="43.75865" lon="6.84534">
        <ele>1286.053715</ele>
        <time>2024-12-06T10:18:27.000Z</time>
      </trkpt>
      <trkpt lat="43.75866" lon="6.8453">
        <ele>1286.01482</ele>
        <time>2024-12-06T10:18:28.000Z</time>
      </trkpt>
      <trkpt lat="43.75866" lon="6.84526">
        <ele>1285.975925</ele>
        <time>2024-12-06T10:18:29.000Z</time>
      </trkpt>
      <trkpt lat="43.75868" lon="6.84517">
        <ele>1285.892685</ele>
        <time>2024-12-06T10:18:31.000Z</time>
      </trkpt>
      <trkpt lat="43.75869" lon="6.84512">
        <ele>1285.846381</ele>
        <time>2024-12-06T10:18:32.000Z</time>
      </trkpt>
      <trkpt lat="43.7587" lon="6.84507">
        <ele>1285.799189</ele>
        <time>2024-12-06T10:18:33.000Z</time>
      </trkpt>
      <trkpt lat="43.75872" lon="6.84497">
        <ele>1285.697967</ele>
        <time>2024-12-06T10:18:35.000Z</time>
      </trkpt>
      <trkpt lat="43.75874" lon="6.84485">
        <ele>1285.586357</ele>
        <time>2024-12-06T10:18:37.000Z</time>
      </trkpt>
      <trkpt lat="43.75876" lon="6.84478">
        <ele>1285.523863</ele>
        <time>2024-12-06T10:18:38.000Z</time>
      </trkpt>
      <trkpt lat="43.75882" lon="6.84449">
        <ele>1285.155011</ele>
        <time>2024-12-06T10:18:42.000Z</time>
      </trkpt>
      <trkpt lat="43.75885" lon="6.84436">
        <ele>1284.45432</ele>
        <time>2024-12-06T10:18:44.000Z</time>
      </trkpt>
      <trkpt lat="43.75887" lon="6.8443">
        <ele>1284.163706</ele>
        <time>2024-12-06T10:18:45.000Z</time>
      </trkpt>
      <trkpt lat="43.75889" lon="6.84426">
        <ele>1283.911822</ele>
        <time>2024-12-06T10:18:46.000Z</time>
      </trkpt>
      <trkpt lat="43.7589" lon="6.84421">
        <ele>1283.661281</ele>
        <time>2024-12-06T10:18:47.000Z</time>
      </trkpt>
      <trkpt lat="43.75893" lon="6.84418">
        <ele>1283.406604</ele>
        <time>2024-12-06T10:18:48.000Z</time>
      </trkpt>
      <trkpt lat="43.75896" lon="6.84415">
        <ele>1283.167432</ele>
        <time>2024-12-06T10:18:49.000Z</time>
      </trkpt>
      <trkpt lat="43.75899" lon="6.84413">
        <ele>1282.934085</ele>
        <time>2024-12-06T10:18:50.000Z</time>
      </trkpt>
      <trkpt lat="43.75902" lon="6.8441">
        <ele>1282.681307</ele>
        <time>2024-12-06T10:18:51.000Z</time>
      </trkpt>
      <trkpt lat="43.75908" lon="6.84404">
        <ele>1282.192217</ele>
        <time>2024-12-06T10:18:53.000Z</time>
      </trkpt>
      <trkpt lat="43.7591" lon="6.844">
        <ele>1281.946212</ele>
        <time>2024-12-06T10:18:54.000Z</time>
      </trkpt>
      <trkpt lat="43.75912" lon="6.84397">
        <ele>1281.718215</ele>
        <time>2024-12-06T10:18:55.000Z</time>
      </trkpt>
      <trkpt lat="43.75914" lon="6.84392">
        <ele>1281.488242</ele>
        <time>2024-12-06T10:18:56.000Z</time>
      </trkpt>
      <trkpt lat="43.75915" lon="6.84388">
        <ele>1281.241782</ele>
        <time>2024-12-06T10:18:57.000Z</time>
      </trkpt>
      <trkpt lat="43.75916" lon="6.84383">
        <ele>1280.99235</ele>
        <time>2024-12-06T10:18:58.000Z</time>
      </trkpt>
      <trkpt lat="43.75916" lon="6.84378">
        <ele>1280.738133</ele>
        <time>2024-12-06T10:18:59.000Z</time>
      </trkpt>
      <trkpt lat="43.75917" lon="6.84373">
        <ele>1280.479126</ele>
        <time>2024-12-06T10:19:00.000Z</time>
      </trkpt>
      <trkpt lat="43.75918" lon="6.84362">
        <ele>1279.936158</ele>
        <time>2024-12-06T10:19:02.000Z</time>
      </trkpt>
      <trkpt lat="43.75919" lon="6.84356">
        <ele>1279.648717</ele>
        <time>2024-12-06T10:19:03.000Z</time>
      </trkpt>
      <trkpt lat="43.7592" lon="6.84344">
        <ele>1279.051058</ele>
        <time>2024-12-06T10:19:05.000Z</time>
      </trkpt>
      <trkpt lat="43.75921" lon="6.84338">
        <ele>1278.746343</ele>
        <time>2024-12-06T10:19:06.000Z</time>
      </trkpt>
      <trkpt lat="43.75923" lon="6.84325">
        <ele>1278.122808</ele>
        <time>2024-12-06T10:19:08.000Z</time>
      </trkpt>
      <trkpt lat="43.75924" lon="6.84319">
        <ele>1277.78818</ele>
        <time>2024-12-06T10:19:09.000Z</time>
      </trkpt>
      <trkpt lat="43.75926" lon="6.84312">
        <ele>1277.446833</ele>
        <time>2024-12-06T10:19:10.000Z</time>
      </trkpt>
      <trkpt lat="43.7593" lon="6.84298">
        <ele>1276.706105</ele>
        <time>2024-12-06T10:19:12.000Z</time>
      </trkpt>
      <trkpt lat="43.75933" lon="6.84292">
        <ele>1276.331896</ele>
        <time>2024-12-06T10:19:13.000Z</time>
      </trkpt>
      <trkpt lat="43.75935" lon="6.84285">
        <ele>1275.956667</ele>
        <time>2024-12-06T10:19:14.000Z</time>
      </trkpt>
      <trkpt lat="43.75943" lon="6.84263">
        <ele>1274.710246</ele>
        <time>2024-12-06T10:19:17.000Z</time>
      </trkpt>
      <trkpt lat="43.75947" lon="6.84255">
        <ele>1274.269207</ele>
        <time>2024-12-06T10:19:18.000Z</time>
      </trkpt>
      <trkpt lat="43.75951" lon="6.84248">
        <ele>1273.831533</ele>
        <time>2024-12-06T10:19:19.000Z</time>
      </trkpt>
      <trkpt lat="43.75956" lon="6.84243">
        <ele>1273.404386</ele>
        <time>2024-12-06T10:19:20.000Z</time>
      </trkpt>
      <trkpt lat="43.75961" lon="6.84239">
        <ele>1272.978442</ele>
        <time>2024-12-06T10:19:21.000Z</time>
      </trkpt>
      <trkpt lat="43.75967" lon="6.84235">
        <ele>1272.806558</ele>
        <time>2024-12-06T10:19:22.000Z</time>
      </trkpt>
      <trkpt lat="43.75973" lon="6.84232">
        <ele>1272.638858</ele>
        <time>2024-12-06T10:19:23.000Z</time>
      </trkpt>
      <trkpt lat="43.75978" lon="6.84228">
        <ele>1272.483677</ele>
        <time>2024-12-06T10:19:24.000Z</time>
      </trkpt>
      <trkpt lat="43.75982" lon="6.84224">
        <ele>1272.346555</ele>
        <time>2024-12-06T10:19:25.000Z</time>
      </trkpt>
      <trkpt lat="43.75985" lon="6.84219">
        <ele>1272.213844</ele>
        <time>2024-12-06T10:19:26.000Z</time>
      </trkpt>
      <trkpt lat="43.75987" lon="6.84214">
        <ele>1272.083851</ele>
        <time>2024-12-06T10:19:27.000Z</time>
      </trkpt>
      <trkpt lat="43.75989" lon="6.84207">
        <ele>1271.945708</ele>
        <time>2024-12-06T10:19:28.000Z</time>
      </trkpt>
      <trkpt lat="43.75991" lon="6.84201">
        <ele>1271.812751</ele>
        <time>2024-12-06T10:19:29.000Z</time>
      </trkpt>
      <trkpt lat="43.75993" lon="6.84195">
        <ele>1271.675117</ele>
        <time>2024-12-06T10:19:30.000Z</time>
      </trkpt>
      <trkpt lat="43.75994" lon="6.84188">
        <ele>1271.544037</ele>
        <time>2024-12-06T10:19:31.000Z</time>
      </trkpt>
      <trkpt lat="43.75996" lon="6.84182">
        <ele>1271.411778</ele>
        <time>2024-12-06T10:19:32.000Z</time>
      </trkpt>
      <trkpt lat="43.75998" lon="6.84176">
        <ele>1271.281345</ele>
        <time>2024-12-06T10:19:33.000Z</time>
      </trkpt>
      <trkpt lat="43.76" lon="6.8417">
        <ele>1271.15383</ele>
        <time>2024-12-06T10:19:34.000Z</time>
      </trkpt>
      <trkpt lat="43.76001" lon="6.84164">
        <ele>1271.020695</ele>
        <time>2024-12-06T10:19:35.000Z</time>
      </trkpt>
      <trkpt lat="43.76002" lon="6.84158">
        <ele>1270.889052</ele>
        <time>2024-12-06T10:19:36.000Z</time>
      </trkpt>
      <trkpt lat="43.76003" lon="6.84151">
        <ele>1270.757285</ele>
        <time>2024-12-06T10:19:37.000Z</time>
      </trkpt>
      <trkpt lat="43.76004" lon="6.84138">
        <ele>1270.504919</ele>
        <time>2024-12-06T10:19:39.000Z</time>
      </trkpt>
      <trkpt lat="43.76005" lon="6.84118">
        <ele>1270.100723</ele>
        <time>2024-12-06T10:19:42.000Z</time>
      </trkpt>
      <trkpt lat="43.76004" lon="6.84111">
        <ele>1269.96125</ele>
        <time>2024-12-06T10:19:43.000Z</time>
      </trkpt>
      <trkpt lat="43.76004" lon="6.84104">
        <ele>1269.819224</ele>
        <time>2024-12-06T10:19:44.000Z</time>
      </trkpt>
      <trkpt lat="43.76004" lon="6.84097">
        <ele>1269.673782</ele>
        <time>2024-12-06T10:19:45.000Z</time>
      </trkpt>
      <trkpt lat="43.76005" lon="6.8409">
        <ele>1269.537392</ele>
        <time>2024-12-06T10:19:46.000Z</time>
      </trkpt>
      <trkpt lat="43.76006" lon="6.84078">
        <ele>1269.304806</ele>
        <time>2024-12-06T10:19:48.000Z</time>
      </trkpt>
      <trkpt lat="43.76006" lon="6.84073">
        <ele>1269.190489</ele>
        <time>2024-12-06T10:19:49.000Z</time>
      </trkpt>
      <trkpt lat="43.76007" lon="6.84067">
        <ele>1269.07627</ele>
        <time>2024-12-06T10:19:50.000Z</time>
      </trkpt>
      <trkpt lat="43.76008" lon="6.84062">
        <ele>1268.971746</ele>
        <time>2024-12-06T10:19:51.000Z</time>
      </trkpt>
      <trkpt lat="43.76009" lon="6.84057">
        <ele>1268.876105</ele>
        <time>2024-12-06T10:19:52.000Z</time>
      </trkpt>
      <trkpt lat="43.7601" lon="6.84053">
        <ele>1268.786181</ele>
        <time>2024-12-06T10:19:53.000Z</time>
      </trkpt>
      <trkpt lat="43.76011" lon="6.84049">
        <ele>1268.700942</ele>
        <time>2024-12-06T10:19:54.000Z</time>
      </trkpt>
      <trkpt lat="43.76011" lon="6.84044">
        <ele>1268.607207</ele>
        <time>2024-12-06T10:19:55.000Z</time>
      </trkpt>
      <trkpt lat="43.76012" lon="6.84035">
        <ele>1268.418423</ele>
        <time>2024-12-06T10:19:57.000Z</time>
      </trkpt>
      <trkpt lat="43.76012" lon="6.84025">
        <ele>1268.224812</ele>
        <time>2024-12-06T10:19:59.000Z</time>
      </trkpt>
      <trkpt lat="43.76013" lon="6.84021">
        <ele>1268.136521</ele>
        <time>2024-12-06T10:20:00.000Z</time>
      </trkpt>
      <trkpt lat="43.76013" lon="6.84016">
        <ele>1268.040917</ele>
        <time>2024-12-06T10:20:01.000Z</time>
      </trkpt>
      <trkpt lat="43.76013" lon="6.84011">
        <ele>1268.283774</ele>
        <time>2024-12-06T10:20:02.000Z</time>
      </trkpt>
      <trkpt lat="43.76014" lon="6.84006">
        <ele>1268.596456</ele>
        <time>2024-12-06T10:20:03.000Z</time>
      </trkpt>
      <trkpt lat="43.76014" lon="6.84002">
        <ele>1268.914781</ele>
        <time>2024-12-06T10:20:04.000Z</time>
      </trkpt>
      <trkpt lat="43.76014" lon="6.83997">
        <ele>1269.232448</ele>
        <time>2024-12-06T10:20:05.000Z</time>
      </trkpt>
      <trkpt lat="43.76014" lon="6.83992">
        <ele>1269.556712</ele>
        <time>2024-12-06T10:20:06.000Z</time>
      </trkpt>
      <trkpt lat="43.76014" lon="6.83987">
        <ele>1269.893797</ele>
        <time>2024-12-06T10:20:07.000Z</time>
      </trkpt>
      <trkpt lat="43.76015" lon="6.83982">
        <ele>1270.218706</ele>
        <time>2024-12-06T10:20:08.000Z</time>
      </trkpt>
      <trkpt lat="43.76015" lon="6.83977">
        <ele>1270.523182</ele>
        <time>2024-12-06T10:20:09.000Z</time>
      </trkpt>
      <trkpt lat="43.76015" lon="6.83973">
        <ele>1270.8205</ele>
        <time>2024-12-06T10:20:10.000Z</time>
      </trkpt>
      <trkpt lat="43.76015" lon="6.83968">
        <ele>1271.111212</ele>
        <time>2024-12-06T10:20:11.000Z</time>
      </trkpt>
      <trkpt lat="43.76015" lon="6.83964">
        <ele>1271.415138</ele>
        <time>2024-12-06T10:20:12.000Z</time>
      </trkpt>
      <trkpt lat="43.76015" lon="6.83959">
        <ele>1271.72567</ele>
        <time>2024-12-06T10:20:13.000Z</time>
      </trkpt>
      <trkpt lat="43.76015" lon="6.83954">
        <ele>1272.056531</ele>
        <time>2024-12-06T10:20:14.000Z</time>
      </trkpt>
      <trkpt lat="43.76014" lon="6.83949">
        <ele>1272.382339</ele>
        <time>2024-12-06T10:20:15.000Z</time>
      </trkpt>
      <trkpt lat="43.76014" lon="6.83944">
        <ele>1272.693411</ele>
        <time>2024-12-06T10:20:16.000Z</time>
      </trkpt>
      <trkpt lat="43.76014" lon="6.8394">
        <ele>1273.011736</ele>
        <time>2024-12-06T10:20:17.000Z</time>
      </trkpt>
      <trkpt lat="43.76014" lon="6.83935">
        <ele>1273.336644</ele>
        <time>2024-12-06T10:20:18.000Z</time>
      </trkpt>
      <trkpt lat="43.76013" lon="6.8393">
        <ele>1273.662453</ele>
        <time>2024-12-06T10:20:19.000Z</time>
      </trkpt>
      <trkpt lat="43.76013" lon="6.83925">
        <ele>1273.968573</ele>
        <time>2024-12-06T10:20:20.000Z</time>
      </trkpt>
      <trkpt lat="43.76012" lon="6.83921">
        <ele>1274.277416</ele>
        <time>2024-12-06T10:20:21.000Z</time>
      </trkpt>
      <trkpt lat="43.76012" lon="6.83916">
        <ele>1274.592762</ele>
        <time>2024-12-06T10:20:22.000Z</time>
      </trkpt>
      <trkpt lat="43.76011" lon="6.83911">
        <ele>1274.906646</ele>
        <time>2024-12-06T10:20:23.000Z</time>
      </trkpt>
      <trkpt lat="43.7601" lon="6.83907">
        <ele>1275.221526</ele>
        <time>2024-12-06T10:20:24.000Z</time>
      </trkpt>
      <trkpt lat="43.76009" lon="6.83902">
        <ele>1275.526292</ele>
        <time>2024-12-06T10:20:25.000Z</time>
      </trkpt>
      <trkpt lat="43.76008" lon="6.83898">
        <ele>1275.843687</ele>
        <time>2024-12-06T10:20:26.000Z</time>
      </trkpt>
      <trkpt lat="43.76007" lon="6.83893">
        <ele>1276.160625</ele>
        <time>2024-12-06T10:20:27.000Z</time>
      </trkpt>
      <trkpt lat="43.76006" lon="6.83888">
        <ele>1276.493151</ele>
        <time>2024-12-06T10:20:28.000Z</time>
      </trkpt>
      <trkpt lat="43.76004" lon="6.83884">
        <ele>1276.820608</ele>
        <time>2024-12-06T10:20:29.000Z</time>
      </trkpt>
      <trkpt lat="43.76002" lon="6.8388">
        <ele>1277.138713</ele>
        <time>2024-12-06T10:20:30.000Z</time>
      </trkpt>
      <trkpt lat="43.76001" lon="6.83876">
        <ele>1277.44451</ele>
        <time>2024-12-06T10:20:31.000Z</time>
      </trkpt>
      <trkpt lat="43.75999" lon="6.83872">
        <ele>1277.751155</ele>
        <time>2024-12-06T10:20:32.000Z</time>
      </trkpt>
      <trkpt lat="43.75997" lon="6.83868">
        <ele>1278.056518</ele>
        <time>2024-12-06T10:20:33.000Z</time>
      </trkpt>
      <trkpt lat="43.75995" lon="6.83864">
        <ele>1278.37408</ele>
        <time>2024-12-06T10:20:34.000Z</time>
      </trkpt>
      <trkpt lat="43.75993" lon="6.83861">
        <ele>1278.650113</ele>
        <time>2024-12-06T10:20:35.000Z</time>
      </trkpt>
      <trkpt lat="43.75991" lon="6.83859">
        <ele>1278.916816</ele>
        <time>2024-12-06T10:20:36.000Z</time>
      </trkpt>
      <trkpt lat="43.75988" lon="6.83856">
        <ele>1279.191565</ele>
        <time>2024-12-06T10:20:37.000Z</time>
      </trkpt>
      <trkpt lat="43.75986" lon="6.83854">
        <ele>1279.439824</ele>
        <time>2024-12-06T10:20:38.000Z</time>
      </trkpt>
      <trkpt lat="43.75984" lon="6.83852">
        <ele>1279.675293</ele>
        <time>2024-12-06T10:20:39.000Z</time>
      </trkpt>
      <trkpt lat="43.75981" lon="6.83851">
        <ele>1279.930495</ele>
        <time>2024-12-06T10:20:40.000Z</time>
      </trkpt>
      <trkpt lat="43.75978" lon="6.8385">
        <ele>1280.170627</ele>
        <time>2024-12-06T10:20:41.000Z</time>
      </trkpt>
      <trkpt lat="43.75976" lon="6.8385">
        <ele>1280.372316</ele>
        <time>2024-12-06T10:20:42.000Z</time>
      </trkpt>
      <trkpt lat="43.75974" lon="6.83851">
        <ele>1280.558235</ele>
        <time>2024-12-06T10:20:43.000Z</time>
      </trkpt>
      <trkpt lat="43.75972" lon="6.83852">
        <ele>1280.757636</ele>
        <time>2024-12-06T10:20:44.000Z</time>
      </trkpt>
      <trkpt lat="43.7597" lon="6.83854">
        <ele>1280.968767</ele>
        <time>2024-12-06T10:20:45.000Z</time>
      </trkpt>
      <trkpt lat="43.75968" lon="6.83856">
        <ele>1281.210881</ele>
        <time>2024-12-06T10:20:46.000Z</time>
      </trkpt>
      <trkpt lat="43.75967" lon="6.83859">
        <ele>1281.441757</ele>
        <time>2024-12-06T10:20:47.000Z</time>
      </trkpt>
      <trkpt lat="43.75965" lon="6.83861">
        <ele>1281.672634</ele>
        <time>2024-12-06T10:20:48.000Z</time>
      </trkpt>
      <trkpt lat="43.75963" lon="6.83863">
        <ele>1281.883624</ele>
        <time>2024-12-06T10:20:49.000Z</time>
      </trkpt>
      <trkpt lat="43.75962" lon="6.83866">
        <ele>1282.087456</ele>
        <time>2024-12-06T10:20:50.000Z</time>
      </trkpt>
      <trkpt lat="43.75961" lon="6.83868">
        <ele>1282.269717</ele>
        <time>2024-12-06T10:20:51.000Z</time>
      </trkpt>
      <trkpt lat="43.7596" lon="6.83871">
        <ele>1282.476099</ele>
        <time>2024-12-06T10:20:52.000Z</time>
      </trkpt>
      <trkpt lat="43.75958" lon="6.83874">
        <ele>1282.691217</ele>
        <time>2024-12-06T10:20:53.000Z</time>
      </trkpt>
      <trkpt lat="43.75957" lon="6.83876">
        <ele>1282.900151</ele>
        <time>2024-12-06T10:20:54.000Z</time>
      </trkpt>
      <trkpt lat="43.75956" lon="6.83878">
        <ele>1283.093118</ele>
        <time>2024-12-06T10:20:55.000Z</time>
      </trkpt>
      <trkpt lat="43.75955" lon="6.83881">
        <ele>1283.27527</ele>
        <time>2024-12-06T10:20:56.000Z</time>
      </trkpt>
      <trkpt lat="43.75953" lon="6.83883">
        <ele>1283.474006</ele>
        <time>2024-12-06T10:20:57.000Z</time>
      </trkpt>
      <trkpt lat="43.75952" lon="6.83885">
        <ele>1283.662829</ele>
        <time>2024-12-06T10:20:58.000Z</time>
      </trkpt>
      <trkpt lat="43.7595" lon="6.83887">
        <ele>1283.857972</ele>
        <time>2024-12-06T10:20:59.000Z</time>
      </trkpt>
      <trkpt lat="43.75949" lon="6.83889">
        <ele>1284.048475</ele>
        <time>2024-12-06T10:21:00.000Z</time>
      </trkpt>
      <trkpt lat="43.75947" lon="6.83891">
        <ele>1284.234455</ele>
        <time>2024-12-06T10:21:01.000Z</time>
      </trkpt>
      <trkpt lat="43.75946" lon="6.83893">
        <ele>1284.404804</ele>
        <time>2024-12-06T10:21:02.000Z</time>
      </trkpt>
      <trkpt lat="43.75944" lon="6.83895">
        <ele>1284.633157</ele>
        <time>2024-12-06T10:21:03.000Z</time>
      </trkpt>
      <trkpt lat="43.75943" lon="6.83897">
        <ele>1284.919426</ele>
        <time>2024-12-06T10:21:04.000Z</time>
      </trkpt>
      <trkpt lat="43.75941" lon="6.83899">
        <ele>1285.176345</ele>
        <time>2024-12-06T10:21:05.000Z</time>
      </trkpt>
      <trkpt lat="43.7594" lon="6.83901">
        <ele>1285.43952</ele>
        <time>2024-12-06T10:21:06.000Z</time>
      </trkpt>
      <trkpt lat="43.75938" lon="6.83903">
        <ele>1285.732325</ele>
        <time>2024-12-06T10:21:07.000Z</time>
      </trkpt>
      <trkpt lat="43.75936" lon="6.83906">
        <ele>1286.012583</ele>
        <time>2024-12-06T10:21:08.000Z</time>
      </trkpt>
      <trkpt lat="43.75934" lon="6.83908">
        <ele>1286.28519</ele>
        <time>2024-12-06T10:21:09.000Z</time>
      </trkpt>
      <trkpt lat="43.75933" lon="6.83909">
        <ele>1286.537756</ele>
        <time>2024-12-06T10:21:10.000Z</time>
      </trkpt>
      <trkpt lat="43.75931" lon="6.83911">
        <ele>1286.80018</ele>
        <time>2024-12-06T10:21:11.000Z</time>
      </trkpt>
      <trkpt lat="43.75929" lon="6.83912">
        <ele>1287.040793</ele>
        <time>2024-12-06T10:21:12.000Z</time>
      </trkpt>
      <trkpt lat="43.75927" lon="6.83913">
        <ele>1287.296045</ele>
        <time>2024-12-06T10:21:13.000Z</time>
      </trkpt>
      <trkpt lat="43.75925" lon="6.83915">
        <ele>1287.569662</ele>
        <time>2024-12-06T10:21:14.000Z</time>
      </trkpt>
      <trkpt lat="43.75923" lon="6.83916">
        <ele>1287.84008</ele>
        <time>2024-12-06T10:21:15.000Z</time>
      </trkpt>
      <trkpt lat="43.75921" lon="6.83917">
        <ele>1288.096184</ele>
        <time>2024-12-06T10:21:16.000Z</time>
      </trkpt>
      <trkpt lat="43.75918" lon="6.83917">
        <ele>1288.399286</ele>
        <time>2024-12-06T10:21:17.000Z</time>
      </trkpt>
      <trkpt lat="43.75916" lon="6.83917">
        <ele>1288.676433</ele>
        <time>2024-12-06T10:21:18.000Z</time>
      </trkpt>
      <trkpt lat="43.75914" lon="6.83916">
        <ele>1288.952724</ele>
        <time>2024-12-06T10:21:19.000Z</time>
      </trkpt>
      <trkpt lat="43.75912" lon="6.83915">
        <ele>1289.211912</ele>
        <time>2024-12-06T10:21:20.000Z</time>
      </trkpt>
      <trkpt lat="43.7591" lon="6.83914">
        <ele>1289.481827</ele>
        <time>2024-12-06T10:21:21.000Z</time>
      </trkpt>
      <trkpt lat="43.75908" lon="6.83912">
        <ele>1289.7294</ele>
        <time>2024-12-06T10:21:22.000Z</time>
      </trkpt>
      <trkpt lat="43.75906" lon="6.83911">
        <ele>1289.973912</ele>
        <time>2024-12-06T10:21:23.000Z</time>
      </trkpt>
      <trkpt lat="43.75905" lon="6.83909">
        <ele>1290.222568</ele>
        <time>2024-12-06T10:21:24.000Z</time>
      </trkpt>
      <trkpt lat="43.75903" lon="6.83908">
        <ele>1290.481791</ele>
        <time>2024-12-06T10:21:25.000Z</time>
      </trkpt>
      <trkpt lat="43.75901" lon="6.83906">
        <ele>1290.72458</ele>
        <time>2024-12-06T10:21:26.000Z</time>
      </trkpt>
      <trkpt lat="43.75899" lon="6.83905">
        <ele>1290.990683</ele>
        <time>2024-12-06T10:21:27.000Z</time>
      </trkpt>
      <trkpt lat="43.75897" lon="6.83904">
        <ele>1291.260597</ele>
        <time>2024-12-06T10:21:28.000Z</time>
      </trkpt>
      <trkpt lat="43.75895" lon="6.83902">
        <ele>1291.498307</ele>
        <time>2024-12-06T10:21:29.000Z</time>
      </trkpt>
      <trkpt lat="43.75894" lon="6.83901">
        <ele>1291.726362</ele>
        <time>2024-12-06T10:21:30.000Z</time>
      </trkpt>
      <trkpt lat="43.75892" lon="6.83899">
        <ele>1291.954417</ele>
        <time>2024-12-06T10:21:31.000Z</time>
      </trkpt>
      <trkpt lat="43.75891" lon="6.83897">
        <ele>1292.182472</ele>
        <time>2024-12-06T10:21:32.000Z</time>
      </trkpt>
      <trkpt lat="43.75889" lon="6.83896">
        <ele>1292.401631</ele>
        <time>2024-12-06T10:21:33.000Z</time>
      </trkpt>
      <trkpt lat="43.75888" lon="6.83895">
        <ele>1292.619505</ele>
        <time>2024-12-06T10:21:34.000Z</time>
      </trkpt>
      <trkpt lat="43.75886" lon="6.83893">
        <ele>1292.849609</ele>
        <time>2024-12-06T10:21:35.000Z</time>
      </trkpt>
      <trkpt lat="43.75885" lon="6.83891">
        <ele>1293.103664</ele>
        <time>2024-12-06T10:21:36.000Z</time>
      </trkpt>
      <trkpt lat="43.75884" lon="6.83889">
        <ele>1293.345942</ele>
        <time>2024-12-06T10:21:37.000Z</time>
      </trkpt>
      <trkpt lat="43.75882" lon="6.83887">
        <ele>1293.565498</ele>
        <time>2024-12-06T10:21:38.000Z</time>
      </trkpt>
      <trkpt lat="43.75881" lon="6.83885">
        <ele>1293.773494</ele>
        <time>2024-12-06T10:21:39.000Z</time>
      </trkpt>
      <trkpt lat="43.7588" lon="6.83884">
        <ele>1294.00696</ele>
        <time>2024-12-06T10:21:40.000Z</time>
      </trkpt>
      <trkpt lat="43.75878" lon="6.83882">
        <ele>1294.251816</ele>
        <time>2024-12-06T10:21:41.000Z</time>
      </trkpt>
      <trkpt lat="43.75876" lon="6.8388">
        <ele>1294.509572</ele>
        <time>2024-12-06T10:21:42.000Z</time>
      </trkpt>
      <trkpt lat="43.75875" lon="6.83878">
        <ele>1294.747282</ele>
        <time>2024-12-06T10:21:43.000Z</time>
      </trkpt>
      <trkpt lat="43.75873" lon="6.83876">
        <ele>1294.989561</ele>
        <time>2024-12-06T10:21:44.000Z</time>
      </trkpt>
      <trkpt lat="43.75872" lon="6.83874">
        <ele>1295.261146</ele>
        <time>2024-12-06T10:21:45.000Z</time>
      </trkpt>
      <trkpt lat="43.7587" lon="6.83872">
        <ele>1295.509745</ele>
        <time>2024-12-06T10:21:46.000Z</time>
      </trkpt>
      <trkpt lat="43.75869" lon="6.8387">
        <ele>1295.758042</ele>
        <time>2024-12-06T10:21:47.000Z</time>
      </trkpt>
      <trkpt lat="43.75867" lon="6.83868">
        <ele>1296.00634</ele>
        <time>2024-12-06T10:21:48.000Z</time>
      </trkpt>
      <trkpt lat="43.75866" lon="6.83867">
        <ele>1296.260212</ele>
        <time>2024-12-06T10:21:49.000Z</time>
      </trkpt>
      <trkpt lat="43.75864" lon="6.83865">
        <ele>1296.493678</ele>
        <time>2024-12-06T10:21:50.000Z</time>
      </trkpt>
      <trkpt lat="43.75862" lon="6.83863">
        <ele>1296.731906</ele>
        <time>2024-12-06T10:21:51.000Z</time>
      </trkpt>
      <trkpt lat="43.7586" lon="6.83862">
        <ele>1296.983426</ele>
        <time>2024-12-06T10:21:52.000Z</time>
      </trkpt>
      <trkpt lat="43.75859" lon="6.83861">
        <ele>1297.232081</ele>
        <time>2024-12-06T10:21:53.000Z</time>
      </trkpt>
      <trkpt lat="43.75857" lon="6.8386">
        <ele>1297.476594</ele>
        <time>2024-12-06T10:21:54.000Z</time>
      </trkpt>
      <trkpt lat="43.75855" lon="6.83858">
        <ele>1297.734351</ele>
        <time>2024-12-06T10:21:55.000Z</time>
      </trkpt>
      <trkpt lat="43.75853" lon="6.83856">
        <ele>1298.014611</ele>
        <time>2024-12-06T10:21:56.000Z</time>
      </trkpt>
      <trkpt lat="43.75852" lon="6.83854">
        <ele>1298.265421</ele>
        <time>2024-12-06T10:21:57.000Z</time>
      </trkpt>
      <trkpt lat="43.7585" lon="6.83851">
        <ele>1298.530949</ele>
        <time>2024-12-06T10:21:58.000Z</time>
      </trkpt>
      <trkpt lat="43.75849" lon="6.8385">
        <ele>1298.773855</ele>
        <time>2024-12-06T10:21:59.000Z</time>
      </trkpt>
      <trkpt lat="43.75847" lon="6.83848">
        <ele>1299.057349</ele>
        <time>2024-12-06T10:22:00.000Z</time>
      </trkpt>
      <trkpt lat="43.75845" lon="6.83846">
        <ele>1299.30816</ele>
        <time>2024-12-06T10:22:01.000Z</time>
      </trkpt>
      <trkpt lat="43.75844" lon="6.83844">
        <ele>1299.54427</ele>
        <time>2024-12-06T10:22:02.000Z</time>
      </trkpt>
      <trkpt lat="43.75842" lon="6.83842">
        <ele>1299.811694</ele>
        <time>2024-12-06T10:22:03.000Z</time>
      </trkpt>
      <trkpt lat="43.75841" lon="6.8384">
        <ele>1300.080375</ele>
        <time>2024-12-06T10:22:04.000Z</time>
      </trkpt>
      <trkpt lat="43.75839" lon="6.83838">
        <ele>1300.35816</ele>
        <time>2024-12-06T10:22:05.000Z</time>
      </trkpt>
      <trkpt lat="43.75838" lon="6.83835">
        <ele>1300.633342</ele>
        <time>2024-12-06T10:22:06.000Z</time>
      </trkpt>
      <trkpt lat="43.75836" lon="6.83833">
        <ele>1300.89652</ele>
        <time>2024-12-06T10:22:07.000Z</time>
      </trkpt>
      <trkpt lat="43.75834" lon="6.83831">
        <ele>1301.165201</ele>
        <time>2024-12-06T10:22:08.000Z</time>
      </trkpt>
      <trkpt lat="43.75833" lon="6.83829">
        <ele>1301.430729</ele>
        <time>2024-12-06T10:22:09.000Z</time>
      </trkpt>
      <trkpt lat="43.75831" lon="6.83827">
        <ele>1301.660835</ele>
        <time>2024-12-06T10:22:10.000Z</time>
      </trkpt>
      <trkpt lat="43.7583" lon="6.83825">
        <ele>1301.909434</ele>
        <time>2024-12-06T10:22:11.000Z</time>
      </trkpt>
      <trkpt lat="43.75828" lon="6.83823">
        <ele>1302.179004</ele>
        <time>2024-12-06T10:22:12.000Z</time>
      </trkpt>
      <trkpt lat="43.75827" lon="6.8382">
        <ele>1302.418822</ele>
        <time>2024-12-06T10:22:13.000Z</time>
      </trkpt>
      <trkpt lat="43.75826" lon="6.83818">
        <ele>1302.651758</ele>
        <time>2024-12-06T10:22:14.000Z</time>
      </trkpt>
      <trkpt lat="43.75825" lon="6.83816">
        <ele>1302.906818</ele>
        <time>2024-12-06T10:22:15.000Z</time>
      </trkpt>
      <trkpt lat="43.75824" lon="6.83814">
        <ele>1303.132939</ele>
        <time>2024-12-06T10:22:16.000Z</time>
      </trkpt>
      <trkpt lat="43.75822" lon="6.83812">
        <ele>1303.375219</ele>
        <time>2024-12-06T10:22:17.000Z</time>
      </trkpt>
      <trkpt lat="43.75821" lon="6.8381">
        <ele>1303.615813</ele>
        <time>2024-12-06T10:22:18.000Z</time>
      </trkpt>
      <trkpt lat="43.7582" lon="6.83808">
        <ele>1303.863077</ele>
        <time>2024-12-06T10:22:19.000Z</time>
      </trkpt>
      <trkpt lat="43.75819" lon="6.83805">
        <ele>1304.110338</ele>
        <time>2024-12-06T10:22:20.000Z</time>
      </trkpt>
      <trkpt lat="43.75817" lon="6.83803">
        <ele>1304.3787</ele>
        <time>2024-12-06T10:22:21.000Z</time>
      </trkpt>
      <trkpt lat="43.75816" lon="6.838">
        <ele>1304.633349</ele>
        <time>2024-12-06T10:22:22.000Z</time>
      </trkpt>
      <trkpt lat="43.75815" lon="6.83798">
        <ele>1304.884154</ele>
        <time>2024-12-06T10:22:23.000Z</time>
      </trkpt>
      <trkpt lat="43.75814" lon="6.83795">
        <ele>1305.122016</ele>
        <time>2024-12-06T10:22:24.000Z</time>
      </trkpt>
      <trkpt lat="43.75813" lon="6.83793">
        <ele>1305.354775</ele>
        <time>2024-12-06T10:22:25.000Z</time>
      </trkpt>
      <trkpt lat="43.75812" lon="6.83791">
        <ele>1305.590012</ele>
        <time>2024-12-06T10:22:26.000Z</time>
      </trkpt>
      <trkpt lat="43.75812" lon="6.83788">
        <ele>1305.839556</ele>
        <time>2024-12-06T10:22:27.000Z</time>
      </trkpt>
      <trkpt lat="43.75811" lon="6.83785">
        <ele>1306.090361</ele>
        <time>2024-12-06T10:22:28.000Z</time>
      </trkpt>
      <trkpt lat="43.7581" lon="6.83783">
        <ele>1306.254442</ele>
        <time>2024-12-06T10:22:29.000Z</time>
      </trkpt>
      <trkpt lat="43.75809" lon="6.8378">
        <ele>1306.419489</ele>
        <time>2024-12-06T10:22:30.000Z</time>
      </trkpt>
      <trkpt lat="43.75808" lon="6.83777">
        <ele>1306.592364</ele>
        <time>2024-12-06T10:22:31.000Z</time>
      </trkpt>
      <trkpt lat="43.75807" lon="6.83774">
        <ele>1306.7645</ele>
        <time>2024-12-06T10:22:32.000Z</time>
      </trkpt>
      <trkpt lat="43.75807" lon="6.83771">
        <ele>1306.929354</ele>
        <time>2024-12-06T10:22:33.000Z</time>
      </trkpt>
      <trkpt lat="43.75806" lon="6.83768">
        <ele>1307.100635</ele>
        <time>2024-12-06T10:22:34.000Z</time>
      </trkpt>
      <trkpt lat="43.75805" lon="6.83765">
        <ele>1307.253237</ele>
        <time>2024-12-06T10:22:35.000Z</time>
      </trkpt>
      <trkpt lat="43.75804" lon="6.83763">
        <ele>1307.396218</ele>
        <time>2024-12-06T10:22:36.000Z</time>
      </trkpt>
      <trkpt lat="43.75803" lon="6.8376">
        <ele>1307.559552</ele>
        <time>2024-12-06T10:22:37.000Z</time>
      </trkpt>
      <trkpt lat="43.75802" lon="6.83757">
        <ele>1307.722886</ele>
        <time>2024-12-06T10:22:38.000Z</time>
      </trkpt>
      <trkpt lat="43.75801" lon="6.83754">
        <ele>1307.867979</ele>
        <time>2024-12-06T10:22:39.000Z</time>
      </trkpt>
      <trkpt lat="43.75801" lon="6.83752">
        <ele>1308.025431</ele>
        <time>2024-12-06T10:22:40.000Z</time>
      </trkpt>
      <trkpt lat="43.758" lon="6.83749">
        <ele>1308.198202</ele>
        <time>2024-12-06T10:22:41.000Z</time>
      </trkpt>
      <trkpt lat="43.75798" lon="6.83746">
        <ele>1308.378808</ele>
        <time>2024-12-06T10:22:42.000Z</time>
      </trkpt>
      <trkpt lat="43.75798" lon="6.83743">
        <ele>1308.546029</ele>
        <time>2024-12-06T10:22:43.000Z</time>
      </trkpt>
      <trkpt lat="43.75797" lon="6.8374">
        <ele>1308.706286</ele>
        <time>2024-12-06T10:22:44.000Z</time>
      </trkpt>
      <trkpt lat="43.75796" lon="6.83737">
        <ele>1308.859006</ele>
        <time>2024-12-06T10:22:45.000Z</time>
      </trkpt>
      <trkpt lat="43.75795" lon="6.83734">
        <ele>1309.019263</ele>
        <time>2024-12-06T10:22:46.000Z</time>
      </trkpt>
      <trkpt lat="43.75795" lon="6.83731">
        <ele>1309.184117</ele>
        <time>2024-12-06T10:22:47.000Z</time>
      </trkpt>
      <trkpt lat="43.75794" lon="6.83728">
        <ele>1309.341569</ele>
        <time>2024-12-06T10:22:48.000Z</time>
      </trkpt>
      <trkpt lat="43.75793" lon="6.83725">
        <ele>1309.503895</ele>
        <time>2024-12-06T10:22:49.000Z</time>
      </trkpt>
      <trkpt lat="43.75792" lon="6.83723">
        <ele>1309.666221</ele>
        <time>2024-12-06T10:22:50.000Z</time>
      </trkpt>
      <trkpt lat="43.75791" lon="6.8372">
        <ele>1309.815656</ele>
        <time>2024-12-06T10:22:51.000Z</time>
      </trkpt>
      <trkpt lat="43.7579" lon="6.83718">
        <ele>1309.968729</ele>
        <time>2024-12-06T10:22:52.000Z</time>
      </trkpt>
      <trkpt lat="43.75789" lon="6.83715">
        <ele>1310.136766</ele>
        <time>2024-12-06T10:22:53.000Z</time>
      </trkpt>
      <trkpt lat="43.75788" lon="6.83712">
        <ele>1310.291702</ele>
        <time>2024-12-06T10:22:54.000Z</time>
      </trkpt>
      <trkpt lat="43.75788" lon="6.83709">
        <ele>1310.449154</ele>
        <time>2024-12-06T10:22:55.000Z</time>
      </trkpt>
      <trkpt lat="43.75787" lon="6.83706">
        <ele>1310.610148</ele>
        <time>2024-12-06T10:22:56.000Z</time>
      </trkpt>
      <trkpt lat="43.75786" lon="6.83703">
        <ele>1310.7676</ele>
        <time>2024-12-06T10:22:57.000Z</time>
      </trkpt>
      <trkpt lat="43.75785" lon="6.837">
        <ele>1310.932648</ele>
        <time>2024-12-06T10:22:58.000Z</time>
      </trkpt>
      <trkpt lat="43.75784" lon="6.83698">
        <ele>1311.102896</ele>
        <time>2024-12-06T10:22:59.000Z</time>
      </trkpt>
      <trkpt lat="43.75783" lon="6.83694">
        <ele>1311.277602</ele>
        <time>2024-12-06T10:23:00.000Z</time>
      </trkpt>
      <trkpt lat="43.75782" lon="6.83691">
        <ele>1311.454671</ele>
        <time>2024-12-06T10:23:01.000Z</time>
      </trkpt>
      <trkpt lat="43.75781" lon="6.83688">
        <ele>1311.622709</ele>
        <time>2024-12-06T10:23:02.000Z</time>
      </trkpt>
      <trkpt lat="43.75781" lon="6.83685">
        <ele>1311.790529</ele>
        <time>2024-12-06T10:23:03.000Z</time>
      </trkpt>
      <trkpt lat="43.7578" lon="6.83682">
        <ele>1311.95775</ele>
        <time>2024-12-06T10:23:04.000Z</time>
      </trkpt>
      <trkpt lat="43.75779" lon="6.8368">
        <ele>1312.105466</ele>
        <time>2024-12-06T10:23:05.000Z</time>
      </trkpt>
      <trkpt lat="43.75779" lon="6.83677">
        <ele>1312.258187</ele>
        <time>2024-12-06T10:23:06.000Z</time>
      </trkpt>
      <trkpt lat="43.75778" lon="6.83674">
        <ele>1312.433022</ele>
        <time>2024-12-06T10:23:07.000Z</time>
      </trkpt>
      <trkpt lat="43.75778" lon="6.8367">
        <ele>1312.599115</ele>
        <time>2024-12-06T10:23:08.000Z</time>
      </trkpt>
      <trkpt lat="43.75777" lon="6.83667">
        <ele>1312.773035</ele>
        <time>2024-12-06T10:23:09.000Z</time>
      </trkpt>
      <trkpt lat="43.75777" lon="6.83663">
        <ele>1312.966646</ele>
        <time>2024-12-06T10:23:10.000Z</time>
      </trkpt>
      <trkpt lat="43.75777" lon="6.8366">
        <ele>1313.135379</ele>
        <time>2024-12-06T10:23:11.000Z</time>
      </trkpt>
      <trkpt lat="43.75777" lon="6.83657">
        <ele>1313.293746</ele>
        <time>2024-12-06T10:23:12.000Z</time>
      </trkpt>
      <trkpt lat="43.75777" lon="6.83654">
        <ele>1313.467666</ele>
        <time>2024-12-06T10:23:13.000Z</time>
      </trkpt>
      <trkpt lat="43.75776" lon="6.83651">
        <ele>1313.640377</ele>
        <time>2024-12-06T10:23:14.000Z</time>
      </trkpt>
      <trkpt lat="43.75776" lon="6.83647">
        <ele>1313.823393</ele>
        <time>2024-12-06T10:23:15.000Z</time>
      </trkpt>
      <trkpt lat="43.75776" lon="6.83644">
        <ele>1313.990723</ele>
        <time>2024-12-06T10:23:16.000Z</time>
      </trkpt>
      <trkpt lat="43.75777" lon="6.8364">
        <ele>1314.174311</ele>
        <time>2024-12-06T10:23:17.000Z</time>
      </trkpt>
      <trkpt lat="43.75777" lon="6.83637">
        <ele>1314.342266</ele>
        <time>2024-12-06T10:23:18.000Z</time>
      </trkpt>
      <trkpt lat="43.75777" lon="6.83634">
        <ele>1314.509752</ele>
        <time>2024-12-06T10:23:19.000Z</time>
      </trkpt>
      <trkpt lat="43.75777" lon="6.83631">
        <ele>1314.678485</ele>
        <time>2024-12-06T10:23:20.000Z</time>
      </trkpt>
      <trkpt lat="43.75777" lon="6.83628">
        <ele>1314.841231</ele>
        <time>2024-12-06T10:23:21.000Z</time>
      </trkpt>
      <trkpt lat="43.75777" lon="6.83625">
        <ele>1314.993563</ele>
        <time>2024-12-06T10:23:22.000Z</time>
      </trkpt>
      <trkpt lat="43.75777" lon="6.83622">
        <ele>1315.142813</ele>
        <time>2024-12-06T10:23:23.000Z</time>
      </trkpt>
      <trkpt lat="43.75777" lon="6.83619">
        <ele>1315.305559</ele>
        <time>2024-12-06T10:23:24.000Z</time>
      </trkpt>
      <trkpt lat="43.75776" lon="6.83616">
        <ele>1315.463927</ele>
        <time>2024-12-06T10:23:25.000Z</time>
      </trkpt>
      <trkpt lat="43.75776" lon="6.83613">
        <ele>1315.636802</ele>
        <time>2024-12-06T10:23:26.000Z</time>
      </trkpt>
      <trkpt lat="43.75775" lon="6.8361">
        <ele>1315.796689</ele>
        <time>2024-12-06T10:23:27.000Z</time>
      </trkpt>
      <trkpt lat="43.75774" lon="6.83607">
        <ele>1315.969565</ele>
        <time>2024-12-06T10:23:28.000Z</time>
      </trkpt>
      <trkpt lat="43.75774" lon="6.83604">
        <ele>1316.122167</ele>
        <time>2024-12-06T10:23:29.000Z</time>
      </trkpt>
      <trkpt lat="43.75773" lon="6.83601">
        <ele>1316.265149</ele>
        <time>2024-12-06T10:23:30.000Z</time>
      </trkpt>
      <trkpt lat="43.75772" lon="6.83599">
        <ele>1316.422602</ele>
        <time>2024-12-06T10:23:31.000Z</time>
      </trkpt>
      <trkpt lat="43.75771" lon="6.83596">
        <ele>1316.577538</ele>
        <time>2024-12-06T10:23:32.000Z</time>
      </trkpt>
      <trkpt lat="43.75771" lon="6.83593">
        <ele>1316.74476</ele>
        <time>2024-12-06T10:23:33.000Z</time>
      </trkpt>
      <trkpt lat="43.7577" lon="6.8359">
        <ele>1316.907534</ele>
        <time>2024-12-06T10:23:34.000Z</time>
      </trkpt>
      <trkpt lat="43.75769" lon="6.83587">
        <ele>1317.075354</ele>
        <time>2024-12-06T10:23:35.000Z</time>
      </trkpt>
      <trkpt lat="43.75769" lon="6.83583">
        <ele>1317.257374</ele>
        <time>2024-12-06T10:23:36.000Z</time>
      </trkpt>
      <trkpt lat="43.75768" lon="6.8358">
        <ele>1317.427239</ele>
        <time>2024-12-06T10:23:37.000Z</time>
      </trkpt>
      <trkpt lat="43.75767" lon="6.83577">
        <ele>1317.599376</ele>
        <time>2024-12-06T10:23:38.000Z</time>
      </trkpt>
      <trkpt lat="43.75766" lon="6.83574">
        <ele>1317.764424</ele>
        <time>2024-12-06T10:23:39.000Z</time>
      </trkpt>
      <trkpt lat="43.75765" lon="6.83571">
        <ele>1317.931646</ele>
        <time>2024-12-06T10:23:40.000Z</time>
      </trkpt>
      <trkpt lat="43.75764" lon="6.83568">
        <ele>1318.111215</ele>
        <time>2024-12-06T10:23:41.000Z</time>
      </trkpt>
      <trkpt lat="43.75763" lon="6.83565">
        <ele>1318.290537</ele>
        <time>2024-12-06T10:23:42.000Z</time>
      </trkpt>
      <trkpt lat="43.75762" lon="6.83562">
        <ele>1318.460785</ele>
        <time>2024-12-06T10:23:43.000Z</time>
      </trkpt>
      <trkpt lat="43.75761" lon="6.83559">
        <ele>1318.650834</ele>
        <time>2024-12-06T10:23:44.000Z</time>
      </trkpt>
      <trkpt lat="43.7576" lon="6.83556">
        <ele>1318.822971</ele>
        <time>2024-12-06T10:23:45.000Z</time>
      </trkpt>
      <trkpt lat="43.75759" lon="6.83553">
        <ele>1319.004991</ele>
        <time>2024-12-06T10:23:46.000Z</time>
      </trkpt>
      <trkpt lat="43.75758" lon="6.8355">
        <ele>1319.18176</ele>
        <time>2024-12-06T10:23:47.000Z</time>
      </trkpt>
      <trkpt lat="43.75757" lon="6.83547">
        <ele>1319.392012</ele>
        <time>2024-12-06T10:23:48.000Z</time>
      </trkpt>
      <trkpt lat="43.75756" lon="6.83544">
        <ele>1319.607968</ele>
        <time>2024-12-06T10:23:49.000Z</time>
      </trkpt>
      <trkpt lat="43.75755" lon="6.83541">
        <ele>1319.821624</ele>
        <time>2024-12-06T10:23:50.000Z</time>
      </trkpt>
      <trkpt lat="43.75754" lon="6.83538">
        <ele>1320.031876</ele>
        <time>2024-12-06T10:23:51.000Z</time>
      </trkpt>
      <trkpt lat="43.75752" lon="6.83535">
        <ele>1320.245532</ele>
        <time>2024-12-06T10:23:52.000Z</time>
      </trkpt>
      <trkpt lat="43.75751" lon="6.83532">
        <ele>1320.474486</ele>
        <time>2024-12-06T10:23:53.000Z</time>
      </trkpt>
      <trkpt lat="43.7575" lon="6.8353">
        <ele>1320.684739</ele>
        <time>2024-12-06T10:23:54.000Z</time>
      </trkpt>
      <trkpt lat="43.75748" lon="6.83527">
        <ele>1320.898394</ele>
        <time>2024-12-06T10:23:55.000Z</time>
      </trkpt>
      <trkpt lat="43.75747" lon="6.83524">
        <ele>1321.117477</ele>
        <time>2024-12-06T10:23:56.000Z</time>
      </trkpt>
      <trkpt lat="43.75746" lon="6.83521">
        <ele>1321.332006</ele>
        <time>2024-12-06T10:23:57.000Z</time>
      </trkpt>
      <trkpt lat="43.75745" lon="6.83518">
        <ele>1321.563442</ele>
        <time>2024-12-06T10:23:58.000Z</time>
      </trkpt>
      <trkpt lat="43.75744" lon="6.83515">
        <ele>1321.781368</ele>
        <time>2024-12-06T10:23:59.000Z</time>
      </trkpt>
      <trkpt lat="43.75743" lon="6.83512">
        <ele>1321.989882</ele>
        <time>2024-12-06T10:24:00.000Z</time>
      </trkpt>
      <trkpt lat="43.75742" lon="6.83509">
        <ele>1322.196154</ele>
        <time>2024-12-06T10:24:01.000Z</time>
      </trkpt>
      <trkpt lat="43.7574" lon="6.83506">
        <ele>1322.420716</ele>
        <time>2024-12-06T10:24:02.000Z</time>
      </trkpt>
      <trkpt lat="43.75739" lon="6.83503">
        <ele>1322.656379</ele>
        <time>2024-12-06T10:24:03.000Z</time>
      </trkpt>
      <trkpt lat="43.75738" lon="6.835">
        <ele>1322.88564</ele>
        <time>2024-12-06T10:24:04.000Z</time>
      </trkpt>
      <trkpt lat="43.75736" lon="6.83497">
        <ele>1323.093925</ele>
        <time>2024-12-06T10:24:05.000Z</time>
      </trkpt>
      <trkpt lat="43.75735" lon="6.83493">
        <ele>1323.329565</ele>
        <time>2024-12-06T10:24:06.000Z</time>
      </trkpt>
      <trkpt lat="43.75734" lon="6.8349">
        <ele>1323.553368</ele>
        <time>2024-12-06T10:24:07.000Z</time>
      </trkpt>
      <trkpt lat="43.75734" lon="6.83487">
        <ele>1323.779786</ele>
        <time>2024-12-06T10:24:08.000Z</time>
      </trkpt>
      <trkpt lat="43.7573" lon="6.83477">
        <ele>1324.500865</ele>
        <time>2024-12-06T10:24:11.000Z</time>
      </trkpt>
      <trkpt lat="43.75727" lon="6.8347">
        <ele>1324.986657</ele>
        <time>2024-12-06T10:24:13.000Z</time>
      </trkpt>
      <trkpt lat="43.75726" lon="6.83467">
        <ele>1325.235342</ele>
        <time>2024-12-06T10:24:14.000Z</time>
      </trkpt>
      <trkpt lat="43.75725" lon="6.83463">
        <ele>1325.472494</ele>
        <time>2024-12-06T10:24:15.000Z</time>
      </trkpt>
      <trkpt lat="43.75724" lon="6.8346">
        <ele>1325.708157</ele>
        <time>2024-12-06T10:24:16.000Z</time>
      </trkpt>
      <trkpt lat="43.75722" lon="6.83457">
        <ele>1325.933916</ele>
        <time>2024-12-06T10:24:17.000Z</time>
      </trkpt>
      <trkpt lat="43.75721" lon="6.83454">
        <ele>1326.18654</ele>
        <time>2024-12-06T10:24:18.000Z</time>
      </trkpt>
      <trkpt lat="43.7572" lon="6.8345">
        <ele>1326.444889</ele>
        <time>2024-12-06T10:24:19.000Z</time>
      </trkpt>
      <trkpt lat="43.75719" lon="6.83447">
        <ele>1326.686168</ele>
        <time>2024-12-06T10:24:20.000Z</time>
      </trkpt>
      <trkpt lat="43.75717" lon="6.83444">
        <ele>1326.926313</ele>
        <time>2024-12-06T10:24:21.000Z</time>
      </trkpt>
      <trkpt lat="43.75716" lon="6.8344">
        <ele>1327.178937</ele>
        <time>2024-12-06T10:24:22.000Z</time>
      </trkpt>
      <trkpt lat="43.75715" lon="6.83437">
        <ele>1327.420216</ele>
        <time>2024-12-06T10:24:23.000Z</time>
      </trkpt>
      <trkpt lat="43.75713" lon="6.83434">
        <ele>1327.660361</ele>
        <time>2024-12-06T10:24:24.000Z</time>
      </trkpt>
      <trkpt lat="43.75712" lon="6.8343">
        <ele>1327.90602</ele>
        <time>2024-12-06T10:24:25.000Z</time>
      </trkpt>
      <trkpt lat="43.7571" lon="6.83427">
        <ele>1328.145529</ele>
        <time>2024-12-06T10:24:26.000Z</time>
      </trkpt>
      <trkpt lat="43.75709" lon="6.83424">
        <ele>1328.390285</ele>
        <time>2024-12-06T10:24:27.000Z</time>
      </trkpt>
      <trkpt lat="43.75707" lon="6.83421">
        <ele>1328.629659</ele>
        <time>2024-12-06T10:24:28.000Z</time>
      </trkpt>
      <trkpt lat="43.75705" lon="6.83418">
        <ele>1328.874527</ele>
        <time>2024-12-06T10:24:29.000Z</time>
      </trkpt>
      <trkpt lat="43.75704" lon="6.83415">
        <ele>1329.114036</ele>
        <time>2024-12-06T10:24:30.000Z</time>
      </trkpt>
      <trkpt lat="43.75702" lon="6.83412">
        <ele>1329.358904</ele>
        <time>2024-12-06T10:24:31.000Z</time>
      </trkpt>
      <trkpt lat="43.75701" lon="6.83409">
        <ele>1329.605506</ele>
        <time>2024-12-06T10:24:32.000Z</time>
      </trkpt>
      <trkpt lat="43.75699" lon="6.83406">
        <ele>1329.841355</ele>
        <time>2024-12-06T10:24:33.000Z</time>
      </trkpt>
      <trkpt lat="43.75697" lon="6.83404">
        <ele>1330.072411</ele>
        <time>2024-12-06T10:24:34.000Z</time>
      </trkpt>
      <trkpt lat="43.75695" lon="6.83402">
        <ele>1330.306442</ele>
        <time>2024-12-06T10:24:35.000Z</time>
      </trkpt>
      <trkpt lat="43.75692" lon="6.83399">
        <ele>1330.56224</ele>
        <time>2024-12-06T10:24:36.000Z</time>
      </trkpt>
      <trkpt lat="43.7569" lon="6.83398">
        <ele>1330.805801</ele>
        <time>2024-12-06T10:24:37.000Z</time>
      </trkpt>
      <trkpt lat="43.75687" lon="6.83398">
        <ele>1331.036951</ele>
        <time>2024-12-06T10:24:38.000Z</time>
      </trkpt>
      <trkpt lat="43.75684" lon="6.834">
        <ele>1331.295288</ele>
        <time>2024-12-06T10:24:39.000Z</time>
      </trkpt>
      <trkpt lat="43.75682" lon="6.83403">
        <ele>1331.55124</ele>
        <time>2024-12-06T10:24:40.000Z</time>
      </trkpt>
      <trkpt lat="43.75681" lon="6.83405">
        <ele>1331.785481</ele>
        <time>2024-12-06T10:24:41.000Z</time>
      </trkpt>
      <trkpt lat="43.7568" lon="6.83409">
        <ele>1332.023954</ele>
        <time>2024-12-06T10:24:42.000Z</time>
      </trkpt>
      <trkpt lat="43.75679" lon="6.83413">
        <ele>1332.288475</ele>
        <time>2024-12-06T10:24:43.000Z</time>
      </trkpt>
      <trkpt lat="43.75679" lon="6.83417">
        <ele>1332.571045</ele>
        <time>2024-12-06T10:24:44.000Z</time>
      </trkpt>
      <trkpt lat="43.75679" lon="6.83421">
        <ele>1332.822011</ele>
        <time>2024-12-06T10:24:45.000Z</time>
      </trkpt>
      <trkpt lat="43.7568" lon="6.83425">
        <ele>1333.043129</ele>
        <time>2024-12-06T10:24:46.000Z</time>
      </trkpt>
      <trkpt lat="43.7568" lon="6.83428">
        <ele>1333.236513</ele>
        <time>2024-12-06T10:24:47.000Z</time>
      </trkpt>
      <trkpt lat="43.7568" lon="6.83431">
        <ele>1333.442109</ele>
        <time>2024-12-06T10:24:48.000Z</time>
      </trkpt>
      <trkpt lat="43.7568" lon="6.83434">
        <ele>1333.653932</ele>
        <time>2024-12-06T10:24:49.000Z</time>
      </trkpt>
      <trkpt lat="43.7568" lon="6.83437">
        <ele>1333.859528</ele>
        <time>2024-12-06T10:24:50.000Z</time>
      </trkpt>
      <trkpt lat="43.7568" lon="6.8344">
        <ele>1334.046522</ele>
        <time>2024-12-06T10:24:51.000Z</time>
      </trkpt>
      <trkpt lat="43.75681" lon="6.83443">
        <ele>1334.248657</ele>
        <time>2024-12-06T10:24:52.000Z</time>
      </trkpt>
      <trkpt lat="43.75681" lon="6.83447">
        <ele>1334.455784</ele>
        <time>2024-12-06T10:24:53.000Z</time>
      </trkpt>
      <trkpt lat="43.75681" lon="6.8345">
        <ele>1334.661955</ele>
        <time>2024-12-06T10:24:54.000Z</time>
      </trkpt>
      <trkpt lat="43.75681" lon="6.83453">
        <ele>1334.861138</ele>
        <time>2024-12-06T10:24:55.000Z</time>
      </trkpt>
      <trkpt lat="43.75682" lon="6.83456">
        <ele>1335.053909</ele>
        <time>2024-12-06T10:24:56.000Z</time>
      </trkpt>
      <trkpt lat="43.75681" lon="6.83459">
        <ele>1335.315487</ele>
        <time>2024-12-06T10:24:57.000Z</time>
      </trkpt>
      <trkpt lat="43.75682" lon="6.83462">
        <ele>1335.659682</ele>
        <time>2024-12-06T10:24:58.000Z</time>
      </trkpt>
      <trkpt lat="43.75681" lon="6.83466">
        <ele>1336.046825</ele>
        <time>2024-12-06T10:24:59.000Z</time>
      </trkpt>
      <trkpt lat="43.75682" lon="6.83469">
        <ele>1336.391983</ele>
        <time>2024-12-06T10:25:00.000Z</time>
      </trkpt>
      <trkpt lat="43.75682" lon="6.83472">
        <ele>1336.735856</ele>
        <time>2024-12-06T10:25:01.000Z</time>
      </trkpt>
      <trkpt lat="43.75682" lon="6.83476">
        <ele>1337.10122</ele>
        <time>2024-12-06T10:25:02.000Z</time>
      </trkpt>
      <trkpt lat="43.75681" lon="6.83479">
        <ele>1337.457086</ele>
        <time>2024-12-06T10:25:03.000Z</time>
      </trkpt>
      <trkpt lat="43.75681" lon="6.83482">
        <ele>1337.82366</ele>
        <time>2024-12-06T10:25:04.000Z</time>
      </trkpt>
      <trkpt lat="43.75681" lon="6.83486">
        <ele>1338.178591</ele>
        <time>2024-12-06T10:25:05.000Z</time>
      </trkpt>
      <trkpt lat="43.75681" lon="6.83489">
        <ele>1338.501315</ele>
        <time>2024-12-06T10:25:06.000Z</time>
      </trkpt>
      <trkpt lat="43.75681" lon="6.83492">
        <ele>1338.834774</ele>
        <time>2024-12-06T10:25:07.000Z</time>
      </trkpt>
      <trkpt lat="43.75681" lon="6.83495">
        <ele>1339.168233</ele>
        <time>2024-12-06T10:25:08.000Z</time>
      </trkpt>
      <trkpt lat="43.75681" lon="6.83498">
        <ele>1339.512106</ele>
        <time>2024-12-06T10:25:09.000Z</time>
      </trkpt>
      <trkpt lat="43.75681" lon="6.83501">
        <ele>1339.866725</ele>
        <time>2024-12-06T10:25:10.000Z</time>
      </trkpt>
      <trkpt lat="43.75681" lon="6.83505">
        <ele>1340.23209</ele>
        <time>2024-12-06T10:25:11.000Z</time>
      </trkpt>
      <trkpt lat="43.75681" lon="6.83508">
        <ele>1340.577248</ele>
        <time>2024-12-06T10:25:12.000Z</time>
      </trkpt>
      <trkpt lat="43.75681" lon="6.83511">
        <ele>1340.921442</ele>
        <time>2024-12-06T10:25:13.000Z</time>
      </trkpt>
      <trkpt lat="43.75682" lon="6.83514">
        <ele>1341.278859</ele>
        <time>2024-12-06T10:25:14.000Z</time>
      </trkpt>
      <trkpt lat="43.75682" lon="6.83518">
        <ele>1341.64694</ele>
        <time>2024-12-06T10:25:15.000Z</time>
      </trkpt>
      <trkpt lat="43.75682" lon="6.83521">
        <ele>1341.992098</ele>
        <time>2024-12-06T10:25:16.000Z</time>
      </trkpt>
      <trkpt lat="43.75682" lon="6.83524">
        <ele>1342.337256</ele>
        <time>2024-12-06T10:25:17.000Z</time>
      </trkpt>
      <trkpt lat="43.75683" lon="6.83527">
        <ele>1342.641437</ele>
        <time>2024-12-06T10:25:18.000Z</time>
      </trkpt>
      <trkpt lat="43.75683" lon="6.8353">
        <ele>1342.990422</ele>
        <time>2024-12-06T10:25:19.000Z</time>
      </trkpt>
      <trkpt lat="43.75683" lon="6.83533">
        <ele>1343.292778</ele>
        <time>2024-12-06T10:25:20.000Z</time>
      </trkpt>
      <trkpt lat="43.75683" lon="6.83536">
        <ele>1343.636972</ele>
        <time>2024-12-06T10:25:21.000Z</time>
      </trkpt>
      <trkpt lat="43.75683" lon="6.83539">
        <ele>1343.970099</ele>
        <time>2024-12-06T10:25:22.000Z</time>
      </trkpt>
      <trkpt lat="43.75684" lon="6.83543">
        <ele>1344.325964</ele>
        <time>2024-12-06T10:25:23.000Z</time>
      </trkpt>
      <trkpt lat="43.75684" lon="6.83546">
        <ele>1344.670159</ele>
        <time>2024-12-06T10:25:24.000Z</time>
      </trkpt>
      <trkpt lat="43.75684" lon="6.83549">
        <ele>1345.016916</ele>
        <time>2024-12-06T10:25:25.000Z</time>
      </trkpt>
      <trkpt lat="43.75684" lon="6.83552">
        <ele>1345.360789</ele>
        <time>2024-12-06T10:25:26.000Z</time>
      </trkpt>
      <trkpt lat="43.75684" lon="6.83555">
        <ele>1345.696892</ele>
        <time>2024-12-06T10:25:27.000Z</time>
      </trkpt>
      <trkpt lat="43.75684" lon="6.83558">
        <ele>1346.030351</ele>
        <time>2024-12-06T10:25:28.000Z</time>
      </trkpt>
      <trkpt lat="43.75684" lon="6.83561">
        <ele>1346.334532</ele>
        <time>2024-12-06T10:25:29.000Z</time>
      </trkpt>
      <trkpt lat="43.75684" lon="6.83564">
        <ele>1346.625056</ele>
        <time>2024-12-06T10:25:30.000Z</time>
      </trkpt>
      <trkpt lat="43.75684" lon="6.83567">
        <ele>1346.929237</ele>
        <time>2024-12-06T10:25:31.000Z</time>
      </trkpt>
      <trkpt lat="43.75683" lon="6.83569">
        <ele>1347.228764</ele>
        <time>2024-12-06T10:25:32.000Z</time>
      </trkpt>
      <trkpt lat="43.75683" lon="6.83572">
        <ele>1347.497183</ele>
        <time>2024-12-06T10:25:33.000Z</time>
      </trkpt>
      <trkpt lat="43.75683" lon="6.83574">
        <ele>1347.733596</ele>
        <time>2024-12-06T10:25:34.000Z</time>
      </trkpt>
      <trkpt lat="43.75683" lon="6.83576">
        <ele>1347.905532</ele>
        <time>2024-12-06T10:25:35.000Z</time>
      </trkpt>
      <trkpt lat="43.75682" lon="6.83578">
        <ele>1348.133152</ele>
        <time>2024-12-06T10:25:36.000Z</time>
      </trkpt>
      <trkpt lat="43.75682" lon="6.83579">
        <ele>1348.335528</ele>
        <time>2024-12-06T10:25:37.000Z</time>
      </trkpt>
      <trkpt lat="43.75682" lon="6.83581">
        <ele>1348.518816</ele>
        <time>2024-12-06T10:25:42.000Z</time>
      </trkpt>
      <trkpt lat="43.75682" lon="6.83581">
        <ele>1348.518816</ele>
        <time>2024-12-06T10:25:47.000Z</time>
      </trkpt>
      <trkpt lat="43.75682" lon="6.83581">
        <ele>1348.592227</ele>
        <time>2024-12-06T10:25:55.000Z</time>
      </trkpt>
      <trkpt lat="43.75682" lon="6.83581">
        <ele>1348.592227</ele>
        <time>2024-12-06T10:26:01.000Z</time>
      </trkpt>
      <trkpt lat="43.75682" lon="6.83581">
        <ele>1348.592227</ele>
        <time>2024-12-06T10:26:10.000Z</time>
      </trkpt>
      <trkpt lat="43.75682" lon="6.83581">
        <ele>1348.592227</ele>
        <time>2024-12-06T10:26:17.000Z</time>
      </trkpt>
      <trkpt lat="43.75682" lon="6.83581">
        <ele>1348.592227</ele>
        <time>2024-12-06T10:26:19.000Z</time>
      </trkpt>
      <trkpt lat="43.75682" lon="6.83581">
        <ele>1348.592227</ele>
        <time>2024-12-06T10:26:25.000Z</time>
      </trkpt>
      <trkpt lat="43.75682" lon="6.83581">
        <ele>1348.592227</ele>
        <time>2024-12-06T10:26:30.000Z</time>
      </trkpt>
      <trkpt lat="43.75682" lon="6.83581">
        <ele>1348.592227</ele>
        <time>2024-12-06T10:26:37.000Z</time>
      </trkpt>
      <trkpt lat="43.75682" lon="6.83581">
        <ele>1348.592227</ele>
        <time>2024-12-06T10:26:58.000Z</time>
      </trkpt>
      <trkpt lat="43.75681" lon="6.83591">
        <ele>1349.652043</ele>
        <time>2024-12-06T10:27:03.000Z</time>
      </trkpt>
      <trkpt lat="43.75678" lon="6.83596">
        <ele>1350.372509</ele>
        <time>2024-12-06T10:27:05.000Z</time>
      </trkpt>
      <trkpt lat="43.75677" lon="6.83599">
        <ele>1350.730199</ele>
        <time>2024-12-06T10:27:06.000Z</time>
      </trkpt>
      <trkpt lat="43.75676" lon="6.83602">
        <ele>1351.052571</ele>
        <time>2024-12-06T10:27:07.000Z</time>
      </trkpt>
      <trkpt lat="43.75675" lon="6.83604">
        <ele>1351.33381</ele>
        <time>2024-12-06T10:27:08.000Z</time>
      </trkpt>
      <trkpt lat="43.75673" lon="6.83606">
        <ele>1351.64091</ele>
        <time>2024-12-06T10:27:09.000Z</time>
      </trkpt>
      <trkpt lat="43.75672" lon="6.83608">
        <ele>1351.968922</ele>
        <time>2024-12-06T10:27:10.000Z</time>
      </trkpt>
      <trkpt lat="43.7567" lon="6.8361">
        <ele>1352.299274</ele>
        <time>2024-12-06T10:27:11.000Z</time>
      </trkpt>
      <trkpt lat="43.75668" lon="6.83611">
        <ele>1352.642935</ele>
        <time>2024-12-06T10:27:12.000Z</time>
      </trkpt>
      <trkpt lat="43.75666" lon="6.83612">
        <ele>1352.941702</ele>
        <time>2024-12-06T10:27:13.000Z</time>
      </trkpt>
      <trkpt lat="43.75663" lon="6.83613">
        <ele>1353.374729</ele>
        <time>2024-12-06T10:27:14.000Z</time>
      </trkpt>
      <trkpt lat="43.75661" lon="6.83613">
        <ele>1353.733251</ele>
        <time>2024-12-06T10:27:15.000Z</time>
      </trkpt>
      <trkpt lat="43.75658" lon="6.83613">
        <ele>1354.092898</ele>
        <time>2024-12-06T10:27:16.000Z</time>
      </trkpt>
      <trkpt lat="43.75656" lon="6.83612">
        <ele>1354.477214</ele>
        <time>2024-12-06T10:27:17.000Z</time>
      </trkpt>
      <trkpt lat="43.75654" lon="6.83611">
        <ele>1354.829014</ele>
        <time>2024-12-06T10:27:18.000Z</time>
      </trkpt>
      <trkpt lat="43.75652" lon="6.83609">
        <ele>1355.178175</ele>
        <time>2024-12-06T10:27:19.000Z</time>
      </trkpt>
      <trkpt lat="43.7565" lon="6.83607">
        <ele>1355.517139</ele>
        <time>2024-12-06T10:27:20.000Z</time>
      </trkpt>
      <trkpt lat="43.75648" lon="6.83605">
        <ele>1355.860518</ele>
        <time>2024-12-06T10:27:21.000Z</time>
      </trkpt>
      <trkpt lat="43.75646" lon="6.83603">
        <ele>1356.192425</ele>
        <time>2024-12-06T10:27:22.000Z</time>
      </trkpt>
      <trkpt lat="43.75644" lon="6.83601">
        <ele>1356.554135</ele>
        <time>2024-12-06T10:27:23.000Z</time>
      </trkpt>
      <trkpt lat="43.75643" lon="6.83599">
        <ele>1356.922645</ele>
        <time>2024-12-06T10:27:24.000Z</time>
      </trkpt>
      <trkpt lat="43.75641" lon="6.83597">
        <ele>1357.228095</ele>
        <time>2024-12-06T10:27:25.000Z</time>
      </trkpt>
      <trkpt lat="43.7564" lon="6.83594">
        <ele>1357.533546</ele>
        <time>2024-12-06T10:27:26.000Z</time>
      </trkpt>
      <trkpt lat="43.75639" lon="6.83592">
        <ele>1357.890714</ele>
        <time>2024-12-06T10:27:27.000Z</time>
      </trkpt>
      <trkpt lat="43.75638" lon="6.83589">
        <ele>1358.265394</ele>
        <time>2024-12-06T10:27:28.000Z</time>
      </trkpt>
      <trkpt lat="43.75637" lon="6.83585">
        <ele>1358.624694</ele>
        <time>2024-12-06T10:27:29.000Z</time>
      </trkpt>
      <trkpt lat="43.75636" lon="6.83583">
        <ele>1358.960359</ele>
        <time>2024-12-06T10:27:30.000Z</time>
      </trkpt>
      <trkpt lat="43.75635" lon="6.8358">
        <ele>1359.305689</ele>
        <time>2024-12-06T10:27:31.000Z</time>
      </trkpt>
      <trkpt lat="43.75634" lon="6.83577">
        <ele>1359.641353</ele>
        <time>2024-12-06T10:27:32.000Z</time>
      </trkpt>
      <trkpt lat="43.75633" lon="6.83574">
        <ele>1359.983872</ele>
        <time>2024-12-06T10:27:33.000Z</time>
      </trkpt>
      <trkpt lat="43.75632" lon="6.83572">
        <ele>1360.297545</ele>
        <time>2024-12-06T10:27:34.000Z</time>
      </trkpt>
      <trkpt lat="43.7563" lon="6.83569">
        <ele>1360.619918</ele>
        <time>2024-12-06T10:27:35.000Z</time>
      </trkpt>
      <trkpt lat="43.75629" lon="6.83567">
        <ele>1360.942291</ele>
        <time>2024-12-06T10:27:36.000Z</time>
      </trkpt>
      <trkpt lat="43.75628" lon="6.83565">
        <ele>1361.256133</ele>
        <time>2024-12-06T10:27:37.000Z</time>
      </trkpt>
      <trkpt lat="43.75626" lon="6.83562">
        <ele>1361.60977</ele>
        <time>2024-12-06T10:27:38.000Z</time>
      </trkpt>
      <trkpt lat="43.75624" lon="6.8356">
        <ele>1361.941413</ele>
        <time>2024-12-06T10:27:39.000Z</time>
      </trkpt>
      <trkpt lat="43.75623" lon="6.83558">
        <ele>1362.208735</ele>
        <time>2024-12-06T10:27:40.000Z</time>
      </trkpt>
      <trkpt lat="43.75621" lon="6.83555">
        <ele>1362.468505</ele>
        <time>2024-12-06T10:27:41.000Z</time>
      </trkpt>
      <trkpt lat="43.7562" lon="6.83553">
        <ele>1362.720639</ele>
        <time>2024-12-06T10:27:42.000Z</time>
      </trkpt>
      <trkpt lat="43.75619" lon="6.8355">
        <ele>1362.960625</ele>
        <time>2024-12-06T10:27:43.000Z</time>
      </trkpt>
      <trkpt lat="43.75617" lon="6.83548">
        <ele>1363.226638</ele>
        <time>2024-12-06T10:27:44.000Z</time>
      </trkpt>
      <trkpt lat="43.75615" lon="6.83545">
        <ele>1363.50621</ele>
        <time>2024-12-06T10:27:45.000Z</time>
      </trkpt>
      <trkpt lat="43.75614" lon="6.83543">
        <ele>1363.772223</ele>
        <time>2024-12-06T10:27:46.000Z</time>
      </trkpt>
      <trkpt lat="43.75613" lon="6.8354">
        <ele>1364.017909</ele>
        <time>2024-12-06T10:27:47.000Z</time>
      </trkpt>
      <trkpt lat="43.75612" lon="6.83538">
        <ele>1364.24369</ele>
        <time>2024-12-06T10:27:48.000Z</time>
      </trkpt>
      <trkpt lat="43.7561" lon="6.83536">
        <ele>1364.475919</ele>
        <time>2024-12-06T10:27:49.000Z</time>
      </trkpt>
      <trkpt lat="43.75609" lon="6.83534">
        <ele>1364.684263</ele>
        <time>2024-12-06T10:27:50.000Z</time>
      </trkpt>
      <trkpt lat="43.75608" lon="6.83532">
        <ele>1364.897074</ele>
        <time>2024-12-06T10:27:51.000Z</time>
      </trkpt>
      <trkpt lat="43.75607" lon="6.8353">
        <ele>1365.123448</ele>
        <time>2024-12-06T10:27:52.000Z</time>
      </trkpt>
      <trkpt lat="43.75605" lon="6.83528">
        <ele>1365.357355</ele>
        <time>2024-12-06T10:27:53.000Z</time>
      </trkpt>
      <trkpt lat="43.75604" lon="6.83526">
        <ele>1365.559994</ele>
        <time>2024-12-06T10:27:54.000Z</time>
      </trkpt>
      <trkpt lat="43.75603" lon="6.83524">
        <ele>1365.774204</ele>
        <time>2024-12-06T10:27:55.000Z</time>
      </trkpt>
      <trkpt lat="43.75601" lon="6.83522">
        <ele>1366.013246</ele>
        <time>2024-12-06T10:27:56.000Z</time>
      </trkpt>
      <trkpt lat="43.756" lon="6.8352">
        <ele>1366.259432</ele>
        <time>2024-12-06T10:27:57.000Z</time>
      </trkpt>
      <trkpt lat="43.75599" lon="6.83517">
        <ele>1366.49334</ele>
        <time>2024-12-06T10:27:58.000Z</time>
      </trkpt>
      <trkpt lat="43.75597" lon="6.83516">
        <ele>1366.715495</ele>
        <time>2024-12-06T10:27:59.000Z</time>
      </trkpt>
      <trkpt lat="43.75596" lon="6.83514">
        <ele>1366.943456</ele>
        <time>2024-12-06T10:28:00.000Z</time>
      </trkpt>
      <trkpt lat="43.75594" lon="6.83512">
        <ele>1367.17384</ele>
        <time>2024-12-06T10:28:01.000Z</time>
      </trkpt>
      <trkpt lat="43.75593" lon="6.8351">
        <ele>1367.421419</ele>
        <time>2024-12-06T10:28:02.000Z</time>
      </trkpt>
      <trkpt lat="43.75591" lon="6.83508">
        <ele>1367.669043</ele>
        <time>2024-12-06T10:28:03.000Z</time>
      </trkpt>
      <trkpt lat="43.7559" lon="6.83506">
        <ele>1367.862029</ele>
        <time>2024-12-06T10:28:04.000Z</time>
      </trkpt>
      <trkpt lat="43.75589" lon="6.83503">
        <ele>1368.154368</ele>
        <time>2024-12-06T10:28:05.000Z</time>
      </trkpt>
      <trkpt lat="43.75587" lon="6.835">
        <ele>1368.413847</ele>
        <time>2024-12-06T10:28:06.000Z</time>
      </trkpt>
      <trkpt lat="43.75586" lon="6.83497">
        <ele>1368.707245</ele>
        <time>2024-12-06T10:28:07.000Z</time>
      </trkpt>
      <trkpt lat="43.75585" lon="6.83494">
        <ele>1368.979686</ele>
        <time>2024-12-06T10:28:08.000Z</time>
      </trkpt>
      <trkpt lat="43.75583" lon="6.83491">
        <ele>1369.266035</ele>
        <time>2024-12-06T10:28:09.000Z</time>
      </trkpt>
      <trkpt lat="43.75582" lon="6.83488">
        <ele>1369.519759</ele>
        <time>2024-12-06T10:28:10.000Z</time>
      </trkpt>
      <trkpt lat="43.75581" lon="6.83486">
        <ele>1369.739488</ele>
        <time>2024-12-06T10:28:11.000Z</time>
      </trkpt>
      <trkpt lat="43.7558" lon="6.83484">
        <ele>1369.967448</ele>
        <time>2024-12-06T10:28:12.000Z</time>
      </trkpt>
      <trkpt lat="43.75579" lon="6.83482">
        <ele>1370.206361</ele>
        <time>2024-12-06T10:28:13.000Z</time>
      </trkpt>
      <trkpt lat="43.75577" lon="6.83479">
        <ele>1370.452549</ele>
        <time>2024-12-06T10:28:14.000Z</time>
      </trkpt>
      <trkpt lat="43.75576" lon="6.83477">
        <ele>1370.706187</ele>
        <time>2024-12-06T10:28:15.000Z</time>
      </trkpt>
      <trkpt lat="43.75575" lon="6.83475">
        <ele>1370.914531</ele>
        <time>2024-12-06T10:28:16.000Z</time>
      </trkpt>
      <trkpt lat="43.75573" lon="6.83473">
        <ele>1371.140906</ele>
        <time>2024-12-06T10:28:17.000Z</time>
      </trkpt>
      <trkpt lat="43.75572" lon="6.83471">
        <ele>1371.379949</ele>
        <time>2024-12-06T10:28:18.000Z</time>
      </trkpt>
      <trkpt lat="43.75571" lon="6.83469">
        <ele>1371.63245</ele>
        <time>2024-12-06T10:28:19.000Z</time>
      </trkpt>
      <trkpt lat="43.75569" lon="6.83466">
        <ele>1371.878638</ele>
        <time>2024-12-06T10:28:20.000Z</time>
      </trkpt>
      <trkpt lat="43.75568" lon="6.83464">
        <ele>1372.126261</ele>
        <time>2024-12-06T10:28:21.000Z</time>
      </trkpt>
      <trkpt lat="43.75566" lon="6.83462">
        <ele>1372.370537</ele>
        <time>2024-12-06T10:28:22.000Z</time>
      </trkpt>
      <trkpt lat="43.75565" lon="6.8346">
        <ele>1372.623039</ele>
        <time>2024-12-06T10:28:23.000Z</time>
      </trkpt>
      <trkpt lat="43.75563" lon="6.83457">
        <ele>1372.870663</ele>
        <time>2024-12-06T10:28:24.000Z</time>
      </trkpt>
      <trkpt lat="43.75562" lon="6.83455">
        <ele>1373.1124</ele>
        <time>2024-12-06T10:28:25.000Z</time>
      </trkpt>
      <trkpt lat="43.7556" lon="6.83453">
        <ele>1373.351269</ele>
        <time>2024-12-06T10:28:26.000Z</time>
      </trkpt>
      <trkpt lat="43.75559" lon="6.83452">
        <ele>1373.567774</ele>
        <time>2024-12-06T10:28:27.000Z</time>
      </trkpt>
      <trkpt lat="43.75557" lon="6.8345">
        <ele>1373.77349</ele>
        <time>2024-12-06T10:28:28.000Z</time>
      </trkpt>
      <trkpt lat="43.75556" lon="6.83448">
        <ele>1374.016012</ele>
        <time>2024-12-06T10:28:29.000Z</time>
      </trkpt>
      <trkpt lat="43.75554" lon="6.83447">
        <ele>1374.23568</ele>
        <time>2024-12-06T10:28:30.000Z</time>
      </trkpt>
      <trkpt lat="43.75552" lon="6.83445">
        <ele>1374.46412</ele>
        <time>2024-12-06T10:28:31.000Z</time>
      </trkpt>
      <trkpt lat="43.75551" lon="6.83444">
        <ele>1374.684194</ele>
        <time>2024-12-06T10:28:32.000Z</time>
      </trkpt>
      <trkpt lat="43.75549" lon="6.83442">
        <ele>1374.898771</ele>
        <time>2024-12-06T10:28:33.000Z</time>
      </trkpt>
      <trkpt lat="43.75548" lon="6.8344">
        <ele>1375.123713</ele>
        <time>2024-12-06T10:28:34.000Z</time>
      </trkpt>
      <trkpt lat="43.75546" lon="6.83438">
        <ele>1375.385252</ele>
        <time>2024-12-06T10:28:35.000Z</time>
      </trkpt>
      <trkpt lat="43.75544" lon="6.83436">
        <ele>1375.615638</ele>
        <time>2024-12-06T10:28:36.000Z</time>
      </trkpt>
      <trkpt lat="43.75543" lon="6.83434">
        <ele>1375.842014</ele>
        <time>2024-12-06T10:28:37.000Z</time>
      </trkpt>
      <trkpt lat="43.75541" lon="6.83432">
        <ele>1376.103382</ele>
        <time>2024-12-06T10:28:38.000Z</time>
      </trkpt>
      <trkpt lat="43.7554" lon="6.8343">
        <ele>1376.35702</ele>
        <time>2024-12-06T10:28:39.000Z</time>
      </trkpt>
      <trkpt lat="43.75539" lon="6.83428">
        <ele>1376.590929</ele>
        <time>2024-12-06T10:28:40.000Z</time>
      </trkpt>
      <trkpt lat="43.75537" lon="6.83426">
        <ele>1376.815871</ele>
        <time>2024-12-06T10:28:41.000Z</time>
      </trkpt>
      <trkpt lat="43.75535" lon="6.83424">
        <ele>1377.060147</ele>
        <time>2024-12-06T10:28:42.000Z</time>
      </trkpt>
      <trkpt lat="43.75534" lon="6.83422">
        <ele>1377.307062</ele>
        <time>2024-12-06T10:28:43.000Z</time>
      </trkpt>
      <trkpt lat="43.75532" lon="6.8342">
        <ele>1377.52673</ele>
        <time>2024-12-06T10:28:44.000Z</time>
      </trkpt>
      <trkpt lat="43.75531" lon="6.83419">
        <ele>1377.740941</ele>
        <time>2024-12-06T10:28:45.000Z</time>
      </trkpt>
      <trkpt lat="43.75529" lon="6.83416">
        <ele>1377.999119</ele>
        <time>2024-12-06T10:28:46.000Z</time>
      </trkpt>
      <trkpt lat="43.75528" lon="6.83414">
        <ele>1378.251621</ele>
        <time>2024-12-06T10:28:47.000Z</time>
      </trkpt>
      <trkpt lat="43.75526" lon="6.83412">
        <ele>1378.526757</ele>
        <time>2024-12-06T10:28:48.000Z</time>
      </trkpt>
      <trkpt lat="43.75524" lon="6.83409">
        <ele>1378.812611</ele>
        <time>2024-12-06T10:28:49.000Z</time>
      </trkpt>
      <trkpt lat="43.75523" lon="6.83406">
        <ele>1379.091415</ele>
        <time>2024-12-06T10:28:50.000Z</time>
      </trkpt>
      <trkpt lat="43.75521" lon="6.83403">
        <ele>1379.383643</ele>
        <time>2024-12-06T10:28:51.000Z</time>
      </trkpt>
      <trkpt lat="43.7552" lon="6.834">
        <ele>1379.682893</ele>
        <time>2024-12-06T10:28:52.000Z</time>
      </trkpt>
      <trkpt lat="43.75518" lon="6.83397">
        <ele>1380.002033</ele>
        <time>2024-12-06T10:28:53.000Z</time>
      </trkpt>
      <trkpt lat="43.75517" lon="6.83394">
        <ele>1380.31177</ele>
        <time>2024-12-06T10:28:54.000Z</time>
      </trkpt>
      <trkpt lat="43.75516" lon="6.8339">
        <ele>1380.631712</ele>
        <time>2024-12-06T10:28:55.000Z</time>
      </trkpt>
      <trkpt lat="43.75515" lon="6.83386">
        <ele>1380.970446</ele>
        <time>2024-12-06T10:28:56.000Z</time>
      </trkpt>
      <trkpt lat="43.75514" lon="6.83382">
        <ele>1381.297771</ele>
        <time>2024-12-06T10:28:57.000Z</time>
      </trkpt>
      <trkpt lat="43.75513" lon="6.83379">
        <ele>1381.622297</ele>
        <time>2024-12-06T10:28:58.000Z</time>
      </trkpt>
      <trkpt lat="43.75512" lon="6.83375">
        <ele>1381.951731</ele>
        <time>2024-12-06T10:28:59.000Z</time>
      </trkpt>
      <trkpt lat="43.7551" lon="6.83372">
        <ele>1382.290913</ele>
        <time>2024-12-06T10:29:00.000Z</time>
      </trkpt>
      <trkpt lat="43.75509" lon="6.83368">
        <ele>1382.560482</ele>
        <time>2024-12-06T10:29:01.000Z</time>
      </trkpt>
      <trkpt lat="43.75507" lon="6.83365">
        <ele>1382.817852</ele>
        <time>2024-12-06T10:29:02.000Z</time>
      </trkpt>
      <trkpt lat="43.75506" lon="6.83361">
        <ele>1383.069236</ele>
        <time>2024-12-06T10:29:03.000Z</time>
      </trkpt>
      <trkpt lat="43.75505" lon="6.83358">
        <ele>1383.327775</ele>
        <time>2024-12-06T10:29:04.000Z</time>
      </trkpt>
      <trkpt lat="43.75503" lon="6.83355">
        <ele>1383.591804</ele>
        <time>2024-12-06T10:29:05.000Z</time>
      </trkpt>
      <trkpt lat="43.75502" lon="6.83352">
        <ele>1383.839675</ele>
        <time>2024-12-06T10:29:06.000Z</time>
      </trkpt>
      <trkpt lat="43.755" lon="6.83349">
        <ele>1384.076624</ele>
        <time>2024-12-06T10:29:07.000Z</time>
      </trkpt>
      <trkpt lat="43.75499" lon="6.83346">
        <ele>1384.319497</ele>
        <time>2024-12-06T10:29:08.000Z</time>
      </trkpt>
      <trkpt lat="43.75497" lon="6.83342">
        <ele>1384.575053</ele>
        <time>2024-12-06T10:29:09.000Z</time>
      </trkpt>
      <trkpt lat="43.75496" lon="6.83339">
        <ele>1384.814572</ele>
        <time>2024-12-06T10:29:10.000Z</time>
      </trkpt>
      <trkpt lat="43.75495" lon="6.83336">
        <ele>1385.049994</ele>
        <time>2024-12-06T10:29:11.000Z</time>
      </trkpt>
      <trkpt lat="43.75494" lon="6.83333">
        <ele>1385.293887</ele>
        <time>2024-12-06T10:29:12.000Z</time>
      </trkpt>
      <trkpt lat="43.75493" lon="6.8333">
        <ele>1385.515908</ele>
        <time>2024-12-06T10:29:13.000Z</time>
      </trkpt>
      <trkpt lat="43.75491" lon="6.83327">
        <ele>1385.74535</ele>
        <time>2024-12-06T10:29:14.000Z</time>
      </trkpt>
      <trkpt lat="43.7549" lon="6.83324">
        <ele>1385.966467</ele>
        <time>2024-12-06T10:29:15.000Z</time>
      </trkpt>
      <trkpt lat="43.75489" lon="6.83321">
        <ele>1386.198871</ele>
        <time>2024-12-06T10:29:16.000Z</time>
      </trkpt>
      <trkpt lat="43.75488" lon="6.83318">
        <ele>1386.41443</ele>
        <time>2024-12-06T10:29:17.000Z</time>
      </trkpt>
      <trkpt lat="43.75486" lon="6.83316">
        <ele>1386.619363</ele>
        <time>2024-12-06T10:29:18.000Z</time>
      </trkpt>
      <trkpt lat="43.75485" lon="6.83313">
        <ele>1386.813826</ele>
        <time>2024-12-06T10:29:19.000Z</time>
      </trkpt>
      <trkpt lat="43.75484" lon="6.83311">
        <ele>1387.018795</ele>
        <time>2024-12-06T10:29:20.000Z</time>
      </trkpt>
      <trkpt lat="43.75483" lon="6.83309">
        <ele>1387.169648</ele>
        <time>2024-12-06T10:29:21.000Z</time>
      </trkpt>
      <trkpt lat="43.75481" lon="6.83306">
        <ele>1387.396552</ele>
        <time>2024-12-06T10:29:22.000Z</time>
      </trkpt>
      <trkpt lat="43.7548" lon="6.83304">
        <ele>1387.547405</ele>
        <time>2024-12-06T10:29:23.000Z</time>
      </trkpt>
      <trkpt lat="43.75478" lon="6.83302">
        <ele>1387.781897</ele>
        <time>2024-12-06T10:29:24.000Z</time>
      </trkpt>
      <trkpt lat="43.75476" lon="6.833">
        <ele>1387.994338</ele>
        <time>2024-12-06T10:29:25.000Z</time>
      </trkpt>
      <trkpt lat="43.75474" lon="6.83299">
        <ele>1388.205904</ele>
        <time>2024-12-06T10:29:26.000Z</time>
      </trkpt>
      <trkpt lat="43.75472" lon="6.83298">
        <ele>1388.414845</ele>
        <time>2024-12-06T10:29:27.000Z</time>
      </trkpt>
      <trkpt lat="43.7547" lon="6.83297">
        <ele>1388.617025</ele>
        <time>2024-12-06T10:29:28.000Z</time>
      </trkpt>
      <trkpt lat="43.75468" lon="6.83296">
        <ele>1388.814232</ele>
        <time>2024-12-06T10:29:29.000Z</time>
      </trkpt>
      <trkpt lat="43.75466" lon="6.83296">
        <ele>1389.020454</ele>
        <time>2024-12-06T10:29:30.000Z</time>
      </trkpt>
      <trkpt lat="43.75464" lon="6.83295">
        <ele>1389.216426</ele>
        <time>2024-12-06T10:29:31.000Z</time>
      </trkpt>
      <trkpt lat="43.75462" lon="6.83295">
        <ele>1389.415082</ele>
        <time>2024-12-06T10:29:32.000Z</time>
      </trkpt>
      <trkpt lat="43.7546" lon="6.83294">
        <ele>1389.608676</ele>
        <time>2024-12-06T10:29:33.000Z</time>
      </trkpt>
      <trkpt lat="43.75457" lon="6.83294">
        <ele>1389.820207</ele>
        <time>2024-12-06T10:29:34.000Z</time>
      </trkpt>
      <trkpt lat="43.75455" lon="6.83294">
        <ele>1390.031842</ele>
        <time>2024-12-06T10:29:35.000Z</time>
      </trkpt>
      <trkpt lat="43.75453" lon="6.83294">
        <ele>1390.234176</ele>
        <time>2024-12-06T10:29:36.000Z</time>
      </trkpt>
      <trkpt lat="43.7545" lon="6.83294">
        <ele>1390.448299</ele>
        <time>2024-12-06T10:29:37.000Z</time>
      </trkpt>
      <trkpt lat="43.75448" lon="6.83294">
        <ele>1390.659934</ele>
        <time>2024-12-06T10:29:38.000Z</time>
      </trkpt>
      <trkpt lat="43.75446" lon="6.83295">
        <ele>1390.849661</ele>
        <time>2024-12-06T10:29:39.000Z</time>
      </trkpt>
      <trkpt lat="43.75444" lon="6.83295">
        <ele>1391.05184</ele>
        <time>2024-12-06T10:29:40.000Z</time>
      </trkpt>
      <trkpt lat="43.75442" lon="6.83297">
        <ele>1391.241247</ele>
        <time>2024-12-06T10:29:41.000Z</time>
      </trkpt>
      <trkpt lat="43.7544" lon="6.83297">
        <ele>1391.415114</ele>
        <time>2024-12-06T10:29:42.000Z</time>
      </trkpt>
      <trkpt lat="43.75439" lon="6.83298">
        <ele>1391.591126</ele>
        <time>2024-12-06T10:29:43.000Z</time>
      </trkpt>
      <trkpt lat="43.75437" lon="6.83299">
        <ele>1391.774865</ele>
        <time>2024-12-06T10:29:44.000Z</time>
      </trkpt>
      <trkpt lat="43.75435" lon="6.83301">
        <ele>1391.983807</ele>
        <time>2024-12-06T10:29:45.000Z</time>
      </trkpt>
      <trkpt lat="43.75433" lon="6.83302">
        <ele>1392.159819</ele>
        <time>2024-12-06T10:29:46.000Z</time>
      </trkpt>
      <trkpt lat="43.75431" lon="6.83302">
        <ele>1392.353231</ele>
        <time>2024-12-06T10:29:47.000Z</time>
      </trkpt>
      <trkpt lat="43.75429" lon="6.83303">
        <ele>1392.540146</ele>
        <time>2024-12-06T10:29:48.000Z</time>
      </trkpt>
      <trkpt lat="43.75427" lon="6.83303">
        <ele>1392.734309</ele>
        <time>2024-12-06T10:29:49.000Z</time>
      </trkpt>
      <trkpt lat="43.75425" lon="6.83303">
        <ele>1392.937078</ele>
        <time>2024-12-06T10:29:50.000Z</time>
      </trkpt>
      <trkpt lat="43.75422" lon="6.83304">
        <ele>1393.139848</ele>
        <time>2024-12-06T10:29:51.000Z</time>
      </trkpt>
      <trkpt lat="43.75421" lon="6.83304">
        <ele>1393.29676</ele>
        <time>2024-12-06T10:29:52.000Z</time>
      </trkpt>
      <trkpt lat="43.75419" lon="6.83304">
        <ele>1393.467037</ele>
        <time>2024-12-06T10:29:53.000Z</time>
      </trkpt>
      <trkpt lat="43.75417" lon="6.83305">
        <ele>1393.632172</ele>
        <time>2024-12-06T10:29:54.000Z</time>
      </trkpt>
      <trkpt lat="43.75416" lon="6.83306">
        <ele>1393.746448</ele>
        <time>2024-12-06T10:29:55.000Z</time>
      </trkpt>
      <trkpt lat="43.75415" lon="6.83307">
        <ele>1393.872478</ele>
        <time>2024-12-06T10:29:56.000Z</time>
      </trkpt>
      <trkpt lat="43.75413" lon="6.83307">
        <ele>1394.00192</ele>
        <time>2024-12-06T10:29:57.000Z</time>
      </trkpt>
      <trkpt lat="43.75413" lon="6.83307">
        <ele>1394.066299</ele>
        <time>2024-12-06T10:29:58.000Z</time>
      </trkpt>
      <trkpt lat="43.75413" lon="6.83306">
        <ele>1394.134371</ele>
        <time>2024-12-06T10:30:07.000Z</time>
      </trkpt>
      <trkpt lat="43.75413" lon="6.83306">
        <ele>1394.134371</ele>
        <time>2024-12-06T10:30:20.000Z</time>
      </trkpt>
      <trkpt lat="43.75413" lon="6.83306">
        <ele>1394.134371</ele>
        <time>2024-12-06T10:30:28.000Z</time>
      </trkpt>
      <trkpt lat="43.75413" lon="6.83305">
        <ele>1394.246847</ele>
        <time>2024-12-06T10:30:35.000Z</time>
      </trkpt>
      <trkpt lat="43.75412" lon="6.83302">
        <ele>1394.438377</ele>
        <time>2024-12-06T10:30:39.000Z</time>
      </trkpt>
      <trkpt lat="43.75414" lon="6.83297">
        <ele>1394.777546</ele>
        <time>2024-12-06T10:30:41.000Z</time>
      </trkpt>
      <trkpt lat="43.75418" lon="6.83296">
        <ele>1395.158682</ele>
        <time>2024-12-06T10:30:43.000Z</time>
      </trkpt>
      <trkpt lat="43.75419" lon="6.83296">
        <ele>1395.334558</ele>
        <time>2024-12-06T10:30:44.000Z</time>
      </trkpt>
      <trkpt lat="43.75421" lon="6.83296">
        <ele>1395.500237</ele>
        <time>2024-12-06T10:30:45.000Z</time>
      </trkpt>
      <trkpt lat="43.75423" lon="6.83296">
        <ele>1395.669082</ele>
        <time>2024-12-06T10:30:46.000Z</time>
      </trkpt>
      <trkpt lat="43.75427" lon="6.83293">
        <ele>1396.093043</ele>
        <time>2024-12-06T10:30:48.000Z</time>
      </trkpt>
      <trkpt lat="43.75429" lon="6.83292">
        <ele>1396.285913</ele>
        <time>2024-12-06T10:30:49.000Z</time>
      </trkpt>
      <trkpt lat="43.75431" lon="6.8329">
        <ele>1396.48211</ele>
        <time>2024-12-06T10:30:50.000Z</time>
      </trkpt>
      <trkpt lat="43.75432" lon="6.83287">
        <ele>1396.654436</ele>
        <time>2024-12-06T10:30:51.000Z</time>
      </trkpt>
      <trkpt lat="43.75433" lon="6.83285">
        <ele>1396.85372</ele>
        <time>2024-12-06T10:30:52.000Z</time>
      </trkpt>
      <trkpt lat="43.75435" lon="6.83282">
        <ele>1397.085722</ele>
        <time>2024-12-06T10:30:53.000Z</time>
      </trkpt>
      <trkpt lat="43.75439" lon="6.83274">
        <ele>1397.781729</ele>
        <time>2024-12-06T10:30:56.000Z</time>
      </trkpt>
      <trkpt lat="43.75443" lon="6.8327">
        <ele>1398.246885</ele>
        <time>2024-12-06T10:30:58.000Z</time>
      </trkpt>
      <trkpt lat="43.7545" lon="6.83267">
        <ele>1398.935339</ele>
        <time>2024-12-06T10:31:01.000Z</time>
      </trkpt>
      <trkpt lat="43.75452" lon="6.83266">
        <ele>1399.295</ele>
        <time>2024-12-06T10:31:02.000Z</time>
      </trkpt>
      <trkpt lat="43.75454" lon="6.83264">
        <ele>1399.644358</ele>
        <time>2024-12-06T10:31:03.000Z</time>
      </trkpt>
      <trkpt lat="43.75456" lon="6.83262">
        <ele>1400.021759</ele>
        <time>2024-12-06T10:31:04.000Z</time>
      </trkpt>
      <trkpt lat="43.75458" lon="6.8326">
        <ele>1400.413907</ele>
        <time>2024-12-06T10:31:05.000Z</time>
      </trkpt>
      <trkpt lat="43.7546" lon="6.83257">
        <ele>1400.817058</ele>
        <time>2024-12-06T10:31:06.000Z</time>
      </trkpt>
      <trkpt lat="43.75462" lon="6.83256">
        <ele>1401.200588</ele>
        <time>2024-12-06T10:31:07.000Z</time>
      </trkpt>
      <trkpt lat="43.75463" lon="6.83254">
        <ele>1401.552225</ele>
        <time>2024-12-06T10:31:08.000Z</time>
      </trkpt>
      <trkpt lat="43.75465" lon="6.83252">
        <ele>1401.92331</ele>
        <time>2024-12-06T10:31:09.000Z</time>
      </trkpt>
      <trkpt lat="43.75468" lon="6.83251">
        <ele>1402.338091</ele>
        <time>2024-12-06T10:31:10.000Z</time>
      </trkpt>
      <trkpt lat="43.7547" lon="6.83251">
        <ele>1402.687636</ele>
        <time>2024-12-06T10:31:11.000Z</time>
      </trkpt>
      <trkpt lat="43.75472" lon="6.83251">
        <ele>1403.02047</ele>
        <time>2024-12-06T10:31:12.000Z</time>
      </trkpt>
      <trkpt lat="43.75474" lon="6.8325">
        <ele>1403.308255</ele>
        <time>2024-12-06T10:31:13.000Z</time>
      </trkpt>
      <trkpt lat="43.75475" lon="6.83248">
        <ele>1403.595302</ele>
        <time>2024-12-06T10:31:14.000Z</time>
      </trkpt>
      <trkpt lat="43.75477" lon="6.83246">
        <ele>1403.883557</ele>
        <time>2024-12-06T10:31:15.000Z</time>
      </trkpt>
      <trkpt lat="43.75477" lon="6.83245">
        <ele>1404.107047</ele>
        <time>2024-12-06T10:31:16.000Z</time>
      </trkpt>
      <trkpt lat="43.75477" lon="6.83244">
        <ele>1404.199774</ele>
        <time>2024-12-06T10:31:17.000Z</time>
      </trkpt>
      <trkpt lat="43.75478" lon="6.83244">
        <ele>1404.238784</ele>
        <time>2024-12-06T10:31:18.000Z</time>
      </trkpt>
      <trkpt lat="43.75478" lon="6.83243">
        <ele>1404.304641</ele>
        <time>2024-12-06T10:31:20.000Z</time>
      </trkpt>
      <trkpt lat="43.75478" lon="6.83243">
        <ele>1404.338264</ele>
        <time>2024-12-06T10:31:26.000Z</time>
      </trkpt>
      <trkpt lat="43.7548" lon="6.83243">
        <ele>1404.67051</ele>
        <time>2024-12-06T10:31:28.000Z</time>
      </trkpt>
      <trkpt lat="43.75481" lon="6.83243">
        <ele>1404.832299</ele>
        <time>2024-12-06T10:31:29.000Z</time>
      </trkpt>
      <trkpt lat="43.75482" lon="6.83244">
        <ele>1404.98335</ele>
        <time>2024-12-06T10:31:30.000Z</time>
      </trkpt>
      <trkpt lat="43.75483" lon="6.83245">
        <ele>1405.204789</ele>
        <time>2024-12-06T10:31:31.000Z</time>
      </trkpt>
      <trkpt lat="43.75484" lon="6.83246">
        <ele>1405.38197</ele>
        <time>2024-12-06T10:31:32.000Z</time>
      </trkpt>
      <trkpt lat="43.75485" lon="6.83246">
        <ele>1405.587842</ele>
        <time>2024-12-06T10:31:33.000Z</time>
      </trkpt>
      <trkpt lat="43.75487" lon="6.83245">
        <ele>1405.898723</ele>
        <time>2024-12-06T10:31:34.000Z</time>
      </trkpt>
      <trkpt lat="43.75489" lon="6.83245">
        <ele>1406.23777</ele>
        <time>2024-12-06T10:31:35.000Z</time>
      </trkpt>
      <trkpt lat="43.75491" lon="6.83245">
        <ele>1406.586381</ele>
        <time>2024-12-06T10:31:36.000Z</time>
      </trkpt>
      <trkpt lat="43.75493" lon="6.83245">
        <ele>1406.902825</ele>
        <time>2024-12-06T10:31:37.000Z</time>
      </trkpt>
      <trkpt lat="43.75495" lon="6.83245">
        <ele>1407.159907</ele>
        <time>2024-12-06T10:31:38.000Z</time>
      </trkpt>
      <trkpt lat="43.75496" lon="6.83245">
        <ele>1407.333837</ele>
        <time>2024-12-06T10:31:39.000Z</time>
      </trkpt>
      <trkpt lat="43.75497" lon="6.83245">
        <ele>1407.476144</ele>
        <time>2024-12-06T10:31:40.000Z</time>
      </trkpt>
      <trkpt lat="43.75498" lon="6.83245">
        <ele>1407.606323</ele>
        <time>2024-12-06T10:31:42.000Z</time>
      </trkpt>
      <trkpt lat="43.75499" lon="6.83244">
        <ele>1407.762365</ele>
        <time>2024-12-06T10:31:43.000Z</time>
      </trkpt>
      <trkpt lat="43.755" lon="6.83242">
        <ele>1408.061648</ele>
        <time>2024-12-06T10:31:47.000Z</time>
      </trkpt>
      <trkpt lat="43.755" lon="6.83242">
        <ele>1408.061648</ele>
        <time>2024-12-06T10:31:58.000Z</time>
      </trkpt>
      <trkpt lat="43.755" lon="6.83242">
        <ele>1408.061648</ele>
        <time>2024-12-06T10:32:02.000Z</time>
      </trkpt>
      <trkpt lat="43.755" lon="6.83242">
        <ele>1408.061648</ele>
        <time>2024-12-06T10:32:10.000Z</time>
      </trkpt>
      <trkpt lat="43.75506" lon="6.83236">
        <ele>1409.232849</ele>
        <time>2024-12-06T10:32:15.000Z</time>
      </trkpt>
      <trkpt lat="43.75508" lon="6.83235">
        <ele>1409.512666</ele>
        <time>2024-12-06T10:32:16.000Z</time>
      </trkpt>
      <trkpt lat="43.75509" lon="6.83233">
        <ele>1409.812076</ele>
        <time>2024-12-06T10:32:17.000Z</time>
      </trkpt>
      <trkpt lat="43.7551" lon="6.83232">
        <ele>1410.083551</ele>
        <time>2024-12-06T10:32:18.000Z</time>
      </trkpt>
      <trkpt lat="43.75511" lon="6.8323">
        <ele>1410.327147</ele>
        <time>2024-12-06T10:32:19.000Z</time>
      </trkpt>
      <trkpt lat="43.75512" lon="6.83227">
        <ele>1410.64405</ele>
        <time>2024-12-06T10:32:20.000Z</time>
      </trkpt>
      <trkpt lat="43.75512" lon="6.83224">
        <ele>1410.96668</ele>
        <time>2024-12-06T10:32:21.000Z</time>
      </trkpt>
      <trkpt lat="43.75513" lon="6.83222">
        <ele>1411.294308</ele>
        <time>2024-12-06T10:32:22.000Z</time>
      </trkpt>
      <trkpt lat="43.75514" lon="6.83218">
        <ele>1411.788983</ele>
        <time>2024-12-06T10:32:24.000Z</time>
      </trkpt>
      <trkpt lat="43.75514" lon="6.83216">
        <ele>1411.955765</ele>
        <time>2024-12-06T10:32:25.000Z</time>
      </trkpt>
      <trkpt lat="43.75515" lon="6.83214">
        <ele>1412.197479</ele>
        <time>2024-12-06T10:32:27.000Z</time>
      </trkpt>
      <trkpt lat="43.75515" lon="6.83214">
        <ele>1412.256732</ele>
        <time>2024-12-06T10:32:28.000Z</time>
      </trkpt>
      <trkpt lat="43.75514" lon="6.8321">
        <ele>1412.751408</ele>
        <time>2024-12-06T10:32:32.000Z</time>
      </trkpt>
      <trkpt lat="43.75513" lon="6.83208">
        <ele>1412.987666</ele>
        <time>2024-12-06T10:32:33.000Z</time>
      </trkpt>
      <trkpt lat="43.75511" lon="6.83207">
        <ele>1413.306418</ele>
        <time>2024-12-06T10:32:34.000Z</time>
      </trkpt>
      <trkpt lat="43.75509" lon="6.83205">
        <ele>1413.646744</ele>
        <time>2024-12-06T10:32:35.000Z</time>
      </trkpt>
      <trkpt lat="43.75508" lon="6.83204">
        <ele>1413.914328</ele>
        <time>2024-12-06T10:32:36.000Z</time>
      </trkpt>
      <trkpt lat="43.75506" lon="6.83202">
        <ele>1414.181913</ele>
        <time>2024-12-06T10:32:37.000Z</time>
      </trkpt>
      <trkpt lat="43.75505" lon="6.832">
        <ele>1414.489204</ele>
        <time>2024-12-06T10:32:38.000Z</time>
      </trkpt>
      <trkpt lat="43.75504" lon="6.83197">
        <ele>1414.854438</ele>
        <time>2024-12-06T10:32:39.000Z</time>
      </trkpt>
      <trkpt lat="43.75504" lon="6.83195">
        <ele>1415.188002</ele>
        <time>2024-12-06T10:32:40.000Z</time>
      </trkpt>
      <trkpt lat="43.75503" lon="6.83192">
        <ele>1415.51563</ele>
        <time>2024-12-06T10:32:41.000Z</time>
      </trkpt>
      <trkpt lat="43.75502" lon="6.83189">
        <ele>1415.811898</ele>
        <time>2024-12-06T10:32:42.000Z</time>
      </trkpt>
      <trkpt lat="43.75502" lon="6.83187">
        <ele>1416.065142</ele>
        <time>2024-12-06T10:32:43.000Z</time>
      </trkpt>
      <trkpt lat="43.75502" lon="6.83185">
        <ele>1416.317677</ele>
        <time>2024-12-06T10:32:44.000Z</time>
      </trkpt>
      <trkpt lat="43.75501" lon="6.83183">
        <ele>1416.602954</ele>
        <time>2024-12-06T10:32:45.000Z</time>
      </trkpt>
      <trkpt lat="43.75501" lon="6.83181">
        <ele>1416.866361</ele>
        <time>2024-12-06T10:32:46.000Z</time>
      </trkpt>
      <trkpt lat="43.755" lon="6.83179">
        <ele>1417.103375</ele>
        <time>2024-12-06T10:32:47.000Z</time>
      </trkpt>
      <trkpt lat="43.755" lon="6.83176">
        <ele>1417.367523</ele>
        <time>2024-12-06T10:32:48.000Z</time>
      </trkpt>
      <trkpt lat="43.75499" lon="6.83174">
        <ele>1417.62863</ele>
        <time>2024-12-06T10:32:49.000Z</time>
      </trkpt>
      <trkpt lat="43.75498" lon="6.83173">
        <ele>1417.897914</ele>
        <time>2024-12-06T10:32:50.000Z</time>
      </trkpt>
      <trkpt lat="43.75496" lon="6.83171">
        <ele>1418.171843</ele>
        <time>2024-12-06T10:32:51.000Z</time>
      </trkpt>
      <trkpt lat="43.75495" lon="6.83171">
        <ele>1418.401665</ele>
        <time>2024-12-06T10:32:52.000Z</time>
      </trkpt>
      <trkpt lat="43.75494" lon="6.8317">
        <ele>1418.599815</ele>
        <time>2024-12-06T10:32:53.000Z</time>
      </trkpt>
      <trkpt lat="43.75492" lon="6.8317">
        <ele>1418.870792</ele>
        <time>2024-12-06T10:32:54.000Z</time>
      </trkpt>
      <trkpt lat="43.75491" lon="6.83169">
        <ele>1419.094794</ele>
        <time>2024-12-06T10:32:55.000Z</time>
      </trkpt>
      <trkpt lat="43.75489" lon="6.83168">
        <ele>1419.401468</ele>
        <time>2024-12-06T10:32:56.000Z</time>
      </trkpt>
      <trkpt lat="43.75487" lon="6.83167">
        <ele>1419.694808</ele>
        <time>2024-12-06T10:32:57.000Z</time>
      </trkpt>
      <trkpt lat="43.75485" lon="6.83166">
        <ele>1420.008821</ele>
        <time>2024-12-06T10:32:58.000Z</time>
      </trkpt>
      <trkpt lat="43.75484" lon="6.83166">
        <ele>1420.297078</ele>
        <time>2024-12-06T10:32:59.000Z</time>
      </trkpt>
      <trkpt lat="43.75482" lon="6.83165">
        <ele>1420.556433</ele>
        <time>2024-12-06T10:33:00.000Z</time>
      </trkpt>
      <trkpt lat="43.7548" lon="6.83165">
        <ele>1420.829089</ele>
        <time>2024-12-06T10:33:01.000Z</time>
      </trkpt>
      <trkpt lat="43.75479" lon="6.83165">
        <ele>1421.100066</ele>
        <time>2024-12-06T10:33:02.000Z</time>
      </trkpt>
      <trkpt lat="43.75477" lon="6.83164">
        <ele>1421.346946</ele>
        <time>2024-12-06T10:33:03.000Z</time>
      </trkpt>
      <trkpt lat="43.75476" lon="6.83163">
        <ele>1421.601477</ele>
        <time>2024-12-06T10:33:04.000Z</time>
      </trkpt>
      <trkpt lat="43.75474" lon="6.83162">
        <ele>1421.857116</ele>
        <time>2024-12-06T10:33:05.000Z</time>
      </trkpt>
      <trkpt lat="43.75473" lon="6.8316">
        <ele>1422.098045</ele>
        <time>2024-12-06T10:33:06.000Z</time>
      </trkpt>
      <trkpt lat="43.75472" lon="6.83159">
        <ele>1422.371119</ele>
        <time>2024-12-06T10:33:07.000Z</time>
      </trkpt>
      <trkpt lat="43.75471" lon="6.83158">
        <ele>1422.624688</ele>
        <time>2024-12-06T10:33:08.000Z</time>
      </trkpt>
      <trkpt lat="43.75469" lon="6.83156">
        <ele>1422.897762</ele>
        <time>2024-12-06T10:33:09.000Z</time>
      </trkpt>
      <trkpt lat="43.75468" lon="6.83155">
        <ele>1423.129373</ele>
        <time>2024-12-06T10:33:10.000Z</time>
      </trkpt>
      <trkpt lat="43.75468" lon="6.83153">
        <ele>1423.31211</ele>
        <time>2024-12-06T10:33:11.000Z</time>
      </trkpt>
      <trkpt lat="43.75468" lon="6.83152">
        <ele>1423.416109</ele>
        <time>2024-12-06T10:33:12.000Z</time>
      </trkpt>
      <trkpt lat="43.75468" lon="6.83152">
        <ele>1423.416109</ele>
        <time>2024-12-06T10:33:22.000Z</time>
      </trkpt>
      <trkpt lat="43.75468" lon="6.83152">
        <ele>1423.416109</ele>
        <time>2024-12-06T10:33:34.000Z</time>
      </trkpt>
      <trkpt lat="43.75468" lon="6.83152">
        <ele>1423.416109</ele>
        <time>2024-12-06T10:33:35.000Z</time>
      </trkpt>
      <trkpt lat="43.75468" lon="6.83152">
        <ele>1423.416109</ele>
        <time>2024-12-06T10:33:36.000Z</time>
      </trkpt>
      <trkpt lat="43.75468" lon="6.83152">
        <ele>1423.416109</ele>
        <time>2024-12-06T10:33:39.000Z</time>
      </trkpt>
      <trkpt lat="43.75468" lon="6.83152">
        <ele>1423.416109</ele>
        <time>2024-12-06T10:33:47.000Z</time>
      </trkpt>
      <trkpt lat="43.75468" lon="6.83152">
        <ele>1423.416109</ele>
        <time>2024-12-06T10:33:48.000Z</time>
      </trkpt>
      <trkpt lat="43.75468" lon="6.83152">
        <ele>1423.435614</ele>
        <time>2024-12-06T10:33:50.000Z</time>
      </trkpt>
      <trkpt lat="43.75469" lon="6.83152">
        <ele>1423.488263</ele>
        <time>2024-12-06T10:33:52.000Z</time>
      </trkpt>
      <trkpt lat="43.75469" lon="6.83152">
        <ele>1423.488263</ele>
        <time>2024-12-06T10:34:04.000Z</time>
      </trkpt>
      <trkpt lat="43.75469" lon="6.83152">
        <ele>1423.488263</ele>
        <time>2024-12-06T10:34:05.000Z</time>
      </trkpt>
      <trkpt lat="43.75468" lon="6.83152">
        <ele>1423.601279</ele>
        <time>2024-12-06T10:34:14.000Z</time>
      </trkpt>
      <trkpt lat="43.75468" lon="6.83152">
        <ele>1423.601279</ele>
        <time>2024-12-06T10:34:18.000Z</time>
      </trkpt>
      <trkpt lat="43.75468" lon="6.83151">
        <ele>1423.783896</ele>
        <time>2024-12-06T10:34:20.000Z</time>
      </trkpt>
      <trkpt lat="43.75467" lon="6.83149">
        <ele>1424.05302</ele>
        <time>2024-12-06T10:34:21.000Z</time>
      </trkpt>
      <trkpt lat="43.75466" lon="6.83146">
        <ele>1424.396919</ele>
        <time>2024-12-06T10:34:22.000Z</time>
      </trkpt>
      <trkpt lat="43.75465" lon="6.83143">
        <ele>1424.789729</ele>
        <time>2024-12-06T10:34:23.000Z</time>
      </trkpt>
      <trkpt lat="43.75465" lon="6.83139">
        <ele>1425.189466</ele>
        <time>2024-12-06T10:34:24.000Z</time>
      </trkpt>
      <trkpt lat="43.75464" lon="6.83136">
        <ele>1425.55601</ele>
        <time>2024-12-06T10:34:25.000Z</time>
      </trkpt>
      <trkpt lat="43.75463" lon="6.83133">
        <ele>1425.959792</ele>
        <time>2024-12-06T10:34:26.000Z</time>
      </trkpt>
      <trkpt lat="43.75463" lon="6.83129">
        <ele>1426.364501</ele>
        <time>2024-12-06T10:34:27.000Z</time>
      </trkpt>
      <trkpt lat="43.75462" lon="6.83126">
        <ele>1426.768284</ele>
        <time>2024-12-06T10:34:28.000Z</time>
      </trkpt>
      <trkpt lat="43.75462" lon="6.83124">
        <ele>1426.961656</ele>
        <time>2024-12-06T10:34:29.000Z</time>
      </trkpt>
      <trkpt lat="43.75462" lon="6.83124">
        <ele>1427.031983</ele>
        <time>2024-12-06T10:34:41.000Z</time>
      </trkpt>
      <trkpt lat="43.75462" lon="6.8312">
        <ele>1427.312108</ele>
        <time>2024-12-06T10:34:43.000Z</time>
      </trkpt>
      <trkpt lat="43.75461" lon="6.83119">
        <ele>1427.385435</ele>
        <time>2024-12-06T10:34:44.000Z</time>
      </trkpt>
      <trkpt lat="43.75461" lon="6.83116">
        <ele>1427.475706</ele>
        <time>2024-12-06T10:34:45.000Z</time>
      </trkpt>
      <trkpt lat="43.7546" lon="6.83114">
        <ele>1427.583002</ele>
        <time>2024-12-06T10:34:46.000Z</time>
      </trkpt>
      <trkpt lat="43.75459" lon="6.83111">
        <ele>1427.691125</ele>
        <time>2024-12-06T10:34:47.000Z</time>
      </trkpt>
      <trkpt lat="43.75458" lon="6.83103">
        <ele>1427.964296</ele>
        <time>2024-12-06T10:34:50.000Z</time>
      </trkpt>
      <trkpt lat="43.75456" lon="6.83097">
        <ele>1428.192829</ele>
        <time>2024-12-06T10:34:52.000Z</time>
      </trkpt>
      <trkpt lat="43.75451" lon="6.83088">
        <ele>1428.59752</ele>
        <time>2024-12-06T10:34:56.000Z</time>
      </trkpt>
      <trkpt lat="43.75451" lon="6.83085">
        <ele>1428.697413</ele>
        <time>2024-12-06T10:34:57.000Z</time>
      </trkpt>
      <trkpt lat="43.7545" lon="6.83083">
        <ele>1428.789143</ele>
        <time>2024-12-06T10:34:58.000Z</time>
      </trkpt>
      <trkpt lat="43.75449" lon="6.8308">
        <ele>1428.883957</ele>
        <time>2024-12-06T10:34:59.000Z</time>
      </trkpt>
      <trkpt lat="43.75448" lon="6.83074">
        <ele>1429.092589</ele>
        <time>2024-12-06T10:35:01.000Z</time>
      </trkpt>
      <trkpt lat="43.75448" lon="6.83071">
        <ele>1429.198019</ele>
        <time>2024-12-06T10:35:02.000Z</time>
      </trkpt>
      <trkpt lat="43.75447" lon="6.83069">
        <ele>1429.303171</ele>
        <time>2024-12-06T10:35:03.000Z</time>
      </trkpt>
      <trkpt lat="43.75446" lon="6.83066">
        <ele>1429.397985</ele>
        <time>2024-12-06T10:35:04.000Z</time>
      </trkpt>
      <trkpt lat="43.75445" lon="6.83063">
        <ele>1429.516218</ele>
        <time>2024-12-06T10:35:05.000Z</time>
      </trkpt>
      <trkpt lat="43.75445" lon="6.8306">
        <ele>1429.616111</ele>
        <time>2024-12-06T10:35:06.000Z</time>
      </trkpt>
      <trkpt lat="43.75444" lon="6.83058">
        <ele>1429.714676</ele>
        <time>2024-12-06T10:35:07.000Z</time>
      </trkpt>
      <trkpt lat="43.75444" lon="6.83054">
        <ele>1429.847784</ele>
        <time>2024-12-06T10:35:08.000Z</time>
      </trkpt>
      <trkpt lat="43.75443" lon="6.83051">
        <ele>1429.959267</ele>
        <time>2024-12-06T10:35:09.000Z</time>
      </trkpt>
      <trkpt lat="43.75442" lon="6.83048">
        <ele>1430.070881</ele>
        <time>2024-12-06T10:35:10.000Z</time>
      </trkpt>
      <trkpt lat="43.75441" lon="6.83045">
        <ele>1430.174078</ele>
        <time>2024-12-06T10:35:11.000Z</time>
      </trkpt>
      <trkpt lat="43.75441" lon="6.83043">
        <ele>1430.268893</ele>
        <time>2024-12-06T10:35:12.000Z</time>
      </trkpt>
      <trkpt lat="43.7544" lon="6.8304">
        <ele>1430.381976</ele>
        <time>2024-12-06T10:35:13.000Z</time>
      </trkpt>
      <trkpt lat="43.75439" lon="6.83037">
        <ele>1430.492053</ele>
        <time>2024-12-06T10:35:14.000Z</time>
      </trkpt>
      <trkpt lat="43.75439" lon="6.83034">
        <ele>1430.595069</ele>
        <time>2024-12-06T10:35:15.000Z</time>
      </trkpt>
      <trkpt lat="43.75439" lon="6.83032">
        <ele>1430.681198</ele>
        <time>2024-12-06T10:35:16.000Z</time>
      </trkpt>
      <trkpt lat="43.75438" lon="6.83029">
        <ele>1430.764855</ele>
        <time>2024-12-06T10:35:17.000Z</time>
      </trkpt>
      <trkpt lat="43.75438" lon="6.83027">
        <ele>1430.856381</ele>
        <time>2024-12-06T10:35:18.000Z</time>
      </trkpt>
      <trkpt lat="43.75437" lon="6.83024">
        <ele>1430.956274</ele>
        <time>2024-12-06T10:35:19.000Z</time>
      </trkpt>
      <trkpt lat="43.75437" lon="6.83013">
        <ele>1431.335783</ele>
        <time>2024-12-06T10:35:23.000Z</time>
      </trkpt>
      <trkpt lat="43.75436" lon="6.83012">
        <ele>1431.389722</ele>
        <time>2024-12-06T10:35:24.000Z</time>
      </trkpt>
      <trkpt lat="43.75436" lon="6.83011">
        <ele>1431.447287</ele>
        <time>2024-12-06T10:35:25.000Z</time>
      </trkpt>
      <trkpt lat="43.75435" lon="6.83009">
        <ele>1431.501831</ele>
        <time>2024-12-06T10:35:26.000Z</time>
      </trkpt>
      <trkpt lat="43.75434" lon="6.83008">
        <ele>1431.570642</ele>
        <time>2024-12-06T10:35:27.000Z</time>
      </trkpt>
      <trkpt lat="43.75434" lon="6.83007">
        <ele>1431.614191</ele>
        <time>2024-12-06T10:35:28.000Z</time>
      </trkpt>
      <trkpt lat="43.75434" lon="6.83006">
        <ele>1431.649891</ele>
        <time>2024-12-06T10:35:29.000Z</time>
      </trkpt>
      <trkpt lat="43.75434" lon="6.83005">
        <ele>1431.664035</ele>
        <time>2024-12-06T10:35:30.000Z</time>
      </trkpt>
      <trkpt lat="43.75433" lon="6.82997">
        <ele>1431.965916</ele>
        <time>2024-12-06T10:35:50.000Z</time>
      </trkpt>
      <trkpt lat="43.75432" lon="6.82992">
        <ele>1432.149378</ele>
        <time>2024-12-06T10:35:52.000Z</time>
      </trkpt>
      <trkpt lat="43.7543" lon="6.82988">
        <ele>1432.319626</ele>
        <time>2024-12-06T10:35:54.000Z</time>
      </trkpt>
      <trkpt lat="43.75428" lon="6.82983">
        <ele>1432.509486</ele>
        <time>2024-12-06T10:35:57.000Z</time>
      </trkpt>
      <trkpt lat="43.75426" lon="6.82977">
        <ele>1432.743159</ele>
        <time>2024-12-06T10:36:00.000Z</time>
      </trkpt>
      <trkpt lat="43.75423" lon="6.8297">
        <ele>1433.058654</ele>
        <time>2024-12-06T10:36:03.000Z</time>
      </trkpt>
      <trkpt lat="43.75422" lon="6.82967">
        <ele>1433.145752</ele>
        <time>2024-12-06T10:36:04.000Z</time>
      </trkpt>
      <trkpt lat="43.75421" lon="6.82965">
        <ele>1433.229078</ele>
        <time>2024-12-06T10:36:05.000Z</time>
      </trkpt>
      <trkpt lat="43.7542" lon="6.82963">
        <ele>1433.321019</ele>
        <time>2024-12-06T10:36:06.000Z</time>
      </trkpt>
      <trkpt lat="43.75418" lon="6.8296">
        <ele>1433.478684</ele>
        <time>2024-12-06T10:36:08.000Z</time>
      </trkpt>
      <trkpt lat="43.75416" lon="6.82958">
        <ele>1433.592608</ele>
        <time>2024-12-06T10:36:10.000Z</time>
      </trkpt>
      <trkpt lat="43.75416" lon="6.82956">
        <ele>1433.663332</ele>
        <time>2024-12-06T10:36:11.000Z</time>
      </trkpt>
      <trkpt lat="43.75416" lon="6.82954">
        <ele>1433.735565</ele>
        <time>2024-12-06T10:36:12.000Z</time>
      </trkpt>
      <trkpt lat="43.75416" lon="6.82952">
        <ele>1433.800888</ele>
        <time>2024-12-06T10:36:13.000Z</time>
      </trkpt>
      <trkpt lat="43.75416" lon="6.82951">
        <ele>1433.849877</ele>
        <time>2024-12-06T10:36:14.000Z</time>
      </trkpt>
      <trkpt lat="43.75415" lon="6.82949">
        <ele>1433.910087</ele>
        <time>2024-12-06T10:36:15.000Z</time>
      </trkpt>
      <trkpt lat="43.75414" lon="6.82948">
        <ele>1433.985675</ele>
        <time>2024-12-06T10:36:16.000Z</time>
      </trkpt>
      <trkpt lat="43.75413" lon="6.82946">
        <ele>1434.057423</ele>
        <time>2024-12-06T10:36:17.000Z</time>
      </trkpt>
      <trkpt lat="43.75412" lon="6.82944">
        <ele>1434.140555</ele>
        <time>2024-12-06T10:36:18.000Z</time>
      </trkpt>
      <trkpt lat="43.75411" lon="6.8294">
        <ele>1434.27878</ele>
        <time>2024-12-06T10:36:20.000Z</time>
      </trkpt>
      <trkpt lat="43.7541" lon="6.82939">
        <ele>1434.337198</ele>
        <time>2024-12-06T10:36:21.000Z</time>
      </trkpt>
      <trkpt lat="43.7541" lon="6.82937">
        <ele>1434.404106</ele>
        <time>2024-12-06T10:36:22.000Z</time>
      </trkpt>
      <trkpt lat="43.75409" lon="6.82936">
        <ele>1434.464317</ele>
        <time>2024-12-06T10:36:23.000Z</time>
      </trkpt>
      <trkpt lat="43.75403" lon="6.82929">
        <ele>1434.834127</ele>
        <time>2024-12-06T10:36:28.000Z</time>
      </trkpt>
      <trkpt lat="43.75397" lon="6.82923">
        <ele>1435.190371</ele>
        <time>2024-12-06T10:36:32.000Z</time>
      </trkpt>
      <trkpt lat="43.75392" lon="6.82918">
        <ele>1435.497674</ele>
        <time>2024-12-06T10:36:35.000Z</time>
      </trkpt>
      <trkpt lat="43.75389" lon="6.82915">
        <ele>1435.696981</ele>
        <time>2024-12-06T10:36:37.000Z</time>
      </trkpt>
      <trkpt lat="43.75383" lon="6.82907">
        <ele>1436.120942</ele>
        <time>2024-12-06T10:36:41.000Z</time>
      </trkpt>
      <trkpt lat="43.75381" lon="6.82905">
        <ele>1436.229122</ele>
        <time>2024-12-06T10:36:42.000Z</time>
      </trkpt>
      <trkpt lat="43.75379" lon="6.82903">
        <ele>1436.339563</ele>
        <time>2024-12-06T10:36:43.000Z</time>
      </trkpt>
      <trkpt lat="43.75378" lon="6.82901">
        <ele>1436.433146</ele>
        <time>2024-12-06T10:36:44.000Z</time>
      </trkpt>
      <trkpt lat="43.75377" lon="6.82899">
        <ele>1436.512616</ele>
        <time>2024-12-06T10:36:45.000Z</time>
      </trkpt>
      <trkpt lat="43.75377" lon="6.82897">
        <ele>1436.590056</ele>
        <time>2024-12-06T10:36:46.000Z</time>
      </trkpt>
      <trkpt lat="43.75376" lon="6.82895">
        <ele>1436.672526</ele>
        <time>2024-12-06T10:36:47.000Z</time>
      </trkpt>
      <trkpt lat="43.75376" lon="6.82893">
        <ele>1436.740184</ele>
        <time>2024-12-06T10:36:48.000Z</time>
      </trkpt>
      <trkpt lat="43.75375" lon="6.82891">
        <ele>1436.816453</ele>
        <time>2024-12-06T10:36:49.000Z</time>
      </trkpt>
      <trkpt lat="43.75374" lon="6.82889">
        <ele>1436.895439</ele>
        <time>2024-12-06T10:36:50.000Z</time>
      </trkpt>
      <trkpt lat="43.75373" lon="6.82888">
        <ele>1436.958693</ele>
        <time>2024-12-06T10:36:51.000Z</time>
      </trkpt>
      <trkpt lat="43.75371" lon="6.82887">
        <ele>1437.032316</ele>
        <time>2024-12-06T10:36:52.000Z</time>
      </trkpt>
      <trkpt lat="43.7537" lon="6.82886">
        <ele>1437.114735</ele>
        <time>2024-12-06T10:36:53.000Z</time>
      </trkpt>
      <trkpt lat="43.75368" lon="6.82886">
        <ele>1437.216043</ele>
        <time>2024-12-06T10:36:54.000Z</time>
      </trkpt>
      <trkpt lat="43.75366" lon="6.82885">
        <ele>1437.319103</ele>
        <time>2024-12-06T10:36:55.000Z</time>
      </trkpt>
      <trkpt lat="43.75365" lon="6.82884">
        <ele>1437.396453</ele>
        <time>2024-12-06T10:36:56.000Z</time>
      </trkpt>
      <trkpt lat="43.75363" lon="6.82882">
        <ele>1437.487473</ele>
        <time>2024-12-06T10:36:57.000Z</time>
      </trkpt>
      <trkpt lat="43.75362" lon="6.8288">
        <ele>1437.57247</ele>
        <time>2024-12-06T10:36:58.000Z</time>
      </trkpt>
      <trkpt lat="43.75361" lon="6.8288">
        <ele>1437.617405</ele>
        <time>2024-12-06T10:36:59.000Z</time>
      </trkpt>
      <trkpt lat="43.75361" lon="6.8288">
        <ele>1437.647323</ele>
        <time>2024-12-06T10:37:02.000Z</time>
      </trkpt>
      <trkpt lat="43.75358" lon="6.82877">
        <ele>1437.844748</ele>
        <time>2024-12-06T10:37:10.000Z</time>
      </trkpt>
      <trkpt lat="43.75356" lon="6.82875">
        <ele>1437.926283</ele>
        <time>2024-12-06T10:37:11.000Z</time>
      </trkpt>
      <trkpt lat="43.75355" lon="6.82874">
        <ele>1437.994192</ele>
        <time>2024-12-06T10:37:12.000Z</time>
      </trkpt>
      <trkpt lat="43.75354" lon="6.82872">
        <ele>1438.070628</ele>
        <time>2024-12-06T10:37:13.000Z</time>
      </trkpt>
      <trkpt lat="43.75353" lon="6.82871">
        <ele>1438.139958</ele>
        <time>2024-12-06T10:37:14.000Z</time>
      </trkpt>
      <trkpt lat="43.75352" lon="6.8287">
        <ele>1438.19492</ele>
        <time>2024-12-06T10:37:15.000Z</time>
      </trkpt>
      <trkpt lat="43.75351" lon="6.8287">
        <ele>1438.268609</ele>
        <time>2024-12-06T10:37:16.000Z</time>
      </trkpt>
      <trkpt lat="43.75349" lon="6.82868">
        <ele>1438.379762</ele>
        <time>2024-12-06T10:37:17.000Z</time>
      </trkpt>
      <trkpt lat="43.75347" lon="6.82867">
        <ele>1438.490915</ele>
        <time>2024-12-06T10:37:18.000Z</time>
      </trkpt>
      <trkpt lat="43.75344" lon="6.82866">
        <ele>1438.604795</ele>
        <time>2024-12-06T10:37:19.000Z</time>
      </trkpt>
      <trkpt lat="43.75342" lon="6.82865">
        <ele>1438.718362</ele>
        <time>2024-12-06T10:37:20.000Z</time>
      </trkpt>
      <trkpt lat="43.7534" lon="6.82864">
        <ele>1438.820487</ele>
        <time>2024-12-06T10:37:21.000Z</time>
      </trkpt>
      <trkpt lat="43.75338" lon="6.82864">
        <ele>1438.929315</ele>
        <time>2024-12-06T10:37:22.000Z</time>
      </trkpt>
      <trkpt lat="43.75336" lon="6.82863">
        <ele>1439.037139</ele>
        <time>2024-12-06T10:37:23.000Z</time>
      </trkpt>
      <trkpt lat="43.75334" lon="6.82862">
        <ele>1439.131606</ele>
        <time>2024-12-06T10:37:24.000Z</time>
      </trkpt>
      <trkpt lat="43.75333" lon="6.8286">
        <ele>1439.229876</ele>
        <time>2024-12-06T10:37:25.000Z</time>
      </trkpt>
      <trkpt lat="43.75331" lon="6.82858">
        <ele>1439.328147</ele>
        <time>2024-12-06T10:37:26.000Z</time>
      </trkpt>
      <trkpt lat="43.7533" lon="6.82856">
        <ele>1439.421889</ele>
        <time>2024-12-06T10:37:27.000Z</time>
      </trkpt>
      <trkpt lat="43.75329" lon="6.82855">
        <ele>1439.504366</ele>
        <time>2024-12-06T10:37:28.000Z</time>
      </trkpt>
      <trkpt lat="43.75327" lon="6.82853">
        <ele>1439.58782</ele>
        <time>2024-12-06T10:37:29.000Z</time>
      </trkpt>
      <trkpt lat="43.75325" lon="6.82852">
        <ele>1439.683836</ele>
        <time>2024-12-06T10:37:30.000Z</time>
      </trkpt>
      <trkpt lat="43.75324" lon="6.82851">
        <ele>1439.778302</ele>
        <time>2024-12-06T10:37:31.000Z</time>
      </trkpt>
      <trkpt lat="43.75322" lon="6.8285">
        <ele>1439.864066</ele>
        <time>2024-12-06T10:37:32.000Z</time>
      </trkpt>
      <trkpt lat="43.75321" lon="6.82849">
        <ele>1439.950972</ele>
        <time>2024-12-06T10:37:33.000Z</time>
      </trkpt>
      <trkpt lat="43.75319" lon="6.82848">
        <ele>1440.048305</ele>
        <time>2024-12-06T10:37:34.000Z</time>
      </trkpt>
      <trkpt lat="43.75316" lon="6.82848">
        <ele>1440.162671</ele>
        <time>2024-12-06T10:37:35.000Z</time>
      </trkpt>
      <trkpt lat="43.75315" lon="6.82849">
        <ele>1440.252773</ele>
        <time>2024-12-06T10:37:36.000Z</time>
      </trkpt>
      <trkpt lat="43.75313" lon="6.8285">
        <ele>1440.340412</ele>
        <time>2024-12-06T10:37:37.000Z</time>
      </trkpt>
      <trkpt lat="43.75312" lon="6.82852">
        <ele>1440.421613</ele>
        <time>2024-12-06T10:37:38.000Z</time>
      </trkpt>
      <trkpt lat="43.75311" lon="6.82854">
        <ele>1440.512023</ele>
        <time>2024-12-06T10:37:39.000Z</time>
      </trkpt>
      <trkpt lat="43.75311" lon="6.82857">
        <ele>1440.61512</ele>
        <time>2024-12-06T10:37:40.000Z</time>
      </trkpt>
      <trkpt lat="43.7531" lon="6.82859">
        <ele>1440.70807</ele>
        <time>2024-12-06T10:37:41.000Z</time>
      </trkpt>
      <trkpt lat="43.75308" lon="6.82861">
        <ele>1440.795678</ele>
        <time>2024-12-06T10:37:42.000Z</time>
      </trkpt>
      <trkpt lat="43.75306" lon="6.82861">
        <ele>1440.875208</ele>
        <time>2024-12-06T10:37:43.000Z</time>
      </trkpt>
      <trkpt lat="43.75305" lon="6.8286">
        <ele>1440.941143</ele>
        <time>2024-12-06T10:37:44.000Z</time>
      </trkpt>
      <trkpt lat="43.75305" lon="6.82859">
        <ele>1440.981901</ele>
        <time>2024-12-06T10:37:45.000Z</time>
      </trkpt>
      <trkpt lat="43.75304" lon="6.82859">
        <ele>1441.02314</ele>
        <time>2024-12-06T10:37:47.000Z</time>
      </trkpt>
      <trkpt lat="43.75303" lon="6.82853">
        <ele>1441.213256</ele>
        <time>2024-12-06T10:37:55.000Z</time>
      </trkpt>
      <trkpt lat="43.75301" lon="6.82852">
        <ele>1441.323181</ele>
        <time>2024-12-06T10:37:57.000Z</time>
      </trkpt>
      <trkpt lat="43.75299" lon="6.82851">
        <ele>1441.42845</ele>
        <time>2024-12-06T10:37:58.000Z</time>
      </trkpt>
      <trkpt lat="43.75297" lon="6.8285">
        <ele>1441.527863</ele>
        <time>2024-12-06T10:37:59.000Z</time>
      </trkpt>
      <trkpt lat="43.75296" lon="6.82848">
        <ele>1441.627662</ele>
        <time>2024-12-06T10:38:00.000Z</time>
      </trkpt>
      <trkpt lat="43.75294" lon="6.82846">
        <ele>1441.739299</ele>
        <time>2024-12-06T10:38:01.000Z</time>
      </trkpt>
      <trkpt lat="43.75293" lon="6.82844">
        <ele>1441.817581</ele>
        <time>2024-12-06T10:38:02.000Z</time>
      </trkpt>
      <trkpt lat="43.75292" lon="6.82842">
        <ele>1441.89295</ele>
        <time>2024-12-06T10:38:03.000Z</time>
      </trkpt>
      <trkpt lat="43.75292" lon="6.82841">
        <ele>1441.967101</ele>
        <time>2024-12-06T10:38:04.000Z</time>
      </trkpt>
      <trkpt lat="43.75291" lon="6.82838">
        <ele>1442.049805</ele>
        <time>2024-12-06T10:38:05.000Z</time>
      </trkpt>
      <trkpt lat="43.7529" lon="6.82836">
        <ele>1442.127245</ele>
        <time>2024-12-06T10:38:06.000Z</time>
      </trkpt>
      <trkpt lat="43.7529" lon="6.82834">
        <ele>1442.212143</ele>
        <time>2024-12-06T10:38:07.000Z</time>
      </trkpt>
      <trkpt lat="43.75289" lon="6.82833">
        <ele>1442.252744</ele>
        <time>2024-12-06T10:38:08.000Z</time>
      </trkpt>
      <trkpt lat="43.75289" lon="6.82833">
        <ele>1442.252744</ele>
        <time>2024-12-06T10:38:09.000Z</time>
      </trkpt>
      <trkpt lat="43.75289" lon="6.82833">
        <ele>1442.252744</ele>
        <time>2024-12-06T10:38:13.000Z</time>
      </trkpt>
      <trkpt lat="43.75289" lon="6.82833">
        <ele>1442.252744</ele>
        <time>2024-12-06T10:38:17.000Z</time>
      </trkpt>
      <trkpt lat="43.75289" lon="6.82833">
        <ele>1442.252744</ele>
        <time>2024-12-06T10:38:20.000Z</time>
      </trkpt>
      <trkpt lat="43.75289" lon="6.8283">
        <ele>1442.374429</ele>
        <time>2024-12-06T10:38:26.000Z</time>
      </trkpt>
      <trkpt lat="43.75289" lon="6.82827">
        <ele>1442.475649</ele>
        <time>2024-12-06T10:38:28.000Z</time>
      </trkpt>
      <trkpt lat="43.75289" lon="6.82827">
        <ele>1442.475649</ele>
        <time>2024-12-06T10:38:29.000Z</time>
      </trkpt>
      <trkpt lat="43.75289" lon="6.82827">
        <ele>1442.475649</ele>
        <time>2024-12-06T10:38:31.000Z</time>
      </trkpt>
      <trkpt lat="43.75289" lon="6.82827">
        <ele>1442.475649</ele>
        <time>2024-12-06T10:38:40.000Z</time>
      </trkpt>
      <trkpt lat="43.75289" lon="6.82827">
        <ele>1442.493045</ele>
        <time>2024-12-06T10:38:44.000Z</time>
      </trkpt>
      <trkpt lat="43.7529" lon="6.82826">
        <ele>1442.556879</ele>
        <time>2024-12-06T10:38:45.000Z</time>
      </trkpt>
      <trkpt lat="43.75292" lon="6.8282">
        <ele>1442.783232</ele>
        <time>2024-12-06T10:38:48.000Z</time>
      </trkpt>
      <trkpt lat="43.75294" lon="6.82819">
        <ele>1442.869344</ele>
        <time>2024-12-06T10:38:50.000Z</time>
      </trkpt>
      <trkpt lat="43.75296" lon="6.82813">
        <ele>1443.098151</ele>
        <time>2024-12-06T10:38:53.000Z</time>
      </trkpt>
      <trkpt lat="43.75296" lon="6.8281">
        <ele>1443.188773</ele>
        <time>2024-12-06T10:38:54.000Z</time>
      </trkpt>
      <trkpt lat="43.75296" lon="6.82808">
        <ele>1443.278307</ele>
        <time>2024-12-06T10:38:55.000Z</time>
      </trkpt>
      <trkpt lat="43.75295" lon="6.82805">
        <ele>1443.377979</ele>
        <time>2024-12-06T10:38:56.000Z</time>
      </trkpt>
      <trkpt lat="43.75295" lon="6.82803">
        <ele>1443.467226</ele>
        <time>2024-12-06T10:38:57.000Z</time>
      </trkpt>
      <trkpt lat="43.75294" lon="6.82801">
        <ele>1443.552124</ele>
        <time>2024-12-06T10:38:58.000Z</time>
      </trkpt>
      <trkpt lat="43.75294" lon="6.82798">
        <ele>1443.645228</ele>
        <time>2024-12-06T10:38:59.000Z</time>
      </trkpt>
      <trkpt lat="43.75294" lon="6.82784">
        <ele>1444.164322</ele>
        <time>2024-12-06T10:39:04.000Z</time>
      </trkpt>
      <trkpt lat="43.75295" lon="6.82778">
        <ele>1444.361991</ele>
        <time>2024-12-06T10:39:06.000Z</time>
      </trkpt>
      <trkpt lat="43.75294" lon="6.82774">
        <ele>1444.537197</ele>
        <time>2024-12-06T10:39:08.000Z</time>
      </trkpt>
      <trkpt lat="43.75293" lon="6.82772">
        <ele>1444.612771</ele>
        <time>2024-12-06T10:39:09.000Z</time>
      </trkpt>
      <trkpt lat="43.75292" lon="6.82769">
        <ele>1444.723083</ele>
        <time>2024-12-06T10:39:10.000Z</time>
      </trkpt>
      <trkpt lat="43.7529" lon="6.82767">
        <ele>1444.855337</ele>
        <time>2024-12-06T10:39:11.000Z</time>
      </trkpt>
      <trkpt lat="43.75286" lon="6.82764">
        <ele>1444.924231</ele>
        <time>2024-12-06T10:39:13.000Z</time>
      </trkpt>
      <trkpt lat="43.75284" lon="6.82762">
        <ele>1444.857453</ele>
        <time>2024-12-06T10:39:14.000Z</time>
      </trkpt>
      <trkpt lat="43.75277" lon="6.82757">
        <ele>1444.610482</ele>
        <time>2024-12-06T10:39:18.000Z</time>
      </trkpt>
      <trkpt lat="43.75271" lon="6.82753">
        <ele>1444.416545</ele>
        <time>2024-12-06T10:39:21.000Z</time>
      </trkpt>
      <trkpt lat="43.75269" lon="6.82752">
        <ele>1444.356523</ele>
        <time>2024-12-06T10:39:22.000Z</time>
      </trkpt>
      <trkpt lat="43.75268" lon="6.8275">
        <ele>1444.294393</ele>
        <time>2024-12-06T10:39:23.000Z</time>
      </trkpt>
      <trkpt lat="43.75266" lon="6.82748">
        <ele>1444.234208</ele>
        <time>2024-12-06T10:39:24.000Z</time>
      </trkpt>
      <trkpt lat="43.75265" lon="6.82746">
        <ele>1444.164999</ele>
        <time>2024-12-06T10:39:25.000Z</time>
      </trkpt>
      <trkpt lat="43.75264" lon="6.82742">
        <ele>1444.086872</ele>
        <time>2024-12-06T10:39:26.000Z</time>
      </trkpt>
      <trkpt lat="43.75264" lon="6.82738">
        <ele>1444.002547</ele>
        <time>2024-12-06T10:39:27.000Z</time>
      </trkpt>
      <trkpt lat="43.75263" lon="6.82735">
        <ele>1443.920871</ele>
        <time>2024-12-06T10:39:28.000Z</time>
      </trkpt>
      <trkpt lat="43.75263" lon="6.82731">
        <ele>1443.84298</ele>
        <time>2024-12-06T10:39:29.000Z</time>
      </trkpt>
      <trkpt lat="43.7526" lon="6.82726">
        <ele>1443.695991</ele>
        <time>2024-12-06T10:39:31.000Z</time>
      </trkpt>
      <trkpt lat="43.75258" lon="6.82723">
        <ele>1443.623071</ele>
        <time>2024-12-06T10:39:32.000Z</time>
      </trkpt>
      <trkpt lat="43.75257" lon="6.8272">
        <ele>1443.546966</ele>
        <time>2024-12-06T10:39:33.000Z</time>
      </trkpt>
      <trkpt lat="43.75255" lon="6.82715">
        <ele>1443.414351</ele>
        <time>2024-12-06T10:39:35.000Z</time>
      </trkpt>
      <trkpt lat="43.75255" lon="6.82713">
        <ele>1443.38581</ele>
        <time>2024-12-06T10:39:37.000Z</time>
      </trkpt>
      <trkpt lat="43.75255" lon="6.82713">
        <ele>1443.38581</ele>
        <time>2024-12-06T10:39:38.000Z</time>
      </trkpt>
      <trkpt lat="43.75255" lon="6.82713">
        <ele>1443.38581</ele>
        <time>2024-12-06T10:39:48.000Z</time>
      </trkpt>
      <trkpt lat="43.75255" lon="6.82713">
        <ele>1443.38581</ele>
        <time>2024-12-06T10:39:57.000Z</time>
      </trkpt>
      <trkpt lat="43.75255" lon="6.82713">
        <ele>1443.38581</ele>
        <time>2024-12-06T10:39:59.000Z</time>
      </trkpt>
      <trkpt lat="43.75255" lon="6.82713">
        <ele>1443.38581</ele>
        <time>2024-12-06T10:40:07.000Z</time>
      </trkpt>
      <trkpt lat="43.75255" lon="6.82713">
        <ele>1443.38581</ele>
        <time>2024-12-06T10:40:08.000Z</time>
      </trkpt>
      <trkpt lat="43.75255" lon="6.82713">
        <ele>1443.38581</ele>
        <time>2024-12-06T10:40:13.000Z</time>
      </trkpt>
      <trkpt lat="43.75255" lon="6.82713">
        <ele>1443.38581</ele>
        <time>2024-12-06T10:40:17.000Z</time>
      </trkpt>
      <trkpt lat="43.75255" lon="6.82713">
        <ele>1443.38581</ele>
        <time>2024-12-06T10:40:20.000Z</time>
      </trkpt>
      <trkpt lat="43.75254" lon="6.82711">
        <ele>1443.332706</ele>
        <time>2024-12-06T10:40:23.000Z</time>
      </trkpt>
      <trkpt lat="43.75253" lon="6.82705">
        <ele>1443.182534</ele>
        <time>2024-12-06T10:40:25.000Z</time>
      </trkpt>
      <trkpt lat="43.75252" lon="6.82697">
        <ele>1443.005285</ele>
        <time>2024-12-06T10:40:27.000Z</time>
      </trkpt>
      <trkpt lat="43.75251" lon="6.82689">
        <ele>1442.826906</ele>
        <time>2024-12-06T10:40:29.000Z</time>
      </trkpt>
      <trkpt lat="43.7525" lon="6.82685">
        <ele>1442.74523</ele>
        <time>2024-12-06T10:40:30.000Z</time>
      </trkpt>
      <trkpt lat="43.75249" lon="6.82679">
        <ele>1442.59715</ele>
        <time>2024-12-06T10:40:32.000Z</time>
      </trkpt>
      <trkpt lat="43.75247" lon="6.82676">
        <ele>1442.513971</ele>
        <time>2024-12-06T10:40:33.000Z</time>
      </trkpt>
      <trkpt lat="43.75243" lon="6.8266">
        <ele>1442.148356</ele>
        <time>2024-12-06T10:40:37.000Z</time>
      </trkpt>
      <trkpt lat="43.75242" lon="6.82656">
        <ele>1442.065026</ele>
        <time>2024-12-06T10:40:38.000Z</time>
      </trkpt>
      <trkpt lat="43.75241" lon="6.82653">
        <ele>1441.989623</ele>
        <time>2024-12-06T10:40:39.000Z</time>
      </trkpt>
      <trkpt lat="43.7524" lon="6.8265">
        <ele>1441.91749</ele>
        <time>2024-12-06T10:40:40.000Z</time>
      </trkpt>
      <trkpt lat="43.75239" lon="6.82647">
        <ele>1441.846572</ele>
        <time>2024-12-06T10:40:41.000Z</time>
      </trkpt>
      <trkpt lat="43.75237" lon="6.82644">
        <ele>1441.76199</ele>
        <time>2024-12-06T10:40:42.000Z</time>
      </trkpt>
      <trkpt lat="43.75236" lon="6.8264">
        <ele>1441.677409</ele>
        <time>2024-12-06T10:40:43.000Z</time>
      </trkpt>
      <trkpt lat="43.75235" lon="6.82637">
        <ele>1441.6004</ele>
        <time>2024-12-06T10:40:44.000Z</time>
      </trkpt>
      <trkpt lat="43.75234" lon="6.82634">
        <ele>1441.529482</ele>
        <time>2024-12-06T10:40:45.000Z</time>
      </trkpt>
      <trkpt lat="43.75233" lon="6.82631">
        <ele>1441.454078</ele>
        <time>2024-12-06T10:40:46.000Z</time>
      </trkpt>
      <trkpt lat="43.75232" lon="6.82628">
        <ele>1441.37671</ele>
        <time>2024-12-06T10:40:47.000Z</time>
      </trkpt>
      <trkpt lat="43.75232" lon="6.82624">
        <ele>1441.286857</ele>
        <time>2024-12-06T10:40:48.000Z</time>
      </trkpt>
      <trkpt lat="43.7523" lon="6.82609">
        <ele>1440.972899</ele>
        <time>2024-12-06T10:40:51.000Z</time>
      </trkpt>
      <trkpt lat="43.7523" lon="6.82605">
        <ele>1440.867412</ele>
        <time>2024-12-06T10:40:52.000Z</time>
      </trkpt>
      <trkpt lat="43.75226" lon="6.82572">
        <ele>1440.140169</ele>
        <time>2024-12-06T10:40:58.000Z</time>
      </trkpt>
      <trkpt lat="43.75226" lon="6.82566">
        <ele>1440.017576</ele>
        <time>2024-12-06T10:40:59.000Z</time>
      </trkpt>
      <trkpt lat="43.75225" lon="6.82561">
        <ele>1439.893501</ele>
        <time>2024-12-06T10:41:00.000Z</time>
      </trkpt>
      <trkpt lat="43.75223" lon="6.8255">
        <ele>1439.660652</ele>
        <time>2024-12-06T10:41:02.000Z</time>
      </trkpt>
      <trkpt lat="43.75222" lon="6.82545">
        <ele>1439.550979</ele>
        <time>2024-12-06T10:41:03.000Z</time>
      </trkpt>
      <trkpt lat="43.75221" lon="6.82541">
        <ele>1439.49772</ele>
        <time>2024-12-06T10:41:04.000Z</time>
      </trkpt>
      <trkpt lat="43.7522" lon="6.82536">
        <ele>1439.453054</ele>
        <time>2024-12-06T10:41:05.000Z</time>
      </trkpt>
      <trkpt lat="43.75219" lon="6.82533">
        <ele>1439.412604</ele>
        <time>2024-12-06T10:41:06.000Z</time>
      </trkpt>
      <trkpt lat="43.75219" lon="6.82529">
        <ele>1439.376927</ele>
        <time>2024-12-06T10:41:07.000Z</time>
      </trkpt>
      <trkpt lat="43.75218" lon="6.82526">
        <ele>1439.34125</ele>
        <time>2024-12-06T10:41:08.000Z</time>
      </trkpt>
      <trkpt lat="43.75217" lon="6.82523">
        <ele>1439.308265</ele>
        <time>2024-12-06T10:41:09.000Z</time>
      </trkpt>
      <trkpt lat="43.75217" lon="6.8252">
        <ele>1439.279788</ele>
        <time>2024-12-06T10:41:10.000Z</time>
      </trkpt>
      <trkpt lat="43.75217" lon="6.82517">
        <ele>1439.253847</ele>
        <time>2024-12-06T10:41:11.000Z</time>
      </trkpt>
      <trkpt lat="43.75217" lon="6.82515">
        <ele>1439.228752</ele>
        <time>2024-12-06T10:41:12.000Z</time>
      </trkpt>
      <trkpt lat="43.75214" lon="6.82506">
        <ele>1439.136762</ele>
        <time>2024-12-06T10:41:14.000Z</time>
      </trkpt>
      <trkpt lat="43.75211" lon="6.825">
        <ele>1439.06296</ele>
        <time>2024-12-06T10:41:15.000Z</time>
      </trkpt>
      <trkpt lat="43.75208" lon="6.82493">
        <ele>1438.983462</ele>
        <time>2024-12-06T10:41:16.000Z</time>
      </trkpt>
      <trkpt lat="43.75205" lon="6.82487">
        <ele>1438.908244</ele>
        <time>2024-12-06T10:41:17.000Z</time>
      </trkpt>
      <trkpt lat="43.75201" lon="6.82481">
        <ele>1438.826968</ele>
        <time>2024-12-06T10:41:18.000Z</time>
      </trkpt>
      <trkpt lat="43.75194" lon="6.8247">
        <ele>1438.679395</ele>
        <time>2024-12-06T10:41:20.000Z</time>
      </trkpt>
      <trkpt lat="43.75191" lon="6.82464">
        <ele>1438.612007</ele>
        <time>2024-12-06T10:41:21.000Z</time>
      </trkpt>
      <trkpt lat="43.75189" lon="6.82459">
        <ele>1438.549374</ele>
        <time>2024-12-06T10:41:22.000Z</time>
      </trkpt>
      <trkpt lat="43.75188" lon="6.82454">
        <ele>1438.497225</ele>
        <time>2024-12-06T10:41:23.000Z</time>
      </trkpt>
      <trkpt lat="43.75187" lon="6.8245">
        <ele>1438.453888</ele>
        <time>2024-12-06T10:41:24.000Z</time>
      </trkpt>
      <trkpt lat="43.75186" lon="6.82445">
        <ele>1438.410712</ele>
        <time>2024-12-06T10:41:25.000Z</time>
      </trkpt>
      <trkpt lat="43.75185" lon="6.82441">
        <ele>1438.364258</ele>
        <time>2024-12-06T10:41:26.000Z</time>
      </trkpt>
      <trkpt lat="43.75184" lon="6.82437">
        <ele>1438.321885</ele>
        <time>2024-12-06T10:41:27.000Z</time>
      </trkpt>
      <trkpt lat="43.75184" lon="6.82433">
        <ele>1438.285309</ele>
        <time>2024-12-06T10:41:28.000Z</time>
      </trkpt>
      <trkpt lat="43.75183" lon="6.82422">
        <ele>1438.168188</ele>
        <time>2024-12-06T10:41:31.000Z</time>
      </trkpt>
      <trkpt lat="43.75181" lon="6.82415">
        <ele>1438.093029</ele>
        <time>2024-12-06T10:41:33.000Z</time>
      </trkpt>
      <trkpt lat="43.75179" lon="6.82406">
        <ele>1438.008059</ele>
        <time>2024-12-06T10:41:35.000Z</time>
      </trkpt>
      <trkpt lat="43.75178" lon="6.82403">
        <ele>1437.97005</ele>
        <time>2024-12-06T10:41:36.000Z</time>
      </trkpt>
      <trkpt lat="43.75177" lon="6.824">
        <ele>1437.935735</ele>
        <time>2024-12-06T10:41:37.000Z</time>
      </trkpt>
      <trkpt lat="43.75177" lon="6.82396">
        <ele>1437.900814</ele>
        <time>2024-12-06T10:41:38.000Z</time>
      </trkpt>
      <trkpt lat="43.75176" lon="6.82393">
        <ele>1437.866445</ele>
        <time>2024-12-06T10:41:39.000Z</time>
      </trkpt>
      <trkpt lat="43.75176" lon="6.8239">
        <ele>1437.838372</ele>
        <time>2024-12-06T10:41:40.000Z</time>
      </trkpt>
      <trkpt lat="43.75176" lon="6.82388">
        <ele>1437.816379</ele>
        <time>2024-12-06T10:41:41.000Z</time>
      </trkpt>
      <trkpt lat="43.75176" lon="6.82385">
        <ele>1437.790401</ele>
        <time>2024-12-06T10:41:42.000Z</time>
      </trkpt>
      <trkpt lat="43.75176" lon="6.82378">
        <ele>1437.718551</ele>
        <time>2024-12-06T10:41:45.000Z</time>
      </trkpt>
      <trkpt lat="43.75175" lon="6.82376">
        <ele>1437.699028</ele>
        <time>2024-12-06T10:41:46.000Z</time>
      </trkpt>
      <trkpt lat="43.75174" lon="6.82374">
        <ele>1437.670515</ele>
        <time>2024-12-06T10:41:47.000Z</time>
      </trkpt>
      <trkpt lat="43.75173" lon="6.82363">
        <ele>1437.565645</ele>
        <time>2024-12-06T10:41:50.000Z</time>
      </trkpt>
      <trkpt lat="43.75173" lon="6.82359">
        <ele>1437.525736</ele>
        <time>2024-12-06T10:41:51.000Z</time>
      </trkpt>
      <trkpt lat="43.75172" lon="6.82347">
        <ele>1437.401249</ele>
        <time>2024-12-06T10:41:55.000Z</time>
      </trkpt>
      <trkpt lat="43.75172" lon="6.82339">
        <ele>1437.32124</ele>
        <time>2024-12-06T10:41:58.000Z</time>
      </trkpt>
      <trkpt lat="43.75171" lon="6.82336">
        <ele>1437.294395</ele>
        <time>2024-12-06T10:41:59.000Z</time>
      </trkpt>
      <trkpt lat="43.75171" lon="6.82334">
        <ele>1437.266153</ele>
        <time>2024-12-06T10:42:00.000Z</time>
      </trkpt>
      <trkpt lat="43.75171" lon="6.82331">
        <ele>1437.238654</ele>
        <time>2024-12-06T10:42:01.000Z</time>
      </trkpt>
      <trkpt lat="43.7517" lon="6.82328">
        <ele>1437.207936</ele>
        <time>2024-12-06T10:42:02.000Z</time>
      </trkpt>
      <trkpt lat="43.7517" lon="6.82325">
        <ele>1437.17673</ele>
        <time>2024-12-06T10:42:03.000Z</time>
      </trkpt>
      <trkpt lat="43.7517" lon="6.82322">
        <ele>1437.149756</ele>
        <time>2024-12-06T10:42:04.000Z</time>
      </trkpt>
      <trkpt lat="43.7517" lon="6.8232">
        <ele>1437.126766</ele>
        <time>2024-12-06T10:42:05.000Z</time>
      </trkpt>
      <trkpt lat="43.7517" lon="6.82317">
        <ele>1437.100789</ele>
        <time>2024-12-06T10:42:06.000Z</time>
      </trkpt>
      <trkpt lat="43.7517" lon="6.82314">
        <ele>1437.069736</ele>
        <time>2024-12-06T10:42:07.000Z</time>
      </trkpt>
      <trkpt lat="43.7517" lon="6.82311">
        <ele>1437.140348</ele>
        <time>2024-12-06T10:42:08.000Z</time>
      </trkpt>
      <trkpt lat="43.7517" lon="6.82309">
        <ele>1437.245042</ele>
        <time>2024-12-06T10:42:09.000Z</time>
      </trkpt>
      <trkpt lat="43.7517" lon="6.82306">
        <ele>1437.358023</ele>
        <time>2024-12-06T10:42:10.000Z</time>
      </trkpt>
      <trkpt lat="43.7517" lon="6.82304">
        <ele>1437.459203</ele>
        <time>2024-12-06T10:42:11.000Z</time>
      </trkpt>
      <trkpt lat="43.7517" lon="6.82302">
        <ele>1437.573733</ele>
        <time>2024-12-06T10:42:12.000Z</time>
      </trkpt>
      <trkpt lat="43.75171" lon="6.82299">
        <ele>1437.707159</ele>
        <time>2024-12-06T10:42:13.000Z</time>
      </trkpt>
      <trkpt lat="43.75171" lon="6.82295">
        <ele>1437.860941</ele>
        <time>2024-12-06T10:42:14.000Z</time>
      </trkpt>
      <trkpt lat="43.75171" lon="6.82292">
        <ele>1438.011253</ele>
        <time>2024-12-06T10:42:15.000Z</time>
      </trkpt>
      <trkpt lat="43.75172" lon="6.82289">
        <ele>1438.135812</ele>
        <time>2024-12-06T10:42:16.000Z</time>
      </trkpt>
      <trkpt lat="43.75172" lon="6.82287">
        <ele>1438.244994</ele>
        <time>2024-12-06T10:42:17.000Z</time>
      </trkpt>
      <trkpt lat="43.75172" lon="6.82284">
        <ele>1438.358666</ele>
        <time>2024-12-06T10:42:18.000Z</time>
      </trkpt>
      <trkpt lat="43.75172" lon="6.82282">
        <ele>1438.476333</ele>
        <time>2024-12-06T10:42:19.000Z</time>
      </trkpt>
      <trkpt lat="43.75172" lon="6.82279">
        <ele>1438.594498</ele>
        <time>2024-12-06T10:42:20.000Z</time>
      </trkpt>
      <trkpt lat="43.75173" lon="6.82276">
        <ele>1438.717157</ele>
        <time>2024-12-06T10:42:21.000Z</time>
      </trkpt>
      <trkpt lat="43.75173" lon="6.82273">
        <ele>1438.857812</ele>
        <time>2024-12-06T10:42:22.000Z</time>
      </trkpt>
      <trkpt lat="43.75173" lon="6.8227">
        <ele>1438.99568</ele>
        <time>2024-12-06T10:42:23.000Z</time>
      </trkpt>
      <trkpt lat="43.75174" lon="6.82268">
        <ele>1439.12467</ele>
        <time>2024-12-06T10:42:24.000Z</time>
      </trkpt>
      <trkpt lat="43.75174" lon="6.82265">
        <ele>1439.252593</ele>
        <time>2024-12-06T10:42:25.000Z</time>
      </trkpt>
      <trkpt lat="43.75174" lon="6.82262">
        <ele>1439.366265</ele>
        <time>2024-12-06T10:42:26.000Z</time>
      </trkpt>
      <trkpt lat="43.75174" lon="6.8226">
        <ele>1439.474907</ele>
        <time>2024-12-06T10:42:27.000Z</time>
      </trkpt>
      <trkpt lat="43.75174" lon="6.82257">
        <ele>1439.602064</ele>
        <time>2024-12-06T10:42:28.000Z</time>
      </trkpt>
      <trkpt lat="43.75174" lon="6.82254">
        <ele>1439.721054</ele>
        <time>2024-12-06T10:42:29.000Z</time>
      </trkpt>
      <trkpt lat="43.75175" lon="6.82252">
        <ele>1439.831128</ele>
        <time>2024-12-06T10:42:30.000Z</time>
      </trkpt>
      <trkpt lat="43.75175" lon="6.8225">
        <ele>1439.930748</ele>
        <time>2024-12-06T10:42:31.000Z</time>
      </trkpt>
      <trkpt lat="43.75175" lon="6.82247">
        <ele>1440.053408</ele>
        <time>2024-12-06T10:42:32.000Z</time>
      </trkpt>
      <trkpt lat="43.75175" lon="6.82245">
        <ele>1440.173544</ele>
        <time>2024-12-06T10:42:33.000Z</time>
      </trkpt>
      <trkpt lat="43.75176" lon="6.82242">
        <ele>1440.283618</ele>
        <time>2024-12-06T10:42:34.000Z</time>
      </trkpt>
      <trkpt lat="43.75176" lon="6.8224">
        <ele>1440.362704</ele>
        <time>2024-12-06T10:42:35.000Z</time>
      </trkpt>
      <trkpt lat="43.75176" lon="6.82238">
        <ele>1440.457814</ele>
        <time>2024-12-06T10:42:36.000Z</time>
      </trkpt>
      <trkpt lat="43.75176" lon="6.82236">
        <ele>1440.575979</ele>
        <time>2024-12-06T10:42:37.000Z</time>
      </trkpt>
      <trkpt lat="43.75176" lon="6.82233">
        <ele>1440.693646</ele>
        <time>2024-12-06T10:42:38.000Z</time>
      </trkpt>
      <trkpt lat="43.75176" lon="6.82231">
        <ele>1440.802288</ele>
        <time>2024-12-06T10:42:39.000Z</time>
      </trkpt>
      <trkpt lat="43.75176" lon="6.82228">
        <ele>1440.915961</ele>
        <time>2024-12-06T10:42:40.000Z</time>
      </trkpt>
      <trkpt lat="43.75176" lon="6.82226">
        <ele>1441.033627</ele>
        <time>2024-12-06T10:42:41.000Z</time>
      </trkpt>
      <trkpt lat="43.75176" lon="6.82223">
        <ele>1441.142175</ele>
        <time>2024-12-06T10:42:42.000Z</time>
      </trkpt>
      <trkpt lat="43.75177" lon="6.82221">
        <ele>1441.262311</ele>
        <time>2024-12-06T10:42:43.000Z</time>
      </trkpt>
      <trkpt lat="43.75177" lon="6.82218">
        <ele>1441.371493</ele>
        <time>2024-12-06T10:42:44.000Z</time>
      </trkpt>
      <trkpt lat="43.75177" lon="6.82216">
        <ele>1441.482804</ele>
        <time>2024-12-06T10:42:45.000Z</time>
      </trkpt>
      <trkpt lat="43.75178" lon="6.82214">
        <ele>1441.594116</ele>
        <time>2024-12-06T10:42:46.000Z</time>
      </trkpt>
      <trkpt lat="43.75178" lon="6.82211">
        <ele>1441.695295</ele>
        <time>2024-12-06T10:42:47.000Z</time>
      </trkpt>
      <trkpt lat="43.75178" lon="6.82209">
        <ele>1441.78568</ele>
        <time>2024-12-06T10:42:48.000Z</time>
      </trkpt>
      <trkpt lat="43.75178" lon="6.82207">
        <ele>1441.883829</ele>
        <time>2024-12-06T10:42:49.000Z</time>
      </trkpt>
      <trkpt lat="43.75177" lon="6.82205">
        <ele>1441.979474</ele>
        <time>2024-12-06T10:42:50.000Z</time>
      </trkpt>
      <trkpt lat="43.75177" lon="6.82203">
        <ele>1442.064583</ele>
        <time>2024-12-06T10:42:51.000Z</time>
      </trkpt>
      <trkpt lat="43.75176" lon="6.82201">
        <ele>1442.194931</ele>
        <time>2024-12-06T10:42:52.000Z</time>
      </trkpt>
      <trkpt lat="43.75176" lon="6.82198">
        <ele>1442.313921</ele>
        <time>2024-12-06T10:42:53.000Z</time>
      </trkpt>
      <trkpt lat="43.75176" lon="6.82195">
        <ele>1442.440615</ele>
        <time>2024-12-06T10:42:54.000Z</time>
      </trkpt>
      <trkpt lat="43.75176" lon="6.82193">
        <ele>1442.546238</ele>
        <time>2024-12-06T10:42:55.000Z</time>
      </trkpt>
      <trkpt lat="43.75176" lon="6.82191">
        <ele>1442.642981</ele>
        <time>2024-12-06T10:42:56.000Z</time>
      </trkpt>
      <trkpt lat="43.75177" lon="6.82189">
        <ele>1442.749255</ele>
        <time>2024-12-06T10:42:57.000Z</time>
      </trkpt>
      <trkpt lat="43.75177" lon="6.82186">
        <ele>1442.860566</ele>
        <time>2024-12-06T10:42:58.000Z</time>
      </trkpt>
      <trkpt lat="43.75178" lon="6.82184">
        <ele>1442.965259</ele>
        <time>2024-12-06T10:42:59.000Z</time>
      </trkpt>
      <trkpt lat="43.75178" lon="6.82182">
        <ele>1443.037838</ele>
        <time>2024-12-06T10:43:00.000Z</time>
      </trkpt>
      <trkpt lat="43.75177" lon="6.82181">
        <ele>1443.08473</ele>
        <time>2024-12-06T10:43:03.000Z</time>
      </trkpt>
      <trkpt lat="43.75178" lon="6.8218">
        <ele>1443.129525</ele>
        <time>2024-12-06T10:43:04.000Z</time>
      </trkpt>
      <trkpt lat="43.75178" lon="6.82178">
        <ele>1443.22517</ele>
        <time>2024-12-06T10:43:05.000Z</time>
      </trkpt>
      <trkpt lat="43.75179" lon="6.82176">
        <ele>1443.359555</ele>
        <time>2024-12-06T10:43:06.000Z</time>
      </trkpt>
      <trkpt lat="43.7518" lon="6.82173">
        <ele>1443.472438</ele>
        <time>2024-12-06T10:43:07.000Z</time>
      </trkpt>
      <trkpt lat="43.7518" lon="6.82171">
        <ele>1443.572646</ele>
        <time>2024-12-06T10:43:08.000Z</time>
      </trkpt>
      <trkpt lat="43.75181" lon="6.82169">
        <ele>1443.672034</ele>
        <time>2024-12-06T10:43:09.000Z</time>
      </trkpt>
      <trkpt lat="43.75181" lon="6.82167">
        <ele>1443.763421</ele>
        <time>2024-12-06T10:43:10.000Z</time>
      </trkpt>
      <trkpt lat="43.75181" lon="6.82166">
        <ele>1443.845007</ele>
        <time>2024-12-06T10:43:11.000Z</time>
      </trkpt>
      <trkpt lat="43.75181" lon="6.82163">
        <ele>1443.94895</ele>
        <time>2024-12-06T10:43:12.000Z</time>
      </trkpt>
      <trkpt lat="43.75181" lon="6.82161">
        <ele>1444.058131</ele>
        <time>2024-12-06T10:43:13.000Z</time>
      </trkpt>
      <trkpt lat="43.7518" lon="6.82151">
        <ele>1444.514366</ele>
        <time>2024-12-06T10:43:17.000Z</time>
      </trkpt>
      <trkpt lat="43.75179" lon="6.82149">
        <ele>1444.635375</ele>
        <time>2024-12-06T10:43:18.000Z</time>
      </trkpt>
      <trkpt lat="43.75177" lon="6.82147">
        <ele>1444.75913</ele>
        <time>2024-12-06T10:43:19.000Z</time>
      </trkpt>
      <trkpt lat="43.75176" lon="6.82147">
        <ele>1444.852257</ele>
        <time>2024-12-06T10:43:20.000Z</time>
      </trkpt>
      <trkpt lat="43.75175" lon="6.82147">
        <ele>1444.91738</ele>
        <time>2024-12-06T10:43:21.000Z</time>
      </trkpt>
      <trkpt lat="43.75173" lon="6.8215">
        <ele>1445.078726</ele>
        <time>2024-12-06T10:43:23.000Z</time>
      </trkpt>
      <trkpt lat="43.75173" lon="6.82152">
        <ele>1445.166619</ele>
        <time>2024-12-06T10:43:24.000Z</time>
      </trkpt>
      <trkpt lat="43.75173" lon="6.82153">
        <ele>1445.226687</ele>
        <time>2024-12-06T10:43:25.000Z</time>
      </trkpt>
      <trkpt lat="43.75173" lon="6.82154">
        <ele>1445.25655</ele>
        <time>2024-12-06T10:43:26.000Z</time>
      </trkpt>
      <trkpt lat="43.75173" lon="6.82153">
        <ele>1445.270108</ele>
        <time>2024-12-06T10:43:27.000Z</time>
      </trkpt>
      <trkpt lat="43.75173" lon="6.82153">
        <ele>1445.270108</ele>
        <time>2024-12-06T10:43:29.000Z</time>
      </trkpt>
      <trkpt lat="43.75175" lon="6.82153">
        <ele>1445.357377</ele>
        <time>2024-12-06T10:43:34.000Z</time>
      </trkpt>
      <trkpt lat="43.75175" lon="6.82153">
        <ele>1445.357377</ele>
        <time>2024-12-06T10:43:36.000Z</time>
      </trkpt>
      <trkpt lat="43.75175" lon="6.82153">
        <ele>1445.357377</ele>
        <time>2024-12-06T10:43:38.000Z</time>
      </trkpt>
      <trkpt lat="43.75175" lon="6.82152">
        <ele>1445.389011</ele>
        <time>2024-12-06T10:43:40.000Z</time>
      </trkpt>
      <trkpt lat="43.75175" lon="6.8215">
        <ele>1445.480398</ele>
        <time>2024-12-06T10:43:41.000Z</time>
      </trkpt>
      <trkpt lat="43.75176" lon="6.82143">
        <ele>1445.781866</ele>
        <time>2024-12-06T10:43:43.000Z</time>
      </trkpt>
      <trkpt lat="43.75176" lon="6.8214">
        <ele>1445.918737</ele>
        <time>2024-12-06T10:43:44.000Z</time>
      </trkpt>
      <trkpt lat="43.75175" lon="6.82137">
        <ele>1446.055607</ele>
        <time>2024-12-06T10:43:45.000Z</time>
      </trkpt>
      <trkpt lat="43.75175" lon="6.82134">
        <ele>1446.191329</ele>
        <time>2024-12-06T10:43:46.000Z</time>
      </trkpt>
      <trkpt lat="43.75175" lon="6.82131">
        <ele>1446.345111</ele>
        <time>2024-12-06T10:43:47.000Z</time>
      </trkpt>
      <trkpt lat="43.75175" lon="6.82127">
        <ele>1446.507924</ele>
        <time>2024-12-06T10:43:48.000Z</time>
      </trkpt>
      <trkpt lat="43.75175" lon="6.82124">
        <ele>1446.666098</ele>
        <time>2024-12-06T10:43:49.000Z</time>
      </trkpt>
      <trkpt lat="43.75175" lon="6.82121">
        <ele>1446.822904</ele>
        <time>2024-12-06T10:43:50.000Z</time>
      </trkpt>
      <trkpt lat="43.75177" lon="6.82117">
        <ele>1446.978992</ele>
        <time>2024-12-06T10:43:51.000Z</time>
      </trkpt>
      <trkpt lat="43.75178" lon="6.82115">
        <ele>1447.126126</ele>
        <time>2024-12-06T10:43:52.000Z</time>
      </trkpt>
      <trkpt lat="43.75179" lon="6.82112">
        <ele>1447.277074</ele>
        <time>2024-12-06T10:43:53.000Z</time>
      </trkpt>
      <trkpt lat="43.75181" lon="6.8211">
        <ele>1447.437991</ele>
        <time>2024-12-06T10:43:54.000Z</time>
      </trkpt>
      <trkpt lat="43.75183" lon="6.82107">
        <ele>1447.60552</ele>
        <time>2024-12-06T10:43:55.000Z</time>
      </trkpt>
      <trkpt lat="43.75185" lon="6.82105">
        <ele>1447.754851</ele>
        <time>2024-12-06T10:43:56.000Z</time>
      </trkpt>
      <trkpt lat="43.75189" lon="6.82102">
        <ele>1448.040817</ele>
        <time>2024-12-06T10:43:58.000Z</time>
      </trkpt>
      <trkpt lat="43.75192" lon="6.821">
        <ele>1448.213788</ele>
        <time>2024-12-06T10:43:59.000Z</time>
      </trkpt>
      <trkpt lat="43.75196" lon="6.82096">
        <ele>1448.306932</ele>
        <time>2024-12-06T10:44:01.000Z</time>
      </trkpt>
      <trkpt lat="43.752" lon="6.82089">
        <ele>1448.299903</ele>
        <time>2024-12-06T10:44:04.000Z</time>
      </trkpt>
      <trkpt lat="43.75201" lon="6.82086">
        <ele>1448.297807</ele>
        <time>2024-12-06T10:44:05.000Z</time>
      </trkpt>
      <trkpt lat="43.75201" lon="6.82084">
        <ele>1448.295878</ele>
        <time>2024-12-06T10:44:06.000Z</time>
      </trkpt>
      <trkpt lat="43.752" lon="6.82081">
        <ele>1448.293607</ele>
        <time>2024-12-06T10:44:07.000Z</time>
      </trkpt>
      <trkpt lat="43.75199" lon="6.82078">
        <ele>1448.29089</ele>
        <time>2024-12-06T10:44:08.000Z</time>
      </trkpt>
      <trkpt lat="43.75198" lon="6.82075">
        <ele>1448.28847</ele>
        <time>2024-12-06T10:44:09.000Z</time>
      </trkpt>
      <trkpt lat="43.75197" lon="6.82072">
        <ele>1448.286279</ele>
        <time>2024-12-06T10:44:10.000Z</time>
      </trkpt>
      <trkpt lat="43.75196" lon="6.8207">
        <ele>1448.284164</ele>
        <time>2024-12-06T10:44:11.000Z</time>
      </trkpt>
      <trkpt lat="43.75195" lon="6.82068">
        <ele>1448.282299</ele>
        <time>2024-12-06T10:44:12.000Z</time>
      </trkpt>
      <trkpt lat="43.75194" lon="6.82066">
        <ele>1448.280477</ele>
        <time>2024-12-06T10:44:13.000Z</time>
      </trkpt>
      <trkpt lat="43.75192" lon="6.82064">
        <ele>1448.278396</ele>
        <time>2024-12-06T10:44:14.000Z</time>
      </trkpt>
      <trkpt lat="43.75191" lon="6.82062">
        <ele>1448.276276</ele>
        <time>2024-12-06T10:44:15.000Z</time>
      </trkpt>
      <trkpt lat="43.7519" lon="6.8206">
        <ele>1448.274152</ele>
        <time>2024-12-06T10:44:16.000Z</time>
      </trkpt>
      <trkpt lat="43.75189" lon="6.82055">
        <ele>1448.270395</ele>
        <time>2024-12-06T10:44:18.000Z</time>
      </trkpt>
      <trkpt lat="43.75189" lon="6.82053">
        <ele>1448.268709</ele>
        <time>2024-12-06T10:44:19.000Z</time>
      </trkpt>
      <trkpt lat="43.75189" lon="6.8205">
        <ele>1448.266483</ele>
        <time>2024-12-06T10:44:20.000Z</time>
      </trkpt>
      <trkpt lat="43.75189" lon="6.82047">
        <ele>1448.264257</ele>
        <time>2024-12-06T10:44:21.000Z</time>
      </trkpt>
      <trkpt lat="43.75189" lon="6.82042">
        <ele>1448.260423</ele>
        <time>2024-12-06T10:44:23.000Z</time>
      </trkpt>
      <trkpt lat="43.75189" lon="6.82039">
        <ele>1448.258277</ele>
        <time>2024-12-06T10:44:24.000Z</time>
      </trkpt>
      <trkpt lat="43.75189" lon="6.82037">
        <ele>1448.256204</ele>
        <time>2024-12-06T10:44:25.000Z</time>
      </trkpt>
      <trkpt lat="43.75189" lon="6.82034">
        <ele>1448.254412</ele>
        <time>2024-12-06T10:44:26.000Z</time>
      </trkpt>
      <trkpt lat="43.75188" lon="6.82032">
        <ele>1448.252339</ele>
        <time>2024-12-06T10:44:27.000Z</time>
      </trkpt>
      <trkpt lat="43.75187" lon="6.82029">
        <ele>1448.249849</ele>
        <time>2024-12-06T10:44:28.000Z</time>
      </trkpt>
      <trkpt lat="43.75187" lon="6.82026">
        <ele>1448.247358</ele>
        <time>2024-12-06T10:44:29.000Z</time>
      </trkpt>
      <trkpt lat="43.75186" lon="6.82023">
        <ele>1448.244793</ele>
        <time>2024-12-06T10:44:30.000Z</time>
      </trkpt>
      <trkpt lat="43.75186" lon="6.82019">
        <ele>1448.242186</ele>
        <time>2024-12-06T10:44:31.000Z</time>
      </trkpt>
      <trkpt lat="43.75186" lon="6.82015">
        <ele>1448.239342</ele>
        <time>2024-12-06T10:44:32.000Z</time>
      </trkpt>
      <trkpt lat="43.75187" lon="6.82012">
        <ele>1448.236886</ele>
        <time>2024-12-06T10:44:33.000Z</time>
      </trkpt>
      <trkpt lat="43.75187" lon="6.82009">
        <ele>1448.234507</ele>
        <time>2024-12-06T10:44:34.000Z</time>
      </trkpt>
      <trkpt lat="43.75187" lon="6.82006">
        <ele>1448.232051</ele>
        <time>2024-12-06T10:44:35.000Z</time>
      </trkpt>
      <trkpt lat="43.75187" lon="6.82003">
        <ele>1448.229521</ele>
        <time>2024-12-06T10:44:36.000Z</time>
      </trkpt>
      <trkpt lat="43.75186" lon="6.81999">
        <ele>1448.226836</ele>
        <time>2024-12-06T10:44:37.000Z</time>
      </trkpt>
      <trkpt lat="43.75187" lon="6.81995">
        <ele>1448.223614</ele>
        <time>2024-12-06T10:44:38.000Z</time>
      </trkpt>
      <trkpt lat="43.75187" lon="6.81991">
        <ele>1448.220683</ele>
        <time>2024-12-06T10:44:39.000Z</time>
      </trkpt>
      <trkpt lat="43.75187" lon="6.81988">
        <ele>1448.217915</ele>
        <time>2024-12-06T10:44:40.000Z</time>
      </trkpt>
      <trkpt lat="43.75187" lon="6.81984">
        <ele>1448.215123</ele>
        <time>2024-12-06T10:44:41.000Z</time>
      </trkpt>
      <trkpt lat="43.75188" lon="6.81981">
        <ele>1448.212688</ele>
        <time>2024-12-06T10:44:42.000Z</time>
      </trkpt>
      <trkpt lat="43.75188" lon="6.81978">
        <ele>1448.210232</ele>
        <time>2024-12-06T10:44:43.000Z</time>
      </trkpt>
      <trkpt lat="43.75188" lon="6.81974">
        <ele>1448.207472</ele>
        <time>2024-12-06T10:44:44.000Z</time>
      </trkpt>
      <trkpt lat="43.75188" lon="6.81971">
        <ele>1448.204863</ele>
        <time>2024-12-06T10:44:45.000Z</time>
      </trkpt>
      <trkpt lat="43.75185" lon="6.81946">
        <ele>1448.18553</ele>
        <time>2024-12-06T10:44:52.000Z</time>
      </trkpt>
      <trkpt lat="43.75177" lon="6.81922">
        <ele>1448.165151</ele>
        <time>2024-12-06T10:44:58.000Z</time>
      </trkpt>
      <trkpt lat="43.75176" lon="6.81917">
        <ele>1448.161618</ele>
        <time>2024-12-06T10:44:59.000Z</time>
      </trkpt>
      <trkpt lat="43.75176" lon="6.81913">
        <ele>1448.158168</ele>
        <time>2024-12-06T10:45:00.000Z</time>
      </trkpt>
      <trkpt lat="43.75177" lon="6.81908">
        <ele>1448.154711</ele>
        <time>2024-12-06T10:45:01.000Z</time>
      </trkpt>
      <trkpt lat="43.75179" lon="6.81891">
        <ele>1448.141582</ele>
        <time>2024-12-06T10:45:05.000Z</time>
      </trkpt>
      <trkpt lat="43.7518" lon="6.81887">
        <ele>1448.138326</ele>
        <time>2024-12-06T10:45:06.000Z</time>
      </trkpt>
      <trkpt lat="43.75181" lon="6.81883">
        <ele>1448.135076</ele>
        <time>2024-12-06T10:45:07.000Z</time>
      </trkpt>
      <trkpt lat="43.75183" lon="6.81865">
        <ele>1448.120872</ele>
        <time>2024-12-06T10:45:11.000Z</time>
      </trkpt>
      <trkpt lat="43.75184" lon="6.81852">
        <ele>1448.455834</ele>
        <time>2024-12-06T10:45:14.000Z</time>
      </trkpt>
      <trkpt lat="43.75185" lon="6.8183">
        <ele>1449.088929</ele>
        <time>2024-12-06T10:45:19.000Z</time>
      </trkpt>
      <trkpt lat="43.75185" lon="6.81826">
        <ele>1449.213653</ele>
        <time>2024-12-06T10:45:20.000Z</time>
      </trkpt>
      <trkpt lat="43.75187" lon="6.81813">
        <ele>1449.586696</ele>
        <time>2024-12-06T10:45:23.000Z</time>
      </trkpt>
      <trkpt lat="43.75187" lon="6.81809">
        <ele>1449.701837</ele>
        <time>2024-12-06T10:45:24.000Z</time>
      </trkpt>
      <trkpt lat="43.75187" lon="6.81805">
        <ele>1449.814032</ele>
        <time>2024-12-06T10:45:25.000Z</time>
      </trkpt>
      <trkpt lat="43.75187" lon="6.81801">
        <ele>1449.926861</ele>
        <time>2024-12-06T10:45:26.000Z</time>
      </trkpt>
      <trkpt lat="43.75187" lon="6.81798">
        <ele>1450.033971</ele>
        <time>2024-12-06T10:45:27.000Z</time>
      </trkpt>
      <trkpt lat="43.75187" lon="6.81794">
        <ele>1450.140486</ele>
        <time>2024-12-06T10:45:28.000Z</time>
      </trkpt>
      <trkpt lat="43.75187" lon="6.8179">
        <ele>1450.253807</ele>
        <time>2024-12-06T10:45:29.000Z</time>
      </trkpt>
      <trkpt lat="43.75187" lon="6.81786">
        <ele>1450.375221</ele>
        <time>2024-12-06T10:45:30.000Z</time>
      </trkpt>
      <trkpt lat="43.75186" lon="6.81777">
        <ele>1450.637812</ele>
        <time>2024-12-06T10:45:32.000Z</time>
      </trkpt>
      <trkpt lat="43.75185" lon="6.81772">
        <ele>1450.780175</ele>
        <time>2024-12-06T10:45:33.000Z</time>
      </trkpt>
      <trkpt lat="43.75184" lon="6.81758">
        <ele>1451.19718</ele>
        <time>2024-12-06T10:45:36.000Z</time>
      </trkpt>
      <trkpt lat="43.75184" lon="6.81753">
        <ele>1451.318268</ele>
        <time>2024-12-06T10:45:37.000Z</time>
      </trkpt>
      <trkpt lat="43.75184" lon="6.8175">
        <ele>1451.431097</ele>
        <time>2024-12-06T10:45:38.000Z</time>
      </trkpt>
      <trkpt lat="43.75184" lon="6.81746">
        <ele>1451.547879</ele>
        <time>2024-12-06T10:45:39.000Z</time>
      </trkpt>
      <trkpt lat="43.75186" lon="6.81737">
        <ele>1451.797033</ele>
        <time>2024-12-06T10:45:41.000Z</time>
      </trkpt>
      <trkpt lat="43.75186" lon="6.81733">
        <ele>1451.924772</ele>
        <time>2024-12-06T10:45:42.000Z</time>
      </trkpt>
      <trkpt lat="43.75187" lon="6.81728">
        <ele>1452.052908</ele>
        <time>2024-12-06T10:45:43.000Z</time>
      </trkpt>
      <trkpt lat="43.75187" lon="6.81724">
        <ele>1452.180485</ele>
        <time>2024-12-06T10:45:44.000Z</time>
      </trkpt>
      <trkpt lat="43.75187" lon="6.8172">
        <ele>1452.289876</ele>
        <time>2024-12-06T10:45:45.000Z</time>
      </trkpt>
      <trkpt lat="43.75187" lon="6.81716">
        <ele>1452.400348</ele>
        <time>2024-12-06T10:45:46.000Z</time>
      </trkpt>
      <trkpt lat="43.75187" lon="6.81712">
        <ele>1452.51713</ele>
        <time>2024-12-06T10:45:47.000Z</time>
      </trkpt>
      <trkpt lat="43.75186" lon="6.81708">
        <ele>1452.642086</ele>
        <time>2024-12-06T10:45:48.000Z</time>
      </trkpt>
      <trkpt lat="43.75185" lon="6.81704">
        <ele>1452.764261</ele>
        <time>2024-12-06T10:45:49.000Z</time>
      </trkpt>
      <trkpt lat="43.75184" lon="6.817">
        <ele>1452.882626</ele>
        <time>2024-12-06T10:45:50.000Z</time>
      </trkpt>
      <trkpt lat="43.75182" lon="6.81696">
        <ele>1453.004576</ele>
        <time>2024-12-06T10:45:51.000Z</time>
      </trkpt>
      <trkpt lat="43.75181" lon="6.81693">
        <ele>1453.126526</ele>
        <time>2024-12-06T10:45:52.000Z</time>
      </trkpt>
      <trkpt lat="43.7518" lon="6.81689">
        <ele>1453.24705</ele>
        <time>2024-12-06T10:45:53.000Z</time>
      </trkpt>
      <trkpt lat="43.75179" lon="6.81684">
        <ele>1453.370325</ele>
        <time>2024-12-06T10:45:54.000Z</time>
      </trkpt>
      <trkpt lat="43.75178" lon="6.81681">
        <ele>1453.48869</ele>
        <time>2024-12-06T10:45:55.000Z</time>
      </trkpt>
      <trkpt lat="43.75177" lon="6.81677">
        <ele>1453.610288</ele>
        <time>2024-12-06T10:45:56.000Z</time>
      </trkpt>
      <trkpt lat="43.75175" lon="6.81674">
        <ele>1453.727364</ele>
        <time>2024-12-06T10:45:57.000Z</time>
      </trkpt>
      <trkpt lat="43.75174" lon="6.8167">
        <ele>1453.845729</ele>
        <time>2024-12-06T10:45:58.000Z</time>
      </trkpt>
      <trkpt lat="43.75173" lon="6.81666">
        <ele>1453.965037</ele>
        <time>2024-12-06T10:45:59.000Z</time>
      </trkpt>
      <trkpt lat="43.75171" lon="6.81662">
        <ele>1454.084346</ele>
        <time>2024-12-06T10:46:00.000Z</time>
      </trkpt>
      <trkpt lat="43.7517" lon="6.81658">
        <ele>1454.210529</ele>
        <time>2024-12-06T10:46:01.000Z</time>
      </trkpt>
      <trkpt lat="43.75169" lon="6.81655">
        <ele>1454.330689</ele>
        <time>2024-12-06T10:46:02.000Z</time>
      </trkpt>
      <trkpt lat="43.75167" lon="6.81651">
        <ele>1454.452749</ele>
        <time>2024-12-06T10:46:03.000Z</time>
      </trkpt>
      <trkpt lat="43.75166" lon="6.81647">
        <ele>1454.578932</ele>
        <time>2024-12-06T10:46:04.000Z</time>
      </trkpt>
      <trkpt lat="43.75164" lon="6.81639">
        <ele>1454.827857</ele>
        <time>2024-12-06T10:46:06.000Z</time>
      </trkpt>
      <trkpt lat="43.75162" lon="6.81625">
        <ele>1455.221284</ele>
        <time>2024-12-06T10:46:09.000Z</time>
      </trkpt>
      <trkpt lat="43.75162" lon="6.81617">
        <ele>1455.507304</ele>
        <time>2024-12-06T10:46:11.000Z</time>
      </trkpt>
      <trkpt lat="43.75162" lon="6.81613">
        <ele>1455.629468</ele>
        <time>2024-12-06T10:46:12.000Z</time>
      </trkpt>
      <trkpt lat="43.75162" lon="6.8161">
        <ele>1455.744174</ele>
        <time>2024-12-06T10:46:13.000Z</time>
      </trkpt>
      <trkpt lat="43.75162" lon="6.81607">
        <ele>1455.851611</ele>
        <time>2024-12-06T10:46:14.000Z</time>
      </trkpt>
      <trkpt lat="43.75161" lon="6.81605">
        <ele>1455.949441</ele>
        <time>2024-12-06T10:46:15.000Z</time>
      </trkpt>
      <trkpt lat="43.75161" lon="6.81602">
        <ele>1456.037015</ele>
        <time>2024-12-06T10:46:16.000Z</time>
      </trkpt>
      <trkpt lat="43.7516" lon="6.816">
        <ele>1456.118888</ele>
        <time>2024-12-06T10:46:17.000Z</time>
      </trkpt>
      <trkpt lat="43.75159" lon="6.81599">
        <ele>1456.182841</ele>
        <time>2024-12-06T10:46:18.000Z</time>
      </trkpt>
      <trkpt lat="43.75159" lon="6.81598">
        <ele>1456.230204</ele>
        <time>2024-12-06T10:46:20.000Z</time>
      </trkpt>
      <trkpt lat="43.75159" lon="6.81598">
        <ele>1456.230204</ele>
        <time>2024-12-06T10:46:22.000Z</time>
      </trkpt>
      <trkpt lat="43.75159" lon="6.81598">
        <ele>1456.230204</ele>
        <time>2024-12-06T10:46:34.000Z</time>
      </trkpt>
      <trkpt lat="43.75159" lon="6.81598">
        <ele>1456.230204</ele>
        <time>2024-12-06T10:46:35.000Z</time>
      </trkpt>
      <trkpt lat="43.75159" lon="6.81598">
        <ele>1456.230204</ele>
        <time>2024-12-06T10:46:37.000Z</time>
      </trkpt>
      <trkpt lat="43.75159" lon="6.81598">
        <ele>1456.230204</ele>
        <time>2024-12-06T10:46:44.000Z</time>
      </trkpt>
      <trkpt lat="43.75159" lon="6.81598">
        <ele>1456.230204</ele>
        <time>2024-12-06T10:46:46.000Z</time>
      </trkpt>
      <trkpt lat="43.75159" lon="6.81598">
        <ele>1456.230204</ele>
        <time>2024-12-06T10:46:57.000Z</time>
      </trkpt>
      <trkpt lat="43.75159" lon="6.81598">
        <ele>1456.230204</ele>
        <time>2024-12-06T10:47:00.000Z</time>
      </trkpt>
      <trkpt lat="43.75159" lon="6.81598">
        <ele>1456.230204</ele>
        <time>2024-12-06T10:47:12.000Z</time>
      </trkpt>
      <trkpt lat="43.75159" lon="6.81598">
        <ele>1456.230204</ele>
        <time>2024-12-06T10:47:20.000Z</time>
      </trkpt>
      <trkpt lat="43.75159" lon="6.81598">
        <ele>1456.230204</ele>
        <time>2024-12-06T10:47:23.000Z</time>
      </trkpt>
      <trkpt lat="43.75159" lon="6.81598">
        <ele>1456.230204</ele>
        <time>2024-12-06T10:47:45.000Z</time>
      </trkpt>
      <trkpt lat="43.75159" lon="6.81598">
        <ele>1456.230204</ele>
        <time>2024-12-06T10:47:49.000Z</time>
      </trkpt>
      <trkpt lat="43.75159" lon="6.81598">
        <ele>1456.230204</ele>
        <time>2024-12-06T10:48:01.000Z</time>
      </trkpt>
      <trkpt lat="43.75159" lon="6.81598">
        <ele>1456.230204</ele>
        <time>2024-12-06T10:48:06.000Z</time>
      </trkpt>
      <trkpt lat="43.75159" lon="6.81598">
        <ele>1456.230204</ele>
        <time>2024-12-06T10:48:11.000Z</time>
      </trkpt>
      <trkpt lat="43.75159" lon="6.81598">
        <ele>1456.230204</ele>
        <time>2024-12-06T10:48:12.000Z</time>
      </trkpt>
      <trkpt lat="43.75159" lon="6.81598">
        <ele>1456.230204</ele>
        <time>2024-12-06T10:48:16.000Z</time>
      </trkpt>
      <trkpt lat="43.75158" lon="6.81597">
        <ele>1456.250854</ele>
        <time>2024-12-06T10:48:17.000Z</time>
      </trkpt>
      <trkpt lat="43.75158" lon="6.81597">
        <ele>1456.274131</ele>
        <time>2024-12-06T10:48:19.000Z</time>
      </trkpt>
      <trkpt lat="43.75158" lon="6.81597">
        <ele>1456.274131</ele>
        <time>2024-12-06T10:48:30.000Z</time>
      </trkpt>
      <trkpt lat="43.75158" lon="6.81596">
        <ele>1456.2992</ele>
        <time>2024-12-06T10:48:34.000Z</time>
      </trkpt>
      <trkpt lat="43.75158" lon="6.81596">
        <ele>1456.2992</ele>
        <time>2024-12-06T10:48:38.000Z</time>
      </trkpt>
      <trkpt lat="43.75157" lon="6.81595">
        <ele>1456.361631</ele>
        <time>2024-12-06T10:48:40.000Z</time>
      </trkpt>
      <trkpt lat="43.75157" lon="6.8159">
        <ele>1456.514956</ele>
        <time>2024-12-06T10:48:42.000Z</time>
      </trkpt>
      <trkpt lat="43.75157" lon="6.81587">
        <ele>1456.635707</ele>
        <time>2024-12-06T10:48:43.000Z</time>
      </trkpt>
      <trkpt lat="43.75158" lon="6.81584">
        <ele>1456.760365</ele>
        <time>2024-12-06T10:48:44.000Z</time>
      </trkpt>
      <trkpt lat="43.75159" lon="6.8158">
        <ele>1456.898691</ele>
        <time>2024-12-06T10:48:45.000Z</time>
      </trkpt>
      <trkpt lat="43.75159" lon="6.81576">
        <ele>1457.054665</ele>
        <time>2024-12-06T10:48:46.000Z</time>
      </trkpt>
      <trkpt lat="43.75158" lon="6.81555">
        <ele>1457.786309</ele>
        <time>2024-12-06T10:48:50.000Z</time>
      </trkpt>
      <trkpt lat="43.75157" lon="6.81551">
        <ele>1457.960439</ele>
        <time>2024-12-06T10:48:51.000Z</time>
      </trkpt>
      <trkpt lat="43.75157" lon="6.81546">
        <ele>1458.132297</ele>
        <time>2024-12-06T10:48:52.000Z</time>
      </trkpt>
      <trkpt lat="43.75156" lon="6.81541">
        <ele>1458.303222</ele>
        <time>2024-12-06T10:48:53.000Z</time>
      </trkpt>
      <trkpt lat="43.75155" lon="6.81537">
        <ele>1458.47044</ele>
        <time>2024-12-06T10:48:54.000Z</time>
      </trkpt>
      <trkpt lat="43.75152" lon="6.81528">
        <ele>1458.818921</ele>
        <time>2024-12-06T10:48:56.000Z</time>
      </trkpt>
      <trkpt lat="43.75151" lon="6.81524">
        <ele>1458.98993</ele>
        <time>2024-12-06T10:48:57.000Z</time>
      </trkpt>
      <trkpt lat="43.7515" lon="6.81519">
        <ele>1459.155119</ele>
        <time>2024-12-06T10:48:58.000Z</time>
      </trkpt>
      <trkpt lat="43.75149" lon="6.81515">
        <ele>1459.323471</ele>
        <time>2024-12-06T10:48:59.000Z</time>
      </trkpt>
      <trkpt lat="43.75148" lon="6.8151">
        <ele>1459.482489</ele>
        <time>2024-12-06T10:49:00.000Z</time>
      </trkpt>
      <trkpt lat="43.75148" lon="6.81506">
        <ele>1459.642846</ele>
        <time>2024-12-06T10:49:01.000Z</time>
      </trkpt>
      <trkpt lat="43.75148" lon="6.81501">
        <ele>1459.811455</ele>
        <time>2024-12-06T10:49:02.000Z</time>
      </trkpt>
      <trkpt lat="43.75148" lon="6.81497">
        <ele>1459.95607</ele>
        <time>2024-12-06T10:49:03.000Z</time>
      </trkpt>
      <trkpt lat="43.75148" lon="6.81493">
        <ele>1460.099318</ele>
        <time>2024-12-06T10:49:04.000Z</time>
      </trkpt>
      <trkpt lat="43.75148" lon="6.81489">
        <ele>1460.240387</ele>
        <time>2024-12-06T10:49:05.000Z</time>
      </trkpt>
      <trkpt lat="43.75147" lon="6.81486">
        <ele>1460.382135</ele>
        <time>2024-12-06T10:49:06.000Z</time>
      </trkpt>
      <trkpt lat="43.75146" lon="6.81482">
        <ele>1460.525424</ele>
        <time>2024-12-06T10:49:07.000Z</time>
      </trkpt>
      <trkpt lat="43.75144" lon="6.81479">
        <ele>1460.659048</ele>
        <time>2024-12-06T10:49:08.000Z</time>
      </trkpt>
      <trkpt lat="43.75143" lon="6.81476">
        <ele>1460.789977</ele>
        <time>2024-12-06T10:49:09.000Z</time>
      </trkpt>
      <trkpt lat="43.75142" lon="6.81472">
        <ele>1460.914841</ele>
        <time>2024-12-06T10:49:10.000Z</time>
      </trkpt>
      <trkpt lat="43.75141" lon="6.81469">
        <ele>1461.036707</ele>
        <time>2024-12-06T10:49:11.000Z</time>
      </trkpt>
      <trkpt lat="43.75141" lon="6.81466">
        <ele>1461.154888</ele>
        <time>2024-12-06T10:49:12.000Z</time>
      </trkpt>
      <trkpt lat="43.75142" lon="6.81462">
        <ele>1461.28111</ele>
        <time>2024-12-06T10:49:13.000Z</time>
      </trkpt>
      <trkpt lat="43.75142" lon="6.81459">
        <ele>1461.419436</ele>
        <time>2024-12-06T10:49:14.000Z</time>
      </trkpt>
      <trkpt lat="43.75143" lon="6.81454">
        <ele>1461.567017</ele>
        <time>2024-12-06T10:49:15.000Z</time>
      </trkpt>
      <trkpt lat="43.75143" lon="6.81451">
        <ele>1461.693239</ele>
        <time>2024-12-06T10:49:16.000Z</time>
      </trkpt>
      <trkpt lat="43.75143" lon="6.81447">
        <ele>1461.822064</ele>
        <time>2024-12-06T10:49:17.000Z</time>
      </trkpt>
      <trkpt lat="43.75144" lon="6.81444">
        <ele>1461.957867</ele>
        <time>2024-12-06T10:49:18.000Z</time>
      </trkpt>
      <trkpt lat="43.75144" lon="6.8144">
        <ele>1462.098935</ele>
        <time>2024-12-06T10:49:19.000Z</time>
      </trkpt>
      <trkpt lat="43.75145" lon="6.81435">
        <ele>1462.276157</ele>
        <time>2024-12-06T10:49:20.000Z</time>
      </trkpt>
      <trkpt lat="43.75146" lon="6.8143">
        <ele>1462.469109</ele>
        <time>2024-12-06T10:49:21.000Z</time>
      </trkpt>
      <trkpt lat="43.75147" lon="6.81424">
        <ele>1462.678058</ele>
        <time>2024-12-06T10:49:22.000Z</time>
      </trkpt>
      <trkpt lat="43.75148" lon="6.81418">
        <ele>1462.916145</ele>
        <time>2024-12-06T10:49:23.000Z</time>
      </trkpt>
      <trkpt lat="43.75149" lon="6.8141">
        <ele>1463.174297</ele>
        <time>2024-12-06T10:49:24.000Z</time>
      </trkpt>
      <trkpt lat="43.75149" lon="6.81403">
        <ele>1463.44403</ele>
        <time>2024-12-06T10:49:25.000Z</time>
      </trkpt>
      <trkpt lat="43.75149" lon="6.81395">
        <ele>1463.716248</ele>
        <time>2024-12-06T10:49:26.000Z</time>
      </trkpt>
      <trkpt lat="43.75149" lon="6.81388">
        <ele>1463.9781</ele>
        <time>2024-12-06T10:49:27.000Z</time>
      </trkpt>
      <trkpt lat="43.75148" lon="6.81381">
        <ele>1464.189253</ele>
        <time>2024-12-06T10:49:28.000Z</time>
      </trkpt>
      <trkpt lat="43.75147" lon="6.81375">
        <ele>1464.083838</ele>
        <time>2024-12-06T10:49:29.000Z</time>
      </trkpt>
      <trkpt lat="43.75146" lon="6.8137">
        <ele>1463.990554</ele>
        <time>2024-12-06T10:49:30.000Z</time>
      </trkpt>
      <trkpt lat="43.75145" lon="6.81366">
        <ele>1463.912053</ele>
        <time>2024-12-06T10:49:31.000Z</time>
      </trkpt>
      <trkpt lat="43.75144" lon="6.81361">
        <ele>1463.836745</ele>
        <time>2024-12-06T10:49:32.000Z</time>
      </trkpt>
      <trkpt lat="43.75143" lon="6.81357">
        <ele>1463.75723</ele>
        <time>2024-12-06T10:49:33.000Z</time>
      </trkpt>
      <trkpt lat="43.75142" lon="6.81352">
        <ele>1463.672157</ele>
        <time>2024-12-06T10:49:34.000Z</time>
      </trkpt>
      <trkpt lat="43.75142" lon="6.81347">
        <ele>1463.585179</ele>
        <time>2024-12-06T10:49:35.000Z</time>
      </trkpt>
      <trkpt lat="43.75141" lon="6.81342">
        <ele>1463.502593</ele>
        <time>2024-12-06T10:49:36.000Z</time>
      </trkpt>
      <trkpt lat="43.7514" lon="6.81338">
        <ele>1463.419738</ele>
        <time>2024-12-06T10:49:37.000Z</time>
      </trkpt>
      <trkpt lat="43.75137" lon="6.81334">
        <ele>1463.322409</ele>
        <time>2024-12-06T10:49:38.000Z</time>
      </trkpt>
      <trkpt lat="43.75134" lon="6.81329">
        <ele>1463.221267</ele>
        <time>2024-12-06T10:49:39.000Z</time>
      </trkpt>
      <trkpt lat="43.75131" lon="6.81325">
        <ele>1463.11384</ele>
        <time>2024-12-06T10:49:40.000Z</time>
      </trkpt>
      <trkpt lat="43.75127" lon="6.81321">
        <ele>1463.002851</ele>
        <time>2024-12-06T10:49:41.000Z</time>
      </trkpt>
      <trkpt lat="43.75121" lon="6.81312">
        <ele>1462.791774</ele>
        <time>2024-12-06T10:49:43.000Z</time>
      </trkpt>
      <trkpt lat="43.75119" lon="6.81307">
        <ele>1462.697579</ele>
        <time>2024-12-06T10:49:44.000Z</time>
      </trkpt>
      <trkpt lat="43.75116" lon="6.81304">
        <ele>1462.614451</ele>
        <time>2024-12-06T10:49:45.000Z</time>
      </trkpt>
      <trkpt lat="43.75115" lon="6.813">
        <ele>1462.545147</ele>
        <time>2024-12-06T10:49:46.000Z</time>
      </trkpt>
      <trkpt lat="43.75114" lon="6.81297">
        <ele>1462.488251</ele>
        <time>2024-12-06T10:49:47.000Z</time>
      </trkpt>
      <trkpt lat="43.75113" lon="6.81295">
        <ele>1462.435794</ele>
        <time>2024-12-06T10:49:48.000Z</time>
      </trkpt>
      <trkpt lat="43.75111" lon="6.81292">
        <ele>1462.384709</ele>
        <time>2024-12-06T10:49:49.000Z</time>
      </trkpt>
      <trkpt lat="43.7511" lon="6.8129">
        <ele>1462.335002</ele>
        <time>2024-12-06T10:49:50.000Z</time>
      </trkpt>
      <trkpt lat="43.75109" lon="6.81288">
        <ele>1462.290737</ele>
        <time>2024-12-06T10:49:51.000Z</time>
      </trkpt>
      <trkpt lat="43.75105" lon="6.81277">
        <ele>1462.090465</ele>
        <time>2024-12-06T10:49:55.000Z</time>
      </trkpt>
      <trkpt lat="43.75104" lon="6.81273">
        <ele>1462.019119</ele>
        <time>2024-12-06T10:49:56.000Z</time>
      </trkpt>
      <trkpt lat="43.75102" lon="6.81261">
        <ele>1461.800392</ele>
        <time>2024-12-06T10:49:59.000Z</time>
      </trkpt>
      <trkpt lat="43.75102" lon="6.81257">
        <ele>1461.73229</ele>
        <time>2024-12-06T10:50:00.000Z</time>
      </trkpt>
      <trkpt lat="43.75101" lon="6.81253">
        <ele>1461.660945</ele>
        <time>2024-12-06T10:50:01.000Z</time>
      </trkpt>
      <trkpt lat="43.751" lon="6.81249">
        <ele>1461.590856</ele>
        <time>2024-12-06T10:50:02.000Z</time>
      </trkpt>
      <trkpt lat="43.75099" lon="6.81245">
        <ele>1461.526279</ele>
        <time>2024-12-06T10:50:03.000Z</time>
      </trkpt>
      <trkpt lat="43.75098" lon="6.81237">
        <ele>1461.387176</ele>
        <time>2024-12-06T10:50:05.000Z</time>
      </trkpt>
      <trkpt lat="43.75097" lon="6.81229">
        <ele>1461.250167</ele>
        <time>2024-12-06T10:50:07.000Z</time>
      </trkpt>
      <trkpt lat="43.75096" lon="6.81226">
        <ele>1461.186025</ele>
        <time>2024-12-06T10:50:08.000Z</time>
      </trkpt>
      <trkpt lat="43.75095" lon="6.81222">
        <ele>1461.121151</ele>
        <time>2024-12-06T10:50:09.000Z</time>
      </trkpt>
      <trkpt lat="43.75094" lon="6.81218">
        <ele>1461.049853</ele>
        <time>2024-12-06T10:50:10.000Z</time>
      </trkpt>
      <trkpt lat="43.75093" lon="6.81214">
        <ele>1460.97777</ele>
        <time>2024-12-06T10:50:11.000Z</time>
      </trkpt>
      <trkpt lat="43.75092" lon="6.8121">
        <ele>1460.908199</ele>
        <time>2024-12-06T10:50:12.000Z</time>
      </trkpt>
      <trkpt lat="43.75092" lon="6.81206">
        <ele>1460.840746</ele>
        <time>2024-12-06T10:50:13.000Z</time>
      </trkpt>
      <trkpt lat="43.75091" lon="6.81203">
        <ele>1460.777258</ele>
        <time>2024-12-06T10:50:14.000Z</time>
      </trkpt>
      <trkpt lat="43.7509" lon="6.81199">
        <ele>1460.715592</ele>
        <time>2024-12-06T10:50:15.000Z</time>
      </trkpt>
      <trkpt lat="43.75089" lon="6.81196">
        <ele>1460.645525</ele>
        <time>2024-12-06T10:50:16.000Z</time>
      </trkpt>
      <trkpt lat="43.75088" lon="6.81192">
        <ele>1460.569832</ele>
        <time>2024-12-06T10:50:17.000Z</time>
      </trkpt>
      <trkpt lat="43.75086" lon="6.81188">
        <ele>1460.49414</ele>
        <time>2024-12-06T10:50:18.000Z</time>
      </trkpt>
      <trkpt lat="43.75085" lon="6.81184">
        <ele>1460.420994</ele>
        <time>2024-12-06T10:50:19.000Z</time>
      </trkpt>
      <trkpt lat="43.75084" lon="6.8118">
        <ele>1460.348671</ele>
        <time>2024-12-06T10:50:20.000Z</time>
      </trkpt>
      <trkpt lat="43.75083" lon="6.81176">
        <ele>1460.2791</ele>
        <time>2024-12-06T10:50:21.000Z</time>
      </trkpt>
      <trkpt lat="43.75083" lon="6.81172">
        <ele>1460.20786</ele>
        <time>2024-12-06T10:50:22.000Z</time>
      </trkpt>
      <trkpt lat="43.75082" lon="6.81167">
        <ele>1460.131607</ele>
        <time>2024-12-06T10:50:23.000Z</time>
      </trkpt>
      <trkpt lat="43.75082" lon="6.81163">
        <ele>1460.054881</ele>
        <time>2024-12-06T10:50:24.000Z</time>
      </trkpt>
      <trkpt lat="43.75081" lon="6.81154">
        <ele>1460.028176</ele>
        <time>2024-12-06T10:50:26.000Z</time>
      </trkpt>
      <trkpt lat="43.75079" lon="6.81135">
        <ele>1460.436812</ele>
        <time>2024-12-06T10:50:30.000Z</time>
      </trkpt>
      <trkpt lat="43.75078" lon="6.81126">
        <ele>1460.652983</ele>
        <time>2024-12-06T10:50:32.000Z</time>
      </trkpt>
      <trkpt lat="43.75074" lon="6.81096">
        <ele>1461.301409</ele>
        <time>2024-12-06T10:50:38.000Z</time>
      </trkpt>
      <trkpt lat="43.75073" lon="6.81087">
        <ele>1461.50487</ele>
        <time>2024-12-06T10:50:40.000Z</time>
      </trkpt>
      <trkpt lat="43.75073" lon="6.81073">
        <ele>1461.806385</ele>
        <time>2024-12-06T10:50:43.000Z</time>
      </trkpt>
      <trkpt lat="43.75073" lon="6.81068">
        <ele>1461.903808</ele>
        <time>2024-12-06T10:50:44.000Z</time>
      </trkpt>
      <trkpt lat="43.75073" lon="6.81064">
        <ele>1461.990571</ele>
        <time>2024-12-06T10:50:45.000Z</time>
      </trkpt>
      <trkpt lat="43.75073" lon="6.81061">
        <ele>1462.070636</ele>
        <time>2024-12-06T10:50:46.000Z</time>
      </trkpt>
      <trkpt lat="43.75073" lon="6.81057">
        <ele>1462.159408</ele>
        <time>2024-12-06T10:50:47.000Z</time>
      </trkpt>
      <trkpt lat="43.75073" lon="6.81053">
        <ele>1462.2438</ele>
        <time>2024-12-06T10:50:48.000Z</time>
      </trkpt>
      <trkpt lat="43.75073" lon="6.81049">
        <ele>1462.319597</ele>
        <time>2024-12-06T10:50:49.000Z</time>
      </trkpt>
      <trkpt lat="43.75073" lon="6.81045">
        <ele>1462.404467</ele>
        <time>2024-12-06T10:50:50.000Z</time>
      </trkpt>
      <trkpt lat="43.75072" lon="6.81041">
        <ele>1462.502577</ele>
        <time>2024-12-06T10:50:51.000Z</time>
      </trkpt>
      <trkpt lat="43.75072" lon="6.81036">
        <ele>1462.604985</ele>
        <time>2024-12-06T10:50:52.000Z</time>
      </trkpt>
      <trkpt lat="43.75071" lon="6.81031">
        <ele>1462.713071</ele>
        <time>2024-12-06T10:50:53.000Z</time>
      </trkpt>
      <trkpt lat="43.7507" lon="6.81026">
        <ele>1462.81756</ele>
        <time>2024-12-06T10:50:54.000Z</time>
      </trkpt>
      <trkpt lat="43.75069" lon="6.81022">
        <ele>1462.927743</ele>
        <time>2024-12-06T10:50:55.000Z</time>
      </trkpt>
      <trkpt lat="43.75069" lon="6.81016">
        <ele>1463.041693</ele>
        <time>2024-12-06T10:50:56.000Z</time>
      </trkpt>
      <trkpt lat="43.75068" lon="6.81011">
        <ele>1463.154575</ele>
        <time>2024-12-06T10:50:57.000Z</time>
      </trkpt>
      <trkpt lat="43.75068" lon="6.81006">
        <ele>1463.262937</ele>
        <time>2024-12-06T10:50:58.000Z</time>
      </trkpt>
      <trkpt lat="43.75068" lon="6.81001">
        <ele>1463.371174</ele>
        <time>2024-12-06T10:50:59.000Z</time>
      </trkpt>
      <trkpt lat="43.75068" lon="6.80996">
        <ele>1463.479536</ele>
        <time>2024-12-06T10:51:00.000Z</time>
      </trkpt>
      <trkpt lat="43.75068" lon="6.80992">
        <ele>1463.579122</ele>
        <time>2024-12-06T10:51:01.000Z</time>
      </trkpt>
      <trkpt lat="43.75067" lon="6.80988">
        <ele>1463.666965</ele>
        <time>2024-12-06T10:51:02.000Z</time>
      </trkpt>
      <trkpt lat="43.75067" lon="6.80983">
        <ele>1463.757488</ele>
        <time>2024-12-06T10:51:03.000Z</time>
      </trkpt>
      <trkpt lat="43.75066" lon="6.8098">
        <ele>1463.838445</ele>
        <time>2024-12-06T10:51:04.000Z</time>
      </trkpt>
      <trkpt lat="43.75066" lon="6.80976">
        <ele>1463.92473</ele>
        <time>2024-12-06T10:51:05.000Z</time>
      </trkpt>
      <trkpt lat="43.75065" lon="6.80972">
        <ele>1464.010442</ele>
        <time>2024-12-06T10:51:06.000Z</time>
      </trkpt>
      <trkpt lat="43.75065" lon="6.80969">
        <ele>1464.082793</ele>
        <time>2024-12-06T10:51:07.000Z</time>
      </trkpt>
      <trkpt lat="43.75063" lon="6.80966">
        <ele>1464.153244</ele>
        <time>2024-12-06T10:51:08.000Z</time>
      </trkpt>
      <trkpt lat="43.75062" lon="6.80963">
        <ele>1464.23275</ele>
        <time>2024-12-06T10:51:09.000Z</time>
      </trkpt>
      <trkpt lat="43.7506" lon="6.8096">
        <ele>1464.313859</ele>
        <time>2024-12-06T10:51:10.000Z</time>
      </trkpt>
      <trkpt lat="43.75058" lon="6.80957">
        <ele>1464.396406</ele>
        <time>2024-12-06T10:51:11.000Z</time>
      </trkpt>
      <trkpt lat="43.75057" lon="6.80955">
        <ele>1464.473911</ele>
        <time>2024-12-06T10:51:12.000Z</time>
      </trkpt>
      <trkpt lat="43.75055" lon="6.80952">
        <ele>1464.540965</ele>
        <time>2024-12-06T10:51:13.000Z</time>
      </trkpt>
      <trkpt lat="43.75054" lon="6.8095">
        <ele>1464.614875</ele>
        <time>2024-12-06T10:51:14.000Z</time>
      </trkpt>
      <trkpt lat="43.75052" lon="6.80946">
        <ele>1464.700831</ele>
        <time>2024-12-06T10:51:15.000Z</time>
      </trkpt>
      <trkpt lat="43.7505" lon="6.80943">
        <ele>1464.78334</ele>
        <time>2024-12-06T10:51:16.000Z</time>
      </trkpt>
      <trkpt lat="43.75048" lon="6.8094">
        <ele>1464.871048</ele>
        <time>2024-12-06T10:51:17.000Z</time>
      </trkpt>
      <trkpt lat="43.75047" lon="6.80937">
        <ele>1464.959113</ele>
        <time>2024-12-06T10:51:18.000Z</time>
      </trkpt>
      <trkpt lat="43.75045" lon="6.80933">
        <ele>1465.052183</ele>
        <time>2024-12-06T10:51:19.000Z</time>
      </trkpt>
      <trkpt lat="43.75044" lon="6.8093">
        <ele>1465.141662</ele>
        <time>2024-12-06T10:51:20.000Z</time>
      </trkpt>
      <trkpt lat="43.75042" lon="6.80926">
        <ele>1465.234977</ele>
        <time>2024-12-06T10:51:21.000Z</time>
      </trkpt>
      <trkpt lat="43.7504" lon="6.80922">
        <ele>1465.335126</ele>
        <time>2024-12-06T10:51:22.000Z</time>
      </trkpt>
      <trkpt lat="43.75038" lon="6.80918">
        <ele>1465.458482</ele>
        <time>2024-12-06T10:51:23.000Z</time>
      </trkpt>
      <trkpt lat="43.75036" lon="6.80914">
        <ele>1465.590065</ele>
        <time>2024-12-06T10:51:24.000Z</time>
      </trkpt>
      <trkpt lat="43.75033" lon="6.8091">
        <ele>1465.729647</ele>
        <time>2024-12-06T10:51:25.000Z</time>
      </trkpt>
      <trkpt lat="43.75027" lon="6.80896">
        <ele>1466.127978</ele>
        <time>2024-12-06T10:51:28.000Z</time>
      </trkpt>
      <trkpt lat="43.75025" lon="6.80893">
        <ele>1466.229922</ele>
        <time>2024-12-06T10:51:29.000Z</time>
      </trkpt>
      <trkpt lat="43.75024" lon="6.80889">
        <ele>1466.333548</ele>
        <time>2024-12-06T10:51:30.000Z</time>
      </trkpt>
      <trkpt lat="43.75023" lon="6.80885">
        <ele>1466.435623</ele>
        <time>2024-12-06T10:51:31.000Z</time>
      </trkpt>
      <trkpt lat="43.75022" lon="6.80881">
        <ele>1466.539112</ele>
        <time>2024-12-06T10:51:32.000Z</time>
      </trkpt>
      <trkpt lat="43.75021" lon="6.80877">
        <ele>1466.640201</ele>
        <time>2024-12-06T10:51:33.000Z</time>
      </trkpt>
      <trkpt lat="43.7502" lon="6.80873">
        <ele>1466.74369</ele>
        <time>2024-12-06T10:51:34.000Z</time>
      </trkpt>
      <trkpt lat="43.7502" lon="6.80869">
        <ele>1466.85289</ele>
        <time>2024-12-06T10:51:35.000Z</time>
      </trkpt>
      <trkpt lat="43.75019" lon="6.80865">
        <ele>1466.961193</ele>
        <time>2024-12-06T10:51:36.000Z</time>
      </trkpt>
      <trkpt lat="43.75018" lon="6.80861">
        <ele>1467.05618</ele>
        <time>2024-12-06T10:51:37.000Z</time>
      </trkpt>
      <trkpt lat="43.75017" lon="6.80857">
        <ele>1467.156381</ele>
        <time>2024-12-06T10:51:38.000Z</time>
      </trkpt>
      <trkpt lat="43.75016" lon="6.80855">
        <ele>1467.233784</ele>
        <time>2024-12-06T10:51:39.000Z</time>
      </trkpt>
      <trkpt lat="43.75013" lon="6.80843">
        <ele>1467.534409</ele>
        <time>2024-12-06T10:51:42.000Z</time>
      </trkpt>
      <trkpt lat="43.75011" lon="6.80837">
        <ele>1467.71979</ele>
        <time>2024-12-06T10:51:44.000Z</time>
      </trkpt>
      <trkpt lat="43.7501" lon="6.80833">
        <ele>1467.817137</ele>
        <time>2024-12-06T10:51:45.000Z</time>
      </trkpt>
      <trkpt lat="43.75009" lon="6.80829">
        <ele>1467.91492</ele>
        <time>2024-12-06T10:51:46.000Z</time>
      </trkpt>
      <trkpt lat="43.75006" lon="6.8081">
        <ele>1468.407905</ele>
        <time>2024-12-06T10:51:51.000Z</time>
      </trkpt>
      <trkpt lat="43.75006" lon="6.80806">
        <ele>1468.493663</ele>
        <time>2024-12-06T10:51:52.000Z</time>
      </trkpt>
      <trkpt lat="43.75005" lon="6.80803">
        <ele>1468.584482</ele>
        <time>2024-12-06T10:51:53.000Z</time>
      </trkpt>
      <trkpt lat="43.75005" lon="6.80799">
        <ele>1468.67589</ele>
        <time>2024-12-06T10:51:54.000Z</time>
      </trkpt>
      <trkpt lat="43.75004" lon="6.80796">
        <ele>1468.762406</ele>
        <time>2024-12-06T10:51:55.000Z</time>
      </trkpt>
      <trkpt lat="43.75004" lon="6.80792">
        <ele>1468.853814</ele>
        <time>2024-12-06T10:51:56.000Z</time>
      </trkpt>
      <trkpt lat="43.75003" lon="6.80789">
        <ele>1468.937247</ele>
        <time>2024-12-06T10:51:57.000Z</time>
      </trkpt>
      <trkpt lat="43.75003" lon="6.80781">
        <ele>1469.125398</ele>
        <time>2024-12-06T10:51:59.000Z</time>
      </trkpt>
      <trkpt lat="43.75002" lon="6.80778">
        <ele>1469.213281</ele>
        <time>2024-12-06T10:52:00.000Z</time>
      </trkpt>
      <trkpt lat="43.75002" lon="6.80774">
        <ele>1469.306565</ele>
        <time>2024-12-06T10:52:01.000Z</time>
      </trkpt>
      <trkpt lat="43.75002" lon="6.8077">
        <ele>1469.406839</ele>
        <time>2024-12-06T10:52:02.000Z</time>
      </trkpt>
      <trkpt lat="43.75001" lon="6.80766">
        <ele>1469.504633</ele>
        <time>2024-12-06T10:52:03.000Z</time>
      </trkpt>
      <trkpt lat="43.75001" lon="6.80763">
        <ele>1469.600942</ele>
        <time>2024-12-06T10:52:04.000Z</time>
      </trkpt>
      <trkpt lat="43.75" lon="6.80759">
        <ele>1469.693901</ele>
        <time>2024-12-06T10:52:05.000Z</time>
      </trkpt>
      <trkpt lat="43.74999" lon="6.80755">
        <ele>1469.791248</ele>
        <time>2024-12-06T10:52:06.000Z</time>
      </trkpt>
      <trkpt lat="43.74999" lon="6.80752">
        <ele>1469.88337</ele>
        <time>2024-12-06T10:52:07.000Z</time>
      </trkpt>
      <trkpt lat="43.74998" lon="6.80748">
        <ele>1469.973064</ele>
        <time>2024-12-06T10:52:08.000Z</time>
      </trkpt>
      <trkpt lat="43.74997" lon="6.80745">
        <ele>1470.06698</ele>
        <time>2024-12-06T10:52:09.000Z</time>
      </trkpt>
      <trkpt lat="43.74997" lon="6.80741">
        <ele>1470.152737</ele>
        <time>2024-12-06T10:52:10.000Z</time>
      </trkpt>
      <trkpt lat="43.74996" lon="6.80738">
        <ele>1470.241968</ele>
        <time>2024-12-06T10:52:11.000Z</time>
      </trkpt>
      <trkpt lat="43.74994" lon="6.80735">
        <ele>1470.335692</ele>
        <time>2024-12-06T10:52:12.000Z</time>
      </trkpt>
      <trkpt lat="43.74993" lon="6.80732">
        <ele>1470.428727</ele>
        <time>2024-12-06T10:52:13.000Z</time>
      </trkpt>
      <trkpt lat="43.74991" lon="6.80728">
        <ele>1470.529791</ele>
        <time>2024-12-06T10:52:14.000Z</time>
      </trkpt>
      <trkpt lat="43.74989" lon="6.80725">
        <ele>1470.632895</ele>
        <time>2024-12-06T10:52:15.000Z</time>
      </trkpt>
      <trkpt lat="43.74988" lon="6.80721">
        <ele>1470.740024</ele>
        <time>2024-12-06T10:52:16.000Z</time>
      </trkpt>
      <trkpt lat="43.74986" lon="6.80718">
        <ele>1470.849193</ele>
        <time>2024-12-06T10:52:17.000Z</time>
      </trkpt>
      <trkpt lat="43.74984" lon="6.80715">
        <ele>1470.946233</ele>
        <time>2024-12-06T10:52:18.000Z</time>
      </trkpt>
      <trkpt lat="43.74982" lon="6.80712">
        <ele>1471.037434</ele>
        <time>2024-12-06T10:52:19.000Z</time>
      </trkpt>
      <trkpt lat="43.74981" lon="6.80709">
        <ele>1471.128635</ele>
        <time>2024-12-06T10:52:20.000Z</time>
      </trkpt>
      <trkpt lat="43.74979" lon="6.80706">
        <ele>1471.217655</ele>
        <time>2024-12-06T10:52:21.000Z</time>
      </trkpt>
      <trkpt lat="43.74977" lon="6.80703">
        <ele>1471.314083</ele>
        <time>2024-12-06T10:52:22.000Z</time>
      </trkpt>
      <trkpt lat="43.74975" lon="6.807">
        <ele>1471.426053</ele>
        <time>2024-12-06T10:52:23.000Z</time>
      </trkpt>
      <trkpt lat="43.74973" lon="6.80697">
        <ele>1471.537328</ele>
        <time>2024-12-06T10:52:24.000Z</time>
      </trkpt>
      <trkpt lat="43.74972" lon="6.80693">
        <ele>1471.542695</ele>
        <time>2024-12-06T10:52:25.000Z</time>
      </trkpt>
      <trkpt lat="43.7497" lon="6.80689">
        <ele>1471.524983</ele>
        <time>2024-12-06T10:52:26.000Z</time>
      </trkpt>
      <trkpt lat="43.74969" lon="6.80685">
        <ele>1471.50712</ele>
        <time>2024-12-06T10:52:27.000Z</time>
      </trkpt>
      <trkpt lat="43.74968" lon="6.80681">
        <ele>1471.488442</ele>
        <time>2024-12-06T10:52:28.000Z</time>
      </trkpt>
      <trkpt lat="43.74966" lon="6.80676">
        <ele>1471.469246</ele>
        <time>2024-12-06T10:52:29.000Z</time>
      </trkpt>
      <trkpt lat="43.74965" lon="6.80672">
        <ele>1471.449849</ele>
        <time>2024-12-06T10:52:30.000Z</time>
      </trkpt>
      <trkpt lat="43.74965" lon="6.80667">
        <ele>1471.432164</ele>
        <time>2024-12-06T10:52:31.000Z</time>
      </trkpt>
      <trkpt lat="43.74964" lon="6.80663">
        <ele>1471.414976</ele>
        <time>2024-12-06T10:52:32.000Z</time>
      </trkpt>
      <trkpt lat="43.74964" lon="6.80659">
        <ele>1471.397869</ele>
        <time>2024-12-06T10:52:33.000Z</time>
      </trkpt>
      <trkpt lat="43.74963" lon="6.80655">
        <ele>1471.381477</ele>
        <time>2024-12-06T10:52:34.000Z</time>
      </trkpt>
      <trkpt lat="43.74963" lon="6.80651">
        <ele>1471.365483</ele>
        <time>2024-12-06T10:52:35.000Z</time>
      </trkpt>
      <trkpt lat="43.74962" lon="6.80647">
        <ele>1471.349577</ele>
        <time>2024-12-06T10:52:36.000Z</time>
      </trkpt>
      <trkpt lat="43.74962" lon="6.80643">
        <ele>1471.333271</ele>
        <time>2024-12-06T10:52:37.000Z</time>
      </trkpt>
      <trkpt lat="43.74962" lon="6.80639">
        <ele>1471.317835</ele>
        <time>2024-12-06T10:52:38.000Z</time>
      </trkpt>
      <trkpt lat="43.74961" lon="6.80636">
        <ele>1471.302391</ele>
        <time>2024-12-06T10:52:39.000Z</time>
      </trkpt>
      <trkpt lat="43.7496" lon="6.80632">
        <ele>1471.287008</ele>
        <time>2024-12-06T10:52:40.000Z</time>
      </trkpt>
      <trkpt lat="43.74959" lon="6.80629">
        <ele>1471.272184</ele>
        <time>2024-12-06T10:52:41.000Z</time>
      </trkpt>
      <trkpt lat="43.74958" lon="6.80625">
        <ele>1471.256772</ele>
        <time>2024-12-06T10:52:42.000Z</time>
      </trkpt>
      <trkpt lat="43.74955" lon="6.80614">
        <ele>1471.207962</ele>
        <time>2024-12-06T10:52:45.000Z</time>
      </trkpt>
      <trkpt lat="43.74954" lon="6.8061">
        <ele>1471.191814</ele>
        <time>2024-12-06T10:52:46.000Z</time>
      </trkpt>
      <trkpt lat="43.74953" lon="6.80606">
        <ele>1471.17447</ele>
        <time>2024-12-06T10:52:47.000Z</time>
      </trkpt>
      <trkpt lat="43.74951" lon="6.80602">
        <ele>1471.156359</ele>
        <time>2024-12-06T10:52:48.000Z</time>
      </trkpt>
      <trkpt lat="43.7495" lon="6.80598">
        <ele>1471.137186</ele>
        <time>2024-12-06T10:52:49.000Z</time>
      </trkpt>
      <trkpt lat="43.74948" lon="6.80594">
        <ele>1471.118267</ele>
        <time>2024-12-06T10:52:50.000Z</time>
      </trkpt>
      <trkpt lat="43.74946" lon="6.8059">
        <ele>1471.099093</ele>
        <time>2024-12-06T10:52:51.000Z</time>
      </trkpt>
      <trkpt lat="43.74945" lon="6.80585">
        <ele>1471.080047</ele>
        <time>2024-12-06T10:52:52.000Z</time>
      </trkpt>
      <trkpt lat="43.74943" lon="6.8058">
        <ele>1471.058701</ele>
        <time>2024-12-06T10:52:53.000Z</time>
      </trkpt>
      <trkpt lat="43.7494" lon="6.80571">
        <ele>1471.015024</ele>
        <time>2024-12-06T10:52:55.000Z</time>
      </trkpt>
      <trkpt lat="43.74934" lon="6.80555">
        <ele>1470.945899</ele>
        <time>2024-12-06T10:52:58.000Z</time>
      </trkpt>
      <trkpt lat="43.74931" lon="6.80545">
        <ele>1470.899136</ele>
        <time>2024-12-06T10:53:00.000Z</time>
      </trkpt>
      <trkpt lat="43.7493" lon="6.80539">
        <ele>1470.876708</ele>
        <time>2024-12-06T10:53:01.000Z</time>
      </trkpt>
      <trkpt lat="43.74929" lon="6.80534">
        <ele>1470.855049</ele>
        <time>2024-12-06T10:53:02.000Z</time>
      </trkpt>
      <trkpt lat="43.74926" lon="6.80524">
        <ele>1470.810228</ele>
        <time>2024-12-06T10:53:04.000Z</time>
      </trkpt>
      <trkpt lat="43.74923" lon="6.80509">
        <ele>1470.74696</ele>
        <time>2024-12-06T10:53:07.000Z</time>
      </trkpt>
      <trkpt lat="43.74921" lon="6.80504">
        <ele>1470.725306</ele>
        <time>2024-12-06T10:53:08.000Z</time>
      </trkpt>
      <trkpt lat="43.7492" lon="6.80499">
        <ele>1470.704414</ele>
        <time>2024-12-06T10:53:09.000Z</time>
      </trkpt>
      <trkpt lat="43.74919" lon="6.80494">
        <ele>1470.683694</ele>
        <time>2024-12-06T10:53:10.000Z</time>
      </trkpt>
      <trkpt lat="43.74918" lon="6.80489">
        <ele>1470.663183</ele>
        <time>2024-12-06T10:53:11.000Z</time>
      </trkpt>
      <trkpt lat="43.74916" lon="6.80484">
        <ele>1470.641906</ele>
        <time>2024-12-06T10:53:12.000Z</time>
      </trkpt>
      <trkpt lat="43.74915" lon="6.8048">
        <ele>1470.620628</ele>
        <time>2024-12-06T10:53:13.000Z</time>
      </trkpt>
      <trkpt lat="43.74911" lon="6.80464">
        <ele>1470.554544</ele>
        <time>2024-12-06T10:53:16.000Z</time>
      </trkpt>
      <trkpt lat="43.749" lon="6.80429">
        <ele>1471.595881</ele>
        <time>2024-12-06T10:53:23.000Z</time>
      </trkpt>
      <trkpt lat="43.74896" lon="6.8041">
        <ele>1472.163123</ele>
        <time>2024-12-06T10:53:27.000Z</time>
      </trkpt>
      <trkpt lat="43.74895" lon="6.80405">
        <ele>1472.3153</ele>
        <time>2024-12-06T10:53:28.000Z</time>
      </trkpt>
      <trkpt lat="43.74893" lon="6.80394">
        <ele>1472.621289</ele>
        <time>2024-12-06T10:53:30.000Z</time>
      </trkpt>
      <trkpt lat="43.74891" lon="6.8039">
        <ele>1472.758648</ele>
        <time>2024-12-06T10:53:31.000Z</time>
      </trkpt>
      <trkpt lat="43.7489" lon="6.80385">
        <ele>1472.899511</ele>
        <time>2024-12-06T10:53:32.000Z</time>
      </trkpt>
      <trkpt lat="43.74884" lon="6.80347">
        <ele>1474.010081</ele>
        <time>2024-12-06T10:53:39.000Z</time>
      </trkpt>
      <trkpt lat="43.74884" lon="6.80342">
        <ele>1474.147754</ele>
        <time>2024-12-06T10:53:40.000Z</time>
      </trkpt>
      <trkpt lat="43.74884" lon="6.80337">
        <ele>1474.268771</ele>
        <time>2024-12-06T10:53:41.000Z</time>
      </trkpt>
      <trkpt lat="43.74883" lon="6.80333">
        <ele>1474.393322</ele>
        <time>2024-12-06T10:53:42.000Z</time>
      </trkpt>
      <trkpt lat="43.74882" lon="6.80324">
        <ele>1474.662119</ele>
        <time>2024-12-06T10:53:44.000Z</time>
      </trkpt>
      <trkpt lat="43.74882" lon="6.80319">
        <ele>1474.792766</ele>
        <time>2024-12-06T10:53:45.000Z</time>
      </trkpt>
      <trkpt lat="43.74881" lon="6.80314">
        <ele>1474.9278</ele>
        <time>2024-12-06T10:53:46.000Z</time>
      </trkpt>
      <trkpt lat="43.74881" lon="6.8031">
        <ele>1475.057518</ele>
        <time>2024-12-06T10:53:47.000Z</time>
      </trkpt>
      <trkpt lat="43.74881" lon="6.80305">
        <ele>1475.195629</ele>
        <time>2024-12-06T10:53:48.000Z</time>
      </trkpt>
      <trkpt lat="43.74881" lon="6.803">
        <ele>1475.327688</ele>
        <time>2024-12-06T10:53:49.000Z</time>
      </trkpt>
      <trkpt lat="43.74881" lon="6.80296">
        <ele>1475.454311</ele>
        <time>2024-12-06T10:53:50.000Z</time>
      </trkpt>
      <trkpt lat="43.7488" lon="6.80291">
        <ele>1475.578436</ele>
        <time>2024-12-06T10:53:51.000Z</time>
      </trkpt>
      <trkpt lat="43.7488" lon="6.80287">
        <ele>1475.702561</ele>
        <time>2024-12-06T10:53:52.000Z</time>
      </trkpt>
      <trkpt lat="43.7488" lon="6.80282">
        <ele>1475.826686</ele>
        <time>2024-12-06T10:53:53.000Z</time>
      </trkpt>
      <trkpt lat="43.74879" lon="6.80278">
        <ele>1475.954023</ele>
        <time>2024-12-06T10:53:54.000Z</time>
      </trkpt>
      <trkpt lat="43.74879" lon="6.80273">
        <ele>1476.080944</ele>
        <time>2024-12-06T10:53:55.000Z</time>
      </trkpt>
      <trkpt lat="43.74879" lon="6.80269">
        <ele>1476.199924</ele>
        <time>2024-12-06T10:53:56.000Z</time>
      </trkpt>
      <trkpt lat="43.74878" lon="6.80265">
        <ele>1476.311088</ele>
        <time>2024-12-06T10:53:57.000Z</time>
      </trkpt>
      <trkpt lat="43.74877" lon="6.80262">
        <ele>1476.423402</ele>
        <time>2024-12-06T10:53:58.000Z</time>
      </trkpt>
      <trkpt lat="43.74876" lon="6.80258">
        <ele>1476.533183</ele>
        <time>2024-12-06T10:53:59.000Z</time>
      </trkpt>
      <trkpt lat="43.74875" lon="6.80255">
        <ele>1476.636945</ele>
        <time>2024-12-06T10:54:00.000Z</time>
      </trkpt>
      <trkpt lat="43.74873" lon="6.80252">
        <ele>1476.732584</ele>
        <time>2024-12-06T10:54:01.000Z</time>
      </trkpt>
      <trkpt lat="43.74872" lon="6.80249">
        <ele>1476.82366</ele>
        <time>2024-12-06T10:54:02.000Z</time>
      </trkpt>
      <trkpt lat="43.7487" lon="6.80247">
        <ele>1476.90568</ele>
        <time>2024-12-06T10:54:03.000Z</time>
      </trkpt>
      <trkpt lat="43.74869" lon="6.80245">
        <ele>1476.981243</ele>
        <time>2024-12-06T10:54:04.000Z</time>
      </trkpt>
      <trkpt lat="43.74868" lon="6.80243">
        <ele>1477.056372</ele>
        <time>2024-12-06T10:54:05.000Z</time>
      </trkpt>
      <trkpt lat="43.74866" lon="6.80243">
        <ele>1477.114245</ele>
        <time>2024-12-06T10:54:06.000Z</time>
      </trkpt>
      <trkpt lat="43.74865" lon="6.80243">
        <ele>1477.161237</ele>
        <time>2024-12-06T10:54:07.000Z</time>
      </trkpt>
      <trkpt lat="43.74864" lon="6.80243">
        <ele>1477.19234</ele>
        <time>2024-12-06T10:54:08.000Z</time>
      </trkpt>
      <trkpt lat="43.74864" lon="6.80243">
        <ele>1477.207891</ele>
        <time>2024-12-06T10:54:13.000Z</time>
      </trkpt>
      <trkpt lat="43.74864" lon="6.80243">
        <ele>1477.207891</ele>
        <time>2024-12-06T10:54:16.000Z</time>
      </trkpt>
      <trkpt lat="43.74864" lon="6.80243">
        <ele>1477.207891</ele>
        <time>2024-12-06T10:54:25.000Z</time>
      </trkpt>
      <trkpt lat="43.74864" lon="6.80243">
        <ele>1477.207891</ele>
        <time>2024-12-06T10:54:39.000Z</time>
      </trkpt>
      <trkpt lat="43.74864" lon="6.80243">
        <ele>1477.207891</ele>
        <time>2024-12-06T10:54:43.000Z</time>
      </trkpt>
      <trkpt lat="43.74864" lon="6.80243">
        <ele>1477.207891</ele>
        <time>2024-12-06T10:54:49.000Z</time>
      </trkpt>
      <trkpt lat="43.74864" lon="6.80243">
        <ele>1477.207891</ele>
        <time>2024-12-06T10:55:06.000Z</time>
      </trkpt>
      <trkpt lat="43.74864" lon="6.80243">
        <ele>1477.207891</ele>
        <time>2024-12-06T10:55:09.000Z</time>
      </trkpt>
      <trkpt lat="43.74864" lon="6.80243">
        <ele>1477.207891</ele>
        <time>2024-12-06T10:55:12.000Z</time>
      </trkpt>
      <trkpt lat="43.74864" lon="6.80243">
        <ele>1477.207891</ele>
        <time>2024-12-06T10:55:17.000Z</time>
      </trkpt>
      <trkpt lat="43.74864" lon="6.80243">
        <ele>1477.207891</ele>
        <time>2024-12-06T10:55:18.000Z</time>
      </trkpt>
      <trkpt lat="43.74864" lon="6.80243">
        <ele>1477.207891</ele>
        <time>2024-12-06T10:55:19.000Z</time>
      </trkpt>
      <trkpt lat="43.74864" lon="6.80243">
        <ele>1477.207891</ele>
        <time>2024-12-06T10:55:23.000Z</time>
      </trkpt>
      <trkpt lat="43.74864" lon="6.80243">
        <ele>1477.207891</ele>
        <time>2024-12-06T10:55:31.000Z</time>
      </trkpt>
      <trkpt lat="43.74864" lon="6.80243">
        <ele>1477.207891</ele>
        <time>2024-12-06T10:55:40.000Z</time>
      </trkpt>
      <trkpt lat="43.74863" lon="6.80243">
        <ele>1477.219555</ele>
        <time>2024-12-06T10:56:08.000Z</time>
      </trkpt>
      <trkpt lat="43.74862" lon="6.8024">
        <ele>1477.305277</ele>
        <time>2024-12-06T10:56:10.000Z</time>
      </trkpt>
      <trkpt lat="43.74861" lon="6.80238">
        <ele>1477.376285</ele>
        <time>2024-12-06T10:56:11.000Z</time>
      </trkpt>
      <trkpt lat="43.74861" lon="6.80235">
        <ele>1477.461345</ele>
        <time>2024-12-06T10:56:12.000Z</time>
      </trkpt>
      <trkpt lat="43.74861" lon="6.80228">
        <ele>1477.61373</ele>
        <time>2024-12-06T10:56:14.000Z</time>
      </trkpt>
      <trkpt lat="43.74862" lon="6.80224">
        <ele>1477.675298</ele>
        <time>2024-12-06T10:56:15.000Z</time>
      </trkpt>
      <trkpt lat="43.74862" lon="6.80219">
        <ele>1477.742326</ele>
        <time>2024-12-06T10:56:16.000Z</time>
      </trkpt>
      <trkpt lat="43.74862" lon="6.80214">
        <ele>1477.826164</ele>
        <time>2024-12-06T10:56:17.000Z</time>
      </trkpt>
      <trkpt lat="43.74861" lon="6.80208">
        <ele>1477.916844</ele>
        <time>2024-12-06T10:56:18.000Z</time>
      </trkpt>
      <trkpt lat="43.74861" lon="6.80202">
        <ele>1478.009574</ele>
        <time>2024-12-06T10:56:19.000Z</time>
      </trkpt>
      <trkpt lat="43.74861" lon="6.80197">
        <ele>1478.077823</ele>
        <time>2024-12-06T10:56:20.000Z</time>
      </trkpt>
      <trkpt lat="43.74861" lon="6.80191">
        <ele>1478.171949</ele>
        <time>2024-12-06T10:56:21.000Z</time>
      </trkpt>
      <trkpt lat="43.74861" lon="6.80187">
        <ele>1478.24023</ele>
        <time>2024-12-06T10:56:22.000Z</time>
      </trkpt>
      <trkpt lat="43.74861" lon="6.80182">
        <ele>1478.311512</ele>
        <time>2024-12-06T10:56:23.000Z</time>
      </trkpt>
      <trkpt lat="43.74861" lon="6.80177">
        <ele>1478.390406</ele>
        <time>2024-12-06T10:56:24.000Z</time>
      </trkpt>
      <trkpt lat="43.74861" lon="6.80171">
        <ele>1478.470815</ele>
        <time>2024-12-06T10:56:25.000Z</time>
      </trkpt>
      <trkpt lat="43.74861" lon="6.80166">
        <ele>1478.551307</ele>
        <time>2024-12-06T10:56:26.000Z</time>
      </trkpt>
      <trkpt lat="43.7486" lon="6.80161">
        <ele>1478.629675</ele>
        <time>2024-12-06T10:56:27.000Z</time>
      </trkpt>
      <trkpt lat="43.7486" lon="6.80156">
        <ele>1478.713749</ele>
        <time>2024-12-06T10:56:28.000Z</time>
      </trkpt>
      <trkpt lat="43.74859" lon="6.8015">
        <ele>1478.797586</ele>
        <time>2024-12-06T10:56:29.000Z</time>
      </trkpt>
      <trkpt lat="43.74859" lon="6.80145">
        <ele>1478.875644</ele>
        <time>2024-12-06T10:56:30.000Z</time>
      </trkpt>
      <trkpt lat="43.74858" lon="6.8014">
        <ele>1478.955205</ele>
        <time>2024-12-06T10:56:31.000Z</time>
      </trkpt>
      <trkpt lat="43.74857" lon="6.80135">
        <ele>1479.035353</ele>
        <time>2024-12-06T10:56:32.000Z</time>
      </trkpt>
      <trkpt lat="43.74854" lon="6.80126">
        <ele>1479.189778</ele>
        <time>2024-12-06T10:56:34.000Z</time>
      </trkpt>
      <trkpt lat="43.74852" lon="6.80122">
        <ele>1479.264773</ele>
        <time>2024-12-06T10:56:35.000Z</time>
      </trkpt>
      <trkpt lat="43.74849" lon="6.80118">
        <ele>1479.338547</ele>
        <time>2024-12-06T10:56:36.000Z</time>
      </trkpt>
      <trkpt lat="43.74845" lon="6.8011">
        <ele>1479.479938</ele>
        <time>2024-12-06T10:56:38.000Z</time>
      </trkpt>
      <trkpt lat="43.74843" lon="6.80107">
        <ele>1479.552476</ele>
        <time>2024-12-06T10:56:39.000Z</time>
      </trkpt>
      <trkpt lat="43.74841" lon="6.80103">
        <ele>1479.627665</ele>
        <time>2024-12-06T10:56:40.000Z</time>
      </trkpt>
      <trkpt lat="43.74832" lon="6.80086">
        <ele>1479.942413</ele>
        <time>2024-12-06T10:56:44.000Z</time>
      </trkpt>
      <trkpt lat="43.74831" lon="6.80082">
        <ele>1480.018091</ele>
        <time>2024-12-06T10:56:45.000Z</time>
      </trkpt>
      <trkpt lat="43.74829" lon="6.80077">
        <ele>1480.092157</ele>
        <time>2024-12-06T10:56:46.000Z</time>
      </trkpt>
      <trkpt lat="43.74812" lon="6.8003">
        <ele>1480.89707</ele>
        <time>2024-12-06T10:56:56.000Z</time>
      </trkpt>
      <trkpt lat="43.74811" lon="6.80025">
        <ele>1480.978785</ele>
        <time>2024-12-06T10:56:57.000Z</time>
      </trkpt>
      <trkpt lat="43.7481" lon="6.8002">
        <ele>1481.053497</ele>
        <time>2024-12-06T10:56:58.000Z</time>
      </trkpt>
      <trkpt lat="43.74809" lon="6.80015">
        <ele>1481.124314</ele>
        <time>2024-12-06T10:56:59.000Z</time>
      </trkpt>
      <trkpt lat="43.74808" lon="6.80011">
        <ele>1481.1946</ele>
        <time>2024-12-06T10:57:00.000Z</time>
      </trkpt>
      <trkpt lat="43.74808" lon="6.80007">
        <ele>1481.261044</ele>
        <time>2024-12-06T10:57:01.000Z</time>
      </trkpt>
      <trkpt lat="43.74807" lon="6.80002">
        <ele>1481.33407</ele>
        <time>2024-12-06T10:57:02.000Z</time>
      </trkpt>
      <trkpt lat="43.74806" lon="6.79998">
        <ele>1481.44769</ele>
        <time>2024-12-06T10:57:03.000Z</time>
      </trkpt>
      <trkpt lat="43.74805" lon="6.79994">
        <ele>1481.567622</ele>
        <time>2024-12-06T10:57:04.000Z</time>
      </trkpt>
      <trkpt lat="43.74804" lon="6.79991">
        <ele>1481.676131</ele>
        <time>2024-12-06T10:57:05.000Z</time>
      </trkpt>
      <trkpt lat="43.74803" lon="6.79987">
        <ele>1481.785813</ele>
        <time>2024-12-06T10:57:06.000Z</time>
      </trkpt>
      <trkpt lat="43.74801" lon="6.79983">
        <ele>1481.906972</ele>
        <time>2024-12-06T10:57:07.000Z</time>
      </trkpt>
      <trkpt lat="43.748" lon="6.79978">
        <ele>1482.026904</ele>
        <time>2024-12-06T10:57:08.000Z</time>
      </trkpt>
      <trkpt lat="43.74799" lon="6.79974">
        <ele>1482.146876</ele>
        <time>2024-12-06T10:57:09.000Z</time>
      </trkpt>
      <trkpt lat="43.74798" lon="6.7997">
        <ele>1482.263361</ele>
        <time>2024-12-06T10:57:10.000Z</time>
      </trkpt>
      <trkpt lat="43.74797" lon="6.79966">
        <ele>1482.383333</ele>
        <time>2024-12-06T10:57:11.000Z</time>
      </trkpt>
      <trkpt lat="43.74795" lon="6.79962">
        <ele>1482.504765</ele>
        <time>2024-12-06T10:57:12.000Z</time>
      </trkpt>
      <trkpt lat="43.74795" lon="6.79958">
        <ele>1482.623575</ele>
        <time>2024-12-06T10:57:13.000Z</time>
      </trkpt>
      <trkpt lat="43.74794" lon="6.79954">
        <ele>1482.743115</ele>
        <time>2024-12-06T10:57:14.000Z</time>
      </trkpt>
      <trkpt lat="43.74793" lon="6.79949">
        <ele>1482.861926</ele>
        <time>2024-12-06T10:57:15.000Z</time>
      </trkpt>
      <trkpt lat="43.74792" lon="6.79945">
        <ele>1482.979389</ele>
        <time>2024-12-06T10:57:16.000Z</time>
      </trkpt>
      <trkpt lat="43.7479" lon="6.79942">
        <ele>1483.097496</ele>
        <time>2024-12-06T10:57:17.000Z</time>
      </trkpt>
      <trkpt lat="43.74789" lon="6.79938">
        <ele>1483.209969</ele>
        <time>2024-12-06T10:57:18.000Z</time>
      </trkpt>
      <trkpt lat="43.74788" lon="6.79934">
        <ele>1483.329941</ele>
        <time>2024-12-06T10:57:19.000Z</time>
      </trkpt>
      <trkpt lat="43.74787" lon="6.79929">
        <ele>1483.453861</ele>
        <time>2024-12-06T10:57:20.000Z</time>
      </trkpt>
      <trkpt lat="43.74786" lon="6.79925">
        <ele>1483.572475</ele>
        <time>2024-12-06T10:57:21.000Z</time>
      </trkpt>
      <trkpt lat="43.74784" lon="6.79921">
        <ele>1483.689938</ele>
        <time>2024-12-06T10:57:22.000Z</time>
      </trkpt>
      <trkpt lat="43.74783" lon="6.79917">
        <ele>1483.813651</ele>
        <time>2024-12-06T10:57:23.000Z</time>
      </trkpt>
      <trkpt lat="43.74782" lon="6.79913">
        <ele>1483.933623</ele>
        <time>2024-12-06T10:57:24.000Z</time>
      </trkpt>
      <trkpt lat="43.74781" lon="6.79909">
        <ele>1484.048586</ele>
        <time>2024-12-06T10:57:25.000Z</time>
      </trkpt>
      <trkpt lat="43.7478" lon="6.79905">
        <ele>1484.162615</ele>
        <time>2024-12-06T10:57:26.000Z</time>
      </trkpt>
      <trkpt lat="43.74778" lon="6.79902">
        <ele>1484.268751</ele>
        <time>2024-12-06T10:57:27.000Z</time>
      </trkpt>
      <trkpt lat="43.74777" lon="6.79898">
        <ele>1484.379632</ele>
        <time>2024-12-06T10:57:28.000Z</time>
      </trkpt>
      <trkpt lat="43.74775" lon="6.79894">
        <ele>1484.49774</ele>
        <time>2024-12-06T10:57:29.000Z</time>
      </trkpt>
      <trkpt lat="43.74774" lon="6.79891">
        <ele>1484.611016</ele>
        <time>2024-12-06T10:57:30.000Z</time>
      </trkpt>
      <trkpt lat="43.74772" lon="6.79887">
        <ele>1484.726082</ele>
        <time>2024-12-06T10:57:31.000Z</time>
      </trkpt>
      <trkpt lat="43.74771" lon="6.79883">
        <ele>1484.847718</ele>
        <time>2024-12-06T10:57:32.000Z</time>
      </trkpt>
      <trkpt lat="43.74769" lon="6.79879">
        <ele>1484.965157</ele>
        <time>2024-12-06T10:57:33.000Z</time>
      </trkpt>
      <trkpt lat="43.74768" lon="6.79876">
        <ele>1485.082106</ele>
        <time>2024-12-06T10:57:34.000Z</time>
      </trkpt>
      <trkpt lat="43.74766" lon="6.79871">
        <ele>1485.207552</ele>
        <time>2024-12-06T10:57:35.000Z</time>
      </trkpt>
      <trkpt lat="43.74765" lon="6.79867">
        <ele>1485.335466</ele>
        <time>2024-12-06T10:57:36.000Z</time>
      </trkpt>
      <trkpt lat="43.74764" lon="6.79862">
        <ele>1485.478372</ele>
        <time>2024-12-06T10:57:37.000Z</time>
      </trkpt>
      <trkpt lat="43.74763" lon="6.79857">
        <ele>1485.624491</ele>
        <time>2024-12-06T10:57:38.000Z</time>
      </trkpt>
      <trkpt lat="43.74763" lon="6.79852">
        <ele>1485.768278</ele>
        <time>2024-12-06T10:57:39.000Z</time>
      </trkpt>
      <trkpt lat="43.74763" lon="6.79847">
        <ele>1485.901167</ele>
        <time>2024-12-06T10:57:40.000Z</time>
      </trkpt>
      <trkpt lat="43.74763" lon="6.79842">
        <ele>1486.03682</ele>
        <time>2024-12-06T10:57:41.000Z</time>
      </trkpt>
      <trkpt lat="43.74762" lon="6.79836">
        <ele>1486.180753</ele>
        <time>2024-12-06T10:57:42.000Z</time>
      </trkpt>
      <trkpt lat="43.74762" lon="6.79831">
        <ele>1486.320334</ele>
        <time>2024-12-06T10:57:43.000Z</time>
      </trkpt>
      <trkpt lat="43.74761" lon="6.79826">
        <ele>1486.458458</ele>
        <time>2024-12-06T10:57:44.000Z</time>
      </trkpt>
      <trkpt lat="43.74761" lon="6.79821">
        <ele>1486.60663</ele>
        <time>2024-12-06T10:57:45.000Z</time>
      </trkpt>
      <trkpt lat="43.7476" lon="6.79815">
        <ele>1486.754801</ele>
        <time>2024-12-06T10:57:46.000Z</time>
      </trkpt>
      <trkpt lat="43.74759" lon="6.7981">
        <ele>1486.894549</ele>
        <time>2024-12-06T10:57:47.000Z</time>
      </trkpt>
      <trkpt lat="43.74758" lon="6.79805">
        <ele>1487.035251</ele>
        <time>2024-12-06T10:57:48.000Z</time>
      </trkpt>
      <trkpt lat="43.74757" lon="6.79801">
        <ele>1487.16553</ele>
        <time>2024-12-06T10:57:49.000Z</time>
      </trkpt>
      <trkpt lat="43.74756" lon="6.79796">
        <ele>1487.297398</ele>
        <time>2024-12-06T10:57:50.000Z</time>
      </trkpt>
      <trkpt lat="43.74755" lon="6.79791">
        <ele>1487.437145</ele>
        <time>2024-12-06T10:57:51.000Z</time>
      </trkpt>
      <trkpt lat="43.74754" lon="6.79786">
        <ele>1487.572628</ele>
        <time>2024-12-06T10:57:52.000Z</time>
      </trkpt>
      <trkpt lat="43.74753" lon="6.79782">
        <ele>1487.70782</ele>
        <time>2024-12-06T10:57:53.000Z</time>
      </trkpt>
      <trkpt lat="43.7475" lon="6.79773">
        <ele>1487.970176</ele>
        <time>2024-12-06T10:57:55.000Z</time>
      </trkpt>
      <trkpt lat="43.74745" lon="6.79766">
        <ele>1488.330516</ele>
        <time>2024-12-06T10:57:57.000Z</time>
      </trkpt>
      <trkpt lat="43.74741" lon="6.79763">
        <ele>1488.548802</ele>
        <time>2024-12-06T10:57:58.000Z</time>
      </trkpt>
      <trkpt lat="43.74739" lon="6.79761">
        <ele>1488.738959</ele>
        <time>2024-12-06T10:57:59.000Z</time>
      </trkpt>
      <trkpt lat="43.74736" lon="6.79759">
        <ele>1488.918779</ele>
        <time>2024-12-06T10:58:00.000Z</time>
      </trkpt>
      <trkpt lat="43.74727" lon="6.79753">
        <ele>1489.478446</ele>
        <time>2024-12-06T10:58:03.000Z</time>
      </trkpt>
      <trkpt lat="43.74724" lon="6.79751">
        <ele>1489.677166</ele>
        <time>2024-12-06T10:58:04.000Z</time>
      </trkpt>
      <trkpt lat="43.74721" lon="6.79749">
        <ele>1489.879168</ele>
        <time>2024-12-06T10:58:05.000Z</time>
      </trkpt>
      <trkpt lat="43.74716" lon="6.79742">
        <ele>1490.259373</ele>
        <time>2024-12-06T10:58:07.000Z</time>
      </trkpt>
      <trkpt lat="43.74715" lon="6.79738">
        <ele>1490.447881</ele>
        <time>2024-12-06T10:58:08.000Z</time>
      </trkpt>
      <trkpt lat="43.74713" lon="6.79734">
        <ele>1490.640062</ele>
        <time>2024-12-06T10:58:09.000Z</time>
      </trkpt>
      <trkpt lat="43.74712" lon="6.79729">
        <ele>1490.822384</ele>
        <time>2024-12-06T10:58:10.000Z</time>
      </trkpt>
      <trkpt lat="43.74712" lon="6.79726">
        <ele>1490.984788</ele>
        <time>2024-12-06T10:58:11.000Z</time>
      </trkpt>
      <trkpt lat="43.74712" lon="6.79722">
        <ele>1491.141456</ele>
        <time>2024-12-06T10:58:12.000Z</time>
      </trkpt>
      <trkpt lat="43.74712" lon="6.79718">
        <ele>1491.298228</ele>
        <time>2024-12-06T10:58:13.000Z</time>
      </trkpt>
      <trkpt lat="43.74712" lon="6.79709">
        <ele>1491.66946</ele>
        <time>2024-12-06T10:58:15.000Z</time>
      </trkpt>
      <trkpt lat="43.74712" lon="6.79704">
        <ele>1491.863234</ele>
        <time>2024-12-06T10:58:16.000Z</time>
      </trkpt>
      <trkpt lat="43.74712" lon="6.79699">
        <ele>1492.069456</ele>
        <time>2024-12-06T10:58:17.000Z</time>
      </trkpt>
      <trkpt lat="43.74711" lon="6.79691">
        <ele>1492.430362</ele>
        <time>2024-12-06T10:58:19.000Z</time>
      </trkpt>
      <trkpt lat="43.74711" lon="6.79686">
        <ele>1492.599495</ele>
        <time>2024-12-06T10:58:20.000Z</time>
      </trkpt>
      <trkpt lat="43.74711" lon="6.79682">
        <ele>1492.769397</ele>
        <time>2024-12-06T10:58:21.000Z</time>
      </trkpt>
      <trkpt lat="43.7471" lon="6.79678">
        <ele>1492.9327</ele>
        <time>2024-12-06T10:58:22.000Z</time>
      </trkpt>
      <trkpt lat="43.74709" lon="6.79667">
        <ele>1493.41907</ele>
        <time>2024-12-06T10:58:25.000Z</time>
      </trkpt>
      <trkpt lat="43.74708" lon="6.79663">
        <ele>1493.578316</ele>
        <time>2024-12-06T10:58:26.000Z</time>
      </trkpt>
      <trkpt lat="43.74707" lon="6.79659">
        <ele>1493.734658</ele>
        <time>2024-12-06T10:58:27.000Z</time>
      </trkpt>
      <trkpt lat="43.74707" lon="6.79656">
        <ele>1493.885799</ele>
        <time>2024-12-06T10:58:28.000Z</time>
      </trkpt>
      <trkpt lat="43.74706" lon="6.79652">
        <ele>1494.03812</ele>
        <time>2024-12-06T10:58:29.000Z</time>
      </trkpt>
      <trkpt lat="43.74706" lon="6.79649">
        <ele>1494.187848</ele>
        <time>2024-12-06T10:58:30.000Z</time>
      </trkpt>
      <trkpt lat="43.74705" lon="6.79645">
        <ele>1494.333607</ele>
        <time>2024-12-06T10:58:31.000Z</time>
      </trkpt>
      <trkpt lat="43.74704" lon="6.79642">
        <ele>1494.4872</ele>
        <time>2024-12-06T10:58:32.000Z</time>
      </trkpt>
      <trkpt lat="43.74702" lon="6.79639">
        <ele>1494.630919</ele>
        <time>2024-12-06T10:58:33.000Z</time>
      </trkpt>
      <trkpt lat="43.74701" lon="6.79636">
        <ele>1494.782394</ele>
        <time>2024-12-06T10:58:34.000Z</time>
      </trkpt>
      <trkpt lat="43.74698" lon="6.79634">
        <ele>1494.942255</ele>
        <time>2024-12-06T10:58:35.000Z</time>
      </trkpt>
      <trkpt lat="43.74696" lon="6.79632">
        <ele>1495.1047</ele>
        <time>2024-12-06T10:58:36.000Z</time>
      </trkpt>
      <trkpt lat="43.74694" lon="6.79629">
        <ele>1495.261287</ele>
        <time>2024-12-06T10:58:37.000Z</time>
      </trkpt>
      <trkpt lat="43.74692" lon="6.79626">
        <ele>1495.426379</ele>
        <time>2024-12-06T10:58:38.000Z</time>
      </trkpt>
      <trkpt lat="43.7469" lon="6.79623">
        <ele>1495.598606</ele>
        <time>2024-12-06T10:58:39.000Z</time>
      </trkpt>
      <trkpt lat="43.74688" lon="6.7962">
        <ele>1495.765711</ele>
        <time>2024-12-06T10:58:40.000Z</time>
      </trkpt>
      <trkpt lat="43.74687" lon="6.79616">
        <ele>1495.931645</ele>
        <time>2024-12-06T10:58:41.000Z</time>
      </trkpt>
      <trkpt lat="43.74686" lon="6.79613">
        <ele>1496.086614</ele>
        <time>2024-12-06T10:58:42.000Z</time>
      </trkpt>
      <trkpt lat="43.74684" lon="6.7961">
        <ele>1496.248871</ele>
        <time>2024-12-06T10:58:43.000Z</time>
      </trkpt>
      <trkpt lat="43.74683" lon="6.79606">
        <ele>1496.412333</ele>
        <time>2024-12-06T10:58:44.000Z</time>
      </trkpt>
      <trkpt lat="43.74682" lon="6.79603">
        <ele>1496.569698</ele>
        <time>2024-12-06T10:58:45.000Z</time>
      </trkpt>
      <trkpt lat="43.74681" lon="6.79599">
        <ele>1496.731955</ele>
        <time>2024-12-06T10:58:46.000Z</time>
      </trkpt>
      <trkpt lat="43.7468" lon="6.79595">
        <ele>1496.896829</ele>
        <time>2024-12-06T10:58:47.000Z</time>
      </trkpt>
      <trkpt lat="43.74679" lon="6.79591">
        <ele>1497.058512</ele>
        <time>2024-12-06T10:58:48.000Z</time>
      </trkpt>
      <trkpt lat="43.74678" lon="6.79588">
        <ele>1497.218879</ele>
        <time>2024-12-06T10:58:49.000Z</time>
      </trkpt>
      <trkpt lat="43.74678" lon="6.79584">
        <ele>1497.391351</ele>
        <time>2024-12-06T10:58:50.000Z</time>
      </trkpt>
      <trkpt lat="43.74678" lon="6.7958">
        <ele>1497.55666</ele>
        <time>2024-12-06T10:58:51.000Z</time>
      </trkpt>
      <trkpt lat="43.74677" lon="6.79575">
        <ele>1497.726563</ele>
        <time>2024-12-06T10:58:52.000Z</time>
      </trkpt>
      <trkpt lat="43.74677" lon="6.79572">
        <ele>1497.879216</ele>
        <time>2024-12-06T10:58:53.000Z</time>
      </trkpt>
      <trkpt lat="43.74677" lon="6.79568">
        <ele>1498.018231</ele>
        <time>2024-12-06T10:58:54.000Z</time>
      </trkpt>
      <trkpt lat="43.74676" lon="6.79565">
        <ele>1498.169373</ele>
        <time>2024-12-06T10:58:55.000Z</time>
      </trkpt>
      <trkpt lat="43.74676" lon="6.79561">
        <ele>1498.330569</ele>
        <time>2024-12-06T10:58:56.000Z</time>
      </trkpt>
      <trkpt lat="43.74677" lon="6.79558">
        <ele>1498.562086</ele>
        <time>2024-12-06T10:58:57.000Z</time>
      </trkpt>
      <trkpt lat="43.74677" lon="6.79554">
        <ele>1498.806945</ele>
        <time>2024-12-06T10:58:58.000Z</time>
      </trkpt>
      <trkpt lat="43.74678" lon="6.79551">
        <ele>1499.042089</ele>
        <time>2024-12-06T10:58:59.000Z</time>
      </trkpt>
      <trkpt lat="43.74678" lon="6.79547">
        <ele>1499.280126</ele>
        <time>2024-12-06T10:59:00.000Z</time>
      </trkpt>
      <trkpt lat="43.74679" lon="6.79544">
        <ele>1499.524985</ele>
        <time>2024-12-06T10:59:01.000Z</time>
      </trkpt>
      <trkpt lat="43.74679" lon="6.7954">
        <ele>1499.773554</ele>
        <time>2024-12-06T10:59:02.000Z</time>
      </trkpt>
      <trkpt lat="43.7468" lon="6.79537">
        <ele>1500.027223</ele>
        <time>2024-12-06T10:59:03.000Z</time>
      </trkpt>
      <trkpt lat="43.74681" lon="6.79533">
        <ele>1500.28394</ele>
        <time>2024-12-06T10:59:04.000Z</time>
      </trkpt>
      <trkpt lat="43.74682" lon="6.7953">
        <ele>1500.531221</ele>
        <time>2024-12-06T10:59:05.000Z</time>
      </trkpt>
      <trkpt lat="43.74683" lon="6.79527">
        <ele>1500.765819</ele>
        <time>2024-12-06T10:59:06.000Z</time>
      </trkpt>
      <trkpt lat="43.74684" lon="6.79524">
        <ele>1501.012909</ele>
        <time>2024-12-06T10:59:07.000Z</time>
      </trkpt>
      <trkpt lat="43.74684" lon="6.7952">
        <ele>1501.257205</ele>
        <time>2024-12-06T10:59:08.000Z</time>
      </trkpt>
      <trkpt lat="43.74685" lon="6.79517">
        <ele>1501.505774</ele>
        <time>2024-12-06T10:59:09.000Z</time>
      </trkpt>
      <trkpt lat="43.74686" lon="6.79513">
        <ele>1501.743432</ele>
        <time>2024-12-06T10:59:10.000Z</time>
      </trkpt>
      <trkpt lat="43.74688" lon="6.79502">
        <ele>1502.525472</ele>
        <time>2024-12-06T10:59:13.000Z</time>
      </trkpt>
      <trkpt lat="43.7469" lon="6.79496">
        <ele>1503.025907</ele>
        <time>2024-12-06T10:59:15.000Z</time>
      </trkpt>
      <trkpt lat="43.74691" lon="6.79485">
        <ele>1503.738542</ele>
        <time>2024-12-06T10:59:18.000Z</time>
      </trkpt>
      <trkpt lat="43.74691" lon="6.79482">
        <ele>1503.987487</ele>
        <time>2024-12-06T10:59:19.000Z</time>
      </trkpt>
      <trkpt lat="43.7469" lon="6.79478">
        <ele>1504.230094</ele>
        <time>2024-12-06T10:59:20.000Z</time>
      </trkpt>
      <trkpt lat="43.7469" lon="6.79475">
        <ele>1504.466781</ele>
        <time>2024-12-06T10:59:21.000Z</time>
      </trkpt>
      <trkpt lat="43.7469" lon="6.79472">
        <ele>1504.681845</ele>
        <time>2024-12-06T10:59:22.000Z</time>
      </trkpt>
      <trkpt lat="43.74691" lon="6.79468">
        <ele>1504.925393</ele>
        <time>2024-12-06T10:59:23.000Z</time>
      </trkpt>
      <trkpt lat="43.74691" lon="6.79465">
        <ele>1505.151627</ele>
        <time>2024-12-06T10:59:24.000Z</time>
      </trkpt>
      <trkpt lat="43.74692" lon="6.79462">
        <ele>1505.377862</ele>
        <time>2024-12-06T10:59:25.000Z</time>
      </trkpt>
      <trkpt lat="43.74692" lon="6.7946">
        <ele>1505.537228</ele>
        <time>2024-12-06T10:59:26.000Z</time>
      </trkpt>
      <trkpt lat="43.74693" lon="6.79456">
        <ele>1505.803746</ele>
        <time>2024-12-06T10:59:27.000Z</time>
      </trkpt>
      <trkpt lat="43.74694" lon="6.79453">
        <ele>1506.025513</ele>
        <time>2024-12-06T10:59:28.000Z</time>
      </trkpt>
      <trkpt lat="43.74694" lon="6.7945">
        <ele>1506.227326</ele>
        <time>2024-12-06T10:59:29.000Z</time>
      </trkpt>
      <trkpt lat="43.74695" lon="6.79448">
        <ele>1506.401133</ele>
        <time>2024-12-06T10:59:30.000Z</time>
      </trkpt>
      <trkpt lat="43.74695" lon="6.79445">
        <ele>1506.566974</ele>
        <time>2024-12-06T10:59:31.000Z</time>
      </trkpt>
      <trkpt lat="43.74694" lon="6.79442">
        <ele>1506.770985</ele>
        <time>2024-12-06T10:59:32.000Z</time>
      </trkpt>
      <trkpt lat="43.74694" lon="6.79439">
        <ele>1507.002204</ele>
        <time>2024-12-06T10:59:33.000Z</time>
      </trkpt>
      <trkpt lat="43.74694" lon="6.79436">
        <ele>1507.209505</ele>
        <time>2024-12-06T10:59:34.000Z</time>
      </trkpt>
      <trkpt lat="43.74694" lon="6.79433">
        <ele>1507.41194</ele>
        <time>2024-12-06T10:59:35.000Z</time>
      </trkpt>
      <trkpt lat="43.74694" lon="6.7943">
        <ele>1507.606365</ele>
        <time>2024-12-06T10:59:36.000Z</time>
      </trkpt>
      <trkpt lat="43.74695" lon="6.79428">
        <ele>1507.798968</ele>
        <time>2024-12-06T10:59:37.000Z</time>
      </trkpt>
      <trkpt lat="43.74695" lon="6.79425">
        <ele>1507.990701</ele>
        <time>2024-12-06T10:59:38.000Z</time>
      </trkpt>
      <trkpt lat="43.74696" lon="6.79422">
        <ele>1508.192515</ele>
        <time>2024-12-06T10:59:39.000Z</time>
      </trkpt>
      <trkpt lat="43.74697" lon="6.79419">
        <ele>1508.407614</ele>
        <time>2024-12-06T10:59:40.000Z</time>
      </trkpt>
      <trkpt lat="43.74697" lon="6.79417">
        <ele>1508.586863</ele>
        <time>2024-12-06T10:59:41.000Z</time>
      </trkpt>
      <trkpt lat="43.74698" lon="6.79414">
        <ele>1508.775468</ele>
        <time>2024-12-06T10:59:42.000Z</time>
      </trkpt>
      <trkpt lat="43.74698" lon="6.79412">
        <ele>1508.961386</ele>
        <time>2024-12-06T10:59:43.000Z</time>
      </trkpt>
      <trkpt lat="43.74699" lon="6.79409">
        <ele>1509.122886</ele>
        <time>2024-12-06T10:59:44.000Z</time>
      </trkpt>
      <trkpt lat="43.74699" lon="6.79407">
        <ele>1509.291191</ele>
        <time>2024-12-06T10:59:45.000Z</time>
      </trkpt>
      <trkpt lat="43.74699" lon="6.79404">
        <ele>1509.473129</ele>
        <time>2024-12-06T10:59:46.000Z</time>
      </trkpt>
      <trkpt lat="43.74699" lon="6.79402">
        <ele>1509.661894</ele>
        <time>2024-12-06T10:59:47.000Z</time>
      </trkpt>
      <trkpt lat="43.747" lon="6.79399">
        <ele>1509.859122</ele>
        <time>2024-12-06T10:59:48.000Z</time>
      </trkpt>
      <trkpt lat="43.747" lon="6.79396">
        <ele>1510.038371</ele>
        <time>2024-12-06T10:59:49.000Z</time>
      </trkpt>
      <trkpt lat="43.74701" lon="6.79394">
        <ele>1510.230974</ele>
        <time>2024-12-06T10:59:50.000Z</time>
      </trkpt>
      <trkpt lat="43.74701" lon="6.79391">
        <ele>1510.418523</ele>
        <time>2024-12-06T10:59:51.000Z</time>
      </trkpt>
      <trkpt lat="43.74701" lon="6.79388">
        <ele>1510.607288</ele>
        <time>2024-12-06T10:59:52.000Z</time>
      </trkpt>
      <trkpt lat="43.74702" lon="6.79385">
        <ele>1510.804516</ele>
        <time>2024-12-06T10:59:53.000Z</time>
      </trkpt>
      <trkpt lat="43.74702" lon="6.79383">
        <ele>1510.994969</ele>
        <time>2024-12-06T10:59:54.000Z</time>
      </trkpt>
      <trkpt lat="43.74702" lon="6.7938">
        <ele>1511.189393</ele>
        <time>2024-12-06T10:59:55.000Z</time>
      </trkpt>
      <trkpt lat="43.74702" lon="6.79377">
        <ele>1511.362144</ele>
        <time>2024-12-06T10:59:56.000Z</time>
      </trkpt>
      <trkpt lat="43.74703" lon="6.79374">
        <ele>1511.605691</ele>
        <time>2024-12-06T10:59:57.000Z</time>
      </trkpt>
      <trkpt lat="43.74703" lon="6.79371">
        <ele>1511.786368</ele>
        <time>2024-12-06T10:59:58.000Z</time>
      </trkpt>
      <trkpt lat="43.74703" lon="6.79368">
        <ele>1512.005853</ele>
        <time>2024-12-06T10:59:59.000Z</time>
      </trkpt>
      <trkpt lat="43.74704" lon="6.79365">
        <ele>1512.2143</ele>
        <time>2024-12-06T11:00:00.000Z</time>
      </trkpt>
      <trkpt lat="43.74705" lon="6.79363">
        <ele>1512.403241</ele>
        <time>2024-12-06T11:00:01.000Z</time>
      </trkpt>
      <trkpt lat="43.74705" lon="6.7936">
        <ele>1512.598439</ele>
        <time>2024-12-06T11:00:02.000Z</time>
      </trkpt>
      <trkpt lat="43.74706" lon="6.79357">
        <ele>1512.793638</ele>
        <time>2024-12-06T11:00:03.000Z</time>
      </trkpt>
      <trkpt lat="43.74706" lon="6.79355">
        <ele>1512.992942</ele>
        <time>2024-12-06T11:00:04.000Z</time>
      </trkpt>
      <trkpt lat="43.74707" lon="6.79352">
        <ele>1513.194755</ele>
        <time>2024-12-06T11:00:05.000Z</time>
      </trkpt>
      <trkpt lat="43.74707" lon="6.79349">
        <ele>1513.391983</ele>
        <time>2024-12-06T11:00:06.000Z</time>
      </trkpt>
      <trkpt lat="43.74708" lon="6.79346">
        <ele>1513.58758</ele>
        <time>2024-12-06T11:00:07.000Z</time>
      </trkpt>
      <trkpt lat="43.74708" lon="6.79343">
        <ele>1513.783177</ele>
        <time>2024-12-06T11:00:08.000Z</time>
      </trkpt>
      <trkpt lat="43.74709" lon="6.79341">
        <ele>1513.962426</ele>
        <time>2024-12-06T11:00:09.000Z</time>
      </trkpt>
      <trkpt lat="43.74709" lon="6.79338">
        <ele>1514.159653</ele>
        <time>2024-12-06T11:00:10.000Z</time>
      </trkpt>
      <trkpt lat="43.74711" lon="6.79326">
        <ele>1514.997177</ele>
        <time>2024-12-06T11:00:14.000Z</time>
      </trkpt>
      <trkpt lat="43.74714" lon="6.7931">
        <ele>1516.077587</ele>
        <time>2024-12-06T11:00:20.000Z</time>
      </trkpt>
      <trkpt lat="43.74716" lon="6.79301">
        <ele>1516.56588</ele>
        <time>2024-12-06T11:00:23.000Z</time>
      </trkpt>
      <trkpt lat="43.74724" lon="6.79277">
        <ele>1518.07174</ele>
        <time>2024-12-06T11:00:32.000Z</time>
      </trkpt>
      <trkpt lat="43.74732" lon="6.79255">
        <ele>1519.439116</ele>
        <time>2024-12-06T11:00:41.000Z</time>
      </trkpt>
      <trkpt lat="43.74733" lon="6.79253">
        <ele>1519.590006</ele>
        <time>2024-12-06T11:00:42.000Z</time>
      </trkpt>
      <trkpt lat="43.74736" lon="6.79245">
        <ele>1520.087705</ele>
        <time>2024-12-06T11:00:45.000Z</time>
      </trkpt>
      <trkpt lat="43.74739" lon="6.79241">
        <ele>1520.40665</ele>
        <time>2024-12-06T11:00:47.000Z</time>
      </trkpt>
      <trkpt lat="43.74739" lon="6.79238">
        <ele>1520.546935</ele>
        <time>2024-12-06T11:00:48.000Z</time>
      </trkpt>
      <trkpt lat="43.7474" lon="6.79236">
        <ele>1520.69893</ele>
        <time>2024-12-06T11:00:49.000Z</time>
      </trkpt>
      <trkpt lat="43.74741" lon="6.79234">
        <ele>1520.84168</ele>
        <time>2024-12-06T11:00:50.000Z</time>
      </trkpt>
      <trkpt lat="43.74744" lon="6.79223">
        <ele>1521.473537</ele>
        <time>2024-12-06T11:00:54.000Z</time>
      </trkpt>
      <trkpt lat="43.74745" lon="6.7922">
        <ele>1521.64008</ele>
        <time>2024-12-06T11:00:55.000Z</time>
      </trkpt>
      <trkpt lat="43.74745" lon="6.79218">
        <ele>1521.782527</ele>
        <time>2024-12-06T11:00:56.000Z</time>
      </trkpt>
      <trkpt lat="43.74745" lon="6.79215">
        <ele>1521.934291</ele>
        <time>2024-12-06T11:00:57.000Z</time>
      </trkpt>
      <trkpt lat="43.74745" lon="6.79212">
        <ele>1522.110094</ele>
        <time>2024-12-06T11:00:58.000Z</time>
      </trkpt>
      <trkpt lat="43.74746" lon="6.79209">
        <ele>1522.287099</ele>
        <time>2024-12-06T11:00:59.000Z</time>
      </trkpt>
      <trkpt lat="43.74746" lon="6.79206">
        <ele>1522.442021</ele>
        <time>2024-12-06T11:01:00.000Z</time>
      </trkpt>
      <trkpt lat="43.74746" lon="6.79204">
        <ele>1522.59458</ele>
        <time>2024-12-06T11:01:01.000Z</time>
      </trkpt>
      <trkpt lat="43.74746" lon="6.79201">
        <ele>1522.752732</ele>
        <time>2024-12-06T11:01:02.000Z</time>
      </trkpt>
      <trkpt lat="43.74747" lon="6.79198">
        <ele>1522.914854</ele>
        <time>2024-12-06T11:01:03.000Z</time>
      </trkpt>
      <trkpt lat="43.74747" lon="6.79195">
        <ele>1523.061823</ele>
        <time>2024-12-06T11:01:04.000Z</time>
      </trkpt>
      <trkpt lat="43.74747" lon="6.79192">
        <ele>1523.231165</ele>
        <time>2024-12-06T11:01:05.000Z</time>
      </trkpt>
      <trkpt lat="43.74748" lon="6.79189">
        <ele>1523.40817</ele>
        <time>2024-12-06T11:01:06.000Z</time>
      </trkpt>
      <trkpt lat="43.74748" lon="6.79186">
        <ele>1523.576976</ele>
        <time>2024-12-06T11:01:07.000Z</time>
      </trkpt>
      <trkpt lat="43.74748" lon="6.79183">
        <ele>1523.745602</ele>
        <time>2024-12-06T11:01:08.000Z</time>
      </trkpt>
      <trkpt lat="43.74748" lon="6.7918">
        <ele>1523.92547</ele>
        <time>2024-12-06T11:01:09.000Z</time>
      </trkpt>
      <trkpt lat="43.74748" lon="6.79177">
        <ele>1524.089216</ele>
        <time>2024-12-06T11:01:10.000Z</time>
      </trkpt>
      <trkpt lat="43.74749" lon="6.79174">
        <ele>1524.253379</ele>
        <time>2024-12-06T11:01:11.000Z</time>
      </trkpt>
      <trkpt lat="43.74749" lon="6.79172">
        <ele>1524.4155</ele>
        <time>2024-12-06T11:01:12.000Z</time>
      </trkpt>
      <trkpt lat="43.74749" lon="6.79169">
        <ele>1524.579247</ele>
        <time>2024-12-06T11:01:13.000Z</time>
      </trkpt>
      <trkpt lat="43.74749" lon="6.79166">
        <ele>1524.748052</ele>
        <time>2024-12-06T11:01:14.000Z</time>
      </trkpt>
      <trkpt lat="43.7475" lon="6.79163">
        <ele>1524.922993</ele>
        <time>2024-12-06T11:01:15.000Z</time>
      </trkpt>
      <trkpt lat="43.7475" lon="6.7916">
        <ele>1525.086739</ele>
        <time>2024-12-06T11:01:16.000Z</time>
      </trkpt>
      <trkpt lat="43.7475" lon="6.79157">
        <ele>1525.239298</ele>
        <time>2024-12-06T11:01:17.000Z</time>
      </trkpt>
      <trkpt lat="43.7475" lon="6.79154">
        <ele>1525.403045</ele>
        <time>2024-12-06T11:01:18.000Z</time>
      </trkpt>
      <trkpt lat="43.74751" lon="6.79151">
        <ele>1525.567207</ele>
        <time>2024-12-06T11:01:19.000Z</time>
      </trkpt>
      <trkpt lat="43.74751" lon="6.79148">
        <ele>1525.726313</ele>
        <time>2024-12-06T11:01:20.000Z</time>
      </trkpt>
      <trkpt lat="43.74751" lon="6.79146">
        <ele>1525.889318</ele>
        <time>2024-12-06T11:01:21.000Z</time>
      </trkpt>
      <trkpt lat="43.74751" lon="6.79143">
        <ele>1526.058124</ele>
        <time>2024-12-06T11:01:22.000Z</time>
      </trkpt>
      <trkpt lat="43.74751" lon="6.79139">
        <ele>1526.243612</ele>
        <time>2024-12-06T11:01:23.000Z</time>
      </trkpt>
      <trkpt lat="43.74751" lon="6.79136">
        <ele>1526.418033</ele>
        <time>2024-12-06T11:01:24.000Z</time>
      </trkpt>
      <trkpt lat="43.74751" lon="6.79133">
        <ele>1526.571581</ele>
        <time>2024-12-06T11:01:25.000Z</time>
      </trkpt>
      <trkpt lat="43.74752" lon="6.79131">
        <ele>1526.732013</ele>
        <time>2024-12-06T11:01:26.000Z</time>
      </trkpt>
      <trkpt lat="43.74752" lon="6.79128">
        <ele>1526.899597</ele>
        <time>2024-12-06T11:01:27.000Z</time>
      </trkpt>
      <trkpt lat="43.74753" lon="6.79125">
        <ele>1527.069155</ele>
        <time>2024-12-06T11:01:28.000Z</time>
      </trkpt>
      <trkpt lat="43.74753" lon="6.79122">
        <ele>1527.222574</ele>
        <time>2024-12-06T11:01:29.000Z</time>
      </trkpt>
      <trkpt lat="43.74754" lon="6.7912">
        <ele>1527.365021</ele>
        <time>2024-12-06T11:01:30.000Z</time>
      </trkpt>
      <trkpt lat="43.74754" lon="6.79117">
        <ele>1527.51758</ele>
        <time>2024-12-06T11:01:31.000Z</time>
      </trkpt>
      <trkpt lat="43.74754" lon="6.79114">
        <ele>1527.671128</ele>
        <time>2024-12-06T11:01:32.000Z</time>
      </trkpt>
      <trkpt lat="43.74755" lon="6.79112">
        <ele>1527.82605</ele>
        <time>2024-12-06T11:01:33.000Z</time>
      </trkpt>
      <trkpt lat="43.74755" lon="6.79109">
        <ele>1527.961175</ele>
        <time>2024-12-06T11:01:34.000Z</time>
      </trkpt>
      <trkpt lat="43.74755" lon="6.79106">
        <ele>1528.164868</ele>
        <time>2024-12-06T11:01:35.000Z</time>
      </trkpt>
      <trkpt lat="43.74756" lon="6.79103">
        <ele>1528.310676</ele>
        <time>2024-12-06T11:01:36.000Z</time>
      </trkpt>
      <trkpt lat="43.74756" lon="6.79101">
        <ele>1528.453426</ele>
        <time>2024-12-06T11:01:37.000Z</time>
      </trkpt>
      <trkpt lat="43.74757" lon="6.79098">
        <ele>1528.596177</ele>
        <time>2024-12-06T11:01:38.000Z</time>
      </trkpt>
      <trkpt lat="43.74757" lon="6.79096">
        <ele>1528.741984</ele>
        <time>2024-12-06T11:01:39.000Z</time>
      </trkpt>
      <trkpt lat="43.74758" lon="6.79093">
        <ele>1528.895532</ele>
        <time>2024-12-06T11:01:40.000Z</time>
      </trkpt>
      <trkpt lat="43.74758" lon="6.7909">
        <ele>1529.052916</ele>
        <time>2024-12-06T11:01:41.000Z</time>
      </trkpt>
      <trkpt lat="43.74758" lon="6.79088">
        <ele>1529.193653</ele>
        <time>2024-12-06T11:01:42.000Z</time>
      </trkpt>
      <trkpt lat="43.74758" lon="6.79085">
        <ele>1529.332098</ele>
        <time>2024-12-06T11:01:43.000Z</time>
      </trkpt>
      <trkpt lat="43.74759" lon="6.79083">
        <ele>1529.472496</ele>
        <time>2024-12-06T11:01:44.000Z</time>
      </trkpt>
      <trkpt lat="43.74759" lon="6.79081">
        <ele>1529.698722</ele>
        <time>2024-12-06T11:01:45.000Z</time>
      </trkpt>
      <trkpt lat="43.74759" lon="6.79078">
        <ele>1529.995024</ele>
        <time>2024-12-06T11:01:46.000Z</time>
      </trkpt>
      <trkpt lat="43.7476" lon="6.79076">
        <ele>1530.271621</ele>
        <time>2024-12-06T11:01:47.000Z</time>
      </trkpt>
      <trkpt lat="43.7476" lon="6.79073">
        <ele>1530.559598</ele>
        <time>2024-12-06T11:01:48.000Z</time>
      </trkpt>
      <trkpt lat="43.7476" lon="6.79071">
        <ele>1530.852342</ele>
        <time>2024-12-06T11:01:49.000Z</time>
      </trkpt>
      <trkpt lat="43.7476" lon="6.79069">
        <ele>1531.121742</ele>
        <time>2024-12-06T11:01:50.000Z</time>
      </trkpt>
      <trkpt lat="43.74761" lon="6.79066">
        <ele>1531.409719</ele>
        <time>2024-12-06T11:01:51.000Z</time>
      </trkpt>
      <trkpt lat="43.74761" lon="6.79064">
        <ele>1531.720525</ele>
        <time>2024-12-06T11:01:52.000Z</time>
      </trkpt>
      <trkpt lat="43.74762" lon="6.79061">
        <ele>1532.042776</ele>
        <time>2024-12-06T11:01:53.000Z</time>
      </trkpt>
      <trkpt lat="43.74762" lon="6.79059">
        <ele>1532.296697</ele>
        <time>2024-12-06T11:01:54.000Z</time>
      </trkpt>
      <trkpt lat="43.74762" lon="6.79057">
        <ele>1532.569958</ele>
        <time>2024-12-06T11:01:55.000Z</time>
      </trkpt>
      <trkpt lat="43.74763" lon="6.79054">
        <ele>1532.852424</ele>
        <time>2024-12-06T11:01:56.000Z</time>
      </trkpt>
      <trkpt lat="43.74763" lon="6.79052">
        <ele>1533.121338</ele>
        <time>2024-12-06T11:01:57.000Z</time>
      </trkpt>
      <trkpt lat="43.74763" lon="6.7905">
        <ele>1533.390251</ele>
        <time>2024-12-06T11:01:58.000Z</time>
      </trkpt>
      <trkpt lat="43.74763" lon="6.79047">
        <ele>1533.686553</ele>
        <time>2024-12-06T11:01:59.000Z</time>
      </trkpt>
      <trkpt lat="43.74764" lon="6.79044">
        <ele>1534.032975</ele>
        <time>2024-12-06T11:02:00.000Z</time>
      </trkpt>
      <trkpt lat="43.74764" lon="6.79042">
        <ele>1534.374178</ele>
        <time>2024-12-06T11:02:01.000Z</time>
      </trkpt>
      <trkpt lat="43.74765" lon="6.79039">
        <ele>1534.658953</ele>
        <time>2024-12-06T11:02:02.000Z</time>
      </trkpt>
      <trkpt lat="43.74765" lon="6.79037">
        <ele>1534.869407</ele>
        <time>2024-12-06T11:02:03.000Z</time>
      </trkpt>
      <trkpt lat="43.74765" lon="6.79035">
        <ele>1535.198375</ele>
        <time>2024-12-06T11:02:04.000Z</time>
      </trkpt>
      <trkpt lat="43.74765" lon="6.79032">
        <ele>1535.501668</ele>
        <time>2024-12-06T11:02:05.000Z</time>
      </trkpt>
      <trkpt lat="43.74766" lon="6.7903">
        <ele>1535.77661</ele>
        <time>2024-12-06T11:02:06.000Z</time>
      </trkpt>
      <trkpt lat="43.74767" lon="6.79027">
        <ele>1536.084616</ele>
        <time>2024-12-06T11:02:07.000Z</time>
      </trkpt>
      <trkpt lat="43.74767" lon="6.79025">
        <ele>1536.354266</ele>
        <time>2024-12-06T11:02:08.000Z</time>
      </trkpt>
      <trkpt lat="43.74768" lon="6.79023">
        <ele>1536.673389</ele>
        <time>2024-12-06T11:02:09.000Z</time>
      </trkpt>
      <trkpt lat="43.74768" lon="6.7902">
        <ele>1536.961365</ele>
        <time>2024-12-06T11:02:10.000Z</time>
      </trkpt>
      <trkpt lat="43.74768" lon="6.79018">
        <ele>1537.237961</ele>
        <time>2024-12-06T11:02:11.000Z</time>
      </trkpt>
      <trkpt lat="43.74769" lon="6.79016">
        <ele>1537.511223</ele>
        <time>2024-12-06T11:02:12.000Z</time>
      </trkpt>
      <trkpt lat="43.74769" lon="6.79013">
        <ele>1537.803967</ele>
        <time>2024-12-06T11:02:13.000Z</time>
      </trkpt>
      <trkpt lat="43.74769" lon="6.79011">
        <ele>1538.050029</ele>
        <time>2024-12-06T11:02:14.000Z</time>
      </trkpt>
      <trkpt lat="43.74769" lon="6.79009">
        <ele>1538.332495</ele>
        <time>2024-12-06T11:02:15.000Z</time>
      </trkpt>
      <trkpt lat="43.74769" lon="6.79006">
        <ele>1538.638202</ele>
        <time>2024-12-06T11:02:16.000Z</time>
      </trkpt>
      <trkpt lat="43.7477" lon="6.79004">
        <ele>1538.911463</ele>
        <time>2024-12-06T11:02:17.000Z</time>
      </trkpt>
      <trkpt lat="43.7477" lon="6.79001">
        <ele>1539.192288</ele>
        <time>2024-12-06T11:02:18.000Z</time>
      </trkpt>
      <trkpt lat="43.7477" lon="6.78999">
        <ele>1539.477063</ele>
        <time>2024-12-06T11:02:19.000Z</time>
      </trkpt>
      <trkpt lat="43.74771" lon="6.78997">
        <ele>1539.738827</ele>
        <time>2024-12-06T11:02:20.000Z</time>
      </trkpt>
      <trkpt lat="43.74771" lon="6.78994">
        <ele>1540.061077</ele>
        <time>2024-12-06T11:02:21.000Z</time>
      </trkpt>
      <trkpt lat="43.74771" lon="6.78991">
        <ele>1540.39203</ele>
        <time>2024-12-06T11:02:22.000Z</time>
      </trkpt>
      <trkpt lat="43.74772" lon="6.78989">
        <ele>1540.695322</ele>
        <time>2024-12-06T11:02:23.000Z</time>
      </trkpt>
      <trkpt lat="43.74772" lon="6.78987">
        <ele>1540.964973</ele>
        <time>2024-12-06T11:02:24.000Z</time>
      </trkpt>
      <trkpt lat="43.74773" lon="6.78984">
        <ele>1541.27401</ele>
        <time>2024-12-06T11:02:25.000Z</time>
      </trkpt>
      <trkpt lat="43.74774" lon="6.78982">
        <ele>1541.555076</ele>
        <time>2024-12-06T11:02:26.000Z</time>
      </trkpt>
      <trkpt lat="43.74774" lon="6.7898">
        <ele>1541.828337</ele>
        <time>2024-12-06T11:02:27.000Z</time>
      </trkpt>
      <trkpt lat="43.74774" lon="6.78977">
        <ele>1542.144432</ele>
        <time>2024-12-06T11:02:28.000Z</time>
      </trkpt>
      <trkpt lat="43.74774" lon="6.78974">
        <ele>1542.460112</ele>
        <time>2024-12-06T11:02:29.000Z</time>
      </trkpt>
      <trkpt lat="43.74774" lon="6.78972">
        <ele>1542.775792</ele>
        <time>2024-12-06T11:02:30.000Z</time>
      </trkpt>
      <trkpt lat="43.74775" lon="6.78969">
        <ele>1543.046646</ele>
        <time>2024-12-06T11:02:31.000Z</time>
      </trkpt>
      <trkpt lat="43.74775" lon="6.78967">
        <ele>1543.316045</ele>
        <time>2024-12-06T11:02:32.000Z</time>
      </trkpt>
      <trkpt lat="43.74775" lon="6.78965">
        <ele>1543.575295</ele>
        <time>2024-12-06T11:02:33.000Z</time>
      </trkpt>
      <trkpt lat="43.74775" lon="6.78962">
        <ele>1543.860069</ele>
        <time>2024-12-06T11:02:34.000Z</time>
      </trkpt>
      <trkpt lat="43.74776" lon="6.7896">
        <ele>1544.174644</ele>
        <time>2024-12-06T11:02:35.000Z</time>
      </trkpt>
      <trkpt lat="43.74776" lon="6.78957">
        <ele>1544.474024</ele>
        <time>2024-12-06T11:02:36.000Z</time>
      </trkpt>
      <trkpt lat="43.74777" lon="6.78955">
        <ele>1544.754849</ele>
        <time>2024-12-06T11:02:37.000Z</time>
      </trkpt>
      <trkpt lat="43.74777" lon="6.78952">
        <ele>1545.069425</ele>
        <time>2024-12-06T11:02:38.000Z</time>
      </trkpt>
      <trkpt lat="43.74777" lon="6.7895">
        <ele>1545.3574</ele>
        <time>2024-12-06T11:02:39.000Z</time>
      </trkpt>
      <trkpt lat="43.74778" lon="6.78948">
        <ele>1545.645376</ele>
        <time>2024-12-06T11:02:40.000Z</time>
      </trkpt>
      <trkpt lat="43.74778" lon="6.78945">
        <ele>1545.951083</ele>
        <time>2024-12-06T11:02:41.000Z</time>
      </trkpt>
      <trkpt lat="43.74778" lon="6.78943">
        <ele>1546.221936</ele>
        <time>2024-12-06T11:02:42.000Z</time>
      </trkpt>
      <trkpt lat="43.74779" lon="6.7894">
        <ele>1546.502762</ele>
        <time>2024-12-06T11:02:43.000Z</time>
      </trkpt>
      <trkpt lat="43.74779" lon="6.78938">
        <ele>1546.783587</ele>
        <time>2024-12-06T11:02:44.000Z</time>
      </trkpt>
      <trkpt lat="43.7478" lon="6.78936">
        <ele>1547.053237</ele>
        <time>2024-12-06T11:02:45.000Z</time>
      </trkpt>
      <trkpt lat="43.7478" lon="6.78934">
        <ele>1547.329832</ele>
        <time>2024-12-06T11:02:46.000Z</time>
      </trkpt>
      <trkpt lat="43.7478" lon="6.78931">
        <ele>1547.622576</ele>
        <time>2024-12-06T11:02:47.000Z</time>
      </trkpt>
      <trkpt lat="43.74781" lon="6.78929">
        <ele>1547.921956</ele>
        <time>2024-12-06T11:02:48.000Z</time>
      </trkpt>
      <trkpt lat="43.74781" lon="6.78926">
        <ele>1548.198551</ele>
        <time>2024-12-06T11:02:49.000Z</time>
      </trkpt>
      <trkpt lat="43.74781" lon="6.78924">
        <ele>1548.471812</ele>
        <time>2024-12-06T11:02:50.000Z</time>
      </trkpt>
      <trkpt lat="43.74782" lon="6.78921">
        <ele>1548.786387</ele>
        <time>2024-12-06T11:02:51.000Z</time>
      </trkpt>
      <trkpt lat="43.74782" lon="6.78919">
        <ele>1549.067212</ele>
        <time>2024-12-06T11:02:52.000Z</time>
      </trkpt>
      <trkpt lat="43.74783" lon="6.78917">
        <ele>1549.355188</ele>
        <time>2024-12-06T11:02:53.000Z</time>
      </trkpt>
      <trkpt lat="43.74783" lon="6.78914">
        <ele>1549.665993</ele>
        <time>2024-12-06T11:02:54.000Z</time>
      </trkpt>
      <trkpt lat="43.74783" lon="6.78912">
        <ele>1549.962294</ele>
        <time>2024-12-06T11:02:55.000Z</time>
      </trkpt>
      <trkpt lat="43.74784" lon="6.78909">
        <ele>1550.233148</ele>
        <time>2024-12-06T11:02:56.000Z</time>
      </trkpt>
      <trkpt lat="43.74784" lon="6.78907">
        <ele>1550.525188</ele>
        <time>2024-12-06T11:02:57.000Z</time>
      </trkpt>
      <trkpt lat="43.74784" lon="6.78904">
        <ele>1550.833029</ele>
        <time>2024-12-06T11:02:58.000Z</time>
      </trkpt>
      <trkpt lat="43.74785" lon="6.78902">
        <ele>1551.127112</ele>
        <time>2024-12-06T11:02:59.000Z</time>
      </trkpt>
      <trkpt lat="43.74785" lon="6.78899">
        <ele>1551.400372</ele>
        <time>2024-12-06T11:03:00.000Z</time>
      </trkpt>
      <trkpt lat="43.74786" lon="6.78897">
        <ele>1551.753068</ele>
        <time>2024-12-06T11:03:01.000Z</time>
      </trkpt>
      <trkpt lat="43.74786" lon="6.78894">
        <ele>1552.067642</ele>
        <time>2024-12-06T11:03:02.000Z</time>
      </trkpt>
      <trkpt lat="43.74786" lon="6.78892">
        <ele>1552.352416</ele>
        <time>2024-12-06T11:03:03.000Z</time>
      </trkpt>
      <trkpt lat="43.74786" lon="6.78889">
        <ele>1552.621815</ele>
        <time>2024-12-06T11:03:04.000Z</time>
      </trkpt>
      <trkpt lat="43.74787" lon="6.78887">
        <ele>1552.93915</ele>
        <time>2024-12-06T11:03:05.000Z</time>
      </trkpt>
      <trkpt lat="43.74787" lon="6.78884">
        <ele>1553.249955</ele>
        <time>2024-12-06T11:03:06.000Z</time>
      </trkpt>
      <trkpt lat="43.74788" lon="6.78882">
        <ele>1553.53102</ele>
        <time>2024-12-06T11:03:07.000Z</time>
      </trkpt>
      <trkpt lat="43.74788" lon="6.7888">
        <ele>1553.795055</ele>
        <time>2024-12-06T11:03:08.000Z</time>
      </trkpt>
      <trkpt lat="43.74789" lon="6.78878">
        <ele>1554.045339</ele>
        <time>2024-12-06T11:03:09.000Z</time>
      </trkpt>
      <trkpt lat="43.74789" lon="6.78875">
        <ele>1554.337378</ele>
        <time>2024-12-06T11:03:10.000Z</time>
      </trkpt>
      <trkpt lat="43.74789" lon="6.78873">
        <ele>1554.60629</ele>
        <time>2024-12-06T11:03:11.000Z</time>
      </trkpt>
      <trkpt lat="43.74789" lon="6.7887">
        <ele>1554.888755</ele>
        <time>2024-12-06T11:03:12.000Z</time>
      </trkpt>
      <trkpt lat="43.7479" lon="6.78868">
        <ele>1555.180795</ele>
        <time>2024-12-06T11:03:13.000Z</time>
      </trkpt>
      <trkpt lat="43.7479" lon="6.78866">
        <ele>1555.446037</ele>
        <time>2024-12-06T11:03:14.000Z</time>
      </trkpt>
      <trkpt lat="43.74791" lon="6.78864">
        <ele>1555.7078</ele>
        <time>2024-12-06T11:03:15.000Z</time>
      </trkpt>
      <trkpt lat="43.74791" lon="6.78862">
        <ele>1555.958083</ele>
        <time>2024-12-06T11:03:16.000Z</time>
      </trkpt>
      <trkpt lat="43.74791" lon="6.78859">
        <ele>1556.228936</ele>
        <time>2024-12-06T11:03:17.000Z</time>
      </trkpt>
      <trkpt lat="43.74791" lon="6.78857">
        <ele>1556.528316</ele>
        <time>2024-12-06T11:03:18.000Z</time>
      </trkpt>
      <trkpt lat="43.74792" lon="6.78854">
        <ele>1556.824617</ele>
        <time>2024-12-06T11:03:19.000Z</time>
      </trkpt>
      <trkpt lat="43.74792" lon="6.78852">
        <ele>1557.132457</ele>
        <time>2024-12-06T11:03:20.000Z</time>
      </trkpt>
      <trkpt lat="43.74792" lon="6.78849">
        <ele>1557.428758</ele>
        <time>2024-12-06T11:03:21.000Z</time>
      </trkpt>
      <trkpt lat="43.74793" lon="6.78846">
        <ele>1557.746092</ele>
        <time>2024-12-06T11:03:22.000Z</time>
      </trkpt>
      <trkpt lat="43.74793" lon="6.78844">
        <ele>1557.993745</ele>
        <time>2024-12-06T11:03:23.000Z</time>
      </trkpt>
      <trkpt lat="43.74793" lon="6.78842">
        <ele>1558.263144</ele>
        <time>2024-12-06T11:03:24.000Z</time>
      </trkpt>
      <trkpt lat="43.74793" lon="6.78839">
        <ele>1558.56885</ele>
        <time>2024-12-06T11:03:25.000Z</time>
      </trkpt>
      <trkpt lat="43.74793" lon="6.78837">
        <ele>1558.929274</ele>
        <time>2024-12-06T11:03:26.000Z</time>
      </trkpt>
      <trkpt lat="43.74793" lon="6.78834">
        <ele>1559.347082</ele>
        <time>2024-12-06T11:03:27.000Z</time>
      </trkpt>
      <trkpt lat="43.74794" lon="6.78832">
        <ele>1559.726804</ele>
        <time>2024-12-06T11:03:28.000Z</time>
      </trkpt>
      <trkpt lat="43.74794" lon="6.78829">
        <ele>1560.073103</ele>
        <time>2024-12-06T11:03:29.000Z</time>
      </trkpt>
      <trkpt lat="43.74794" lon="6.78827">
        <ele>1560.383166</ele>
        <time>2024-12-06T11:03:30.000Z</time>
      </trkpt>
      <trkpt lat="43.74794" lon="6.78825">
        <ele>1560.691236</ele>
        <time>2024-12-06T11:03:31.000Z</time>
      </trkpt>
      <trkpt lat="43.74794" lon="6.78823">
        <ele>1560.998638</ele>
        <time>2024-12-06T11:03:32.000Z</time>
      </trkpt>
      <trkpt lat="43.74794" lon="6.78821">
        <ele>1561.306708</ele>
        <time>2024-12-06T11:03:33.000Z</time>
      </trkpt>
      <trkpt lat="43.74795" lon="6.78818">
        <ele>1561.660356</ele>
        <time>2024-12-06T11:03:34.000Z</time>
      </trkpt>
      <trkpt lat="43.74795" lon="6.78815">
        <ele>1562.118194</ele>
        <time>2024-12-06T11:03:35.000Z</time>
      </trkpt>
      <trkpt lat="43.74795" lon="6.78813">
        <ele>1562.457304</ele>
        <time>2024-12-06T11:03:36.000Z</time>
      </trkpt>
      <trkpt lat="43.74794" lon="6.78811">
        <ele>1562.799427</ele>
        <time>2024-12-06T11:03:37.000Z</time>
      </trkpt>
      <trkpt lat="43.74794" lon="6.78808">
        <ele>1563.150745</ele>
        <time>2024-12-06T11:03:38.000Z</time>
      </trkpt>
      <trkpt lat="43.74794" lon="6.78806">
        <ele>1563.472786</ele>
        <time>2024-12-06T11:03:39.000Z</time>
      </trkpt>
      <trkpt lat="43.74794" lon="6.78804">
        <ele>1563.810074</ele>
        <time>2024-12-06T11:03:40.000Z</time>
      </trkpt>
      <trkpt lat="43.74794" lon="6.78801">
        <ele>1564.163721</ele>
        <time>2024-12-06T11:03:41.000Z</time>
      </trkpt>
      <trkpt lat="43.74795" lon="6.78799">
        <ele>1564.505845</ele>
        <time>2024-12-06T11:03:42.000Z</time>
      </trkpt>
      <trkpt lat="43.74795" lon="6.78797">
        <ele>1564.828523</ele>
        <time>2024-12-06T11:03:43.000Z</time>
      </trkpt>
      <trkpt lat="43.74795" lon="6.78795">
        <ele>1565.17984</ele>
        <time>2024-12-06T11:03:44.000Z</time>
      </trkpt>
      <trkpt lat="43.74795" lon="6.78792">
        <ele>1565.517128</ele>
        <time>2024-12-06T11:03:45.000Z</time>
      </trkpt>
      <trkpt lat="43.74794" lon="6.7879">
        <ele>1565.863427</ele>
        <time>2024-12-06T11:03:46.000Z</time>
      </trkpt>
      <trkpt lat="43.74794" lon="6.78788">
        <ele>1566.219965</ele>
        <time>2024-12-06T11:03:47.000Z</time>
      </trkpt>
      <trkpt lat="43.74794" lon="6.78785">
        <ele>1566.527368</ele>
        <time>2024-12-06T11:03:48.000Z</time>
      </trkpt>
      <trkpt lat="43.74794" lon="6.78783">
        <ele>1566.864047</ele>
        <time>2024-12-06T11:03:49.000Z</time>
      </trkpt>
      <trkpt lat="43.74794" lon="6.78781">
        <ele>1567.210346</ele>
        <time>2024-12-06T11:03:50.000Z</time>
      </trkpt>
      <trkpt lat="43.74793" lon="6.78779">
        <ele>1567.520408</ele>
        <time>2024-12-06T11:03:51.000Z</time>
      </trkpt>
      <trkpt lat="43.74793" lon="6.78777">
        <ele>1567.828478</ele>
        <time>2024-12-06T11:03:52.000Z</time>
      </trkpt>
      <trkpt lat="43.74793" lon="6.78774">
        <ele>1568.170602</ele>
        <time>2024-12-06T11:03:53.000Z</time>
      </trkpt>
      <trkpt lat="43.74793" lon="6.78772">
        <ele>1568.531148</ele>
        <time>2024-12-06T11:03:54.000Z</time>
      </trkpt>
      <trkpt lat="43.74792" lon="6.7877">
        <ele>1568.877447</ele>
        <time>2024-12-06T11:03:55.000Z</time>
      </trkpt>
      <trkpt lat="43.74792" lon="6.78767">
        <ele>1569.243963</ele>
        <time>2024-12-06T11:03:56.000Z</time>
      </trkpt>
      <trkpt lat="43.74792" lon="6.78765">
        <ele>1569.629382</ele>
        <time>2024-12-06T11:03:57.000Z</time>
      </trkpt>
      <trkpt lat="43.74792" lon="6.78762">
        <ele>1569.96667</ele>
        <time>2024-12-06T11:03:58.000Z</time>
      </trkpt>
      <trkpt lat="43.74792" lon="6.7876">
        <ele>1570.288711</ele>
        <time>2024-12-06T11:03:59.000Z</time>
      </trkpt>
      <trkpt lat="43.74792" lon="6.78758">
        <ele>1570.627821</ele>
        <time>2024-12-06T11:04:00.000Z</time>
      </trkpt>
      <trkpt lat="43.74792" lon="6.78755">
        <ele>1570.994337</ele>
        <time>2024-12-06T11:04:01.000Z</time>
      </trkpt>
      <trkpt lat="43.74792" lon="6.78753">
        <ele>1571.312247</ele>
        <time>2024-12-06T11:04:02.000Z</time>
      </trkpt>
      <trkpt lat="43.74791" lon="6.78751">
        <ele>1571.607803</ele>
        <time>2024-12-06T11:04:03.000Z</time>
      </trkpt>
      <trkpt lat="43.74791" lon="6.78749">
        <ele>1571.988936</ele>
        <time>2024-12-06T11:04:04.000Z</time>
      </trkpt>
      <trkpt lat="43.74791" lon="6.78746">
        <ele>1572.313517</ele>
        <time>2024-12-06T11:04:05.000Z</time>
      </trkpt>
      <trkpt lat="43.74791" lon="6.78744">
        <ele>1572.626874</ele>
        <time>2024-12-06T11:04:06.000Z</time>
      </trkpt>
      <trkpt lat="43.7479" lon="6.78742">
        <ele>1572.973172</ele>
        <time>2024-12-06T11:04:07.000Z</time>
      </trkpt>
      <trkpt lat="43.7479" lon="6.7874">
        <ele>1573.333719</ele>
        <time>2024-12-06T11:04:08.000Z</time>
      </trkpt>
      <trkpt lat="43.7479" lon="6.78737">
        <ele>1573.665804</ele>
        <time>2024-12-06T11:04:09.000Z</time>
      </trkpt>
      <trkpt lat="43.74789" lon="6.78735">
        <ele>1573.961361</ele>
        <time>2024-12-06T11:04:10.000Z</time>
      </trkpt>
      <trkpt lat="43.74789" lon="6.78733">
        <ele>1574.27927</ele>
        <time>2024-12-06T11:04:11.000Z</time>
      </trkpt>
      <trkpt lat="43.74789" lon="6.78731">
        <ele>1574.682728</ele>
        <time>2024-12-06T11:04:12.000Z</time>
      </trkpt>
      <trkpt lat="43.74788" lon="6.78728">
        <ele>1575.057553</ele>
        <time>2024-12-06T11:04:13.000Z</time>
      </trkpt>
      <trkpt lat="43.74788" lon="6.78726">
        <ele>1575.364956</ele>
        <time>2024-12-06T11:04:14.000Z</time>
      </trkpt>
      <trkpt lat="43.74788" lon="6.78724">
        <ele>1575.702245</ele>
        <time>2024-12-06T11:04:15.000Z</time>
      </trkpt>
      <trkpt lat="43.74788" lon="6.78721">
        <ele>1576.060205</ele>
        <time>2024-12-06T11:04:16.000Z</time>
      </trkpt>
      <trkpt lat="43.74787" lon="6.78719">
        <ele>1576.39229</ele>
        <time>2024-12-06T11:04:17.000Z</time>
      </trkpt>
      <trkpt lat="43.74787" lon="6.78717">
        <ele>1576.738589</ele>
        <time>2024-12-06T11:04:18.000Z</time>
      </trkpt>
      <trkpt lat="43.74786" lon="6.78714">
        <ele>1577.113414</ele>
        <time>2024-12-06T11:04:19.000Z</time>
      </trkpt>
      <trkpt lat="43.74786" lon="6.78712">
        <ele>1577.431323</ele>
        <time>2024-12-06T11:04:20.000Z</time>
      </trkpt>
      <trkpt lat="43.74785" lon="6.7871">
        <ele>1577.803084</ele>
        <time>2024-12-06T11:04:21.000Z</time>
      </trkpt>
      <trkpt lat="43.74785" lon="6.78707">
        <ele>1578.196934</ele>
        <time>2024-12-06T11:04:22.000Z</time>
      </trkpt>
      <trkpt lat="43.74784" lon="6.78705">
        <ele>1578.496177</ele>
        <time>2024-12-06T11:04:23.000Z</time>
      </trkpt>
      <trkpt lat="43.74783" lon="6.78703">
        <ele>1578.821495</ele>
        <time>2024-12-06T11:04:24.000Z</time>
      </trkpt>
      <trkpt lat="43.74783" lon="6.78701">
        <ele>1579.187131</ele>
        <time>2024-12-06T11:04:25.000Z</time>
      </trkpt>
      <trkpt lat="43.74783" lon="6.78699">
        <ele>1579.547678</ele>
        <time>2024-12-06T11:04:26.000Z</time>
      </trkpt>
      <trkpt lat="43.74782" lon="6.78696">
        <ele>1579.908225</ele>
        <time>2024-12-06T11:04:27.000Z</time>
      </trkpt>
      <trkpt lat="43.74782" lon="6.78694">
        <ele>1580.238799</ele>
        <time>2024-12-06T11:04:28.000Z</time>
      </trkpt>
      <trkpt lat="43.74781" lon="6.78692">
        <ele>1580.583027</ele>
        <time>2024-12-06T11:04:29.000Z</time>
      </trkpt>
      <trkpt lat="43.7478" lon="6.7869">
        <ele>1580.934923</ele>
        <time>2024-12-06T11:04:30.000Z</time>
      </trkpt>
      <trkpt lat="43.7478" lon="6.78688">
        <ele>1581.21722</ele>
        <time>2024-12-06T11:04:31.000Z</time>
      </trkpt>
      <trkpt lat="43.74779" lon="6.78686">
        <ele>1581.499517</ele>
        <time>2024-12-06T11:04:32.000Z</time>
      </trkpt>
      <trkpt lat="43.74779" lon="6.78685">
        <ele>1581.74134</ele>
        <time>2024-12-06T11:04:33.000Z</time>
      </trkpt>
      <trkpt lat="43.74778" lon="6.78683">
        <ele>1582.054225</ele>
        <time>2024-12-06T11:04:34.000Z</time>
      </trkpt>
      <trkpt lat="43.74777" lon="6.78682">
        <ele>1582.377551</ele>
        <time>2024-12-06T11:04:35.000Z</time>
      </trkpt>
      <trkpt lat="43.74775" lon="6.7868">
        <ele>1582.711633</ele>
        <time>2024-12-06T11:04:36.000Z</time>
      </trkpt>
      <trkpt lat="43.74775" lon="6.78678">
        <ele>1583.020997</ele>
        <time>2024-12-06T11:04:37.000Z</time>
      </trkpt>
      <trkpt lat="43.74774" lon="6.78676">
        <ele>1583.324776</ele>
        <time>2024-12-06T11:04:38.000Z</time>
      </trkpt>
      <trkpt lat="43.74774" lon="6.78674">
        <ele>1583.618241</ele>
        <time>2024-12-06T11:04:39.000Z</time>
      </trkpt>
      <trkpt lat="43.74774" lon="6.78672">
        <ele>1583.899306</ele>
        <time>2024-12-06T11:04:40.000Z</time>
      </trkpt>
      <trkpt lat="43.74774" lon="6.7867">
        <ele>1584.14898</ele>
        <time>2024-12-06T11:04:41.000Z</time>
      </trkpt>
      <trkpt lat="43.74774" lon="6.78669">
        <ele>1584.399968</ele>
        <time>2024-12-06T11:04:42.000Z</time>
      </trkpt>
      <trkpt lat="43.74773" lon="6.78668">
        <ele>1584.661269</ele>
        <time>2024-12-06T11:04:43.000Z</time>
      </trkpt>
      <trkpt lat="43.74772" lon="6.78666">
        <ele>1584.977892</ele>
        <time>2024-12-06T11:04:44.000Z</time>
      </trkpt>
      <trkpt lat="43.7477" lon="6.78665">
        <ele>1585.315259</ele>
        <time>2024-12-06T11:04:45.000Z</time>
      </trkpt>
      <trkpt lat="43.74768" lon="6.78665">
        <ele>1585.655284</ele>
        <time>2024-12-06T11:04:46.000Z</time>
      </trkpt>
      <trkpt lat="43.74767" lon="6.78664">
        <ele>1585.976046</ele>
        <time>2024-12-06T11:04:47.000Z</time>
      </trkpt>
      <trkpt lat="43.74766" lon="6.78663">
        <ele>1586.26769</ele>
        <time>2024-12-06T11:04:48.000Z</time>
      </trkpt>
      <trkpt lat="43.74765" lon="6.78661">
        <ele>1586.59532</ele>
        <time>2024-12-06T11:04:49.000Z</time>
      </trkpt>
      <trkpt lat="43.74764" lon="6.78659">
        <ele>1586.939437</ele>
        <time>2024-12-06T11:04:50.000Z</time>
      </trkpt>
      <trkpt lat="43.74762" lon="6.78657">
        <ele>1587.3074</ele>
        <time>2024-12-06T11:04:51.000Z</time>
      </trkpt>
      <trkpt lat="43.74761" lon="6.78655">
        <ele>1587.723459</ele>
        <time>2024-12-06T11:04:52.000Z</time>
      </trkpt>
      <trkpt lat="43.7476" lon="6.78653">
        <ele>1588.056047</ele>
        <time>2024-12-06T11:04:53.000Z</time>
      </trkpt>
      <trkpt lat="43.7476" lon="6.78651">
        <ele>1588.352055</ele>
        <time>2024-12-06T11:04:54.000Z</time>
      </trkpt>
      <trkpt lat="43.74759" lon="6.78649">
        <ele>1588.665412</ele>
        <time>2024-12-06T11:04:55.000Z</time>
      </trkpt>
      <trkpt lat="43.74759" lon="6.78647">
        <ele>1589.003017</ele>
        <time>2024-12-06T11:04:56.000Z</time>
      </trkpt>
      <trkpt lat="43.74759" lon="6.78645">
        <ele>1589.3276</ele>
        <time>2024-12-06T11:04:57.000Z</time>
      </trkpt>
      <trkpt lat="43.74759" lon="6.78643">
        <ele>1589.577275</ele>
        <time>2024-12-06T11:04:58.000Z</time>
      </trkpt>
      <trkpt lat="43.74759" lon="6.78641">
        <ele>1589.914566</ele>
        <time>2024-12-06T11:04:59.000Z</time>
      </trkpt>
      <trkpt lat="43.74759" lon="6.78639">
        <ele>1590.22463</ele>
        <time>2024-12-06T11:05:00.000Z</time>
      </trkpt>
      <trkpt lat="43.74759" lon="6.78637">
        <ele>1590.534432</ele>
        <time>2024-12-06T11:05:01.000Z</time>
      </trkpt>
      <trkpt lat="43.7476" lon="6.78635">
        <ele>1590.88633</ele>
        <time>2024-12-06T11:05:02.000Z</time>
      </trkpt>
      <trkpt lat="43.74761" lon="6.78633">
        <ele>1591.176517</ele>
        <time>2024-12-06T11:05:03.000Z</time>
      </trkpt>
      <trkpt lat="43.74761" lon="6.78631">
        <ele>1591.480297</ele>
        <time>2024-12-06T11:05:04.000Z</time>
      </trkpt>
      <trkpt lat="43.74762" lon="6.78629">
        <ele>1591.817901</ele>
        <time>2024-12-06T11:05:05.000Z</time>
      </trkpt>
      <trkpt lat="43.74762" lon="6.78626">
        <ele>1592.169497</ele>
        <time>2024-12-06T11:05:06.000Z</time>
      </trkpt>
      <trkpt lat="43.74762" lon="6.78624">
        <ele>1592.454191</ele>
        <time>2024-12-06T11:05:07.000Z</time>
      </trkpt>
      <trkpt lat="43.74763" lon="6.78623">
        <ele>1592.743889</ele>
        <time>2024-12-06T11:05:08.000Z</time>
      </trkpt>
      <trkpt lat="43.74763" lon="6.78621">
        <ele>1593.000057</ele>
        <time>2024-12-06T11:05:09.000Z</time>
      </trkpt>
      <trkpt lat="43.74764" lon="6.78619">
        <ele>1593.296065</ele>
        <time>2024-12-06T11:05:10.000Z</time>
      </trkpt>
      <trkpt lat="43.74764" lon="6.78616">
        <ele>1593.68855</ele>
        <time>2024-12-06T11:05:11.000Z</time>
      </trkpt>
      <trkpt lat="43.74765" lon="6.78614">
        <ele>1594.030676</ele>
        <time>2024-12-06T11:05:12.000Z</time>
      </trkpt>
      <trkpt lat="43.74765" lon="6.78612">
        <ele>1594.355258</ele>
        <time>2024-12-06T11:05:13.000Z</time>
      </trkpt>
      <trkpt lat="43.74765" lon="6.7861">
        <ele>1594.697383</ele>
        <time>2024-12-06T11:05:14.000Z</time>
      </trkpt>
      <trkpt lat="43.74766" lon="6.78607">
        <ele>1595.043683</ele>
        <time>2024-12-06T11:05:15.000Z</time>
      </trkpt>
      <trkpt lat="43.74766" lon="6.78605">
        <ele>1595.152509</ele>
        <time>2024-12-06T11:05:16.000Z</time>
      </trkpt>
      <trkpt lat="43.74767" lon="6.78603">
        <ele>1595.220688</ele>
        <time>2024-12-06T11:05:17.000Z</time>
      </trkpt>
      <trkpt lat="43.74768" lon="6.78601">
        <ele>1595.285526</ele>
        <time>2024-12-06T11:05:18.000Z</time>
      </trkpt>
      <trkpt lat="43.74768" lon="6.78599">
        <ele>1595.341022</ele>
        <time>2024-12-06T11:05:19.000Z</time>
      </trkpt>
      <trkpt lat="43.74769" lon="6.78597">
        <ele>1595.402442</ele>
        <time>2024-12-06T11:05:20.000Z</time>
      </trkpt>
      <trkpt lat="43.74769" lon="6.78595">
        <ele>1595.460374</ele>
        <time>2024-12-06T11:05:21.000Z</time>
      </trkpt>
      <trkpt lat="43.74769" lon="6.78593">
        <ele>1595.525605</ele>
        <time>2024-12-06T11:05:22.000Z</time>
      </trkpt>
      <trkpt lat="43.74769" lon="6.78591">
        <ele>1595.593785</ele>
        <time>2024-12-06T11:05:23.000Z</time>
      </trkpt>
      <trkpt lat="43.74769" lon="6.78588">
        <ele>1595.665122</ele>
        <time>2024-12-06T11:05:24.000Z</time>
      </trkpt>
      <trkpt lat="43.74769" lon="6.78586">
        <ele>1595.736458</ele>
        <time>2024-12-06T11:05:25.000Z</time>
      </trkpt>
      <trkpt lat="43.74769" lon="6.78583">
        <ele>1595.808333</ele>
        <time>2024-12-06T11:05:26.000Z</time>
      </trkpt>
      <trkpt lat="43.7477" lon="6.78581">
        <ele>1595.880361</ele>
        <time>2024-12-06T11:05:27.000Z</time>
      </trkpt>
      <trkpt lat="43.7477" lon="6.78578">
        <ele>1595.955075</ele>
        <time>2024-12-06T11:05:28.000Z</time>
      </trkpt>
      <trkpt lat="43.74771" lon="6.78576">
        <ele>1596.025916</ele>
        <time>2024-12-06T11:05:29.000Z</time>
      </trkpt>
      <trkpt lat="43.74771" lon="6.78573">
        <ele>1596.095771</ele>
        <time>2024-12-06T11:05:30.000Z</time>
      </trkpt>
      <trkpt lat="43.74772" lon="6.78571">
        <ele>1596.163891</ele>
        <time>2024-12-06T11:05:31.000Z</time>
      </trkpt>
      <trkpt lat="43.74772" lon="6.78569">
        <ele>1596.235919</ele>
        <time>2024-12-06T11:05:32.000Z</time>
      </trkpt>
      <trkpt lat="43.74773" lon="6.78566">
        <ele>1596.307794</ele>
        <time>2024-12-06T11:05:33.000Z</time>
      </trkpt>
      <trkpt lat="43.74773" lon="6.78564">
        <ele>1596.37913</ele>
        <time>2024-12-06T11:05:34.000Z</time>
      </trkpt>
      <trkpt lat="43.74773" lon="6.78561">
        <ele>1596.447251</ele>
        <time>2024-12-06T11:05:35.000Z</time>
      </trkpt>
      <trkpt lat="43.74774" lon="6.78559">
        <ele>1596.518034</ele>
        <time>2024-12-06T11:05:36.000Z</time>
      </trkpt>
      <trkpt lat="43.74775" lon="6.78557">
        <ele>1596.595583</ele>
        <time>2024-12-06T11:05:37.000Z</time>
      </trkpt>
      <trkpt lat="43.74776" lon="6.78554">
        <ele>1596.667981</ele>
        <time>2024-12-06T11:05:38.000Z</time>
      </trkpt>
      <trkpt lat="43.74777" lon="6.78552">
        <ele>1596.746559</ele>
        <time>2024-12-06T11:05:39.000Z</time>
      </trkpt>
      <trkpt lat="43.74778" lon="6.7855">
        <ele>1596.822498</ele>
        <time>2024-12-06T11:05:40.000Z</time>
      </trkpt>
      <trkpt lat="43.74779" lon="6.78548">
        <ele>1596.884111</ele>
        <time>2024-12-06T11:05:41.000Z</time>
      </trkpt>
      <trkpt lat="43.7478" lon="6.78547">
        <ele>1596.948838</ele>
        <time>2024-12-06T11:05:42.000Z</time>
      </trkpt>
      <trkpt lat="43.74781" lon="6.78545">
        <ele>1597.016171</ele>
        <time>2024-12-06T11:05:43.000Z</time>
      </trkpt>
      <trkpt lat="43.74781" lon="6.78542">
        <ele>1597.075859</ele>
        <time>2024-12-06T11:05:44.000Z</time>
      </trkpt>
      <trkpt lat="43.74781" lon="6.7854">
        <ele>1597.139355</ele>
        <time>2024-12-06T11:05:45.000Z</time>
      </trkpt>
      <trkpt lat="43.7478" lon="6.78538">
        <ele>1597.20921</ele>
        <time>2024-12-06T11:05:46.000Z</time>
      </trkpt>
      <trkpt lat="43.7478" lon="6.78536">
        <ele>1597.281608</ele>
        <time>2024-12-06T11:05:47.000Z</time>
      </trkpt>
      <trkpt lat="43.74779" lon="6.78533">
        <ele>1597.357651</ele>
        <time>2024-12-06T11:05:48.000Z</time>
      </trkpt>
      <trkpt lat="43.74778" lon="6.78531">
        <ele>1597.426902</ele>
        <time>2024-12-06T11:05:49.000Z</time>
      </trkpt>
      <trkpt lat="43.74777" lon="6.7853">
        <ele>1597.489865</ele>
        <time>2024-12-06T11:05:50.000Z</time>
      </trkpt>
      <trkpt lat="43.74775" lon="6.78529">
        <ele>1597.542149</ele>
        <time>2024-12-06T11:05:51.000Z</time>
      </trkpt>
      <trkpt lat="43.74775" lon="6.7853">
        <ele>1597.580222</ele>
        <time>2024-12-06T11:05:52.000Z</time>
      </trkpt>
      <trkpt lat="43.74774" lon="6.78531">
        <ele>1597.617704</ele>
        <time>2024-12-06T11:05:53.000Z</time>
      </trkpt>
      <trkpt lat="43.74774" lon="6.78532">
        <ele>1597.656409</ele>
        <time>2024-12-06T11:05:54.000Z</time>
      </trkpt>
      <trkpt lat="43.74773" lon="6.78534">
        <ele>1597.704698</ele>
        <time>2024-12-06T11:05:55.000Z</time>
      </trkpt>
      <trkpt lat="43.74773" lon="6.78536">
        <ele>1597.776726</ele>
        <time>2024-12-06T11:05:56.000Z</time>
      </trkpt>
      <trkpt lat="43.74772" lon="6.78539">
        <ele>1597.858528</ele>
        <time>2024-12-06T11:05:57.000Z</time>
      </trkpt>
      <trkpt lat="43.74772" lon="6.78542">
        <ele>1597.946797</ele>
        <time>2024-12-06T11:05:59.000Z</time>
      </trkpt>
      <trkpt lat="43.74773" lon="6.78543">
        <ele>1597.975857</ele>
        <time>2024-12-06T11:06:00.000Z</time>
      </trkpt>
      <trkpt lat="43.74774" lon="6.78543">
        <ele>1598.005589</ele>
        <time>2024-12-06T11:06:01.000Z</time>
      </trkpt>
      <trkpt lat="43.74775" lon="6.78544">
        <ele>1598.058865</ele>
        <time>2024-12-06T11:06:02.000Z</time>
      </trkpt>
      <trkpt lat="43.74776" lon="6.78545">
        <ele>1598.108065</ele>
        <time>2024-12-06T11:06:03.000Z</time>
      </trkpt>
      <trkpt lat="43.74777" lon="6.78544">
        <ele>1598.163321</ele>
        <time>2024-12-06T11:06:04.000Z</time>
      </trkpt>
      <trkpt lat="43.74779" lon="6.78543">
        <ele>1598.224666</ele>
        <time>2024-12-06T11:06:05.000Z</time>
      </trkpt>
      <trkpt lat="43.74782" lon="6.78534">
        <ele>1598.530761</ele>
        <time>2024-12-06T11:06:09.000Z</time>
      </trkpt>
      <trkpt lat="43.74783" lon="6.78531">
        <ele>1598.61808</ele>
        <time>2024-12-06T11:06:10.000Z</time>
      </trkpt>
      <trkpt lat="43.74783" lon="6.78527">
        <ele>1598.714591</ele>
        <time>2024-12-06T11:06:11.000Z</time>
      </trkpt>
      <trkpt lat="43.74784" lon="6.78524">
        <ele>1598.800145</ele>
        <time>2024-12-06T11:06:12.000Z</time>
      </trkpt>
      <trkpt lat="43.74788" lon="6.78507">
        <ele>1599.319218</ele>
        <time>2024-12-06T11:06:18.000Z</time>
      </trkpt>
      <trkpt lat="43.74789" lon="6.78504">
        <ele>1599.410239</ele>
        <time>2024-12-06T11:06:19.000Z</time>
      </trkpt>
      <trkpt lat="43.74789" lon="6.78501">
        <ele>1599.501259</ele>
        <time>2024-12-06T11:06:20.000Z</time>
      </trkpt>
      <trkpt lat="43.7479" lon="6.78497">
        <ele>1599.602674</ele>
        <time>2024-12-06T11:06:21.000Z</time>
      </trkpt>
      <trkpt lat="43.74791" lon="6.78494">
        <ele>1599.701937</ele>
        <time>2024-12-06T11:06:22.000Z</time>
      </trkpt>
      <trkpt lat="43.74791" lon="6.7849">
        <ele>1599.809485</ele>
        <time>2024-12-06T11:06:23.000Z</time>
      </trkpt>
      <trkpt lat="43.74792" lon="6.78487">
        <ele>1599.902339</ele>
        <time>2024-12-06T11:06:24.000Z</time>
      </trkpt>
      <trkpt lat="43.74792" lon="6.78484">
        <ele>1599.991751</ele>
        <time>2024-12-06T11:06:25.000Z</time>
      </trkpt>
      <trkpt lat="43.74793" lon="6.78481">
        <ele>1600.071867</ele>
        <time>2024-12-06T11:06:26.000Z</time>
      </trkpt>
      <trkpt lat="43.74793" lon="6.78479">
        <ele>1600.154953</ele>
        <time>2024-12-06T11:06:27.000Z</time>
      </trkpt>
      <trkpt lat="43.74794" lon="6.78476">
        <ele>1600.229667</ele>
        <time>2024-12-06T11:06:28.000Z</time>
      </trkpt>
      <trkpt lat="43.74794" lon="6.78474">
        <ele>1600.296761</ele>
        <time>2024-12-06T11:06:29.000Z</time>
      </trkpt>
      <trkpt lat="43.74795" lon="6.78471">
        <ele>1600.371435</ele>
        <time>2024-12-06T11:06:30.000Z</time>
      </trkpt>
      <trkpt lat="43.74795" lon="6.78468">
        <ele>1600.454266</ele>
        <time>2024-12-06T11:06:31.000Z</time>
      </trkpt>
      <trkpt lat="43.74796" lon="6.78465">
        <ele>1600.541585</ele>
        <time>2024-12-06T11:06:32.000Z</time>
      </trkpt>
      <trkpt lat="43.74796" lon="6.78462">
        <ele>1600.628105</ele>
        <time>2024-12-06T11:06:33.000Z</time>
      </trkpt>
      <trkpt lat="43.74797" lon="6.78459">
        <ele>1600.717416</ele>
        <time>2024-12-06T11:06:34.000Z</time>
      </trkpt>
      <trkpt lat="43.74797" lon="6.78456">
        <ele>1600.813044</ele>
        <time>2024-12-06T11:06:35.000Z</time>
      </trkpt>
      <trkpt lat="43.74798" lon="6.78453">
        <ele>1600.906807</ele>
        <time>2024-12-06T11:06:36.000Z</time>
      </trkpt>
      <trkpt lat="43.74798" lon="6.7845">
        <ele>1600.996891</ele>
        <time>2024-12-06T11:06:37.000Z</time>
      </trkpt>
      <trkpt lat="43.74799" lon="6.78446">
        <ele>1601.090654</ele>
        <time>2024-12-06T11:06:38.000Z</time>
      </trkpt>
      <trkpt lat="43.74799" lon="6.78443">
        <ele>1601.181675</ele>
        <time>2024-12-06T11:06:39.000Z</time>
      </trkpt>
      <trkpt lat="43.748" lon="6.7844">
        <ele>1601.267229</ele>
        <time>2024-12-06T11:06:40.000Z</time>
      </trkpt>
      <trkpt lat="43.74801" lon="6.78437">
        <ele>1601.35664</ele>
        <time>2024-12-06T11:06:41.000Z</time>
      </trkpt>
      <trkpt lat="43.74801" lon="6.78434">
        <ele>1601.452268</ele>
        <time>2024-12-06T11:06:42.000Z</time>
      </trkpt>
      <trkpt lat="43.74802" lon="6.78431">
        <ele>1601.547094</ele>
        <time>2024-12-06T11:06:43.000Z</time>
      </trkpt>
      <trkpt lat="43.74803" lon="6.78428">
        <ele>1601.641848</ele>
        <time>2024-12-06T11:06:44.000Z</time>
      </trkpt>
      <trkpt lat="43.74803" lon="6.78424">
        <ele>1601.744846</ele>
        <time>2024-12-06T11:06:45.000Z</time>
      </trkpt>
      <trkpt lat="43.74806" lon="6.7841">
        <ele>1602.147696</ele>
        <time>2024-12-06T11:06:49.000Z</time>
      </trkpt>
      <trkpt lat="43.74808" lon="6.78399">
        <ele>1601.729821</ele>
        <time>2024-12-06T11:06:52.000Z</time>
      </trkpt>
      <trkpt lat="43.7481" lon="6.78387">
        <ele>1601.282867</ele>
        <time>2024-12-06T11:06:55.000Z</time>
      </trkpt>
      <trkpt lat="43.74811" lon="6.7838">
        <ele>1600.988175</ele>
        <time>2024-12-06T11:06:57.000Z</time>
      </trkpt>
      <trkpt lat="43.74812" lon="6.78376">
        <ele>1600.843215</ele>
        <time>2024-12-06T11:06:58.000Z</time>
      </trkpt>
      <trkpt lat="43.74813" lon="6.78368">
        <ele>1600.553194</ele>
        <time>2024-12-06T11:07:00.000Z</time>
      </trkpt>
      <trkpt lat="43.74815" lon="6.78354">
        <ele>1600.004972</ele>
        <time>2024-12-06T11:07:04.000Z</time>
      </trkpt>
      <trkpt lat="43.74815" lon="6.7835">
        <ele>1599.86298</ele>
        <time>2024-12-06T11:07:05.000Z</time>
      </trkpt>
      <trkpt lat="43.74815" lon="6.78346">
        <ele>1599.723555</ele>
        <time>2024-12-06T11:07:06.000Z</time>
      </trkpt>
      <trkpt lat="43.74816" lon="6.78343">
        <ele>1599.591496</ele>
        <time>2024-12-06T11:07:07.000Z</time>
      </trkpt>
      <trkpt lat="43.74816" lon="6.78339">
        <ele>1599.460145</ele>
        <time>2024-12-06T11:07:08.000Z</time>
      </trkpt>
      <trkpt lat="43.74816" lon="6.78336">
        <ele>1599.325883</ele>
        <time>2024-12-06T11:07:09.000Z</time>
      </trkpt>
      <trkpt lat="43.74816" lon="6.78332">
        <ele>1599.198755</ele>
        <time>2024-12-06T11:07:10.000Z</time>
      </trkpt>
      <trkpt lat="43.74816" lon="6.78329">
        <ele>1599.064493</ele>
        <time>2024-12-06T11:07:11.000Z</time>
      </trkpt>
      <trkpt lat="43.74816" lon="6.78322">
        <ele>1598.80714</ele>
        <time>2024-12-06T11:07:13.000Z</time>
      </trkpt>
      <trkpt lat="43.74817" lon="6.78319">
        <ele>1598.696029</ele>
        <time>2024-12-06T11:07:14.000Z</time>
      </trkpt>
      <trkpt lat="43.74817" lon="6.78316">
        <ele>1598.587186</ele>
        <time>2024-12-06T11:07:15.000Z</time>
      </trkpt>
      <trkpt lat="43.74818" lon="6.78309">
        <ele>1598.305971</ele>
        <time>2024-12-06T11:07:18.000Z</time>
      </trkpt>
      <trkpt lat="43.74818" lon="6.78307">
        <ele>1598.242617</ele>
        <time>2024-12-06T11:07:19.000Z</time>
      </trkpt>
      <trkpt lat="43.74818" lon="6.78307">
        <ele>1598.22771</ele>
        <time>2024-12-06T11:07:21.000Z</time>
      </trkpt>
      <trkpt lat="43.74817" lon="6.78305">
        <ele>1598.151339</ele>
        <time>2024-12-06T11:07:27.000Z</time>
      </trkpt>
      <trkpt lat="43.74813" lon="6.78298">
        <ele>1597.825009</ele>
        <time>2024-12-06T11:07:30.000Z</time>
      </trkpt>
      <trkpt lat="43.74812" lon="6.78295">
        <ele>1597.686555</ele>
        <time>2024-12-06T11:07:31.000Z</time>
      </trkpt>
      <trkpt lat="43.74811" lon="6.78288">
        <ele>1597.421583</ele>
        <time>2024-12-06T11:07:33.000Z</time>
      </trkpt>
      <trkpt lat="43.74811" lon="6.78284">
        <ele>1597.293205</ele>
        <time>2024-12-06T11:07:34.000Z</time>
      </trkpt>
      <trkpt lat="43.74811" lon="6.78281">
        <ele>1597.16639</ele>
        <time>2024-12-06T11:07:35.000Z</time>
      </trkpt>
      <trkpt lat="43.74811" lon="6.78274">
        <ele>1596.922182</ele>
        <time>2024-12-06T11:07:37.000Z</time>
      </trkpt>
      <trkpt lat="43.74813" lon="6.78268">
        <ele>1596.683653</ele>
        <time>2024-12-06T11:07:39.000Z</time>
      </trkpt>
      <trkpt lat="43.74813" lon="6.78266">
        <ele>1596.606314</ele>
        <time>2024-12-06T11:07:40.000Z</time>
      </trkpt>
      <trkpt lat="43.74813" lon="6.78265">
        <ele>1596.572379</ele>
        <time>2024-12-06T11:07:41.000Z</time>
      </trkpt>
      <trkpt lat="43.74813" lon="6.78265">
        <ele>1596.572379</ele>
        <time>2024-12-06T11:07:43.000Z</time>
      </trkpt>
      <trkpt lat="43.74813" lon="6.78267">
        <ele>1596.521519</ele>
        <time>2024-12-06T11:07:45.000Z</time>
      </trkpt>
      <trkpt lat="43.74813" lon="6.78268">
        <ele>1596.468334</ele>
        <time>2024-12-06T11:07:50.000Z</time>
      </trkpt>
      <trkpt lat="43.74814" lon="6.78268">
        <ele>1596.43738</ele>
        <time>2024-12-06T11:07:57.000Z</time>
      </trkpt>
      <trkpt lat="43.74814" lon="6.78268">
        <ele>1596.422167</ele>
        <time>2024-12-06T11:07:58.000Z</time>
      </trkpt>
      <trkpt lat="43.74813" lon="6.78268">
        <ele>1596.401531</ele>
        <time>2024-12-06T11:08:05.000Z</time>
      </trkpt>
      <trkpt lat="43.74813" lon="6.7827">
        <ele>1596.348346</ele>
        <time>2024-12-06T11:08:12.000Z</time>
      </trkpt>
      <trkpt lat="43.74813" lon="6.7827">
        <ele>1596.331168</ele>
        <time>2024-12-06T11:08:19.000Z</time>
      </trkpt>
      <trkpt lat="43.74813" lon="6.7827">
        <ele>1596.331168</ele>
        <time>2024-12-06T11:08:25.000Z</time>
      </trkpt>
      <trkpt lat="43.74813" lon="6.7827">
        <ele>1596.331168</ele>
        <time>2024-12-06T11:08:26.000Z</time>
      </trkpt>
      <trkpt lat="43.74813" lon="6.7827">
        <ele>1596.331168</ele>
        <time>2024-12-06T11:08:34.000Z</time>
      </trkpt>
      <trkpt lat="43.74813" lon="6.7827">
        <ele>1596.331168</ele>
        <time>2024-12-06T11:08:40.000Z</time>
      </trkpt>
      <trkpt lat="43.74813" lon="6.7827">
        <ele>1596.294294</ele>
        <time>2024-12-06T11:08:46.000Z</time>
      </trkpt>
      <trkpt lat="43.74813" lon="6.78269">
        <ele>1596.25487</ele>
        <time>2024-12-06T11:08:48.000Z</time>
      </trkpt>
      <trkpt lat="43.74814" lon="6.78268">
        <ele>1596.197592</ele>
        <time>2024-12-06T11:08:50.000Z</time>
      </trkpt>
      <trkpt lat="43.74814" lon="6.78268">
        <ele>1596.197592</ele>
        <time>2024-12-06T11:09:00.000Z</time>
      </trkpt>
      <trkpt lat="43.74814" lon="6.78268">
        <ele>1596.197592</ele>
        <time>2024-12-06T11:09:02.000Z</time>
      </trkpt>
      <trkpt lat="43.74814" lon="6.78268">
        <ele>1596.197592</ele>
        <time>2024-12-06T11:09:03.000Z</time>
      </trkpt>
      <trkpt lat="43.74814" lon="6.78268">
        <ele>1596.197592</ele>
        <time>2024-12-06T11:09:08.000Z</time>
      </trkpt>
      <trkpt lat="43.74814" lon="6.78268">
        <ele>1596.197592</ele>
        <time>2024-12-06T11:09:10.000Z</time>
      </trkpt>
      <trkpt lat="43.74814" lon="6.78268">
        <ele>1596.197592</ele>
        <time>2024-12-06T11:09:15.000Z</time>
      </trkpt>
      <trkpt lat="43.74814" lon="6.7827">
        <ele>1596.133403</ele>
        <time>2024-12-06T11:09:30.000Z</time>
      </trkpt>
      <trkpt lat="43.74813" lon="6.78272">
        <ele>1596.040391</ele>
        <time>2024-12-06T11:09:33.000Z</time>
      </trkpt>
      <trkpt lat="43.74813" lon="6.78279">
        <ele>1595.802845</ele>
        <time>2024-12-06T11:09:36.000Z</time>
      </trkpt>
      <trkpt lat="43.74812" lon="6.78281">
        <ele>1595.734001</ele>
        <time>2024-12-06T11:09:37.000Z</time>
      </trkpt>
      <trkpt lat="43.74812" lon="6.78283">
        <ele>1595.650565</ele>
        <time>2024-12-06T11:09:38.000Z</time>
      </trkpt>
      <trkpt lat="43.74812" lon="6.78285">
        <ele>1595.569628</ele>
        <time>2024-12-06T11:09:39.000Z</time>
      </trkpt>
      <trkpt lat="43.74811" lon="6.78292">
        <ele>1595.304226</ele>
        <time>2024-12-06T11:09:42.000Z</time>
      </trkpt>
      <trkpt lat="43.74811" lon="6.78298">
        <ele>1595.087092</ele>
        <time>2024-12-06T11:09:44.000Z</time>
      </trkpt>
      <trkpt lat="43.74811" lon="6.78309">
        <ele>1594.680581</ele>
        <time>2024-12-06T11:09:48.000Z</time>
      </trkpt>
      <trkpt lat="43.74811" lon="6.78311">
        <ele>1594.583686</ele>
        <time>2024-12-06T11:09:49.000Z</time>
      </trkpt>
      <trkpt lat="43.74812" lon="6.78314">
        <ele>1594.473658</ele>
        <time>2024-12-06T11:09:50.000Z</time>
      </trkpt>
      <trkpt lat="43.74812" lon="6.78317">
        <ele>1594.360789</ele>
        <time>2024-12-06T11:09:51.000Z</time>
      </trkpt>
      <trkpt lat="43.74812" lon="6.7832">
        <ele>1594.244781</ele>
        <time>2024-12-06T11:09:52.000Z</time>
      </trkpt>
      <trkpt lat="43.74813" lon="6.78323">
        <ele>1594.120271</ele>
        <time>2024-12-06T11:09:53.000Z</time>
      </trkpt>
      <trkpt lat="43.74814" lon="6.78326">
        <ele>1594.006321</ele>
        <time>2024-12-06T11:09:54.000Z</time>
      </trkpt>
      <trkpt lat="43.74815" lon="6.78329">
        <ele>1593.8939</ele>
        <time>2024-12-06T11:09:55.000Z</time>
      </trkpt>
      <trkpt lat="43.74815" lon="6.78332">
        <ele>1593.769296</ele>
        <time>2024-12-06T11:09:56.000Z</time>
      </trkpt>
      <trkpt lat="43.74816" lon="6.78335">
        <ele>1593.658479</ele>
        <time>2024-12-06T11:09:57.000Z</time>
      </trkpt>
      <trkpt lat="43.74817" lon="6.78338">
        <ele>1593.546188</ele>
        <time>2024-12-06T11:09:58.000Z</time>
      </trkpt>
      <trkpt lat="43.74818" lon="6.7834">
        <ele>1593.440263</ele>
        <time>2024-12-06T11:09:59.000Z</time>
      </trkpt>
      <trkpt lat="43.7482" lon="6.78342">
        <ele>1593.340476</ele>
        <time>2024-12-06T11:10:00.000Z</time>
      </trkpt>
      <trkpt lat="43.74821" lon="6.78344">
        <ele>1593.237409</ele>
        <time>2024-12-06T11:10:01.000Z</time>
      </trkpt>
      <trkpt lat="43.74824" lon="6.78348">
        <ele>1593.015963</ele>
        <time>2024-12-06T11:10:03.000Z</time>
      </trkpt>
      <trkpt lat="43.74826" lon="6.78349">
        <ele>1592.903123</ele>
        <time>2024-12-06T11:10:04.000Z</time>
      </trkpt>
      <trkpt lat="43.74828" lon="6.7835">
        <ele>1592.827459</ele>
        <time>2024-12-06T11:10:05.000Z</time>
      </trkpt>
      <trkpt lat="43.7483" lon="6.78351">
        <ele>1592.763453</ele>
        <time>2024-12-06T11:10:06.000Z</time>
      </trkpt>
      <trkpt lat="43.74833" lon="6.78352">
        <ele>1592.625694</ele>
        <time>2024-12-06T11:10:08.000Z</time>
      </trkpt>
      <trkpt lat="43.74838" lon="6.78352">
        <ele>1592.463278</ele>
        <time>2024-12-06T11:10:10.000Z</time>
      </trkpt>
      <trkpt lat="43.74846" lon="6.78352">
        <ele>1592.163737</ele>
        <time>2024-12-06T11:10:13.000Z</time>
      </trkpt>
      <trkpt lat="43.74851" lon="6.78352">
        <ele>1591.972188</ele>
        <time>2024-12-06T11:10:15.000Z</time>
      </trkpt>
      <trkpt lat="43.74854" lon="6.78352">
        <ele>1591.881818</ele>
        <time>2024-12-06T11:10:16.000Z</time>
      </trkpt>
      <trkpt lat="43.74859" lon="6.78352">
        <ele>1591.70136</ele>
        <time>2024-12-06T11:10:18.000Z</time>
      </trkpt>
      <trkpt lat="43.74861" lon="6.78352">
        <ele>1591.618358</ele>
        <time>2024-12-06T11:10:19.000Z</time>
      </trkpt>
      <trkpt lat="43.74866" lon="6.78352">
        <ele>1591.455941</ele>
        <time>2024-12-06T11:10:21.000Z</time>
      </trkpt>
      <trkpt lat="43.74868" lon="6.78351">
        <ele>1591.376377</ele>
        <time>2024-12-06T11:10:22.000Z</time>
      </trkpt>
      <trkpt lat="43.7487" lon="6.78351">
        <ele>1591.296302</ele>
        <time>2024-12-06T11:10:23.000Z</time>
      </trkpt>
      <trkpt lat="43.74872" lon="6.7835">
        <ele>1591.21892</ele>
        <time>2024-12-06T11:10:24.000Z</time>
      </trkpt>
      <trkpt lat="43.74875" lon="6.78349">
        <ele>1591.131921</ele>
        <time>2024-12-06T11:10:25.000Z</time>
      </trkpt>
      <trkpt lat="43.74879" lon="6.78347">
        <ele>1590.963612</ele>
        <time>2024-12-06T11:10:27.000Z</time>
      </trkpt>
      <trkpt lat="43.7488" lon="6.78345">
        <ele>1590.887481</ele>
        <time>2024-12-06T11:10:28.000Z</time>
      </trkpt>
      <trkpt lat="43.74881" lon="6.78342">
        <ele>1590.806672</ele>
        <time>2024-12-06T11:10:29.000Z</time>
      </trkpt>
      <trkpt lat="43.74882" lon="6.78339">
        <ele>1590.726779</ele>
        <time>2024-12-06T11:10:30.000Z</time>
      </trkpt>
      <trkpt lat="43.74883" lon="6.78336">
        <ele>1590.650702</ele>
        <time>2024-12-06T11:10:31.000Z</time>
      </trkpt>
      <trkpt lat="43.74884" lon="6.78333">
        <ele>1590.566018</ele>
        <time>2024-12-06T11:10:32.000Z</time>
      </trkpt>
      <trkpt lat="43.74885" lon="6.78331">
        <ele>1590.483736</ele>
        <time>2024-12-06T11:10:33.000Z</time>
      </trkpt>
      <trkpt lat="43.74888" lon="6.78317">
        <ele>1590.114627</ele>
        <time>2024-12-06T11:10:37.000Z</time>
      </trkpt>
      <trkpt lat="43.74889" lon="6.78314">
        <ele>1590.011444</ele>
        <time>2024-12-06T11:10:38.000Z</time>
      </trkpt>
      <trkpt lat="43.7489" lon="6.7831">
        <ele>1589.911735</ele>
        <time>2024-12-06T11:10:39.000Z</time>
      </trkpt>
      <trkpt lat="43.74891" lon="6.78306">
        <ele>1589.812879</ele>
        <time>2024-12-06T11:10:40.000Z</time>
      </trkpt>
      <trkpt lat="43.74891" lon="6.78303">
        <ele>1589.720925</ele>
        <time>2024-12-06T11:10:41.000Z</time>
      </trkpt>
      <trkpt lat="43.74892" lon="6.78299">
        <ele>1589.627706</ele>
        <time>2024-12-06T11:10:42.000Z</time>
      </trkpt>
      <trkpt lat="43.74893" lon="6.78296">
        <ele>1589.543036</ele>
        <time>2024-12-06T11:10:43.000Z</time>
      </trkpt>
      <trkpt lat="43.74894" lon="6.78293">
        <ele>1589.449818</ele>
        <time>2024-12-06T11:10:44.000Z</time>
      </trkpt>
      <trkpt lat="43.74895" lon="6.7829">
        <ele>1589.3566</ele>
        <time>2024-12-06T11:10:45.000Z</time>
      </trkpt>
      <trkpt lat="43.74896" lon="6.78286">
        <ele>1589.259482</ele>
        <time>2024-12-06T11:10:46.000Z</time>
      </trkpt>
      <trkpt lat="43.74897" lon="6.78283">
        <ele>1589.164737</ele>
        <time>2024-12-06T11:10:47.000Z</time>
      </trkpt>
      <trkpt lat="43.74898" lon="6.7828">
        <ele>1589.06903</ele>
        <time>2024-12-06T11:10:48.000Z</time>
      </trkpt>
      <trkpt lat="43.749" lon="6.78276">
        <ele>1588.965172</ele>
        <time>2024-12-06T11:10:49.000Z</time>
      </trkpt>
      <trkpt lat="43.74901" lon="6.78273">
        <ele>1588.875135</ele>
        <time>2024-12-06T11:10:50.000Z</time>
      </trkpt>
      <trkpt lat="43.74902" lon="6.7827">
        <ele>1588.778285</ele>
        <time>2024-12-06T11:10:51.000Z</time>
      </trkpt>
      <trkpt lat="43.74902" lon="6.78267">
        <ele>1588.700562</ele>
        <time>2024-12-06T11:10:52.000Z</time>
      </trkpt>
      <trkpt lat="43.74903" lon="6.78263">
        <ele>1588.593269</ele>
        <time>2024-12-06T11:10:53.000Z</time>
      </trkpt>
      <trkpt lat="43.74904" lon="6.7826">
        <ele>1588.502377</ele>
        <time>2024-12-06T11:10:54.000Z</time>
      </trkpt>
      <trkpt lat="43.74905" lon="6.78256">
        <ele>1588.405259</ele>
        <time>2024-12-06T11:10:55.000Z</time>
      </trkpt>
      <trkpt lat="43.74906" lon="6.78253">
        <ele>1588.30595</ele>
        <time>2024-12-06T11:10:56.000Z</time>
      </trkpt>
      <trkpt lat="43.74907" lon="6.78249">
        <ele>1588.199219</ele>
        <time>2024-12-06T11:10:57.000Z</time>
      </trkpt>
      <trkpt lat="43.74908" lon="6.78244">
        <ele>1588.078635</ele>
        <time>2024-12-06T11:10:58.000Z</time>
      </trkpt>
      <trkpt lat="43.74909" lon="6.7824">
        <ele>1587.960413</ele>
        <time>2024-12-06T11:10:59.000Z</time>
      </trkpt>
      <trkpt lat="43.74911" lon="6.78236">
        <ele>1587.846882</ele>
        <time>2024-12-06T11:11:00.000Z</time>
      </trkpt>
      <trkpt lat="43.74914" lon="6.78228">
        <ele>1587.594087</ele>
        <time>2024-12-06T11:11:02.000Z</time>
      </trkpt>
      <trkpt lat="43.74916" lon="6.78224">
        <ele>1587.466778</ele>
        <time>2024-12-06T11:11:03.000Z</time>
      </trkpt>
      <trkpt lat="43.7492" lon="6.78215">
        <ele>1587.213983</ele>
        <time>2024-12-06T11:11:05.000Z</time>
      </trkpt>
      <trkpt lat="43.74928" lon="6.78196">
        <ele>1586.640225</ele>
        <time>2024-12-06T11:11:09.000Z</time>
      </trkpt>
      <trkpt lat="43.7493" lon="6.78191">
        <ele>1586.483129</ele>
        <time>2024-12-06T11:11:10.000Z</time>
      </trkpt>
      <trkpt lat="43.74932" lon="6.78186">
        <ele>1586.110984</ele>
        <time>2024-12-06T11:11:11.000Z</time>
      </trkpt>
      <trkpt lat="43.74937" lon="6.78175">
        <ele>1584.702332</ele>
        <time>2024-12-06T11:11:13.000Z</time>
      </trkpt>
      <trkpt lat="43.74942" lon="6.78163">
        <ele>1583.241968</ele>
        <time>2024-12-06T11:11:15.000Z</time>
      </trkpt>
      <trkpt lat="43.74945" lon="6.78157">
        <ele>1582.495764</ele>
        <time>2024-12-06T11:11:16.000Z</time>
      </trkpt>
      <trkpt lat="43.74948" lon="6.78151">
        <ele>1581.76043</ele>
        <time>2024-12-06T11:11:17.000Z</time>
      </trkpt>
      <trkpt lat="43.7496" lon="6.78125">
        <ele>1578.402701</ele>
        <time>2024-12-06T11:11:22.000Z</time>
      </trkpt>
      <trkpt lat="43.74962" lon="6.7812">
        <ele>1577.833425</ele>
        <time>2024-12-06T11:11:23.000Z</time>
      </trkpt>
      <trkpt lat="43.74966" lon="6.78114">
        <ele>1576.962245</ele>
        <time>2024-12-06T11:11:24.000Z</time>
      </trkpt>
      <trkpt lat="43.74974" lon="6.78098">
        <ele>1574.909534</ele>
        <time>2024-12-06T11:11:27.000Z</time>
      </trkpt>
      <trkpt lat="43.74976" lon="6.78094">
        <ele>1574.347384</ele>
        <time>2024-12-06T11:11:28.000Z</time>
      </trkpt>
      <trkpt lat="43.74978" lon="6.7809">
        <ele>1573.873014</ele>
        <time>2024-12-06T11:11:29.000Z</time>
      </trkpt>
      <trkpt lat="43.7498" lon="6.78087">
        <ele>1573.44984</ele>
        <time>2024-12-06T11:11:30.000Z</time>
      </trkpt>
      <trkpt lat="43.74981" lon="6.78084">
        <ele>1573.061587</ele>
        <time>2024-12-06T11:11:31.000Z</time>
      </trkpt>
      <trkpt lat="43.74983" lon="6.78081">
        <ele>1572.672425</ele>
        <time>2024-12-06T11:11:32.000Z</time>
      </trkpt>
      <trkpt lat="43.74994" lon="6.78058">
        <ele>1569.684129</ele>
        <time>2024-12-06T11:11:37.000Z</time>
      </trkpt>
      <trkpt lat="43.75002" lon="6.78045">
        <ele>1567.921247</ele>
        <time>2024-12-06T11:11:39.000Z</time>
      </trkpt>
      <trkpt lat="43.75005" lon="6.78038">
        <ele>1567.040752</ele>
        <time>2024-12-06T11:11:40.000Z</time>
      </trkpt>
      <trkpt lat="43.75009" lon="6.78031">
        <ele>1566.048875</ele>
        <time>2024-12-06T11:11:41.000Z</time>
      </trkpt>
      <trkpt lat="43.75019" lon="6.78013">
        <ele>1563.677065</ele>
        <time>2024-12-06T11:11:43.000Z</time>
      </trkpt>
      <trkpt lat="43.75022" lon="6.78001">
        <ele>1562.341241</ele>
        <time>2024-12-06T11:11:44.000Z</time>
      </trkpt>
      <trkpt lat="43.75026" lon="6.77991">
        <ele>1561.075581</ele>
        <time>2024-12-06T11:11:45.000Z</time>
      </trkpt>
      <trkpt lat="43.7503" lon="6.77981">
        <ele>1559.916377</ele>
        <time>2024-12-06T11:11:46.000Z</time>
      </trkpt>
      <trkpt lat="43.75034" lon="6.77974">
        <ele>1559.208593</ele>
        <time>2024-12-06T11:11:47.000Z</time>
      </trkpt>
      <trkpt lat="43.75038" lon="6.77967">
        <ele>1558.592155</ele>
        <time>2024-12-06T11:11:48.000Z</time>
      </trkpt>
      <trkpt lat="43.75041" lon="6.77962">
        <ele>1558.047337</ele>
        <time>2024-12-06T11:11:49.000Z</time>
      </trkpt>
      <trkpt lat="43.75044" lon="6.77957">
        <ele>1557.593474</ele>
        <time>2024-12-06T11:11:50.000Z</time>
      </trkpt>
      <trkpt lat="43.75047" lon="6.77954">
        <ele>1557.208091</ele>
        <time>2024-12-06T11:11:51.000Z</time>
      </trkpt>
      <trkpt lat="43.7505" lon="6.7795">
        <ele>1556.808868</ele>
        <time>2024-12-06T11:11:52.000Z</time>
      </trkpt>
      <trkpt lat="43.75053" lon="6.77947">
        <ele>1556.412927</ele>
        <time>2024-12-06T11:11:53.000Z</time>
      </trkpt>
      <trkpt lat="43.75056" lon="6.77943">
        <ele>1556.024438</ele>
        <time>2024-12-06T11:11:54.000Z</time>
      </trkpt>
      <trkpt lat="43.75074" lon="6.77922">
        <ele>1553.506046</ele>
        <time>2024-12-06T11:11:59.000Z</time>
      </trkpt>
      <trkpt lat="43.75079" lon="6.77917">
        <ele>1552.867788</ele>
        <time>2024-12-06T11:12:00.000Z</time>
      </trkpt>
      <trkpt lat="43.75089" lon="6.77908">
        <ele>1551.679699</ele>
        <time>2024-12-06T11:12:02.000Z</time>
      </trkpt>
      <trkpt lat="43.75093" lon="6.77904">
        <ele>1551.113731</ele>
        <time>2024-12-06T11:12:03.000Z</time>
      </trkpt>
      <trkpt lat="43.75098" lon="6.77901">
        <ele>1550.559443</ele>
        <time>2024-12-06T11:12:04.000Z</time>
      </trkpt>
      <trkpt lat="43.75102" lon="6.77897">
        <ele>1550.031946</ele>
        <time>2024-12-06T11:12:05.000Z</time>
      </trkpt>
      <trkpt lat="43.75106" lon="6.77894">
        <ele>1549.512239</ele>
        <time>2024-12-06T11:12:06.000Z</time>
      </trkpt>
      <trkpt lat="43.75124" lon="6.77878">
        <ele>1547.329299</ele>
        <time>2024-12-06T11:12:10.000Z</time>
      </trkpt>
      <trkpt lat="43.75129" lon="6.77873">
        <ele>1546.75379</ele>
        <time>2024-12-06T11:12:11.000Z</time>
      </trkpt>
      <trkpt lat="43.75133" lon="6.77868">
        <ele>1546.19229</ele>
        <time>2024-12-06T11:12:12.000Z</time>
      </trkpt>
      <trkpt lat="43.75137" lon="6.77863">
        <ele>1545.597469</ele>
        <time>2024-12-06T11:12:13.000Z</time>
      </trkpt>
      <trkpt lat="43.75141" lon="6.77858">
        <ele>1545.00027</ele>
        <time>2024-12-06T11:12:14.000Z</time>
      </trkpt>
      <trkpt lat="43.75145" lon="6.77853">
        <ele>1544.498314</ele>
        <time>2024-12-06T11:12:15.000Z</time>
      </trkpt>
      <trkpt lat="43.75151" lon="6.77848">
        <ele>1543.718275</ele>
        <time>2024-12-06T11:12:16.000Z</time>
      </trkpt>
      <trkpt lat="43.75157" lon="6.77843">
        <ele>1543.021844</ele>
        <time>2024-12-06T11:12:17.000Z</time>
      </trkpt>
      <trkpt lat="43.75168" lon="6.77835">
        <ele>1541.702915</ele>
        <time>2024-12-06T11:12:19.000Z</time>
      </trkpt>
      <trkpt lat="43.75175" lon="6.7783">
        <ele>1540.957552</ele>
        <time>2024-12-06T11:12:20.000Z</time>
      </trkpt>
      <trkpt lat="43.75181" lon="6.77825">
        <ele>1540.321676</ele>
        <time>2024-12-06T11:12:21.000Z</time>
      </trkpt>
      <trkpt lat="43.75187" lon="6.7782">
        <ele>1539.720768</ele>
        <time>2024-12-06T11:12:22.000Z</time>
      </trkpt>
      <trkpt lat="43.75192" lon="6.77814">
        <ele>1539.135187</ele>
        <time>2024-12-06T11:12:23.000Z</time>
      </trkpt>
      <trkpt lat="43.75197" lon="6.77807">
        <ele>1538.524585</ele>
        <time>2024-12-06T11:12:24.000Z</time>
      </trkpt>
      <trkpt lat="43.75201" lon="6.77798">
        <ele>1537.890649</ele>
        <time>2024-12-06T11:12:25.000Z</time>
      </trkpt>
      <trkpt lat="43.75207" lon="6.77788">
        <ele>1537.080592</ele>
        <time>2024-12-06T11:12:26.000Z</time>
      </trkpt>
      <trkpt lat="43.75214" lon="6.77764">
        <ele>1535.479158</ele>
        <time>2024-12-06T11:12:28.000Z</time>
      </trkpt>
      <trkpt lat="43.75218" lon="6.77751">
        <ele>1534.623549</ele>
        <time>2024-12-06T11:12:29.000Z</time>
      </trkpt>
      <trkpt lat="43.75222" lon="6.7774">
        <ele>1533.825419</ele>
        <time>2024-12-06T11:12:30.000Z</time>
      </trkpt>
      <trkpt lat="43.75227" lon="6.7773">
        <ele>1533.110481</ele>
        <time>2024-12-06T11:12:31.000Z</time>
      </trkpt>
      <trkpt lat="43.75232" lon="6.77723">
        <ele>1532.480105</ele>
        <time>2024-12-06T11:12:32.000Z</time>
      </trkpt>
      <trkpt lat="43.75236" lon="6.77716">
        <ele>1531.901936</ele>
        <time>2024-12-06T11:12:33.000Z</time>
      </trkpt>
      <trkpt lat="43.7524" lon="6.7771">
        <ele>1531.389363</ele>
        <time>2024-12-06T11:12:34.000Z</time>
      </trkpt>
      <trkpt lat="43.75244" lon="6.77704">
        <ele>1530.930603</ele>
        <time>2024-12-06T11:12:35.000Z</time>
      </trkpt>
      <trkpt lat="43.75246" lon="6.77699">
        <ele>1530.541561</ele>
        <time>2024-12-06T11:12:36.000Z</time>
      </trkpt>
      <trkpt lat="43.75248" lon="6.77694">
        <ele>1530.230294</ele>
        <time>2024-12-06T11:12:37.000Z</time>
      </trkpt>
      <trkpt lat="43.75249" lon="6.7769">
        <ele>1529.970292</ele>
        <time>2024-12-06T11:12:38.000Z</time>
      </trkpt>
      <trkpt lat="43.75249" lon="6.77686">
        <ele>1529.726892</ele>
        <time>2024-12-06T11:12:39.000Z</time>
      </trkpt>
      <trkpt lat="43.75249" lon="6.77683">
        <ele>1529.505477</ele>
        <time>2024-12-06T11:12:40.000Z</time>
      </trkpt>
      <trkpt lat="43.7525" lon="6.7768">
        <ele>1529.303912</ele>
        <time>2024-12-06T11:12:41.000Z</time>
      </trkpt>
      <trkpt lat="43.75251" lon="6.77676">
        <ele>1529.083981</ele>
        <time>2024-12-06T11:12:42.000Z</time>
      </trkpt>
      <trkpt lat="43.75253" lon="6.77673">
        <ele>1528.857551</ele>
        <time>2024-12-06T11:12:43.000Z</time>
      </trkpt>
      <trkpt lat="43.75254" lon="6.7767">
        <ele>1528.652505</ele>
        <time>2024-12-06T11:12:44.000Z</time>
      </trkpt>
      <trkpt lat="43.75254" lon="6.77667">
        <ele>1528.466129</ele>
        <time>2024-12-06T11:12:45.000Z</time>
      </trkpt>
      <trkpt lat="43.75253" lon="6.77665">
        <ele>1528.314973</ele>
        <time>2024-12-06T11:12:46.000Z</time>
      </trkpt>
      <trkpt lat="43.75253" lon="6.77664">
        <ele>1528.249394</ele>
        <time>2024-12-06T11:12:48.000Z</time>
      </trkpt>
      <trkpt lat="43.7525" lon="6.77664">
        <ele>1527.973836</ele>
        <time>2024-12-06T11:12:53.000Z</time>
      </trkpt>
      <trkpt lat="43.75244" lon="6.77661">
        <ele>1527.468314</ele>
        <time>2024-12-06T11:12:55.000Z</time>
      </trkpt>
      <trkpt lat="43.75239" lon="6.77659">
        <ele>1527.011176</ele>
        <time>2024-12-06T11:12:57.000Z</time>
      </trkpt>
      <trkpt lat="43.75237" lon="6.77658">
        <ele>1526.799087</ele>
        <time>2024-12-06T11:12:58.000Z</time>
      </trkpt>
      <trkpt lat="43.75234" lon="6.77657">
        <ele>1526.559787</ele>
        <time>2024-12-06T11:12:59.000Z</time>
      </trkpt>
      <trkpt lat="43.75232" lon="6.77654">
        <ele>1526.303036</ele>
        <time>2024-12-06T11:13:00.000Z</time>
      </trkpt>
      <trkpt lat="43.75231" lon="6.77652">
        <ele>1526.157143</ele>
        <time>2024-12-06T11:13:01.000Z</time>
      </trkpt>
      <trkpt lat="43.7523" lon="6.7765">
        <ele>1526.016138</ele>
        <time>2024-12-06T11:13:02.000Z</time>
      </trkpt>
      <trkpt lat="43.75229" lon="6.77648">
        <ele>1525.808851</ele>
        <time>2024-12-06T11:13:03.000Z</time>
      </trkpt>
      <trkpt lat="43.75227" lon="6.77646">
        <ele>1525.698564</ele>
        <time>2024-12-06T11:13:04.000Z</time>
      </trkpt>
      <trkpt lat="43.75226" lon="6.77645">
        <ele>1525.691539</ele>
        <time>2024-12-06T11:13:05.000Z</time>
      </trkpt>
      <trkpt lat="43.75226" lon="6.77644">
        <ele>1525.686928</ele>
        <time>2024-12-06T11:13:06.000Z</time>
      </trkpt>
      <trkpt lat="43.75226" lon="6.77644">
        <ele>1525.685091</ele>
        <time>2024-12-06T11:13:10.000Z</time>
      </trkpt>
      <trkpt lat="43.75225" lon="6.77643">
        <ele>1525.677741</ele>
        <time>2024-12-06T11:13:18.000Z</time>
      </trkpt>
      <trkpt lat="43.75223" lon="6.77641">
        <ele>1525.666981</ele>
        <time>2024-12-06T11:13:20.000Z</time>
      </trkpt>
      <trkpt lat="43.75223" lon="6.77641">
        <ele>1525.661512</ele>
        <time>2024-12-06T11:13:21.000Z</time>
      </trkpt>
      <trkpt lat="43.75221" lon="6.77638">
        <ele>1525.643996</ele>
        <time>2024-12-06T11:13:24.000Z</time>
      </trkpt>
      <trkpt lat="43.75221" lon="6.77637">
        <ele>1525.639939</ele>
        <time>2024-12-06T11:13:27.000Z</time>
      </trkpt>
      <trkpt lat="43.75222" lon="6.77637">
        <ele>1525.632853</ele>
        <time>2024-12-06T11:13:35.000Z</time>
      </trkpt>
      <trkpt lat="43.75221" lon="6.77637">
        <ele>1525.63093</ele>
        <time>2024-12-06T11:13:36.000Z</time>
      </trkpt>
      <trkpt lat="43.75221" lon="6.77637">
        <ele>1525.629008</ele>
        <time>2024-12-06T11:13:37.000Z</time>
      </trkpt>
      <trkpt lat="43.75221" lon="6.77637">
        <ele>1525.627683</ele>
        <time>2024-12-06T11:13:38.000Z</time>
      </trkpt>
      <trkpt lat="43.75221" lon="6.77637">
        <ele>1525.625846</ele>
        <time>2024-12-06T11:13:40.000Z</time>
      </trkpt>
      <trkpt lat="43.75221" lon="6.77638">
        <ele>1525.623941</ele>
        <time>2024-12-06T11:13:41.000Z</time>
      </trkpt>
      <trkpt lat="43.75221" lon="6.77638">
        <ele>1525.622072</ele>
        <time>2024-12-06T11:13:46.000Z</time>
      </trkpt>
      <trkpt lat="43.75221" lon="6.77638">
        <ele>1525.622072</ele>
        <time>2024-12-06T11:13:49.000Z</time>
      </trkpt>
      <trkpt lat="43.75221" lon="6.77638">
        <ele>1525.622072</ele>
        <time>2024-12-06T11:13:53.000Z</time>
      </trkpt>
      <trkpt lat="43.75221" lon="6.77638">
        <ele>1525.622072</ele>
        <time>2024-12-06T11:13:58.000Z</time>
      </trkpt>
      <trkpt lat="43.75221" lon="6.77638">
        <ele>1525.622072</ele>
        <time>2024-12-06T11:14:03.000Z</time>
      </trkpt>
      <trkpt lat="43.75221" lon="6.77638">
        <ele>1525.622072</ele>
        <time>2024-12-06T11:14:11.000Z</time>
      </trkpt>
      <trkpt lat="43.75221" lon="6.77638">
        <ele>1525.622072</ele>
        <time>2024-12-06T11:14:13.000Z</time>
      </trkpt>
      <trkpt lat="43.75221" lon="6.77638">
        <ele>1525.622072</ele>
        <time>2024-12-06T11:14:14.000Z</time>
      </trkpt>
      <trkpt lat="43.75221" lon="6.77639">
        <ele>1525.616635</ele>
        <time>2024-12-06T11:14:20.000Z</time>
      </trkpt>
      <trkpt lat="43.75222" lon="6.77637">
        <ele>1525.605493</ele>
        <time>2024-12-06T11:14:25.000Z</time>
      </trkpt>
      <trkpt lat="43.75222" lon="6.77637">
        <ele>1525.605493</ele>
        <time>2024-12-06T11:14:27.000Z</time>
      </trkpt>
      <trkpt lat="43.75222" lon="6.77637">
        <ele>1525.603624</ele>
        <time>2024-12-06T11:14:33.000Z</time>
      </trkpt>
      <trkpt lat="43.75223" lon="6.77637">
        <ele>1525.597999</ele>
        <time>2024-12-06T11:14:35.000Z</time>
      </trkpt>
      <trkpt lat="43.75223" lon="6.77637">
        <ele>1525.597999</ele>
        <time>2024-12-06T11:14:42.000Z</time>
      </trkpt>
      <trkpt lat="43.75224" lon="6.77636">
        <ele>1525.589452</ele>
        <time>2024-12-06T11:14:45.000Z</time>
      </trkpt>
      <trkpt lat="43.75226" lon="6.77634">
        <ele>1525.57353</ele>
        <time>2024-12-06T11:14:50.000Z</time>
      </trkpt>
      <trkpt lat="43.75228" lon="6.77635">
        <ele>1525.564704</ele>
        <time>2024-12-06T11:14:56.000Z</time>
      </trkpt>
      <trkpt lat="43.75228" lon="6.77635">
        <ele>1525.563166</ele>
        <time>2024-12-06T11:14:58.000Z</time>
      </trkpt>
      <trkpt lat="43.75228" lon="6.77635">
        <ele>1525.562398</ele>
        <time>2024-12-06T11:15:01.000Z</time>
      </trkpt>
      <trkpt lat="43.75228" lon="6.77635">
        <ele>1525.560493</ele>
        <time>2024-12-06T11:15:02.000Z</time>
      </trkpt>
      <trkpt lat="43.75228" lon="6.77635">
        <ele>1525.559398</ele>
        <time>2024-12-06T11:15:04.000Z</time>
      </trkpt>
      <trkpt lat="43.75228" lon="6.77636">
        <ele>1525.557063</ele>
        <time>2024-12-06T11:15:07.000Z</time>
      </trkpt>
      <trkpt lat="43.75228" lon="6.77636">
        <ele>1525.557063</ele>
        <time>2024-12-06T11:15:13.000Z</time>
      </trkpt>
      <trkpt lat="43.75229" lon="6.77636">
        <ele>1525.552914</ele>
        <time>2024-12-06T11:15:17.000Z</time>
      </trkpt>
      <trkpt lat="43.75229" lon="6.77636">
        <ele>1525.552914</ele>
        <time>2024-12-06T11:15:26.000Z</time>
      </trkpt>
      <trkpt lat="43.75229" lon="6.77636">
        <ele>1525.552914</ele>
        <time>2024-12-06T11:15:28.000Z</time>
      </trkpt>
      <trkpt lat="43.75229" lon="6.77636">
        <ele>1525.552914</ele>
        <time>2024-12-06T11:15:32.000Z</time>
      </trkpt>
      <trkpt lat="43.75229" lon="6.77636">
        <ele>1525.552914</ele>
        <time>2024-12-06T11:15:34.000Z</time>
      </trkpt>
      <trkpt lat="43.75229" lon="6.77636">
        <ele>1525.552914</ele>
        <time>2024-12-06T11:15:37.000Z</time>
      </trkpt>
      <trkpt lat="43.75229" lon="6.77636">
        <ele>1525.552914</ele>
        <time>2024-12-06T11:15:41.000Z</time>
      </trkpt>
      <trkpt lat="43.75229" lon="6.77636">
        <ele>1525.550991</ele>
        <time>2024-12-06T11:15:45.000Z</time>
      </trkpt>
      <trkpt lat="43.75229" lon="6.77636">
        <ele>1525.550991</ele>
        <time>2024-12-06T11:15:46.000Z</time>
      </trkpt>
      <trkpt lat="43.75229" lon="6.77636">
        <ele>1525.550991</ele>
        <time>2024-12-06T11:16:00.000Z</time>
      </trkpt>
      <trkpt lat="43.75229" lon="6.77636">
        <ele>1525.550991</ele>
        <time>2024-12-06T11:16:04.000Z</time>
      </trkpt>
      <trkpt lat="43.75229" lon="6.77636">
        <ele>1525.550991</ele>
        <time>2024-12-06T11:16:05.000Z</time>
      </trkpt>
      <trkpt lat="43.75229" lon="6.77636">
        <ele>1525.550991</ele>
        <time>2024-12-06T11:16:11.000Z</time>
      </trkpt>
      <trkpt lat="43.7523" lon="6.77636">
        <ele>1525.547844</ele>
        <time>2024-12-06T11:16:18.000Z</time>
      </trkpt>
      <trkpt lat="43.7523" lon="6.77636">
        <ele>1525.547844</ele>
        <time>2024-12-06T11:16:20.000Z</time>
      </trkpt>
      <trkpt lat="43.7523" lon="6.77636">
        <ele>1525.547844</ele>
        <time>2024-12-06T11:16:28.000Z</time>
      </trkpt>
      <trkpt lat="43.7523" lon="6.77637">
        <ele>1525.543413</ele>
        <time>2024-12-06T11:16:36.000Z</time>
      </trkpt>
      <trkpt lat="43.7523" lon="6.77637">
        <ele>1525.543413</ele>
        <time>2024-12-06T11:16:55.000Z</time>
      </trkpt>
      <trkpt lat="43.7523" lon="6.77637">
        <ele>1525.543413</ele>
        <time>2024-12-06T11:16:56.000Z</time>
      </trkpt>
      <trkpt lat="43.7523" lon="6.77637">
        <ele>1525.543413</ele>
        <time>2024-12-06T11:17:11.000Z</time>
      </trkpt>
      <trkpt lat="43.7523" lon="6.77637">
        <ele>1525.543413</ele>
        <time>2024-12-06T11:17:22.000Z</time>
      </trkpt>
      <trkpt lat="43.7523" lon="6.77637">
        <ele>1525.543413</ele>
        <time>2024-12-06T11:17:31.000Z</time>
      </trkpt>
      <trkpt lat="43.7523" lon="6.77637">
        <ele>1525.543413</ele>
        <time>2024-12-06T11:17:37.000Z</time>
      </trkpt>
      <trkpt lat="43.7523" lon="6.77637">
        <ele>1525.543413</ele>
        <time>2024-12-06T11:17:45.000Z</time>
      </trkpt>
      <trkpt lat="43.7523" lon="6.77637">
        <ele>1525.543413</ele>
        <time>2024-12-06T11:17:53.000Z</time>
      </trkpt>
      <trkpt lat="43.7523" lon="6.77637">
        <ele>1525.543413</ele>
        <time>2024-12-06T11:18:03.000Z</time>
      </trkpt>
      <trkpt lat="43.7523" lon="6.77637">
        <ele>1525.543413</ele>
        <time>2024-12-06T11:18:24.000Z</time>
      </trkpt>
      <trkpt lat="43.7523" lon="6.77637">
        <ele>1525.543413</ele>
        <time>2024-12-06T11:18:35.000Z</time>
      </trkpt>
      <trkpt lat="43.7523" lon="6.77637">
        <ele>1525.543413</ele>
        <time>2024-12-06T11:18:54.000Z</time>
      </trkpt>
      <trkpt lat="43.7523" lon="6.77637">
        <ele>1525.543413</ele>
        <time>2024-12-06T11:19:03.000Z</time>
      </trkpt>
      <trkpt lat="43.7523" lon="6.77637">
        <ele>1525.543413</ele>
        <time>2024-12-06T11:19:33.000Z</time>
      </trkpt>
      <trkpt lat="43.7523" lon="6.77637">
        <ele>1525.543413</ele>
        <time>2024-12-06T11:19:38.000Z</time>
      </trkpt>
      <trkpt lat="43.7523" lon="6.77637">
        <ele>1525.543413</ele>
        <time>2024-12-06T11:20:03.000Z</time>
      </trkpt>
      <trkpt lat="43.7523" lon="6.77637">
        <ele>1525.543413</ele>
        <time>2024-12-06T11:20:35.000Z</time>
      </trkpt>
      <trkpt lat="43.7523" lon="6.77637">
        <ele>1525.543413</ele>
        <time>2024-12-06T11:20:48.000Z</time>
      </trkpt>
      <trkpt lat="43.7523" lon="6.77637">
        <ele>1525.543413</ele>
        <time>2024-12-06T11:21:22.000Z</time>
      </trkpt>
      <trkpt lat="43.7523" lon="6.77637">
        <ele>1525.543413</ele>
        <time>2024-12-06T11:21:28.000Z</time>
      </trkpt>
      <trkpt lat="43.7523" lon="6.77637">
        <ele>1525.543413</ele>
        <time>2024-12-06T11:21:32.000Z</time>
      </trkpt>
      <trkpt lat="43.7523" lon="6.77637">
        <ele>1525.543413</ele>
        <time>2024-12-06T11:21:50.000Z</time>
      </trkpt>
      <trkpt lat="43.7523" lon="6.77637">
        <ele>1525.543413</ele>
        <time>2024-12-06T11:23:27.000Z</time>
      </trkpt>
      <trkpt lat="43.7523" lon="6.77637">
        <ele>1525.543413</ele>
        <time>2024-12-06T11:23:31.000Z</time>
      </trkpt>
      <trkpt lat="43.7523" lon="6.77637">
        <ele>1525.543413</ele>
        <time>2024-12-06T11:23:37.000Z</time>
      </trkpt>
      <trkpt lat="43.7523" lon="6.77637">
        <ele>1525.543413</ele>
        <time>2024-12-06T11:23:38.000Z</time>
      </trkpt>
      <trkpt lat="43.7523" lon="6.77637">
        <ele>1525.543413</ele>
        <time>2024-12-06T11:23:46.000Z</time>
      </trkpt>
      <trkpt lat="43.7523" lon="6.77637">
        <ele>1525.543413</ele>
        <time>2024-12-06T11:24:07.000Z</time>
      </trkpt>
      <trkpt lat="43.7523" lon="6.77637">
        <ele>1525.540202</ele>
        <time>2024-12-06T11:24:17.000Z</time>
      </trkpt>
      <trkpt lat="43.7523" lon="6.77638">
        <ele>1525.536079</ele>
        <time>2024-12-06T11:24:27.000Z</time>
      </trkpt>
      <trkpt lat="43.7523" lon="6.77638">
        <ele>1525.536079</ele>
        <time>2024-12-06T11:24:29.000Z</time>
      </trkpt>
      <trkpt lat="43.7523" lon="6.77638">
        <ele>1525.536079</ele>
        <time>2024-12-06T11:24:38.000Z</time>
      </trkpt>
      <trkpt lat="43.7523" lon="6.77638">
        <ele>1525.536079</ele>
        <time>2024-12-06T11:24:45.000Z</time>
      </trkpt>
      <trkpt lat="43.7523" lon="6.77638">
        <ele>1525.536079</ele>
        <time>2024-12-06T11:24:53.000Z</time>
      </trkpt>
      <trkpt lat="43.7523" lon="6.77638">
        <ele>1525.536079</ele>
        <time>2024-12-06T11:25:05.000Z</time>
      </trkpt>
      <trkpt lat="43.7523" lon="6.77638">
        <ele>1525.536079</ele>
        <time>2024-12-06T11:25:10.000Z</time>
      </trkpt>
      <trkpt lat="43.7523" lon="6.77638">
        <ele>1525.536079</ele>
        <time>2024-12-06T11:25:11.000Z</time>
      </trkpt>
      <trkpt lat="43.7523" lon="6.77638">
        <ele>1525.536079</ele>
        <time>2024-12-06T11:25:15.000Z</time>
      </trkpt>
      <trkpt lat="43.7523" lon="6.77638">
        <ele>1525.536079</ele>
        <time>2024-12-06T11:25:20.000Z</time>
      </trkpt>
      <trkpt lat="43.7523" lon="6.77638">
        <ele>1525.536079</ele>
        <time>2024-12-06T11:25:27.000Z</time>
      </trkpt>
      <trkpt lat="43.7523" lon="6.77638">
        <ele>1525.536079</ele>
        <time>2024-12-06T11:25:33.000Z</time>
      </trkpt>
      <trkpt lat="43.7523" lon="6.77638">
        <ele>1525.536079</ele>
        <time>2024-12-06T11:25:35.000Z</time>
      </trkpt>
      <trkpt lat="43.7523" lon="6.77638">
        <ele>1525.536079</ele>
        <time>2024-12-06T11:25:39.000Z</time>
      </trkpt>
      <trkpt lat="43.7523" lon="6.77638">
        <ele>1525.536079</ele>
        <time>2024-12-06T11:25:41.000Z</time>
      </trkpt>
      <trkpt lat="43.7523" lon="6.77638">
        <ele>1525.536079</ele>
        <time>2024-12-06T11:25:49.000Z</time>
      </trkpt>
      <trkpt lat="43.7523" lon="6.77638">
        <ele>1525.536079</ele>
        <time>2024-12-06T11:25:53.000Z</time>
      </trkpt>
      <trkpt lat="43.7523" lon="6.77638">
        <ele>1525.536079</ele>
        <time>2024-12-06T11:26:02.000Z</time>
      </trkpt>
      <trkpt lat="43.7523" lon="6.77638">
        <ele>1525.536079</ele>
        <time>2024-12-06T11:26:13.000Z</time>
      </trkpt>
      <trkpt lat="43.7523" lon="6.77638">
        <ele>1525.536079</ele>
        <time>2024-12-06T11:26:21.000Z</time>
      </trkpt>
      <trkpt lat="43.7523" lon="6.77638">
        <ele>1525.536079</ele>
        <time>2024-12-06T11:26:31.000Z</time>
      </trkpt>
      <trkpt lat="43.7523" lon="6.77638">
        <ele>1525.536079</ele>
        <time>2024-12-06T11:26:37.000Z</time>
      </trkpt>
      <trkpt lat="43.7523" lon="6.77638">
        <ele>1525.536079</ele>
        <time>2024-12-06T11:26:41.000Z</time>
      </trkpt>
      <trkpt lat="43.7523" lon="6.77638">
        <ele>1525.536079</ele>
        <time>2024-12-06T11:26:55.000Z</time>
      </trkpt>
      <trkpt lat="43.7523" lon="6.77638">
        <ele>1525.536079</ele>
        <time>2024-12-06T11:27:01.000Z</time>
      </trkpt>
      <trkpt lat="43.7523" lon="6.77638">
        <ele>1525.536079</ele>
        <time>2024-12-06T11:27:09.000Z</time>
      </trkpt>
      <trkpt lat="43.7523" lon="6.77638">
        <ele>1525.536079</ele>
        <time>2024-12-06T11:27:14.000Z</time>
      </trkpt>
      <trkpt lat="43.7523" lon="6.77638">
        <ele>1525.536079</ele>
        <time>2024-12-06T11:27:20.000Z</time>
      </trkpt>
      <trkpt lat="43.7523" lon="6.77638">
        <ele>1525.536079</ele>
        <time>2024-12-06T11:27:36.000Z</time>
      </trkpt>
      <trkpt lat="43.7523" lon="6.77638">
        <ele>1525.536079</ele>
        <time>2024-12-06T11:27:41.000Z</time>
      </trkpt>
      <trkpt lat="43.7523" lon="6.77638">
        <ele>1525.536079</ele>
        <time>2024-12-06T11:27:43.000Z</time>
      </trkpt>
      <trkpt lat="43.7523" lon="6.77638">
        <ele>1525.536079</ele>
        <time>2024-12-06T11:27:48.000Z</time>
      </trkpt>
      <trkpt lat="43.7523" lon="6.77638">
        <ele>1525.536079</ele>
        <time>2024-12-06T11:27:51.000Z</time>
      </trkpt>
      <trkpt lat="43.7523" lon="6.77638">
        <ele>1525.536079</ele>
        <time>2024-12-06T11:27:54.000Z</time>
      </trkpt>
      <trkpt lat="43.7523" lon="6.77638">
        <ele>1525.536079</ele>
        <time>2024-12-06T11:28:22.000Z</time>
      </trkpt>
      <trkpt lat="43.7523" lon="6.77638">
        <ele>1525.536079</ele>
        <time>2024-12-06T11:28:30.000Z</time>
      </trkpt>
      <trkpt lat="43.7523" lon="6.77638">
        <ele>1525.536079</ele>
        <time>2024-12-06T11:28:40.000Z</time>
      </trkpt>
      <trkpt lat="43.7523" lon="6.77638">
        <ele>1525.536079</ele>
        <time>2024-12-06T11:28:50.000Z</time>
      </trkpt>
      <trkpt lat="43.7523" lon="6.77638">
        <ele>1525.536079</ele>
        <time>2024-12-06T11:29:01.000Z</time>
      </trkpt>
      <trkpt lat="43.7523" lon="6.77638">
        <ele>1525.536079</ele>
        <time>2024-12-06T11:29:50.000Z</time>
      </trkpt>
      <trkpt lat="43.7523" lon="6.77638">
        <ele>1525.536079</ele>
        <time>2024-12-06T11:31:02.000Z</time>
      </trkpt>
      <trkpt lat="43.7523" lon="6.77638">
        <ele>1525.536079</ele>
        <time>2024-12-06T11:31:08.000Z</time>
      </trkpt>
      <trkpt lat="43.7523" lon="6.77638">
        <ele>1525.536079</ele>
        <time>2024-12-06T11:31:31.000Z</time>
      </trkpt>
      <trkpt lat="43.7523" lon="6.77638">
        <ele>1525.536079</ele>
        <time>2024-12-06T11:31:35.000Z</time>
      </trkpt>
      <trkpt lat="43.7523" lon="6.77638">
        <ele>1525.536079</ele>
        <time>2024-12-06T11:31:39.000Z</time>
      </trkpt>
      <trkpt lat="43.7523" lon="6.77638">
        <ele>1525.536079</ele>
        <time>2024-12-06T11:31:41.000Z</time>
      </trkpt>
      <trkpt lat="43.7523" lon="6.77638">
        <ele>1525.536079</ele>
        <time>2024-12-06T11:31:42.000Z</time>
      </trkpt>
      <trkpt lat="43.7523" lon="6.77638">
        <ele>1525.536079</ele>
        <time>2024-12-06T11:31:50.000Z</time>
      </trkpt>
      <trkpt lat="43.7523" lon="6.77638">
        <ele>1525.536079</ele>
        <time>2024-12-06T11:31:52.000Z</time>
      </trkpt>
      <trkpt lat="43.7523" lon="6.77638">
        <ele>1525.536079</ele>
        <time>2024-12-06T11:32:06.000Z</time>
      </trkpt>
      <trkpt lat="43.7523" lon="6.77638">
        <ele>1525.536079</ele>
        <time>2024-12-06T11:32:13.000Z</time>
      </trkpt>
      <trkpt lat="43.7523" lon="6.77638">
        <ele>1525.535311</ele>
        <time>2024-12-06T11:32:15.000Z</time>
      </trkpt>
      <trkpt lat="43.75229" lon="6.77638">
        <ele>1525.533236</ele>
        <time>2024-12-06T11:32:21.000Z</time>
      </trkpt>
      <trkpt lat="43.75229" lon="6.77638">
        <ele>1525.533236</ele>
        <time>2024-12-06T11:32:25.000Z</time>
      </trkpt>
      <trkpt lat="43.75229" lon="6.77638">
        <ele>1525.533236</ele>
        <time>2024-12-06T11:32:26.000Z</time>
      </trkpt>
      <trkpt lat="43.75229" lon="6.77638">
        <ele>1525.533236</ele>
        <time>2024-12-06T11:32:40.000Z</time>
      </trkpt>
      <trkpt lat="43.75229" lon="6.77638">
        <ele>1525.533236</ele>
        <time>2024-12-06T11:32:49.000Z</time>
      </trkpt>
      <trkpt lat="43.75229" lon="6.77638">
        <ele>1525.533236</ele>
        <time>2024-12-06T11:32:50.000Z</time>
      </trkpt>
      <trkpt lat="43.75229" lon="6.77638">
        <ele>1525.533236</ele>
        <time>2024-12-06T11:32:57.000Z</time>
      </trkpt>
      <trkpt lat="43.75229" lon="6.77638">
        <ele>1525.533236</ele>
        <time>2024-12-06T11:33:04.000Z</time>
      </trkpt>
      <trkpt lat="43.75229" lon="6.77638">
        <ele>1525.533236</ele>
        <time>2024-12-06T11:33:05.000Z</time>
      </trkpt>
      <trkpt lat="43.75229" lon="6.77638">
        <ele>1525.533236</ele>
        <time>2024-12-06T11:33:11.000Z</time>
      </trkpt>
      <trkpt lat="43.75229" lon="6.77638">
        <ele>1525.533236</ele>
        <time>2024-12-06T11:33:14.000Z</time>
      </trkpt>
      <trkpt lat="43.75229" lon="6.77638">
        <ele>1525.533236</ele>
        <time>2024-12-06T11:33:36.000Z</time>
      </trkpt>
      <trkpt lat="43.75229" lon="6.77637">
        <ele>1525.530086</ele>
        <time>2024-12-06T11:33:48.000Z</time>
      </trkpt>
      <trkpt lat="43.7523" lon="6.77637">
        <ele>1525.526348</ele>
        <time>2024-12-06T11:35:14.000Z</time>
      </trkpt>
      <trkpt lat="43.7523" lon="6.77637">
        <ele>1525.524425</ele>
        <time>2024-12-06T11:35:18.000Z</time>
      </trkpt>
      <trkpt lat="43.75231" lon="6.77637">
        <ele>1525.520408</ele>
        <time>2024-12-06T11:35:36.000Z</time>
      </trkpt>
      <trkpt lat="43.75231" lon="6.77636">
        <ele>1525.516598</ele>
        <time>2024-12-06T11:35:55.000Z</time>
      </trkpt>
      <trkpt lat="43.75231" lon="6.77636">
        <ele>1525.515698</ele>
        <time>2024-12-06T11:36:02.000Z</time>
      </trkpt>
      <trkpt lat="43.75231" lon="6.77636">
        <ele>1525.513509</ele>
        <time>2024-12-06T11:36:11.000Z</time>
      </trkpt>
      <trkpt lat="43.7523" lon="6.77637">
        <ele>1525.509846</ele>
        <time>2024-12-06T11:36:14.000Z</time>
      </trkpt>
      <trkpt lat="43.7523" lon="6.77636">
        <ele>1525.505723</ele>
        <time>2024-12-06T11:36:52.000Z</time>
      </trkpt>
      <trkpt lat="43.7523" lon="6.77636">
        <ele>1525.505723</ele>
        <time>2024-12-06T11:37:18.000Z</time>
      </trkpt>
      <trkpt lat="43.7523" lon="6.77636">
        <ele>1525.505723</ele>
        <time>2024-12-06T11:37:21.000Z</time>
      </trkpt>
      <trkpt lat="43.7523" lon="6.77636">
        <ele>1525.505723</ele>
        <time>2024-12-06T11:37:30.000Z</time>
      </trkpt>
      <trkpt lat="43.7523" lon="6.77636">
        <ele>1525.505723</ele>
        <time>2024-12-06T11:37:32.000Z</time>
      </trkpt>
      <trkpt lat="43.7523" lon="6.77636">
        <ele>1525.505723</ele>
        <time>2024-12-06T11:37:36.000Z</time>
      </trkpt>
      <trkpt lat="43.7523" lon="6.77636">
        <ele>1525.505723</ele>
        <time>2024-12-06T11:37:53.000Z</time>
      </trkpt>
      <trkpt lat="43.7523" lon="6.77637">
        <ele>1525.503073</ele>
        <time>2024-12-06T11:38:01.000Z</time>
      </trkpt>
      <trkpt lat="43.7523" lon="6.77637">
        <ele>1525.503073</ele>
        <time>2024-12-06T11:38:03.000Z</time>
      </trkpt>
      <trkpt lat="43.7523" lon="6.77637">
        <ele>1525.503073</ele>
        <time>2024-12-06T11:38:07.000Z</time>
      </trkpt>
      <trkpt lat="43.7523" lon="6.77637">
        <ele>1525.503073</ele>
        <time>2024-12-06T11:38:18.000Z</time>
      </trkpt>
      <trkpt lat="43.7523" lon="6.77637">
        <ele>1525.503073</ele>
        <time>2024-12-06T11:38:21.000Z</time>
      </trkpt>
      <trkpt lat="43.7523" lon="6.77637">
        <ele>1525.503073</ele>
        <time>2024-12-06T11:38:26.000Z</time>
      </trkpt>
      <trkpt lat="43.7523" lon="6.77637">
        <ele>1525.503073</ele>
        <time>2024-12-06T11:38:34.000Z</time>
      </trkpt>
      <trkpt lat="43.7523" lon="6.77637">
        <ele>1525.503073</ele>
        <time>2024-12-06T11:38:37.000Z</time>
      </trkpt>
      <trkpt lat="43.7523" lon="6.77637">
        <ele>1525.503073</ele>
        <time>2024-12-06T11:38:42.000Z</time>
      </trkpt>
      <trkpt lat="43.7523" lon="6.77637">
        <ele>1525.503073</ele>
        <time>2024-12-06T11:38:56.000Z</time>
      </trkpt>
      <trkpt lat="43.7523" lon="6.77637">
        <ele>1525.503073</ele>
        <time>2024-12-06T11:39:17.000Z</time>
      </trkpt>
      <trkpt lat="43.7523" lon="6.77637">
        <ele>1525.503073</ele>
        <time>2024-12-06T11:39:25.000Z</time>
      </trkpt>
      <trkpt lat="43.7523" lon="6.77637">
        <ele>1525.503073</ele>
        <time>2024-12-06T11:40:02.000Z</time>
      </trkpt>
      <trkpt lat="43.7523" lon="6.77637">
        <ele>1525.503073</ele>
        <time>2024-12-06T11:40:12.000Z</time>
      </trkpt>
      <trkpt lat="43.7523" lon="6.77637">
        <ele>1525.503073</ele>
        <time>2024-12-06T11:40:23.000Z</time>
      </trkpt>
      <trkpt lat="43.7523" lon="6.77637">
        <ele>1525.503073</ele>
        <time>2024-12-06T11:40:27.000Z</time>
      </trkpt>
      <trkpt lat="43.7523" lon="6.77637">
        <ele>1525.503073</ele>
        <time>2024-12-06T11:40:32.000Z</time>
      </trkpt>
      <trkpt lat="43.7523" lon="6.77637">
        <ele>1525.503073</ele>
        <time>2024-12-06T11:40:33.000Z</time>
      </trkpt>
      <trkpt lat="43.7523" lon="6.77637">
        <ele>1525.503073</ele>
        <time>2024-12-06T11:40:37.000Z</time>
      </trkpt>
      <trkpt lat="43.7523" lon="6.77637">
        <ele>1525.503073</ele>
        <time>2024-12-06T11:40:53.000Z</time>
      </trkpt>
      <trkpt lat="43.7523" lon="6.77638">
        <ele>1525.498612</ele>
        <time>2024-12-06T11:41:01.000Z</time>
      </trkpt>
      <trkpt lat="43.7523" lon="6.77638">
        <ele>1525.498612</ele>
        <time>2024-12-06T11:41:04.000Z</time>
      </trkpt>
      <trkpt lat="43.7523" lon="6.77638">
        <ele>1525.498612</ele>
        <time>2024-12-06T11:41:08.000Z</time>
      </trkpt>
      <trkpt lat="43.7523" lon="6.77638">
        <ele>1525.498612</ele>
        <time>2024-12-06T11:41:12.000Z</time>
      </trkpt>
      <trkpt lat="43.7523" lon="6.77638">
        <ele>1525.498612</ele>
        <time>2024-12-06T11:41:15.000Z</time>
      </trkpt>
      <trkpt lat="43.7523" lon="6.77638">
        <ele>1525.498612</ele>
        <time>2024-12-06T11:41:25.000Z</time>
      </trkpt>
      <trkpt lat="43.7523" lon="6.77638">
        <ele>1525.498612</ele>
        <time>2024-12-06T11:41:31.000Z</time>
      </trkpt>
      <trkpt lat="43.7523" lon="6.77638">
        <ele>1525.498612</ele>
        <time>2024-12-06T11:41:47.000Z</time>
      </trkpt>
      <trkpt lat="43.7523" lon="6.77638">
        <ele>1525.498612</ele>
        <time>2024-12-06T11:41:54.000Z</time>
      </trkpt>
      <trkpt lat="43.7523" lon="6.77638">
        <ele>1525.498612</ele>
        <time>2024-12-06T11:42:04.000Z</time>
      </trkpt>
      <trkpt lat="43.7523" lon="6.77638">
        <ele>1525.498612</ele>
        <time>2024-12-06T11:42:14.000Z</time>
      </trkpt>
      <trkpt lat="43.7523" lon="6.77638">
        <ele>1525.498612</ele>
        <time>2024-12-06T11:42:18.000Z</time>
      </trkpt>
      <trkpt lat="43.7523" lon="6.77638">
        <ele>1525.498612</ele>
        <time>2024-12-06T11:42:21.000Z</time>
      </trkpt>
      <trkpt lat="43.7523" lon="6.77638">
        <ele>1525.498612</ele>
        <time>2024-12-06T11:42:31.000Z</time>
      </trkpt>
      <trkpt lat="43.7523" lon="6.77638">
        <ele>1525.498612</ele>
        <time>2024-12-06T11:42:36.000Z</time>
      </trkpt>
      <trkpt lat="43.7523" lon="6.77638">
        <ele>1525.498612</ele>
        <time>2024-12-06T11:42:37.000Z</time>
      </trkpt>
      <trkpt lat="43.7523" lon="6.77638">
        <ele>1525.498612</ele>
        <time>2024-12-06T11:42:50.000Z</time>
      </trkpt>
      <trkpt lat="43.7523" lon="6.77638">
        <ele>1525.498612</ele>
        <time>2024-12-06T11:43:14.000Z</time>
      </trkpt>
      <trkpt lat="43.7523" lon="6.77638">
        <ele>1525.498612</ele>
        <time>2024-12-06T11:43:15.000Z</time>
      </trkpt>
      <trkpt lat="43.7523" lon="6.77638">
        <ele>1525.498612</ele>
        <time>2024-12-06T11:43:31.000Z</time>
      </trkpt>
      <trkpt lat="43.7523" lon="6.77638">
        <ele>1525.498612</ele>
        <time>2024-12-06T11:43:39.000Z</time>
      </trkpt>
      <trkpt lat="43.7523" lon="6.77638">
        <ele>1525.498612</ele>
        <time>2024-12-06T11:43:48.000Z</time>
      </trkpt>
      <trkpt lat="43.7523" lon="6.77638">
        <ele>1525.498612</ele>
        <time>2024-12-06T11:43:58.000Z</time>
      </trkpt>
      <trkpt lat="43.7523" lon="6.77638">
        <ele>1525.498612</ele>
        <time>2024-12-06T11:44:03.000Z</time>
      </trkpt>
      <trkpt lat="43.7523" lon="6.77638">
        <ele>1525.498612</ele>
        <time>2024-12-06T11:44:28.000Z</time>
      </trkpt>
      <trkpt lat="43.7523" lon="6.77638">
        <ele>1525.498612</ele>
        <time>2024-12-06T11:44:37.000Z</time>
      </trkpt>
      <trkpt lat="43.7523" lon="6.77638">
        <ele>1525.498612</ele>
        <time>2024-12-06T11:44:46.000Z</time>
      </trkpt>
      <trkpt lat="43.7523" lon="6.77638">
        <ele>1525.498612</ele>
        <time>2024-12-06T11:44:50.000Z</time>
      </trkpt>
      <trkpt lat="43.7523" lon="6.77638">
        <ele>1525.498612</ele>
        <time>2024-12-06T11:44:54.000Z</time>
      </trkpt>
      <trkpt lat="43.7523" lon="6.77638">
        <ele>1525.498612</ele>
        <time>2024-12-06T11:45:02.000Z</time>
      </trkpt>
      <trkpt lat="43.7523" lon="6.77638">
        <ele>1525.498612</ele>
        <time>2024-12-06T11:45:12.000Z</time>
      </trkpt>
      <trkpt lat="43.7523" lon="6.77638">
        <ele>1525.498612</ele>
        <time>2024-12-06T11:45:19.000Z</time>
      </trkpt>
      <trkpt lat="43.7523" lon="6.77638">
        <ele>1525.498612</ele>
        <time>2024-12-06T11:45:38.000Z</time>
      </trkpt>
      <trkpt lat="43.7523" lon="6.77638">
        <ele>1525.498612</ele>
        <time>2024-12-06T11:45:48.000Z</time>
      </trkpt>
      <trkpt lat="43.7523" lon="6.77637">
        <ele>1525.495912</ele>
        <time>2024-12-06T11:45:56.000Z</time>
      </trkpt>
      <trkpt lat="43.7523" lon="6.77637">
        <ele>1525.495912</ele>
        <time>2024-12-06T11:46:02.000Z</time>
      </trkpt>
      <trkpt lat="43.7523" lon="6.77637">
        <ele>1525.495462</ele>
        <time>2024-12-06T11:46:13.000Z</time>
      </trkpt>
      <trkpt lat="43.7523" lon="6.77637">
        <ele>1525.495462</ele>
        <time>2024-12-06T11:46:31.000Z</time>
      </trkpt>
      <trkpt lat="43.7523" lon="6.77637">
        <ele>1525.495462</ele>
        <time>2024-12-06T11:46:40.000Z</time>
      </trkpt>
      <trkpt lat="43.7523" lon="6.77637">
        <ele>1525.495462</ele>
        <time>2024-12-06T11:46:44.000Z</time>
      </trkpt>
      <trkpt lat="43.7523" lon="6.77637">
        <ele>1525.495462</ele>
        <time>2024-12-06T11:46:48.000Z</time>
      </trkpt>
      <trkpt lat="43.7523" lon="6.77637">
        <ele>1525.495462</ele>
        <time>2024-12-06T11:46:49.000Z</time>
      </trkpt>
      <trkpt lat="43.7523" lon="6.77637">
        <ele>1525.495462</ele>
        <time>2024-12-06T11:46:51.000Z</time>
      </trkpt>
      <trkpt lat="43.7523" lon="6.77637">
        <ele>1525.495462</ele>
        <time>2024-12-06T11:47:02.000Z</time>
      </trkpt>
      <trkpt lat="43.7523" lon="6.77638">
        <ele>1525.491364</ele>
        <time>2024-12-06T11:47:09.000Z</time>
      </trkpt>
      <trkpt lat="43.7523" lon="6.77637">
        <ele>1525.488439</ele>
        <time>2024-12-06T11:47:14.000Z</time>
      </trkpt>
      <trkpt lat="43.7523" lon="6.77637">
        <ele>1525.488439</ele>
        <time>2024-12-06T11:47:15.000Z</time>
      </trkpt>
      <trkpt lat="43.7523" lon="6.77637">
        <ele>1525.485604</ele>
        <time>2024-12-06T11:47:21.000Z</time>
      </trkpt>
      <trkpt lat="43.7523" lon="6.77637">
        <ele>1525.484509</ele>
        <time>2024-12-06T11:47:26.000Z</time>
      </trkpt>
      <trkpt lat="43.7523" lon="6.77637">
        <ele>1525.484509</ele>
        <time>2024-12-06T11:47:27.000Z</time>
      </trkpt>
      <trkpt lat="43.7523" lon="6.77637">
        <ele>1525.484509</ele>
        <time>2024-12-06T11:47:30.000Z</time>
      </trkpt>
      <trkpt lat="43.7523" lon="6.77637">
        <ele>1525.481675</ele>
        <time>2024-12-06T11:47:32.000Z</time>
      </trkpt>
      <trkpt lat="43.75229" lon="6.77638">
        <ele>1525.479103</ele>
        <time>2024-12-06T11:47:34.000Z</time>
      </trkpt>
      <trkpt lat="43.75229" lon="6.77637">
        <ele>1525.475086</ele>
        <time>2024-12-06T11:47:40.000Z</time>
      </trkpt>
      <trkpt lat="43.75229" lon="6.77637">
        <ele>1525.475086</ele>
        <time>2024-12-06T11:47:41.000Z</time>
      </trkpt>
      <trkpt lat="43.75229" lon="6.77637">
        <ele>1525.474317</ele>
        <time>2024-12-06T11:47:43.000Z</time>
      </trkpt>
      <trkpt lat="43.75229" lon="6.77637">
        <ele>1525.472517</ele>
        <time>2024-12-06T11:47:46.000Z</time>
      </trkpt>
      <trkpt lat="43.75229" lon="6.77637">
        <ele>1525.472517</ele>
        <time>2024-12-06T11:47:48.000Z</time>
      </trkpt>
      <trkpt lat="43.75228" lon="6.77636">
        <ele>1525.466565</ele>
        <time>2024-12-06T11:47:50.000Z</time>
      </trkpt>
      <trkpt lat="43.75227" lon="6.77635">
        <ele>1525.459623</ele>
        <time>2024-12-06T11:47:51.000Z</time>
      </trkpt>
      <trkpt lat="43.75227" lon="6.77635">
        <ele>1525.456228</ele>
        <time>2024-12-06T11:47:53.000Z</time>
      </trkpt>
      <trkpt lat="43.75227" lon="6.77635">
        <ele>1525.453154</ele>
        <time>2024-12-06T11:47:54.000Z</time>
      </trkpt>
      <trkpt lat="43.75226" lon="6.77635">
        <ele>1525.446668</ele>
        <time>2024-12-06T11:48:04.000Z</time>
      </trkpt>
      <trkpt lat="43.75225" lon="6.77635">
        <ele>1525.442694</ele>
        <time>2024-12-06T11:48:05.000Z</time>
      </trkpt>
      <trkpt lat="43.75225" lon="6.77635">
        <ele>1525.441599</ele>
        <time>2024-12-06T11:48:06.000Z</time>
      </trkpt>
      <trkpt lat="43.75225" lon="6.77635">
        <ele>1525.441599</ele>
        <time>2024-12-06T11:48:08.000Z</time>
      </trkpt>
      <trkpt lat="43.75225" lon="6.77635">
        <ele>1525.441599</ele>
        <time>2024-12-06T11:48:11.000Z</time>
      </trkpt>
      <trkpt lat="43.75225" lon="6.77635">
        <ele>1525.441599</ele>
        <time>2024-12-06T11:48:12.000Z</time>
      </trkpt>
      <trkpt lat="43.75225" lon="6.77635">
        <ele>1525.441599</ele>
        <time>2024-12-06T11:48:16.000Z</time>
      </trkpt>
      <trkpt lat="43.75225" lon="6.77636">
        <ele>1525.438828</ele>
        <time>2024-12-06T11:48:21.000Z</time>
      </trkpt>
      <trkpt lat="43.75225" lon="6.77636">
        <ele>1525.438828</ele>
        <time>2024-12-06T11:48:32.000Z</time>
      </trkpt>
      <trkpt lat="43.75225" lon="6.77636">
        <ele>1525.438828</ele>
        <time>2024-12-06T11:48:34.000Z</time>
      </trkpt>
      <trkpt lat="43.75225" lon="6.77636">
        <ele>1525.438828</ele>
        <time>2024-12-06T11:48:39.000Z</time>
      </trkpt>
      <trkpt lat="43.75225" lon="6.77636">
        <ele>1525.438828</ele>
        <time>2024-12-06T11:48:45.000Z</time>
      </trkpt>
      <trkpt lat="43.75225" lon="6.77636">
        <ele>1525.438828</ele>
        <time>2024-12-06T11:48:57.000Z</time>
      </trkpt>
      <trkpt lat="43.75225" lon="6.77636">
        <ele>1525.436905</ele>
        <time>2024-12-06T11:49:12.000Z</time>
      </trkpt>
      <trkpt lat="43.75225" lon="6.77636">
        <ele>1525.436905</ele>
        <time>2024-12-06T11:49:13.000Z</time>
      </trkpt>
      <trkpt lat="43.75224" lon="6.77636">
        <ele>1525.431298</ele>
        <time>2024-12-06T11:49:20.000Z</time>
      </trkpt>
      <trkpt lat="43.75224" lon="6.77636">
        <ele>1525.428726</ele>
        <time>2024-12-06T11:49:23.000Z</time>
      </trkpt>
      <trkpt lat="43.75224" lon="6.77636">
        <ele>1525.428726</ele>
        <time>2024-12-06T11:49:33.000Z</time>
      </trkpt>
      <trkpt lat="43.75224" lon="6.77636">
        <ele>1525.428726</ele>
        <time>2024-12-06T11:49:35.000Z</time>
      </trkpt>
      <trkpt lat="43.75225" lon="6.77639">
        <ele>1525.413028</ele>
        <time>2024-12-06T11:49:45.000Z</time>
      </trkpt>
      <trkpt lat="43.75226" lon="6.77642">
        <ele>1525.398048</ele>
        <time>2024-12-06T11:49:46.000Z</time>
      </trkpt>
      <trkpt lat="43.75228" lon="6.77645">
        <ele>1525.381211</ele>
        <time>2024-12-06T11:49:47.000Z</time>
      </trkpt>
      <trkpt lat="43.75229" lon="6.77649">
        <ele>1525.363367</ele>
        <time>2024-12-06T11:49:48.000Z</time>
      </trkpt>
      <trkpt lat="43.75232" lon="6.77656">
        <ele>1525.326659</ele>
        <time>2024-12-06T11:49:50.000Z</time>
      </trkpt>
      <trkpt lat="43.75233" lon="6.77658">
        <ele>1525.312795</ele>
        <time>2024-12-06T11:49:51.000Z</time>
      </trkpt>
      <trkpt lat="43.75234" lon="6.77661">
        <ele>1525.299659</ele>
        <time>2024-12-06T11:49:52.000Z</time>
      </trkpt>
      <trkpt lat="43.75235" lon="6.77663">
        <ele>1525.286798</ele>
        <time>2024-12-06T11:49:53.000Z</time>
      </trkpt>
      <trkpt lat="43.75236" lon="6.77666">
        <ele>1525.274902</ele>
        <time>2024-12-06T11:49:54.000Z</time>
      </trkpt>
      <trkpt lat="43.75236" lon="6.77669">
        <ele>1525.261717</ele>
        <time>2024-12-06T11:49:55.000Z</time>
      </trkpt>
      <trkpt lat="43.75236" lon="6.77672">
        <ele>1525.246214</ele>
        <time>2024-12-06T11:49:56.000Z</time>
      </trkpt>
      <trkpt lat="43.75235" lon="6.77675">
        <ele>1525.229494</ele>
        <time>2024-12-06T11:49:57.000Z</time>
      </trkpt>
      <trkpt lat="43.75234" lon="6.77679">
        <ele>1525.212774</ele>
        <time>2024-12-06T11:49:58.000Z</time>
      </trkpt>
      <trkpt lat="43.75233" lon="6.77682">
        <ele>1525.195596</ele>
        <time>2024-12-06T11:49:59.000Z</time>
      </trkpt>
      <trkpt lat="43.75232" lon="6.77687">
        <ele>1525.174216</ele>
        <time>2024-12-06T11:50:00.000Z</time>
      </trkpt>
      <trkpt lat="43.75227" lon="6.77704">
        <ele>1525.092489</ele>
        <time>2024-12-06T11:50:04.000Z</time>
      </trkpt>
      <trkpt lat="43.75226" lon="6.77708">
        <ele>1525.072162</ele>
        <time>2024-12-06T11:50:05.000Z</time>
      </trkpt>
      <trkpt lat="43.75225" lon="6.77712">
        <ele>1525.053497</ele>
        <time>2024-12-06T11:50:06.000Z</time>
      </trkpt>
      <trkpt lat="43.75224" lon="6.77715">
        <ele>1525.037549</ele>
        <time>2024-12-06T11:50:07.000Z</time>
      </trkpt>
      <trkpt lat="43.75224" lon="6.77719">
        <ele>1525.020898</ele>
        <time>2024-12-06T11:50:08.000Z</time>
      </trkpt>
      <trkpt lat="43.75225" lon="6.77721">
        <ele>1525.011697</ele>
        <time>2024-12-06T11:50:09.000Z</time>
      </trkpt>
      <trkpt lat="43.75226" lon="6.77723">
        <ele>1525.000242</ele>
        <time>2024-12-06T11:50:10.000Z</time>
      </trkpt>
      <trkpt lat="43.75228" lon="6.77723">
        <ele>1524.986966</ele>
        <time>2024-12-06T11:50:11.000Z</time>
      </trkpt>
      <trkpt lat="43.7523" lon="6.77723">
        <ele>1524.975051</ele>
        <time>2024-12-06T11:50:12.000Z</time>
      </trkpt>
      <trkpt lat="43.75232" lon="6.77722">
        <ele>1524.965036</ele>
        <time>2024-12-06T11:50:13.000Z</time>
      </trkpt>
      <trkpt lat="43.75233" lon="6.77721">
        <ele>1524.958372</ele>
        <time>2024-12-06T11:50:14.000Z</time>
      </trkpt>
      <trkpt lat="43.75234" lon="6.7772">
        <ele>1524.951455</ele>
        <time>2024-12-06T11:50:15.000Z</time>
      </trkpt>
      <trkpt lat="43.75235" lon="6.77719">
        <ele>1524.940879</ele>
        <time>2024-12-06T11:50:16.000Z</time>
      </trkpt>
      <trkpt lat="43.75236" lon="6.77719">
        <ele>1524.935749</ele>
        <time>2024-12-06T11:50:17.000Z</time>
      </trkpt>
      <trkpt lat="43.75236" lon="6.77718">
        <ele>1524.929546</ele>
        <time>2024-12-06T11:50:18.000Z</time>
      </trkpt>
      <trkpt lat="43.75237" lon="6.77716">
        <ele>1524.921512</ele>
        <time>2024-12-06T11:50:19.000Z</time>
      </trkpt>
      <trkpt lat="43.75238" lon="6.77715">
        <ele>1524.913826</ele>
        <time>2024-12-06T11:50:20.000Z</time>
      </trkpt>
      <trkpt lat="43.75239" lon="6.77714">
        <ele>1524.908314</ele>
        <time>2024-12-06T11:50:21.000Z</time>
      </trkpt>
      <trkpt lat="43.7524" lon="6.77713">
        <ele>1524.898447</ele>
        <time>2024-12-06T11:50:22.000Z</time>
      </trkpt>
      <trkpt lat="43.75241" lon="6.77711">
        <ele>1524.889436</ele>
        <time>2024-12-06T11:50:23.000Z</time>
      </trkpt>
      <trkpt lat="43.75242" lon="6.7771">
        <ele>1524.880575</ele>
        <time>2024-12-06T11:50:24.000Z</time>
      </trkpt>
      <trkpt lat="43.75243" lon="6.77708">
        <ele>1524.868524</ele>
        <time>2024-12-06T11:50:25.000Z</time>
      </trkpt>
      <trkpt lat="43.75244" lon="6.77705">
        <ele>1524.85535</ele>
        <time>2024-12-06T11:50:26.000Z</time>
      </trkpt>
      <trkpt lat="43.75245" lon="6.77702">
        <ele>1524.840209</ele>
        <time>2024-12-06T11:50:27.000Z</time>
      </trkpt>
      <trkpt lat="43.75247" lon="6.77699">
        <ele>1524.821893</ele>
        <time>2024-12-06T11:50:28.000Z</time>
      </trkpt>
      <trkpt lat="43.75248" lon="6.77696">
        <ele>1524.808008</ele>
        <time>2024-12-06T11:50:29.000Z</time>
      </trkpt>
      <trkpt lat="43.75249" lon="6.77694">
        <ele>1524.794447</ele>
        <time>2024-12-06T11:50:30.000Z</time>
      </trkpt>
      <trkpt lat="43.75251" lon="6.77691">
        <ele>1524.779852</ele>
        <time>2024-12-06T11:50:31.000Z</time>
      </trkpt>
      <trkpt lat="43.75252" lon="6.77688">
        <ele>1524.765616</ele>
        <time>2024-12-06T11:50:32.000Z</time>
      </trkpt>
      <trkpt lat="43.75253" lon="6.77686">
        <ele>1524.751021</ele>
        <time>2024-12-06T11:50:33.000Z</time>
      </trkpt>
      <trkpt lat="43.75255" lon="6.77684">
        <ele>1524.737826</ele>
        <time>2024-12-06T11:50:34.000Z</time>
      </trkpt>
      <trkpt lat="43.75256" lon="6.77682">
        <ele>1524.727606</ele>
        <time>2024-12-06T11:50:35.000Z</time>
      </trkpt>
      <trkpt lat="43.75257" lon="6.77679">
        <ele>1524.711532</ele>
        <time>2024-12-06T11:50:36.000Z</time>
      </trkpt>
      <trkpt lat="43.75258" lon="6.77676">
        <ele>1524.698023</ele>
        <time>2024-12-06T11:50:37.000Z</time>
      </trkpt>
      <trkpt lat="43.7526" lon="6.77674">
        <ele>1524.68488</ele>
        <time>2024-12-06T11:50:38.000Z</time>
      </trkpt>
      <trkpt lat="43.75261" lon="6.77672">
        <ele>1524.673567</ele>
        <time>2024-12-06T11:50:39.000Z</time>
      </trkpt>
      <trkpt lat="43.75262" lon="6.77669">
        <ele>1524.657105</ele>
        <time>2024-12-06T11:50:40.000Z</time>
      </trkpt>
      <trkpt lat="43.75264" lon="6.77667">
        <ele>1524.64322</ele>
        <time>2024-12-06T11:50:41.000Z</time>
      </trkpt>
      <trkpt lat="43.75265" lon="6.77665">
        <ele>1524.63264</ele>
        <time>2024-12-06T11:50:42.000Z</time>
      </trkpt>
      <trkpt lat="43.75266" lon="6.77662">
        <ele>1524.619257</ele>
        <time>2024-12-06T11:50:43.000Z</time>
      </trkpt>
      <trkpt lat="43.75267" lon="6.77659">
        <ele>1524.603308</ele>
        <time>2024-12-06T11:50:44.000Z</time>
      </trkpt>
      <trkpt lat="43.75267" lon="6.77656">
        <ele>1524.591659</ele>
        <time>2024-12-06T11:50:45.000Z</time>
      </trkpt>
      <trkpt lat="43.75269" lon="6.77648">
        <ele>1524.761226</ele>
        <time>2024-12-06T11:50:48.000Z</time>
      </trkpt>
      <trkpt lat="43.75272" lon="6.77625">
        <ele>1525.328582</ele>
        <time>2024-12-06T11:50:54.000Z</time>
      </trkpt>
      <trkpt lat="43.75274" lon="6.77614">
        <ele>1525.63229</ele>
        <time>2024-12-06T11:50:57.000Z</time>
      </trkpt>
      <trkpt lat="43.75276" lon="6.77606">
        <ele>1525.827715</ele>
        <time>2024-12-06T11:50:59.000Z</time>
      </trkpt>
      <trkpt lat="43.75275" lon="6.77598">
        <ele>1526.034438</ele>
        <time>2024-12-06T11:51:01.000Z</time>
      </trkpt>
      <trkpt lat="43.75274" lon="6.77593">
        <ele>1526.153858</ele>
        <time>2024-12-06T11:51:02.000Z</time>
      </trkpt>
      <trkpt lat="43.75272" lon="6.77589">
        <ele>1526.273814</ele>
        <time>2024-12-06T11:51:03.000Z</time>
      </trkpt>
      <trkpt lat="43.75271" lon="6.77585">
        <ele>1526.388241</ele>
        <time>2024-12-06T11:51:04.000Z</time>
      </trkpt>
      <trkpt lat="43.75268" lon="6.77579">
        <ele>1526.565442</ele>
        <time>2024-12-06T11:51:06.000Z</time>
      </trkpt>
      <trkpt lat="43.75267" lon="6.77578">
        <ele>1526.614902</ele>
        <time>2024-12-06T11:51:07.000Z</time>
      </trkpt>
      <trkpt lat="43.75266" lon="6.77577">
        <ele>1526.663887</ele>
        <time>2024-12-06T11:51:08.000Z</time>
      </trkpt>
      <trkpt lat="43.75265" lon="6.77575">
        <ele>1526.702634</ele>
        <time>2024-12-06T11:51:09.000Z</time>
      </trkpt>
      <trkpt lat="43.75263" lon="6.77573">
        <ele>1526.814467</ele>
        <time>2024-12-06T11:51:12.000Z</time>
      </trkpt>
      <trkpt lat="43.75261" lon="6.77571">
        <ele>1526.867454</ele>
        <time>2024-12-06T11:51:13.000Z</time>
      </trkpt>
      <trkpt lat="43.75259" lon="6.77569">
        <ele>1526.957876</ele>
        <time>2024-12-06T11:51:14.000Z</time>
      </trkpt>
      <trkpt lat="43.75258" lon="6.77566">
        <ele>1527.050174</ele>
        <time>2024-12-06T11:51:15.000Z</time>
      </trkpt>
      <trkpt lat="43.75256" lon="6.77564">
        <ele>1527.123828</ele>
        <time>2024-12-06T11:51:16.000Z</time>
      </trkpt>
      <trkpt lat="43.75254" lon="6.77561">
        <ele>1527.235936</ele>
        <time>2024-12-06T11:51:17.000Z</time>
      </trkpt>
      <trkpt lat="43.75252" lon="6.77558">
        <ele>1527.338066</ele>
        <time>2024-12-06T11:51:18.000Z</time>
      </trkpt>
      <trkpt lat="43.75251" lon="6.77555">
        <ele>1527.417531</ele>
        <time>2024-12-06T11:51:19.000Z</time>
      </trkpt>
      <trkpt lat="43.75249" lon="6.77552">
        <ele>1527.525462</ele>
        <time>2024-12-06T11:51:20.000Z</time>
      </trkpt>
      <trkpt lat="43.75247" lon="6.77547">
        <ele>1527.661964</ele>
        <time>2024-12-06T11:51:21.000Z</time>
      </trkpt>
      <trkpt lat="43.75246" lon="6.77544">
        <ele>1527.75555</ele>
        <time>2024-12-06T11:51:22.000Z</time>
      </trkpt>
      <trkpt lat="43.75245" lon="6.77538">
        <ele>1527.893158</ele>
        <time>2024-12-06T11:51:23.000Z</time>
      </trkpt>
      <trkpt lat="43.75244" lon="6.7753">
        <ele>1528.112558</ele>
        <time>2024-12-06T11:51:25.000Z</time>
      </trkpt>
      <trkpt lat="43.75243" lon="6.77524">
        <ele>1528.261788</ele>
        <time>2024-12-06T11:51:26.000Z</time>
      </trkpt>
      <trkpt lat="43.75243" lon="6.7752">
        <ele>1528.362331</ele>
        <time>2024-12-06T11:51:27.000Z</time>
      </trkpt>
      <trkpt lat="43.75243" lon="6.77515">
        <ele>1528.493006</ele>
        <time>2024-12-06T11:51:28.000Z</time>
      </trkpt>
      <trkpt lat="43.75243" lon="6.77509">
        <ele>1528.626192</ele>
        <time>2024-12-06T11:51:29.000Z</time>
      </trkpt>
      <trkpt lat="43.75243" lon="6.77504">
        <ele>1528.751796</ele>
        <time>2024-12-06T11:51:30.000Z</time>
      </trkpt>
      <trkpt lat="43.75243" lon="6.77499">
        <ele>1528.88261</ele>
        <time>2024-12-06T11:51:31.000Z</time>
      </trkpt>
      <trkpt lat="43.75243" lon="6.77494">
        <ele>1529.008406</ele>
        <time>2024-12-06T11:51:32.000Z</time>
      </trkpt>
      <trkpt lat="43.75242" lon="6.77488">
        <ele>1529.159772</ele>
        <time>2024-12-06T11:51:33.000Z</time>
      </trkpt>
      <trkpt lat="43.75242" lon="6.77484">
        <ele>1529.263703</ele>
        <time>2024-12-06T11:51:34.000Z</time>
      </trkpt>
      <trkpt lat="43.75241" lon="6.77478">
        <ele>1529.413902</ele>
        <time>2024-12-06T11:51:35.000Z</time>
      </trkpt>
      <trkpt lat="43.75241" lon="6.77474">
        <ele>1529.518355</ele>
        <time>2024-12-06T11:51:36.000Z</time>
      </trkpt>
      <trkpt lat="43.7524" lon="6.77469">
        <ele>1529.651913</ele>
        <time>2024-12-06T11:51:37.000Z</time>
      </trkpt>
      <trkpt lat="43.75239" lon="6.77463">
        <ele>1529.808309</ele>
        <time>2024-12-06T11:51:38.000Z</time>
      </trkpt>
      <trkpt lat="43.75237" lon="6.77443">
        <ele>1530.315519</ele>
        <time>2024-12-06T11:51:42.000Z</time>
      </trkpt>
      <trkpt lat="43.75237" lon="6.77434">
        <ele>1530.549789</ele>
        <time>2024-12-06T11:51:44.000Z</time>
      </trkpt>
      <trkpt lat="43.75239" lon="6.77418">
        <ele>1530.538888</ele>
        <time>2024-12-06T11:51:47.000Z</time>
      </trkpt>
      <trkpt lat="43.75239" lon="6.77413">
        <ele>1530.22119</ele>
        <time>2024-12-06T11:51:48.000Z</time>
      </trkpt>
      <trkpt lat="43.7524" lon="6.77409">
        <ele>1529.979085</ele>
        <time>2024-12-06T11:51:49.000Z</time>
      </trkpt>
      <trkpt lat="43.75241" lon="6.77394">
        <ele>1529.053479</ele>
        <time>2024-12-06T11:51:52.000Z</time>
      </trkpt>
      <trkpt lat="43.75244" lon="6.77373">
        <ele>1527.708433</ele>
        <time>2024-12-06T11:51:56.000Z</time>
      </trkpt>
      <trkpt lat="43.75244" lon="6.77368">
        <ele>1527.390735</ele>
        <time>2024-12-06T11:51:57.000Z</time>
      </trkpt>
      <trkpt lat="43.75247" lon="6.77354">
        <ele>1526.512714</ele>
        <time>2024-12-06T11:52:00.000Z</time>
      </trkpt>
      <trkpt lat="43.7525" lon="6.7735">
        <ele>1526.171589</ele>
        <time>2024-12-06T11:52:01.000Z</time>
      </trkpt>
      <trkpt lat="43.75253" lon="6.77347">
        <ele>1525.835728</ele>
        <time>2024-12-06T11:52:02.000Z</time>
      </trkpt>
      <trkpt lat="43.75257" lon="6.77346">
        <ele>1525.428332</ele>
        <time>2024-12-06T11:52:03.000Z</time>
      </trkpt>
      <trkpt lat="43.75261" lon="6.77346">
        <ele>1525.159257</ele>
        <time>2024-12-06T11:52:04.000Z</time>
      </trkpt>
      <trkpt lat="43.75265" lon="6.77347">
        <ele>1524.776626</ele>
        <time>2024-12-06T11:52:05.000Z</time>
      </trkpt>
      <trkpt lat="43.75268" lon="6.77347">
        <ele>1524.472656</ele>
        <time>2024-12-06T11:52:06.000Z</time>
      </trkpt>
      <trkpt lat="43.75271" lon="6.77347">
        <ele>1524.229686</ele>
        <time>2024-12-06T11:52:07.000Z</time>
      </trkpt>
      <trkpt lat="43.75275" lon="6.77347">
        <ele>1523.891033</ele>
        <time>2024-12-06T11:52:08.000Z</time>
      </trkpt>
      <trkpt lat="43.75278" lon="6.77346">
        <ele>1523.629504</ele>
        <time>2024-12-06T11:52:09.000Z</time>
      </trkpt>
      <trkpt lat="43.7528" lon="6.77346">
        <ele>1523.451926</ele>
        <time>2024-12-06T11:52:10.000Z</time>
      </trkpt>
      <trkpt lat="43.75282" lon="6.77344">
        <ele>1523.249671</ele>
        <time>2024-12-06T11:52:11.000Z</time>
      </trkpt>
      <trkpt lat="43.75284" lon="6.77343">
        <ele>1523.05229</ele>
        <time>2024-12-06T11:52:12.000Z</time>
      </trkpt>
      <trkpt lat="43.75286" lon="6.77342">
        <ele>1522.87328</ele>
        <time>2024-12-06T11:52:13.000Z</time>
      </trkpt>
      <trkpt lat="43.75288" lon="6.77342">
        <ele>1522.690946</ele>
        <time>2024-12-06T11:52:14.000Z</time>
      </trkpt>
      <trkpt lat="43.75291" lon="6.77342">
        <ele>1522.481182</ele>
        <time>2024-12-06T11:52:15.000Z</time>
      </trkpt>
      <trkpt lat="43.75293" lon="6.77343">
        <ele>1522.247023</ele>
        <time>2024-12-06T11:52:16.000Z</time>
      </trkpt>
      <trkpt lat="43.75296" lon="6.77344">
        <ele>1522.002797</ele>
        <time>2024-12-06T11:52:17.000Z</time>
      </trkpt>
      <trkpt lat="43.753" lon="6.77345">
        <ele>1521.695932</ele>
        <time>2024-12-06T11:52:18.000Z</time>
      </trkpt>
      <trkpt lat="43.75302" lon="6.77345">
        <ele>1521.444285</ele>
        <time>2024-12-06T11:52:19.000Z</time>
      </trkpt>
      <trkpt lat="43.75306" lon="6.77344">
        <ele>1521.151149</ele>
        <time>2024-12-06T11:52:20.000Z</time>
      </trkpt>
      <trkpt lat="43.7531" lon="6.77342">
        <ele>1520.756869</ele>
        <time>2024-12-06T11:52:21.000Z</time>
      </trkpt>
      <trkpt lat="43.75314" lon="6.77339">
        <ele>1520.366633</ele>
        <time>2024-12-06T11:52:22.000Z</time>
      </trkpt>
      <trkpt lat="43.75317" lon="6.77336">
        <ele>1520.034794</ele>
        <time>2024-12-06T11:52:23.000Z</time>
      </trkpt>
      <trkpt lat="43.75321" lon="6.7733">
        <ele>1519.511895</ele>
        <time>2024-12-06T11:52:24.000Z</time>
      </trkpt>
      <trkpt lat="43.75324" lon="6.77323">
        <ele>1519.038348</ele>
        <time>2024-12-06T11:52:25.000Z</time>
      </trkpt>
      <trkpt lat="43.75326" lon="6.77318">
        <ele>1518.649753</ele>
        <time>2024-12-06T11:52:26.000Z</time>
      </trkpt>
      <trkpt lat="43.75329" lon="6.77311">
        <ele>1518.15236</ele>
        <time>2024-12-06T11:52:27.000Z</time>
      </trkpt>
      <trkpt lat="43.75331" lon="6.77304">
        <ele>1517.659847</ele>
        <time>2024-12-06T11:52:28.000Z</time>
      </trkpt>
      <trkpt lat="43.75333" lon="6.77296">
        <ele>1517.167149</ele>
        <time>2024-12-06T11:52:29.000Z</time>
      </trkpt>
      <trkpt lat="43.75336" lon="6.77288">
        <ele>1516.596586</ele>
        <time>2024-12-06T11:52:30.000Z</time>
      </trkpt>
      <trkpt lat="43.7534" lon="6.77277">
        <ele>1515.811167</ele>
        <time>2024-12-06T11:52:32.000Z</time>
      </trkpt>
      <trkpt lat="43.75342" lon="6.77271">
        <ele>1515.418837</ele>
        <time>2024-12-06T11:52:33.000Z</time>
      </trkpt>
      <trkpt lat="43.75344" lon="6.77264">
        <ele>1514.654162</ele>
        <time>2024-12-06T11:52:34.000Z</time>
      </trkpt>
      <trkpt lat="43.75346" lon="6.77258">
        <ele>1513.933764</ele>
        <time>2024-12-06T11:52:35.000Z</time>
      </trkpt>
      <trkpt lat="43.75351" lon="6.77243">
        <ele>1511.876626</ele>
        <time>2024-12-06T11:52:37.000Z</time>
      </trkpt>
      <trkpt lat="43.75352" lon="6.77237">
        <ele>1511.141494</ele>
        <time>2024-12-06T11:52:38.000Z</time>
      </trkpt>
      <trkpt lat="43.75356" lon="6.7722">
        <ele>1509.04184</ele>
        <time>2024-12-06T11:52:40.000Z</time>
      </trkpt>
      <trkpt lat="43.75357" lon="6.77214">
        <ele>1508.272013</ele>
        <time>2024-12-06T11:52:41.000Z</time>
      </trkpt>
      <trkpt lat="43.75358" lon="6.77205">
        <ele>1507.189082</ele>
        <time>2024-12-06T11:52:42.000Z</time>
      </trkpt>
      <trkpt lat="43.75359" lon="6.77198">
        <ele>1506.355557</ele>
        <time>2024-12-06T11:52:43.000Z</time>
      </trkpt>
      <trkpt lat="43.75359" lon="6.77194">
        <ele>1505.776053</ele>
        <time>2024-12-06T11:52:44.000Z</time>
      </trkpt>
      <trkpt lat="43.7536" lon="6.77188">
        <ele>1505.120788</ele>
        <time>2024-12-06T11:52:45.000Z</time>
      </trkpt>
      <trkpt lat="43.75361" lon="6.77182">
        <ele>1504.370582</ele>
        <time>2024-12-06T11:52:46.000Z</time>
      </trkpt>
      <trkpt lat="43.75361" lon="6.77179">
        <ele>1503.953102</ele>
        <time>2024-12-06T11:52:47.000Z</time>
      </trkpt>
      <trkpt lat="43.75362" lon="6.77175">
        <ele>1503.468046</ele>
        <time>2024-12-06T11:52:48.000Z</time>
      </trkpt>
      <trkpt lat="43.75365" lon="6.77172">
        <ele>1502.943355</ele>
        <time>2024-12-06T11:52:49.000Z</time>
      </trkpt>
      <trkpt lat="43.75366" lon="6.77171">
        <ele>1502.67607</ele>
        <time>2024-12-06T11:52:50.000Z</time>
      </trkpt>
      <trkpt lat="43.75368" lon="6.7717">
        <ele>1502.42459</ele>
        <time>2024-12-06T11:52:51.000Z</time>
      </trkpt>
      <trkpt lat="43.75368" lon="6.7717">
        <ele>1502.278848</ele>
        <time>2024-12-06T11:52:52.000Z</time>
      </trkpt>
      <trkpt lat="43.75368" lon="6.7717">
        <ele>1502.278848</ele>
        <time>2024-12-06T11:52:54.000Z</time>
      </trkpt>
      <trkpt lat="43.75368" lon="6.7717">
        <ele>1502.278848</ele>
        <time>2024-12-06T11:52:55.000Z</time>
      </trkpt>
      <trkpt lat="43.75368" lon="6.7717">
        <ele>1502.278848</ele>
        <time>2024-12-06T11:52:58.000Z</time>
      </trkpt>
      <trkpt lat="43.75368" lon="6.7717">
        <ele>1502.278848</ele>
        <time>2024-12-06T11:53:03.000Z</time>
      </trkpt>
      <trkpt lat="43.75368" lon="6.7717">
        <ele>1502.278848</ele>
        <time>2024-12-06T11:53:05.000Z</time>
      </trkpt>
      <trkpt lat="43.75369" lon="6.77167">
        <ele>1501.950906</ele>
        <time>2024-12-06T11:53:11.000Z</time>
      </trkpt>
      <trkpt lat="43.7537" lon="6.77165">
        <ele>1501.657618</ele>
        <time>2024-12-06T11:53:12.000Z</time>
      </trkpt>
      <trkpt lat="43.7537" lon="6.77163">
        <ele>1501.380231</ele>
        <time>2024-12-06T11:53:13.000Z</time>
      </trkpt>
      <trkpt lat="43.75372" lon="6.77159">
        <ele>1500.84321</ele>
        <time>2024-12-06T11:53:14.000Z</time>
      </trkpt>
      <trkpt lat="43.75372" lon="6.77155">
        <ele>1500.379959</ele>
        <time>2024-12-06T11:53:15.000Z</time>
      </trkpt>
      <trkpt lat="43.75373" lon="6.77149">
        <ele>1499.645351</ele>
        <time>2024-12-06T11:53:16.000Z</time>
      </trkpt>
      <trkpt lat="43.75373" lon="6.77143">
        <ele>1499.0043</ele>
        <time>2024-12-06T11:53:17.000Z</time>
      </trkpt>
      <trkpt lat="43.75373" lon="6.77139">
        <ele>1498.536262</ele>
        <time>2024-12-06T11:53:18.000Z</time>
      </trkpt>
      <trkpt lat="43.75373" lon="6.77129">
        <ele>1497.228872</ele>
        <time>2024-12-06T11:53:20.000Z</time>
      </trkpt>
      <trkpt lat="43.75373" lon="6.77124">
        <ele>1496.736861</ele>
        <time>2024-12-06T11:53:21.000Z</time>
      </trkpt>
      <trkpt lat="43.75374" lon="6.77119">
        <ele>1496.026138</ele>
        <time>2024-12-06T11:53:22.000Z</time>
      </trkpt>
      <trkpt lat="43.75374" lon="6.77114">
        <ele>1495.477316</ele>
        <time>2024-12-06T11:53:23.000Z</time>
      </trkpt>
      <trkpt lat="43.75375" lon="6.77109">
        <ele>1494.913508</ele>
        <time>2024-12-06T11:53:24.000Z</time>
      </trkpt>
      <trkpt lat="43.75375" lon="6.771">
        <ele>1493.797995</ele>
        <time>2024-12-06T11:53:26.000Z</time>
      </trkpt>
      <trkpt lat="43.75374" lon="6.77097">
        <ele>1493.341102</ele>
        <time>2024-12-06T11:53:27.000Z</time>
      </trkpt>
      <trkpt lat="43.75373" lon="6.77093">
        <ele>1492.821633</ele>
        <time>2024-12-06T11:53:28.000Z</time>
      </trkpt>
      <trkpt lat="43.75372" lon="6.77088">
        <ele>1492.21767</ele>
        <time>2024-12-06T11:53:29.000Z</time>
      </trkpt>
      <trkpt lat="43.75371" lon="6.77083">
        <ele>1491.67731</ele>
        <time>2024-12-06T11:53:30.000Z</time>
      </trkpt>
      <trkpt lat="43.75371" lon="6.77073">
        <ele>1490.477851</ele>
        <time>2024-12-06T11:53:32.000Z</time>
      </trkpt>
      <trkpt lat="43.75372" lon="6.77067">
        <ele>1489.691938</ele>
        <time>2024-12-06T11:53:33.000Z</time>
      </trkpt>
      <trkpt lat="43.75372" lon="6.77061">
        <ele>1488.936574</ele>
        <time>2024-12-06T11:53:34.000Z</time>
      </trkpt>
      <trkpt lat="43.75373" lon="6.77056">
        <ele>1488.32589</ele>
        <time>2024-12-06T11:53:35.000Z</time>
      </trkpt>
      <trkpt lat="43.75375" lon="6.77052">
        <ele>1487.834903</ele>
        <time>2024-12-06T11:53:36.000Z</time>
      </trkpt>
      <trkpt lat="43.75376" lon="6.77046">
        <ele>1487.110715</ele>
        <time>2024-12-06T11:53:37.000Z</time>
      </trkpt>
      <trkpt lat="43.75379" lon="6.7704">
        <ele>1486.256484</ele>
        <time>2024-12-06T11:53:38.000Z</time>
      </trkpt>
      <trkpt lat="43.7538" lon="6.77037">
        <ele>1485.824056</ele>
        <time>2024-12-06T11:53:39.000Z</time>
      </trkpt>
      <trkpt lat="43.7538" lon="6.77035">
        <ele>1485.543746</ele>
        <time>2024-12-06T11:53:40.000Z</time>
      </trkpt>
      <trkpt lat="43.75381" lon="6.77032">
        <ele>1485.181103</ele>
        <time>2024-12-06T11:53:41.000Z</time>
      </trkpt>
      <trkpt lat="43.75381" lon="6.77029">
        <ele>1484.695954</ele>
        <time>2024-12-06T11:53:42.000Z</time>
      </trkpt>
      <trkpt lat="43.75381" lon="6.77027">
        <ele>1484.302165</ele>
        <time>2024-12-06T11:53:43.000Z</time>
      </trkpt>
      <trkpt lat="43.75382" lon="6.77025">
        <ele>1483.97323</ele>
        <time>2024-12-06T11:53:44.000Z</time>
      </trkpt>
      <trkpt lat="43.75383" lon="6.77014">
        <ele>1482.24044</ele>
        <time>2024-12-06T11:53:48.000Z</time>
      </trkpt>
      <trkpt lat="43.75384" lon="6.77012">
        <ele>1481.807172</ele>
        <time>2024-12-06T11:53:49.000Z</time>
      </trkpt>
      <trkpt lat="43.75384" lon="6.77008">
        <ele>1481.220638</ele>
        <time>2024-12-06T11:53:50.000Z</time>
      </trkpt>
      <trkpt lat="43.75385" lon="6.77004">
        <ele>1480.519286</ele>
        <time>2024-12-06T11:53:51.000Z</time>
      </trkpt>
      <trkpt lat="43.75385" lon="6.7699">
        <ele>1478.291573</ele>
        <time>2024-12-06T11:53:54.000Z</time>
      </trkpt>
      <trkpt lat="43.75386" lon="6.76982">
        <ele>1477.051427</ele>
        <time>2024-12-06T11:53:55.000Z</time>
      </trkpt>
      <trkpt lat="43.75386" lon="6.76977">
        <ele>1476.26237</ele>
        <time>2024-12-06T11:53:56.000Z</time>
      </trkpt>
      <trkpt lat="43.75385" lon="6.76974">
        <ele>1475.694804</ele>
        <time>2024-12-06T11:53:57.000Z</time>
      </trkpt>
      <trkpt lat="43.75385" lon="6.76969">
        <ele>1474.948709</ele>
        <time>2024-12-06T11:53:58.000Z</time>
      </trkpt>
      <trkpt lat="43.75384" lon="6.76964">
        <ele>1474.155446</ele>
        <time>2024-12-06T11:53:59.000Z</time>
      </trkpt>
      <trkpt lat="43.75383" lon="6.76958">
        <ele>1473.121827</ele>
        <time>2024-12-06T11:54:00.000Z</time>
      </trkpt>
      <trkpt lat="43.75381" lon="6.76951">
        <ele>1471.908767</ele>
        <time>2024-12-06T11:54:01.000Z</time>
      </trkpt>
      <trkpt lat="43.75377" lon="6.76937">
        <ele>1469.488573</ele>
        <time>2024-12-06T11:54:03.000Z</time>
      </trkpt>
      <trkpt lat="43.75375" lon="6.7693">
        <ele>1468.231181</ele>
        <time>2024-12-06T11:54:04.000Z</time>
      </trkpt>
      <trkpt lat="43.75373" lon="6.76922">
        <ele>1466.958518</ele>
        <time>2024-12-06T11:54:05.000Z</time>
      </trkpt>
      <trkpt lat="43.7537" lon="6.76908">
        <ele>1464.48618</ele>
        <time>2024-12-06T11:54:07.000Z</time>
      </trkpt>
      <trkpt lat="43.75369" lon="6.76901">
        <ele>1463.329023</ele>
        <time>2024-12-06T11:54:08.000Z</time>
      </trkpt>
      <trkpt lat="43.75369" lon="6.76894">
        <ele>1462.330374</ele>
        <time>2024-12-06T11:54:09.000Z</time>
      </trkpt>
      <trkpt lat="43.7537" lon="6.76889">
        <ele>1461.472256</ele>
        <time>2024-12-06T11:54:10.000Z</time>
      </trkpt>
      <trkpt lat="43.75371" lon="6.76884">
        <ele>1460.678992</ele>
        <time>2024-12-06T11:54:11.000Z</time>
      </trkpt>
      <trkpt lat="43.75371" lon="6.76879">
        <ele>1459.827206</ele>
        <time>2024-12-06T11:54:12.000Z</time>
      </trkpt>
      <trkpt lat="43.75372" lon="6.76873">
        <ele>1458.827811</ele>
        <time>2024-12-06T11:54:13.000Z</time>
      </trkpt>
      <trkpt lat="43.75371" lon="6.76866">
        <ele>1457.667521</ele>
        <time>2024-12-06T11:54:14.000Z</time>
      </trkpt>
      <trkpt lat="43.75371" lon="6.76859">
        <ele>1456.555504</ele>
        <time>2024-12-06T11:54:15.000Z</time>
      </trkpt>
      <trkpt lat="43.75371" lon="6.76853">
        <ele>1455.653448</ele>
        <time>2024-12-06T11:54:16.000Z</time>
      </trkpt>
      <trkpt lat="43.75372" lon="6.76848">
        <ele>1454.86156</ele>
        <time>2024-12-06T11:54:17.000Z</time>
      </trkpt>
      <trkpt lat="43.75372" lon="6.76843">
        <ele>1454.053625</ele>
        <time>2024-12-06T11:54:18.000Z</time>
      </trkpt>
      <trkpt lat="43.75372" lon="6.76839">
        <ele>1453.435239</ele>
        <time>2024-12-06T11:54:19.000Z</time>
      </trkpt>
      <trkpt lat="43.75373" lon="6.7683">
        <ele>1451.867509</ele>
        <time>2024-12-06T11:54:21.000Z</time>
      </trkpt>
      <trkpt lat="43.75373" lon="6.76825">
        <ele>1451.107708</ele>
        <time>2024-12-06T11:54:22.000Z</time>
      </trkpt>
      <trkpt lat="43.75372" lon="6.7682">
        <ele>1450.350528</ele>
        <time>2024-12-06T11:54:23.000Z</time>
      </trkpt>
      <trkpt lat="43.75372" lon="6.76816">
        <ele>1449.576289</ele>
        <time>2024-12-06T11:54:24.000Z</time>
      </trkpt>
      <trkpt lat="43.75372" lon="6.7681">
        <ele>1448.704146</ele>
        <time>2024-12-06T11:54:25.000Z</time>
      </trkpt>
      <trkpt lat="43.75372" lon="6.76804">
        <ele>1447.754056</ele>
        <time>2024-12-06T11:54:26.000Z</time>
      </trkpt>
      <trkpt lat="43.75372" lon="6.76799">
        <ele>1446.845412</ele>
        <time>2024-12-06T11:54:27.000Z</time>
      </trkpt>
      <trkpt lat="43.75373" lon="6.76795">
        <ele>1446.155365</ele>
        <time>2024-12-06T11:54:28.000Z</time>
      </trkpt>
      <trkpt lat="43.75375" lon="6.76792">
        <ele>1445.592002</ele>
        <time>2024-12-06T11:54:29.000Z</time>
      </trkpt>
      <trkpt lat="43.75376" lon="6.76789">
        <ele>1445.17008</ele>
        <time>2024-12-06T11:54:30.000Z</time>
      </trkpt>
      <trkpt lat="43.75378" lon="6.76786">
        <ele>1444.595618</ele>
        <time>2024-12-06T11:54:31.000Z</time>
      </trkpt>
      <trkpt lat="43.75379" lon="6.76783">
        <ele>1444.082884</ele>
        <time>2024-12-06T11:54:32.000Z</time>
      </trkpt>
      <trkpt lat="43.75382" lon="6.76772">
        <ele>1442.601893</ele>
        <time>2024-12-06T11:54:35.000Z</time>
      </trkpt>
      <trkpt lat="43.75383" lon="6.7677">
        <ele>1442.215983</ele>
        <time>2024-12-06T11:54:36.000Z</time>
      </trkpt>
      <trkpt lat="43.75384" lon="6.76767">
        <ele>1441.838258</ele>
        <time>2024-12-06T11:54:37.000Z</time>
      </trkpt>
      <trkpt lat="43.75385" lon="6.76765">
        <ele>1441.547095</ele>
        <time>2024-12-06T11:54:38.000Z</time>
      </trkpt>
      <trkpt lat="43.75387" lon="6.76758">
        <ele>1440.602244</ele>
        <time>2024-12-06T11:54:40.000Z</time>
      </trkpt>
      <trkpt lat="43.75387" lon="6.76754">
        <ele>1439.997139</ele>
        <time>2024-12-06T11:54:41.000Z</time>
      </trkpt>
      <trkpt lat="43.75387" lon="6.76751">
        <ele>1439.593778</ele>
        <time>2024-12-06T11:54:42.000Z</time>
      </trkpt>
      <trkpt lat="43.75387" lon="6.76748">
        <ele>1439.209967</ele>
        <time>2024-12-06T11:54:43.000Z</time>
      </trkpt>
      <trkpt lat="43.75386" lon="6.76745">
        <ele>1438.81936</ele>
        <time>2024-12-06T11:54:44.000Z</time>
      </trkpt>
      <trkpt lat="43.75385" lon="6.76742">
        <ele>1438.441636</ele>
        <time>2024-12-06T11:54:45.000Z</time>
      </trkpt>
      <trkpt lat="43.75384" lon="6.76741">
        <ele>1438.16444</ele>
        <time>2024-12-06T11:54:46.000Z</time>
      </trkpt>
      <trkpt lat="43.75382" lon="6.76739">
        <ele>1437.724494</ele>
        <time>2024-12-06T11:54:47.000Z</time>
      </trkpt>
      <trkpt lat="43.75381" lon="6.76738">
        <ele>1437.411252</ele>
        <time>2024-12-06T11:54:48.000Z</time>
      </trkpt>
      <trkpt lat="43.7538" lon="6.76737">
        <ele>1437.217262</ele>
        <time>2024-12-06T11:54:49.000Z</time>
      </trkpt>
      <trkpt lat="43.75379" lon="6.76737">
        <ele>1437.13475</ele>
        <time>2024-12-06T11:54:51.000Z</time>
      </trkpt>
      <trkpt lat="43.75379" lon="6.76737">
        <ele>1437.13475</ele>
        <time>2024-12-06T11:54:52.000Z</time>
      </trkpt>
      <trkpt lat="43.7538" lon="6.76738">
        <ele>1436.922015</ele>
        <time>2024-12-06T11:55:01.000Z</time>
      </trkpt>
      <trkpt lat="43.7538" lon="6.76739">
        <ele>1436.908914</ele>
        <time>2024-12-06T11:55:04.000Z</time>
      </trkpt>
      <trkpt lat="43.75379" lon="6.76738">
        <ele>1436.864165</ele>
        <time>2024-12-06T11:55:07.000Z</time>
      </trkpt>
      <trkpt lat="43.75379" lon="6.76738">
        <ele>1436.864165</ele>
        <time>2024-12-06T11:55:08.000Z</time>
      </trkpt>
      <trkpt lat="43.75379" lon="6.76738">
        <ele>1436.864165</ele>
        <time>2024-12-06T11:55:10.000Z</time>
      </trkpt>
      <trkpt lat="43.75379" lon="6.76738">
        <ele>1436.864165</ele>
        <time>2024-12-06T11:55:12.000Z</time>
      </trkpt>
      <trkpt lat="43.75379" lon="6.76738">
        <ele>1436.82789</ele>
        <time>2024-12-06T11:55:15.000Z</time>
      </trkpt>
      <trkpt lat="43.75379" lon="6.76738">
        <ele>1436.791614</ele>
        <time>2024-12-06T11:55:17.000Z</time>
      </trkpt>
      <trkpt lat="43.75379" lon="6.76738">
        <ele>1436.791614</ele>
        <time>2024-12-06T11:55:21.000Z</time>
      </trkpt>
      <trkpt lat="43.75379" lon="6.76739">
        <ele>1436.709102</ele>
        <time>2024-12-06T11:55:25.000Z</time>
      </trkpt>
      <trkpt lat="43.75379" lon="6.76739">
        <ele>1436.653647</ele>
        <time>2024-12-06T11:55:26.000Z</time>
      </trkpt>
      <trkpt lat="43.75379" lon="6.76739">
        <ele>1436.537941</ele>
        <time>2024-12-06T11:55:32.000Z</time>
      </trkpt>
      <trkpt lat="43.75378" lon="6.76738">
        <ele>1436.334592</ele>
        <time>2024-12-06T11:55:44.000Z</time>
      </trkpt>
      <trkpt lat="43.75377" lon="6.76737">
        <ele>1436.132513</ele>
        <time>2024-12-06T11:55:46.000Z</time>
      </trkpt>
      <trkpt lat="43.75376" lon="6.76735">
        <ele>1435.845705</ele>
        <time>2024-12-06T11:55:47.000Z</time>
      </trkpt>
      <trkpt lat="43.75373" lon="6.76729">
        <ele>1434.84478</ele>
        <time>2024-12-06T11:55:49.000Z</time>
      </trkpt>
      <trkpt lat="43.75369" lon="6.76719">
        <ele>1433.32953</ele>
        <time>2024-12-06T11:55:51.000Z</time>
      </trkpt>
      <trkpt lat="43.75361" lon="6.76699">
        <ele>1430.398028</ele>
        <time>2024-12-06T11:55:55.000Z</time>
      </trkpt>
      <trkpt lat="43.75358" lon="6.76692">
        <ele>1429.274835</ele>
        <time>2024-12-06T11:55:56.000Z</time>
      </trkpt>
      <trkpt lat="43.75356" lon="6.76685">
        <ele>1428.275194</ele>
        <time>2024-12-06T11:55:57.000Z</time>
      </trkpt>
      <trkpt lat="43.75353" lon="6.76679">
        <ele>1427.263096</ele>
        <time>2024-12-06T11:55:58.000Z</time>
      </trkpt>
      <trkpt lat="43.7535" lon="6.76672">
        <ele>1426.252519</ele>
        <time>2024-12-06T11:55:59.000Z</time>
      </trkpt>
      <trkpt lat="43.75347" lon="6.76666">
        <ele>1425.273786</ele>
        <time>2024-12-06T11:56:00.000Z</time>
      </trkpt>
      <trkpt lat="43.75344" lon="6.76659">
        <ele>1424.220306</ele>
        <time>2024-12-06T11:56:01.000Z</time>
      </trkpt>
      <trkpt lat="43.75338" lon="6.76645">
        <ele>1422.122968</ele>
        <time>2024-12-06T11:56:03.000Z</time>
      </trkpt>
      <trkpt lat="43.75331" lon="6.76632">
        <ele>1419.974421</ele>
        <time>2024-12-06T11:56:05.000Z</time>
      </trkpt>
      <trkpt lat="43.75327" lon="6.76624">
        <ele>1418.752653</ele>
        <time>2024-12-06T11:56:06.000Z</time>
      </trkpt>
      <trkpt lat="43.75319" lon="6.76607">
        <ele>1416.086925</ele>
        <time>2024-12-06T11:56:08.000Z</time>
      </trkpt>
      <trkpt lat="43.75314" lon="6.76598">
        <ele>1414.59855</ele>
        <time>2024-12-06T11:56:09.000Z</time>
      </trkpt>
      <trkpt lat="43.75309" lon="6.76589">
        <ele>1413.026714</ele>
        <time>2024-12-06T11:56:10.000Z</time>
      </trkpt>
      <trkpt lat="43.753" lon="6.7657">
        <ele>1411.679612</ele>
        <time>2024-12-06T11:56:12.000Z</time>
      </trkpt>
      <trkpt lat="43.75297" lon="6.76564">
        <ele>1411.280118</ele>
        <time>2024-12-06T11:56:13.000Z</time>
      </trkpt>
      <trkpt lat="43.75292" lon="6.76556">
        <ele>1410.78301</ele>
        <time>2024-12-06T11:56:14.000Z</time>
      </trkpt>
      <trkpt lat="43.75287" lon="6.76546">
        <ele>1410.163454</ele>
        <time>2024-12-06T11:56:15.000Z</time>
      </trkpt>
      <trkpt lat="43.75283" lon="6.76538">
        <ele>1409.657749</ele>
        <time>2024-12-06T11:56:16.000Z</time>
      </trkpt>
      <trkpt lat="43.75279" lon="6.76531">
        <ele>1409.205157</ele>
        <time>2024-12-06T11:56:17.000Z</time>
      </trkpt>
      <trkpt lat="43.75274" lon="6.76524">
        <ele>1408.751608</ele>
        <time>2024-12-06T11:56:18.000Z</time>
      </trkpt>
      <trkpt lat="43.75271" lon="6.76518">
        <ele>1408.384816</ele>
        <time>2024-12-06T11:56:19.000Z</time>
      </trkpt>
      <trkpt lat="43.75268" lon="6.7651">
        <ele>1407.893023</ele>
        <time>2024-12-06T11:56:20.000Z</time>
      </trkpt>
      <trkpt lat="43.75266" lon="6.76504">
        <ele>1407.557896</ele>
        <time>2024-12-06T11:56:21.000Z</time>
      </trkpt>
      <trkpt lat="43.75263" lon="6.76498">
        <ele>1407.251943</ele>
        <time>2024-12-06T11:56:22.000Z</time>
      </trkpt>
      <trkpt lat="43.7526" lon="6.76494">
        <ele>1406.962105</ele>
        <time>2024-12-06T11:56:23.000Z</time>
      </trkpt>
      <trkpt lat="43.75257" lon="6.76491">
        <ele>1406.6445</ele>
        <time>2024-12-06T11:56:24.000Z</time>
      </trkpt>
      <trkpt lat="43.75254" lon="6.76488">
        <ele>1406.415279</ele>
        <time>2024-12-06T11:56:25.000Z</time>
      </trkpt>
      <trkpt lat="43.75251" lon="6.76483">
        <ele>1406.079497</ele>
        <time>2024-12-06T11:56:26.000Z</time>
      </trkpt>
      <trkpt lat="43.75248" lon="6.7648">
        <ele>1405.844112</ele>
        <time>2024-12-06T11:56:27.000Z</time>
      </trkpt>
      <trkpt lat="43.75245" lon="6.76476">
        <ele>1405.549223</ele>
        <time>2024-12-06T11:56:28.000Z</time>
      </trkpt>
      <trkpt lat="43.75242" lon="6.76472">
        <ele>1405.249206</ele>
        <time>2024-12-06T11:56:29.000Z</time>
      </trkpt>
      <trkpt lat="43.75238" lon="6.76468">
        <ele>1404.937204</ele>
        <time>2024-12-06T11:56:30.000Z</time>
      </trkpt>
      <trkpt lat="43.75235" lon="6.76464">
        <ele>1404.619588</ele>
        <time>2024-12-06T11:56:31.000Z</time>
      </trkpt>
      <trkpt lat="43.75226" lon="6.76457">
        <ele>1403.901381</ele>
        <time>2024-12-06T11:56:33.000Z</time>
      </trkpt>
      <trkpt lat="43.75219" lon="6.76451">
        <ele>1403.313165</ele>
        <time>2024-12-06T11:56:35.000Z</time>
      </trkpt>
      <trkpt lat="43.75214" lon="6.76446">
        <ele>1402.924092</ele>
        <time>2024-12-06T11:56:36.000Z</time>
      </trkpt>
      <trkpt lat="43.7521" lon="6.76442">
        <ele>1402.580259</ele>
        <time>2024-12-06T11:56:37.000Z</time>
      </trkpt>
      <trkpt lat="43.75198" lon="6.76429">
        <ele>1401.521084</ele>
        <time>2024-12-06T11:56:40.000Z</time>
      </trkpt>
      <trkpt lat="43.75194" lon="6.76425">
        <ele>1401.136705</ele>
        <time>2024-12-06T11:56:41.000Z</time>
      </trkpt>
      <trkpt lat="43.75189" lon="6.76421">
        <ele>1400.755396</ele>
        <time>2024-12-06T11:56:42.000Z</time>
      </trkpt>
      <trkpt lat="43.75179" lon="6.76415">
        <ele>1399.992914</ele>
        <time>2024-12-06T11:56:44.000Z</time>
      </trkpt>
      <trkpt lat="43.75174" lon="6.76413">
        <ele>1399.617114</ele>
        <time>2024-12-06T11:56:45.000Z</time>
      </trkpt>
      <trkpt lat="43.75169" lon="6.76411">
        <ele>1399.25179</ele>
        <time>2024-12-06T11:56:46.000Z</time>
      </trkpt>
      <trkpt lat="43.75165" lon="6.7641">
        <ele>1398.979608</ele>
        <time>2024-12-06T11:56:47.000Z</time>
      </trkpt>
      <trkpt lat="43.75161" lon="6.76409">
        <ele>1398.667559</ele>
        <time>2024-12-06T11:56:48.000Z</time>
      </trkpt>
      <trkpt lat="43.75157" lon="6.76408">
        <ele>1398.390281</ele>
        <time>2024-12-06T11:56:49.000Z</time>
      </trkpt>
      <trkpt lat="43.75153" lon="6.76407">
        <ele>1398.096969</ele>
        <time>2024-12-06T11:56:50.000Z</time>
      </trkpt>
      <trkpt lat="43.7515" lon="6.76407">
        <ele>1397.864714</ele>
        <time>2024-12-06T11:56:51.000Z</time>
      </trkpt>
      <trkpt lat="43.75147" lon="6.76406">
        <ele>1397.639585</ele>
        <time>2024-12-06T11:56:52.000Z</time>
      </trkpt>
      <trkpt lat="43.75145" lon="6.76405">
        <ele>1397.493412</ele>
        <time>2024-12-06T11:56:53.000Z</time>
      </trkpt>
      <trkpt lat="43.75144" lon="6.76405">
        <ele>1397.410344</ele>
        <time>2024-12-06T11:56:54.000Z</time>
      </trkpt>
      <trkpt lat="43.75144" lon="6.76404">
        <ele>1397.389135</ele>
        <time>2024-12-06T11:56:56.000Z</time>
      </trkpt>
      <trkpt lat="43.75144" lon="6.76404">
        <ele>1397.359178</ele>
        <time>2024-12-06T11:56:59.000Z</time>
      </trkpt>
      <trkpt lat="43.75139" lon="6.76401">
        <ele>1397.030362</ele>
        <time>2024-12-06T11:57:01.000Z</time>
      </trkpt>
      <trkpt lat="43.75123" lon="6.76393">
        <ele>1395.785417</ele>
        <time>2024-12-06T11:57:05.000Z</time>
      </trkpt>
      <trkpt lat="43.75116" lon="6.76388">
        <ele>1395.173714</ele>
        <time>2024-12-06T11:57:07.000Z</time>
      </trkpt>
      <trkpt lat="43.75113" lon="6.76386">
        <ele>1394.973067</ele>
        <time>2024-12-06T11:57:08.000Z</time>
      </trkpt>
      <trkpt lat="43.75109" lon="6.76385">
        <ele>1394.688867</ele>
        <time>2024-12-06T11:57:09.000Z</time>
      </trkpt>
      <trkpt lat="43.75106" lon="6.76384">
        <ele>1394.433729</ele>
        <time>2024-12-06T11:57:10.000Z</time>
      </trkpt>
      <trkpt lat="43.75101" lon="6.76383">
        <ele>1394.120127</ele>
        <time>2024-12-06T11:57:11.000Z</time>
      </trkpt>
      <trkpt lat="43.75098" lon="6.76382">
        <ele>1393.864989</ele>
        <time>2024-12-06T11:57:12.000Z</time>
      </trkpt>
      <trkpt lat="43.75094" lon="6.76381">
        <ele>1393.613862</ele>
        <time>2024-12-06T11:57:13.000Z</time>
      </trkpt>
      <trkpt lat="43.75091" lon="6.7638">
        <ele>1393.353228</ele>
        <time>2024-12-06T11:57:14.000Z</time>
      </trkpt>
      <trkpt lat="43.75087" lon="6.76378">
        <ele>1393.088129</ele>
        <time>2024-12-06T11:57:15.000Z</time>
      </trkpt>
      <trkpt lat="43.75083" lon="6.76378">
        <ele>1392.791602</ele>
        <time>2024-12-06T11:57:16.000Z</time>
      </trkpt>
      <trkpt lat="43.75074" lon="6.76378">
        <ele>1392.093873</ele>
        <time>2024-12-06T11:57:18.000Z</time>
      </trkpt>
      <trkpt lat="43.75068" lon="6.76378">
        <ele>1391.68309</ele>
        <time>2024-12-06T11:57:19.000Z</time>
      </trkpt>
      <trkpt lat="43.75052" lon="6.76379">
        <ele>1390.553602</ele>
        <time>2024-12-06T11:57:22.000Z</time>
      </trkpt>
      <trkpt lat="43.75046" lon="6.76378">
        <ele>1390.126689</ele>
        <time>2024-12-06T11:57:23.000Z</time>
      </trkpt>
      <trkpt lat="43.75027" lon="6.76372">
        <ele>1388.671084</ele>
        <time>2024-12-06T11:57:26.000Z</time>
      </trkpt>
      <trkpt lat="43.75008" lon="6.76365">
        <ele>1387.260911</ele>
        <time>2024-12-06T11:57:29.000Z</time>
      </trkpt>
      <trkpt lat="43.74999" lon="6.76363">
        <ele>1386.491676</ele>
        <time>2024-12-06T11:57:30.000Z</time>
      </trkpt>
      <trkpt lat="43.74992" lon="6.76362">
        <ele>1385.767915</ele>
        <time>2024-12-06T11:57:31.000Z</time>
      </trkpt>
      <trkpt lat="43.74979" lon="6.76363">
        <ele>1384.56478</ele>
        <time>2024-12-06T11:57:33.000Z</time>
      </trkpt>
      <trkpt lat="43.74976" lon="6.76364">
        <ele>1384.187851</ele>
        <time>2024-12-06T11:57:34.000Z</time>
      </trkpt>
      <trkpt lat="43.74974" lon="6.76364">
        <ele>1384.012735</ele>
        <time>2024-12-06T11:57:35.000Z</time>
      </trkpt>
      <trkpt lat="43.74973" lon="6.76364">
        <ele>1383.980751</ele>
        <time>2024-12-06T11:57:38.000Z</time>
      </trkpt>
      <trkpt lat="43.74973" lon="6.76364">
        <ele>1383.980751</ele>
        <time>2024-12-06T11:57:46.000Z</time>
      </trkpt>
      <trkpt lat="43.74973" lon="6.76364">
        <ele>1383.980751</ele>
        <time>2024-12-06T11:57:54.000Z</time>
      </trkpt>
      <trkpt lat="43.74973" lon="6.76364">
        <ele>1383.980751</ele>
        <time>2024-12-06T11:58:12.000Z</time>
      </trkpt>
      <trkpt lat="43.74973" lon="6.76364">
        <ele>1383.980751</ele>
        <time>2024-12-06T11:58:16.000Z</time>
      </trkpt>
      <trkpt lat="43.74973" lon="6.76364">
        <ele>1383.980751</ele>
        <time>2024-12-06T11:58:22.000Z</time>
      </trkpt>
      <trkpt lat="43.74974" lon="6.76364">
        <ele>1383.939899</ele>
        <time>2024-12-06T11:58:25.000Z</time>
      </trkpt>
      <trkpt lat="43.74974" lon="6.76364">
        <ele>1383.901476</ele>
        <time>2024-12-06T11:58:26.000Z</time>
      </trkpt>
      <trkpt lat="43.74974" lon="6.76364">
        <ele>1383.901476</ele>
        <time>2024-12-06T11:58:31.000Z</time>
      </trkpt>
      <trkpt lat="43.74971" lon="6.76364">
        <ele>1383.619817</ele>
        <time>2024-12-06T11:58:47.000Z</time>
      </trkpt>
      <trkpt lat="43.74969" lon="6.76363">
        <ele>1383.379064</ele>
        <time>2024-12-06T11:58:48.000Z</time>
      </trkpt>
      <trkpt lat="43.74955" lon="6.76357">
        <ele>1381.986702</ele>
        <time>2024-12-06T11:58:52.000Z</time>
      </trkpt>
      <trkpt lat="43.74943" lon="6.76356">
        <ele>1380.788322</ele>
        <time>2024-12-06T11:58:55.000Z</time>
      </trkpt>
      <trkpt lat="43.7494" lon="6.76355">
        <ele>1380.494853</ele>
        <time>2024-12-06T11:58:56.000Z</time>
      </trkpt>
      <trkpt lat="43.74931" lon="6.76354">
        <ele>1379.657747</ele>
        <time>2024-12-06T11:58:58.000Z</time>
      </trkpt>
      <trkpt lat="43.74923" lon="6.76351">
        <ele>1378.896424</ele>
        <time>2024-12-06T11:59:00.000Z</time>
      </trkpt>
      <trkpt lat="43.74921" lon="6.76347">
        <ele>1378.524126</ele>
        <time>2024-12-06T11:59:01.000Z</time>
      </trkpt>
      <trkpt lat="43.7492" lon="6.76335">
        <ele>1377.68478</ele>
        <time>2024-12-06T11:59:03.000Z</time>
      </trkpt>
      <trkpt lat="43.74919" lon="6.76329">
        <ele>1377.203257</ele>
        <time>2024-12-06T11:59:04.000Z</time>
      </trkpt>
      <trkpt lat="43.74918" lon="6.76321">
        <ele>1376.710501</ele>
        <time>2024-12-06T11:59:05.000Z</time>
      </trkpt>
      <trkpt lat="43.74919" lon="6.76314">
        <ele>1376.217465</ele>
        <time>2024-12-06T11:59:06.000Z</time>
      </trkpt>
      <trkpt lat="43.74919" lon="6.76308">
        <ele>1375.786824</ele>
        <time>2024-12-06T11:59:07.000Z</time>
      </trkpt>
      <trkpt lat="43.7492" lon="6.76305">
        <ele>1375.515596</ele>
        <time>2024-12-06T11:59:08.000Z</time>
      </trkpt>
      <trkpt lat="43.74923" lon="6.763">
        <ele>1375.115753</ele>
        <time>2024-12-06T11:59:09.000Z</time>
      </trkpt>
      <trkpt lat="43.74925" lon="6.76298">
        <ele>1374.811229</ele>
        <time>2024-12-06T11:59:10.000Z</time>
      </trkpt>
      <trkpt lat="43.74929" lon="6.76296">
        <ele>1374.429684</ele>
        <time>2024-12-06T11:59:11.000Z</time>
      </trkpt>
      <trkpt lat="43.74933" lon="6.76295">
        <ele>1374.044893</ele>
        <time>2024-12-06T11:59:12.000Z</time>
      </trkpt>
      <trkpt lat="43.74939" lon="6.76299">
        <ele>1373.454691</ele>
        <time>2024-12-06T11:59:14.000Z</time>
      </trkpt>
      <trkpt lat="43.74941" lon="6.76301">
        <ele>1373.175453</ele>
        <time>2024-12-06T11:59:15.000Z</time>
      </trkpt>
      <trkpt lat="43.74944" lon="6.76302">
        <ele>1372.891411</ele>
        <time>2024-12-06T11:59:16.000Z</time>
      </trkpt>
      <trkpt lat="43.74947" lon="6.76301">
        <ele>1372.612069</ele>
        <time>2024-12-06T11:59:17.000Z</time>
      </trkpt>
      <trkpt lat="43.74948" lon="6.76301">
        <ele>1372.469086</ele>
        <time>2024-12-06T11:59:18.000Z</time>
      </trkpt>
      <trkpt lat="43.7495" lon="6.763">
        <ele>1372.320813</ele>
        <time>2024-12-06T11:59:19.000Z</time>
      </trkpt>
      <trkpt lat="43.74951" lon="6.76299">
        <ele>1372.195729</ele>
        <time>2024-12-06T11:59:20.000Z</time>
      </trkpt>
      <trkpt lat="43.74951" lon="6.76299">
        <ele>1372.143384</ele>
        <time>2024-12-06T11:59:22.000Z</time>
      </trkpt>
      <trkpt lat="43.74951" lon="6.76299">
        <ele>1372.143384</ele>
        <time>2024-12-06T11:59:23.000Z</time>
      </trkpt>
      <trkpt lat="43.74954" lon="6.76301">
        <ele>1371.83886</ele>
        <time>2024-12-06T11:59:30.000Z</time>
      </trkpt>
      <trkpt lat="43.74958" lon="6.76302">
        <ele>1371.472181</ele>
        <time>2024-12-06T11:59:32.000Z</time>
      </trkpt>
      <trkpt lat="43.7496" lon="6.76303">
        <ele>1371.295832</ele>
        <time>2024-12-06T11:59:33.000Z</time>
      </trkpt>
      <trkpt lat="43.74966" lon="6.76303">
        <ele>1370.699632</ele>
        <time>2024-12-06T11:59:36.000Z</time>
      </trkpt>
      <trkpt lat="43.74967" lon="6.76304">
        <ele>1370.542074</ele>
        <time>2024-12-06T11:59:37.000Z</time>
      </trkpt>
      <trkpt lat="43.74972" lon="6.76305">
        <ele>1370.142174</ele>
        <time>2024-12-06T11:59:39.000Z</time>
      </trkpt>
      <trkpt lat="43.74981" lon="6.76305">
        <ele>1368.63001</ele>
        <time>2024-12-06T11:59:44.000Z</time>
      </trkpt>
      <trkpt lat="43.74983" lon="6.76305">
        <ele>1368.393504</ele>
        <time>2024-12-06T11:59:45.000Z</time>
      </trkpt>
      <trkpt lat="43.74984" lon="6.76304">
        <ele>1368.101672</ele>
        <time>2024-12-06T11:59:46.000Z</time>
      </trkpt>
      <trkpt lat="43.74985" lon="6.76303">
        <ele>1368.00615</ele>
        <time>2024-12-06T11:59:47.000Z</time>
      </trkpt>
      <trkpt lat="43.7499" lon="6.76299">
        <ele>1366.946757</ele>
        <time>2024-12-06T11:59:55.000Z</time>
      </trkpt>
      <trkpt lat="43.7499" lon="6.76296">
        <ele>1366.642364</ele>
        <time>2024-12-06T11:59:56.000Z</time>
      </trkpt>
      <trkpt lat="43.74991" lon="6.76294">
        <ele>1366.338232</ele>
        <time>2024-12-06T11:59:57.000Z</time>
      </trkpt>
      <trkpt lat="43.74991" lon="6.76292">
        <ele>1366.059664</ele>
        <time>2024-12-06T11:59:58.000Z</time>
      </trkpt>
      <trkpt lat="43.7499" lon="6.7629">
        <ele>1365.813403</ele>
        <time>2024-12-06T11:59:59.000Z</time>
      </trkpt>
      <trkpt lat="43.7499" lon="6.76288">
        <ele>1365.501531</ele>
        <time>2024-12-06T12:00:00.000Z</time>
      </trkpt>
      <trkpt lat="43.74988" lon="6.76286">
        <ele>1365.148891</ele>
        <time>2024-12-06T12:00:01.000Z</time>
      </trkpt>
      <trkpt lat="43.74987" lon="6.76284">
        <ele>1364.774941</ele>
        <time>2024-12-06T12:00:02.000Z</time>
      </trkpt>
      <trkpt lat="43.74985" lon="6.76282">
        <ele>1364.320417</ele>
        <time>2024-12-06T12:00:03.000Z</time>
      </trkpt>
      <trkpt lat="43.74982" lon="6.7628">
        <ele>1363.878775</ele>
        <time>2024-12-06T12:00:04.000Z</time>
      </trkpt>
      <trkpt lat="43.74979" lon="6.76275">
        <ele>1363.023408</ele>
        <time>2024-12-06T12:00:06.000Z</time>
      </trkpt>
      <trkpt lat="43.74978" lon="6.76272">
        <ele>1362.58121</ele>
        <time>2024-12-06T12:00:07.000Z</time>
      </trkpt>
      <trkpt lat="43.74976" lon="6.7627">
        <ele>1362.22196</ele>
        <time>2024-12-06T12:00:08.000Z</time>
      </trkpt>
      <trkpt lat="43.74975" lon="6.76266">
        <ele>1361.649965</ele>
        <time>2024-12-06T12:00:10.000Z</time>
      </trkpt>
      <trkpt lat="43.74976" lon="6.76264">
        <ele>1361.368562</ele>
        <time>2024-12-06T12:00:11.000Z</time>
      </trkpt>
      <trkpt lat="43.74978" lon="6.76262">
        <ele>1361.043363</ele>
        <time>2024-12-06T12:00:12.000Z</time>
      </trkpt>
      <trkpt lat="43.74983" lon="6.7626">
        <ele>1360.082544</ele>
        <time>2024-12-06T12:00:14.000Z</time>
      </trkpt>
      <trkpt lat="43.74984" lon="6.7626">
        <ele>1359.941743</ele>
        <time>2024-12-06T12:00:15.000Z</time>
      </trkpt>
      <trkpt lat="43.74984" lon="6.7626">
        <ele>1359.941743</ele>
        <time>2024-12-06T12:00:16.000Z</time>
      </trkpt>
      <trkpt lat="43.74984" lon="6.7626">
        <ele>1359.941743</ele>
        <time>2024-12-06T12:00:17.000Z</time>
      </trkpt>
      <trkpt lat="43.74986" lon="6.76258">
        <ele>1359.377394</ele>
        <time>2024-12-06T12:00:31.000Z</time>
      </trkpt>
      <trkpt lat="43.75" lon="6.76248">
        <ele>1356.745845</ele>
        <time>2024-12-06T12:00:35.000Z</time>
      </trkpt>
      <trkpt lat="43.75005" lon="6.76244">
        <ele>1355.761345</ele>
        <time>2024-12-06T12:00:36.000Z</time>
      </trkpt>
      <trkpt lat="43.7501" lon="6.7624">
        <ele>1354.666371</ele>
        <time>2024-12-06T12:00:37.000Z</time>
      </trkpt>
      <trkpt lat="43.75014" lon="6.76236">
        <ele>1353.751149</ele>
        <time>2024-12-06T12:00:38.000Z</time>
      </trkpt>
      <trkpt lat="43.75018" lon="6.76231">
        <ele>1352.969433</ele>
        <time>2024-12-06T12:00:39.000Z</time>
      </trkpt>
      <trkpt lat="43.75021" lon="6.76226">
        <ele>1352.12546</ele>
        <time>2024-12-06T12:00:40.000Z</time>
      </trkpt>
      <trkpt lat="43.75025" lon="6.76222">
        <ele>1351.223824</ele>
        <time>2024-12-06T12:00:41.000Z</time>
      </trkpt>
      <trkpt lat="43.7503" lon="6.76219">
        <ele>1350.221117</ele>
        <time>2024-12-06T12:00:42.000Z</time>
      </trkpt>
      <trkpt lat="43.75035" lon="6.76215">
        <ele>1349.197191</ele>
        <time>2024-12-06T12:00:43.000Z</time>
      </trkpt>
      <trkpt lat="43.75039" lon="6.76213">
        <ele>1348.418645</ele>
        <time>2024-12-06T12:00:44.000Z</time>
      </trkpt>
      <trkpt lat="43.75047" lon="6.76211">
        <ele>1347.146014</ele>
        <time>2024-12-06T12:00:45.000Z</time>
      </trkpt>
      <trkpt lat="43.75052" lon="6.76211">
        <ele>1346.144871</ele>
        <time>2024-12-06T12:00:46.000Z</time>
      </trkpt>
      <trkpt lat="43.75056" lon="6.76211">
        <ele>1345.460781</ele>
        <time>2024-12-06T12:00:47.000Z</time>
      </trkpt>
      <trkpt lat="43.75061" lon="6.76211">
        <ele>1344.63654</ele>
        <time>2024-12-06T12:00:48.000Z</time>
      </trkpt>
      <trkpt lat="43.75064" lon="6.76211">
        <ele>1344.005505</ele>
        <time>2024-12-06T12:00:49.000Z</time>
      </trkpt>
      <trkpt lat="43.75067" lon="6.7621">
        <ele>1343.489501</ele>
        <time>2024-12-06T12:00:50.000Z</time>
      </trkpt>
      <trkpt lat="43.7507" lon="6.7621">
        <ele>1343.049639</ele>
        <time>2024-12-06T12:00:51.000Z</time>
      </trkpt>
      <trkpt lat="43.75073" lon="6.76209">
        <ele>1342.550895</ele>
        <time>2024-12-06T12:00:52.000Z</time>
      </trkpt>
      <trkpt lat="43.75074" lon="6.76209">
        <ele>1342.306391</ele>
        <time>2024-12-06T12:00:53.000Z</time>
      </trkpt>
      <trkpt lat="43.75075" lon="6.76207">
        <ele>1342.022986</ele>
        <time>2024-12-06T12:00:54.000Z</time>
      </trkpt>
      <trkpt lat="43.75076" lon="6.76206">
        <ele>1341.766215</ele>
        <time>2024-12-06T12:00:55.000Z</time>
      </trkpt>
      <trkpt lat="43.75076" lon="6.76203">
        <ele>1341.435142</ele>
        <time>2024-12-06T12:00:56.000Z</time>
      </trkpt>
      <trkpt lat="43.75076" lon="6.762">
        <ele>1341.029579</ele>
        <time>2024-12-06T12:00:57.000Z</time>
      </trkpt>
      <trkpt lat="43.75077" lon="6.76196">
        <ele>1340.577827</ele>
        <time>2024-12-06T12:00:58.000Z</time>
      </trkpt>
      <trkpt lat="43.75079" lon="6.76193">
        <ele>1340.054249</ele>
        <time>2024-12-06T12:00:59.000Z</time>
      </trkpt>
      <trkpt lat="43.75082" lon="6.7619">
        <ele>1339.418911</ele>
        <time>2024-12-06T12:01:00.000Z</time>
      </trkpt>
      <trkpt lat="43.75084" lon="6.76189">
        <ele>1338.892638</ele>
        <time>2024-12-06T12:01:01.000Z</time>
      </trkpt>
      <trkpt lat="43.75087" lon="6.76187">
        <ele>1338.466217</ele>
        <time>2024-12-06T12:01:02.000Z</time>
      </trkpt>
      <trkpt lat="43.75089" lon="6.76185">
        <ele>1337.924211</ele>
        <time>2024-12-06T12:01:03.000Z</time>
      </trkpt>
      <trkpt lat="43.75091" lon="6.76183">
        <ele>1337.490649</ele>
        <time>2024-12-06T12:01:04.000Z</time>
      </trkpt>
      <trkpt lat="43.75093" lon="6.76181">
        <ele>1337.154892</ele>
        <time>2024-12-06T12:01:05.000Z</time>
      </trkpt>
      <trkpt lat="43.75094" lon="6.7618">
        <ele>1336.81532</ele>
        <time>2024-12-06T12:01:06.000Z</time>
      </trkpt>
      <trkpt lat="43.75096" lon="6.76178">
        <ele>1336.464242</ele>
        <time>2024-12-06T12:01:07.000Z</time>
      </trkpt>
      <trkpt lat="43.75097" lon="6.76177">
        <ele>1336.139071</ele>
        <time>2024-12-06T12:01:08.000Z</time>
      </trkpt>
      <trkpt lat="43.75099" lon="6.76175">
        <ele>1335.697956</ele>
        <time>2024-12-06T12:01:09.000Z</time>
      </trkpt>
      <trkpt lat="43.75107" lon="6.76172">
        <ele>1334.330879</ele>
        <time>2024-12-06T12:01:11.000Z</time>
      </trkpt>
      <trkpt lat="43.75115" lon="6.76176">
        <ele>1332.850651</ele>
        <time>2024-12-06T12:01:13.000Z</time>
      </trkpt>
      <trkpt lat="43.75118" lon="6.76177">
        <ele>1332.310941</ele>
        <time>2024-12-06T12:01:14.000Z</time>
      </trkpt>
      <trkpt lat="43.75121" lon="6.76178">
        <ele>1331.80279</ele>
        <time>2024-12-06T12:01:15.000Z</time>
      </trkpt>
      <trkpt lat="43.75124" lon="6.76179">
        <ele>1331.320074</ele>
        <time>2024-12-06T12:01:16.000Z</time>
      </trkpt>
      <trkpt lat="43.75125" lon="6.76179">
        <ele>1330.985226</ele>
        <time>2024-12-06T12:01:17.000Z</time>
      </trkpt>
      <trkpt lat="43.75126" lon="6.76179">
        <ele>1330.889464</ele>
        <time>2024-12-06T12:01:18.000Z</time>
      </trkpt>
      <trkpt lat="43.75126" lon="6.76179">
        <ele>1330.889464</ele>
        <time>2024-12-06T12:01:23.000Z</time>
      </trkpt>
      <trkpt lat="43.75126" lon="6.7618">
        <ele>1330.847524</ele>
        <time>2024-12-06T12:01:31.000Z</time>
      </trkpt>
      <trkpt lat="43.7513" lon="6.7618">
        <ele>1330.161712</ele>
        <time>2024-12-06T12:01:34.000Z</time>
      </trkpt>
      <trkpt lat="43.75146" lon="6.76177">
        <ele>1327.263704</ele>
        <time>2024-12-06T12:01:39.000Z</time>
      </trkpt>
      <trkpt lat="43.75156" lon="6.76177">
        <ele>1325.504172</ele>
        <time>2024-12-06T12:01:41.000Z</time>
      </trkpt>
      <trkpt lat="43.75161" lon="6.76176">
        <ele>1324.705183</ele>
        <time>2024-12-06T12:01:42.000Z</time>
      </trkpt>
      <trkpt lat="43.75165" lon="6.76175">
        <ele>1323.954031</ele>
        <time>2024-12-06T12:01:43.000Z</time>
      </trkpt>
      <trkpt lat="43.75168" lon="6.76174">
        <ele>1323.48307</ele>
        <time>2024-12-06T12:01:44.000Z</time>
      </trkpt>
      <trkpt lat="43.7517" lon="6.76172">
        <ele>1323.046505</ele>
        <time>2024-12-06T12:01:45.000Z</time>
      </trkpt>
      <trkpt lat="43.75171" lon="6.7617">
        <ele>1322.685708</ele>
        <time>2024-12-06T12:01:46.000Z</time>
      </trkpt>
      <trkpt lat="43.75173" lon="6.76168">
        <ele>1322.253338</ele>
        <time>2024-12-06T12:01:47.000Z</time>
      </trkpt>
      <trkpt lat="43.75174" lon="6.76165">
        <ele>1321.851951</ele>
        <time>2024-12-06T12:01:48.000Z</time>
      </trkpt>
      <trkpt lat="43.75175" lon="6.76162">
        <ele>1321.458469</ele>
        <time>2024-12-06T12:01:49.000Z</time>
      </trkpt>
      <trkpt lat="43.75175" lon="6.7616">
        <ele>1321.199181</ele>
        <time>2024-12-06T12:01:50.000Z</time>
      </trkpt>
      <trkpt lat="43.75176" lon="6.76157">
        <ele>1320.753515</ele>
        <time>2024-12-06T12:01:51.000Z</time>
      </trkpt>
      <trkpt lat="43.75176" lon="6.76154">
        <ele>1320.394936</ele>
        <time>2024-12-06T12:01:52.000Z</time>
      </trkpt>
      <trkpt lat="43.75177" lon="6.76152">
        <ele>1320.055301</ele>
        <time>2024-12-06T12:01:53.000Z</time>
      </trkpt>
      <trkpt lat="43.75179" lon="6.7615">
        <ele>1319.723103</ele>
        <time>2024-12-06T12:01:54.000Z</time>
      </trkpt>
      <trkpt lat="43.75179" lon="6.76148">
        <ele>1319.463609</ele>
        <time>2024-12-06T12:01:55.000Z</time>
      </trkpt>
      <trkpt lat="43.7518" lon="6.76147">
        <ele>1319.257493</ele>
        <time>2024-12-06T12:01:56.000Z</time>
      </trkpt>
      <trkpt lat="43.7518" lon="6.76144">
        <ele>1318.898913</ele>
        <time>2024-12-06T12:01:57.000Z</time>
      </trkpt>
      <trkpt lat="43.75181" lon="6.76138">
        <ele>1318.169612</ele>
        <time>2024-12-06T12:01:59.000Z</time>
      </trkpt>
      <trkpt lat="43.75182" lon="6.76131">
        <ele>1317.190782</ele>
        <time>2024-12-06T12:02:01.000Z</time>
      </trkpt>
      <trkpt lat="43.75185" lon="6.7612">
        <ele>1315.660345</ele>
        <time>2024-12-06T12:02:03.000Z</time>
      </trkpt>
      <trkpt lat="43.75192" lon="6.76114">
        <ele>1314.316722</ele>
        <time>2024-12-06T12:02:05.000Z</time>
      </trkpt>
      <trkpt lat="43.75196" lon="6.76115">
        <ele>1313.602438</ele>
        <time>2024-12-06T12:02:06.000Z</time>
      </trkpt>
      <trkpt lat="43.752" lon="6.76117">
        <ele>1312.894431</ele>
        <time>2024-12-06T12:02:07.000Z</time>
      </trkpt>
      <trkpt lat="43.75203" lon="6.76118">
        <ele>1312.300796</ele>
        <time>2024-12-06T12:02:08.000Z</time>
      </trkpt>
      <trkpt lat="43.75204" lon="6.76118">
        <ele>1312.037203</ele>
        <time>2024-12-06T12:02:09.000Z</time>
      </trkpt>
      <trkpt lat="43.75205" lon="6.76118">
        <ele>1311.874527</ele>
        <time>2024-12-06T12:02:10.000Z</time>
      </trkpt>
      <trkpt lat="43.75205" lon="6.76118">
        <ele>1311.874527</ele>
        <time>2024-12-06T12:02:11.000Z</time>
      </trkpt>
      <trkpt lat="43.75205" lon="6.76118">
        <ele>1311.874527</ele>
        <time>2024-12-06T12:02:13.000Z</time>
      </trkpt>
      <trkpt lat="43.75205" lon="6.76118">
        <ele>1311.874527</ele>
        <time>2024-12-06T12:02:20.000Z</time>
      </trkpt>
      <trkpt lat="43.75205" lon="6.76118">
        <ele>1311.874527</ele>
        <time>2024-12-06T12:02:29.000Z</time>
      </trkpt>
      <trkpt lat="43.75205" lon="6.76118">
        <ele>1311.874527</ele>
        <time>2024-12-06T12:02:43.000Z</time>
      </trkpt>
      <trkpt lat="43.75205" lon="6.76118">
        <ele>1311.874527</ele>
        <time>2024-12-06T12:02:47.000Z</time>
      </trkpt>
      <trkpt lat="43.75204" lon="6.76118">
        <ele>1311.708421</ele>
        <time>2024-12-06T12:02:53.000Z</time>
      </trkpt>
      <trkpt lat="43.75204" lon="6.76118">
        <ele>1311.708421</ele>
        <time>2024-12-06T12:02:57.000Z</time>
      </trkpt>
      <trkpt lat="43.75204" lon="6.76117">
        <ele>1311.600962</ele>
        <time>2024-12-06T12:03:03.000Z</time>
      </trkpt>
      <trkpt lat="43.75204" lon="6.76117">
        <ele>1311.600962</ele>
        <time>2024-12-06T12:03:15.000Z</time>
      </trkpt>
      <trkpt lat="43.75204" lon="6.76117">
        <ele>1311.600962</ele>
        <time>2024-12-06T12:03:25.000Z</time>
      </trkpt>
      <trkpt lat="43.75204" lon="6.76117">
        <ele>1311.600962</ele>
        <time>2024-12-06T12:03:33.000Z</time>
      </trkpt>
      <trkpt lat="43.75204" lon="6.76117">
        <ele>1311.600962</ele>
        <time>2024-12-06T12:03:34.000Z</time>
      </trkpt>
      <trkpt lat="43.75204" lon="6.76117">
        <ele>1311.600962</ele>
        <time>2024-12-06T12:03:40.000Z</time>
      </trkpt>
      <trkpt lat="43.75204" lon="6.76117">
        <ele>1311.600962</ele>
        <time>2024-12-06T12:03:50.000Z</time>
      </trkpt>
      <trkpt lat="43.75205" lon="6.76117">
        <ele>1311.548244</ele>
        <time>2024-12-06T12:03:55.000Z</time>
      </trkpt>
      <trkpt lat="43.75205" lon="6.76117">
        <ele>1311.548244</ele>
        <time>2024-12-06T12:04:05.000Z</time>
      </trkpt>
      <trkpt lat="43.75205" lon="6.76117">
        <ele>1311.548244</ele>
        <time>2024-12-06T12:04:12.000Z</time>
      </trkpt>
      <trkpt lat="43.75205" lon="6.76117">
        <ele>1311.548244</ele>
        <time>2024-12-06T12:04:22.000Z</time>
      </trkpt>
      <trkpt lat="43.75205" lon="6.76117">
        <ele>1311.548244</ele>
        <time>2024-12-06T12:04:23.000Z</time>
      </trkpt>
      <trkpt lat="43.75205" lon="6.76117">
        <ele>1311.548244</ele>
        <time>2024-12-06T12:04:38.000Z</time>
      </trkpt>
      <trkpt lat="43.75205" lon="6.76117">
        <ele>1311.548244</ele>
        <time>2024-12-06T12:04:50.000Z</time>
      </trkpt>
      <trkpt lat="43.75204" lon="6.76114">
        <ele>1311.123499</ele>
        <time>2024-12-06T12:04:54.000Z</time>
      </trkpt>
      <trkpt lat="43.75202" lon="6.76109">
        <ele>1310.423209</ele>
        <time>2024-12-06T12:04:56.000Z</time>
      </trkpt>
      <trkpt lat="43.75197" lon="6.76089">
        <ele>1307.641471</ele>
        <time>2024-12-06T12:05:01.000Z</time>
      </trkpt>
      <trkpt lat="43.75196" lon="6.76085">
        <ele>1307.133423</ele>
        <time>2024-12-06T12:05:02.000Z</time>
      </trkpt>
      <trkpt lat="43.75196" lon="6.76063">
        <ele>1305.848595</ele>
        <time>2024-12-06T12:05:06.000Z</time>
      </trkpt>
      <trkpt lat="43.75198" lon="6.76041">
        <ele>1304.783306</ele>
        <time>2024-12-06T12:05:10.000Z</time>
      </trkpt>
      <trkpt lat="43.75199" lon="6.76035">
        <ele>1304.519156</ele>
        <time>2024-12-06T12:05:11.000Z</time>
      </trkpt>
      <trkpt lat="43.75199" lon="6.76031">
        <ele>1304.299944</ele>
        <time>2024-12-06T12:05:12.000Z</time>
      </trkpt>
      <trkpt lat="43.75201" lon="6.76006">
        <ele>1303.116837</ele>
        <time>2024-12-06T12:05:16.000Z</time>
      </trkpt>
      <trkpt lat="43.75201" lon="6.76">
        <ele>1302.832454</ele>
        <time>2024-12-06T12:05:17.000Z</time>
      </trkpt>
      <trkpt lat="43.75201" lon="6.75994">
        <ele>1302.525557</ele>
        <time>2024-12-06T12:05:18.000Z</time>
      </trkpt>
      <trkpt lat="43.75201" lon="6.7598">
        <ele>1301.860287</ele>
        <time>2024-12-06T12:05:20.000Z</time>
      </trkpt>
      <trkpt lat="43.75202" lon="6.75969">
        <ele>1301.309951</ele>
        <time>2024-12-06T12:05:22.000Z</time>
      </trkpt>
      <trkpt lat="43.75202" lon="6.75965">
        <ele>1301.13547</ele>
        <time>2024-12-06T12:05:23.000Z</time>
      </trkpt>
      <trkpt lat="43.75202" lon="6.75962">
        <ele>1300.999183</ele>
        <time>2024-12-06T12:05:24.000Z</time>
      </trkpt>
      <trkpt lat="43.75203" lon="6.7596">
        <ele>1300.892423</ele>
        <time>2024-12-06T12:05:25.000Z</time>
      </trkpt>
      <trkpt lat="43.75203" lon="6.75959">
        <ele>1300.853332</ele>
        <time>2024-12-06T12:05:26.000Z</time>
      </trkpt>
      <trkpt lat="43.75203" lon="6.75959">
        <ele>1300.807995</ele>
        <time>2024-12-06T12:05:30.000Z</time>
      </trkpt>
      <trkpt lat="43.75202" lon="6.75955">
        <ele>1300.634398</ele>
        <time>2024-12-06T12:05:36.000Z</time>
      </trkpt>
      <trkpt lat="43.75202" lon="6.75953">
        <ele>1300.541952</ele>
        <time>2024-12-06T12:05:37.000Z</time>
      </trkpt>
      <trkpt lat="43.75201" lon="6.75948">
        <ele>1300.262617</ele>
        <time>2024-12-06T12:05:39.000Z</time>
      </trkpt>
      <trkpt lat="43.75202" lon="6.75945">
        <ele>1300.127147</ele>
        <time>2024-12-06T12:05:40.000Z</time>
      </trkpt>
      <trkpt lat="43.75201" lon="6.75941">
        <ele>1299.928732</ele>
        <time>2024-12-06T12:05:41.000Z</time>
      </trkpt>
      <trkpt lat="43.75199" lon="6.75932">
        <ele>1299.466819</ele>
        <time>2024-12-06T12:05:43.000Z</time>
      </trkpt>
      <trkpt lat="43.75197" lon="6.7592">
        <ele>1298.883005</ele>
        <time>2024-12-06T12:05:45.000Z</time>
      </trkpt>
      <trkpt lat="43.75193" lon="6.75903">
        <ele>1298.0319</ele>
        <time>2024-12-06T12:05:48.000Z</time>
      </trkpt>
      <trkpt lat="43.75191" lon="6.75883">
        <ele>1297.077884</ele>
        <time>2024-12-06T12:05:51.000Z</time>
      </trkpt>
      <trkpt lat="43.75184" lon="6.75848">
        <ele>1295.323527</ele>
        <time>2024-12-06T12:05:56.000Z</time>
      </trkpt>
      <trkpt lat="43.75182" lon="6.75843">
        <ele>1295.023997</ele>
        <time>2024-12-06T12:05:57.000Z</time>
      </trkpt>
      <trkpt lat="43.75181" lon="6.75838">
        <ele>1294.794084</ele>
        <time>2024-12-06T12:05:58.000Z</time>
      </trkpt>
      <trkpt lat="43.7518" lon="6.75834">
        <ele>1294.88391</ele>
        <time>2024-12-06T12:05:59.000Z</time>
      </trkpt>
      <trkpt lat="43.75179" lon="6.7583">
        <ele>1294.98112</ele>
        <time>2024-12-06T12:06:00.000Z</time>
      </trkpt>
      <trkpt lat="43.75177" lon="6.75826">
        <ele>1295.097286</ele>
        <time>2024-12-06T12:06:01.000Z</time>
      </trkpt>
      <trkpt lat="43.75175" lon="6.75822">
        <ele>1295.211605</ele>
        <time>2024-12-06T12:06:02.000Z</time>
      </trkpt>
      <trkpt lat="43.7517" lon="6.7581">
        <ele>1295.515847</ele>
        <time>2024-12-06T12:06:05.000Z</time>
      </trkpt>
      <trkpt lat="43.75168" lon="6.75807">
        <ele>1295.612254</ele>
        <time>2024-12-06T12:06:06.000Z</time>
      </trkpt>
      <trkpt lat="43.75166" lon="6.75804">
        <ele>1295.697826</ele>
        <time>2024-12-06T12:06:07.000Z</time>
      </trkpt>
      <trkpt lat="43.75164" lon="6.75802">
        <ele>1295.782245</ele>
        <time>2024-12-06T12:06:08.000Z</time>
      </trkpt>
      <trkpt lat="43.75162" lon="6.758">
        <ele>1295.860018</ele>
        <time>2024-12-06T12:06:09.000Z</time>
      </trkpt>
      <trkpt lat="43.7516" lon="6.75798">
        <ele>1295.925329</ele>
        <time>2024-12-06T12:06:10.000Z</time>
      </trkpt>
      <trkpt lat="43.75159" lon="6.75797">
        <ele>1295.972539</ele>
        <time>2024-12-06T12:06:11.000Z</time>
      </trkpt>
      <trkpt lat="43.75158" lon="6.75796">
        <ele>1295.987086</ele>
        <time>2024-12-06T12:06:12.000Z</time>
      </trkpt>
      <trkpt lat="43.75158" lon="6.75796">
        <ele>1295.987086</ele>
        <time>2024-12-06T12:06:13.000Z</time>
      </trkpt>
      <trkpt lat="43.75158" lon="6.75796">
        <ele>1295.987086</ele>
        <time>2024-12-06T12:06:19.000Z</time>
      </trkpt>
      <trkpt lat="43.75158" lon="6.75796">
        <ele>1295.987086</ele>
        <time>2024-12-06T12:06:25.000Z</time>
      </trkpt>
      <trkpt lat="43.75158" lon="6.75796">
        <ele>1295.987086</ele>
        <time>2024-12-06T12:06:26.000Z</time>
      </trkpt>
      <trkpt lat="43.75158" lon="6.75796">
        <ele>1295.987086</ele>
        <time>2024-12-06T12:06:28.000Z</time>
      </trkpt>
      <trkpt lat="43.7516" lon="6.75797">
        <ele>1296.024534</ele>
        <time>2024-12-06T12:06:35.000Z</time>
      </trkpt>
      <trkpt lat="43.7516" lon="6.75797">
        <ele>1296.034851</ele>
        <time>2024-12-06T12:06:37.000Z</time>
      </trkpt>
      <trkpt lat="43.7516" lon="6.75797">
        <ele>1296.034851</ele>
        <time>2024-12-06T12:06:39.000Z</time>
      </trkpt>
      <trkpt lat="43.75162" lon="6.75798">
        <ele>1296.088359</ele>
        <time>2024-12-06T12:06:41.000Z</time>
      </trkpt>
      <trkpt lat="43.75162" lon="6.75799">
        <ele>1296.121168</ele>
        <time>2024-12-06T12:06:42.000Z</time>
      </trkpt>
      <trkpt lat="43.75163" lon="6.75801">
        <ele>1296.171989</ele>
        <time>2024-12-06T12:06:43.000Z</time>
      </trkpt>
      <trkpt lat="43.75164" lon="6.75803">
        <ele>1296.228248</ele>
        <time>2024-12-06T12:06:44.000Z</time>
      </trkpt>
      <trkpt lat="43.75166" lon="6.75805">
        <ele>1296.295954</ele>
        <time>2024-12-06T12:06:45.000Z</time>
      </trkpt>
      <trkpt lat="43.75172" lon="6.75815">
        <ele>1296.593292</ele>
        <time>2024-12-06T12:06:48.000Z</time>
      </trkpt>
      <trkpt lat="43.75175" lon="6.75818">
        <ele>1296.698095</ele>
        <time>2024-12-06T12:06:49.000Z</time>
      </trkpt>
      <trkpt lat="43.75179" lon="6.75825">
        <ele>1296.900356</ele>
        <time>2024-12-06T12:06:51.000Z</time>
      </trkpt>
      <trkpt lat="43.75181" lon="6.75833">
        <ele>1297.094303</ele>
        <time>2024-12-06T12:06:53.000Z</time>
      </trkpt>
      <trkpt lat="43.75181" lon="6.75837">
        <ele>1297.18295</ele>
        <time>2024-12-06T12:06:54.000Z</time>
      </trkpt>
      <trkpt lat="43.75182" lon="6.75841">
        <ele>1297.266387</ele>
        <time>2024-12-06T12:06:55.000Z</time>
      </trkpt>
      <trkpt lat="43.75183" lon="6.75844">
        <ele>1297.350623</ele>
        <time>2024-12-06T12:06:56.000Z</time>
      </trkpt>
      <trkpt lat="43.75184" lon="6.75848">
        <ele>1297.447537</ele>
        <time>2024-12-06T12:06:57.000Z</time>
      </trkpt>
      <trkpt lat="43.75186" lon="6.75852">
        <ele>1297.547915</ele>
        <time>2024-12-06T12:06:58.000Z</time>
      </trkpt>
      <trkpt lat="43.7519" lon="6.75864">
        <ele>1297.855937</ele>
        <time>2024-12-06T12:07:01.000Z</time>
      </trkpt>
      <trkpt lat="43.7519" lon="6.75868">
        <ele>1297.933033</ele>
        <time>2024-12-06T12:07:02.000Z</time>
      </trkpt>
      <trkpt lat="43.7519" lon="6.75872">
        <ele>1298.038265</ele>
        <time>2024-12-06T12:07:03.000Z</time>
      </trkpt>
      <trkpt lat="43.7519" lon="6.75877">
        <ele>1298.137176</ele>
        <time>2024-12-06T12:07:04.000Z</time>
      </trkpt>
      <trkpt lat="43.75192" lon="6.7589">
        <ele>1298.447186</ele>
        <time>2024-12-06T12:07:07.000Z</time>
      </trkpt>
      <trkpt lat="43.75193" lon="6.75894">
        <ele>1298.532786</ele>
        <time>2024-12-06T12:07:08.000Z</time>
      </trkpt>
      <trkpt lat="43.75194" lon="6.75899">
        <ele>1298.655381</ele>
        <time>2024-12-06T12:07:09.000Z</time>
      </trkpt>
      <trkpt lat="43.75195" lon="6.75904">
        <ele>1298.758613</ele>
        <time>2024-12-06T12:07:10.000Z</time>
      </trkpt>
      <trkpt lat="43.75196" lon="6.75908">
        <ele>1298.858806</ele>
        <time>2024-12-06T12:07:11.000Z</time>
      </trkpt>
      <trkpt lat="43.75197" lon="6.75913">
        <ele>1298.96616</ele>
        <time>2024-12-06T12:07:12.000Z</time>
      </trkpt>
      <trkpt lat="43.75198" lon="6.75917">
        <ele>1299.080887</ele>
        <time>2024-12-06T12:07:13.000Z</time>
      </trkpt>
      <trkpt lat="43.75199" lon="6.75922">
        <ele>1299.193589</ele>
        <time>2024-12-06T12:07:14.000Z</time>
      </trkpt>
      <trkpt lat="43.752" lon="6.75927">
        <ele>1299.305392</ele>
        <time>2024-12-06T12:07:15.000Z</time>
      </trkpt>
      <trkpt lat="43.75201" lon="6.75932">
        <ele>1299.409892</ele>
        <time>2024-12-06T12:07:16.000Z</time>
      </trkpt>
      <trkpt lat="43.75202" lon="6.75935">
        <ele>1299.483882</ele>
        <time>2024-12-06T12:07:17.000Z</time>
      </trkpt>
      <trkpt lat="43.75202" lon="6.75939">
        <ele>1299.588495</ele>
        <time>2024-12-06T12:07:18.000Z</time>
      </trkpt>
      <trkpt lat="43.75202" lon="6.75943">
        <ele>1299.660112</ele>
        <time>2024-12-06T12:07:19.000Z</time>
      </trkpt>
      <trkpt lat="43.75203" lon="6.75945">
        <ele>1299.714622</ele>
        <time>2024-12-06T12:07:20.000Z</time>
      </trkpt>
      <trkpt lat="43.75203" lon="6.75947">
        <ele>1299.757145</ele>
        <time>2024-12-06T12:07:21.000Z</time>
      </trkpt>
      <trkpt lat="43.75203" lon="6.75947">
        <ele>1299.770925</ele>
        <time>2024-12-06T12:07:22.000Z</time>
      </trkpt>
      <trkpt lat="43.75204" lon="6.75951">
        <ele>1299.85361</ele>
        <time>2024-12-06T12:07:27.000Z</time>
      </trkpt>
      <trkpt lat="43.75203" lon="6.75955">
        <ele>1299.95064</ele>
        <time>2024-12-06T12:07:35.000Z</time>
      </trkpt>
      <trkpt lat="43.75203" lon="6.75956">
        <ele>1299.96442</ele>
        <time>2024-12-06T12:07:40.000Z</time>
      </trkpt>
      <trkpt lat="43.75202" lon="6.75961">
        <ele>1300.097295</ele>
        <time>2024-12-06T12:07:49.000Z</time>
      </trkpt>
      <trkpt lat="43.75202" lon="6.75973">
        <ele>1300.366886</ele>
        <time>2024-12-06T12:07:54.000Z</time>
      </trkpt>
      <trkpt lat="43.75202" lon="6.75977">
        <ele>1300.438049</ele>
        <time>2024-12-06T12:07:55.000Z</time>
      </trkpt>
      <trkpt lat="43.75201" lon="6.75984">
        <ele>1300.564732</ele>
        <time>2024-12-06T12:07:57.000Z</time>
      </trkpt>
      <trkpt lat="43.75201" lon="6.75988">
        <ele>1300.635188</ele>
        <time>2024-12-06T12:07:58.000Z</time>
      </trkpt>
      <trkpt lat="43.75202" lon="6.75992">
        <ele>1300.711434</ele>
        <time>2024-12-06T12:07:59.000Z</time>
      </trkpt>
      <trkpt lat="43.75202" lon="6.75996">
        <ele>1300.780266</ele>
        <time>2024-12-06T12:08:00.000Z</time>
      </trkpt>
      <trkpt lat="43.75202" lon="6.76">
        <ele>1300.850767</ele>
        <time>2024-12-06T12:08:01.000Z</time>
      </trkpt>
      <trkpt lat="43.752" lon="6.76014">
        <ele>1301.105546</ele>
        <time>2024-12-06T12:08:04.000Z</time>
      </trkpt>
      <trkpt lat="43.75199" lon="6.76019">
        <ele>1301.203363</ele>
        <time>2024-12-06T12:08:05.000Z</time>
      </trkpt>
      <trkpt lat="43.75198" lon="6.76025">
        <ele>1301.30028</ele>
        <time>2024-12-06T12:08:06.000Z</time>
      </trkpt>
      <trkpt lat="43.75198" lon="6.7603">
        <ele>1301.398983</ele>
        <time>2024-12-06T12:08:07.000Z</time>
      </trkpt>
      <trkpt lat="43.75197" lon="6.76035">
        <ele>1301.493456</ele>
        <time>2024-12-06T12:08:08.000Z</time>
      </trkpt>
      <trkpt lat="43.75197" lon="6.7604">
        <ele>1301.589335</ele>
        <time>2024-12-06T12:08:09.000Z</time>
      </trkpt>
      <trkpt lat="43.75197" lon="6.76046">
        <ele>1301.68147</ele>
        <time>2024-12-06T12:08:10.000Z</time>
      </trkpt>
      <trkpt lat="43.75197" lon="6.76051">
        <ele>1301.775446</ele>
        <time>2024-12-06T12:08:11.000Z</time>
      </trkpt>
      <trkpt lat="43.75198" lon="6.76056">
        <ele>1301.873129</ele>
        <time>2024-12-06T12:08:12.000Z</time>
      </trkpt>
      <trkpt lat="43.75198" lon="6.76061">
        <ele>1301.969399</ele>
        <time>2024-12-06T12:08:13.000Z</time>
      </trkpt>
      <trkpt lat="43.75198" lon="6.76067">
        <ele>1302.070598</ele>
        <time>2024-12-06T12:08:14.000Z</time>
      </trkpt>
      <trkpt lat="43.75198" lon="6.76072">
        <ele>1302.152047</ele>
        <time>2024-12-06T12:08:15.000Z</time>
      </trkpt>
      <trkpt lat="43.75198" lon="6.76078">
        <ele>1302.273088</ele>
        <time>2024-12-06T12:08:16.000Z</time>
      </trkpt>
      <trkpt lat="43.75198" lon="6.76083">
        <ele>1302.356228</ele>
        <time>2024-12-06T12:08:17.000Z</time>
      </trkpt>
      <trkpt lat="43.75199" lon="6.7609">
        <ele>1302.477681</ele>
        <time>2024-12-06T12:08:18.000Z</time>
      </trkpt>
      <trkpt lat="43.752" lon="6.76095">
        <ele>1302.571964</ele>
        <time>2024-12-06T12:08:19.000Z</time>
      </trkpt>
      <trkpt lat="43.75201" lon="6.76099">
        <ele>1302.662021</ele>
        <time>2024-12-06T12:08:20.000Z</time>
      </trkpt>
      <trkpt lat="43.75202" lon="6.76103">
        <ele>1302.740199</ele>
        <time>2024-12-06T12:08:21.000Z</time>
      </trkpt>
      <trkpt lat="43.75203" lon="6.76107">
        <ele>1302.804222</ele>
        <time>2024-12-06T12:08:22.000Z</time>
      </trkpt>
      <trkpt lat="43.75205" lon="6.7611">
        <ele>1302.877669</ele>
        <time>2024-12-06T12:08:23.000Z</time>
      </trkpt>
      <trkpt lat="43.75206" lon="6.76113">
        <ele>1302.945141</ele>
        <time>2024-12-06T12:08:24.000Z</time>
      </trkpt>
      <trkpt lat="43.75208" lon="6.76115">
        <ele>1303.005255</ele>
        <time>2024-12-06T12:08:25.000Z</time>
      </trkpt>
      <trkpt lat="43.75209" lon="6.76118">
        <ele>1303.063967</ele>
        <time>2024-12-06T12:08:26.000Z</time>
      </trkpt>
      <trkpt lat="43.75211" lon="6.7612">
        <ele>1303.127736</ele>
        <time>2024-12-06T12:08:27.000Z</time>
      </trkpt>
      <trkpt lat="43.75214" lon="6.76124">
        <ele>1303.225801</ele>
        <time>2024-12-06T12:08:29.000Z</time>
      </trkpt>
      <trkpt lat="43.75216" lon="6.76126">
        <ele>1303.278346</ele>
        <time>2024-12-06T12:08:30.000Z</time>
      </trkpt>
      <trkpt lat="43.75217" lon="6.76127">
        <ele>1303.322606</ele>
        <time>2024-12-06T12:08:31.000Z</time>
      </trkpt>
      <trkpt lat="43.75219" lon="6.76129">
        <ele>1303.365547</ele>
        <time>2024-12-06T12:08:32.000Z</time>
      </trkpt>
      <trkpt lat="43.7522" lon="6.7613">
        <ele>1303.41095</ele>
        <time>2024-12-06T12:08:33.000Z</time>
      </trkpt>
      <trkpt lat="43.75221" lon="6.76131">
        <ele>1303.453404</ele>
        <time>2024-12-06T12:08:34.000Z</time>
      </trkpt>
      <trkpt lat="43.75223" lon="6.76132">
        <ele>1303.481848</ele>
        <time>2024-12-06T12:08:35.000Z</time>
      </trkpt>
      <trkpt lat="43.75224" lon="6.76132">
        <ele>1303.525314</ele>
        <time>2024-12-06T12:08:36.000Z</time>
      </trkpt>
      <trkpt lat="43.75226" lon="6.76132">
        <ele>1303.570332</ele>
        <time>2024-12-06T12:08:37.000Z</time>
      </trkpt>
      <trkpt lat="43.75228" lon="6.76132">
        <ele>1303.617988</ele>
        <time>2024-12-06T12:08:38.000Z</time>
      </trkpt>
      <trkpt lat="43.75231" lon="6.76134">
        <ele>1303.689483</ele>
        <time>2024-12-06T12:08:39.000Z</time>
      </trkpt>
      <trkpt lat="43.75234" lon="6.76135">
        <ele>1303.769888</ele>
        <time>2024-12-06T12:08:40.000Z</time>
      </trkpt>
      <trkpt lat="43.75247" lon="6.76142">
        <ele>1304.12277</ele>
        <time>2024-12-06T12:08:44.000Z</time>
      </trkpt>
      <trkpt lat="43.75251" lon="6.76144">
        <ele>1304.222107</ele>
        <time>2024-12-06T12:08:45.000Z</time>
      </trkpt>
      <trkpt lat="43.75254" lon="6.76145">
        <ele>1304.31187</ele>
        <time>2024-12-06T12:08:46.000Z</time>
      </trkpt>
      <trkpt lat="43.75257" lon="6.76146">
        <ele>1304.385176</ele>
        <time>2024-12-06T12:08:47.000Z</time>
      </trkpt>
      <trkpt lat="43.75272" lon="6.76151">
        <ele>1304.781622</ele>
        <time>2024-12-06T12:08:51.000Z</time>
      </trkpt>
      <trkpt lat="43.75281" lon="6.76156">
        <ele>1304.692501</ele>
        <time>2024-12-06T12:08:53.000Z</time>
      </trkpt>
      <trkpt lat="43.75294" lon="6.76162">
        <ele>1304.300829</ele>
        <time>2024-12-06T12:08:56.000Z</time>
      </trkpt>
      <trkpt lat="43.75302" lon="6.76167">
        <ele>1304.037207</ele>
        <time>2024-12-06T12:08:58.000Z</time>
      </trkpt>
      <trkpt lat="43.75306" lon="6.76169">
        <ele>1303.901565</ele>
        <time>2024-12-06T12:08:59.000Z</time>
      </trkpt>
      <trkpt lat="43.75324" lon="6.76177">
        <ele>1303.36135</ele>
        <time>2024-12-06T12:09:03.000Z</time>
      </trkpt>
      <trkpt lat="43.75336" lon="6.76184">
        <ele>1302.982941</ele>
        <time>2024-12-06T12:09:06.000Z</time>
      </trkpt>
      <trkpt lat="43.7534" lon="6.76186">
        <ele>1302.860324</ele>
        <time>2024-12-06T12:09:07.000Z</time>
      </trkpt>
      <trkpt lat="43.75344" lon="6.76187">
        <ele>1302.749968</ele>
        <time>2024-12-06T12:09:08.000Z</time>
      </trkpt>
      <trkpt lat="43.75348" lon="6.7619">
        <ele>1302.632163</ele>
        <time>2024-12-06T12:09:09.000Z</time>
      </trkpt>
      <trkpt lat="43.75351" lon="6.76193">
        <ele>1302.510073</ele>
        <time>2024-12-06T12:09:10.000Z</time>
      </trkpt>
      <trkpt lat="43.75358" lon="6.762">
        <ele>1302.255209</ele>
        <time>2024-12-06T12:09:12.000Z</time>
      </trkpt>
      <trkpt lat="43.7537" lon="6.76211">
        <ele>1301.852205</ele>
        <time>2024-12-06T12:09:15.000Z</time>
      </trkpt>
      <trkpt lat="43.75382" lon="6.76215">
        <ele>1301.498136</ele>
        <time>2024-12-06T12:09:18.000Z</time>
      </trkpt>
      <trkpt lat="43.75385" lon="6.76217">
        <ele>1301.38778</ele>
        <time>2024-12-06T12:09:19.000Z</time>
      </trkpt>
      <trkpt lat="43.75389" lon="6.76219">
        <ele>1301.28896</ele>
        <time>2024-12-06T12:09:20.000Z</time>
      </trkpt>
      <trkpt lat="43.75392" lon="6.7622">
        <ele>1301.19428</ele>
        <time>2024-12-06T12:09:21.000Z</time>
      </trkpt>
      <trkpt lat="43.75395" lon="6.76222">
        <ele>1301.10613</ele>
        <time>2024-12-06T12:09:22.000Z</time>
      </trkpt>
      <trkpt lat="43.75397" lon="6.76224">
        <ele>1301.013306</ele>
        <time>2024-12-06T12:09:23.000Z</time>
      </trkpt>
      <trkpt lat="43.75403" lon="6.76229">
        <ele>1300.823601</ele>
        <time>2024-12-06T12:09:25.000Z</time>
      </trkpt>
      <trkpt lat="43.75405" lon="6.76231">
        <ele>1300.742357</ele>
        <time>2024-12-06T12:09:26.000Z</time>
      </trkpt>
      <trkpt lat="43.75407" lon="6.76232">
        <ele>1300.67833</ele>
        <time>2024-12-06T12:09:27.000Z</time>
      </trkpt>
      <trkpt lat="43.75409" lon="6.76232">
        <ele>1300.632152</ele>
        <time>2024-12-06T12:09:28.000Z</time>
      </trkpt>
      <trkpt lat="43.7541" lon="6.76232">
        <ele>1300.597492</ele>
        <time>2024-12-06T12:09:29.000Z</time>
      </trkpt>
      <trkpt lat="43.75411" lon="6.76229">
        <ele>1300.52104</ele>
        <time>2024-12-06T12:09:33.000Z</time>
      </trkpt>
      <trkpt lat="43.75411" lon="6.76227">
        <ele>1300.475812</ele>
        <time>2024-12-06T12:09:35.000Z</time>
      </trkpt>
      <trkpt lat="43.75409" lon="6.76225">
        <ele>1300.42631</ele>
        <time>2024-12-06T12:09:41.000Z</time>
      </trkpt>
      <trkpt lat="43.75409" lon="6.76223">
        <ele>1300.376246</ele>
        <time>2024-12-06T12:09:42.000Z</time>
      </trkpt>
      <trkpt lat="43.75407" lon="6.76218">
        <ele>1300.261651</ele>
        <time>2024-12-06T12:09:44.000Z</time>
      </trkpt>
      <trkpt lat="43.75407" lon="6.76213">
        <ele>1300.167161</ele>
        <time>2024-12-06T12:09:45.000Z</time>
      </trkpt>
      <trkpt lat="43.75404" lon="6.76202">
        <ele>1299.917314</ele>
        <time>2024-12-06T12:09:47.000Z</time>
      </trkpt>
      <trkpt lat="43.75404" lon="6.7619">
        <ele>1299.665187</ele>
        <time>2024-12-06T12:09:49.000Z</time>
      </trkpt>
      <trkpt lat="43.75404" lon="6.76184">
        <ele>1299.315792</ele>
        <time>2024-12-06T12:09:50.000Z</time>
      </trkpt>
      <trkpt lat="43.75405" lon="6.76178">
        <ele>1298.930055</ele>
        <time>2024-12-06T12:09:51.000Z</time>
      </trkpt>
      <trkpt lat="43.75406" lon="6.76163">
        <ele>1297.966634</ele>
        <time>2024-12-06T12:09:53.000Z</time>
      </trkpt>
      <trkpt lat="43.75406" lon="6.76155">
        <ele>1297.495765</ele>
        <time>2024-12-06T12:09:54.000Z</time>
      </trkpt>
      <trkpt lat="43.75407" lon="6.76148">
        <ele>1297.033747</ele>
        <time>2024-12-06T12:09:55.000Z</time>
      </trkpt>
      <trkpt lat="43.75409" lon="6.76141">
        <ele>1296.564639</ele>
        <time>2024-12-06T12:09:56.000Z</time>
      </trkpt>
      <trkpt lat="43.75411" lon="6.76134">
        <ele>1296.104282</ele>
        <time>2024-12-06T12:09:57.000Z</time>
      </trkpt>
      <trkpt lat="43.75412" lon="6.76128">
        <ele>1295.736437</ele>
        <time>2024-12-06T12:09:58.000Z</time>
      </trkpt>
      <trkpt lat="43.75413" lon="6.76124">
        <ele>1295.46133</ele>
        <time>2024-12-06T12:09:59.000Z</time>
      </trkpt>
      <trkpt lat="43.75414" lon="6.76118">
        <ele>1295.098317</ele>
        <time>2024-12-06T12:10:00.000Z</time>
      </trkpt>
      <trkpt lat="43.75414" lon="6.76111">
        <ele>1294.672757</ele>
        <time>2024-12-06T12:10:01.000Z</time>
      </trkpt>
      <trkpt lat="43.75415" lon="6.76107">
        <ele>1294.405106</ele>
        <time>2024-12-06T12:10:02.000Z</time>
      </trkpt>
      <trkpt lat="43.75414" lon="6.76104">
        <ele>1294.198108</ele>
        <time>2024-12-06T12:10:03.000Z</time>
      </trkpt>
      <trkpt lat="43.75412" lon="6.76102">
        <ele>1293.986487</ele>
        <time>2024-12-06T12:10:04.000Z</time>
      </trkpt>
      <trkpt lat="43.75409" lon="6.761">
        <ele>1293.718715</ele>
        <time>2024-12-06T12:10:05.000Z</time>
      </trkpt>
      <trkpt lat="43.75402" lon="6.76097">
        <ele>1293.110248</ele>
        <time>2024-12-06T12:10:07.000Z</time>
      </trkpt>
      <trkpt lat="43.75399" lon="6.76095">
        <ele>1292.826469</ele>
        <time>2024-12-06T12:10:08.000Z</time>
      </trkpt>
      <trkpt lat="43.75396" lon="6.76093">
        <ele>1292.545751</ele>
        <time>2024-12-06T12:10:09.000Z</time>
      </trkpt>
      <trkpt lat="43.75391" lon="6.7609">
        <ele>1292.054615</ele>
        <time>2024-12-06T12:10:11.000Z</time>
      </trkpt>
      <trkpt lat="43.75388" lon="6.76088">
        <ele>1291.797571</ele>
        <time>2024-12-06T12:10:12.000Z</time>
      </trkpt>
      <trkpt lat="43.75386" lon="6.76087">
        <ele>1291.584413</ele>
        <time>2024-12-06T12:10:13.000Z</time>
      </trkpt>
      <trkpt lat="43.75384" lon="6.76085">
        <ele>1291.387099</ele>
        <time>2024-12-06T12:10:14.000Z</time>
      </trkpt>
      <trkpt lat="43.75382" lon="6.76084">
        <ele>1291.191994</ele>
        <time>2024-12-06T12:10:15.000Z</time>
      </trkpt>
      <trkpt lat="43.7538" lon="6.76084">
        <ele>1291.039864</ele>
        <time>2024-12-06T12:10:16.000Z</time>
      </trkpt>
      <trkpt lat="43.7538" lon="6.76084">
        <ele>1290.995222</ele>
        <time>2024-12-06T12:10:17.000Z</time>
      </trkpt>
      <trkpt lat="43.75379" lon="6.76084">
        <ele>1290.96949</ele>
        <time>2024-12-06T12:10:18.000Z</time>
      </trkpt>
      <trkpt lat="43.7537" lon="6.76075">
        <ele>1290.017193</ele>
        <time>2024-12-06T12:10:23.000Z</time>
      </trkpt>
      <trkpt lat="43.75367" lon="6.7607">
        <ele>1289.608941</ele>
        <time>2024-12-06T12:10:24.000Z</time>
      </trkpt>
      <trkpt lat="43.75365" lon="6.76064">
        <ele>1289.226613</ele>
        <time>2024-12-06T12:10:25.000Z</time>
      </trkpt>
      <trkpt lat="43.75362" lon="6.76058">
        <ele>1288.783724</ele>
        <time>2024-12-06T12:10:26.000Z</time>
      </trkpt>
      <trkpt lat="43.7536" lon="6.76051">
        <ele>1288.29877</ele>
        <time>2024-12-06T12:10:27.000Z</time>
      </trkpt>
      <trkpt lat="43.75354" lon="6.76039">
        <ele>1287.363737</ele>
        <time>2024-12-06T12:10:29.000Z</time>
      </trkpt>
      <trkpt lat="43.75346" lon="6.76027">
        <ele>1286.381826</ele>
        <time>2024-12-06T12:10:31.000Z</time>
      </trkpt>
      <trkpt lat="43.75342" lon="6.76022">
        <ele>1285.894373</ele>
        <time>2024-12-06T12:10:32.000Z</time>
      </trkpt>
      <trkpt lat="43.75338" lon="6.76016">
        <ele>1285.451971</ele>
        <time>2024-12-06T12:10:33.000Z</time>
      </trkpt>
      <trkpt lat="43.75326" lon="6.75995">
        <ele>1283.898333</ele>
        <time>2024-12-06T12:10:37.000Z</time>
      </trkpt>
      <trkpt lat="43.75322" lon="6.75989">
        <ele>1283.561178</ele>
        <time>2024-12-06T12:10:38.000Z</time>
      </trkpt>
      <trkpt lat="43.75305" lon="6.75969">
        <ele>1282.1429</ele>
        <time>2024-12-06T12:10:42.000Z</time>
      </trkpt>
      <trkpt lat="43.75302" lon="6.75963">
        <ele>1281.81411</ele>
        <time>2024-12-06T12:10:43.000Z</time>
      </trkpt>
      <trkpt lat="43.753" lon="6.75958">
        <ele>1281.566277</ele>
        <time>2024-12-06T12:10:44.000Z</time>
      </trkpt>
      <trkpt lat="43.75296" lon="6.75944">
        <ele>1280.926988</ele>
        <time>2024-12-06T12:10:46.000Z</time>
      </trkpt>
      <trkpt lat="43.75294" lon="6.75939">
        <ele>1280.641576</ele>
        <time>2024-12-06T12:10:47.000Z</time>
      </trkpt>
      <trkpt lat="43.75292" lon="6.75933">
        <ele>1280.348466</ele>
        <time>2024-12-06T12:10:48.000Z</time>
      </trkpt>
      <trkpt lat="43.7529" lon="6.75927">
        <ele>1280.044271</ele>
        <time>2024-12-06T12:10:49.000Z</time>
      </trkpt>
      <trkpt lat="43.75281" lon="6.75916">
        <ele>1279.333613</ele>
        <time>2024-12-06T12:10:51.000Z</time>
      </trkpt>
      <trkpt lat="43.75277" lon="6.75909">
        <ele>1278.945688</ele>
        <time>2024-12-06T12:10:52.000Z</time>
      </trkpt>
      <trkpt lat="43.75273" lon="6.75903">
        <ele>1278.558358</ele>
        <time>2024-12-06T12:10:53.000Z</time>
      </trkpt>
      <trkpt lat="43.75265" lon="6.75889">
        <ele>1277.784103</ele>
        <time>2024-12-06T12:10:55.000Z</time>
      </trkpt>
      <trkpt lat="43.75262" lon="6.75882">
        <ele>1277.412837</ele>
        <time>2024-12-06T12:10:56.000Z</time>
      </trkpt>
      <trkpt lat="43.75259" lon="6.75875">
        <ele>1277.052352</ele>
        <time>2024-12-06T12:10:57.000Z</time>
      </trkpt>
      <trkpt lat="43.75247" lon="6.75846">
        <ele>1275.551364</ele>
        <time>2024-12-06T12:11:01.000Z</time>
      </trkpt>
      <trkpt lat="43.75245" lon="6.75838">
        <ele>1275.189844</ele>
        <time>2024-12-06T12:11:02.000Z</time>
      </trkpt>
      <trkpt lat="43.75242" lon="6.75832">
        <ele>1274.849819</ele>
        <time>2024-12-06T12:11:03.000Z</time>
      </trkpt>
      <trkpt lat="43.7524" lon="6.75825">
        <ele>1274.520746</ele>
        <time>2024-12-06T12:11:04.000Z</time>
      </trkpt>
      <trkpt lat="43.75239" lon="6.75818">
        <ele>1274.220184</ele>
        <time>2024-12-06T12:11:05.000Z</time>
      </trkpt>
      <trkpt lat="43.75238" lon="6.75812">
        <ele>1273.921209</ele>
        <time>2024-12-06T12:11:06.000Z</time>
      </trkpt>
      <trkpt lat="43.75236" lon="6.75805">
        <ele>1273.596261</ele>
        <time>2024-12-06T12:11:07.000Z</time>
      </trkpt>
      <trkpt lat="43.75234" lon="6.75788">
        <ele>1272.177486</ele>
        <time>2024-12-06T12:11:09.000Z</time>
      </trkpt>
      <trkpt lat="43.75232" lon="6.75772">
        <ele>1269.713499</ele>
        <time>2024-12-06T12:11:11.000Z</time>
      </trkpt>
      <trkpt lat="43.75231" lon="6.75765">
        <ele>1268.616797</ele>
        <time>2024-12-06T12:11:12.000Z</time>
      </trkpt>
      <trkpt lat="43.75229" lon="6.75758">
        <ele>1267.578995</ele>
        <time>2024-12-06T12:11:13.000Z</time>
      </trkpt>
      <trkpt lat="43.75224" lon="6.75743">
        <ele>1265.133842</ele>
        <time>2024-12-06T12:11:15.000Z</time>
      </trkpt>
      <trkpt lat="43.75221" lon="6.75735">
        <ele>1263.81461</ele>
        <time>2024-12-06T12:11:16.000Z</time>
      </trkpt>
      <trkpt lat="43.75218" lon="6.75728">
        <ele>1262.714198</ele>
        <time>2024-12-06T12:11:17.000Z</time>
      </trkpt>
      <trkpt lat="43.75216" lon="6.75724">
        <ele>1261.831038</ele>
        <time>2024-12-06T12:11:18.000Z</time>
      </trkpt>
      <trkpt lat="43.75213" lon="6.75719">
        <ele>1260.924672</ele>
        <time>2024-12-06T12:11:19.000Z</time>
      </trkpt>
      <trkpt lat="43.7521" lon="6.75714">
        <ele>1260.004714</ele>
        <time>2024-12-06T12:11:20.000Z</time>
      </trkpt>
      <trkpt lat="43.75205" lon="6.75703">
        <ele>1258.14487</ele>
        <time>2024-12-06T12:11:22.000Z</time>
      </trkpt>
      <trkpt lat="43.75204" lon="6.75699">
        <ele>1257.482049</ele>
        <time>2024-12-06T12:11:23.000Z</time>
      </trkpt>
      <trkpt lat="43.75203" lon="6.75696">
        <ele>1256.987258</ele>
        <time>2024-12-06T12:11:24.000Z</time>
      </trkpt>
      <trkpt lat="43.75201" lon="6.75692">
        <ele>1256.298198</ele>
        <time>2024-12-06T12:11:25.000Z</time>
      </trkpt>
      <trkpt lat="43.752" lon="6.75689">
        <ele>1255.771898</ele>
        <time>2024-12-06T12:11:26.000Z</time>
      </trkpt>
      <trkpt lat="43.75199" lon="6.75686">
        <ele>1255.350012</ele>
        <time>2024-12-06T12:11:27.000Z</time>
      </trkpt>
      <trkpt lat="43.75198" lon="6.75682">
        <ele>1254.685763</ele>
        <time>2024-12-06T12:11:28.000Z</time>
      </trkpt>
      <trkpt lat="43.75197" lon="6.75678">
        <ele>1254.139382</ele>
        <time>2024-12-06T12:11:29.000Z</time>
      </trkpt>
      <trkpt lat="43.75196" lon="6.75675">
        <ele>1253.613492</ele>
        <time>2024-12-06T12:11:30.000Z</time>
      </trkpt>
      <trkpt lat="43.75195" lon="6.75672">
        <ele>1253.087191</ele>
        <time>2024-12-06T12:11:31.000Z</time>
      </trkpt>
      <trkpt lat="43.75195" lon="6.75669">
        <ele>1252.657663</ele>
        <time>2024-12-06T12:11:32.000Z</time>
      </trkpt>
      <trkpt lat="43.75194" lon="6.75666">
        <ele>1252.179995</ele>
        <time>2024-12-06T12:11:33.000Z</time>
      </trkpt>
      <trkpt lat="43.75193" lon="6.75662">
        <ele>1251.631703</ele>
        <time>2024-12-06T12:11:34.000Z</time>
      </trkpt>
      <trkpt lat="43.75193" lon="6.75658">
        <ele>1251.029578</ele>
        <time>2024-12-06T12:11:35.000Z</time>
      </trkpt>
      <trkpt lat="43.75191" lon="6.75654">
        <ele>1250.359671</ele>
        <time>2024-12-06T12:11:36.000Z</time>
      </trkpt>
      <trkpt lat="43.75189" lon="6.7565">
        <ele>1249.666582</ele>
        <time>2024-12-06T12:11:37.000Z</time>
      </trkpt>
      <trkpt lat="43.75185" lon="6.75643">
        <ele>1248.328281</ele>
        <time>2024-12-06T12:11:39.000Z</time>
      </trkpt>
      <trkpt lat="43.75183" lon="6.7564">
        <ele>1247.684386</ele>
        <time>2024-12-06T12:11:40.000Z</time>
      </trkpt>
      <trkpt lat="43.75181" lon="6.75636">
        <ele>1246.968931</ele>
        <time>2024-12-06T12:11:41.000Z</time>
      </trkpt>
      <trkpt lat="43.75179" lon="6.75631">
        <ele>1246.146278</ele>
        <time>2024-12-06T12:11:42.000Z</time>
      </trkpt>
      <trkpt lat="43.75176" lon="6.75626">
        <ele>1245.239908</ele>
        <time>2024-12-06T12:11:43.000Z</time>
      </trkpt>
      <trkpt lat="43.75173" lon="6.75622">
        <ele>1244.452313</ele>
        <time>2024-12-06T12:11:44.000Z</time>
      </trkpt>
      <trkpt lat="43.75171" lon="6.75619">
        <ele>1243.738792</ele>
        <time>2024-12-06T12:11:45.000Z</time>
      </trkpt>
      <trkpt lat="43.75169" lon="6.75615">
        <ele>1243.039649</ele>
        <time>2024-12-06T12:11:46.000Z</time>
      </trkpt>
      <trkpt lat="43.75166" lon="6.75611">
        <ele>1242.215986</ele>
        <time>2024-12-06T12:11:47.000Z</time>
      </trkpt>
      <trkpt lat="43.75164" lon="6.75605">
        <ele>1241.201197</ele>
        <time>2024-12-06T12:11:48.000Z</time>
      </trkpt>
      <trkpt lat="43.75158" lon="6.75595">
        <ele>1239.329457</ele>
        <time>2024-12-06T12:11:50.000Z</time>
      </trkpt>
      <trkpt lat="43.75156" lon="6.7559">
        <ele>1238.518587</ele>
        <time>2024-12-06T12:11:51.000Z</time>
      </trkpt>
      <trkpt lat="43.75153" lon="6.75586">
        <ele>1237.609516</ele>
        <time>2024-12-06T12:11:52.000Z</time>
      </trkpt>
      <trkpt lat="43.7515" lon="6.75581">
        <ele>1236.722605</ele>
        <time>2024-12-06T12:11:53.000Z</time>
      </trkpt>
      <trkpt lat="43.75147" lon="6.75577">
        <ele>1235.900856</ele>
        <time>2024-12-06T12:11:54.000Z</time>
      </trkpt>
      <trkpt lat="43.75145" lon="6.75574">
        <ele>1235.186066</ele>
        <time>2024-12-06T12:11:55.000Z</time>
      </trkpt>
      <trkpt lat="43.75144" lon="6.75571">
        <ele>1234.64568</ele>
        <time>2024-12-06T12:11:56.000Z</time>
      </trkpt>
      <trkpt lat="43.75142" lon="6.75569">
        <ele>1234.218513</ele>
        <time>2024-12-06T12:11:57.000Z</time>
      </trkpt>
      <trkpt lat="43.75141" lon="6.75568">
        <ele>1233.958633</ele>
        <time>2024-12-06T12:11:58.000Z</time>
      </trkpt>
      <trkpt lat="43.75141" lon="6.75568">
        <ele>1233.859511</ele>
        <time>2024-12-06T12:11:59.000Z</time>
      </trkpt>
      <trkpt lat="43.75141" lon="6.75568">
        <ele>1233.859511</ele>
        <time>2024-12-06T12:12:00.000Z</time>
      </trkpt>
      <trkpt lat="43.75142" lon="6.75569">
        <ele>1233.661735</ele>
        <time>2024-12-06T12:12:05.000Z</time>
      </trkpt>
      <trkpt lat="43.75141" lon="6.75568">
        <ele>1233.517561</ele>
        <time>2024-12-06T12:12:10.000Z</time>
      </trkpt>
      <trkpt lat="43.75141" lon="6.75568">
        <ele>1233.517561</ele>
        <time>2024-12-06T12:12:15.000Z</time>
      </trkpt>
      <trkpt lat="43.75141" lon="6.75568">
        <ele>1233.517561</ele>
        <time>2024-12-06T12:12:25.000Z</time>
      </trkpt>
      <trkpt lat="43.75141" lon="6.75568">
        <ele>1233.517561</ele>
        <time>2024-12-06T12:12:28.000Z</time>
      </trkpt>
      <trkpt lat="43.75142" lon="6.75569">
        <ele>1233.389057</ele>
        <time>2024-12-06T12:12:36.000Z</time>
      </trkpt>
      <trkpt lat="43.75142" lon="6.75569">
        <ele>1233.389057</ele>
        <time>2024-12-06T12:12:46.000Z</time>
      </trkpt>
      <trkpt lat="43.75142" lon="6.75569">
        <ele>1233.389057</ele>
        <time>2024-12-06T12:12:52.000Z</time>
      </trkpt>
      <trkpt lat="43.75142" lon="6.75569">
        <ele>1233.389057</ele>
        <time>2024-12-06T12:13:04.000Z</time>
      </trkpt>
      <trkpt lat="43.75142" lon="6.75569">
        <ele>1233.335301</ele>
        <time>2024-12-06T12:13:35.000Z</time>
      </trkpt>
      <trkpt lat="43.75141" lon="6.75566">
        <ele>1232.847424</ele>
        <time>2024-12-06T12:13:37.000Z</time>
      </trkpt>
      <trkpt lat="43.75139" lon="6.75565">
        <ele>1232.47869</ele>
        <time>2024-12-06T12:13:38.000Z</time>
      </trkpt>
      <trkpt lat="43.75136" lon="6.75561">
        <ele>1231.536401</ele>
        <time>2024-12-06T12:13:40.000Z</time>
      </trkpt>
      <trkpt lat="43.7513" lon="6.75552">
        <ele>1229.547618</ele>
        <time>2024-12-06T12:13:43.000Z</time>
      </trkpt>
      <trkpt lat="43.75128" lon="6.75549">
        <ele>1228.998643</ele>
        <time>2024-12-06T12:13:44.000Z</time>
      </trkpt>
      <trkpt lat="43.75127" lon="6.75545">
        <ele>1228.360713</ele>
        <time>2024-12-06T12:13:45.000Z</time>
      </trkpt>
      <trkpt lat="43.75122" lon="6.75538">
        <ele>1226.874089</ele>
        <time>2024-12-06T12:13:47.000Z</time>
      </trkpt>
      <trkpt lat="43.75117" lon="6.7553">
        <ele>1225.165615</ele>
        <time>2024-12-06T12:13:49.000Z</time>
      </trkpt>
      <trkpt lat="43.75115" lon="6.75527">
        <ele>1224.423451</ele>
        <time>2024-12-06T12:13:50.000Z</time>
      </trkpt>
      <trkpt lat="43.75113" lon="6.75523">
        <ele>1223.759269</ele>
        <time>2024-12-06T12:13:51.000Z</time>
      </trkpt>
      <trkpt lat="43.75111" lon="6.7552">
        <ele>1223.119402</ele>
        <time>2024-12-06T12:13:52.000Z</time>
      </trkpt>
      <trkpt lat="43.75109" lon="6.75518">
        <ele>1222.583307</ele>
        <time>2024-12-06T12:13:53.000Z</time>
      </trkpt>
      <trkpt lat="43.75108" lon="6.75515">
        <ele>1222.097698</ele>
        <time>2024-12-06T12:13:54.000Z</time>
      </trkpt>
      <trkpt lat="43.75107" lon="6.75512">
        <ele>1221.560524</ele>
        <time>2024-12-06T12:13:55.000Z</time>
      </trkpt>
      <trkpt lat="43.75106" lon="6.75509">
        <ele>1221.006978</ele>
        <time>2024-12-06T12:13:56.000Z</time>
      </trkpt>
      <trkpt lat="43.75105" lon="6.75506">
        <ele>1220.48887</ele>
        <time>2024-12-06T12:13:57.000Z</time>
      </trkpt>
      <trkpt lat="43.75104" lon="6.75503">
        <ele>1219.992682</ele>
        <time>2024-12-06T12:13:58.000Z</time>
      </trkpt>
      <trkpt lat="43.75103" lon="6.755">
        <ele>1219.486915</ele>
        <time>2024-12-06T12:13:59.000Z</time>
      </trkpt>
      <trkpt lat="43.75102" lon="6.75497">
        <ele>1218.976521</ele>
        <time>2024-12-06T12:14:00.000Z</time>
      </trkpt>
      <trkpt lat="43.751" lon="6.75495">
        <ele>1218.465017</ele>
        <time>2024-12-06T12:14:01.000Z</time>
      </trkpt>
      <trkpt lat="43.75099" lon="6.75492">
        <ele>1217.909468</ele>
        <time>2024-12-06T12:14:02.000Z</time>
      </trkpt>
      <trkpt lat="43.75097" lon="6.7549">
        <ele>1217.307686</ele>
        <time>2024-12-06T12:14:03.000Z</time>
      </trkpt>
      <trkpt lat="43.7509" lon="6.75482">
        <ele>1215.457166</ele>
        <time>2024-12-06T12:14:06.000Z</time>
      </trkpt>
      <trkpt lat="43.75088" lon="6.75481">
        <ele>1214.922837</ele>
        <time>2024-12-06T12:14:07.000Z</time>
      </trkpt>
      <trkpt lat="43.75086" lon="6.75479">
        <ele>1214.419945</ele>
        <time>2024-12-06T12:14:08.000Z</time>
      </trkpt>
      <trkpt lat="43.75085" lon="6.75476">
        <ele>1213.917379</ele>
        <time>2024-12-06T12:14:09.000Z</time>
      </trkpt>
      <trkpt lat="43.75081" lon="6.75473">
        <ele>1213.035756</ele>
        <time>2024-12-06T12:14:11.000Z</time>
      </trkpt>
      <trkpt lat="43.75077" lon="6.75468">
        <ele>1211.870698</ele>
        <time>2024-12-06T12:14:13.000Z</time>
      </trkpt>
      <trkpt lat="43.75076" lon="6.75467">
        <ele>1211.466475</ele>
        <time>2024-12-06T12:14:14.000Z</time>
      </trkpt>
      <trkpt lat="43.75073" lon="6.75464">
        <ele>1210.660122</ele>
        <time>2024-12-06T12:14:16.000Z</time>
      </trkpt>
      <trkpt lat="43.75069" lon="6.75459">
        <ele>1209.549021</ele>
        <time>2024-12-06T12:14:18.000Z</time>
      </trkpt>
      <trkpt lat="43.75067" lon="6.75457">
        <ele>1208.984573</ele>
        <time>2024-12-06T12:14:19.000Z</time>
      </trkpt>
      <trkpt lat="43.75062" lon="6.75452">
        <ele>1207.631964</ele>
        <time>2024-12-06T12:14:21.000Z</time>
      </trkpt>
      <trkpt lat="43.75057" lon="6.75447">
        <ele>1206.333101</ele>
        <time>2024-12-06T12:14:23.000Z</time>
      </trkpt>
      <trkpt lat="43.75055" lon="6.75445">
        <ele>1205.702841</ele>
        <time>2024-12-06T12:14:24.000Z</time>
      </trkpt>
      <trkpt lat="43.75053" lon="6.75442">
        <ele>1205.076845</ele>
        <time>2024-12-06T12:14:25.000Z</time>
      </trkpt>
      <trkpt lat="43.75048" lon="6.75434">
        <ele>1203.516283</ele>
        <time>2024-12-06T12:14:27.000Z</time>
      </trkpt>
      <trkpt lat="43.75043" lon="6.75427">
        <ele>1201.932956</ele>
        <time>2024-12-06T12:14:29.000Z</time>
      </trkpt>
      <trkpt lat="43.7504" lon="6.75422">
        <ele>1200.974102</ele>
        <time>2024-12-06T12:14:30.000Z</time>
      </trkpt>
      <trkpt lat="43.75038" lon="6.75419">
        <ele>1200.258906</ele>
        <time>2024-12-06T12:14:31.000Z</time>
      </trkpt>
      <trkpt lat="43.75035" lon="6.75416">
        <ele>1199.450874</ele>
        <time>2024-12-06T12:14:32.000Z</time>
      </trkpt>
      <trkpt lat="43.75029" lon="6.7541">
        <ele>1197.846407</ele>
        <time>2024-12-06T12:14:34.000Z</time>
      </trkpt>
      <trkpt lat="43.75027" lon="6.75407">
        <ele>1197.192544</ele>
        <time>2024-12-06T12:14:35.000Z</time>
      </trkpt>
      <trkpt lat="43.75024" lon="6.75405">
        <ele>1196.631253</ele>
        <time>2024-12-06T12:14:36.000Z</time>
      </trkpt>
      <trkpt lat="43.75021" lon="6.75402">
        <ele>1195.902435</ele>
        <time>2024-12-06T12:14:37.000Z</time>
      </trkpt>
      <trkpt lat="43.75015" lon="6.75397">
        <ele>1194.441722</ele>
        <time>2024-12-06T12:14:39.000Z</time>
      </trkpt>
      <trkpt lat="43.75008" lon="6.75385">
        <ele>1192.379556</ele>
        <time>2024-12-06T12:14:42.000Z</time>
      </trkpt>
      <trkpt lat="43.75005" lon="6.7538">
        <ele>1191.457672</ele>
        <time>2024-12-06T12:14:43.000Z</time>
      </trkpt>
      <trkpt lat="43.75001" lon="6.75375">
        <ele>1190.52666</ele>
        <time>2024-12-06T12:14:44.000Z</time>
      </trkpt>
      <trkpt lat="43.74998" lon="6.75372">
        <ele>1189.713837</ele>
        <time>2024-12-06T12:14:45.000Z</time>
      </trkpt>
      <trkpt lat="43.74994" lon="6.75369">
        <ele>1188.985019</ele>
        <time>2024-12-06T12:14:46.000Z</time>
      </trkpt>
      <trkpt lat="43.7499" lon="6.75366">
        <ele>1187.920244</ele>
        <time>2024-12-06T12:14:47.000Z</time>
      </trkpt>
      <trkpt lat="43.74984" lon="6.75361">
        <ele>1186.720591</ele>
        <time>2024-12-06T12:14:48.000Z</time>
      </trkpt>
      <trkpt lat="43.7498" lon="6.75357">
        <ele>1185.773448</ele>
        <time>2024-12-06T12:14:49.000Z</time>
      </trkpt>
      <trkpt lat="43.74978" lon="6.75354">
        <ele>1185.127585</ele>
        <time>2024-12-06T12:14:50.000Z</time>
      </trkpt>
      <trkpt lat="43.74976" lon="6.7535">
        <ele>1184.452362</ele>
        <time>2024-12-06T12:14:51.000Z</time>
      </trkpt>
      <trkpt lat="43.74974" lon="6.75347">
        <ele>1183.836205</ele>
        <time>2024-12-06T12:14:52.000Z</time>
      </trkpt>
      <trkpt lat="43.74972" lon="6.75344">
        <ele>1183.303545</ele>
        <time>2024-12-06T12:14:53.000Z</time>
      </trkpt>
      <trkpt lat="43.7497" lon="6.75341">
        <ele>1182.785706</ele>
        <time>2024-12-06T12:14:54.000Z</time>
      </trkpt>
      <trkpt lat="43.74969" lon="6.75338">
        <ele>1182.30208</ele>
        <time>2024-12-06T12:14:55.000Z</time>
      </trkpt>
      <trkpt lat="43.74967" lon="6.75335">
        <ele>1181.807531</ele>
        <time>2024-12-06T12:14:56.000Z</time>
      </trkpt>
      <trkpt lat="43.74962" lon="6.75329">
        <ele>1180.537426</ele>
        <time>2024-12-06T12:14:58.000Z</time>
      </trkpt>
      <trkpt lat="43.74958" lon="6.75326">
        <ele>1179.700932</ele>
        <time>2024-12-06T12:14:59.000Z</time>
      </trkpt>
      <trkpt lat="43.74951" lon="6.75319">
        <ele>1177.917388</ele>
        <time>2024-12-06T12:15:01.000Z</time>
      </trkpt>
      <trkpt lat="43.74948" lon="6.75316">
        <ele>1177.301499</ele>
        <time>2024-12-06T12:15:02.000Z</time>
      </trkpt>
      <trkpt lat="43.74944" lon="6.75313">
        <ele>1176.428281</ele>
        <time>2024-12-06T12:15:03.000Z</time>
      </trkpt>
      <trkpt lat="43.74941" lon="6.75311">
        <ele>1175.71608</ele>
        <time>2024-12-06T12:15:04.000Z</time>
      </trkpt>
      <trkpt lat="43.74935" lon="6.75304">
        <ele>1174.246937</ele>
        <time>2024-12-06T12:15:06.000Z</time>
      </trkpt>
      <trkpt lat="43.7493" lon="6.75298">
        <ele>1172.944134</ele>
        <time>2024-12-06T12:15:08.000Z</time>
      </trkpt>
      <trkpt lat="43.74928" lon="6.75295">
        <ele>1172.421493</ele>
        <time>2024-12-06T12:15:09.000Z</time>
      </trkpt>
      <trkpt lat="43.74926" lon="6.75293">
        <ele>1171.92216</ele>
        <time>2024-12-06T12:15:10.000Z</time>
      </trkpt>
      <trkpt lat="43.7492" lon="6.75284">
        <ele>1170.252814</ele>
        <time>2024-12-06T12:15:13.000Z</time>
      </trkpt>
      <trkpt lat="43.74917" lon="6.75282">
        <ele>1169.684526</ele>
        <time>2024-12-06T12:15:14.000Z</time>
      </trkpt>
      <trkpt lat="43.74915" lon="6.7528">
        <ele>1169.234046</ele>
        <time>2024-12-06T12:15:15.000Z</time>
      </trkpt>
      <trkpt lat="43.74914" lon="6.7528">
        <ele>1168.978395</ele>
        <time>2024-12-06T12:15:16.000Z</time>
      </trkpt>
      <trkpt lat="43.74914" lon="6.75279">
        <ele>1168.919166</ele>
        <time>2024-12-06T12:15:18.000Z</time>
      </trkpt>
      <trkpt lat="43.74914" lon="6.75279">
        <ele>1168.919166</ele>
        <time>2024-12-06T12:15:39.000Z</time>
      </trkpt>
      <trkpt lat="43.74914" lon="6.75279">
        <ele>1168.895487</ele>
        <time>2024-12-06T12:15:44.000Z</time>
      </trkpt>
      <trkpt lat="43.74914" lon="6.75279">
        <ele>1168.854671</ele>
        <time>2024-12-06T12:15:45.000Z</time>
      </trkpt>
      <trkpt lat="43.74914" lon="6.75279">
        <ele>1168.854671</ele>
        <time>2024-12-06T12:15:54.000Z</time>
      </trkpt>
      <trkpt lat="43.74914" lon="6.75279">
        <ele>1168.854671</ele>
        <time>2024-12-06T12:16:05.000Z</time>
      </trkpt>
      <trkpt lat="43.74914" lon="6.75279">
        <ele>1168.854671</ele>
        <time>2024-12-06T12:16:10.000Z</time>
      </trkpt>
      <trkpt lat="43.74914" lon="6.75279">
        <ele>1168.854671</ele>
        <time>2024-12-06T12:16:40.000Z</time>
      </trkpt>
      <trkpt lat="43.74914" lon="6.75279">
        <ele>1168.854671</ele>
        <time>2024-12-06T12:16:43.000Z</time>
      </trkpt>
      <trkpt lat="43.74914" lon="6.75279">
        <ele>1168.854671</ele>
        <time>2024-12-06T12:17:28.000Z</time>
      </trkpt>
      <trkpt lat="43.74907" lon="6.75276">
        <ele>1167.3985</ele>
        <time>2024-12-06T12:17:48.000Z</time>
      </trkpt>
      <trkpt lat="43.74894" lon="6.75267">
        <ele>1164.673854</ele>
        <time>2024-12-06T12:17:52.000Z</time>
      </trkpt>
      <trkpt lat="43.74891" lon="6.75267">
        <ele>1164.131956</ele>
        <time>2024-12-06T12:17:53.000Z</time>
      </trkpt>
      <trkpt lat="43.74888" lon="6.75266">
        <ele>1163.572562</ele>
        <time>2024-12-06T12:17:54.000Z</time>
      </trkpt>
      <trkpt lat="43.7488" lon="6.75265">
        <ele>1161.959269</ele>
        <time>2024-12-06T12:17:56.000Z</time>
      </trkpt>
      <trkpt lat="43.74876" lon="6.75265">
        <ele>1160.934192</ele>
        <time>2024-12-06T12:17:57.000Z</time>
      </trkpt>
      <trkpt lat="43.74871" lon="6.75265">
        <ele>1159.954596</ele>
        <time>2024-12-06T12:17:58.000Z</time>
      </trkpt>
      <trkpt lat="43.74867" lon="6.75265">
        <ele>1159.056881</ele>
        <time>2024-12-06T12:17:59.000Z</time>
      </trkpt>
      <trkpt lat="43.74863" lon="6.75266">
        <ele>1158.157718</ele>
        <time>2024-12-06T12:18:00.000Z</time>
      </trkpt>
      <trkpt lat="43.74859" lon="6.75266">
        <ele>1157.402281</ele>
        <time>2024-12-06T12:18:01.000Z</time>
      </trkpt>
      <trkpt lat="43.74856" lon="6.75267">
        <ele>1156.66207</ele>
        <time>2024-12-06T12:18:02.000Z</time>
      </trkpt>
      <trkpt lat="43.74852" lon="6.75268">
        <ele>1155.887904</ele>
        <time>2024-12-06T12:18:03.000Z</time>
      </trkpt>
      <trkpt lat="43.74849" lon="6.75268">
        <ele>1155.227025</ele>
        <time>2024-12-06T12:18:04.000Z</time>
      </trkpt>
      <trkpt lat="43.74846" lon="6.75268">
        <ele>1154.544873</ele>
        <time>2024-12-06T12:18:05.000Z</time>
      </trkpt>
      <trkpt lat="43.74842" lon="6.75268">
        <ele>1153.814964</ele>
        <time>2024-12-06T12:18:06.000Z</time>
      </trkpt>
      <trkpt lat="43.74834" lon="6.75267">
        <ele>1152.089406</ele>
        <time>2024-12-06T12:18:08.000Z</time>
      </trkpt>
      <trkpt lat="43.7483" lon="6.75268">
        <ele>1151.129132</ele>
        <time>2024-12-06T12:18:09.000Z</time>
      </trkpt>
      <trkpt lat="43.74825" lon="6.75269">
        <ele>1150.135028</ele>
        <time>2024-12-06T12:18:10.000Z</time>
      </trkpt>
      <trkpt lat="43.74821" lon="6.7527">
        <ele>1149.252503</ele>
        <time>2024-12-06T12:18:11.000Z</time>
      </trkpt>
      <trkpt lat="43.74818" lon="6.75272">
        <ele>1148.460208</ele>
        <time>2024-12-06T12:18:12.000Z</time>
      </trkpt>
      <trkpt lat="43.74815" lon="6.75272">
        <ele>1147.806511</ele>
        <time>2024-12-06T12:18:13.000Z</time>
      </trkpt>
      <trkpt lat="43.74812" lon="6.75273">
        <ele>1147.224169</ele>
        <time>2024-12-06T12:18:14.000Z</time>
      </trkpt>
      <trkpt lat="43.74809" lon="6.75273">
        <ele>1146.627893</ele>
        <time>2024-12-06T12:18:15.000Z</time>
      </trkpt>
      <trkpt lat="43.74807" lon="6.75273">
        <ele>1146.072289</ele>
        <time>2024-12-06T12:18:16.000Z</time>
      </trkpt>
      <trkpt lat="43.74804" lon="6.75273">
        <ele>1145.431757</ele>
        <time>2024-12-06T12:18:17.000Z</time>
      </trkpt>
      <trkpt lat="43.748" lon="6.75274">
        <ele>1144.643204</ele>
        <time>2024-12-06T12:18:18.000Z</time>
      </trkpt>
      <trkpt lat="43.74792" lon="6.75276">
        <ele>1142.867336</ele>
        <time>2024-12-06T12:18:20.000Z</time>
      </trkpt>
      <trkpt lat="43.74783" lon="6.75279">
        <ele>1140.99275</ele>
        <time>2024-12-06T12:18:22.000Z</time>
      </trkpt>
      <trkpt lat="43.74777" lon="6.75283">
        <ele>1139.536071</ele>
        <time>2024-12-06T12:18:24.000Z</time>
      </trkpt>
      <trkpt lat="43.74775" lon="6.75285">
        <ele>1138.973417</ele>
        <time>2024-12-06T12:18:25.000Z</time>
      </trkpt>
      <trkpt lat="43.74773" lon="6.75286">
        <ele>1138.522076</ele>
        <time>2024-12-06T12:18:26.000Z</time>
      </trkpt>
      <trkpt lat="43.74771" lon="6.75287">
        <ele>1138.049149</ele>
        <time>2024-12-06T12:18:27.000Z</time>
      </trkpt>
      <trkpt lat="43.74769" lon="6.75288">
        <ele>1137.609835</ele>
        <time>2024-12-06T12:18:28.000Z</time>
      </trkpt>
      <trkpt lat="43.74767" lon="6.75288">
        <ele>1137.170521</ele>
        <time>2024-12-06T12:18:29.000Z</time>
      </trkpt>
      <trkpt lat="43.74765" lon="6.75289">
        <ele>1136.777166</ele>
        <time>2024-12-06T12:18:30.000Z</time>
      </trkpt>
      <trkpt lat="43.74761" lon="6.75292">
        <ele>1135.810285</ele>
        <time>2024-12-06T12:18:32.000Z</time>
      </trkpt>
      <trkpt lat="43.74759" lon="6.75293">
        <ele>1135.346087</ele>
        <time>2024-12-06T12:18:33.000Z</time>
      </trkpt>
      <trkpt lat="43.74757" lon="6.75294">
        <ele>1134.95849</ele>
        <time>2024-12-06T12:18:34.000Z</time>
      </trkpt>
      <trkpt lat="43.74755" lon="6.75295">
        <ele>1134.558868</ele>
        <time>2024-12-06T12:18:35.000Z</time>
      </trkpt>
      <trkpt lat="43.74754" lon="6.75296">
        <ele>1134.201527</ele>
        <time>2024-12-06T12:18:36.000Z</time>
      </trkpt>
      <trkpt lat="43.74752" lon="6.75296">
        <ele>1133.859412</ele>
        <time>2024-12-06T12:18:37.000Z</time>
      </trkpt>
      <trkpt lat="43.74751" lon="6.75296">
        <ele>1133.55969</ele>
        <time>2024-12-06T12:18:38.000Z</time>
      </trkpt>
      <trkpt lat="43.74749" lon="6.75298">
        <ele>1133.174433</ele>
        <time>2024-12-06T12:18:39.000Z</time>
      </trkpt>
      <trkpt lat="43.74748" lon="6.753">
        <ele>1132.694183</ele>
        <time>2024-12-06T12:18:40.000Z</time>
      </trkpt>
      <trkpt lat="43.74746" lon="6.75302">
        <ele>1132.256408</ele>
        <time>2024-12-06T12:18:41.000Z</time>
      </trkpt>
      <trkpt lat="43.74744" lon="6.75303">
        <ele>1131.79221</ele>
        <time>2024-12-06T12:18:42.000Z</time>
      </trkpt>
      <trkpt lat="43.74738" lon="6.75308">
        <ele>1130.256366</ele>
        <time>2024-12-06T12:18:45.000Z</time>
      </trkpt>
      <trkpt lat="43.74735" lon="6.75311">
        <ele>1129.538363</ele>
        <time>2024-12-06T12:18:47.000Z</time>
      </trkpt>
      <trkpt lat="43.74734" lon="6.75312">
        <ele>1129.169423</ele>
        <time>2024-12-06T12:18:48.000Z</time>
      </trkpt>
      <trkpt lat="43.74732" lon="6.75313">
        <ele>1128.871173</ele>
        <time>2024-12-06T12:18:49.000Z</time>
      </trkpt>
      <trkpt lat="43.74731" lon="6.75314">
        <ele>1128.528358</ele>
        <time>2024-12-06T12:18:50.000Z</time>
      </trkpt>
      <trkpt lat="43.7473" lon="6.75315">
        <ele>1128.211368</ele>
        <time>2024-12-06T12:18:51.000Z</time>
      </trkpt>
      <trkpt lat="43.74728" lon="6.75315">
        <ele>1127.906946</ele>
        <time>2024-12-06T12:18:52.000Z</time>
      </trkpt>
      <trkpt lat="43.74727" lon="6.75315">
        <ele>1127.587512</ele>
        <time>2024-12-06T12:18:53.000Z</time>
      </trkpt>
      <trkpt lat="43.74725" lon="6.75315">
        <ele>1127.182604</ele>
        <time>2024-12-06T12:18:54.000Z</time>
      </trkpt>
      <trkpt lat="43.74722" lon="6.75315">
        <ele>1126.671279</ele>
        <time>2024-12-06T12:18:55.000Z</time>
      </trkpt>
      <trkpt lat="43.7472" lon="6.75315">
        <ele>1126.13889</ele>
        <time>2024-12-06T12:18:56.000Z</time>
      </trkpt>
      <trkpt lat="43.74718" lon="6.75315">
        <ele>1125.624105</ele>
        <time>2024-12-06T12:18:57.000Z</time>
      </trkpt>
      <trkpt lat="43.74713" lon="6.75313">
        <ele>1124.716955</ele>
        <time>2024-12-06T12:18:59.000Z</time>
      </trkpt>
      <trkpt lat="43.74708" lon="6.75313">
        <ele>1123.747006</ele>
        <time>2024-12-06T12:19:01.000Z</time>
      </trkpt>
      <trkpt lat="43.747" lon="6.75313">
        <ele>1122.455026</ele>
        <time>2024-12-06T12:19:03.000Z</time>
      </trkpt>
      <trkpt lat="43.74695" lon="6.75314">
        <ele>1121.759134</ele>
        <time>2024-12-06T12:19:04.000Z</time>
      </trkpt>
      <trkpt lat="43.74691" lon="6.75314">
        <ele>1121.016366</ele>
        <time>2024-12-06T12:19:05.000Z</time>
      </trkpt>
      <trkpt lat="43.74687" lon="6.75313">
        <ele>1120.334586</ele>
        <time>2024-12-06T12:19:06.000Z</time>
      </trkpt>
      <trkpt lat="43.74684" lon="6.75313">
        <ele>1119.833482</ele>
        <time>2024-12-06T12:19:07.000Z</time>
      </trkpt>
      <trkpt lat="43.74682" lon="6.75313">
        <ele>1119.542833</ele>
        <time>2024-12-06T12:19:08.000Z</time>
      </trkpt>
      <trkpt lat="43.74681" lon="6.75313">
        <ele>1119.4772</ele>
        <time>2024-12-06T12:19:09.000Z</time>
      </trkpt>
      <trkpt lat="43.74682" lon="6.75313">
        <ele>1119.410533</ele>
        <time>2024-12-06T12:19:26.000Z</time>
      </trkpt>
      <trkpt lat="43.74682" lon="6.75313">
        <ele>1119.410533</ele>
        <time>2024-12-06T12:19:45.000Z</time>
      </trkpt>
      <trkpt lat="43.74682" lon="6.75313">
        <ele>1119.410533</ele>
        <time>2024-12-06T12:20:01.000Z</time>
      </trkpt>
      <trkpt lat="43.74682" lon="6.75313">
        <ele>1119.410533</ele>
        <time>2024-12-06T12:20:03.000Z</time>
      </trkpt>
      <trkpt lat="43.74682" lon="6.75313">
        <ele>1119.362914</ele>
        <time>2024-12-06T12:20:12.000Z</time>
      </trkpt>
      <trkpt lat="43.74679" lon="6.75313">
        <ele>1118.958563</ele>
        <time>2024-12-06T12:21:21.000Z</time>
      </trkpt>
      <trkpt lat="43.74678" lon="6.75312">
        <ele>1118.683872</ele>
        <time>2024-12-06T12:21:22.000Z</time>
      </trkpt>
      <trkpt lat="43.74673" lon="6.75306">
        <ele>1117.611105</ele>
        <time>2024-12-06T12:21:25.000Z</time>
      </trkpt>
      <trkpt lat="43.74673" lon="6.75303">
        <ele>1117.213191</ele>
        <time>2024-12-06T12:21:26.000Z</time>
      </trkpt>
      <trkpt lat="43.74674" lon="6.75297">
        <ele>1116.535869</ele>
        <time>2024-12-06T12:21:28.000Z</time>
      </trkpt>
      <trkpt lat="43.74674" lon="6.75294">
        <ele>1116.18444</ele>
        <time>2024-12-06T12:21:29.000Z</time>
      </trkpt>
      <trkpt lat="43.74674" lon="6.75287">
        <ele>1115.363928</ele>
        <time>2024-12-06T12:21:31.000Z</time>
      </trkpt>
      <trkpt lat="43.74677" lon="6.75266">
        <ele>1112.846761</ele>
        <time>2024-12-06T12:21:36.000Z</time>
      </trkpt>
      <trkpt lat="43.7468" lon="6.75256">
        <ele>1111.622213</ele>
        <time>2024-12-06T12:21:38.000Z</time>
      </trkpt>
      <trkpt lat="43.74687" lon="6.75242">
        <ele>1109.570119</ele>
        <time>2024-12-06T12:21:41.000Z</time>
      </trkpt>
      <trkpt lat="43.7469" lon="6.75238">
        <ele>1108.911585</ele>
        <time>2024-12-06T12:21:42.000Z</time>
      </trkpt>
      <trkpt lat="43.74694" lon="6.75236">
        <ele>1108.318266</ele>
        <time>2024-12-06T12:21:43.000Z</time>
      </trkpt>
      <trkpt lat="43.74697" lon="6.75234">
        <ele>1107.760982</ele>
        <time>2024-12-06T12:21:44.000Z</time>
      </trkpt>
      <trkpt lat="43.747" lon="6.75231">
        <ele>1107.195564</ele>
        <time>2024-12-06T12:21:45.000Z</time>
      </trkpt>
      <trkpt lat="43.74702" lon="6.75228">
        <ele>1106.657733</ele>
        <time>2024-12-06T12:21:46.000Z</time>
      </trkpt>
      <trkpt lat="43.74704" lon="6.75226">
        <ele>1106.22261</ele>
        <time>2024-12-06T12:21:47.000Z</time>
      </trkpt>
      <trkpt lat="43.74706" lon="6.75223">
        <ele>1105.8253</ele>
        <time>2024-12-06T12:21:48.000Z</time>
      </trkpt>
      <trkpt lat="43.74707" lon="6.7522">
        <ele>1105.390744</ele>
        <time>2024-12-06T12:21:49.000Z</time>
      </trkpt>
      <trkpt lat="43.74708" lon="6.75216">
        <ele>1104.940194</ele>
        <time>2024-12-06T12:21:50.000Z</time>
      </trkpt>
      <trkpt lat="43.74707" lon="6.75213">
        <ele>1104.531933</ele>
        <time>2024-12-06T12:21:51.000Z</time>
      </trkpt>
      <trkpt lat="43.74705" lon="6.7521">
        <ele>1104.087176</ele>
        <time>2024-12-06T12:21:52.000Z</time>
      </trkpt>
      <trkpt lat="43.74703" lon="6.75207">
        <ele>1103.602476</ele>
        <time>2024-12-06T12:21:53.000Z</time>
      </trkpt>
      <trkpt lat="43.74696" lon="6.75205">
        <ele>1102.518676</ele>
        <time>2024-12-06T12:21:55.000Z</time>
      </trkpt>
      <trkpt lat="43.74693" lon="6.75204">
        <ele>1102.001442</ele>
        <time>2024-12-06T12:21:56.000Z</time>
      </trkpt>
      <trkpt lat="43.7469" lon="6.75204">
        <ele>1101.492257</ele>
        <time>2024-12-06T12:21:57.000Z</time>
      </trkpt>
      <trkpt lat="43.74687" lon="6.75202">
        <ele>1100.925324</ele>
        <time>2024-12-06T12:21:58.000Z</time>
      </trkpt>
      <trkpt lat="43.74683" lon="6.75199">
        <ele>1100.303678</ele>
        <time>2024-12-06T12:21:59.000Z</time>
      </trkpt>
      <trkpt lat="43.74681" lon="6.75197">
        <ele>1099.790493</ele>
        <time>2024-12-06T12:22:00.000Z</time>
      </trkpt>
      <trkpt lat="43.74674" lon="6.75195">
        <ele>1098.728442</ele>
        <time>2024-12-06T12:22:02.000Z</time>
      </trkpt>
      <trkpt lat="43.74671" lon="6.75195">
        <ele>1098.24053</ele>
        <time>2024-12-06T12:22:03.000Z</time>
      </trkpt>
      <trkpt lat="43.74665" lon="6.75194">
        <ele>1097.217859</ele>
        <time>2024-12-06T12:22:05.000Z</time>
      </trkpt>
      <trkpt lat="43.74662" lon="6.75193">
        <ele>1096.708674</ele>
        <time>2024-12-06T12:22:06.000Z</time>
      </trkpt>
      <trkpt lat="43.74659" lon="6.75192">
        <ele>1096.215354</ele>
        <time>2024-12-06T12:22:07.000Z</time>
      </trkpt>
      <trkpt lat="43.74656" lon="6.75191">
        <ele>1095.760892</ele>
        <time>2024-12-06T12:22:08.000Z</time>
      </trkpt>
      <trkpt lat="43.74653" lon="6.75189">
        <ele>1095.22439</ele>
        <time>2024-12-06T12:22:09.000Z</time>
      </trkpt>
      <trkpt lat="43.7465" lon="6.75188">
        <ele>1094.813638</ele>
        <time>2024-12-06T12:22:10.000Z</time>
      </trkpt>
      <trkpt lat="43.74648" lon="6.75187">
        <ele>1094.502505</ele>
        <time>2024-12-06T12:22:11.000Z</time>
      </trkpt>
      <trkpt lat="43.74646" lon="6.75186">
        <ele>1094.130775</ele>
        <time>2024-12-06T12:22:12.000Z</time>
      </trkpt>
      <trkpt lat="43.74643" lon="6.75185">
        <ele>1093.738379</ele>
        <time>2024-12-06T12:22:13.000Z</time>
      </trkpt>
      <trkpt lat="43.74639" lon="6.75184">
        <ele>1093.227873</ele>
        <time>2024-12-06T12:22:14.000Z</time>
      </trkpt>
      <trkpt lat="43.74636" lon="6.75184">
        <ele>1092.784564</ele>
        <time>2024-12-06T12:22:16.000Z</time>
      </trkpt>
      <trkpt lat="43.74636" lon="6.75184">
        <ele>1092.784564</ele>
        <time>2024-12-06T12:22:17.000Z</time>
      </trkpt>
      <trkpt lat="43.74636" lon="6.75184">
        <ele>1092.693436</ele>
        <time>2024-12-06T12:22:33.000Z</time>
      </trkpt>
      <trkpt lat="43.7463" lon="6.75183">
        <ele>1091.873923</ele>
        <time>2024-12-06T12:22:36.000Z</time>
      </trkpt>
      <trkpt lat="43.74627" lon="6.75184">
        <ele>1091.449381</ele>
        <time>2024-12-06T12:22:37.000Z</time>
      </trkpt>
      <trkpt lat="43.74624" lon="6.75185">
        <ele>1090.942644</ele>
        <time>2024-12-06T12:22:38.000Z</time>
      </trkpt>
      <trkpt lat="43.74616" lon="6.75188">
        <ele>1089.84679</ele>
        <time>2024-12-06T12:22:40.000Z</time>
      </trkpt>
      <trkpt lat="43.74612" lon="6.75189">
        <ele>1089.169263</ele>
        <time>2024-12-06T12:22:41.000Z</time>
      </trkpt>
      <trkpt lat="43.74607" lon="6.75191">
        <ele>1088.507714</ele>
        <time>2024-12-06T12:22:42.000Z</time>
      </trkpt>
      <trkpt lat="43.74599" lon="6.75194">
        <ele>1087.249404</ele>
        <time>2024-12-06T12:22:44.000Z</time>
      </trkpt>
      <trkpt lat="43.74595" lon="6.75197">
        <ele>1086.687267</ele>
        <time>2024-12-06T12:22:45.000Z</time>
      </trkpt>
      <trkpt lat="43.74591" lon="6.75199">
        <ele>1086.043058</ele>
        <time>2024-12-06T12:22:46.000Z</time>
      </trkpt>
      <trkpt lat="43.74588" lon="6.75202">
        <ele>1085.561427</ele>
        <time>2024-12-06T12:22:47.000Z</time>
      </trkpt>
      <trkpt lat="43.74581" lon="6.75208">
        <ele>1084.332575</ele>
        <time>2024-12-06T12:22:49.000Z</time>
      </trkpt>
      <trkpt lat="43.74576" lon="6.75211">
        <ele>1083.631936</ele>
        <time>2024-12-06T12:22:50.000Z</time>
      </trkpt>
      <trkpt lat="43.74567" lon="6.75217">
        <ele>1082.178126</ele>
        <time>2024-12-06T12:22:52.000Z</time>
      </trkpt>
      <trkpt lat="43.74562" lon="6.75219">
        <ele>1081.364748</ele>
        <time>2024-12-06T12:22:53.000Z</time>
      </trkpt>
      <trkpt lat="43.74555" lon="6.75221">
        <ele>1080.461884</ele>
        <time>2024-12-06T12:22:54.000Z</time>
      </trkpt>
      <trkpt lat="43.74549" lon="6.75221">
        <ele>1079.517677</ele>
        <time>2024-12-06T12:22:55.000Z</time>
      </trkpt>
      <trkpt lat="43.74537" lon="6.75223">
        <ele>1077.750857</ele>
        <time>2024-12-06T12:22:57.000Z</time>
      </trkpt>
      <trkpt lat="43.74532" lon="6.75224">
        <ele>1077.033939</ele>
        <time>2024-12-06T12:22:58.000Z</time>
      </trkpt>
      <trkpt lat="43.74528" lon="6.75224">
        <ele>1076.46171</ele>
        <time>2024-12-06T12:22:59.000Z</time>
      </trkpt>
      <trkpt lat="43.74524" lon="6.75225">
        <ele>1075.909166</ele>
        <time>2024-12-06T12:23:00.000Z</time>
      </trkpt>
      <trkpt lat="43.74521" lon="6.75225">
        <ele>1075.491706</ele>
        <time>2024-12-06T12:23:01.000Z</time>
      </trkpt>
      <trkpt lat="43.74519" lon="6.75224">
        <ele>1075.157567</ele>
        <time>2024-12-06T12:23:02.000Z</time>
      </trkpt>
      <trkpt lat="43.74517" lon="6.75223">
        <ele>1074.816794</ele>
        <time>2024-12-06T12:23:03.000Z</time>
      </trkpt>
      <trkpt lat="43.74515" lon="6.75221">
        <ele>1074.564032</ele>
        <time>2024-12-06T12:23:04.000Z</time>
      </trkpt>
      <trkpt lat="43.74515" lon="6.75219">
        <ele>1074.384132</ele>
        <time>2024-12-06T12:23:05.000Z</time>
      </trkpt>
      <trkpt lat="43.74513" lon="6.75217">
        <ele>1074.06198</ele>
        <time>2024-12-06T12:23:06.000Z</time>
      </trkpt>
      <trkpt lat="43.74511" lon="6.75213">
        <ele>1073.504544</ele>
        <time>2024-12-06T12:23:07.000Z</time>
      </trkpt>
      <trkpt lat="43.74507" lon="6.75208">
        <ele>1072.805649</ele>
        <time>2024-12-06T12:23:08.000Z</time>
      </trkpt>
      <trkpt lat="43.74503" lon="6.75197">
        <ele>1071.550403</ele>
        <time>2024-12-06T12:23:10.000Z</time>
      </trkpt>
      <trkpt lat="43.74497" lon="6.75187">
        <ele>1070.137306</ele>
        <time>2024-12-06T12:23:12.000Z</time>
      </trkpt>
      <trkpt lat="43.74492" lon="6.75184">
        <ele>1069.430998</ele>
        <time>2024-12-06T12:23:13.000Z</time>
      </trkpt>
      <trkpt lat="43.74487" lon="6.75182">
        <ele>1068.791155</ele>
        <time>2024-12-06T12:23:14.000Z</time>
      </trkpt>
      <trkpt lat="43.74481" lon="6.7518">
        <ele>1068.116828</ele>
        <time>2024-12-06T12:23:15.000Z</time>
      </trkpt>
      <trkpt lat="43.74475" lon="6.7518">
        <ele>1067.484463</ele>
        <time>2024-12-06T12:23:16.000Z</time>
      </trkpt>
      <trkpt lat="43.7447" lon="6.7518">
        <ele>1066.900817</ele>
        <time>2024-12-06T12:23:17.000Z</time>
      </trkpt>
      <trkpt lat="43.7446" lon="6.75182">
        <ele>1065.689991</ele>
        <time>2024-12-06T12:23:19.000Z</time>
      </trkpt>
      <trkpt lat="43.74455" lon="6.75183">
        <ele>1065.119067</ele>
        <time>2024-12-06T12:23:20.000Z</time>
      </trkpt>
      <trkpt lat="43.74451" lon="6.75185">
        <ele>1064.553664</ele>
        <time>2024-12-06T12:23:21.000Z</time>
      </trkpt>
      <trkpt lat="43.74446" lon="6.75188">
        <ele>1063.910653</ele>
        <time>2024-12-06T12:23:22.000Z</time>
      </trkpt>
      <trkpt lat="43.74441" lon="6.75193">
        <ele>1063.219048</ele>
        <time>2024-12-06T12:23:23.000Z</time>
      </trkpt>
      <trkpt lat="43.74436" lon="6.75198">
        <ele>1062.487939</ele>
        <time>2024-12-06T12:23:24.000Z</time>
      </trkpt>
      <trkpt lat="43.74431" lon="6.75204">
        <ele>1061.764429</ele>
        <time>2024-12-06T12:23:25.000Z</time>
      </trkpt>
      <trkpt lat="43.74427" lon="6.75209">
        <ele>1061.118078</ele>
        <time>2024-12-06T12:23:26.000Z</time>
      </trkpt>
      <trkpt lat="43.74423" lon="6.75213">
        <ele>1060.518162</ele>
        <time>2024-12-06T12:23:27.000Z</time>
      </trkpt>
      <trkpt lat="43.74419" lon="6.75217">
        <ele>1059.935879</ele>
        <time>2024-12-06T12:23:28.000Z</time>
      </trkpt>
      <trkpt lat="43.74415" lon="6.7522">
        <ele>1059.372141</ele>
        <time>2024-12-06T12:23:29.000Z</time>
      </trkpt>
      <trkpt lat="43.74411" lon="6.75223">
        <ele>1058.930235</ele>
        <time>2024-12-06T12:23:30.000Z</time>
      </trkpt>
      <trkpt lat="43.74408" lon="6.75227">
        <ele>1058.372632</ele>
        <time>2024-12-06T12:23:31.000Z</time>
      </trkpt>
      <trkpt lat="43.74401" lon="6.7524">
        <ele>1057.005049</ele>
        <time>2024-12-06T12:23:33.000Z</time>
      </trkpt>
      <trkpt lat="43.74394" lon="6.75253">
        <ele>1055.657954</ele>
        <time>2024-12-06T12:23:35.000Z</time>
      </trkpt>
      <trkpt lat="43.74379" lon="6.75282">
        <ele>1052.629602</ele>
        <time>2024-12-06T12:23:40.000Z</time>
      </trkpt>
      <trkpt lat="43.74377" lon="6.75285">
        <ele>1052.285355</ele>
        <time>2024-12-06T12:23:41.000Z</time>
      </trkpt>
      <trkpt lat="43.74375" lon="6.75288">
        <ele>1052.011303</ele>
        <time>2024-12-06T12:23:42.000Z</time>
      </trkpt>
      <trkpt lat="43.74374" lon="6.7529">
        <ele>1051.804754</ele>
        <time>2024-12-06T12:23:43.000Z</time>
      </trkpt>
      <trkpt lat="43.74373" lon="6.75291">
        <ele>1051.627021</ele>
        <time>2024-12-06T12:23:44.000Z</time>
      </trkpt>
      <trkpt lat="43.74372" lon="6.75293">
        <ele>1051.469791</ele>
        <time>2024-12-06T12:23:45.000Z</time>
      </trkpt>
      <trkpt lat="43.74372" lon="6.75294">
        <ele>1051.366516</ele>
        <time>2024-12-06T12:23:46.000Z</time>
      </trkpt>
      <trkpt lat="43.74372" lon="6.75294">
        <ele>1051.327648</ele>
        <time>2024-12-06T12:23:49.000Z</time>
      </trkpt>
      <trkpt lat="43.74372" lon="6.75294">
        <ele>1051.327648</ele>
        <time>2024-12-06T12:24:03.000Z</time>
      </trkpt>
      <trkpt lat="43.74372" lon="6.75294">
        <ele>1051.327648</ele>
        <time>2024-12-06T12:24:27.000Z</time>
      </trkpt>
      <trkpt lat="43.74372" lon="6.75294">
        <ele>1051.327648</ele>
        <time>2024-12-06T12:24:31.000Z</time>
      </trkpt>
      <trkpt lat="43.74372" lon="6.75294">
        <ele>1051.327648</ele>
        <time>2024-12-06T12:24:35.000Z</time>
      </trkpt>
      <trkpt lat="43.74371" lon="6.75294">
        <ele>1051.291953</ele>
        <time>2024-12-06T12:24:39.000Z</time>
      </trkpt>
      <trkpt lat="43.74365" lon="6.75293">
        <ele>1050.535615</ele>
        <time>2024-12-06T12:24:43.000Z</time>
      </trkpt>
      <trkpt lat="43.74363" lon="6.75288">
        <ele>1050.015874</ele>
        <time>2024-12-06T12:24:45.000Z</time>
      </trkpt>
      <trkpt lat="43.74362" lon="6.75285">
        <ele>1049.80216</ele>
        <time>2024-12-06T12:24:46.000Z</time>
      </trkpt>
      <trkpt lat="43.74362" lon="6.75283">
        <ele>1049.621638</ele>
        <time>2024-12-06T12:24:47.000Z</time>
      </trkpt>
      <trkpt lat="43.74362" lon="6.75281">
        <ele>1049.443013</ele>
        <time>2024-12-06T12:24:48.000Z</time>
      </trkpt>
      <trkpt lat="43.74362" lon="6.75274">
        <ele>1048.835389</ele>
        <time>2024-12-06T12:24:51.000Z</time>
      </trkpt>
      <trkpt lat="43.74363" lon="6.75271">
        <ele>1048.623987</ele>
        <time>2024-12-06T12:24:52.000Z</time>
      </trkpt>
      <trkpt lat="43.74364" lon="6.75269">
        <ele>1048.431128</ele>
        <time>2024-12-06T12:24:53.000Z</time>
      </trkpt>
      <trkpt lat="43.74364" lon="6.75268">
        <ele>1048.301251</ele>
        <time>2024-12-06T12:24:54.000Z</time>
      </trkpt>
      <trkpt lat="43.74365" lon="6.75267">
        <ele>1048.195579</ele>
        <time>2024-12-06T12:24:55.000Z</time>
      </trkpt>
      <trkpt lat="43.74365" lon="6.75265">
        <ele>1048.047222</ele>
        <time>2024-12-06T12:24:56.000Z</time>
      </trkpt>
      <trkpt lat="43.74365" lon="6.75263">
        <ele>1047.909914</ele>
        <time>2024-12-06T12:24:57.000Z</time>
      </trkpt>
      <trkpt lat="43.74365" lon="6.75261">
        <ele>1047.772201</ele>
        <time>2024-12-06T12:24:58.000Z</time>
      </trkpt>
      <trkpt lat="43.74365" lon="6.75259">
        <ele>1047.621237</ele>
        <time>2024-12-06T12:24:59.000Z</time>
      </trkpt>
      <trkpt lat="43.74364" lon="6.75257">
        <ele>1047.441857</ele>
        <time>2024-12-06T12:25:00.000Z</time>
      </trkpt>
      <trkpt lat="43.74363" lon="6.75255">
        <ele>1047.253976</ele>
        <time>2024-12-06T12:25:01.000Z</time>
      </trkpt>
      <trkpt lat="43.74362" lon="6.75253">
        <ele>1047.085492</ele>
        <time>2024-12-06T12:25:02.000Z</time>
      </trkpt>
      <trkpt lat="43.74362" lon="6.75253">
        <ele>1047.02983</ele>
        <time>2024-12-06T12:25:03.000Z</time>
      </trkpt>
      <trkpt lat="43.74362" lon="6.75253">
        <ele>1047.02983</ele>
        <time>2024-12-06T12:25:06.000Z</time>
      </trkpt>
      <trkpt lat="43.74362" lon="6.75253">
        <ele>1047.008712</ele>
        <time>2024-12-06T12:25:16.000Z</time>
      </trkpt>
      <trkpt lat="43.74362" lon="6.75253">
        <ele>1047.008712</ele>
        <time>2024-12-06T12:25:19.000Z</time>
      </trkpt>
      <trkpt lat="43.74359" lon="6.75252">
        <ele>1046.737777</ele>
        <time>2024-12-06T12:25:26.000Z</time>
      </trkpt>
      <trkpt lat="43.74355" lon="6.7525">
        <ele>1046.243184</ele>
        <time>2024-12-06T12:25:28.000Z</time>
      </trkpt>
      <trkpt lat="43.7435" lon="6.7525">
        <ele>1045.767787</ele>
        <time>2024-12-06T12:25:30.000Z</time>
      </trkpt>
      <trkpt lat="43.74348" lon="6.75251">
        <ele>1045.549962</ele>
        <time>2024-12-06T12:25:31.000Z</time>
      </trkpt>
      <trkpt lat="43.74346" lon="6.75252">
        <ele>1045.33533</ele>
        <time>2024-12-06T12:25:32.000Z</time>
      </trkpt>
      <trkpt lat="43.7434" lon="6.75255">
        <ele>1044.64653</ele>
        <time>2024-12-06T12:25:35.000Z</time>
      </trkpt>
      <trkpt lat="43.74338" lon="6.75258">
        <ele>1044.320876</ele>
        <time>2024-12-06T12:25:36.000Z</time>
      </trkpt>
      <trkpt lat="43.74329" lon="6.75271">
        <ele>1042.923529</ele>
        <time>2024-12-06T12:25:39.000Z</time>
      </trkpt>
      <trkpt lat="43.74326" lon="6.75277">
        <ele>1042.360833</ele>
        <time>2024-12-06T12:25:40.000Z</time>
      </trkpt>
      <trkpt lat="43.74323" lon="6.75283">
        <ele>1041.828704</ele>
        <time>2024-12-06T12:25:41.000Z</time>
      </trkpt>
      <trkpt lat="43.7432" lon="6.75288">
        <ele>1041.337315</ele>
        <time>2024-12-06T12:25:42.000Z</time>
      </trkpt>
      <trkpt lat="43.74319" lon="6.75294">
        <ele>1040.876719</ele>
        <time>2024-12-06T12:25:43.000Z</time>
      </trkpt>
      <trkpt lat="43.74317" lon="6.753">
        <ele>1040.397857</ele>
        <time>2024-12-06T12:25:44.000Z</time>
      </trkpt>
      <trkpt lat="43.74315" lon="6.75305">
        <ele>1039.920735</ele>
        <time>2024-12-06T12:25:45.000Z</time>
      </trkpt>
      <trkpt lat="43.74315" lon="6.75318">
        <ele>1038.943804</ele>
        <time>2024-12-06T12:25:47.000Z</time>
      </trkpt>
      <trkpt lat="43.74316" lon="6.75325">
        <ele>1038.384511</ele>
        <time>2024-12-06T12:25:48.000Z</time>
      </trkpt>
      <trkpt lat="43.74317" lon="6.75333">
        <ele>1037.832708</ele>
        <time>2024-12-06T12:25:49.000Z</time>
      </trkpt>
      <trkpt lat="43.74318" lon="6.75338">
        <ele>1037.358986</ele>
        <time>2024-12-06T12:25:50.000Z</time>
      </trkpt>
      <trkpt lat="43.74321" lon="6.75344">
        <ele>1036.882511</ele>
        <time>2024-12-06T12:25:51.000Z</time>
      </trkpt>
      <trkpt lat="43.74324" lon="6.75349">
        <ele>1036.362872</ele>
        <time>2024-12-06T12:25:52.000Z</time>
      </trkpt>
      <trkpt lat="43.74327" lon="6.75355">
        <ele>1035.793641</ele>
        <time>2024-12-06T12:25:53.000Z</time>
      </trkpt>
      <trkpt lat="43.74332" lon="6.75369">
        <ele>1034.586244</ele>
        <time>2024-12-06T12:25:55.000Z</time>
      </trkpt>
      <trkpt lat="43.74338" lon="6.75383">
        <ele>1033.383983</ele>
        <time>2024-12-06T12:25:57.000Z</time>
      </trkpt>
      <trkpt lat="43.74339" lon="6.75389">
        <ele>1032.867296</ele>
        <time>2024-12-06T12:25:58.000Z</time>
      </trkpt>
      <trkpt lat="43.74338" lon="6.75395">
        <ele>1032.424358</ele>
        <time>2024-12-06T12:25:59.000Z</time>
      </trkpt>
      <trkpt lat="43.74335" lon="6.75399">
        <ele>1031.984533</ele>
        <time>2024-12-06T12:26:00.000Z</time>
      </trkpt>
      <trkpt lat="43.74331" lon="6.75402">
        <ele>1031.444251</ele>
        <time>2024-12-06T12:26:01.000Z</time>
      </trkpt>
      <trkpt lat="43.7432" lon="6.75409">
        <ele>1030.233011</ele>
        <time>2024-12-06T12:26:03.000Z</time>
      </trkpt>
      <trkpt lat="43.74315" lon="6.75413">
        <ele>1029.598331</ele>
        <time>2024-12-06T12:26:04.000Z</time>
      </trkpt>
      <trkpt lat="43.74309" lon="6.75417">
        <ele>1029.021172</ele>
        <time>2024-12-06T12:26:05.000Z</time>
      </trkpt>
      <trkpt lat="43.74304" lon="6.75422">
        <ele>1028.435557</ele>
        <time>2024-12-06T12:26:06.000Z</time>
      </trkpt>
      <trkpt lat="43.74297" lon="6.75433">
        <ele>1027.479576</ele>
        <time>2024-12-06T12:26:08.000Z</time>
      </trkpt>
      <trkpt lat="43.74295" lon="6.75439">
        <ele>1027.057931</ele>
        <time>2024-12-06T12:26:09.000Z</time>
      </trkpt>
      <trkpt lat="43.74295" lon="6.75445">
        <ele>1026.616364</ele>
        <time>2024-12-06T12:26:10.000Z</time>
      </trkpt>
      <trkpt lat="43.74295" lon="6.75452">
        <ele>1026.149434</ele>
        <time>2024-12-06T12:26:11.000Z</time>
      </trkpt>
      <trkpt lat="43.74297" lon="6.75459">
        <ele>1025.686557</ele>
        <time>2024-12-06T12:26:12.000Z</time>
      </trkpt>
      <trkpt lat="43.74303" lon="6.75469">
        <ele>1024.786977</ele>
        <time>2024-12-06T12:26:14.000Z</time>
      </trkpt>
      <trkpt lat="43.74307" lon="6.75474">
        <ele>1024.358273</ele>
        <time>2024-12-06T12:26:15.000Z</time>
      </trkpt>
      <trkpt lat="43.74309" lon="6.7548">
        <ele>1023.91164</ele>
        <time>2024-12-06T12:26:16.000Z</time>
      </trkpt>
      <trkpt lat="43.74311" lon="6.75492">
        <ele>1023.085089</ele>
        <time>2024-12-06T12:26:18.000Z</time>
      </trkpt>
      <trkpt lat="43.74306" lon="6.75502">
        <ele>1022.286916</ele>
        <time>2024-12-06T12:26:20.000Z</time>
      </trkpt>
      <trkpt lat="43.74303" lon="6.75507">
        <ele>1021.848456</ele>
        <time>2024-12-06T12:26:21.000Z</time>
      </trkpt>
      <trkpt lat="43.743" lon="6.7551">
        <ele>1021.463057</ele>
        <time>2024-12-06T12:26:22.000Z</time>
      </trkpt>
      <trkpt lat="43.74297" lon="6.75514">
        <ele>1021.143382</ele>
        <time>2024-12-06T12:26:23.000Z</time>
      </trkpt>
      <trkpt lat="43.74295" lon="6.75517">
        <ele>1020.852762</ele>
        <time>2024-12-06T12:26:24.000Z</time>
      </trkpt>
      <trkpt lat="43.74294" lon="6.75522">
        <ele>1020.474911</ele>
        <time>2024-12-06T12:26:25.000Z</time>
      </trkpt>
      <trkpt lat="43.74292" lon="6.75529">
        <ele>1020.030241</ele>
        <time>2024-12-06T12:26:26.000Z</time>
      </trkpt>
      <trkpt lat="43.7429" lon="6.75535">
        <ele>1019.585571</ele>
        <time>2024-12-06T12:26:27.000Z</time>
      </trkpt>
      <trkpt lat="43.74284" lon="6.75546">
        <ele>1018.696816</ele>
        <time>2024-12-06T12:26:29.000Z</time>
      </trkpt>
      <trkpt lat="43.74281" lon="6.7555">
        <ele>1018.288845</ele>
        <time>2024-12-06T12:26:30.000Z</time>
      </trkpt>
      <trkpt lat="43.74278" lon="6.75554">
        <ele>1017.912676</ele>
        <time>2024-12-06T12:26:31.000Z</time>
      </trkpt>
      <trkpt lat="43.74276" lon="6.75558">
        <ele>1017.552374</ele>
        <time>2024-12-06T12:26:32.000Z</time>
      </trkpt>
      <trkpt lat="43.74272" lon="6.75562">
        <ele>1017.167467</ele>
        <time>2024-12-06T12:26:33.000Z</time>
      </trkpt>
      <trkpt lat="43.74269" lon="6.75566">
        <ele>1016.798271</ele>
        <time>2024-12-06T12:26:34.000Z</time>
      </trkpt>
      <trkpt lat="43.74266" lon="6.75569">
        <ele>1016.429075</ele>
        <time>2024-12-06T12:26:35.000Z</time>
      </trkpt>
      <trkpt lat="43.74264" lon="6.75574">
        <ele>1016.055879</ele>
        <time>2024-12-06T12:26:36.000Z</time>
      </trkpt>
      <trkpt lat="43.74261" lon="6.75578">
        <ele>1015.661647</ele>
        <time>2024-12-06T12:26:37.000Z</time>
      </trkpt>
      <trkpt lat="43.74255" lon="6.75586">
        <ele>1014.882507</ele>
        <time>2024-12-06T12:26:39.000Z</time>
      </trkpt>
      <trkpt lat="43.74251" lon="6.75587">
        <ele>1014.552544</ele>
        <time>2024-12-06T12:26:40.000Z</time>
      </trkpt>
      <trkpt lat="43.74247" lon="6.75589">
        <ele>1014.18947</ele>
        <time>2024-12-06T12:26:41.000Z</time>
      </trkpt>
      <trkpt lat="43.74235" lon="6.75597">
        <ele>1013.009111</ele>
        <time>2024-12-06T12:26:44.000Z</time>
      </trkpt>
      <trkpt lat="43.74225" lon="6.75602">
        <ele>1012.211169</ele>
        <time>2024-12-06T12:26:46.000Z</time>
      </trkpt>
      <trkpt lat="43.74216" lon="6.75607">
        <ele>1011.472775</ele>
        <time>2024-12-06T12:26:48.000Z</time>
      </trkpt>
      <trkpt lat="43.74211" lon="6.75608">
        <ele>1011.168326</ele>
        <time>2024-12-06T12:26:49.000Z</time>
      </trkpt>
      <trkpt lat="43.74208" lon="6.75608">
        <ele>1010.917754</ele>
        <time>2024-12-06T12:26:50.000Z</time>
      </trkpt>
      <trkpt lat="43.74205" lon="6.75607">
        <ele>1010.696598</ele>
        <time>2024-12-06T12:26:51.000Z</time>
      </trkpt>
      <trkpt lat="43.74203" lon="6.75607">
        <ele>1010.548819</ele>
        <time>2024-12-06T12:26:52.000Z</time>
      </trkpt>
      <trkpt lat="43.74202" lon="6.75607">
        <ele>1010.497231</ele>
        <time>2024-12-06T12:26:54.000Z</time>
      </trkpt>
      <trkpt lat="43.74202" lon="6.75607">
        <ele>1010.497231</ele>
        <time>2024-12-06T12:27:10.000Z</time>
      </trkpt>
      <trkpt lat="43.74202" lon="6.75607">
        <ele>1010.497231</ele>
        <time>2024-12-06T12:27:11.000Z</time>
      </trkpt>
      <trkpt lat="43.74202" lon="6.75607">
        <ele>1010.497231</ele>
        <time>2024-12-06T12:27:19.000Z</time>
      </trkpt>
      <trkpt lat="43.742" lon="6.75608">
        <ele>1010.346414</ele>
        <time>2024-12-06T12:27:30.000Z</time>
      </trkpt>
      <trkpt lat="43.74198" lon="6.75609">
        <ele>1010.201513</ele>
        <time>2024-12-06T12:27:31.000Z</time>
      </trkpt>
      <trkpt lat="43.7419" lon="6.75614">
        <ele>1009.518946</ele>
        <time>2024-12-06T12:27:34.000Z</time>
      </trkpt>
      <trkpt lat="43.74184" lon="6.75619">
        <ele>1009.030692</ele>
        <time>2024-12-06T12:27:36.000Z</time>
      </trkpt>
      <trkpt lat="43.74181" lon="6.75627">
        <ele>1008.520927</ele>
        <time>2024-12-06T12:27:38.000Z</time>
      </trkpt>
      <trkpt lat="43.74179" lon="6.75633">
        <ele>1008.175068</ele>
        <time>2024-12-06T12:27:39.000Z</time>
      </trkpt>
      <trkpt lat="43.74178" lon="6.7564">
        <ele>1007.783211</ele>
        <time>2024-12-06T12:27:40.000Z</time>
      </trkpt>
      <trkpt lat="43.74176" lon="6.75648">
        <ele>1007.344995</ele>
        <time>2024-12-06T12:27:41.000Z</time>
      </trkpt>
      <trkpt lat="43.74167" lon="6.75671">
        <ele>1005.97281</ele>
        <time>2024-12-06T12:27:44.000Z</time>
      </trkpt>
      <trkpt lat="43.74165" lon="6.75679">
        <ele>1005.520265</ele>
        <time>2024-12-06T12:27:45.000Z</time>
      </trkpt>
      <trkpt lat="43.74162" lon="6.75686">
        <ele>1005.091689</ele>
        <time>2024-12-06T12:27:46.000Z</time>
      </trkpt>
      <trkpt lat="43.7416" lon="6.75693">
        <ele>1004.682053</ele>
        <time>2024-12-06T12:27:47.000Z</time>
      </trkpt>
      <trkpt lat="43.74157" lon="6.75699">
        <ele>1004.314274</ele>
        <time>2024-12-06T12:27:48.000Z</time>
      </trkpt>
      <trkpt lat="43.74156" lon="6.75705">
        <ele>1003.950962</ele>
        <time>2024-12-06T12:27:49.000Z</time>
      </trkpt>
      <trkpt lat="43.74154" lon="6.7572">
        <ele>1003.174081</ele>
        <time>2024-12-06T12:27:51.000Z</time>
      </trkpt>
      <trkpt lat="43.74154" lon="6.75728">
        <ele>1002.746539</ele>
        <time>2024-12-06T12:27:52.000Z</time>
      </trkpt>
      <trkpt lat="43.74153" lon="6.75736">
        <ele>1002.281212</ele>
        <time>2024-12-06T12:27:53.000Z</time>
      </trkpt>
      <trkpt lat="43.74152" lon="6.75745">
        <ele>1001.801644</ele>
        <time>2024-12-06T12:27:54.000Z</time>
      </trkpt>
      <trkpt lat="43.74148" lon="6.75763">
        <ele>1000.834503</ele>
        <time>2024-12-06T12:27:56.000Z</time>
      </trkpt>
      <trkpt lat="43.74146" lon="6.75771">
        <ele>1000.353763</ele>
        <time>2024-12-06T12:27:57.000Z</time>
      </trkpt>
      <trkpt lat="43.74144" lon="6.7578">
        <ele>999.927979</ele>
        <time>2024-12-06T12:27:58.000Z</time>
      </trkpt>
      <trkpt lat="43.7414" lon="6.75797">
        <ele>999.366466</ele>
        <time>2024-12-06T12:28:00.000Z</time>
      </trkpt>
      <trkpt lat="43.74135" lon="6.75823">
        <ele>998.499229</ele>
        <time>2024-12-06T12:28:03.000Z</time>
      </trkpt>
      <trkpt lat="43.74133" lon="6.75832">
        <ele>998.221748</ele>
        <time>2024-12-06T12:28:04.000Z</time>
      </trkpt>
      <trkpt lat="43.74129" lon="6.75847">
        <ele>997.705391</ele>
        <time>2024-12-06T12:28:06.000Z</time>
      </trkpt>
      <trkpt lat="43.74128" lon="6.75854">
        <ele>997.470723</ele>
        <time>2024-12-06T12:28:07.000Z</time>
      </trkpt>
      <trkpt lat="43.74126" lon="6.75861">
        <ele>997.236282</ele>
        <time>2024-12-06T12:28:08.000Z</time>
      </trkpt>
      <trkpt lat="43.74124" lon="6.75869">
        <ele>996.98107</ele>
        <time>2024-12-06T12:28:09.000Z</time>
      </trkpt>
      <trkpt lat="43.74122" lon="6.75877">
        <ele>996.709359</ele>
        <time>2024-12-06T12:28:10.000Z</time>
      </trkpt>
      <trkpt lat="43.74115" lon="6.75901">
        <ele>995.904405</ele>
        <time>2024-12-06T12:28:13.000Z</time>
      </trkpt>
      <trkpt lat="43.74112" lon="6.75907">
        <ele>995.650984</ele>
        <time>2024-12-06T12:28:14.000Z</time>
      </trkpt>
      <trkpt lat="43.74108" lon="6.75914">
        <ele>995.37394</ele>
        <time>2024-12-06T12:28:15.000Z</time>
      </trkpt>
      <trkpt lat="43.74104" lon="6.75921">
        <ele>995.095025</ele>
        <time>2024-12-06T12:28:16.000Z</time>
      </trkpt>
      <trkpt lat="43.74098" lon="6.75934">
        <ele>994.614228</ele>
        <time>2024-12-06T12:28:18.000Z</time>
      </trkpt>
      <trkpt lat="43.74094" lon="6.75949">
        <ele>994.106766</ele>
        <time>2024-12-06T12:28:20.000Z</time>
      </trkpt>
      <trkpt lat="43.74091" lon="6.75955">
        <ele>993.871454</ele>
        <time>2024-12-06T12:28:21.000Z</time>
      </trkpt>
      <trkpt lat="43.74087" lon="6.75958">
        <ele>993.677194</ele>
        <time>2024-12-06T12:28:22.000Z</time>
      </trkpt>
      <trkpt lat="43.74084" lon="6.7596">
        <ele>993.5152</ele>
        <time>2024-12-06T12:28:23.000Z</time>
      </trkpt>
      <trkpt lat="43.74081" lon="6.75963">
        <ele>993.384018</ele>
        <time>2024-12-06T12:28:24.000Z</time>
      </trkpt>
      <trkpt lat="43.7408" lon="6.75966">
        <ele>993.265421</ele>
        <time>2024-12-06T12:28:25.000Z</time>
      </trkpt>
      <trkpt lat="43.74079" lon="6.7597">
        <ele>993.130215</ele>
        <time>2024-12-06T12:28:26.000Z</time>
      </trkpt>
      <trkpt lat="43.74078" lon="6.75974">
        <ele>992.987682</ele>
        <time>2024-12-06T12:28:27.000Z</time>
      </trkpt>
      <trkpt lat="43.74077" lon="6.75979">
        <ele>992.83417</ele>
        <time>2024-12-06T12:28:28.000Z</time>
      </trkpt>
      <trkpt lat="43.74074" lon="6.75989">
        <ele>992.483977</ele>
        <time>2024-12-06T12:28:30.000Z</time>
      </trkpt>
      <trkpt lat="43.74073" lon="6.75995">
        <ele>992.285975</ele>
        <time>2024-12-06T12:28:31.000Z</time>
      </trkpt>
      <trkpt lat="43.74073" lon="6.76002">
        <ele>992.030743</ele>
        <time>2024-12-06T12:28:32.000Z</time>
      </trkpt>
      <trkpt lat="43.74069" lon="6.76015">
        <ele>991.412</ele>
        <time>2024-12-06T12:28:34.000Z</time>
      </trkpt>
      <trkpt lat="43.74066" lon="6.76021">
        <ele>991.114522</ele>
        <time>2024-12-06T12:28:35.000Z</time>
      </trkpt>
      <trkpt lat="43.74063" lon="6.76025">
        <ele>990.80938</ele>
        <time>2024-12-06T12:28:36.000Z</time>
      </trkpt>
      <trkpt lat="43.74059" lon="6.7603">
        <ele>990.489125</ele>
        <time>2024-12-06T12:28:37.000Z</time>
      </trkpt>
      <trkpt lat="43.74055" lon="6.76035">
        <ele>990.177521</ele>
        <time>2024-12-06T12:28:38.000Z</time>
      </trkpt>
      <trkpt lat="43.74048" lon="6.76043">
        <ele>989.615319</ele>
        <time>2024-12-06T12:28:40.000Z</time>
      </trkpt>
      <trkpt lat="43.74044" lon="6.76053">
        <ele>989.072285</ele>
        <time>2024-12-06T12:28:42.000Z</time>
      </trkpt>
      <trkpt lat="43.74043" lon="6.7606">
        <ele>988.772846</ele>
        <time>2024-12-06T12:28:43.000Z</time>
      </trkpt>
      <trkpt lat="43.74043" lon="6.76067">
        <ele>988.463119</ele>
        <time>2024-12-06T12:28:44.000Z</time>
      </trkpt>
      <trkpt lat="43.74043" lon="6.76074">
        <ele>988.145375</ele>
        <time>2024-12-06T12:28:45.000Z</time>
      </trkpt>
      <trkpt lat="43.74044" lon="6.7608">
        <ele>987.846174</ele>
        <time>2024-12-06T12:28:46.000Z</time>
      </trkpt>
      <trkpt lat="43.74047" lon="6.76086">
        <ele>987.553065</ele>
        <time>2024-12-06T12:28:47.000Z</time>
      </trkpt>
      <trkpt lat="43.74049" lon="6.76092">
        <ele>987.258777</ele>
        <time>2024-12-06T12:28:48.000Z</time>
      </trkpt>
      <trkpt lat="43.7405" lon="6.76098">
        <ele>986.978718</ele>
        <time>2024-12-06T12:28:49.000Z</time>
      </trkpt>
      <trkpt lat="43.74052" lon="6.76103">
        <ele>986.719856</ele>
        <time>2024-12-06T12:28:50.000Z</time>
      </trkpt>
      <trkpt lat="43.74054" lon="6.76108">
        <ele>986.471029</ele>
        <time>2024-12-06T12:28:51.000Z</time>
      </trkpt>
      <trkpt lat="43.74057" lon="6.76113">
        <ele>986.19499</ele>
        <time>2024-12-06T12:28:52.000Z</time>
      </trkpt>
      <trkpt lat="43.7406" lon="6.76118">
        <ele>985.918437</ele>
        <time>2024-12-06T12:28:53.000Z</time>
      </trkpt>
      <trkpt lat="43.74062" lon="6.76123">
        <ele>985.656493</ele>
        <time>2024-12-06T12:28:54.000Z</time>
      </trkpt>
      <trkpt lat="43.74064" lon="6.76128">
        <ele>985.404678</ele>
        <time>2024-12-06T12:28:55.000Z</time>
      </trkpt>
      <trkpt lat="43.74066" lon="6.76132">
        <ele>985.136005</ele>
        <time>2024-12-06T12:28:56.000Z</time>
      </trkpt>
      <trkpt lat="43.7407" lon="6.76136">
        <ele>984.876563</ele>
        <time>2024-12-06T12:28:57.000Z</time>
      </trkpt>
      <trkpt lat="43.74078" lon="6.76145">
        <ele>984.191291</ele>
        <time>2024-12-06T12:28:59.000Z</time>
      </trkpt>
      <trkpt lat="43.74082" lon="6.76151">
        <ele>983.848355</ele>
        <time>2024-12-06T12:29:00.000Z</time>
      </trkpt>
      <trkpt lat="43.74086" lon="6.76157">
        <ele>983.510988</ele>
        <time>2024-12-06T12:29:01.000Z</time>
      </trkpt>
      <trkpt lat="43.7409" lon="6.76171">
        <ele>982.826906</ele>
        <time>2024-12-06T12:29:03.000Z</time>
      </trkpt>
      <trkpt lat="43.74091" lon="6.76177">
        <ele>982.550547</ele>
        <time>2024-12-06T12:29:04.000Z</time>
      </trkpt>
      <trkpt lat="43.7409" lon="6.76182">
        <ele>982.318414</ele>
        <time>2024-12-06T12:29:05.000Z</time>
      </trkpt>
      <trkpt lat="43.74088" lon="6.76187">
        <ele>982.082647</ele>
        <time>2024-12-06T12:29:06.000Z</time>
      </trkpt>
      <trkpt lat="43.74087" lon="6.76191">
        <ele>981.857331</ele>
        <time>2024-12-06T12:29:07.000Z</time>
      </trkpt>
      <trkpt lat="43.74085" lon="6.76196">
        <ele>981.617113</ele>
        <time>2024-12-06T12:29:08.000Z</time>
      </trkpt>
      <trkpt lat="43.74083" lon="6.762">
        <ele>981.369639</ele>
        <time>2024-12-06T12:29:09.000Z</time>
      </trkpt>
      <trkpt lat="43.74077" lon="6.76208">
        <ele>980.72945</ele>
        <time>2024-12-06T12:29:11.000Z</time>
      </trkpt>
      <trkpt lat="43.74064" lon="6.76226">
        <ele>978.599191</ele>
        <time>2024-12-06T12:29:15.000Z</time>
      </trkpt>
      <trkpt lat="43.7406" lon="6.7623">
        <ele>977.985509</ele>
        <time>2024-12-06T12:29:16.000Z</time>
      </trkpt>
      <trkpt lat="43.74053" lon="6.76237">
        <ele>976.995308</ele>
        <time>2024-12-06T12:29:18.000Z</time>
      </trkpt>
      <trkpt lat="43.7405" lon="6.76239">
        <ele>976.618363</ele>
        <time>2024-12-06T12:29:19.000Z</time>
      </trkpt>
      <trkpt lat="43.74048" lon="6.76241">
        <ele>976.285042</ele>
        <time>2024-12-06T12:29:20.000Z</time>
      </trkpt>
      <trkpt lat="43.74047" lon="6.76243">
        <ele>976.074952</ele>
        <time>2024-12-06T12:29:21.000Z</time>
      </trkpt>
      <trkpt lat="43.74046" lon="6.76244">
        <ele>976.005663</ele>
        <time>2024-12-06T12:29:22.000Z</time>
      </trkpt>
      <trkpt lat="43.74046" lon="6.76244">
        <ele>976.005663</ele>
        <time>2024-12-06T12:29:28.000Z</time>
      </trkpt>
      <trkpt lat="43.74046" lon="6.76245">
        <ele>975.919984</ele>
        <time>2024-12-06T12:29:32.000Z</time>
      </trkpt>
      <trkpt lat="43.74047" lon="6.76245">
        <ele>975.883735</ele>
        <time>2024-12-06T12:29:33.000Z</time>
      </trkpt>
      <trkpt lat="43.74047" lon="6.76244">
        <ele>975.751269</ele>
        <time>2024-12-06T12:29:36.000Z</time>
      </trkpt>
      <trkpt lat="43.74046" lon="6.76244">
        <ele>975.632577</ele>
        <time>2024-12-06T12:29:43.000Z</time>
      </trkpt>
      <trkpt lat="43.74045" lon="6.76247">
        <ele>975.32947</ele>
        <time>2024-12-06T12:29:46.000Z</time>
      </trkpt>
      <trkpt lat="43.74044" lon="6.76249">
        <ele>975.12283</ele>
        <time>2024-12-06T12:29:47.000Z</time>
      </trkpt>
      <trkpt lat="43.74043" lon="6.76251">
        <ele>974.908261</ele>
        <time>2024-12-06T12:29:48.000Z</time>
      </trkpt>
      <trkpt lat="43.74042" lon="6.76253">
        <ele>974.674164</ele>
        <time>2024-12-06T12:29:49.000Z</time>
      </trkpt>
      <trkpt lat="43.74036" lon="6.76263">
        <ele>973.578418</ele>
        <time>2024-12-06T12:29:53.000Z</time>
      </trkpt>
      <trkpt lat="43.74035" lon="6.76265">
        <ele>973.43392</ele>
        <time>2024-12-06T12:29:54.000Z</time>
      </trkpt>
      <trkpt lat="43.74035" lon="6.76266">
        <ele>973.301826</ele>
        <time>2024-12-06T12:29:55.000Z</time>
      </trkpt>
      <trkpt lat="43.74035" lon="6.76267">
        <ele>973.189021</ele>
        <time>2024-12-06T12:29:56.000Z</time>
      </trkpt>
      <trkpt lat="43.74034" lon="6.76269">
        <ele>973.05332</ele>
        <time>2024-12-06T12:29:57.000Z</time>
      </trkpt>
      <trkpt lat="43.74034" lon="6.7627">
        <ele>972.935752</ele>
        <time>2024-12-06T12:29:58.000Z</time>
      </trkpt>
      <trkpt lat="43.74033" lon="6.76272">
        <ele>972.779975</ele>
        <time>2024-12-06T12:30:02.000Z</time>
      </trkpt>
      <trkpt lat="43.74032" lon="6.76274">
        <ele>972.53745</ele>
        <time>2024-12-06T12:30:08.000Z</time>
      </trkpt>
      <trkpt lat="43.74032" lon="6.76276">
        <ele>972.345791</ele>
        <time>2024-12-06T12:30:09.000Z</time>
      </trkpt>
      <trkpt lat="43.74031" lon="6.76279">
        <ele>972.106046</ele>
        <time>2024-12-06T12:30:10.000Z</time>
      </trkpt>
      <trkpt lat="43.74031" lon="6.76286">
        <ele>971.525944</ele>
        <time>2024-12-06T12:30:12.000Z</time>
      </trkpt>
      <trkpt lat="43.74031" lon="6.7629">
        <ele>971.166404</ele>
        <time>2024-12-06T12:30:13.000Z</time>
      </trkpt>
      <trkpt lat="43.74031" lon="6.76295">
        <ele>970.774412</ele>
        <time>2024-12-06T12:30:14.000Z</time>
      </trkpt>
      <trkpt lat="43.74031" lon="6.76299">
        <ele>970.375347</ele>
        <time>2024-12-06T12:30:15.000Z</time>
      </trkpt>
      <trkpt lat="43.74033" lon="6.76309">
        <ele>969.56398</ele>
        <time>2024-12-06T12:30:17.000Z</time>
      </trkpt>
      <trkpt lat="43.74038" lon="6.76324">
        <ele>968.152958</ele>
        <time>2024-12-06T12:30:20.000Z</time>
      </trkpt>
      <trkpt lat="43.74042" lon="6.76336">
        <ele>967.06458</ele>
        <time>2024-12-06T12:30:22.000Z</time>
      </trkpt>
      <trkpt lat="43.74043" lon="6.76342">
        <ele>966.495196</ele>
        <time>2024-12-06T12:30:23.000Z</time>
      </trkpt>
      <trkpt lat="43.74043" lon="6.76349">
        <ele>965.909119</ele>
        <time>2024-12-06T12:30:24.000Z</time>
      </trkpt>
      <trkpt lat="43.74042" lon="6.76356">
        <ele>965.298531</ele>
        <time>2024-12-06T12:30:25.000Z</time>
      </trkpt>
      <trkpt lat="43.74039" lon="6.76362">
        <ele>964.712295</ele>
        <time>2024-12-06T12:30:26.000Z</time>
      </trkpt>
      <trkpt lat="43.74036" lon="6.76368">
        <ele>964.120261</ele>
        <time>2024-12-06T12:30:27.000Z</time>
      </trkpt>
      <trkpt lat="43.74033" lon="6.76373">
        <ele>963.510855</ele>
        <time>2024-12-06T12:30:28.000Z</time>
      </trkpt>
      <trkpt lat="43.74029" lon="6.76378">
        <ele>962.866214</ele>
        <time>2024-12-06T12:30:29.000Z</time>
      </trkpt>
      <trkpt lat="43.74025" lon="6.76383">
        <ele>962.249849</ele>
        <time>2024-12-06T12:30:30.000Z</time>
      </trkpt>
      <trkpt lat="43.74017" lon="6.76391">
        <ele>961.055779</ele>
        <time>2024-12-06T12:30:32.000Z</time>
      </trkpt>
      <trkpt lat="43.74013" lon="6.76395">
        <ele>960.558025</ele>
        <time>2024-12-06T12:30:33.000Z</time>
      </trkpt>
      <trkpt lat="43.74011" lon="6.76399">
        <ele>960.136012</ele>
        <time>2024-12-06T12:30:34.000Z</time>
      </trkpt>
      <trkpt lat="43.7401" lon="6.76402">
        <ele>959.815763</ele>
        <time>2024-12-06T12:30:35.000Z</time>
      </trkpt>
      <trkpt lat="43.74008" lon="6.76407">
        <ele>959.570862</ele>
        <time>2024-12-06T12:30:36.000Z</time>
      </trkpt>
      <trkpt lat="43.74006" lon="6.76412">
        <ele>959.296052</ele>
        <time>2024-12-06T12:30:37.000Z</time>
      </trkpt>
      <trkpt lat="43.74004" lon="6.76416">
        <ele>959.042893</ele>
        <time>2024-12-06T12:30:38.000Z</time>
      </trkpt>
      <trkpt lat="43.73997" lon="6.76424">
        <ele>958.444666</ele>
        <time>2024-12-06T12:30:40.000Z</time>
      </trkpt>
      <trkpt lat="43.73988" lon="6.76434">
        <ele>957.641498</ele>
        <time>2024-12-06T12:30:42.000Z</time>
      </trkpt>
      <trkpt lat="43.73979" lon="6.76445">
        <ele>956.809057</ele>
        <time>2024-12-06T12:30:44.000Z</time>
      </trkpt>
      <trkpt lat="43.73975" lon="6.76448">
        <ele>956.513721</ele>
        <time>2024-12-06T12:30:45.000Z</time>
      </trkpt>
      <trkpt lat="43.73973" lon="6.76451">
        <ele>956.293756</ele>
        <time>2024-12-06T12:30:46.000Z</time>
      </trkpt>
      <trkpt lat="43.73972" lon="6.76453">
        <ele>956.189608</ele>
        <time>2024-12-06T12:30:47.000Z</time>
      </trkpt>
      <trkpt lat="43.73972" lon="6.76455">
        <ele>956.065311</ele>
        <time>2024-12-06T12:30:48.000Z</time>
      </trkpt>
      <trkpt lat="43.73972" lon="6.76456">
        <ele>955.992874</ele>
        <time>2024-12-06T12:30:49.000Z</time>
      </trkpt>
      <trkpt lat="43.73973" lon="6.76456">
        <ele>955.910203</ele>
        <time>2024-12-06T12:30:50.000Z</time>
      </trkpt>
      <trkpt lat="43.73975" lon="6.76456">
        <ele>955.80839</ele>
        <time>2024-12-06T12:30:51.000Z</time>
      </trkpt>
      <trkpt lat="43.73976" lon="6.76454">
        <ele>955.699246</ele>
        <time>2024-12-06T12:30:52.000Z</time>
      </trkpt>
      <trkpt lat="43.73977" lon="6.76452">
        <ele>955.571067</ele>
        <time>2024-12-06T12:30:53.000Z</time>
      </trkpt>
      <trkpt lat="43.73986" lon="6.76446">
        <ele>954.869003</ele>
        <time>2024-12-06T12:30:56.000Z</time>
      </trkpt>
      <trkpt lat="43.73989" lon="6.76445">
        <ele>954.669924</ele>
        <time>2024-12-06T12:30:57.000Z</time>
      </trkpt>
      <trkpt lat="43.73993" lon="6.76444">
        <ele>954.424437</ele>
        <time>2024-12-06T12:30:58.000Z</time>
      </trkpt>
      <trkpt lat="43.74" lon="6.76441">
        <ele>953.928712</ele>
        <time>2024-12-06T12:31:00.000Z</time>
      </trkpt>
      <trkpt lat="43.74009" lon="6.76443">
        <ele>953.266739</ele>
        <time>2024-12-06T12:31:03.000Z</time>
      </trkpt>
      <trkpt lat="43.74011" lon="6.76445">
        <ele>953.082415</ele>
        <time>2024-12-06T12:31:04.000Z</time>
      </trkpt>
      <trkpt lat="43.74012" lon="6.76449">
        <ele>952.89182</ele>
        <time>2024-12-06T12:31:05.000Z</time>
      </trkpt>
      <trkpt lat="43.74013" lon="6.76452">
        <ele>952.712883</ele>
        <time>2024-12-06T12:31:06.000Z</time>
      </trkpt>
      <trkpt lat="43.74013" lon="6.7646">
        <ele>952.340685</ele>
        <time>2024-12-06T12:31:08.000Z</time>
      </trkpt>
      <trkpt lat="43.74011" lon="6.76463">
        <ele>952.144765</ele>
        <time>2024-12-06T12:31:09.000Z</time>
      </trkpt>
      <trkpt lat="43.7401" lon="6.76467">
        <ele>951.940264</ele>
        <time>2024-12-06T12:31:10.000Z</time>
      </trkpt>
      <trkpt lat="43.74009" lon="6.76471">
        <ele>951.701248</ele>
        <time>2024-12-06T12:31:11.000Z</time>
      </trkpt>
      <trkpt lat="43.74004" lon="6.76485">
        <ele>950.949594</ele>
        <time>2024-12-06T12:31:14.000Z</time>
      </trkpt>
      <trkpt lat="43.74001" lon="6.76489">
        <ele>950.6772</ele>
        <time>2024-12-06T12:31:15.000Z</time>
      </trkpt>
      <trkpt lat="43.73993" lon="6.76508">
        <ele>949.582243</ele>
        <time>2024-12-06T12:31:19.000Z</time>
      </trkpt>
      <trkpt lat="43.73977" lon="6.76532">
        <ele>947.98323</ele>
        <time>2024-12-06T12:31:25.000Z</time>
      </trkpt>
      <trkpt lat="43.73972" lon="6.7654">
        <ele>947.699272</ele>
        <time>2024-12-06T12:31:27.000Z</time>
      </trkpt>
      <trkpt lat="43.73963" lon="6.76557">
        <ele>948.650727</ele>
        <time>2024-12-06T12:31:31.000Z</time>
      </trkpt>
      <trkpt lat="43.73961" lon="6.76561">
        <ele>948.854876</ele>
        <time>2024-12-06T12:31:32.000Z</time>
      </trkpt>
      <trkpt lat="43.7396" lon="6.76565">
        <ele>949.044959</ele>
        <time>2024-12-06T12:31:33.000Z</time>
      </trkpt>
      <trkpt lat="43.73958" lon="6.76568">
        <ele>949.227356</ele>
        <time>2024-12-06T12:31:34.000Z</time>
      </trkpt>
      <trkpt lat="43.73955" lon="6.76576">
        <ele>949.628729</ele>
        <time>2024-12-06T12:31:36.000Z</time>
      </trkpt>
      <trkpt lat="43.73953" lon="6.7658">
        <ele>949.832878</ele>
        <time>2024-12-06T12:31:37.000Z</time>
      </trkpt>
      <trkpt lat="43.73952" lon="6.76584">
        <ele>950.030076</ele>
        <time>2024-12-06T12:31:38.000Z</time>
      </trkpt>
      <trkpt lat="43.73951" lon="6.76588">
        <ele>950.235224</ele>
        <time>2024-12-06T12:31:39.000Z</time>
      </trkpt>
      <trkpt lat="43.7395" lon="6.76592">
        <ele>950.436559</ele>
        <time>2024-12-06T12:31:40.000Z</time>
      </trkpt>
      <trkpt lat="43.73949" lon="6.76597">
        <ele>950.643868</ele>
        <time>2024-12-06T12:31:41.000Z</time>
      </trkpt>
      <trkpt lat="43.73947" lon="6.76601">
        <ele>950.853436</ele>
        <time>2024-12-06T12:31:42.000Z</time>
      </trkpt>
      <trkpt lat="43.73945" lon="6.76605">
        <ele>951.079844</ele>
        <time>2024-12-06T12:31:43.000Z</time>
      </trkpt>
      <trkpt lat="43.73942" lon="6.76608">
        <ele>951.311703</ele>
        <time>2024-12-06T12:31:44.000Z</time>
      </trkpt>
      <trkpt lat="43.73939" lon="6.76612">
        <ele>951.563593</ele>
        <time>2024-12-06T12:31:45.000Z</time>
      </trkpt>
      <trkpt lat="43.73936" lon="6.76615">
        <ele>951.804315</ele>
        <time>2024-12-06T12:31:46.000Z</time>
      </trkpt>
      <trkpt lat="43.73932" lon="6.76617">
        <ele>952.028762</ele>
        <time>2024-12-06T12:31:47.000Z</time>
      </trkpt>
      <trkpt lat="43.73929" lon="6.76619">
        <ele>952.255356</ele>
        <time>2024-12-06T12:31:48.000Z</time>
      </trkpt>
      <trkpt lat="43.73926" lon="6.76621">
        <ele>952.477836</ele>
        <time>2024-12-06T12:31:49.000Z</time>
      </trkpt>
      <trkpt lat="43.73923" lon="6.76623">
        <ele>952.681566</ele>
        <time>2024-12-06T12:31:50.000Z</time>
      </trkpt>
      <trkpt lat="43.7392" lon="6.76626">
        <ele>952.888909</ele>
        <time>2024-12-06T12:31:51.000Z</time>
      </trkpt>
      <trkpt lat="43.73918" lon="6.76629">
        <ele>953.091908</ele>
        <time>2024-12-06T12:31:52.000Z</time>
      </trkpt>
      <trkpt lat="43.73916" lon="6.76632">
        <ele>953.274392</ele>
        <time>2024-12-06T12:31:53.000Z</time>
      </trkpt>
      <trkpt lat="43.73915" lon="6.76636">
        <ele>953.462232</ele>
        <time>2024-12-06T12:31:54.000Z</time>
      </trkpt>
      <trkpt lat="43.73913" lon="6.7664">
        <ele>953.668915</ele>
        <time>2024-12-06T12:31:55.000Z</time>
      </trkpt>
      <trkpt lat="43.73912" lon="6.76644">
        <ele>953.884679</ele>
        <time>2024-12-06T12:31:56.000Z</time>
      </trkpt>
      <trkpt lat="43.7391" lon="6.76649">
        <ele>954.110238</ele>
        <time>2024-12-06T12:31:57.000Z</time>
      </trkpt>
      <trkpt lat="43.73908" lon="6.76653">
        <ele>954.325325</ele>
        <time>2024-12-06T12:31:58.000Z</time>
      </trkpt>
      <trkpt lat="43.73906" lon="6.76656">
        <ele>954.520067</ele>
        <time>2024-12-06T12:31:59.000Z</time>
      </trkpt>
      <trkpt lat="43.73905" lon="6.7666">
        <ele>954.711903</ele>
        <time>2024-12-06T12:32:00.000Z</time>
      </trkpt>
      <trkpt lat="43.73904" lon="6.76664">
        <ele>954.924017</ele>
        <time>2024-12-06T12:32:01.000Z</time>
      </trkpt>
      <trkpt lat="43.73902" lon="6.76669">
        <ele>955.133586</ele>
        <time>2024-12-06T12:32:02.000Z</time>
      </trkpt>
      <trkpt lat="43.739" lon="6.76673">
        <ele>955.356445</ele>
        <time>2024-12-06T12:32:03.000Z</time>
      </trkpt>
      <trkpt lat="43.73898" lon="6.76677">
        <ele>955.575506</ele>
        <time>2024-12-06T12:32:04.000Z</time>
      </trkpt>
      <trkpt lat="43.73897" lon="6.76681">
        <ele>955.792017</ele>
        <time>2024-12-06T12:32:05.000Z</time>
      </trkpt>
      <trkpt lat="43.73895" lon="6.76685">
        <ele>955.989819</ele>
        <time>2024-12-06T12:32:06.000Z</time>
      </trkpt>
      <trkpt lat="43.73893" lon="6.76689">
        <ele>956.194173</ele>
        <time>2024-12-06T12:32:07.000Z</time>
      </trkpt>
      <trkpt lat="43.73891" lon="6.76693">
        <ele>956.416545</ele>
        <time>2024-12-06T12:32:08.000Z</time>
      </trkpt>
      <trkpt lat="43.73889" lon="6.76697">
        <ele>956.638917</ele>
        <time>2024-12-06T12:32:09.000Z</time>
      </trkpt>
      <trkpt lat="43.73887" lon="6.76701">
        <ele>956.868598</ele>
        <time>2024-12-06T12:32:10.000Z</time>
      </trkpt>
      <trkpt lat="43.73884" lon="6.76705">
        <ele>957.116822</ele>
        <time>2024-12-06T12:32:11.000Z</time>
      </trkpt>
      <trkpt lat="43.73882" lon="6.76709">
        <ele>957.368995</ele>
        <time>2024-12-06T12:32:12.000Z</time>
      </trkpt>
      <trkpt lat="43.73879" lon="6.76713">
        <ele>957.610278</ele>
        <time>2024-12-06T12:32:13.000Z</time>
      </trkpt>
      <trkpt lat="43.73877" lon="6.76717">
        <ele>957.833221</ele>
        <time>2024-12-06T12:32:14.000Z</time>
      </trkpt>
      <trkpt lat="43.73875" lon="6.76721">
        <ele>958.041054</ele>
        <time>2024-12-06T12:32:15.000Z</time>
      </trkpt>
      <trkpt lat="43.73873" lon="6.76725">
        <ele>958.263426</ele>
        <time>2024-12-06T12:32:16.000Z</time>
      </trkpt>
      <trkpt lat="43.73871" lon="6.76729">
        <ele>958.489514</ele>
        <time>2024-12-06T12:32:17.000Z</time>
      </trkpt>
      <trkpt lat="43.73868" lon="6.76733">
        <ele>958.71086</ele>
        <time>2024-12-06T12:32:18.000Z</time>
      </trkpt>
      <trkpt lat="43.73866" lon="6.76736">
        <ele>959.035896</ele>
        <time>2024-12-06T12:32:19.000Z</time>
      </trkpt>
      <trkpt lat="43.73863" lon="6.7674">
        <ele>959.390168</ele>
        <time>2024-12-06T12:32:20.000Z</time>
      </trkpt>
      <trkpt lat="43.73861" lon="6.76743">
        <ele>959.743425</ele>
        <time>2024-12-06T12:32:21.000Z</time>
      </trkpt>
      <trkpt lat="43.73859" lon="6.76747">
        <ele>960.096115</ele>
        <time>2024-12-06T12:32:22.000Z</time>
      </trkpt>
      <trkpt lat="43.73857" lon="6.76751">
        <ele>960.450387</ele>
        <time>2024-12-06T12:32:23.000Z</time>
      </trkpt>
      <trkpt lat="43.73854" lon="6.76754">
        <ele>960.827842</ele>
        <time>2024-12-06T12:32:24.000Z</time>
      </trkpt>
      <trkpt lat="43.73851" lon="6.76758">
        <ele>961.217787</ele>
        <time>2024-12-06T12:32:25.000Z</time>
      </trkpt>
      <trkpt lat="43.73849" lon="6.76762">
        <ele>961.596663</ele>
        <time>2024-12-06T12:32:26.000Z</time>
      </trkpt>
      <trkpt lat="43.73847" lon="6.76765">
        <ele>961.937318</ele>
        <time>2024-12-06T12:32:27.000Z</time>
      </trkpt>
      <trkpt lat="43.73845" lon="6.76769">
        <ele>962.277996</ele>
        <time>2024-12-06T12:32:28.000Z</time>
      </trkpt>
      <trkpt lat="43.73843" lon="6.76773">
        <ele>962.612638</ele>
        <time>2024-12-06T12:32:29.000Z</time>
      </trkpt>
      <trkpt lat="43.73841" lon="6.76776">
        <ele>962.935856</ele>
        <time>2024-12-06T12:32:30.000Z</time>
      </trkpt>
      <trkpt lat="43.73839" lon="6.7678">
        <ele>963.246594</ele>
        <time>2024-12-06T12:32:31.000Z</time>
      </trkpt>
      <trkpt lat="43.73837" lon="6.76783">
        <ele>963.565286</ele>
        <time>2024-12-06T12:32:32.000Z</time>
      </trkpt>
      <trkpt lat="43.73835" lon="6.76786">
        <ele>963.883978</ele>
        <time>2024-12-06T12:32:33.000Z</time>
      </trkpt>
      <trkpt lat="43.73833" lon="6.76789">
        <ele>964.177168</ele>
        <time>2024-12-06T12:32:34.000Z</time>
      </trkpt>
      <trkpt lat="43.73831" lon="6.76792">
        <ele>964.464648</ele>
        <time>2024-12-06T12:32:35.000Z</time>
      </trkpt>
      <trkpt lat="43.7383" lon="6.76795">
        <ele>964.746496</ele>
        <time>2024-12-06T12:32:36.000Z</time>
      </trkpt>
      <trkpt lat="43.73828" lon="6.76798">
        <ele>965.042047</ele>
        <time>2024-12-06T12:32:37.000Z</time>
      </trkpt>
      <trkpt lat="43.73825" lon="6.76801">
        <ele>965.347004</ele>
        <time>2024-12-06T12:32:38.000Z</time>
      </trkpt>
      <trkpt lat="43.73823" lon="6.76804">
        <ele>965.637268</ele>
        <time>2024-12-06T12:32:39.000Z</time>
      </trkpt>
      <trkpt lat="43.73821" lon="6.76807">
        <ele>965.939955</ele>
        <time>2024-12-06T12:32:40.000Z</time>
      </trkpt>
      <trkpt lat="43.73819" lon="6.7681">
        <ele>966.234059</ele>
        <time>2024-12-06T12:32:41.000Z</time>
      </trkpt>
      <trkpt lat="43.73817" lon="6.76812">
        <ele>966.537067</ele>
        <time>2024-12-06T12:32:42.000Z</time>
      </trkpt>
      <trkpt lat="43.73815" lon="6.76815">
        <ele>966.819698</ele>
        <time>2024-12-06T12:32:43.000Z</time>
      </trkpt>
      <trkpt lat="43.73813" lon="6.76817">
        <ele>967.067473</ele>
        <time>2024-12-06T12:32:44.000Z</time>
      </trkpt>
      <trkpt lat="43.73812" lon="6.7682">
        <ele>967.30704</ele>
        <time>2024-12-06T12:32:45.000Z</time>
      </trkpt>
      <trkpt lat="43.7381" lon="6.76822">
        <ele>967.562063</ele>
        <time>2024-12-06T12:32:46.000Z</time>
      </trkpt>
      <trkpt lat="43.73808" lon="6.76825">
        <ele>967.820573</ele>
        <time>2024-12-06T12:32:47.000Z</time>
      </trkpt>
      <trkpt lat="43.73807" lon="6.76827">
        <ele>968.065573</ele>
        <time>2024-12-06T12:32:48.000Z</time>
      </trkpt>
      <trkpt lat="43.73805" lon="6.7683">
        <ele>968.299517</ele>
        <time>2024-12-06T12:32:49.000Z</time>
      </trkpt>
      <trkpt lat="43.73804" lon="6.76832">
        <ele>968.558027</ele>
        <time>2024-12-06T12:32:50.000Z</time>
      </trkpt>
      <trkpt lat="43.73802" lon="6.76835">
        <ele>968.797594</ele>
        <time>2024-12-06T12:32:51.000Z</time>
      </trkpt>
      <trkpt lat="43.73801" lon="6.76837">
        <ele>969.043805</ele>
        <time>2024-12-06T12:32:52.000Z</time>
      </trkpt>
      <trkpt lat="43.73799" lon="6.7684">
        <ele>969.301239</ele>
        <time>2024-12-06T12:32:53.000Z</time>
      </trkpt>
      <trkpt lat="43.73798" lon="6.76843">
        <ele>969.552267</ele>
        <time>2024-12-06T12:32:54.000Z</time>
      </trkpt>
      <trkpt lat="43.73796" lon="6.76845">
        <ele>969.793009</ele>
        <time>2024-12-06T12:32:55.000Z</time>
      </trkpt>
      <trkpt lat="43.73794" lon="6.76848">
        <ele>970.026953</ele>
        <time>2024-12-06T12:32:56.000Z</time>
      </trkpt>
      <trkpt lat="43.73793" lon="6.7685">
        <ele>970.273164</ele>
        <time>2024-12-06T12:32:57.000Z</time>
      </trkpt>
      <trkpt lat="43.73792" lon="6.76852">
        <ele>970.476506</ele>
        <time>2024-12-06T12:32:58.000Z</time>
      </trkpt>
      <trkpt lat="43.73791" lon="6.76855">
        <ele>970.684838</ele>
        <time>2024-12-06T12:32:59.000Z</time>
      </trkpt>
      <trkpt lat="43.7379" lon="6.76858">
        <ele>970.910245</ele>
        <time>2024-12-06T12:33:00.000Z</time>
      </trkpt>
      <trkpt lat="43.7379" lon="6.76861">
        <ele>971.110336</ele>
        <time>2024-12-06T12:33:01.000Z</time>
      </trkpt>
      <trkpt lat="43.7379" lon="6.76863">
        <ele>971.309645</ele>
        <time>2024-12-06T12:33:02.000Z</time>
      </trkpt>
      <trkpt lat="43.7379" lon="6.76866">
        <ele>971.52368</ele>
        <time>2024-12-06T12:33:03.000Z</time>
      </trkpt>
      <trkpt lat="43.73789" lon="6.76869">
        <ele>971.736311</ele>
        <time>2024-12-06T12:33:04.000Z</time>
      </trkpt>
      <trkpt lat="43.73789" lon="6.76872">
        <ele>971.946726</ele>
        <time>2024-12-06T12:33:05.000Z</time>
      </trkpt>
      <trkpt lat="43.73789" lon="6.76874">
        <ele>972.135495</ele>
        <time>2024-12-06T12:33:06.000Z</time>
      </trkpt>
      <trkpt lat="43.73788" lon="6.76877">
        <ele>972.309897</ele>
        <time>2024-12-06T12:33:07.000Z</time>
      </trkpt>
      <trkpt lat="43.73788" lon="6.76879">
        <ele>972.462884</ele>
        <time>2024-12-06T12:33:08.000Z</time>
      </trkpt>
      <trkpt lat="43.73787" lon="6.7688">
        <ele>972.577624</ele>
        <time>2024-12-06T12:33:09.000Z</time>
      </trkpt>
      <trkpt lat="43.73787" lon="6.76881">
        <ele>972.650694</ele>
        <time>2024-12-06T12:33:10.000Z</time>
      </trkpt>
      <trkpt lat="43.73787" lon="6.76881">
        <ele>972.681898</ele>
        <time>2024-12-06T12:33:17.000Z</time>
      </trkpt>
      <trkpt lat="43.73785" lon="6.76884">
        <ele>972.926922</ele>
        <time>2024-12-06T12:33:58.000Z</time>
      </trkpt>
      <trkpt lat="43.73784" lon="6.76885">
        <ele>973.064368</ele>
        <time>2024-12-06T12:33:59.000Z</time>
      </trkpt>
      <trkpt lat="43.7378" lon="6.76894">
        <ele>973.906943</ele>
        <time>2024-12-06T12:34:03.000Z</time>
      </trkpt>
      <trkpt lat="43.73766" lon="6.76912">
        <ele>975.819206</ele>
        <time>2024-12-06T12:34:09.000Z</time>
      </trkpt>
      <trkpt lat="43.73764" lon="6.76915">
        <ele>976.122215</ele>
        <time>2024-12-06T12:34:10.000Z</time>
      </trkpt>
      <trkpt lat="43.73762" lon="6.76917">
        <ele>976.394839</ele>
        <time>2024-12-06T12:34:11.000Z</time>
      </trkpt>
      <trkpt lat="43.7376" lon="6.7692">
        <ele>976.677472</ele>
        <time>2024-12-06T12:34:12.000Z</time>
      </trkpt>
      <trkpt lat="43.73758" lon="6.76923">
        <ele>976.974999</ele>
        <time>2024-12-06T12:34:13.000Z</time>
      </trkpt>
      <trkpt lat="43.73754" lon="6.76929">
        <ele>977.233764</ele>
        <time>2024-12-06T12:34:15.000Z</time>
      </trkpt>
      <trkpt lat="43.73751" lon="6.76932">
        <ele>977.301045</ele>
        <time>2024-12-06T12:34:16.000Z</time>
      </trkpt>
      <trkpt lat="43.73747" lon="6.76937">
        <ele>977.435121</ele>
        <time>2024-12-06T12:34:18.000Z</time>
      </trkpt>
      <trkpt lat="43.73745" lon="6.7694">
        <ele>977.501903</ele>
        <time>2024-12-06T12:34:19.000Z</time>
      </trkpt>
      <trkpt lat="43.73743" lon="6.76943">
        <ele>977.561389</ele>
        <time>2024-12-06T12:34:20.000Z</time>
      </trkpt>
      <trkpt lat="43.73741" lon="6.76946">
        <ele>977.623867</ele>
        <time>2024-12-06T12:34:21.000Z</time>
      </trkpt>
      <trkpt lat="43.73737" lon="6.76952">
        <ele>977.760173</ele>
        <time>2024-12-06T12:34:23.000Z</time>
      </trkpt>
      <trkpt lat="43.73735" lon="6.76954">
        <ele>977.824213</ele>
        <time>2024-12-06T12:34:24.000Z</time>
      </trkpt>
      <trkpt lat="43.73733" lon="6.76958">
        <ele>977.891811</ele>
        <time>2024-12-06T12:34:25.000Z</time>
      </trkpt>
      <trkpt lat="43.73731" lon="6.76961">
        <ele>977.960928</ele>
        <time>2024-12-06T12:34:26.000Z</time>
      </trkpt>
      <trkpt lat="43.73729" lon="6.76964">
        <ele>978.032074</ele>
        <time>2024-12-06T12:34:27.000Z</time>
      </trkpt>
      <trkpt lat="43.73726" lon="6.76967">
        <ele>978.103221</ele>
        <time>2024-12-06T12:34:28.000Z</time>
      </trkpt>
      <trkpt lat="43.73724" lon="6.76969">
        <ele>978.170073</ele>
        <time>2024-12-06T12:34:29.000Z</time>
      </trkpt>
      <trkpt lat="43.73722" lon="6.76972">
        <ele>978.241794</ele>
        <time>2024-12-06T12:34:30.000Z</time>
      </trkpt>
      <trkpt lat="43.73719" lon="6.76975">
        <ele>978.31628</ele>
        <time>2024-12-06T12:34:31.000Z</time>
      </trkpt>
      <trkpt lat="43.73716" lon="6.76978">
        <ele>978.38849</ele>
        <time>2024-12-06T12:34:32.000Z</time>
      </trkpt>
      <trkpt lat="43.73714" lon="6.7698">
        <ele>978.4571</ele>
        <time>2024-12-06T12:34:33.000Z</time>
      </trkpt>
      <trkpt lat="43.73711" lon="6.76983">
        <ele>978.526564</ele>
        <time>2024-12-06T12:34:34.000Z</time>
      </trkpt>
      <trkpt lat="43.73709" lon="6.76985">
        <ele>978.595166</ele>
        <time>2024-12-06T12:34:35.000Z</time>
      </trkpt>
      <trkpt lat="43.73706" lon="6.76987">
        <ele>978.667403</ele>
        <time>2024-12-06T12:34:36.000Z</time>
      </trkpt>
      <trkpt lat="43.73703" lon="6.7699">
        <ele>978.743467</ele>
        <time>2024-12-06T12:34:37.000Z</time>
      </trkpt>
      <trkpt lat="43.737" lon="6.76992">
        <ele>978.814399</ele>
        <time>2024-12-06T12:34:38.000Z</time>
      </trkpt>
      <trkpt lat="43.73698" lon="6.76994">
        <ele>978.887339</ele>
        <time>2024-12-06T12:34:39.000Z</time>
      </trkpt>
      <trkpt lat="43.73694" lon="6.76995">
        <ele>978.961266</ele>
        <time>2024-12-06T12:34:40.000Z</time>
      </trkpt>
      <trkpt lat="43.73692" lon="6.76997">
        <ele>979.032164</ele>
        <time>2024-12-06T12:34:41.000Z</time>
      </trkpt>
      <trkpt lat="43.73688" lon="6.76998">
        <ele>979.106645</ele>
        <time>2024-12-06T12:34:42.000Z</time>
      </trkpt>
      <trkpt lat="43.73685" lon="6.77">
        <ele>979.181125</ele>
        <time>2024-12-06T12:34:43.000Z</time>
      </trkpt>
      <trkpt lat="43.73682" lon="6.77002">
        <ele>979.256807</ele>
        <time>2024-12-06T12:34:44.000Z</time>
      </trkpt>
      <trkpt lat="43.73679" lon="6.77004">
        <ele>979.331768</ele>
        <time>2024-12-06T12:34:45.000Z</time>
      </trkpt>
      <trkpt lat="43.73677" lon="6.77006">
        <ele>979.40037</ele>
        <time>2024-12-06T12:34:46.000Z</time>
      </trkpt>
      <trkpt lat="43.73674" lon="6.77009">
        <ele>979.469834</ele>
        <time>2024-12-06T12:34:47.000Z</time>
      </trkpt>
      <trkpt lat="43.73671" lon="6.77011">
        <ele>979.548259</ele>
        <time>2024-12-06T12:34:48.000Z</time>
      </trkpt>
      <trkpt lat="43.73668" lon="6.77013">
        <ele>979.628694</ele>
        <time>2024-12-06T12:34:49.000Z</time>
      </trkpt>
      <trkpt lat="43.73665" lon="6.77016">
        <ele>979.717575</ele>
        <time>2024-12-06T12:34:50.000Z</time>
      </trkpt>
      <trkpt lat="43.73661" lon="6.7702">
        <ele>979.813561</ele>
        <time>2024-12-06T12:34:51.000Z</time>
      </trkpt>
      <trkpt lat="43.73647" lon="6.77038">
        <ele>980.256483</ele>
        <time>2024-12-06T12:34:56.000Z</time>
      </trkpt>
      <trkpt lat="43.7363" lon="6.77052">
        <ele>980.688553</ele>
        <time>2024-12-06T12:35:01.000Z</time>
      </trkpt>
      <trkpt lat="43.73627" lon="6.77053">
        <ele>980.762481</ele>
        <time>2024-12-06T12:35:02.000Z</time>
      </trkpt>
      <trkpt lat="43.7361" lon="6.77059">
        <ele>981.158437</ele>
        <time>2024-12-06T12:35:06.000Z</time>
      </trkpt>
      <trkpt lat="43.73606" lon="6.77061">
        <ele>981.152776</ele>
        <time>2024-12-06T12:35:07.000Z</time>
      </trkpt>
      <trkpt lat="43.73602" lon="6.77062">
        <ele>981.118167</ele>
        <time>2024-12-06T12:35:08.000Z</time>
      </trkpt>
      <trkpt lat="43.73598" lon="6.77063">
        <ele>981.082109</ele>
        <time>2024-12-06T12:35:09.000Z</time>
      </trkpt>
      <trkpt lat="43.73594" lon="6.77064">
        <ele>981.0453</ele>
        <time>2024-12-06T12:35:10.000Z</time>
      </trkpt>
      <trkpt lat="43.73587" lon="6.77065">
        <ele>980.979562</ele>
        <time>2024-12-06T12:35:12.000Z</time>
      </trkpt>
      <trkpt lat="43.73583" lon="6.77066">
        <ele>980.945962</ele>
        <time>2024-12-06T12:35:13.000Z</time>
      </trkpt>
      <trkpt lat="43.7358" lon="6.77067">
        <ele>980.913724</ele>
        <time>2024-12-06T12:35:14.000Z</time>
      </trkpt>
      <trkpt lat="43.73576" lon="6.77068">
        <ele>980.882542</ele>
        <time>2024-12-06T12:35:15.000Z</time>
      </trkpt>
      <trkpt lat="43.73573" lon="6.77068">
        <ele>980.850553</ele>
        <time>2024-12-06T12:35:16.000Z</time>
      </trkpt>
      <trkpt lat="43.73568" lon="6.77068">
        <ele>980.813418</ele>
        <time>2024-12-06T12:35:17.000Z</time>
      </trkpt>
      <trkpt lat="43.73563" lon="6.77069">
        <ele>980.769977</ele>
        <time>2024-12-06T12:35:18.000Z</time>
      </trkpt>
      <trkpt lat="43.73559" lon="6.77071">
        <ele>980.727711</ele>
        <time>2024-12-06T12:35:19.000Z</time>
      </trkpt>
      <trkpt lat="43.73555" lon="6.77072">
        <ele>980.689917</ele>
        <time>2024-12-06T12:35:20.000Z</time>
      </trkpt>
      <trkpt lat="43.7355" lon="6.77072">
        <ele>980.652585</ele>
        <time>2024-12-06T12:35:21.000Z</time>
      </trkpt>
      <trkpt lat="43.73539" lon="6.77074">
        <ele>980.550457</ele>
        <time>2024-12-06T12:35:24.000Z</time>
      </trkpt>
      <trkpt lat="43.73536" lon="6.77076">
        <ele>980.521668</ele>
        <time>2024-12-06T12:35:25.000Z</time>
      </trkpt>
      <trkpt lat="43.73534" lon="6.77078">
        <ele>980.494036</ele>
        <time>2024-12-06T12:35:26.000Z</time>
      </trkpt>
      <trkpt lat="43.73515" lon="6.77088">
        <ele>980.315587</ele>
        <time>2024-12-06T12:35:31.000Z</time>
      </trkpt>
      <trkpt lat="43.73495" lon="6.77104">
        <ele>980.114145</ele>
        <time>2024-12-06T12:35:36.000Z</time>
      </trkpt>
      <trkpt lat="43.73475" lon="6.77119">
        <ele>979.91038</ele>
        <time>2024-12-06T12:35:41.000Z</time>
      </trkpt>
      <trkpt lat="43.73465" lon="6.77121">
        <ele>979.826562</ele>
        <time>2024-12-06T12:35:43.000Z</time>
      </trkpt>
      <trkpt lat="43.73452" lon="6.77122">
        <ele>979.70863</ele>
        <time>2024-12-06T12:35:46.000Z</time>
      </trkpt>
      <trkpt lat="43.73448" lon="6.77123">
        <ele>979.675692</ele>
        <time>2024-12-06T12:35:47.000Z</time>
      </trkpt>
      <trkpt lat="43.73445" lon="6.77122">
        <ele>979.646821</ele>
        <time>2024-12-06T12:35:48.000Z</time>
      </trkpt>
      <trkpt lat="43.73442" lon="6.77121">
        <ele>979.622588</ele>
        <time>2024-12-06T12:35:49.000Z</time>
      </trkpt>
      <trkpt lat="43.7344" lon="6.7712">
        <ele>979.604801</ele>
        <time>2024-12-06T12:35:50.000Z</time>
      </trkpt>
      <trkpt lat="43.7344" lon="6.7712">
        <ele>979.599496</ele>
        <time>2024-12-06T12:35:51.000Z</time>
      </trkpt>
      <trkpt lat="43.7344" lon="6.7712">
        <ele>979.597616</ele>
        <time>2024-12-06T12:35:52.000Z</time>
      </trkpt>
      <trkpt lat="43.73441" lon="6.7712">
        <ele>979.591071</ele>
        <time>2024-12-06T12:35:55.000Z</time>
      </trkpt>
      <trkpt lat="43.73441" lon="6.7712">
        <ele>979.591071</ele>
        <time>2024-12-06T12:35:56.000Z</time>
      </trkpt>
      <trkpt lat="43.73441" lon="6.77119">
        <ele>979.573951</ele>
        <time>2024-12-06T12:35:57.000Z</time>
      </trkpt>
      <trkpt lat="43.73441" lon="6.77119">
        <ele>979.554104</ele>
        <time>2024-12-06T12:35:58.000Z</time>
      </trkpt>
      <trkpt lat="43.73441" lon="6.77119">
        <ele>979.554104</ele>
        <time>2024-12-06T12:36:05.000Z</time>
      </trkpt>
      <trkpt lat="43.73441" lon="6.77119">
        <ele>979.554104</ele>
        <time>2024-12-06T12:36:08.000Z</time>
      </trkpt>
      <trkpt lat="43.73441" lon="6.77119">
        <ele>979.546168</ele>
        <time>2024-12-06T12:36:09.000Z</time>
      </trkpt>
      <trkpt lat="43.73441" lon="6.77119">
        <ele>979.532491</ele>
        <time>2024-12-06T12:36:10.000Z</time>
      </trkpt>
      <trkpt lat="43.73441" lon="6.7712">
        <ele>979.508685</ele>
        <time>2024-12-06T12:36:11.000Z</time>
      </trkpt>
      <trkpt lat="43.73441" lon="6.7712">
        <ele>979.508685</ele>
        <time>2024-12-06T12:36:12.000Z</time>
      </trkpt>
      <trkpt lat="43.73441" lon="6.7712">
        <ele>979.508685</ele>
        <time>2024-12-06T12:36:14.000Z</time>
      </trkpt>
      <trkpt lat="43.73441" lon="6.77119">
        <ele>979.485448</ele>
        <time>2024-12-06T12:36:23.000Z</time>
      </trkpt>
      <trkpt lat="43.73441" lon="6.77119">
        <ele>979.485448</ele>
        <time>2024-12-06T12:36:26.000Z</time>
      </trkpt>
      <trkpt lat="43.73441" lon="6.77119">
        <ele>979.485448</ele>
        <time>2024-12-06T12:36:27.000Z</time>
      </trkpt>
      <trkpt lat="43.73438" lon="6.77119">
        <ele>979.318153</ele>
        <time>2024-12-06T12:36:30.000Z</time>
      </trkpt>
      <trkpt lat="43.73437" lon="6.77119">
        <ele>979.213576</ele>
        <time>2024-12-06T12:36:31.000Z</time>
      </trkpt>
      <trkpt lat="43.73435" lon="6.7712">
        <ele>979.075151</ele>
        <time>2024-12-06T12:36:32.000Z</time>
      </trkpt>
      <trkpt lat="43.73432" lon="6.77122">
        <ele>978.892134</ele>
        <time>2024-12-06T12:36:33.000Z</time>
      </trkpt>
      <trkpt lat="43.73426" lon="6.77126">
        <ele>978.46174</ele>
        <time>2024-12-06T12:36:35.000Z</time>
      </trkpt>
      <trkpt lat="43.73415" lon="6.77129">
        <ele>977.717041</ele>
        <time>2024-12-06T12:36:38.000Z</time>
      </trkpt>
      <trkpt lat="43.7341" lon="6.7713">
        <ele>977.408761</ele>
        <time>2024-12-06T12:36:39.000Z</time>
      </trkpt>
      <trkpt lat="43.73399" lon="6.77133">
        <ele>976.686155</ele>
        <time>2024-12-06T12:36:41.000Z</time>
      </trkpt>
      <trkpt lat="43.73387" lon="6.77136">
        <ele>975.900124</ele>
        <time>2024-12-06T12:36:43.000Z</time>
      </trkpt>
      <trkpt lat="43.73381" lon="6.7714">
        <ele>975.489066</ele>
        <time>2024-12-06T12:36:44.000Z</time>
      </trkpt>
      <trkpt lat="43.73376" lon="6.77145">
        <ele>975.065937</ele>
        <time>2024-12-06T12:36:45.000Z</time>
      </trkpt>
      <trkpt lat="43.73371" lon="6.77151">
        <ele>974.651502</ele>
        <time>2024-12-06T12:36:46.000Z</time>
      </trkpt>
      <trkpt lat="43.73367" lon="6.77158">
        <ele>974.231542</ele>
        <time>2024-12-06T12:36:47.000Z</time>
      </trkpt>
      <trkpt lat="43.73362" lon="6.77165">
        <ele>973.796832</ele>
        <time>2024-12-06T12:36:48.000Z</time>
      </trkpt>
      <trkpt lat="43.73351" lon="6.77186">
        <ele>972.590673</ele>
        <time>2024-12-06T12:36:51.000Z</time>
      </trkpt>
      <trkpt lat="43.73347" lon="6.77191">
        <ele>972.226431</ele>
        <time>2024-12-06T12:36:52.000Z</time>
      </trkpt>
      <trkpt lat="43.73341" lon="6.77195">
        <ele>971.842321</ele>
        <time>2024-12-06T12:36:53.000Z</time>
      </trkpt>
      <trkpt lat="43.73326" lon="6.77207">
        <ele>970.713474</ele>
        <time>2024-12-06T12:36:56.000Z</time>
      </trkpt>
      <trkpt lat="43.73322" lon="6.77211">
        <ele>970.408607</ele>
        <time>2024-12-06T12:36:57.000Z</time>
      </trkpt>
      <trkpt lat="43.73318" lon="6.77216">
        <ele>970.038062</ele>
        <time>2024-12-06T12:36:58.000Z</time>
      </trkpt>
      <trkpt lat="43.73313" lon="6.7722">
        <ele>969.643596</ele>
        <time>2024-12-06T12:36:59.000Z</time>
      </trkpt>
      <trkpt lat="43.73308" lon="6.77224">
        <ele>969.317924</ele>
        <time>2024-12-06T12:37:00.000Z</time>
      </trkpt>
      <trkpt lat="43.73305" lon="6.77227">
        <ele>969.077113</ele>
        <time>2024-12-06T12:37:01.000Z</time>
      </trkpt>
      <trkpt lat="43.73303" lon="6.7723">
        <ele>968.860655</ele>
        <time>2024-12-06T12:37:02.000Z</time>
      </trkpt>
      <trkpt lat="43.73299" lon="6.77235">
        <ele>968.555788</ele>
        <time>2024-12-06T12:37:03.000Z</time>
      </trkpt>
      <trkpt lat="43.73296" lon="6.77238">
        <ele>968.2515</ele>
        <time>2024-12-06T12:37:04.000Z</time>
      </trkpt>
      <trkpt lat="43.73293" lon="6.77242">
        <ele>968.022859</ele>
        <time>2024-12-06T12:37:05.000Z</time>
      </trkpt>
      <trkpt lat="43.73292" lon="6.77243">
        <ele>967.888792</ele>
        <time>2024-12-06T12:37:06.000Z</time>
      </trkpt>
      <trkpt lat="43.73291" lon="6.77244">
        <ele>967.843184</ele>
        <time>2024-12-06T12:37:07.000Z</time>
      </trkpt>
      <trkpt lat="43.73291" lon="6.77244">
        <ele>967.843184</ele>
        <time>2024-12-06T12:37:10.000Z</time>
      </trkpt>
      <trkpt lat="43.73291" lon="6.77244">
        <ele>967.826424</ele>
        <time>2024-12-06T12:37:14.000Z</time>
      </trkpt>
      <trkpt lat="43.73289" lon="6.77247">
        <ele>967.638661</ele>
        <time>2024-12-06T12:37:16.000Z</time>
      </trkpt>
      <trkpt lat="43.73288" lon="6.77249">
        <ele>967.460294</ele>
        <time>2024-12-06T12:37:17.000Z</time>
      </trkpt>
      <trkpt lat="43.73286" lon="6.77252">
        <ele>967.236326</ele>
        <time>2024-12-06T12:37:18.000Z</time>
      </trkpt>
      <trkpt lat="43.73284" lon="6.77256">
        <ele>966.964289</ele>
        <time>2024-12-06T12:37:19.000Z</time>
      </trkpt>
      <trkpt lat="43.73281" lon="6.7726">
        <ele>966.632518</ele>
        <time>2024-12-06T12:37:20.000Z</time>
      </trkpt>
      <trkpt lat="43.73275" lon="6.7727">
        <ele>965.893812</ele>
        <time>2024-12-06T12:37:22.000Z</time>
      </trkpt>
      <trkpt lat="43.73272" lon="6.77277">
        <ele>965.485871</ele>
        <time>2024-12-06T12:37:23.000Z</time>
      </trkpt>
      <trkpt lat="43.73262" lon="6.77303">
        <ele>963.809719</ele>
        <time>2024-12-06T12:37:27.000Z</time>
      </trkpt>
      <trkpt lat="43.7326" lon="6.7731">
        <ele>963.385189</ele>
        <time>2024-12-06T12:37:28.000Z</time>
      </trkpt>
      <trkpt lat="43.73254" lon="6.77332">
        <ele>962.077973</ele>
        <time>2024-12-06T12:37:31.000Z</time>
      </trkpt>
      <trkpt lat="43.73249" lon="6.77348">
        <ele>961.116285</ele>
        <time>2024-12-06T12:37:33.000Z</time>
      </trkpt>
      <trkpt lat="43.73243" lon="6.77364">
        <ele>960.099256</ele>
        <time>2024-12-06T12:37:35.000Z</time>
      </trkpt>
      <trkpt lat="43.73233" lon="6.7739">
        <ele>958.468028</ele>
        <time>2024-12-06T12:37:38.000Z</time>
      </trkpt>
      <trkpt lat="43.73226" lon="6.77409">
        <ele>957.26319</ele>
        <time>2024-12-06T12:37:40.000Z</time>
      </trkpt>
      <trkpt lat="43.73223" lon="6.7742">
        <ele>956.636811</ele>
        <time>2024-12-06T12:37:41.000Z</time>
      </trkpt>
      <trkpt lat="43.73214" lon="6.77452">
        <ele>954.709838</ele>
        <time>2024-12-06T12:37:44.000Z</time>
      </trkpt>
      <trkpt lat="43.73207" lon="6.77475">
        <ele>953.566469</ele>
        <time>2024-12-06T12:37:46.000Z</time>
      </trkpt>
      <trkpt lat="43.73203" lon="6.77487">
        <ele>953.075667</ele>
        <time>2024-12-06T12:37:47.000Z</time>
      </trkpt>
      <trkpt lat="43.73194" lon="6.77512">
        <ele>952.037861</ele>
        <time>2024-12-06T12:37:49.000Z</time>
      </trkpt>
      <trkpt lat="43.73184" lon="6.77538">
        <ele>950.947909</ele>
        <time>2024-12-06T12:37:51.000Z</time>
      </trkpt>
      <trkpt lat="43.73178" lon="6.7755">
        <ele>950.392938</ele>
        <time>2024-12-06T12:37:52.000Z</time>
      </trkpt>
      <trkpt lat="43.73173" lon="6.77559">
        <ele>949.950231</ele>
        <time>2024-12-06T12:37:53.000Z</time>
      </trkpt>
      <trkpt lat="43.73166" lon="6.7757">
        <ele>949.40649</ele>
        <time>2024-12-06T12:37:54.000Z</time>
      </trkpt>
      <trkpt lat="43.7315" lon="6.77593">
        <ele>948.21257</ele>
        <time>2024-12-06T12:37:56.000Z</time>
      </trkpt>
      <trkpt lat="43.73142" lon="6.77602">
        <ele>947.691755</ele>
        <time>2024-12-06T12:37:57.000Z</time>
      </trkpt>
      <trkpt lat="43.73135" lon="6.7761">
        <ele>947.200109</ele>
        <time>2024-12-06T12:37:58.000Z</time>
      </trkpt>
      <trkpt lat="43.73128" lon="6.77616">
        <ele>946.763846</ele>
        <time>2024-12-06T12:37:59.000Z</time>
      </trkpt>
      <trkpt lat="43.73123" lon="6.77621">
        <ele>946.444652</ele>
        <time>2024-12-06T12:38:00.000Z</time>
      </trkpt>
      <trkpt lat="43.73117" lon="6.77627">
        <ele>946.057123</ele>
        <time>2024-12-06T12:38:01.000Z</time>
      </trkpt>
      <trkpt lat="43.73111" lon="6.77634">
        <ele>945.688299</ele>
        <time>2024-12-06T12:38:02.000Z</time>
      </trkpt>
      <trkpt lat="43.73106" lon="6.7764">
        <ele>945.310454</ele>
        <time>2024-12-06T12:38:03.000Z</time>
      </trkpt>
      <trkpt lat="43.73101" lon="6.77648">
        <ele>944.933517</ele>
        <time>2024-12-06T12:38:04.000Z</time>
      </trkpt>
      <trkpt lat="43.73097" lon="6.77656">
        <ele>944.579226</ele>
        <time>2024-12-06T12:38:05.000Z</time>
      </trkpt>
      <trkpt lat="43.73092" lon="6.77667">
        <ele>944.168263</ele>
        <time>2024-12-06T12:38:06.000Z</time>
      </trkpt>
      <trkpt lat="43.73089" lon="6.77673">
        <ele>943.900319</ele>
        <time>2024-12-06T12:38:07.000Z</time>
      </trkpt>
      <trkpt lat="43.73077" lon="6.77697">
        <ele>942.932921</ele>
        <time>2024-12-06T12:38:10.000Z</time>
      </trkpt>
      <trkpt lat="43.73073" lon="6.77705">
        <ele>942.616383</ele>
        <time>2024-12-06T12:38:11.000Z</time>
      </trkpt>
      <trkpt lat="43.73069" lon="6.77714">
        <ele>942.291745</ele>
        <time>2024-12-06T12:38:12.000Z</time>
      </trkpt>
      <trkpt lat="43.73066" lon="6.77722">
        <ele>941.971992</ele>
        <time>2024-12-06T12:38:13.000Z</time>
      </trkpt>
      <trkpt lat="43.73062" lon="6.7773">
        <ele>941.649387</ele>
        <time>2024-12-06T12:38:14.000Z</time>
      </trkpt>
      <trkpt lat="43.73059" lon="6.77738">
        <ele>941.332477</ele>
        <time>2024-12-06T12:38:15.000Z</time>
      </trkpt>
      <trkpt lat="43.73052" lon="6.77755">
        <ele>940.687153</ele>
        <time>2024-12-06T12:38:17.000Z</time>
      </trkpt>
      <trkpt lat="43.73043" lon="6.77782">
        <ele>939.706361</ele>
        <time>2024-12-06T12:38:20.000Z</time>
      </trkpt>
      <trkpt lat="43.73041" lon="6.77791">
        <ele>939.380247</ele>
        <time>2024-12-06T12:38:21.000Z</time>
      </trkpt>
      <trkpt lat="43.73029" lon="6.77837">
        <ele>937.756457</ele>
        <time>2024-12-06T12:38:26.000Z</time>
      </trkpt>
      <trkpt lat="43.73027" lon="6.77846">
        <ele>937.458529</ele>
        <time>2024-12-06T12:38:27.000Z</time>
      </trkpt>
      <trkpt lat="43.73025" lon="6.77852">
        <ele>937.218734</ele>
        <time>2024-12-06T12:38:28.000Z</time>
      </trkpt>
      <trkpt lat="43.73022" lon="6.77861">
        <ele>936.914489</ele>
        <time>2024-12-06T12:38:29.000Z</time>
      </trkpt>
      <trkpt lat="43.73019" lon="6.77868">
        <ele>936.60567</ele>
        <time>2024-12-06T12:38:30.000Z</time>
      </trkpt>
      <trkpt lat="43.73007" lon="6.77897">
        <ele>934.944157</ele>
        <time>2024-12-06T12:38:33.000Z</time>
      </trkpt>
      <trkpt lat="43.73004" lon="6.77904">
        <ele>934.535814</ele>
        <time>2024-12-06T12:38:34.000Z</time>
      </trkpt>
      <trkpt lat="43.73001" lon="6.77913">
        <ele>934.015164</ele>
        <time>2024-12-06T12:38:35.000Z</time>
      </trkpt>
      <trkpt lat="43.72994" lon="6.77933">
        <ele>932.902855</ele>
        <time>2024-12-06T12:38:37.000Z</time>
      </trkpt>
      <trkpt lat="43.72987" lon="6.77954">
        <ele>931.669126</ele>
        <time>2024-12-06T12:38:39.000Z</time>
      </trkpt>
      <trkpt lat="43.72982" lon="6.77968">
        <ele>930.870004</ele>
        <time>2024-12-06T12:38:40.000Z</time>
      </trkpt>
      <trkpt lat="43.72978" lon="6.7798">
        <ele>930.204616</ele>
        <time>2024-12-06T12:38:41.000Z</time>
      </trkpt>
      <trkpt lat="43.72973" lon="6.78">
        <ele>929.065446</ele>
        <time>2024-12-06T12:38:43.000Z</time>
      </trkpt>
      <trkpt lat="43.7297" lon="6.78011">
        <ele>928.49691</ele>
        <time>2024-12-06T12:38:44.000Z</time>
      </trkpt>
      <trkpt lat="43.72968" lon="6.7802">
        <ele>927.97662</ele>
        <time>2024-12-06T12:38:45.000Z</time>
      </trkpt>
      <trkpt lat="43.72966" lon="6.78029">
        <ele>927.500821</ele>
        <time>2024-12-06T12:38:46.000Z</time>
      </trkpt>
      <trkpt lat="43.72963" lon="6.78037">
        <ele>927.033392</ele>
        <time>2024-12-06T12:38:47.000Z</time>
      </trkpt>
      <trkpt lat="43.7296" lon="6.78044">
        <ele>926.591931</ele>
        <time>2024-12-06T12:38:48.000Z</time>
      </trkpt>
      <trkpt lat="43.72956" lon="6.7805">
        <ele>926.179778</ele>
        <time>2024-12-06T12:38:49.000Z</time>
      </trkpt>
      <trkpt lat="43.72951" lon="6.78055">
        <ele>925.750659</ele>
        <time>2024-12-06T12:38:50.000Z</time>
      </trkpt>
      <trkpt lat="43.72949" lon="6.78058">
        <ele>925.521944</ele>
        <time>2024-12-06T12:38:51.000Z</time>
      </trkpt>
      <trkpt lat="43.72946" lon="6.78062">
        <ele>925.238012</ele>
        <time>2024-12-06T12:38:52.000Z</time>
      </trkpt>
      <trkpt lat="43.72944" lon="6.78066">
        <ele>924.945385</ele>
        <time>2024-12-06T12:38:53.000Z</time>
      </trkpt>
      <trkpt lat="43.7294" lon="6.78071">
        <ele>924.611227</ele>
        <time>2024-12-06T12:38:54.000Z</time>
      </trkpt>
      <trkpt lat="43.72938" lon="6.78073">
        <ele>924.403549</ele>
        <time>2024-12-06T12:38:55.000Z</time>
      </trkpt>
      <trkpt lat="43.72924" lon="6.7809">
        <ele>923.895574</ele>
        <time>2024-12-06T12:39:00.000Z</time>
      </trkpt>
      <trkpt lat="43.72921" lon="6.78094">
        <ele>924.051885</ele>
        <time>2024-12-06T12:39:01.000Z</time>
      </trkpt>
      <trkpt lat="43.72901" lon="6.78124">
        <ele>925.262828</ele>
        <time>2024-12-06T12:39:08.000Z</time>
      </trkpt>
      <trkpt lat="43.72894" lon="6.78142">
        <ele>925.858428</ele>
        <time>2024-12-06T12:39:12.000Z</time>
      </trkpt>
      <trkpt lat="43.72893" lon="6.78144">
        <ele>925.920569</ele>
        <time>2024-12-06T12:39:13.000Z</time>
      </trkpt>
      <trkpt lat="43.72893" lon="6.78146">
        <ele>925.979487</ele>
        <time>2024-12-06T12:39:14.000Z</time>
      </trkpt>
      <trkpt lat="43.72892" lon="6.78148">
        <ele>926.026799</ele>
        <time>2024-12-06T12:39:15.000Z</time>
      </trkpt>
      <trkpt lat="43.72892" lon="6.78151">
        <ele>926.129495</ele>
        <time>2024-12-06T12:39:18.000Z</time>
      </trkpt>
      <trkpt lat="43.7289" lon="6.7817">
        <ele>926.677881</ele>
        <time>2024-12-06T12:39:23.000Z</time>
      </trkpt>
      <trkpt lat="43.72892" lon="6.78184">
        <ele>927.115291</ele>
        <time>2024-12-06T12:39:26.000Z</time>
      </trkpt>
      <trkpt lat="43.72894" lon="6.78189">
        <ele>927.267712</ele>
        <time>2024-12-06T12:39:27.000Z</time>
      </trkpt>
      <trkpt lat="43.72896" lon="6.78193">
        <ele>927.425944</ele>
        <time>2024-12-06T12:39:28.000Z</time>
      </trkpt>
      <trkpt lat="43.72898" lon="6.78198">
        <ele>927.603106</ele>
        <time>2024-12-06T12:39:29.000Z</time>
      </trkpt>
      <trkpt lat="43.72903" lon="6.78208">
        <ele>927.948064</ele>
        <time>2024-12-06T12:39:31.000Z</time>
      </trkpt>
      <trkpt lat="43.72906" lon="6.78219">
        <ele>928.289723</ele>
        <time>2024-12-06T12:39:33.000Z</time>
      </trkpt>
      <trkpt lat="43.72907" lon="6.78225">
        <ele>928.471978</ele>
        <time>2024-12-06T12:39:34.000Z</time>
      </trkpt>
      <trkpt lat="43.72907" lon="6.78231">
        <ele>928.646848</ele>
        <time>2024-12-06T12:39:35.000Z</time>
      </trkpt>
      <trkpt lat="43.72906" lon="6.78237">
        <ele>928.819836</ele>
        <time>2024-12-06T12:39:36.000Z</time>
      </trkpt>
      <trkpt lat="43.72904" lon="6.78242">
        <ele>928.994052</ele>
        <time>2024-12-06T12:39:37.000Z</time>
      </trkpt>
      <trkpt lat="43.72902" lon="6.78247">
        <ele>929.159671</ele>
        <time>2024-12-06T12:39:38.000Z</time>
      </trkpt>
      <trkpt lat="43.729" lon="6.78253">
        <ele>929.357571</ele>
        <time>2024-12-06T12:39:39.000Z</time>
      </trkpt>
      <trkpt lat="43.72896" lon="6.78262">
        <ele>929.65794</ele>
        <time>2024-12-06T12:39:41.000Z</time>
      </trkpt>
      <trkpt lat="43.72894" lon="6.78272">
        <ele>929.966258</ele>
        <time>2024-12-06T12:39:43.000Z</time>
      </trkpt>
      <trkpt lat="43.72893" lon="6.78277">
        <ele>930.119226</ele>
        <time>2024-12-06T12:39:44.000Z</time>
      </trkpt>
      <trkpt lat="43.72892" lon="6.78282">
        <ele>930.275026</ele>
        <time>2024-12-06T12:39:45.000Z</time>
      </trkpt>
      <trkpt lat="43.72891" lon="6.78287">
        <ele>930.422101</ele>
        <time>2024-12-06T12:39:46.000Z</time>
      </trkpt>
      <trkpt lat="43.72891" lon="6.78292">
        <ele>930.574098</ele>
        <time>2024-12-06T12:39:47.000Z</time>
      </trkpt>
      <trkpt lat="43.72891" lon="6.78298">
        <ele>930.726094</ele>
        <time>2024-12-06T12:39:48.000Z</time>
      </trkpt>
      <trkpt lat="43.72891" lon="6.78303">
        <ele>930.905215</ele>
        <time>2024-12-06T12:39:49.000Z</time>
      </trkpt>
      <trkpt lat="43.7289" lon="6.78308">
        <ele>931.315434</ele>
        <time>2024-12-06T12:39:50.000Z</time>
      </trkpt>
      <trkpt lat="43.7289" lon="6.78314">
        <ele>931.734125</ele>
        <time>2024-12-06T12:39:51.000Z</time>
      </trkpt>
      <trkpt lat="43.7289" lon="6.78319">
        <ele>932.15945</ele>
        <time>2024-12-06T12:39:52.000Z</time>
      </trkpt>
      <trkpt lat="43.72889" lon="6.78325">
        <ele>932.568999</ele>
        <time>2024-12-06T12:39:53.000Z</time>
      </trkpt>
      <trkpt lat="43.72889" lon="6.7833">
        <ele>932.993289</ele>
        <time>2024-12-06T12:39:54.000Z</time>
      </trkpt>
      <trkpt lat="43.72889" lon="6.78335">
        <ele>933.38771</ele>
        <time>2024-12-06T12:39:55.000Z</time>
      </trkpt>
      <trkpt lat="43.7289" lon="6.7834">
        <ele>933.779086</ele>
        <time>2024-12-06T12:39:56.000Z</time>
      </trkpt>
      <trkpt lat="43.72891" lon="6.78346">
        <ele>934.172282</ele>
        <time>2024-12-06T12:39:57.000Z</time>
      </trkpt>
      <trkpt lat="43.72892" lon="6.78351">
        <ele>934.582384</ele>
        <time>2024-12-06T12:39:58.000Z</time>
      </trkpt>
      <trkpt lat="43.72892" lon="6.78356">
        <ele>934.980025</ele>
        <time>2024-12-06T12:39:59.000Z</time>
      </trkpt>
      <trkpt lat="43.72894" lon="6.78361">
        <ele>935.379081</ele>
        <time>2024-12-06T12:40:00.000Z</time>
      </trkpt>
      <trkpt lat="43.72895" lon="6.78366">
        <ele>935.774445</ele>
        <time>2024-12-06T12:40:01.000Z</time>
      </trkpt>
      <trkpt lat="43.72896" lon="6.7837">
        <ele>936.145536</ele>
        <time>2024-12-06T12:40:02.000Z</time>
      </trkpt>
      <trkpt lat="43.72898" lon="6.78375">
        <ele>936.511873</ele>
        <time>2024-12-06T12:40:03.000Z</time>
      </trkpt>
      <trkpt lat="43.729" lon="6.7838">
        <ele>936.939759</ele>
        <time>2024-12-06T12:40:04.000Z</time>
      </trkpt>
      <trkpt lat="43.72902" lon="6.78384">
        <ele>937.297795</ele>
        <time>2024-12-06T12:40:05.000Z</time>
      </trkpt>
      <trkpt lat="43.72903" lon="6.78388">
        <ele>937.645874</ele>
        <time>2024-12-06T12:40:06.000Z</time>
      </trkpt>
      <trkpt lat="43.72905" lon="6.78392">
        <ele>937.993952</ele>
        <time>2024-12-06T12:40:07.000Z</time>
      </trkpt>
      <trkpt lat="43.72906" lon="6.78396">
        <ele>938.326156</ele>
        <time>2024-12-06T12:40:08.000Z</time>
      </trkpt>
      <trkpt lat="43.72907" lon="6.784">
        <ele>938.678805</ele>
        <time>2024-12-06T12:40:09.000Z</time>
      </trkpt>
      <trkpt lat="43.72908" lon="6.78405">
        <ele>939.042116</ele>
        <time>2024-12-06T12:40:10.000Z</time>
      </trkpt>
      <trkpt lat="43.72909" lon="6.7841">
        <ele>939.423294</ele>
        <time>2024-12-06T12:40:11.000Z</time>
      </trkpt>
      <trkpt lat="43.72911" lon="6.78414">
        <ele>939.775944</ele>
        <time>2024-12-06T12:40:12.000Z</time>
      </trkpt>
      <trkpt lat="43.72912" lon="6.78419">
        <ele>940.146369</ele>
        <time>2024-12-06T12:40:13.000Z</time>
      </trkpt>
      <trkpt lat="43.72913" lon="6.78423">
        <ele>940.531077</ele>
        <time>2024-12-06T12:40:14.000Z</time>
      </trkpt>
      <trkpt lat="43.72914" lon="6.78428">
        <ele>940.890893</ele>
        <time>2024-12-06T12:40:15.000Z</time>
      </trkpt>
      <trkpt lat="43.72915" lon="6.78432">
        <ele>941.239543</ele>
        <time>2024-12-06T12:40:16.000Z</time>
      </trkpt>
      <trkpt lat="43.72916" lon="6.78437">
        <ele>941.600504</ele>
        <time>2024-12-06T12:40:17.000Z</time>
      </trkpt>
      <trkpt lat="43.72916" lon="6.78442">
        <ele>941.966238</ele>
        <time>2024-12-06T12:40:18.000Z</time>
      </trkpt>
      <trkpt lat="43.72917" lon="6.78446">
        <ele>942.327741</ele>
        <time>2024-12-06T12:40:19.000Z</time>
      </trkpt>
      <trkpt lat="43.72918" lon="6.78451">
        <ele>942.66689</ele>
        <time>2024-12-06T12:40:20.000Z</time>
      </trkpt>
      <trkpt lat="43.72918" lon="6.78455">
        <ele>942.996774</ele>
        <time>2024-12-06T12:40:21.000Z</time>
      </trkpt>
      <trkpt lat="43.72918" lon="6.78459">
        <ele>943.323141</ele>
        <time>2024-12-06T12:40:22.000Z</time>
      </trkpt>
      <trkpt lat="43.72919" lon="6.78464">
        <ele>943.657067</ele>
        <time>2024-12-06T12:40:23.000Z</time>
      </trkpt>
      <trkpt lat="43.72919" lon="6.78468">
        <ele>943.9905</ele>
        <time>2024-12-06T12:40:24.000Z</time>
      </trkpt>
      <trkpt lat="43.72919" lon="6.78472">
        <ele>944.316362</ele>
        <time>2024-12-06T12:40:25.000Z</time>
      </trkpt>
      <trkpt lat="43.72918" lon="6.78477">
        <ele>944.668697</ele>
        <time>2024-12-06T12:40:26.000Z</time>
      </trkpt>
      <trkpt lat="43.72918" lon="6.78481">
        <ele>944.998581</ele>
        <time>2024-12-06T12:40:27.000Z</time>
      </trkpt>
      <trkpt lat="43.72917" lon="6.78486">
        <ele>945.33773</ele>
        <time>2024-12-06T12:40:28.000Z</time>
      </trkpt>
      <trkpt lat="43.72916" lon="6.7849">
        <ele>945.684326</ele>
        <time>2024-12-06T12:40:29.000Z</time>
      </trkpt>
      <trkpt lat="43.72916" lon="6.78495">
        <ele>946.027981</ele>
        <time>2024-12-06T12:40:30.000Z</time>
      </trkpt>
      <trkpt lat="43.72915" lon="6.78499">
        <ele>946.347076</ele>
        <time>2024-12-06T12:40:31.000Z</time>
      </trkpt>
      <trkpt lat="43.72914" lon="6.78503">
        <ele>946.693672</ele>
        <time>2024-12-06T12:40:32.000Z</time>
      </trkpt>
      <trkpt lat="43.72914" lon="6.78507">
        <ele>947.020143</ele>
        <time>2024-12-06T12:40:33.000Z</time>
      </trkpt>
      <trkpt lat="43.72913" lon="6.78512">
        <ele>947.371149</ele>
        <time>2024-12-06T12:40:34.000Z</time>
      </trkpt>
      <trkpt lat="43.72912" lon="6.78516">
        <ele>947.700134</ele>
        <time>2024-12-06T12:40:35.000Z</time>
      </trkpt>
      <trkpt lat="43.72911" lon="6.7852">
        <ele>948.019229</ele>
        <time>2024-12-06T12:40:36.000Z</time>
      </trkpt>
      <trkpt lat="43.72911" lon="6.78524">
        <ele>948.338325</ele>
        <time>2024-12-06T12:40:37.000Z</time>
      </trkpt>
      <trkpt lat="43.7291" lon="6.78529">
        <ele>948.683173</ele>
        <time>2024-12-06T12:40:38.000Z</time>
      </trkpt>
      <trkpt lat="43.7291" lon="6.78533">
        <ele>949.009541</ele>
        <time>2024-12-06T12:40:39.000Z</time>
      </trkpt>
      <trkpt lat="43.7291" lon="6.78537">
        <ele>949.32835</ele>
        <time>2024-12-06T12:40:40.000Z</time>
      </trkpt>
      <trkpt lat="43.7291" lon="6.78542">
        <ele>949.64647</ele>
        <time>2024-12-06T12:40:41.000Z</time>
      </trkpt>
      <trkpt lat="43.72909" lon="6.78546">
        <ele>949.9864</ele>
        <time>2024-12-06T12:40:42.000Z</time>
      </trkpt>
      <trkpt lat="43.72909" lon="6.7855">
        <ele>950.310707</ele>
        <time>2024-12-06T12:40:43.000Z</time>
      </trkpt>
      <trkpt lat="43.72909" lon="6.78554">
        <ele>950.611143</ele>
        <time>2024-12-06T12:40:44.000Z</time>
      </trkpt>
      <trkpt lat="43.72909" lon="6.78557">
        <ele>950.857265</ele>
        <time>2024-12-06T12:40:45.000Z</time>
      </trkpt>
      <trkpt lat="43.72909" lon="6.78562">
        <ele>951.256982</ele>
        <time>2024-12-06T12:40:46.000Z</time>
      </trkpt>
      <trkpt lat="43.72908" lon="6.78567">
        <ele>951.59775</ele>
        <time>2024-12-06T12:40:47.000Z</time>
      </trkpt>
      <trkpt lat="43.72908" lon="6.78571">
        <ele>951.921184</ele>
        <time>2024-12-06T12:40:48.000Z</time>
      </trkpt>
      <trkpt lat="43.72908" lon="6.78575">
        <ele>952.252286</ele>
        <time>2024-12-06T12:40:49.000Z</time>
      </trkpt>
      <trkpt lat="43.72908" lon="6.7858">
        <ele>952.575195</ele>
        <time>2024-12-06T12:40:50.000Z</time>
      </trkpt>
      <trkpt lat="43.72908" lon="6.78584">
        <ele>952.890245</ele>
        <time>2024-12-06T12:40:51.000Z</time>
      </trkpt>
      <trkpt lat="43.72908" lon="6.78588">
        <ele>953.213154</ele>
        <time>2024-12-06T12:40:52.000Z</time>
      </trkpt>
      <trkpt lat="43.72908" lon="6.78592">
        <ele>953.536064</ele>
        <time>2024-12-06T12:40:53.000Z</time>
      </trkpt>
      <trkpt lat="43.72908" lon="6.78596">
        <ele>953.858798</ele>
        <time>2024-12-06T12:40:54.000Z</time>
      </trkpt>
      <trkpt lat="43.72908" lon="6.78601">
        <ele>954.189216</ele>
        <time>2024-12-06T12:40:55.000Z</time>
      </trkpt>
      <trkpt lat="43.72909" lon="6.78605">
        <ele>954.542847</ele>
        <time>2024-12-06T12:40:56.000Z</time>
      </trkpt>
      <trkpt lat="43.72908" lon="6.78609">
        <ele>954.835038</ele>
        <time>2024-12-06T12:40:57.000Z</time>
      </trkpt>
      <trkpt lat="43.72908" lon="6.78614">
        <ele>955.244513</ele>
        <time>2024-12-06T12:40:58.000Z</time>
      </trkpt>
      <trkpt lat="43.72907" lon="6.78619">
        <ele>955.590712</ele>
        <time>2024-12-06T12:40:59.000Z</time>
      </trkpt>
      <trkpt lat="43.72907" lon="6.78623">
        <ele>955.919692</ele>
        <time>2024-12-06T12:41:00.000Z</time>
      </trkpt>
      <trkpt lat="43.72907" lon="6.78627">
        <ele>956.234743</ele>
        <time>2024-12-06T12:41:01.000Z</time>
      </trkpt>
      <trkpt lat="43.72908" lon="6.78631">
        <ele>956.556663</ele>
        <time>2024-12-06T12:41:02.000Z</time>
      </trkpt>
      <trkpt lat="43.72909" lon="6.78635">
        <ele>956.857007</ele>
        <time>2024-12-06T12:41:03.000Z</time>
      </trkpt>
      <trkpt lat="43.72909" lon="6.78638">
        <ele>957.131157</ele>
        <time>2024-12-06T12:41:04.000Z</time>
      </trkpt>
      <trkpt lat="43.72911" lon="6.78642">
        <ele>957.46249</ele>
        <time>2024-12-06T12:41:05.000Z</time>
      </trkpt>
      <trkpt lat="43.72912" lon="6.78646">
        <ele>957.799512</ele>
        <time>2024-12-06T12:41:06.000Z</time>
      </trkpt>
      <trkpt lat="43.72914" lon="6.78649">
        <ele>958.098529</ele>
        <time>2024-12-06T12:41:07.000Z</time>
      </trkpt>
      <trkpt lat="43.72915" lon="6.78652">
        <ele>958.360168</ele>
        <time>2024-12-06T12:41:08.000Z</time>
      </trkpt>
      <trkpt lat="43.72917" lon="6.78654">
        <ele>958.597178</ele>
        <time>2024-12-06T12:41:09.000Z</time>
      </trkpt>
      <trkpt lat="43.72918" lon="6.78656">
        <ele>958.815555</ele>
        <time>2024-12-06T12:41:10.000Z</time>
      </trkpt>
      <trkpt lat="43.72919" lon="6.78659">
        <ele>959.033542</ele>
        <time>2024-12-06T12:41:11.000Z</time>
      </trkpt>
      <trkpt lat="43.7292" lon="6.78661">
        <ele>959.251529</ele>
        <time>2024-12-06T12:41:12.000Z</time>
      </trkpt>
      <trkpt lat="43.72922" lon="6.78663">
        <ele>959.488201</ele>
        <time>2024-12-06T12:41:13.000Z</time>
      </trkpt>
      <trkpt lat="43.72923" lon="6.78666">
        <ele>959.725211</ele>
        <time>2024-12-06T12:41:14.000Z</time>
      </trkpt>
      <trkpt lat="43.72924" lon="6.78668">
        <ele>959.949473</ele>
        <time>2024-12-06T12:41:15.000Z</time>
      </trkpt>
      <trkpt lat="43.72925" lon="6.78671">
        <ele>960.191995</ele>
        <time>2024-12-06T12:41:16.000Z</time>
      </trkpt>
      <trkpt lat="43.72926" lon="6.78674">
        <ele>960.453634</ele>
        <time>2024-12-06T12:41:17.000Z</time>
      </trkpt>
      <trkpt lat="43.72928" lon="6.78677">
        <ele>960.702942</ele>
        <time>2024-12-06T12:41:18.000Z</time>
      </trkpt>
      <trkpt lat="43.72929" lon="6.78679">
        <ele>960.952096</ele>
        <time>2024-12-06T12:41:19.000Z</time>
      </trkpt>
      <trkpt lat="43.7293" lon="6.78682">
        <ele>961.202246</ele>
        <time>2024-12-06T12:41:20.000Z</time>
      </trkpt>
      <trkpt lat="43.72931" lon="6.78685">
        <ele>961.44042</ele>
        <time>2024-12-06T12:41:21.000Z</time>
      </trkpt>
      <trkpt lat="43.72933" lon="6.78687">
        <ele>961.683992</ele>
        <time>2024-12-06T12:41:22.000Z</time>
      </trkpt>
      <trkpt lat="43.72934" lon="6.7869">
        <ele>961.889565</ele>
        <time>2024-12-06T12:41:23.000Z</time>
      </trkpt>
      <trkpt lat="43.72936" lon="6.78693">
        <ele>962.197605</ele>
        <time>2024-12-06T12:41:24.000Z</time>
      </trkpt>
      <trkpt lat="43.72937" lon="6.78695">
        <ele>962.435778</ele>
        <time>2024-12-06T12:41:25.000Z</time>
      </trkpt>
      <trkpt lat="43.72937" lon="6.78698">
        <ele>962.685321</ele>
        <time>2024-12-06T12:41:26.000Z</time>
      </trkpt>
      <trkpt lat="43.72937" lon="6.78701">
        <ele>962.908414</ele>
        <time>2024-12-06T12:41:27.000Z</time>
      </trkpt>
      <trkpt lat="43.72937" lon="6.78704">
        <ele>963.095571</ele>
        <time>2024-12-06T12:41:28.000Z</time>
      </trkpt>
      <trkpt lat="43.72937" lon="6.78706">
        <ele>963.287674</ele>
        <time>2024-12-06T12:41:29.000Z</time>
      </trkpt>
      <trkpt lat="43.72937" lon="6.78709">
        <ele>963.465684</ele>
        <time>2024-12-06T12:41:30.000Z</time>
      </trkpt>
      <trkpt lat="43.72938" lon="6.78711">
        <ele>963.64134</ele>
        <time>2024-12-06T12:41:31.000Z</time>
      </trkpt>
      <trkpt lat="43.72939" lon="6.78712">
        <ele>963.805558</ele>
        <time>2024-12-06T12:41:32.000Z</time>
      </trkpt>
      <trkpt lat="43.7294" lon="6.78713">
        <ele>963.949545</ele>
        <time>2024-12-06T12:41:33.000Z</time>
      </trkpt>
      <trkpt lat="43.72941" lon="6.78716">
        <ele>964.196456</ele>
        <time>2024-12-06T12:41:34.000Z</time>
      </trkpt>
      <trkpt lat="43.72941" lon="6.78719">
        <ele>964.374465</ele>
        <time>2024-12-06T12:41:35.000Z</time>
      </trkpt>
      <trkpt lat="43.7294" lon="6.78721">
        <ele>964.554056</ele>
        <time>2024-12-06T12:41:36.000Z</time>
      </trkpt>
      <trkpt lat="43.7294" lon="6.78723">
        <ele>964.685118</ele>
        <time>2024-12-06T12:41:37.000Z</time>
      </trkpt>
      <trkpt lat="43.72939" lon="6.78724">
        <ele>964.825867</ele>
        <time>2024-12-06T12:41:38.000Z</time>
      </trkpt>
      <trkpt lat="43.72938" lon="6.78723">
        <ele>964.981715</ele>
        <time>2024-12-06T12:41:39.000Z</time>
      </trkpt>
      <trkpt lat="43.72937" lon="6.78721">
        <ele>965.156182</ele>
        <time>2024-12-06T12:41:40.000Z</time>
      </trkpt>
      <trkpt lat="43.72936" lon="6.78719">
        <ele>965.333396</ele>
        <time>2024-12-06T12:41:41.000Z</time>
      </trkpt>
      <trkpt lat="43.72936" lon="6.78717">
        <ele>965.490354</ele>
        <time>2024-12-06T12:41:42.000Z</time>
      </trkpt>
      <trkpt lat="43.72936" lon="6.78715">
        <ele>965.649814</ele>
        <time>2024-12-06T12:41:43.000Z</time>
      </trkpt>
      <trkpt lat="43.72935" lon="6.78714">
        <ele>965.782164</ele>
        <time>2024-12-06T12:41:44.000Z</time>
      </trkpt>
      <trkpt lat="43.72935" lon="6.78712">
        <ele>965.891824</ele>
        <time>2024-12-06T12:41:45.000Z</time>
      </trkpt>
      <trkpt lat="43.72936" lon="6.7871">
        <ele>966.058224</ele>
        <time>2024-12-06T12:41:46.000Z</time>
      </trkpt>
      <trkpt lat="43.72937" lon="6.78709">
        <ele>966.19411</ele>
        <time>2024-12-06T12:41:47.000Z</time>
      </trkpt>
      <trkpt lat="43.72939" lon="6.7871">
        <ele>966.367005</ele>
        <time>2024-12-06T12:41:48.000Z</time>
      </trkpt>
      <trkpt lat="43.72939" lon="6.78712">
        <ele>966.556253</ele>
        <time>2024-12-06T12:41:49.000Z</time>
      </trkpt>
      <trkpt lat="43.72939" lon="6.78714">
        <ele>966.753008</ele>
        <time>2024-12-06T12:41:50.000Z</time>
      </trkpt>
      <trkpt lat="43.72938" lon="6.78717">
        <ele>966.973428</ele>
        <time>2024-12-06T12:41:51.000Z</time>
      </trkpt>
      <trkpt lat="43.72938" lon="6.7872">
        <ele>967.181986</ele>
        <time>2024-12-06T12:41:52.000Z</time>
      </trkpt>
      <trkpt lat="43.72939" lon="6.78722">
        <ele>967.388727</ele>
        <time>2024-12-06T12:41:53.000Z</time>
      </trkpt>
      <trkpt lat="43.72939" lon="6.78725">
        <ele>967.58971</ele>
        <time>2024-12-06T12:41:54.000Z</time>
      </trkpt>
      <trkpt lat="43.7294" lon="6.78726">
        <ele>967.737892</ele>
        <time>2024-12-06T12:41:55.000Z</time>
      </trkpt>
      <trkpt lat="43.72941" lon="6.78729">
        <ele>967.947619</ele>
        <time>2024-12-06T12:41:56.000Z</time>
      </trkpt>
      <trkpt lat="43.7294" lon="6.78735">
        <ele>968.387673</ele>
        <time>2024-12-06T12:41:58.000Z</time>
      </trkpt>
      <trkpt lat="43.7294" lon="6.78738">
        <ele>968.657457</ele>
        <time>2024-12-06T12:41:59.000Z</time>
      </trkpt>
      <trkpt lat="43.7294" lon="6.78741">
        <ele>968.853714</ele>
        <time>2024-12-06T12:42:00.000Z</time>
      </trkpt>
      <trkpt lat="43.72939" lon="6.78747">
        <ele>969.275816</ele>
        <time>2024-12-06T12:42:02.000Z</time>
      </trkpt>
      <trkpt lat="43.72939" lon="6.78749">
        <ele>969.423555</ele>
        <time>2024-12-06T12:42:03.000Z</time>
      </trkpt>
      <trkpt lat="43.72936" lon="6.78766">
        <ele>970.56771</ele>
        <time>2024-12-06T12:42:09.000Z</time>
      </trkpt>
      <trkpt lat="43.72935" lon="6.78779">
        <ele>971.436979</ele>
        <time>2024-12-06T12:42:13.000Z</time>
      </trkpt>
      <trkpt lat="43.72935" lon="6.78782">
        <ele>971.605947</ele>
        <time>2024-12-06T12:42:14.000Z</time>
      </trkpt>
      <trkpt lat="43.72935" lon="6.78784">
        <ele>971.764585</ele>
        <time>2024-12-06T12:42:15.000Z</time>
      </trkpt>
      <trkpt lat="43.72935" lon="6.78787">
        <ele>971.949354</ele>
        <time>2024-12-06T12:42:16.000Z</time>
      </trkpt>
      <trkpt lat="43.72935" lon="6.7879">
        <ele>972.168835</ele>
        <time>2024-12-06T12:42:17.000Z</time>
      </trkpt>
      <trkpt lat="43.72936" lon="6.78793">
        <ele>972.370598</ele>
        <time>2024-12-06T12:42:18.000Z</time>
      </trkpt>
      <trkpt lat="43.72936" lon="6.78796">
        <ele>972.578631</ele>
        <time>2024-12-06T12:42:19.000Z</time>
      </trkpt>
      <trkpt lat="43.72937" lon="6.78799">
        <ele>972.784041</ele>
        <time>2024-12-06T12:42:20.000Z</time>
      </trkpt>
      <trkpt lat="43.72937" lon="6.78801">
        <ele>972.930362</ele>
        <time>2024-12-06T12:42:21.000Z</time>
      </trkpt>
      <trkpt lat="43.72936" lon="6.78804">
        <ele>973.125877</ele>
        <time>2024-12-06T12:42:22.000Z</time>
      </trkpt>
      <trkpt lat="43.72936" lon="6.78807">
        <ele>973.290702</ele>
        <time>2024-12-06T12:42:23.000Z</time>
      </trkpt>
      <trkpt lat="43.72935" lon="6.7881">
        <ele>973.482288</ele>
        <time>2024-12-06T12:42:24.000Z</time>
      </trkpt>
      <trkpt lat="43.72936" lon="6.78813">
        <ele>973.734539</ele>
        <time>2024-12-06T12:42:25.000Z</time>
      </trkpt>
      <trkpt lat="43.72936" lon="6.78818">
        <ele>974.01543</ele>
        <time>2024-12-06T12:42:26.000Z</time>
      </trkpt>
      <trkpt lat="43.72937" lon="6.78822">
        <ele>974.301525</ele>
        <time>2024-12-06T12:42:27.000Z</time>
      </trkpt>
      <trkpt lat="43.72937" lon="6.78826">
        <ele>974.593167</ele>
        <time>2024-12-06T12:42:28.000Z</time>
      </trkpt>
      <trkpt lat="43.72937" lon="6.78831">
        <ele>974.879262</ele>
        <time>2024-12-06T12:42:29.000Z</time>
      </trkpt>
      <trkpt lat="43.72938" lon="6.78835">
        <ele>975.177348</ele>
        <time>2024-12-06T12:42:30.000Z</time>
      </trkpt>
      <trkpt lat="43.72939" lon="6.78839">
        <ele>975.459867</ele>
        <time>2024-12-06T12:42:31.000Z</time>
      </trkpt>
      <trkpt lat="43.7294" lon="6.78843">
        <ele>975.740113</ele>
        <time>2024-12-06T12:42:32.000Z</time>
      </trkpt>
      <trkpt lat="43.72941" lon="6.78847">
        <ele>976.022876</ele>
        <time>2024-12-06T12:42:33.000Z</time>
      </trkpt>
      <trkpt lat="43.72941" lon="6.78851">
        <ele>976.290753</ele>
        <time>2024-12-06T12:42:34.000Z</time>
      </trkpt>
      <trkpt lat="43.72941" lon="6.78855">
        <ele>976.543004</ele>
        <time>2024-12-06T12:42:35.000Z</time>
      </trkpt>
      <trkpt lat="43.72942" lon="6.78859">
        <ele>976.816014</ele>
        <time>2024-12-06T12:42:36.000Z</time>
      </trkpt>
      <trkpt lat="43.72942" lon="6.78863">
        <ele>977.083891</ele>
        <time>2024-12-06T12:42:37.000Z</time>
      </trkpt>
      <trkpt lat="43.72943" lon="6.78867">
        <ele>977.345267</ele>
        <time>2024-12-06T12:42:38.000Z</time>
      </trkpt>
      <trkpt lat="43.72943" lon="6.78871">
        <ele>977.598673</ele>
        <time>2024-12-06T12:42:39.000Z</time>
      </trkpt>
      <trkpt lat="43.72944" lon="6.78875">
        <ele>977.864047</ele>
        <time>2024-12-06T12:42:40.000Z</time>
      </trkpt>
      <trkpt lat="43.72944" lon="6.78879">
        <ele>978.14912</ele>
        <time>2024-12-06T12:42:41.000Z</time>
      </trkpt>
      <trkpt lat="43.72944" lon="6.78884">
        <ele>978.440762</ele>
        <time>2024-12-06T12:42:42.000Z</time>
      </trkpt>
      <trkpt lat="43.72944" lon="6.78888">
        <ele>978.704876</ele>
        <time>2024-12-06T12:42:43.000Z</time>
      </trkpt>
      <trkpt lat="43.72944" lon="6.78891">
        <ele>978.962881</ele>
        <time>2024-12-06T12:42:44.000Z</time>
      </trkpt>
      <trkpt lat="43.72945" lon="6.78896">
        <ele>979.234052</ele>
        <time>2024-12-06T12:42:45.000Z</time>
      </trkpt>
      <trkpt lat="43.72945" lon="6.789">
        <ele>979.505991</ele>
        <time>2024-12-06T12:42:46.000Z</time>
      </trkpt>
      <trkpt lat="43.72945" lon="6.78903">
        <ele>979.7479</ele>
        <time>2024-12-06T12:42:47.000Z</time>
      </trkpt>
      <trkpt lat="43.72946" lon="6.78907">
        <ele>979.989809</ele>
        <time>2024-12-06T12:42:48.000Z</time>
      </trkpt>
      <trkpt lat="43.72946" lon="6.7891">
        <ele>980.22239</ele>
        <time>2024-12-06T12:42:49.000Z</time>
      </trkpt>
      <trkpt lat="43.72946" lon="6.78914">
        <ele>980.433555</ele>
        <time>2024-12-06T12:42:50.000Z</time>
      </trkpt>
      <trkpt lat="43.72947" lon="6.78917">
        <ele>980.633409</ele>
        <time>2024-12-06T12:42:51.000Z</time>
      </trkpt>
      <trkpt lat="43.72946" lon="6.7892">
        <ele>980.844771</ele>
        <time>2024-12-06T12:42:52.000Z</time>
      </trkpt>
      <trkpt lat="43.72947" lon="6.78923">
        <ele>981.046081</ele>
        <time>2024-12-06T12:42:53.000Z</time>
      </trkpt>
      <trkpt lat="43.72947" lon="6.78926">
        <ele>981.23175</ele>
        <time>2024-12-06T12:42:54.000Z</time>
      </trkpt>
      <trkpt lat="43.72947" lon="6.78928">
        <ele>981.412015</ele>
        <time>2024-12-06T12:42:55.000Z</time>
      </trkpt>
      <trkpt lat="43.72948" lon="6.78931">
        <ele>981.58576</ele>
        <time>2024-12-06T12:42:56.000Z</time>
      </trkpt>
      <trkpt lat="43.72948" lon="6.78934">
        <ele>981.770755</ele>
        <time>2024-12-06T12:42:57.000Z</time>
      </trkpt>
      <trkpt lat="43.72948" lon="6.78936">
        <ele>981.955524</ele>
        <time>2024-12-06T12:42:58.000Z</time>
      </trkpt>
      <trkpt lat="43.72948" lon="6.78939">
        <ele>982.122756</ele>
        <time>2024-12-06T12:42:59.000Z</time>
      </trkpt>
      <trkpt lat="43.72948" lon="6.78941">
        <ele>982.291725</ele>
        <time>2024-12-06T12:43:00.000Z</time>
      </trkpt>
      <trkpt lat="43.72949" lon="6.78944">
        <ele>982.447833</ele>
        <time>2024-12-06T12:43:01.000Z</time>
      </trkpt>
      <trkpt lat="43.72949" lon="6.78946">
        <ele>982.619648</ele>
        <time>2024-12-06T12:43:02.000Z</time>
      </trkpt>
      <trkpt lat="43.72949" lon="6.78949">
        <ele>982.791462</ele>
        <time>2024-12-06T12:43:03.000Z</time>
      </trkpt>
      <trkpt lat="43.72949" lon="6.78951">
        <ele>982.956435</ele>
        <time>2024-12-06T12:43:04.000Z</time>
      </trkpt>
      <trkpt lat="43.72949" lon="6.78954">
        <ele>983.134605</ele>
        <time>2024-12-06T12:43:05.000Z</time>
      </trkpt>
      <trkpt lat="43.72949" lon="6.78956">
        <ele>983.273483</ele>
        <time>2024-12-06T12:43:06.000Z</time>
      </trkpt>
      <trkpt lat="43.72949" lon="6.78959">
        <ele>983.445297</ele>
        <time>2024-12-06T12:43:07.000Z</time>
      </trkpt>
      <trkpt lat="43.72949" lon="6.78961">
        <ele>983.584175</ele>
        <time>2024-12-06T12:43:08.000Z</time>
      </trkpt>
      <trkpt lat="43.72949" lon="6.78963">
        <ele>983.736224</ele>
        <time>2024-12-06T12:43:09.000Z</time>
      </trkpt>
      <trkpt lat="43.72949" lon="6.78965">
        <ele>983.868203</ele>
        <time>2024-12-06T12:43:10.000Z</time>
      </trkpt>
      <trkpt lat="43.72949" lon="6.78967">
        <ele>983.990101</ele>
        <time>2024-12-06T12:43:11.000Z</time>
      </trkpt>
      <trkpt lat="43.72949" lon="6.78969">
        <ele>984.10376</ele>
        <time>2024-12-06T12:43:12.000Z</time>
      </trkpt>
      <trkpt lat="43.72949" lon="6.78971">
        <ele>984.230462</ele>
        <time>2024-12-06T12:43:13.000Z</time>
      </trkpt>
      <trkpt lat="43.72949" lon="6.78972">
        <ele>984.311728</ele>
        <time>2024-12-06T12:43:14.000Z</time>
      </trkpt>
      <trkpt lat="43.7295" lon="6.78973">
        <ele>984.36759</ele>
        <time>2024-12-06T12:43:19.000Z</time>
      </trkpt>
      <trkpt lat="43.7295" lon="6.78973">
        <ele>984.36759</ele>
        <time>2024-12-06T12:43:30.000Z</time>
      </trkpt>
      <trkpt lat="43.7295" lon="6.78973">
        <ele>984.36759</ele>
        <time>2024-12-06T12:43:44.000Z</time>
      </trkpt>
      <trkpt lat="43.7295" lon="6.78973">
        <ele>984.421295</ele>
        <time>2024-12-06T12:43:52.000Z</time>
      </trkpt>
      <trkpt lat="43.7295" lon="6.78976">
        <ele>984.57307</ele>
        <time>2024-12-06T12:43:54.000Z</time>
      </trkpt>
      <trkpt lat="43.7295" lon="6.78978">
        <ele>984.712845</ele>
        <time>2024-12-06T12:43:55.000Z</time>
      </trkpt>
      <trkpt lat="43.7295" lon="6.78983">
        <ele>985.043296</ele>
        <time>2024-12-06T12:43:57.000Z</time>
      </trkpt>
      <trkpt lat="43.72951" lon="6.78994">
        <ele>985.630163</ele>
        <time>2024-12-06T12:44:01.000Z</time>
      </trkpt>
      <trkpt lat="43.72951" lon="6.78996">
        <ele>985.739139</ele>
        <time>2024-12-06T12:44:02.000Z</time>
      </trkpt>
      <trkpt lat="43.72951" lon="6.78999">
        <ele>985.886602</ele>
        <time>2024-12-06T12:44:03.000Z</time>
      </trkpt>
      <trkpt lat="43.72951" lon="6.79003">
        <ele>986.042958</ele>
        <time>2024-12-06T12:44:04.000Z</time>
      </trkpt>
      <trkpt lat="43.7295" lon="6.79006">
        <ele>986.200546</ele>
        <time>2024-12-06T12:44:05.000Z</time>
      </trkpt>
      <trkpt lat="43.7295" lon="6.79012">
        <ele>986.489865</ele>
        <time>2024-12-06T12:44:07.000Z</time>
      </trkpt>
      <trkpt lat="43.7295" lon="6.79015">
        <ele>986.641625</ele>
        <time>2024-12-06T12:44:08.000Z</time>
      </trkpt>
      <trkpt lat="43.7295" lon="6.79025">
        <ele>987.106694</ele>
        <time>2024-12-06T12:44:11.000Z</time>
      </trkpt>
      <trkpt lat="43.72949" lon="6.79028">
        <ele>987.269909</ele>
        <time>2024-12-06T12:44:12.000Z</time>
      </trkpt>
      <trkpt lat="43.72949" lon="6.79032">
        <ele>987.426814</ele>
        <time>2024-12-06T12:44:13.000Z</time>
      </trkpt>
      <trkpt lat="43.72949" lon="6.79036">
        <ele>987.612642</ele>
        <time>2024-12-06T12:44:14.000Z</time>
      </trkpt>
      <trkpt lat="43.72949" lon="6.79039">
        <ele>987.76553</ele>
        <time>2024-12-06T12:44:15.000Z</time>
      </trkpt>
      <trkpt lat="43.72948" lon="6.79042">
        <ele>987.899646</ele>
        <time>2024-12-06T12:44:16.000Z</time>
      </trkpt>
      <trkpt lat="43.72948" lon="6.79045">
        <ele>988.085474</ele>
        <time>2024-12-06T12:44:17.000Z</time>
      </trkpt>
      <trkpt lat="43.72948" lon="6.79048">
        <ele>988.214072</ele>
        <time>2024-12-06T12:44:18.000Z</time>
      </trkpt>
      <trkpt lat="43.72947" lon="6.79051">
        <ele>988.372613</ele>
        <time>2024-12-06T12:44:19.000Z</time>
      </trkpt>
      <trkpt lat="43.72947" lon="6.79055">
        <ele>988.531153</ele>
        <time>2024-12-06T12:44:20.000Z</time>
      </trkpt>
      <trkpt lat="43.72947" lon="6.79058">
        <ele>988.678617</ele>
        <time>2024-12-06T12:44:21.000Z</time>
      </trkpt>
      <trkpt lat="43.72947" lon="6.79061">
        <ele>988.82091</ele>
        <time>2024-12-06T12:44:22.000Z</time>
      </trkpt>
      <trkpt lat="43.72946" lon="6.79064">
        <ele>988.963655</ele>
        <time>2024-12-06T12:44:23.000Z</time>
      </trkpt>
      <trkpt lat="43.72946" lon="6.79067">
        <ele>989.117525</ele>
        <time>2024-12-06T12:44:24.000Z</time>
      </trkpt>
      <trkpt lat="43.72946" lon="6.7907">
        <ele>989.26027</ele>
        <time>2024-12-06T12:44:25.000Z</time>
      </trkpt>
      <trkpt lat="43.72946" lon="6.79073">
        <ele>989.407296</ele>
        <time>2024-12-06T12:44:26.000Z</time>
      </trkpt>
      <trkpt lat="43.72946" lon="6.79076">
        <ele>989.55948</ele>
        <time>2024-12-06T12:44:27.000Z</time>
      </trkpt>
      <trkpt lat="43.72946" lon="6.79081">
        <ele>989.75891</ele>
        <time>2024-12-06T12:44:28.000Z</time>
      </trkpt>
      <trkpt lat="43.72946" lon="6.79083">
        <ele>989.896938</ele>
        <time>2024-12-06T12:44:29.000Z</time>
      </trkpt>
      <trkpt lat="43.72946" lon="6.79087">
        <ele>990.053431</ele>
        <time>2024-12-06T12:44:30.000Z</time>
      </trkpt>
      <trkpt lat="43.72946" lon="6.79091">
        <ele>990.25243</ele>
        <time>2024-12-06T12:44:31.000Z</time>
      </trkpt>
      <trkpt lat="43.72946" lon="6.79094">
        <ele>990.391234</ele>
        <time>2024-12-06T12:44:32.000Z</time>
      </trkpt>
      <trkpt lat="43.72946" lon="6.79097">
        <ele>990.559127</ele>
        <time>2024-12-06T12:44:33.000Z</time>
      </trkpt>
      <trkpt lat="43.72947" lon="6.79102">
        <ele>990.773246</ele>
        <time>2024-12-06T12:44:34.000Z</time>
      </trkpt>
      <trkpt lat="43.72947" lon="6.79106">
        <ele>990.953411</ele>
        <time>2024-12-06T12:44:35.000Z</time>
      </trkpt>
      <trkpt lat="43.72947" lon="6.79109">
        <ele>991.129819</ele>
        <time>2024-12-06T12:44:36.000Z</time>
      </trkpt>
      <trkpt lat="43.72947" lon="6.79113">
        <ele>991.310342</ele>
        <time>2024-12-06T12:44:37.000Z</time>
      </trkpt>
      <trkpt lat="43.72948" lon="6.79117">
        <ele>991.482917</ele>
        <time>2024-12-06T12:44:38.000Z</time>
      </trkpt>
      <trkpt lat="43.72948" lon="6.79121">
        <ele>991.663082</ele>
        <time>2024-12-06T12:44:39.000Z</time>
      </trkpt>
      <trkpt lat="43.72948" lon="6.79124">
        <ele>991.834783</ele>
        <time>2024-12-06T12:44:40.000Z</time>
      </trkpt>
      <trkpt lat="43.72948" lon="6.79128">
        <ele>992.011191</ele>
        <time>2024-12-06T12:44:41.000Z</time>
      </trkpt>
      <trkpt lat="43.72949" lon="6.79132">
        <ele>992.194198</ele>
        <time>2024-12-06T12:44:42.000Z</time>
      </trkpt>
      <trkpt lat="43.72949" lon="6.79135">
        <ele>992.365271</ele>
        <time>2024-12-06T12:44:43.000Z</time>
      </trkpt>
      <trkpt lat="43.72949" lon="6.79139">
        <ele>992.554907</ele>
        <time>2024-12-06T12:44:44.000Z</time>
      </trkpt>
      <trkpt lat="43.72949" lon="6.79143">
        <ele>992.72598</ele>
        <time>2024-12-06T12:44:45.000Z</time>
      </trkpt>
      <trkpt lat="43.72949" lon="6.79147">
        <ele>992.901288</ele>
        <time>2024-12-06T12:44:46.000Z</time>
      </trkpt>
      <trkpt lat="43.7295" lon="6.7915">
        <ele>993.077086</ele>
        <time>2024-12-06T12:44:47.000Z</time>
      </trkpt>
      <trkpt lat="43.7295" lon="6.79154">
        <ele>993.248159</ele>
        <time>2024-12-06T12:44:48.000Z</time>
      </trkpt>
      <trkpt lat="43.7295" lon="6.79157">
        <ele>993.418855</ele>
        <time>2024-12-06T12:44:49.000Z</time>
      </trkpt>
      <trkpt lat="43.7295" lon="6.79161">
        <ele>993.594163</ele>
        <time>2024-12-06T12:44:50.000Z</time>
      </trkpt>
      <trkpt lat="43.7295" lon="6.79165">
        <ele>993.774686</ele>
        <time>2024-12-06T12:44:51.000Z</time>
      </trkpt>
      <trkpt lat="43.7295" lon="6.79169">
        <ele>993.945382</ele>
        <time>2024-12-06T12:44:52.000Z</time>
      </trkpt>
      <trkpt lat="43.72949" lon="6.79172">
        <ele>994.126499</ele>
        <time>2024-12-06T12:44:53.000Z</time>
      </trkpt>
      <trkpt lat="43.72949" lon="6.79176">
        <ele>994.306665</ele>
        <time>2024-12-06T12:44:54.000Z</time>
      </trkpt>
      <trkpt lat="43.72949" lon="6.7918">
        <ele>994.48683</ele>
        <time>2024-12-06T12:44:55.000Z</time>
      </trkpt>
      <trkpt lat="43.7295" lon="6.79183">
        <ele>994.649121</ele>
        <time>2024-12-06T12:44:56.000Z</time>
      </trkpt>
      <trkpt lat="43.7295" lon="6.79187">
        <ele>994.806709</ele>
        <time>2024-12-06T12:44:57.000Z</time>
      </trkpt>
      <trkpt lat="43.7295" lon="6.7919">
        <ele>994.969924</ele>
        <time>2024-12-06T12:44:58.000Z</time>
      </trkpt>
      <trkpt lat="43.72951" lon="6.79193">
        <ele>995.133139</ele>
        <time>2024-12-06T12:44:59.000Z</time>
      </trkpt>
      <trkpt lat="43.72951" lon="6.79197">
        <ele>995.303835</ele>
        <time>2024-12-06T12:45:00.000Z</time>
      </trkpt>
      <trkpt lat="43.72951" lon="6.79201">
        <ele>995.47453</ele>
        <time>2024-12-06T12:45:01.000Z</time>
      </trkpt>
      <trkpt lat="43.7295" lon="6.79204">
        <ele>995.646597</ele>
        <time>2024-12-06T12:45:02.000Z</time>
      </trkpt>
      <trkpt lat="43.72949" lon="6.79208">
        <ele>995.832009</ele>
        <time>2024-12-06T12:45:03.000Z</time>
      </trkpt>
      <trkpt lat="43.72947" lon="6.79211">
        <ele>996.025712</ele>
        <time>2024-12-06T12:45:04.000Z</time>
      </trkpt>
      <trkpt lat="43.72946" lon="6.79215">
        <ele>996.218516</ele>
        <time>2024-12-06T12:45:05.000Z</time>
      </trkpt>
      <trkpt lat="43.72944" lon="6.79218">
        <ele>996.403928</ele>
        <time>2024-12-06T12:45:06.000Z</time>
      </trkpt>
      <trkpt lat="43.72943" lon="6.79222">
        <ele>996.593472</ele>
        <time>2024-12-06T12:45:07.000Z</time>
      </trkpt>
      <trkpt lat="43.72941" lon="6.79225">
        <ele>996.778884</ele>
        <time>2024-12-06T12:45:08.000Z</time>
      </trkpt>
      <trkpt lat="43.7294" lon="6.79228">
        <ele>996.967175</ele>
        <time>2024-12-06T12:45:09.000Z</time>
      </trkpt>
      <trkpt lat="43.72938" lon="6.79232">
        <ele>997.121033</ele>
        <time>2024-12-06T12:45:10.000Z</time>
      </trkpt>
      <trkpt lat="43.72937" lon="6.79235">
        <ele>997.24032</ele>
        <time>2024-12-06T12:45:11.000Z</time>
      </trkpt>
      <trkpt lat="43.72936" lon="6.79238">
        <ele>997.341399</ele>
        <time>2024-12-06T12:45:12.000Z</time>
      </trkpt>
      <trkpt lat="43.72934" lon="6.79242">
        <ele>997.489987</ele>
        <time>2024-12-06T12:45:13.000Z</time>
      </trkpt>
      <trkpt lat="43.72933" lon="6.79245">
        <ele>997.615476</ele>
        <time>2024-12-06T12:45:14.000Z</time>
      </trkpt>
      <trkpt lat="43.72932" lon="6.79249">
        <ele>997.738138</ele>
        <time>2024-12-06T12:45:15.000Z</time>
      </trkpt>
      <trkpt lat="43.7293" lon="6.79252">
        <ele>997.85799</ele>
        <time>2024-12-06T12:45:16.000Z</time>
      </trkpt>
      <trkpt lat="43.72929" lon="6.79255">
        <ele>997.97099</ele>
        <time>2024-12-06T12:45:17.000Z</time>
      </trkpt>
      <trkpt lat="43.72928" lon="6.79258">
        <ele>998.086877</ele>
        <time>2024-12-06T12:45:18.000Z</time>
      </trkpt>
      <trkpt lat="43.72927" lon="6.79262">
        <ele>998.202764</ele>
        <time>2024-12-06T12:45:19.000Z</time>
      </trkpt>
      <trkpt lat="43.72926" lon="6.79265">
        <ele>998.306331</ele>
        <time>2024-12-06T12:45:20.000Z</time>
      </trkpt>
      <trkpt lat="43.72926" lon="6.79267">
        <ele>998.390333</ele>
        <time>2024-12-06T12:45:21.000Z</time>
      </trkpt>
      <trkpt lat="43.72925" lon="6.7927">
        <ele>998.466923</ele>
        <time>2024-12-06T12:45:22.000Z</time>
      </trkpt>
      <trkpt lat="43.72925" lon="6.79272">
        <ele>998.534409</ele>
        <time>2024-12-06T12:45:23.000Z</time>
      </trkpt>
      <trkpt lat="43.72924" lon="6.79274">
        <ele>998.604915</ele>
        <time>2024-12-06T12:45:24.000Z</time>
      </trkpt>
      <trkpt lat="43.72924" lon="6.79276">
        <ele>998.6724</ele>
        <time>2024-12-06T12:45:25.000Z</time>
      </trkpt>
      <trkpt lat="43.72923" lon="6.79277">
        <ele>998.737583</ele>
        <time>2024-12-06T12:45:26.000Z</time>
      </trkpt>
      <trkpt lat="43.72923" lon="6.79279">
        <ele>998.7811</ele>
        <time>2024-12-06T12:45:27.000Z</time>
      </trkpt>
      <trkpt lat="43.72922" lon="6.7928">
        <ele>998.845792</ele>
        <time>2024-12-06T12:45:28.000Z</time>
      </trkpt>
      <trkpt lat="43.72921" lon="6.79282">
        <ele>998.908565</ele>
        <time>2024-12-06T12:45:29.000Z</time>
      </trkpt>
      <trkpt lat="43.7292" lon="6.79283">
        <ele>998.969111</ele>
        <time>2024-12-06T12:45:30.000Z</time>
      </trkpt>
      <trkpt lat="43.72919" lon="6.79284">
        <ele>999.025483</ele>
        <time>2024-12-06T12:45:31.000Z</time>
      </trkpt>
      <trkpt lat="43.72919" lon="6.79285">
        <ele>999.055508</ele>
        <time>2024-12-06T12:45:32.000Z</time>
      </trkpt>
      <trkpt lat="43.72919" lon="6.79287">
        <ele>999.109898</ele>
        <time>2024-12-06T12:45:33.000Z</time>
      </trkpt>
      <trkpt lat="43.72919" lon="6.79288">
        <ele>999.162608</ele>
        <time>2024-12-06T12:45:34.000Z</time>
      </trkpt>
      <trkpt lat="43.72919" lon="6.79289">
        <ele>999.195695</ele>
        <time>2024-12-06T12:45:35.000Z</time>
      </trkpt>
      <trkpt lat="43.7292" lon="6.79289">
        <ele>999.21776</ele>
        <time>2024-12-06T12:45:51.000Z</time>
      </trkpt>
      <trkpt lat="43.7292" lon="6.79289">
        <ele>999.21776</ele>
        <time>2024-12-06T12:45:57.000Z</time>
      </trkpt>
      <trkpt lat="43.7292" lon="6.79289">
        <ele>999.21776</ele>
        <time>2024-12-06T12:46:14.000Z</time>
      </trkpt>
      <trkpt lat="43.7292" lon="6.79289">
        <ele>999.21776</ele>
        <time>2024-12-06T12:46:44.000Z</time>
      </trkpt>
      <trkpt lat="43.7292" lon="6.79289">
        <ele>999.21776</ele>
        <time>2024-12-06T12:47:02.000Z</time>
      </trkpt>
      <trkpt lat="43.7292" lon="6.79289">
        <ele>999.21776</ele>
        <time>2024-12-06T12:47:04.000Z</time>
      </trkpt>
      <trkpt lat="43.7292" lon="6.79289">
        <ele>999.21776</ele>
        <time>2024-12-06T12:47:21.000Z</time>
      </trkpt>
      <trkpt lat="43.7292" lon="6.79289">
        <ele>999.21776</ele>
        <time>2024-12-06T12:47:40.000Z</time>
      </trkpt>
      <trkpt lat="43.7292" lon="6.7929">
        <ele>999.23883</ele>
        <time>2024-12-06T12:48:23.000Z</time>
      </trkpt>
      <trkpt lat="43.72919" lon="6.79294">
        <ele>999.350787</ele>
        <time>2024-12-06T12:48:46.000Z</time>
      </trkpt>
      <trkpt lat="43.72919" lon="6.79295">
        <ele>999.408269</ele>
        <time>2024-12-06T12:48:47.000Z</time>
      </trkpt>
      <trkpt lat="43.72915" lon="6.79299">
        <ele>999.636937</ele>
        <time>2024-12-06T12:48:50.000Z</time>
      </trkpt>
      <trkpt lat="43.72913" lon="6.793">
        <ele>999.718452</ele>
        <time>2024-12-06T12:48:51.000Z</time>
      </trkpt>
      <trkpt lat="43.72911" lon="6.79302">
        <ele>999.814981</ele>
        <time>2024-12-06T12:48:52.000Z</time>
      </trkpt>
      <trkpt lat="43.72903" lon="6.7931">
        <ele>1000.251131</ele>
        <time>2024-12-06T12:48:56.000Z</time>
      </trkpt>
      <trkpt lat="43.72901" lon="6.79313">
        <ele>1000.379817</ele>
        <time>2024-12-06T12:48:57.000Z</time>
      </trkpt>
      <trkpt lat="43.72891" lon="6.79331">
        <ele>1001.098618</ele>
        <time>2024-12-06T12:49:02.000Z</time>
      </trkpt>
      <trkpt lat="43.72878" lon="6.79356">
        <ele>1002.065273</ele>
        <time>2024-12-06T12:49:09.000Z</time>
      </trkpt>
      <trkpt lat="43.72877" lon="6.79358">
        <ele>1002.176621</ele>
        <time>2024-12-06T12:49:10.000Z</time>
      </trkpt>
      <trkpt lat="43.72873" lon="6.79363">
        <ele>1002.406259</ele>
        <time>2024-12-06T12:49:12.000Z</time>
      </trkpt>
      <trkpt lat="43.72872" lon="6.79367">
        <ele>1002.530348</ele>
        <time>2024-12-06T12:49:13.000Z</time>
      </trkpt>
      <trkpt lat="43.7287" lon="6.7937">
        <ele>1002.672582</ele>
        <time>2024-12-06T12:49:14.000Z</time>
      </trkpt>
      <trkpt lat="43.72866" lon="6.79378">
        <ele>1002.956896</ele>
        <time>2024-12-06T12:49:16.000Z</time>
      </trkpt>
      <trkpt lat="43.72864" lon="6.79381">
        <ele>1003.099053</ele>
        <time>2024-12-06T12:49:17.000Z</time>
      </trkpt>
      <trkpt lat="43.72859" lon="6.79389">
        <ele>1003.410325</ele>
        <time>2024-12-06T12:49:19.000Z</time>
      </trkpt>
      <trkpt lat="43.72855" lon="6.79396">
        <ele>1003.739461</ele>
        <time>2024-12-06T12:49:21.000Z</time>
      </trkpt>
      <trkpt lat="43.72847" lon="6.79407">
        <ele>1004.226376</ele>
        <time>2024-12-06T12:49:24.000Z</time>
      </trkpt>
      <trkpt lat="43.72841" lon="6.79413">
        <ele>1004.533985</ele>
        <time>2024-12-06T12:49:26.000Z</time>
      </trkpt>
      <trkpt lat="43.72834" lon="6.79422">
        <ele>1004.981514</ele>
        <time>2024-12-06T12:49:29.000Z</time>
      </trkpt>
      <trkpt lat="43.72828" lon="6.79428">
        <ele>1005.585434</ele>
        <time>2024-12-06T12:49:31.000Z</time>
      </trkpt>
      <trkpt lat="43.72826" lon="6.7943">
        <ele>1005.856396</ele>
        <time>2024-12-06T12:49:32.000Z</time>
      </trkpt>
      <trkpt lat="43.72823" lon="6.79432">
        <ele>1006.110756</ele>
        <time>2024-12-06T12:49:33.000Z</time>
      </trkpt>
      <trkpt lat="43.7282" lon="6.79433">
        <ele>1006.359978</ele>
        <time>2024-12-06T12:49:34.000Z</time>
      </trkpt>
      <trkpt lat="43.72818" lon="6.79433">
        <ele>1006.586001</ele>
        <time>2024-12-06T12:49:35.000Z</time>
      </trkpt>
      <trkpt lat="43.72817" lon="6.79433">
        <ele>1006.712531</ele>
        <time>2024-12-06T12:49:36.000Z</time>
      </trkpt>
      <trkpt lat="43.72815" lon="6.79434">
        <ele>1006.864704</ele>
        <time>2024-12-06T12:49:37.000Z</time>
      </trkpt>
      <trkpt lat="43.72814" lon="6.79436">
        <ele>1007.039195</ele>
        <time>2024-12-06T12:49:38.000Z</time>
      </trkpt>
      <trkpt lat="43.72813" lon="6.79439">
        <ele>1007.219551</ele>
        <time>2024-12-06T12:49:39.000Z</time>
      </trkpt>
      <trkpt lat="43.72811" lon="6.7944">
        <ele>1007.401621</ele>
        <time>2024-12-06T12:49:40.000Z</time>
      </trkpt>
      <trkpt lat="43.7281" lon="6.79442">
        <ele>1007.564924</ele>
        <time>2024-12-06T12:49:41.000Z</time>
      </trkpt>
      <trkpt lat="43.72807" lon="6.79443">
        <ele>1007.786286</ele>
        <time>2024-12-06T12:49:42.000Z</time>
      </trkpt>
      <trkpt lat="43.72805" lon="6.79444">
        <ele>1008.003886</ele>
        <time>2024-12-06T12:49:43.000Z</time>
      </trkpt>
      <trkpt lat="43.72803" lon="6.79445">
        <ele>1008.215137</ele>
        <time>2024-12-06T12:49:44.000Z</time>
      </trkpt>
      <trkpt lat="43.72801" lon="6.79445">
        <ele>1008.379684</ele>
        <time>2024-12-06T12:49:45.000Z</time>
      </trkpt>
      <trkpt lat="43.72799" lon="6.79445">
        <ele>1008.596697</ele>
        <time>2024-12-06T12:49:46.000Z</time>
      </trkpt>
      <trkpt lat="43.72796" lon="6.79446">
        <ele>1008.831731</ele>
        <time>2024-12-06T12:49:47.000Z</time>
      </trkpt>
      <trkpt lat="43.72794" lon="6.79446">
        <ele>1009.048351</ele>
        <time>2024-12-06T12:49:48.000Z</time>
      </trkpt>
      <trkpt lat="43.72791" lon="6.79445">
        <ele>1009.256048</ele>
        <time>2024-12-06T12:49:49.000Z</time>
      </trkpt>
      <trkpt lat="43.72789" lon="6.79445">
        <ele>1009.455045</ele>
        <time>2024-12-06T12:49:50.000Z</time>
      </trkpt>
      <trkpt lat="43.72787" lon="6.79445">
        <ele>1009.663049</ele>
        <time>2024-12-06T12:49:51.000Z</time>
      </trkpt>
      <trkpt lat="43.72784" lon="6.79445">
        <ele>1009.889072</ele>
        <time>2024-12-06T12:49:52.000Z</time>
      </trkpt>
      <trkpt lat="43.72782" lon="6.79444">
        <ele>1010.107258</ele>
        <time>2024-12-06T12:49:53.000Z</time>
      </trkpt>
      <trkpt lat="43.7278" lon="6.79444">
        <ele>1010.270897</ele>
        <time>2024-12-06T12:49:54.000Z</time>
      </trkpt>
      <trkpt lat="43.72777" lon="6.79444">
        <ele>1010.515988</ele>
        <time>2024-12-06T12:49:55.000Z</time>
      </trkpt>
      <trkpt lat="43.72775" lon="6.79443">
        <ele>1010.745002</ele>
        <time>2024-12-06T12:49:56.000Z</time>
      </trkpt>
      <trkpt lat="43.72773" lon="6.79442">
        <ele>1010.962602</ele>
        <time>2024-12-06T12:49:57.000Z</time>
      </trkpt>
      <trkpt lat="43.7277" lon="6.79441">
        <ele>1011.180202</ele>
        <time>2024-12-06T12:49:58.000Z</time>
      </trkpt>
      <trkpt lat="43.72768" lon="6.7944">
        <ele>1011.374454</ele>
        <time>2024-12-06T12:49:59.000Z</time>
      </trkpt>
      <trkpt lat="43.72766" lon="6.79439">
        <ele>1011.582098</ele>
        <time>2024-12-06T12:50:00.000Z</time>
      </trkpt>
      <trkpt lat="43.72764" lon="6.79437">
        <ele>1011.784396</ele>
        <time>2024-12-06T12:50:01.000Z</time>
      </trkpt>
      <trkpt lat="43.72762" lon="6.79436">
        <ele>1012.01702</ele>
        <time>2024-12-06T12:50:02.000Z</time>
      </trkpt>
      <trkpt lat="43.7276" lon="6.79435">
        <ele>1012.230457</ele>
        <time>2024-12-06T12:50:03.000Z</time>
      </trkpt>
      <trkpt lat="43.72758" lon="6.79434">
        <ele>1012.433125</ele>
        <time>2024-12-06T12:50:04.000Z</time>
      </trkpt>
      <trkpt lat="43.72755" lon="6.79433">
        <ele>1012.635792</ele>
        <time>2024-12-06T12:50:05.000Z</time>
      </trkpt>
      <trkpt lat="43.72753" lon="6.79432">
        <ele>1012.851526</ele>
        <time>2024-12-06T12:50:06.000Z</time>
      </trkpt>
      <trkpt lat="43.72751" lon="6.79431">
        <ele>1013.060533</ele>
        <time>2024-12-06T12:50:07.000Z</time>
      </trkpt>
      <trkpt lat="43.72749" lon="6.7943">
        <ele>1013.276267</ele>
        <time>2024-12-06T12:50:08.000Z</time>
      </trkpt>
      <trkpt lat="43.72747" lon="6.79429">
        <ele>1013.467575</ele>
        <time>2024-12-06T12:50:09.000Z</time>
      </trkpt>
      <trkpt lat="43.72745" lon="6.79427">
        <ele>1013.675404</ele>
        <time>2024-12-06T12:50:10.000Z</time>
      </trkpt>
      <trkpt lat="43.72743" lon="6.79425">
        <ele>1013.880729</ele>
        <time>2024-12-06T12:50:11.000Z</time>
      </trkpt>
      <trkpt lat="43.72741" lon="6.79424">
        <ele>1014.086054</ele>
        <time>2024-12-06T12:50:12.000Z</time>
      </trkpt>
      <trkpt lat="43.72739" lon="6.79423">
        <ele>1014.299491</ele>
        <time>2024-12-06T12:50:13.000Z</time>
      </trkpt>
      <trkpt lat="43.72736" lon="6.79422">
        <ele>1014.515226</ele>
        <time>2024-12-06T12:50:14.000Z</time>
      </trkpt>
      <trkpt lat="43.72734" lon="6.7942">
        <ele>1014.737085</ele>
        <time>2024-12-06T12:50:15.000Z</time>
      </trkpt>
      <trkpt lat="43.72732" lon="6.79419">
        <ele>1014.920561</ele>
        <time>2024-12-06T12:50:16.000Z</time>
      </trkpt>
      <trkpt lat="43.7273" lon="6.79418">
        <ele>1015.125628</ele>
        <time>2024-12-06T12:50:17.000Z</time>
      </trkpt>
      <trkpt lat="43.72728" lon="6.79417">
        <ele>1015.341543</ele>
        <time>2024-12-06T12:50:18.000Z</time>
      </trkpt>
      <trkpt lat="43.72726" lon="6.79416">
        <ele>1015.560101</ele>
        <time>2024-12-06T12:50:19.000Z</time>
      </trkpt>
      <trkpt lat="43.72724" lon="6.79415">
        <ele>1015.760552</ele>
        <time>2024-12-06T12:50:20.000Z</time>
      </trkpt>
      <trkpt lat="43.72722" lon="6.79413">
        <ele>1015.957307</ele>
        <time>2024-12-06T12:50:21.000Z</time>
      </trkpt>
      <trkpt lat="43.72719" lon="6.79412">
        <ele>1016.164951</ele>
        <time>2024-12-06T12:50:22.000Z</time>
      </trkpt>
      <trkpt lat="43.72717" lon="6.79411">
        <ele>1016.376084</ele>
        <time>2024-12-06T12:50:23.000Z</time>
      </trkpt>
      <trkpt lat="43.72715" lon="6.7941">
        <ele>1016.576535</ele>
        <time>2024-12-06T12:50:24.000Z</time>
      </trkpt>
      <trkpt lat="43.72713" lon="6.79408">
        <ele>1016.785047</ele>
        <time>2024-12-06T12:50:25.000Z</time>
      </trkpt>
      <trkpt lat="43.72711" lon="6.79406">
        <ele>1017.004009</ele>
        <time>2024-12-06T12:50:26.000Z</time>
      </trkpt>
      <trkpt lat="43.72709" lon="6.79405">
        <ele>1017.204758</ele>
        <time>2024-12-06T12:50:27.000Z</time>
      </trkpt>
      <trkpt lat="43.72708" lon="6.79404">
        <ele>1017.356932</ele>
        <time>2024-12-06T12:50:28.000Z</time>
      </trkpt>
      <trkpt lat="43.72706" lon="6.79402">
        <ele>1017.54824</ele>
        <time>2024-12-06T12:50:29.000Z</time>
      </trkpt>
      <trkpt lat="43.72704" lon="6.79401">
        <ele>1017.772483</ele>
        <time>2024-12-06T12:50:30.000Z</time>
      </trkpt>
      <trkpt lat="43.72702" lon="6.794">
        <ele>1017.963792</ele>
        <time>2024-12-06T12:50:31.000Z</time>
      </trkpt>
      <trkpt lat="43.727" lon="6.79398">
        <ele>1018.177229</ele>
        <time>2024-12-06T12:50:32.000Z</time>
      </trkpt>
      <trkpt lat="43.72697" lon="6.79397">
        <ele>1018.409854</ele>
        <time>2024-12-06T12:50:33.000Z</time>
      </trkpt>
      <trkpt lat="43.72695" lon="6.79396">
        <ele>1018.620246</ele>
        <time>2024-12-06T12:50:34.000Z</time>
      </trkpt>
      <trkpt lat="43.72693" lon="6.79395">
        <ele>1018.817001</ele>
        <time>2024-12-06T12:50:35.000Z</time>
      </trkpt>
      <trkpt lat="43.7269" lon="6.79393">
        <ele>1019.101406</ele>
        <time>2024-12-06T12:50:36.000Z</time>
      </trkpt>
      <trkpt lat="43.72688" lon="6.79391">
        <ele>1019.340241</ele>
        <time>2024-12-06T12:50:37.000Z</time>
      </trkpt>
      <trkpt lat="43.72685" lon="6.79391">
        <ele>1019.589463</ele>
        <time>2024-12-06T12:50:38.000Z</time>
      </trkpt>
      <trkpt lat="43.72683" lon="6.7939">
        <ele>1019.817454</ele>
        <time>2024-12-06T12:50:39.000Z</time>
      </trkpt>
      <trkpt lat="43.7268" lon="6.79389">
        <ele>1020.037581</ele>
        <time>2024-12-06T12:50:40.000Z</time>
      </trkpt>
      <trkpt lat="43.72678" lon="6.79389">
        <ele>1020.263604</ele>
        <time>2024-12-06T12:50:41.000Z</time>
      </trkpt>
      <trkpt lat="43.72675" lon="6.79389">
        <ele>1020.48925</ele>
        <time>2024-12-06T12:50:42.000Z</time>
      </trkpt>
      <trkpt lat="43.72673" lon="6.79389">
        <ele>1020.715743</ele>
        <time>2024-12-06T12:50:43.000Z</time>
      </trkpt>
      <trkpt lat="43.7267" lon="6.79388">
        <ele>1020.953656</ele>
        <time>2024-12-06T12:50:44.000Z</time>
      </trkpt>
      <trkpt lat="43.72668" lon="6.79388">
        <ele>1021.16166</ele>
        <time>2024-12-06T12:50:45.000Z</time>
      </trkpt>
      <trkpt lat="43.72665" lon="6.79388">
        <ele>1021.353163</ele>
        <time>2024-12-06T12:50:46.000Z</time>
      </trkpt>
      <trkpt lat="43.72663" lon="6.79388">
        <ele>1021.537219</ele>
        <time>2024-12-06T12:50:47.000Z</time>
      </trkpt>
      <trkpt lat="43.72661" lon="6.79388">
        <ele>1021.722632</ele>
        <time>2024-12-06T12:50:48.000Z</time>
      </trkpt>
      <trkpt lat="43.72658" lon="6.79389">
        <ele>1021.916759</ele>
        <time>2024-12-06T12:50:49.000Z</time>
      </trkpt>
      <trkpt lat="43.72657" lon="6.7939">
        <ele>1022.069841</ele>
        <time>2024-12-06T12:50:50.000Z</time>
      </trkpt>
      <trkpt lat="43.72654" lon="6.79391">
        <ele>1022.302649</ele>
        <time>2024-12-06T12:50:51.000Z</time>
      </trkpt>
      <trkpt lat="43.72651" lon="6.79392">
        <ele>1022.498831</ele>
        <time>2024-12-06T12:50:52.000Z</time>
      </trkpt>
      <trkpt lat="43.72649" lon="6.79392">
        <ele>1022.693902</ele>
        <time>2024-12-06T12:50:53.000Z</time>
      </trkpt>
      <trkpt lat="43.72647" lon="6.79393">
        <ele>1022.873254</ele>
        <time>2024-12-06T12:50:54.000Z</time>
      </trkpt>
      <trkpt lat="43.72645" lon="6.79393">
        <ele>1023.053812</ele>
        <time>2024-12-06T12:50:55.000Z</time>
      </trkpt>
      <trkpt lat="43.72642" lon="6.79394">
        <ele>1023.242174</ele>
        <time>2024-12-06T12:50:56.000Z</time>
      </trkpt>
      <trkpt lat="43.7264" lon="6.79395">
        <ele>1023.421526</ele>
        <time>2024-12-06T12:50:57.000Z</time>
      </trkpt>
      <trkpt lat="43.72638" lon="6.79395">
        <ele>1023.599005</ele>
        <time>2024-12-06T12:50:58.000Z</time>
      </trkpt>
      <trkpt lat="43.72635" lon="6.79396">
        <ele>1023.801952</ele>
        <time>2024-12-06T12:50:59.000Z</time>
      </trkpt>
      <trkpt lat="43.72633" lon="6.79397">
        <ele>1023.983893</ele>
        <time>2024-12-06T12:51:00.000Z</time>
      </trkpt>
      <trkpt lat="43.72631" lon="6.79398">
        <ele>1024.16911</ele>
        <time>2024-12-06T12:51:01.000Z</time>
      </trkpt>
      <trkpt lat="43.72629" lon="6.79398">
        <ele>1024.335629</ele>
        <time>2024-12-06T12:51:02.000Z</time>
      </trkpt>
      <trkpt lat="43.72627" lon="6.79399">
        <ele>1024.509846</ele>
        <time>2024-12-06T12:51:03.000Z</time>
      </trkpt>
      <trkpt lat="43.72625" lon="6.794">
        <ele>1024.702678</ele>
        <time>2024-12-06T12:51:04.000Z</time>
      </trkpt>
      <trkpt lat="43.72622" lon="6.79401">
        <ele>1024.892366</ele>
        <time>2024-12-06T12:51:05.000Z</time>
      </trkpt>
      <trkpt lat="43.7262" lon="6.79402">
        <ele>1025.09638</ele>
        <time>2024-12-06T12:51:06.000Z</time>
      </trkpt>
      <trkpt lat="43.72617" lon="6.79402">
        <ele>1025.300395</ele>
        <time>2024-12-06T12:51:07.000Z</time>
      </trkpt>
      <trkpt lat="43.72615" lon="6.79403">
        <ele>1025.488757</ele>
        <time>2024-12-06T12:51:08.000Z</time>
      </trkpt>
      <trkpt lat="43.72613" lon="6.79404">
        <ele>1025.679936</ele>
        <time>2024-12-06T12:51:09.000Z</time>
      </trkpt>
      <trkpt lat="43.72611" lon="6.79405">
        <ele>1025.860494</ele>
        <time>2024-12-06T12:51:10.000Z</time>
      </trkpt>
      <trkpt lat="43.72609" lon="6.79406">
        <ele>1026.013577</ele>
        <time>2024-12-06T12:51:11.000Z</time>
      </trkpt>
      <trkpt lat="43.72606" lon="6.79407">
        <ele>1026.265488</ele>
        <time>2024-12-06T12:51:12.000Z</time>
      </trkpt>
      <trkpt lat="43.72604" lon="6.79408">
        <ele>1026.45832</ele>
        <time>2024-12-06T12:51:13.000Z</time>
      </trkpt>
      <trkpt lat="43.72601" lon="6.79409">
        <ele>1026.652963</ele>
        <time>2024-12-06T12:51:14.000Z</time>
      </trkpt>
      <trkpt lat="43.72599" lon="6.7941">
        <ele>1026.85185</ele>
        <time>2024-12-06T12:51:15.000Z</time>
      </trkpt>
      <trkpt lat="43.72597" lon="6.79411">
        <ele>1027.044682</ele>
        <time>2024-12-06T12:51:16.000Z</time>
      </trkpt>
      <trkpt lat="43.72594" lon="6.79412">
        <ele>1027.235861</ele>
        <time>2024-12-06T12:51:17.000Z</time>
      </trkpt>
      <trkpt lat="43.72592" lon="6.79413">
        <ele>1027.449476</ele>
        <time>2024-12-06T12:51:18.000Z</time>
      </trkpt>
      <trkpt lat="43.72589" lon="6.79415">
        <ele>1027.653587</ele>
        <time>2024-12-06T12:51:19.000Z</time>
      </trkpt>
      <trkpt lat="43.72587" lon="6.79416">
        <ele>1027.855806</ele>
        <time>2024-12-06T12:51:20.000Z</time>
      </trkpt>
      <trkpt lat="43.72585" lon="6.79417">
        <ele>1028.041023</ele>
        <time>2024-12-06T12:51:21.000Z</time>
      </trkpt>
      <trkpt lat="43.72583" lon="6.79417">
        <ele>1028.219347</ele>
        <time>2024-12-06T12:51:22.000Z</time>
      </trkpt>
      <trkpt lat="43.7258" lon="6.79418">
        <ele>1028.398699</ele>
        <time>2024-12-06T12:51:23.000Z</time>
      </trkpt>
      <trkpt lat="43.72578" lon="6.79418">
        <ele>1028.575518</ele>
        <time>2024-12-06T12:51:24.000Z</time>
      </trkpt>
      <trkpt lat="43.72576" lon="6.79419">
        <ele>1028.752997</ele>
        <time>2024-12-06T12:51:25.000Z</time>
      </trkpt>
      <trkpt lat="43.72574" lon="6.79419">
        <ele>1028.922549</ele>
        <time>2024-12-06T12:51:26.000Z</time>
      </trkpt>
      <trkpt lat="43.72572" lon="6.79419">
        <ele>1029.107962</ele>
        <time>2024-12-06T12:51:27.000Z</time>
      </trkpt>
      <trkpt lat="43.72569" lon="6.79419">
        <ele>1029.276029</ele>
        <time>2024-12-06T12:51:28.000Z</time>
      </trkpt>
      <trkpt lat="43.72567" lon="6.79419">
        <ele>1029.46081</ele>
        <time>2024-12-06T12:51:29.000Z</time>
      </trkpt>
      <trkpt lat="43.72565" lon="6.79419">
        <ele>1029.644866</ele>
        <time>2024-12-06T12:51:30.000Z</time>
      </trkpt>
      <trkpt lat="43.72563" lon="6.79419">
        <ele>1029.820928</ele>
        <time>2024-12-06T12:51:31.000Z</time>
      </trkpt>
      <trkpt lat="43.72561" lon="6.79419">
        <ele>1029.981002</ele>
        <time>2024-12-06T12:51:32.000Z</time>
      </trkpt>
      <trkpt lat="43.72559" lon="6.79419">
        <ele>1030.124974</ele>
        <time>2024-12-06T12:51:33.000Z</time>
      </trkpt>
      <trkpt lat="43.72556" lon="6.79419">
        <ele>1030.333256</ele>
        <time>2024-12-06T12:51:34.000Z</time>
      </trkpt>
      <trkpt lat="43.72555" lon="6.79419">
        <ele>1030.469353</ele>
        <time>2024-12-06T12:51:35.000Z</time>
      </trkpt>
      <trkpt lat="43.72552" lon="6.79419">
        <ele>1030.685622</ele>
        <time>2024-12-06T12:51:36.000Z</time>
      </trkpt>
      <trkpt lat="43.7255" lon="6.79418">
        <ele>1030.861683</ele>
        <time>2024-12-06T12:51:37.000Z</time>
      </trkpt>
      <trkpt lat="43.72547" lon="6.79419">
        <ele>1031.046464</ele>
        <time>2024-12-06T12:51:38.000Z</time>
      </trkpt>
      <trkpt lat="43.72545" lon="6.79419">
        <ele>1031.23052</ele>
        <time>2024-12-06T12:51:39.000Z</time>
      </trkpt>
      <trkpt lat="43.72543" lon="6.79419">
        <ele>1031.406487</ele>
        <time>2024-12-06T12:51:40.000Z</time>
      </trkpt>
      <trkpt lat="43.72541" lon="6.79419">
        <ele>1031.566456</ele>
        <time>2024-12-06T12:51:41.000Z</time>
      </trkpt>
      <trkpt lat="43.72539" lon="6.79418">
        <ele>1031.742803</ele>
        <time>2024-12-06T12:51:42.000Z</time>
      </trkpt>
      <trkpt lat="43.72536" lon="6.79418">
        <ele>1031.922154</ele>
        <time>2024-12-06T12:51:43.000Z</time>
      </trkpt>
      <trkpt lat="43.72534" lon="6.79418">
        <ele>1032.098121</ele>
        <time>2024-12-06T12:51:44.000Z</time>
      </trkpt>
      <trkpt lat="43.72532" lon="6.79418">
        <ele>1032.282177</ele>
        <time>2024-12-06T12:51:45.000Z</time>
      </trkpt>
      <trkpt lat="43.7253" lon="6.79418">
        <ele>1032.458996</ele>
        <time>2024-12-06T12:51:46.000Z</time>
      </trkpt>
      <trkpt lat="43.72527" lon="6.79417">
        <ele>1032.643777</ele>
        <time>2024-12-06T12:51:47.000Z</time>
      </trkpt>
      <trkpt lat="43.72525" lon="6.79417">
        <ele>1032.820596</ele>
        <time>2024-12-06T12:51:48.000Z</time>
      </trkpt>
      <trkpt lat="43.72523" lon="6.79417">
        <ele>1033.012647</ele>
        <time>2024-12-06T12:51:49.000Z</time>
      </trkpt>
      <trkpt lat="43.72521" lon="6.79417">
        <ele>1033.189466</ele>
        <time>2024-12-06T12:51:50.000Z</time>
      </trkpt>
      <trkpt lat="43.72518" lon="6.79416">
        <ele>1033.381777</ele>
        <time>2024-12-06T12:51:51.000Z</time>
      </trkpt>
      <trkpt lat="43.72516" lon="6.79416">
        <ele>1033.581739</ele>
        <time>2024-12-06T12:51:52.000Z</time>
      </trkpt>
      <trkpt lat="43.72514" lon="6.79416">
        <ele>1033.73382</ele>
        <time>2024-12-06T12:51:53.000Z</time>
      </trkpt>
      <trkpt lat="43.72512" lon="6.79416">
        <ele>1033.909882</ele>
        <time>2024-12-06T12:51:54.000Z</time>
      </trkpt>
      <trkpt lat="43.72509" lon="6.79416">
        <ele>1034.134138</ele>
        <time>2024-12-06T12:51:55.000Z</time>
      </trkpt>
      <trkpt lat="43.72507" lon="6.79416">
        <ele>1034.318194</ele>
        <time>2024-12-06T12:51:56.000Z</time>
      </trkpt>
      <trkpt lat="43.72504" lon="6.79416">
        <ele>1034.510939</ele>
        <time>2024-12-06T12:51:57.000Z</time>
      </trkpt>
      <trkpt lat="43.72502" lon="6.79415">
        <ele>1034.697161</ele>
        <time>2024-12-06T12:51:58.000Z</time>
      </trkpt>
      <trkpt lat="43.725" lon="6.79415">
        <ele>1034.881489</ele>
        <time>2024-12-06T12:51:59.000Z</time>
      </trkpt>
      <trkpt lat="43.72497" lon="6.79416">
        <ele>1035.067711</ele>
        <time>2024-12-06T12:52:00.000Z</time>
      </trkpt>
      <trkpt lat="43.72495" lon="6.79415">
        <ele>1035.24519</ele>
        <time>2024-12-06T12:52:01.000Z</time>
      </trkpt>
      <trkpt lat="43.72493" lon="6.79415">
        <ele>1035.398147</ele>
        <time>2024-12-06T12:52:02.000Z</time>
      </trkpt>
      <trkpt lat="43.72491" lon="6.79415">
        <ele>1035.558117</ele>
        <time>2024-12-06T12:52:03.000Z</time>
      </trkpt>
      <trkpt lat="43.72489" lon="6.79415">
        <ele>1035.659877</ele>
        <time>2024-12-06T12:52:04.000Z</time>
      </trkpt>
      <trkpt lat="43.72487" lon="6.79415">
        <ele>1035.733015</ele>
        <time>2024-12-06T12:52:05.000Z</time>
      </trkpt>
      <trkpt lat="43.72484" lon="6.79415">
        <ele>1035.81622</ele>
        <time>2024-12-06T12:52:06.000Z</time>
      </trkpt>
      <trkpt lat="43.72482" lon="6.79416">
        <ele>1035.899321</ele>
        <time>2024-12-06T12:52:07.000Z</time>
      </trkpt>
      <trkpt lat="43.72479" lon="6.79416">
        <ele>1035.976081</ele>
        <time>2024-12-06T12:52:08.000Z</time>
      </trkpt>
      <trkpt lat="43.72478" lon="6.79416">
        <ele>1036.039393</ele>
        <time>2024-12-06T12:52:09.000Z</time>
      </trkpt>
      <trkpt lat="43.72476" lon="6.79417">
        <ele>1036.103655</ele>
        <time>2024-12-06T12:52:10.000Z</time>
      </trkpt>
      <trkpt lat="43.72474" lon="6.79417">
        <ele>1036.167195</ele>
        <time>2024-12-06T12:52:11.000Z</time>
      </trkpt>
      <trkpt lat="43.72472" lon="6.79418">
        <ele>1036.242201</ele>
        <time>2024-12-06T12:52:12.000Z</time>
      </trkpt>
      <trkpt lat="43.72469" lon="6.79418">
        <ele>1036.317781</ele>
        <time>2024-12-06T12:52:13.000Z</time>
      </trkpt>
      <trkpt lat="43.72467" lon="6.79419">
        <ele>1036.394722</ele>
        <time>2024-12-06T12:52:14.000Z</time>
      </trkpt>
      <trkpt lat="43.72465" lon="6.79421">
        <ele>1036.470213</ele>
        <time>2024-12-06T12:52:15.000Z</time>
      </trkpt>
      <trkpt lat="43.72463" lon="6.79422">
        <ele>1036.535594</ele>
        <time>2024-12-06T12:52:16.000Z</time>
      </trkpt>
      <trkpt lat="43.72461" lon="6.79423">
        <ele>1036.621229</ele>
        <time>2024-12-06T12:52:17.000Z</time>
      </trkpt>
      <trkpt lat="43.72459" lon="6.79424">
        <ele>1036.694649</ele>
        <time>2024-12-06T12:52:18.000Z</time>
      </trkpt>
      <trkpt lat="43.72457" lon="6.79426">
        <ele>1036.776139</ele>
        <time>2024-12-06T12:52:19.000Z</time>
      </trkpt>
      <trkpt lat="43.72454" lon="6.79427">
        <ele>1036.863639</ele>
        <time>2024-12-06T12:52:20.000Z</time>
      </trkpt>
      <trkpt lat="43.72452" lon="6.79429">
        <ele>1036.954178</ele>
        <time>2024-12-06T12:52:21.000Z</time>
      </trkpt>
      <trkpt lat="43.72449" lon="6.7943">
        <ele>1037.043762</ele>
        <time>2024-12-06T12:52:22.000Z</time>
      </trkpt>
      <trkpt lat="43.72447" lon="6.79432">
        <ele>1037.126342</ele>
        <time>2024-12-06T12:52:23.000Z</time>
      </trkpt>
      <trkpt lat="43.72445" lon="6.79433">
        <ele>1037.197865</ele>
        <time>2024-12-06T12:52:24.000Z</time>
      </trkpt>
      <trkpt lat="43.72443" lon="6.79435">
        <ele>1037.277518</ele>
        <time>2024-12-06T12:52:25.000Z</time>
      </trkpt>
      <trkpt lat="43.72441" lon="6.79437">
        <ele>1037.365315</ele>
        <time>2024-12-06T12:52:26.000Z</time>
      </trkpt>
      <trkpt lat="43.72438" lon="6.79438">
        <ele>1037.458014</ele>
        <time>2024-12-06T12:52:27.000Z</time>
      </trkpt>
      <trkpt lat="43.72436" lon="6.79439">
        <ele>1037.536587</ele>
        <time>2024-12-06T12:52:28.000Z</time>
      </trkpt>
      <trkpt lat="43.72434" lon="6.79441">
        <ele>1037.614311</ele>
        <time>2024-12-06T12:52:29.000Z</time>
      </trkpt>
      <trkpt lat="43.72432" lon="6.79442">
        <ele>1037.688783</ele>
        <time>2024-12-06T12:52:30.000Z</time>
      </trkpt>
      <trkpt lat="43.7243" lon="6.79443">
        <ele>1037.756325</ele>
        <time>2024-12-06T12:52:31.000Z</time>
      </trkpt>
      <trkpt lat="43.72428" lon="6.79444">
        <ele>1037.822057</ele>
        <time>2024-12-06T12:52:32.000Z</time>
      </trkpt>
      <trkpt lat="43.72427" lon="6.79446">
        <ele>1037.878077</ele>
        <time>2024-12-06T12:52:33.000Z</time>
      </trkpt>
      <trkpt lat="43.72424" lon="6.79447">
        <ele>1037.960697</ele>
        <time>2024-12-06T12:52:34.000Z</time>
      </trkpt>
      <trkpt lat="43.72422" lon="6.79448">
        <ele>1038.048619</ele>
        <time>2024-12-06T12:52:35.000Z</time>
      </trkpt>
      <trkpt lat="43.7242" lon="6.79449">
        <ele>1038.116162</ele>
        <time>2024-12-06T12:52:36.000Z</time>
      </trkpt>
      <trkpt lat="43.72418" lon="6.79449">
        <ele>1038.171242</ele>
        <time>2024-12-06T12:52:37.000Z</time>
      </trkpt>
      <trkpt lat="43.72416" lon="6.79451">
        <ele>1038.264838</ele>
        <time>2024-12-06T12:52:38.000Z</time>
      </trkpt>
      <trkpt lat="43.72414" lon="6.79453">
        <ele>1038.353842</ele>
        <time>2024-12-06T12:52:39.000Z</time>
      </trkpt>
      <trkpt lat="43.72412" lon="6.79455">
        <ele>1038.43035</ele>
        <time>2024-12-06T12:52:40.000Z</time>
      </trkpt>
      <trkpt lat="43.72409" lon="6.79457">
        <ele>1038.543877</ele>
        <time>2024-12-06T12:52:41.000Z</time>
      </trkpt>
      <trkpt lat="43.72407" lon="6.79458">
        <ele>1038.618349</ele>
        <time>2024-12-06T12:52:42.000Z</time>
      </trkpt>
      <trkpt lat="43.72404" lon="6.7946">
        <ele>1038.717189</ele>
        <time>2024-12-06T12:52:43.000Z</time>
      </trkpt>
      <trkpt lat="43.72402" lon="6.79461">
        <ele>1038.801939</ele>
        <time>2024-12-06T12:52:44.000Z</time>
      </trkpt>
      <trkpt lat="43.72399" lon="6.79462">
        <ele>1038.878961</ele>
        <time>2024-12-06T12:52:45.000Z</time>
      </trkpt>
      <trkpt lat="43.72397" lon="6.79462">
        <ele>1038.951333</ele>
        <time>2024-12-06T12:52:46.000Z</time>
      </trkpt>
      <trkpt lat="43.72395" lon="6.79464">
        <ele>1039.021759</ele>
        <time>2024-12-06T12:52:47.000Z</time>
      </trkpt>
      <trkpt lat="43.72393" lon="6.79465">
        <ele>1039.091154</ele>
        <time>2024-12-06T12:52:48.000Z</time>
      </trkpt>
      <trkpt lat="43.72391" lon="6.79466">
        <ele>1039.168606</ele>
        <time>2024-12-06T12:52:49.000Z</time>
      </trkpt>
      <trkpt lat="43.72389" lon="6.79468">
        <ele>1039.25931</ele>
        <time>2024-12-06T12:52:50.000Z</time>
      </trkpt>
      <trkpt lat="43.72386" lon="6.7947">
        <ele>1039.353856</ele>
        <time>2024-12-06T12:52:51.000Z</time>
      </trkpt>
      <trkpt lat="43.72384" lon="6.79472">
        <ele>1039.445415</ele>
        <time>2024-12-06T12:52:52.000Z</time>
      </trkpt>
      <trkpt lat="43.72382" lon="6.79473">
        <ele>1039.534153</ele>
        <time>2024-12-06T12:52:53.000Z</time>
      </trkpt>
      <trkpt lat="43.72379" lon="6.79474">
        <ele>1039.609733</ele>
        <time>2024-12-06T12:52:54.000Z</time>
      </trkpt>
      <trkpt lat="43.72377" lon="6.79475">
        <ele>1039.682415</ele>
        <time>2024-12-06T12:52:55.000Z</time>
      </trkpt>
      <trkpt lat="43.72376" lon="6.79477">
        <ele>1039.748386</ele>
        <time>2024-12-06T12:52:56.000Z</time>
      </trkpt>
      <trkpt lat="43.72375" lon="6.79478">
        <ele>1039.803105</ele>
        <time>2024-12-06T12:52:57.000Z</time>
      </trkpt>
      <trkpt lat="43.72374" lon="6.79479">
        <ele>1039.825234</ele>
        <time>2024-12-06T12:53:00.000Z</time>
      </trkpt>
      <trkpt lat="43.72374" lon="6.79479">
        <ele>1039.825234</ele>
        <time>2024-12-06T12:53:11.000Z</time>
      </trkpt>
      <trkpt lat="43.72374" lon="6.79479">
        <ele>1039.825234</ele>
        <time>2024-12-06T12:53:26.000Z</time>
      </trkpt>
      <trkpt lat="43.72374" lon="6.79479">
        <ele>1039.825234</ele>
        <time>2024-12-06T12:53:34.000Z</time>
      </trkpt>
      <trkpt lat="43.72374" lon="6.79479">
        <ele>1039.825234</ele>
        <time>2024-12-06T12:53:42.000Z</time>
      </trkpt>
      <trkpt lat="43.72369" lon="6.79484">
        <ele>1040.048021</ele>
        <time>2024-12-06T12:53:48.000Z</time>
      </trkpt>
      <trkpt lat="43.72366" lon="6.79487">
        <ele>1040.143736</ele>
        <time>2024-12-06T12:53:49.000Z</time>
      </trkpt>
      <trkpt lat="43.7236" lon="6.79494">
        <ele>1040.418082</ele>
        <time>2024-12-06T12:53:52.000Z</time>
      </trkpt>
      <trkpt lat="43.72353" lon="6.79502">
        <ele>1040.707468</ele>
        <time>2024-12-06T12:53:55.000Z</time>
      </trkpt>
      <trkpt lat="43.72339" lon="6.79511">
        <ele>1041.218492</ele>
        <time>2024-12-06T12:54:00.000Z</time>
      </trkpt>
      <trkpt lat="43.72336" lon="6.7951">
        <ele>1041.322497</ele>
        <time>2024-12-06T12:54:01.000Z</time>
      </trkpt>
      <trkpt lat="43.72332" lon="6.79507">
        <ele>1041.475377</ele>
        <time>2024-12-06T12:54:02.000Z</time>
      </trkpt>
      <trkpt lat="43.72328" lon="6.79504">
        <ele>1041.485443</ele>
        <time>2024-12-06T12:54:03.000Z</time>
      </trkpt>
      <trkpt lat="43.72326" lon="6.795">
        <ele>1041.17657</ele>
        <time>2024-12-06T12:54:04.000Z</time>
      </trkpt>
      <trkpt lat="43.72322" lon="6.79494">
        <ele>1040.7806</ele>
        <time>2024-12-06T12:54:05.000Z</time>
      </trkpt>
      <trkpt lat="43.72319" lon="6.79489">
        <ele>1040.41565</ele>
        <time>2024-12-06T12:54:06.000Z</time>
      </trkpt>
      <trkpt lat="43.72316" lon="6.79487">
        <ele>1040.118276</ele>
        <time>2024-12-06T12:54:07.000Z</time>
      </trkpt>
      <trkpt lat="43.72312" lon="6.79488">
        <ele>1039.87112</ele>
        <time>2024-12-06T12:54:08.000Z</time>
      </trkpt>
      <trkpt lat="43.7231" lon="6.79489">
        <ele>1039.658908</ele>
        <time>2024-12-06T12:54:09.000Z</time>
      </trkpt>
      <trkpt lat="43.72309" lon="6.79493">
        <ele>1039.451429</ele>
        <time>2024-12-06T12:54:10.000Z</time>
      </trkpt>
      <trkpt lat="43.72309" lon="6.79496">
        <ele>1039.268393</ele>
        <time>2024-12-06T12:54:11.000Z</time>
      </trkpt>
      <trkpt lat="43.72314" lon="6.79502">
        <ele>1038.723931</ele>
        <time>2024-12-06T12:54:13.000Z</time>
      </trkpt>
      <trkpt lat="43.72323" lon="6.7951">
        <ele>1037.946684</ele>
        <time>2024-12-06T12:54:15.000Z</time>
      </trkpt>
      <trkpt lat="43.72325" lon="6.79514">
        <ele>1037.61367</ele>
        <time>2024-12-06T12:54:16.000Z</time>
      </trkpt>
      <trkpt lat="43.72327" lon="6.7952">
        <ele>1037.297977</ele>
        <time>2024-12-06T12:54:17.000Z</time>
      </trkpt>
      <trkpt lat="43.72326" lon="6.79523">
        <ele>1037.099503</ele>
        <time>2024-12-06T12:54:18.000Z</time>
      </trkpt>
      <trkpt lat="43.72324" lon="6.79524">
        <ele>1036.957464</ele>
        <time>2024-12-06T12:54:19.000Z</time>
      </trkpt>
      <trkpt lat="43.72322" lon="6.79524">
        <ele>1036.771936</ele>
        <time>2024-12-06T12:54:20.000Z</time>
      </trkpt>
      <trkpt lat="43.72317" lon="6.79519">
        <ele>1036.326268</ele>
        <time>2024-12-06T12:54:22.000Z</time>
      </trkpt>
      <trkpt lat="43.72315" lon="6.79515">
        <ele>1036.06796</ele>
        <time>2024-12-06T12:54:23.000Z</time>
      </trkpt>
      <trkpt lat="43.72312" lon="6.79512">
        <ele>1035.75953</ele>
        <time>2024-12-06T12:54:24.000Z</time>
      </trkpt>
      <trkpt lat="43.72308" lon="6.79508">
        <ele>1035.405757</ele>
        <time>2024-12-06T12:54:25.000Z</time>
      </trkpt>
      <trkpt lat="43.72304" lon="6.79506">
        <ele>1035.073312</ele>
        <time>2024-12-06T12:54:26.000Z</time>
      </trkpt>
      <trkpt lat="43.72299" lon="6.79504">
        <ele>1034.66054</ele>
        <time>2024-12-06T12:54:27.000Z</time>
      </trkpt>
      <trkpt lat="43.72294" lon="6.79503">
        <ele>1034.296384</ele>
        <time>2024-12-06T12:54:28.000Z</time>
      </trkpt>
      <trkpt lat="43.7229" lon="6.79502">
        <ele>1033.99091</ele>
        <time>2024-12-06T12:54:29.000Z</time>
      </trkpt>
      <trkpt lat="43.72285" lon="6.795">
        <ele>1033.518932</ele>
        <time>2024-12-06T12:54:30.000Z</time>
      </trkpt>
      <trkpt lat="43.7228" lon="6.79497">
        <ele>1033.125307</ele>
        <time>2024-12-06T12:54:31.000Z</time>
      </trkpt>
      <trkpt lat="43.72275" lon="6.79494">
        <ele>1032.721077</ele>
        <time>2024-12-06T12:54:32.000Z</time>
      </trkpt>
      <trkpt lat="43.72263" lon="6.79488">
        <ele>1031.783553</ele>
        <time>2024-12-06T12:54:34.000Z</time>
      </trkpt>
      <trkpt lat="43.72253" lon="6.79482">
        <ele>1030.87743</ele>
        <time>2024-12-06T12:54:36.000Z</time>
      </trkpt>
      <trkpt lat="43.72247" lon="6.79477">
        <ele>1030.378784</ele>
        <time>2024-12-06T12:54:37.000Z</time>
      </trkpt>
      <trkpt lat="43.72241" lon="6.7947">
        <ele>1029.778421</ele>
        <time>2024-12-06T12:54:38.000Z</time>
      </trkpt>
      <trkpt lat="43.72231" lon="6.7946">
        <ele>1028.800068</ele>
        <time>2024-12-06T12:54:40.000Z</time>
      </trkpt>
      <trkpt lat="43.72225" lon="6.79455">
        <ele>1028.316933</ele>
        <time>2024-12-06T12:54:41.000Z</time>
      </trkpt>
      <trkpt lat="43.72199" lon="6.79431">
        <ele>1026.451244</ele>
        <time>2024-12-06T12:54:46.000Z</time>
      </trkpt>
      <trkpt lat="43.72194" lon="6.79425">
        <ele>1026.106585</ele>
        <time>2024-12-06T12:54:47.000Z</time>
      </trkpt>
      <trkpt lat="43.72189" lon="6.7942">
        <ele>1025.775201</ele>
        <time>2024-12-06T12:54:48.000Z</time>
      </trkpt>
      <trkpt lat="43.72185" lon="6.79417">
        <ele>1025.535555</ele>
        <time>2024-12-06T12:54:49.000Z</time>
      </trkpt>
      <trkpt lat="43.72179" lon="6.79413">
        <ele>1025.214589</ele>
        <time>2024-12-06T12:54:50.000Z</time>
      </trkpt>
      <trkpt lat="43.72176" lon="6.79411">
        <ele>1025.001505</ele>
        <time>2024-12-06T12:54:51.000Z</time>
      </trkpt>
      <trkpt lat="43.72172" lon="6.7941">
        <ele>1024.808417</ele>
        <time>2024-12-06T12:54:52.000Z</time>
      </trkpt>
      <trkpt lat="43.72169" lon="6.79409">
        <ele>1024.61319</ele>
        <time>2024-12-06T12:54:53.000Z</time>
      </trkpt>
      <trkpt lat="43.72165" lon="6.79408">
        <ele>1024.424765</ele>
        <time>2024-12-06T12:54:54.000Z</time>
      </trkpt>
      <trkpt lat="43.72161" lon="6.79407">
        <ele>1024.221709</ele>
        <time>2024-12-06T12:54:55.000Z</time>
      </trkpt>
      <trkpt lat="43.72158" lon="6.79407">
        <ele>1024.012169</ele>
        <time>2024-12-06T12:54:56.000Z</time>
      </trkpt>
      <trkpt lat="43.7215" lon="6.79405">
        <ele>1023.580916</ele>
        <time>2024-12-06T12:54:58.000Z</time>
      </trkpt>
      <trkpt lat="43.72128" lon="6.79399">
        <ele>1022.397361</ele>
        <time>2024-12-06T12:55:03.000Z</time>
      </trkpt>
      <trkpt lat="43.72118" lon="6.79399">
        <ele>1021.85909</ele>
        <time>2024-12-06T12:55:05.000Z</time>
      </trkpt>
      <trkpt lat="43.72106" lon="6.79403">
        <ele>1021.222116</ele>
        <time>2024-12-06T12:55:07.000Z</time>
      </trkpt>
      <trkpt lat="43.72094" lon="6.7941">
        <ele>1020.517239</ele>
        <time>2024-12-06T12:55:09.000Z</time>
      </trkpt>
      <trkpt lat="43.72085" lon="6.79415">
        <ele>1020.012286</ele>
        <time>2024-12-06T12:55:10.000Z</time>
      </trkpt>
      <trkpt lat="43.72078" lon="6.7942">
        <ele>1019.586119</ele>
        <time>2024-12-06T12:55:11.000Z</time>
      </trkpt>
      <trkpt lat="43.72065" lon="6.79427">
        <ele>1018.854842</ele>
        <time>2024-12-06T12:55:13.000Z</time>
      </trkpt>
      <trkpt lat="43.7206" lon="6.79429">
        <ele>1018.571327</ele>
        <time>2024-12-06T12:55:14.000Z</time>
      </trkpt>
      <trkpt lat="43.72055" lon="6.7943">
        <ele>1018.303917</ele>
        <time>2024-12-06T12:55:15.000Z</time>
      </trkpt>
      <trkpt lat="43.7205" lon="6.79428">
        <ele>1017.846228</ele>
        <time>2024-12-06T12:55:16.000Z</time>
      </trkpt>
      <trkpt lat="43.72045" lon="6.79426">
        <ele>1017.203014</ele>
        <time>2024-12-06T12:55:17.000Z</time>
      </trkpt>
      <trkpt lat="43.72039" lon="6.79422">
        <ele>1016.514473</ele>
        <time>2024-12-06T12:55:18.000Z</time>
      </trkpt>
      <trkpt lat="43.72034" lon="6.79418">
        <ele>1015.780319</ele>
        <time>2024-12-06T12:55:19.000Z</time>
      </trkpt>
      <trkpt lat="43.72021" lon="6.79412">
        <ele>1014.281569</ele>
        <time>2024-12-06T12:55:21.000Z</time>
      </trkpt>
      <trkpt lat="43.72013" lon="6.79408">
        <ele>1013.209184</ele>
        <time>2024-12-06T12:55:22.000Z</time>
      </trkpt>
      <trkpt lat="43.72005" lon="6.79405">
        <ele>1012.310043</ele>
        <time>2024-12-06T12:55:23.000Z</time>
      </trkpt>
      <trkpt lat="43.71998" lon="6.79402">
        <ele>1011.443864</ele>
        <time>2024-12-06T12:55:24.000Z</time>
      </trkpt>
      <trkpt lat="43.71991" lon="6.79397">
        <ele>1010.564095</ele>
        <time>2024-12-06T12:55:25.000Z</time>
      </trkpt>
      <trkpt lat="43.71978" lon="6.79388">
        <ele>1008.917821</ele>
        <time>2024-12-06T12:55:27.000Z</time>
      </trkpt>
      <trkpt lat="43.7197" lon="6.79383">
        <ele>1007.888481</ele>
        <time>2024-12-06T12:55:28.000Z</time>
      </trkpt>
      <trkpt lat="43.71963" lon="6.7938">
        <ele>1007.013474</ele>
        <time>2024-12-06T12:55:29.000Z</time>
      </trkpt>
      <trkpt lat="43.71955" lon="6.79379">
        <ele>1006.111969</ele>
        <time>2024-12-06T12:55:30.000Z</time>
      </trkpt>
      <trkpt lat="43.71947" lon="6.79379">
        <ele>1005.169891</ele>
        <time>2024-12-06T12:55:31.000Z</time>
      </trkpt>
      <trkpt lat="43.71938" lon="6.7938">
        <ele>1004.215173</ele>
        <time>2024-12-06T12:55:32.000Z</time>
      </trkpt>
      <trkpt lat="43.7193" lon="6.79379">
        <ele>1003.283803</ele>
        <time>2024-12-06T12:55:33.000Z</time>
      </trkpt>
      <trkpt lat="43.71922" lon="6.79379">
        <ele>1002.317149</ele>
        <time>2024-12-06T12:55:34.000Z</time>
      </trkpt>
      <trkpt lat="43.71904" lon="6.79379">
        <ele>1000.260563</ele>
        <time>2024-12-06T12:55:36.000Z</time>
      </trkpt>
      <trkpt lat="43.71895" lon="6.7938">
        <ele>999.165486</ele>
        <time>2024-12-06T12:55:37.000Z</time>
      </trkpt>
      <trkpt lat="43.71885" lon="6.79382">
        <ele>998.04336</ele>
        <time>2024-12-06T12:55:38.000Z</time>
      </trkpt>
      <trkpt lat="43.71875" lon="6.79384">
        <ele>997.148774</ele>
        <time>2024-12-06T12:55:39.000Z</time>
      </trkpt>
      <trkpt lat="43.71867" lon="6.79387">
        <ele>996.48651</ele>
        <time>2024-12-06T12:55:40.000Z</time>
      </trkpt>
      <trkpt lat="43.71858" lon="6.79391">
        <ele>995.826965</ele>
        <time>2024-12-06T12:55:41.000Z</time>
      </trkpt>
      <trkpt lat="43.71851" lon="6.79396">
        <ele>995.190449</ele>
        <time>2024-12-06T12:55:42.000Z</time>
      </trkpt>
      <trkpt lat="43.71844" lon="6.79401">
        <ele>994.598392</ele>
        <time>2024-12-06T12:55:43.000Z</time>
      </trkpt>
      <trkpt lat="43.71838" lon="6.79407">
        <ele>994.059254</ele>
        <time>2024-12-06T12:55:44.000Z</time>
      </trkpt>
      <trkpt lat="43.71833" lon="6.79414">
        <ele>993.539988</ele>
        <time>2024-12-06T12:55:45.000Z</time>
      </trkpt>
      <trkpt lat="43.71829" lon="6.79419">
        <ele>993.112711</ele>
        <time>2024-12-06T12:55:46.000Z</time>
      </trkpt>
      <trkpt lat="43.71825" lon="6.79424">
        <ele>992.742391</ele>
        <time>2024-12-06T12:55:47.000Z</time>
      </trkpt>
      <trkpt lat="43.71821" lon="6.79428">
        <ele>992.357424</ele>
        <time>2024-12-06T12:55:48.000Z</time>
      </trkpt>
      <trkpt lat="43.71818" lon="6.79432">
        <ele>992.045415</ele>
        <time>2024-12-06T12:55:49.000Z</time>
      </trkpt>
      <trkpt lat="43.71816" lon="6.79435">
        <ele>991.803426</ele>
        <time>2024-12-06T12:55:50.000Z</time>
      </trkpt>
      <trkpt lat="43.71813" lon="6.79438">
        <ele>991.574219</ele>
        <time>2024-12-06T12:55:51.000Z</time>
      </trkpt>
      <trkpt lat="43.7181" lon="6.79441">
        <ele>991.289828</ele>
        <time>2024-12-06T12:55:52.000Z</time>
      </trkpt>
      <trkpt lat="43.71808" lon="6.79445">
        <ele>991.018425</ele>
        <time>2024-12-06T12:55:53.000Z</time>
      </trkpt>
      <trkpt lat="43.71804" lon="6.79449">
        <ele>990.682958</ele>
        <time>2024-12-06T12:55:55.000Z</time>
      </trkpt>
      <trkpt lat="43.71804" lon="6.79449">
        <ele>990.636801</ele>
        <time>2024-12-06T12:55:56.000Z</time>
      </trkpt>
      <trkpt lat="43.71804" lon="6.79449">
        <ele>990.636801</ele>
        <time>2024-12-06T12:55:57.000Z</time>
      </trkpt>
      <trkpt lat="43.71798" lon="6.79454">
        <ele>990.123588</ele>
        <time>2024-12-06T12:56:02.000Z</time>
      </trkpt>
      <trkpt lat="43.71793" lon="6.79457">
        <ele>989.740774</ele>
        <time>2024-12-06T12:56:03.000Z</time>
      </trkpt>
      <trkpt lat="43.71788" lon="6.7946">
        <ele>989.304144</ele>
        <time>2024-12-06T12:56:04.000Z</time>
      </trkpt>
      <trkpt lat="43.71782" lon="6.79462">
        <ele>988.842396</ele>
        <time>2024-12-06T12:56:05.000Z</time>
      </trkpt>
      <trkpt lat="43.71776" lon="6.79463">
        <ele>988.380627</ele>
        <time>2024-12-06T12:56:06.000Z</time>
      </trkpt>
      <trkpt lat="43.71769" lon="6.79464">
        <ele>987.893232</ele>
        <time>2024-12-06T12:56:07.000Z</time>
      </trkpt>
      <trkpt lat="43.71756" lon="6.79464">
        <ele>986.905626</ele>
        <time>2024-12-06T12:56:09.000Z</time>
      </trkpt>
      <trkpt lat="43.71751" lon="6.79463">
        <ele>986.507291</ele>
        <time>2024-12-06T12:56:10.000Z</time>
      </trkpt>
      <trkpt lat="43.71744" lon="6.79462">
        <ele>986.005973</ele>
        <time>2024-12-06T12:56:11.000Z</time>
      </trkpt>
      <trkpt lat="43.71738" lon="6.79459">
        <ele>985.499289</ele>
        <time>2024-12-06T12:56:12.000Z</time>
      </trkpt>
      <trkpt lat="43.71723" lon="6.79453">
        <ele>984.381285</ele>
        <time>2024-12-06T12:56:14.000Z</time>
      </trkpt>
      <trkpt lat="43.71718" lon="6.79451">
        <ele>984.011231</ele>
        <time>2024-12-06T12:56:15.000Z</time>
      </trkpt>
      <trkpt lat="43.7171" lon="6.79447">
        <ele>983.639647</ele>
        <time>2024-12-06T12:56:16.000Z</time>
      </trkpt>
      <trkpt lat="43.71682" lon="6.79426">
        <ele>982.220501</ele>
        <time>2024-12-06T12:56:21.000Z</time>
      </trkpt>
      <trkpt lat="43.71677" lon="6.79422">
        <ele>981.958638</ele>
        <time>2024-12-06T12:56:22.000Z</time>
      </trkpt>
      <trkpt lat="43.71672" lon="6.79418">
        <ele>981.69383</ele>
        <time>2024-12-06T12:56:23.000Z</time>
      </trkpt>
      <trkpt lat="43.71662" lon="6.79409">
        <ele>981.197039</ele>
        <time>2024-12-06T12:56:25.000Z</time>
      </trkpt>
      <trkpt lat="43.71658" lon="6.79405">
        <ele>980.965052</ele>
        <time>2024-12-06T12:56:26.000Z</time>
      </trkpt>
      <trkpt lat="43.71653" lon="6.79402">
        <ele>980.731989</ele>
        <time>2024-12-06T12:56:27.000Z</time>
      </trkpt>
      <trkpt lat="43.71649" lon="6.79398">
        <ele>980.491109</ele>
        <time>2024-12-06T12:56:28.000Z</time>
      </trkpt>
      <trkpt lat="43.71644" lon="6.79396">
        <ele>980.290574</ele>
        <time>2024-12-06T12:56:29.000Z</time>
      </trkpt>
      <trkpt lat="43.71639" lon="6.79394">
        <ele>980.037774</ele>
        <time>2024-12-06T12:56:30.000Z</time>
      </trkpt>
      <trkpt lat="43.71626" lon="6.7939">
        <ele>979.438542</ele>
        <time>2024-12-06T12:56:32.000Z</time>
      </trkpt>
      <trkpt lat="43.71619" lon="6.79388">
        <ele>979.127394</ele>
        <time>2024-12-06T12:56:33.000Z</time>
      </trkpt>
      <trkpt lat="43.71612" lon="6.79385">
        <ele>978.818467</ele>
        <time>2024-12-06T12:56:34.000Z</time>
      </trkpt>
      <trkpt lat="43.71601" lon="6.79379">
        <ele>978.268669</ele>
        <time>2024-12-06T12:56:36.000Z</time>
      </trkpt>
      <trkpt lat="43.71593" lon="6.79375">
        <ele>977.924586</ele>
        <time>2024-12-06T12:56:37.000Z</time>
      </trkpt>
      <trkpt lat="43.71588" lon="6.79372">
        <ele>977.64773</ele>
        <time>2024-12-06T12:56:38.000Z</time>
      </trkpt>
      <trkpt lat="43.71583" lon="6.79369">
        <ele>977.42832</ele>
        <time>2024-12-06T12:56:39.000Z</time>
      </trkpt>
      <trkpt lat="43.71576" lon="6.79365">
        <ele>977.094936</ele>
        <time>2024-12-06T12:56:40.000Z</time>
      </trkpt>
      <trkpt lat="43.71566" lon="6.79357">
        <ele>976.551901</ele>
        <time>2024-12-06T12:56:42.000Z</time>
      </trkpt>
      <trkpt lat="43.71561" lon="6.79353">
        <ele>976.332557</ele>
        <time>2024-12-06T12:56:43.000Z</time>
      </trkpt>
      <trkpt lat="43.71555" lon="6.79348">
        <ele>975.975262</ele>
        <time>2024-12-06T12:56:44.000Z</time>
      </trkpt>
      <trkpt lat="43.71545" lon="6.79341">
        <ele>975.170559</ele>
        <time>2024-12-06T12:56:46.000Z</time>
      </trkpt>
      <trkpt lat="43.71539" lon="6.79339">
        <ele>974.747784</ele>
        <time>2024-12-06T12:56:47.000Z</time>
      </trkpt>
      <trkpt lat="43.71519" lon="6.79332">
        <ele>973.354647</ele>
        <time>2024-12-06T12:56:50.000Z</time>
      </trkpt>
      <trkpt lat="43.71505" lon="6.79327">
        <ele>972.341606</ele>
        <time>2024-12-06T12:56:52.000Z</time>
      </trkpt>
      <trkpt lat="43.71492" lon="6.79321">
        <ele>971.42528</ele>
        <time>2024-12-06T12:56:54.000Z</time>
      </trkpt>
      <trkpt lat="43.71486" lon="6.79317">
        <ele>970.941802</ele>
        <time>2024-12-06T12:56:55.000Z</time>
      </trkpt>
      <trkpt lat="43.71473" lon="6.79307">
        <ele>969.959842</ele>
        <time>2024-12-06T12:56:57.000Z</time>
      </trkpt>
      <trkpt lat="43.71454" lon="6.79291">
        <ele>968.43972</ele>
        <time>2024-12-06T12:57:00.000Z</time>
      </trkpt>
      <trkpt lat="43.71447" lon="6.79287">
        <ele>967.919163</ele>
        <time>2024-12-06T12:57:01.000Z</time>
      </trkpt>
      <trkpt lat="43.71433" lon="6.79279">
        <ele>966.8731</ele>
        <time>2024-12-06T12:57:03.000Z</time>
      </trkpt>
      <trkpt lat="43.71418" lon="6.79272">
        <ele>965.785089</ele>
        <time>2024-12-06T12:57:05.000Z</time>
      </trkpt>
      <trkpt lat="43.71402" lon="6.79264">
        <ele>964.645185</ele>
        <time>2024-12-06T12:57:07.000Z</time>
      </trkpt>
      <trkpt lat="43.71385" lon="6.79257">
        <ele>963.169757</ele>
        <time>2024-12-06T12:57:09.000Z</time>
      </trkpt>
      <trkpt lat="43.71376" lon="6.79253">
        <ele>962.10476</ele>
        <time>2024-12-06T12:57:10.000Z</time>
      </trkpt>
      <trkpt lat="43.71366" lon="6.79248">
        <ele>960.984717</ele>
        <time>2024-12-06T12:57:11.000Z</time>
      </trkpt>
      <trkpt lat="43.71357" lon="6.79244">
        <ele>959.848759</ele>
        <time>2024-12-06T12:57:12.000Z</time>
      </trkpt>
      <trkpt lat="43.71347" lon="6.7924">
        <ele>958.767564</ele>
        <time>2024-12-06T12:57:13.000Z</time>
      </trkpt>
      <trkpt lat="43.71337" lon="6.79238">
        <ele>957.606541</ele>
        <time>2024-12-06T12:57:14.000Z</time>
      </trkpt>
      <trkpt lat="43.7133" lon="6.79237">
        <ele>956.770968</ele>
        <time>2024-12-06T12:57:15.000Z</time>
      </trkpt>
      <trkpt lat="43.71322" lon="6.79238">
        <ele>955.947335</ele>
        <time>2024-12-06T12:57:16.000Z</time>
      </trkpt>
      <trkpt lat="43.71315" lon="6.79238">
        <ele>955.133555</ele>
        <time>2024-12-06T12:57:17.000Z</time>
      </trkpt>
      <trkpt lat="43.71309" lon="6.79239">
        <ele>954.442444</ele>
        <time>2024-12-06T12:57:18.000Z</time>
      </trkpt>
      <trkpt lat="43.71305" lon="6.79239">
        <ele>954.007259</ele>
        <time>2024-12-06T12:57:19.000Z</time>
      </trkpt>
      <trkpt lat="43.71301" lon="6.79239">
        <ele>953.538775</ele>
        <time>2024-12-06T12:57:20.000Z</time>
      </trkpt>
      <trkpt lat="43.71297" lon="6.7924">
        <ele>953.192308</ele>
        <time>2024-12-06T12:57:21.000Z</time>
      </trkpt>
      <trkpt lat="43.71296" lon="6.7924">
        <ele>953.000415</ele>
        <time>2024-12-06T12:57:22.000Z</time>
      </trkpt>
      <trkpt lat="43.71296" lon="6.7924">
        <ele>953.000415</ele>
        <time>2024-12-06T12:57:23.000Z</time>
      </trkpt>
      <trkpt lat="43.71292" lon="6.7924">
        <ele>952.585858</ele>
        <time>2024-12-06T12:57:27.000Z</time>
      </trkpt>
      <trkpt lat="43.7129" lon="6.79239">
        <ele>952.350926</ele>
        <time>2024-12-06T12:57:28.000Z</time>
      </trkpt>
      <trkpt lat="43.71285" lon="6.79238">
        <ele>951.756331</ele>
        <time>2024-12-06T12:57:30.000Z</time>
      </trkpt>
      <trkpt lat="43.71277" lon="6.79235">
        <ele>950.856269</ele>
        <time>2024-12-06T12:57:33.000Z</time>
      </trkpt>
      <trkpt lat="43.71274" lon="6.79234">
        <ele>950.514669</ele>
        <time>2024-12-06T12:57:34.000Z</time>
      </trkpt>
      <trkpt lat="43.71265" lon="6.7923">
        <ele>949.420506</ele>
        <time>2024-12-06T12:57:37.000Z</time>
      </trkpt>
      <trkpt lat="43.71258" lon="6.79225">
        <ele>948.645746</ele>
        <time>2024-12-06T12:57:39.000Z</time>
      </trkpt>
      <trkpt lat="43.71255" lon="6.79223">
        <ele>948.213441</ele>
        <time>2024-12-06T12:57:40.000Z</time>
      </trkpt>
      <trkpt lat="43.71251" lon="6.7922">
        <ele>947.767502</ele>
        <time>2024-12-06T12:57:41.000Z</time>
      </trkpt>
      <trkpt lat="43.71247" lon="6.79217">
        <ele>947.253318</ele>
        <time>2024-12-06T12:57:42.000Z</time>
      </trkpt>
      <trkpt lat="43.71233" lon="6.79209">
        <ele>945.529486</ele>
        <time>2024-12-06T12:57:45.000Z</time>
      </trkpt>
      <trkpt lat="43.71228" lon="6.79209">
        <ele>944.949431</ele>
        <time>2024-12-06T12:57:46.000Z</time>
      </trkpt>
      <trkpt lat="43.71223" lon="6.7921">
        <ele>944.3614</ele>
        <time>2024-12-06T12:57:47.000Z</time>
      </trkpt>
      <trkpt lat="43.71218" lon="6.79211">
        <ele>943.790307</ele>
        <time>2024-12-06T12:57:48.000Z</time>
      </trkpt>
      <trkpt lat="43.71213" lon="6.79214">
        <ele>943.100716</ele>
        <time>2024-12-06T12:57:49.000Z</time>
      </trkpt>
      <trkpt lat="43.71206" lon="6.79218">
        <ele>942.169362</ele>
        <time>2024-12-06T12:57:50.000Z</time>
      </trkpt>
      <trkpt lat="43.712" lon="6.79222">
        <ele>941.285498</ele>
        <time>2024-12-06T12:57:51.000Z</time>
      </trkpt>
      <trkpt lat="43.71194" lon="6.79226">
        <ele>940.519072</ele>
        <time>2024-12-06T12:57:52.000Z</time>
      </trkpt>
      <trkpt lat="43.71187" lon="6.7923">
        <ele>939.506907</ele>
        <time>2024-12-06T12:57:53.000Z</time>
      </trkpt>
      <trkpt lat="43.71179" lon="6.79234">
        <ele>938.430135</ele>
        <time>2024-12-06T12:57:54.000Z</time>
      </trkpt>
      <trkpt lat="43.71169" lon="6.79237">
        <ele>937.056655</ele>
        <time>2024-12-06T12:57:55.000Z</time>
      </trkpt>
      <trkpt lat="43.7116" lon="6.79239">
        <ele>935.84158</ele>
        <time>2024-12-06T12:57:56.000Z</time>
      </trkpt>
      <trkpt lat="43.71152" lon="6.79241">
        <ele>934.809973</ele>
        <time>2024-12-06T12:57:57.000Z</time>
      </trkpt>
      <trkpt lat="43.71142" lon="6.79245">
        <ele>933.513397</ele>
        <time>2024-12-06T12:57:58.000Z</time>
      </trkpt>
      <trkpt lat="43.71122" lon="6.79252">
        <ele>930.757799</ele>
        <time>2024-12-06T12:58:00.000Z</time>
      </trkpt>
      <trkpt lat="43.71113" lon="6.79254">
        <ele>929.624724</ele>
        <time>2024-12-06T12:58:01.000Z</time>
      </trkpt>
      <trkpt lat="43.71104" lon="6.79255">
        <ele>928.455477</ele>
        <time>2024-12-06T12:58:02.000Z</time>
      </trkpt>
      <trkpt lat="43.71085" lon="6.79258">
        <ele>926.062436</ele>
        <time>2024-12-06T12:58:04.000Z</time>
      </trkpt>
      <trkpt lat="43.71077" lon="6.7926">
        <ele>924.92675</ele>
        <time>2024-12-06T12:58:05.000Z</time>
      </trkpt>
      <trkpt lat="43.71068" lon="6.79262">
        <ele>923.844845</ele>
        <time>2024-12-06T12:58:06.000Z</time>
      </trkpt>
      <trkpt lat="43.71062" lon="6.79262">
        <ele>922.97664</ele>
        <time>2024-12-06T12:58:07.000Z</time>
      </trkpt>
      <trkpt lat="43.71051" lon="6.79263">
        <ele>921.608024</ele>
        <time>2024-12-06T12:58:08.000Z</time>
      </trkpt>
      <trkpt lat="43.71032" lon="6.79261">
        <ele>919.498719</ele>
        <time>2024-12-06T12:58:10.000Z</time>
      </trkpt>
      <trkpt lat="43.71023" lon="6.7926">
        <ele>918.534505</ele>
        <time>2024-12-06T12:58:11.000Z</time>
      </trkpt>
      <trkpt lat="43.71013" lon="6.7926">
        <ele>917.621468</ele>
        <time>2024-12-06T12:58:12.000Z</time>
      </trkpt>
      <trkpt lat="43.71005" lon="6.79261">
        <ele>916.813919</ele>
        <time>2024-12-06T12:58:13.000Z</time>
      </trkpt>
      <trkpt lat="43.70999" lon="6.79261">
        <ele>916.18365</ele>
        <time>2024-12-06T12:58:14.000Z</time>
      </trkpt>
      <trkpt lat="43.70989" lon="6.79262">
        <ele>915.221318</ele>
        <time>2024-12-06T12:58:15.000Z</time>
      </trkpt>
      <trkpt lat="43.70982" lon="6.79261">
        <ele>914.53396</ele>
        <time>2024-12-06T12:58:16.000Z</time>
      </trkpt>
      <trkpt lat="43.70971" lon="6.79262">
        <ele>913.482334</ele>
        <time>2024-12-06T12:58:17.000Z</time>
      </trkpt>
      <trkpt lat="43.70952" lon="6.79266">
        <ele>911.599631</ele>
        <time>2024-12-06T12:58:19.000Z</time>
      </trkpt>
      <trkpt lat="43.70935" lon="6.7927">
        <ele>909.88495</ele>
        <time>2024-12-06T12:58:21.000Z</time>
      </trkpt>
      <trkpt lat="43.70923" lon="6.79272">
        <ele>908.73549</ele>
        <time>2024-12-06T12:58:22.000Z</time>
      </trkpt>
      <trkpt lat="43.70913" lon="6.79274">
        <ele>907.746374</ele>
        <time>2024-12-06T12:58:23.000Z</time>
      </trkpt>
      <trkpt lat="43.70903" lon="6.79275">
        <ele>906.773192</ele>
        <time>2024-12-06T12:58:24.000Z</time>
      </trkpt>
      <trkpt lat="43.70885" lon="6.79272">
        <ele>904.919696</ele>
        <time>2024-12-06T12:58:26.000Z</time>
      </trkpt>
      <trkpt lat="43.70867" lon="6.79271">
        <ele>903.151882</ele>
        <time>2024-12-06T12:58:28.000Z</time>
      </trkpt>
      <trkpt lat="43.70858" lon="6.79272">
        <ele>902.314474</ele>
        <time>2024-12-06T12:58:29.000Z</time>
      </trkpt>
      <trkpt lat="43.70849" lon="6.79273">
        <ele>901.493974</ele>
        <time>2024-12-06T12:58:30.000Z</time>
      </trkpt>
      <trkpt lat="43.70839" lon="6.79275">
        <ele>900.651257</ele>
        <time>2024-12-06T12:58:31.000Z</time>
      </trkpt>
      <trkpt lat="43.70821" lon="6.79278">
        <ele>898.944206</ele>
        <time>2024-12-06T12:58:33.000Z</time>
      </trkpt>
      <trkpt lat="43.70802" lon="6.7928">
        <ele>897.26531</ele>
        <time>2024-12-06T12:58:35.000Z</time>
      </trkpt>
      <trkpt lat="43.70794" lon="6.79282">
        <ele>896.507309</ele>
        <time>2024-12-06T12:58:36.000Z</time>
      </trkpt>
      <trkpt lat="43.70787" lon="6.79286">
        <ele>895.802928</ele>
        <time>2024-12-06T12:58:37.000Z</time>
      </trkpt>
      <trkpt lat="43.70779" lon="6.79289">
        <ele>895.102418</ele>
        <time>2024-12-06T12:58:38.000Z</time>
      </trkpt>
      <trkpt lat="43.70772" lon="6.79292">
        <ele>894.395117</ele>
        <time>2024-12-06T12:58:39.000Z</time>
      </trkpt>
      <trkpt lat="43.70764" lon="6.79296">
        <ele>893.673736</ele>
        <time>2024-12-06T12:58:40.000Z</time>
      </trkpt>
      <trkpt lat="43.70756" lon="6.79301">
        <ele>892.886318</ele>
        <time>2024-12-06T12:58:41.000Z</time>
      </trkpt>
      <trkpt lat="43.70749" lon="6.79306">
        <ele>892.112281</ele>
        <time>2024-12-06T12:58:42.000Z</time>
      </trkpt>
      <trkpt lat="43.70742" lon="6.79312">
        <ele>891.339642</ele>
        <time>2024-12-06T12:58:43.000Z</time>
      </trkpt>
      <trkpt lat="43.70735" lon="6.79318">
        <ele>890.668823</ele>
        <time>2024-12-06T12:58:44.000Z</time>
      </trkpt>
      <trkpt lat="43.7073" lon="6.79323">
        <ele>890.057804</ele>
        <time>2024-12-06T12:58:45.000Z</time>
      </trkpt>
      <trkpt lat="43.70725" lon="6.79329">
        <ele>889.464785</ele>
        <time>2024-12-06T12:58:46.000Z</time>
      </trkpt>
      <trkpt lat="43.70719" lon="6.79334">
        <ele>888.876123</ele>
        <time>2024-12-06T12:58:47.000Z</time>
      </trkpt>
      <trkpt lat="43.70713" lon="6.79338">
        <ele>888.263934</ele>
        <time>2024-12-06T12:58:48.000Z</time>
      </trkpt>
      <trkpt lat="43.70706" lon="6.79342">
        <ele>887.580263</ele>
        <time>2024-12-06T12:58:49.000Z</time>
      </trkpt>
      <trkpt lat="43.70699" lon="6.79346">
        <ele>886.863996</ele>
        <time>2024-12-06T12:58:50.000Z</time>
      </trkpt>
      <trkpt lat="43.70694" lon="6.7935">
        <ele>886.169248</ele>
        <time>2024-12-06T12:58:51.000Z</time>
      </trkpt>
      <trkpt lat="43.70688" lon="6.79354">
        <ele>885.062821</ele>
        <time>2024-12-06T12:58:52.000Z</time>
      </trkpt>
      <trkpt lat="43.70684" lon="6.79355">
        <ele>884.443787</ele>
        <time>2024-12-06T12:58:53.000Z</time>
      </trkpt>
      <trkpt lat="43.70679" lon="6.79356">
        <ele>883.606135</ele>
        <time>2024-12-06T12:58:54.000Z</time>
      </trkpt>
      <trkpt lat="43.70675" lon="6.79357">
        <ele>882.942296</ele>
        <time>2024-12-06T12:58:55.000Z</time>
      </trkpt>
      <trkpt lat="43.70672" lon="6.79357">
        <ele>882.413278</ele>
        <time>2024-12-06T12:58:56.000Z</time>
      </trkpt>
      <trkpt lat="43.70668" lon="6.79355">
        <ele>881.717962</ele>
        <time>2024-12-06T12:58:57.000Z</time>
      </trkpt>
      <trkpt lat="43.70664" lon="6.79352">
        <ele>880.904966</ele>
        <time>2024-12-06T12:58:58.000Z</time>
      </trkpt>
      <trkpt lat="43.7066" lon="6.79348">
        <ele>880.170095</ele>
        <time>2024-12-06T12:58:59.000Z</time>
      </trkpt>
      <trkpt lat="43.70657" lon="6.79343">
        <ele>879.346526</ele>
        <time>2024-12-06T12:59:00.000Z</time>
      </trkpt>
      <trkpt lat="43.70654" lon="6.79338">
        <ele>878.613443</ele>
        <time>2024-12-06T12:59:01.000Z</time>
      </trkpt>
      <trkpt lat="43.70652" lon="6.79331">
        <ele>877.637463</ele>
        <time>2024-12-06T12:59:02.000Z</time>
      </trkpt>
      <trkpt lat="43.70649" lon="6.79321">
        <ele>876.378078</ele>
        <time>2024-12-06T12:59:03.000Z</time>
      </trkpt>
      <trkpt lat="43.70648" lon="6.79314">
        <ele>875.505447</ele>
        <time>2024-12-06T12:59:04.000Z</time>
      </trkpt>
      <trkpt lat="43.70647" lon="6.79304">
        <ele>874.396587</ele>
        <time>2024-12-06T12:59:05.000Z</time>
      </trkpt>
      <trkpt lat="43.70648" lon="6.79294">
        <ele>873.161739</ele>
        <time>2024-12-06T12:59:06.000Z</time>
      </trkpt>
      <trkpt lat="43.7065" lon="6.79288">
        <ele>872.45035</ele>
        <time>2024-12-06T12:59:07.000Z</time>
      </trkpt>
      <trkpt lat="43.70651" lon="6.79281">
        <ele>871.558515</ele>
        <time>2024-12-06T12:59:08.000Z</time>
      </trkpt>
      <trkpt lat="43.70651" lon="6.79276">
        <ele>870.96136</ele>
        <time>2024-12-06T12:59:09.000Z</time>
      </trkpt>
      <trkpt lat="43.70651" lon="6.79272">
        <ele>870.445347</ele>
        <time>2024-12-06T12:59:10.000Z</time>
      </trkpt>
      <trkpt lat="43.7065" lon="6.79269">
        <ele>870.019461</ele>
        <time>2024-12-06T12:59:11.000Z</time>
      </trkpt>
      <trkpt lat="43.70649" lon="6.79266">
        <ele>869.652405</ele>
        <time>2024-12-06T12:59:12.000Z</time>
      </trkpt>
      <trkpt lat="43.70647" lon="6.79265">
        <ele>869.427658</ele>
        <time>2024-12-06T12:59:13.000Z</time>
      </trkpt>
      <trkpt lat="43.70646" lon="6.79265">
        <ele>869.178119</ele>
        <time>2024-12-06T12:59:14.000Z</time>
      </trkpt>
      <trkpt lat="43.70645" lon="6.79265">
        <ele>869.057461</ele>
        <time>2024-12-06T12:59:15.000Z</time>
      </trkpt>
      <trkpt lat="43.70645" lon="6.79265">
        <ele>869.057461</ele>
        <time>2024-12-06T12:59:26.000Z</time>
      </trkpt>
      <trkpt lat="43.70645" lon="6.79265">
        <ele>869.057461</ele>
        <time>2024-12-06T12:59:30.000Z</time>
      </trkpt>
      <trkpt lat="43.70645" lon="6.79265">
        <ele>869.057461</ele>
        <time>2024-12-06T12:59:31.000Z</time>
      </trkpt>
      <trkpt lat="43.70645" lon="6.79265">
        <ele>869.057461</ele>
        <time>2024-12-06T12:59:39.000Z</time>
      </trkpt>
      <trkpt lat="43.70645" lon="6.79265">
        <ele>869.057461</ele>
        <time>2024-12-06T12:59:43.000Z</time>
      </trkpt>
      <trkpt lat="43.70645" lon="6.79265">
        <ele>869.057461</ele>
        <time>2024-12-06T12:59:47.000Z</time>
      </trkpt>
      <trkpt lat="43.70645" lon="6.79265">
        <ele>869.057461</ele>
        <time>2024-12-06T12:59:54.000Z</time>
      </trkpt>
      <trkpt lat="43.70645" lon="6.79265">
        <ele>869.057461</ele>
        <time>2024-12-06T12:59:57.000Z</time>
      </trkpt>
      <trkpt lat="43.70645" lon="6.79265">
        <ele>869.057461</ele>
        <time>2024-12-06T13:00:00.000Z</time>
      </trkpt>
      <trkpt lat="43.70645" lon="6.79265">
        <ele>869.057461</ele>
        <time>2024-12-06T13:00:02.000Z</time>
      </trkpt>
      <trkpt lat="43.70645" lon="6.79265">
        <ele>869.057461</ele>
        <time>2024-12-06T13:00:05.000Z</time>
      </trkpt>
      <trkpt lat="43.70645" lon="6.79265">
        <ele>869.057461</ele>
        <time>2024-12-06T13:00:17.000Z</time>
      </trkpt>
      <trkpt lat="43.70645" lon="6.79265">
        <ele>869.057461</ele>
        <time>2024-12-06T13:00:19.000Z</time>
      </trkpt>
      <trkpt lat="43.70645" lon="6.79265">
        <ele>869.057461</ele>
        <time>2024-12-06T13:00:22.000Z</time>
      </trkpt>
      <trkpt lat="43.70645" lon="6.79265">
        <ele>869.057461</ele>
        <time>2024-12-06T13:00:27.000Z</time>
      </trkpt>
      <trkpt lat="43.70645" lon="6.79265">
        <ele>869.057461</ele>
        <time>2024-12-06T13:00:38.000Z</time>
      </trkpt>
      <trkpt lat="43.70645" lon="6.79265">
        <ele>869.057461</ele>
        <time>2024-12-06T13:00:56.000Z</time>
      </trkpt>
      <trkpt lat="43.70645" lon="6.79265">
        <ele>869.057461</ele>
        <time>2024-12-06T13:01:09.000Z</time>
      </trkpt>
      <trkpt lat="43.70645" lon="6.79265">
        <ele>869.057461</ele>
        <time>2024-12-06T13:01:15.000Z</time>
      </trkpt>
      <trkpt lat="43.70645" lon="6.79265">
        <ele>869.057461</ele>
        <time>2024-12-06T13:01:19.000Z</time>
      </trkpt>
      <trkpt lat="43.70645" lon="6.79265">
        <ele>869.057461</ele>
        <time>2024-12-06T13:01:27.000Z</time>
      </trkpt>
      <trkpt lat="43.70645" lon="6.79265">
        <ele>869.057461</ele>
        <time>2024-12-06T13:01:33.000Z</time>
      </trkpt>
      <trkpt lat="43.70645" lon="6.79265">
        <ele>869.057461</ele>
        <time>2024-12-06T13:01:44.000Z</time>
      </trkpt>
      <trkpt lat="43.70644" lon="6.79267">
        <ele>868.752717</ele>
        <time>2024-12-06T13:01:48.000Z</time>
      </trkpt>
      <trkpt lat="43.70642" lon="6.79269">
        <ele>868.421359</ele>
        <time>2024-12-06T13:01:49.000Z</time>
      </trkpt>
      <trkpt lat="43.70641" lon="6.79271">
        <ele>868.08313</ele>
        <time>2024-12-06T13:01:50.000Z</time>
      </trkpt>
      <trkpt lat="43.7064" lon="6.79274">
        <ele>867.722048</ele>
        <time>2024-12-06T13:01:51.000Z</time>
      </trkpt>
      <trkpt lat="43.70639" lon="6.79277">
        <ele>867.3637</ele>
        <time>2024-12-06T13:01:52.000Z</time>
      </trkpt>
      <trkpt lat="43.70639" lon="6.7928">
        <ele>866.896963</ele>
        <time>2024-12-06T13:01:53.000Z</time>
      </trkpt>
      <trkpt lat="43.70638" lon="6.79285">
        <ele>866.322261</ele>
        <time>2024-12-06T13:01:54.000Z</time>
      </trkpt>
      <trkpt lat="43.70636" lon="6.79296">
        <ele>864.963835</ele>
        <time>2024-12-06T13:01:56.000Z</time>
      </trkpt>
      <trkpt lat="43.70634" lon="6.79302">
        <ele>864.169066</ele>
        <time>2024-12-06T13:01:57.000Z</time>
      </trkpt>
      <trkpt lat="43.70632" lon="6.79311">
        <ele>863.12628</ele>
        <time>2024-12-06T13:01:58.000Z</time>
      </trkpt>
      <trkpt lat="43.70631" lon="6.79317">
        <ele>862.339332</ele>
        <time>2024-12-06T13:01:59.000Z</time>
      </trkpt>
      <trkpt lat="43.7063" lon="6.79325">
        <ele>861.340155</ele>
        <time>2024-12-06T13:02:00.000Z</time>
      </trkpt>
      <trkpt lat="43.70627" lon="6.79342">
        <ele>859.268077</ele>
        <time>2024-12-06T13:02:02.000Z</time>
      </trkpt>
      <trkpt lat="43.70622" lon="6.79358">
        <ele>857.242053</ele>
        <time>2024-12-06T13:02:04.000Z</time>
      </trkpt>
      <trkpt lat="43.70621" lon="6.79363">
        <ele>856.770368</ele>
        <time>2024-12-06T13:02:05.000Z</time>
      </trkpt>
      <trkpt lat="43.70619" lon="6.79368">
        <ele>856.33126</ele>
        <time>2024-12-06T13:02:06.000Z</time>
      </trkpt>
      <trkpt lat="43.70616" lon="6.79372">
        <ele>855.874372</ele>
        <time>2024-12-06T13:02:07.000Z</time>
      </trkpt>
      <trkpt lat="43.70612" lon="6.79376">
        <ele>855.438238</ele>
        <time>2024-12-06T13:02:08.000Z</time>
      </trkpt>
      <trkpt lat="43.70609" lon="6.79379">
        <ele>855.002867</ele>
        <time>2024-12-06T13:02:09.000Z</time>
      </trkpt>
      <trkpt lat="43.70606" lon="6.79383">
        <ele>854.595604</ele>
        <time>2024-12-06T13:02:10.000Z</time>
      </trkpt>
      <trkpt lat="43.70604" lon="6.79388">
        <ele>854.151012</ele>
        <time>2024-12-06T13:02:11.000Z</time>
      </trkpt>
      <trkpt lat="43.70602" lon="6.79394">
        <ele>853.619377</ele>
        <time>2024-12-06T13:02:12.000Z</time>
      </trkpt>
      <trkpt lat="43.706" lon="6.79402">
        <ele>852.97943</ele>
        <time>2024-12-06T13:02:13.000Z</time>
      </trkpt>
      <trkpt lat="43.706" lon="6.79408">
        <ele>852.5517</ele>
        <time>2024-12-06T13:02:14.000Z</time>
      </trkpt>
      <trkpt lat="43.70602" lon="6.79415">
        <ele>852.025725</ele>
        <time>2024-12-06T13:02:15.000Z</time>
      </trkpt>
      <trkpt lat="43.70605" lon="6.79421">
        <ele>851.448138</ele>
        <time>2024-12-06T13:02:16.000Z</time>
      </trkpt>
      <trkpt lat="43.70614" lon="6.79432">
        <ele>850.19597</ele>
        <time>2024-12-06T13:02:18.000Z</time>
      </trkpt>
      <trkpt lat="43.7062" lon="6.79437">
        <ele>849.500376</ele>
        <time>2024-12-06T13:02:19.000Z</time>
      </trkpt>
      <trkpt lat="43.70627" lon="6.79442">
        <ele>848.613734</ele>
        <time>2024-12-06T13:02:20.000Z</time>
      </trkpt>
      <trkpt lat="43.70635" lon="6.79445">
        <ele>847.855254</ele>
        <time>2024-12-06T13:02:21.000Z</time>
      </trkpt>
      <trkpt lat="43.70642" lon="6.79447">
        <ele>847.082983</ele>
        <time>2024-12-06T13:02:22.000Z</time>
      </trkpt>
      <trkpt lat="43.70658" lon="6.79452">
        <ele>845.351973</ele>
        <time>2024-12-06T13:02:24.000Z</time>
      </trkpt>
      <trkpt lat="43.70666" lon="6.79454">
        <ele>844.496762</ele>
        <time>2024-12-06T13:02:25.000Z</time>
      </trkpt>
      <trkpt lat="43.70675" lon="6.79454">
        <ele>843.635431</ele>
        <time>2024-12-06T13:02:26.000Z</time>
      </trkpt>
      <trkpt lat="43.70683" lon="6.79452">
        <ele>842.758284</ele>
        <time>2024-12-06T13:02:27.000Z</time>
      </trkpt>
      <trkpt lat="43.70691" lon="6.7945">
        <ele>841.881789</ele>
        <time>2024-12-06T13:02:28.000Z</time>
      </trkpt>
      <trkpt lat="43.70707" lon="6.79441">
        <ele>840.16391</ele>
        <time>2024-12-06T13:02:30.000Z</time>
      </trkpt>
      <trkpt lat="43.70718" lon="6.79431">
        <ele>838.753387</ele>
        <time>2024-12-06T13:02:32.000Z</time>
      </trkpt>
      <trkpt lat="43.70725" lon="6.79427">
        <ele>838.047923</ele>
        <time>2024-12-06T13:02:33.000Z</time>
      </trkpt>
      <trkpt lat="43.70732" lon="6.79423">
        <ele>837.382542</ele>
        <time>2024-12-06T13:02:34.000Z</time>
      </trkpt>
      <trkpt lat="43.70741" lon="6.7942">
        <ele>836.656202</ele>
        <time>2024-12-06T13:02:35.000Z</time>
      </trkpt>
      <trkpt lat="43.70759" lon="6.79416">
        <ele>835.041944</ele>
        <time>2024-12-06T13:02:37.000Z</time>
      </trkpt>
      <trkpt lat="43.70768" lon="6.79412">
        <ele>834.256049</ele>
        <time>2024-12-06T13:02:38.000Z</time>
      </trkpt>
      <trkpt lat="43.70778" lon="6.79408">
        <ele>833.425793</ele>
        <time>2024-12-06T13:02:39.000Z</time>
      </trkpt>
      <trkpt lat="43.70787" lon="6.79403">
        <ele>832.595406</ele>
        <time>2024-12-06T13:02:40.000Z</time>
      </trkpt>
      <trkpt lat="43.70797" lon="6.794">
        <ele>831.784457</ele>
        <time>2024-12-06T13:02:41.000Z</time>
      </trkpt>
      <trkpt lat="43.70806" lon="6.79399">
        <ele>830.995055</ele>
        <time>2024-12-06T13:02:42.000Z</time>
      </trkpt>
      <trkpt lat="43.70815" lon="6.79398">
        <ele>830.254677</ele>
        <time>2024-12-06T13:02:43.000Z</time>
      </trkpt>
      <trkpt lat="43.70823" lon="6.79399">
        <ele>829.589884</ele>
        <time>2024-12-06T13:02:44.000Z</time>
      </trkpt>
      <trkpt lat="43.7083" lon="6.79399">
        <ele>828.991059</ele>
        <time>2024-12-06T13:02:45.000Z</time>
      </trkpt>
      <trkpt lat="43.70837" lon="6.794">
        <ele>828.410897</ele>
        <time>2024-12-06T13:02:46.000Z</time>
      </trkpt>
      <trkpt lat="43.70844" lon="6.79399">
        <ele>827.771989</ele>
        <time>2024-12-06T13:02:47.000Z</time>
      </trkpt>
      <trkpt lat="43.70859" lon="6.79401">
        <ele>826.50857</ele>
        <time>2024-12-06T13:02:49.000Z</time>
      </trkpt>
      <trkpt lat="43.70867" lon="6.79403">
        <ele>825.828647</ele>
        <time>2024-12-06T13:02:50.000Z</time>
      </trkpt>
      <trkpt lat="43.70874" lon="6.79406">
        <ele>825.222434</ele>
        <time>2024-12-06T13:02:51.000Z</time>
      </trkpt>
      <trkpt lat="43.70881" lon="6.79408">
        <ele>824.620315</ele>
        <time>2024-12-06T13:02:52.000Z</time>
      </trkpt>
      <trkpt lat="43.70889" lon="6.7941">
        <ele>823.909079</ele>
        <time>2024-12-06T13:02:53.000Z</time>
      </trkpt>
      <trkpt lat="43.70896" lon="6.79411">
        <ele>823.3695</ele>
        <time>2024-12-06T13:02:54.000Z</time>
      </trkpt>
      <trkpt lat="43.70901" lon="6.79414">
        <ele>822.996979</ele>
        <time>2024-12-06T13:02:55.000Z</time>
      </trkpt>
      <trkpt lat="43.70906" lon="6.79418">
        <ele>822.689237</ele>
        <time>2024-12-06T13:02:56.000Z</time>
      </trkpt>
      <trkpt lat="43.70911" lon="6.79423">
        <ele>822.382438</ele>
        <time>2024-12-06T13:02:57.000Z</time>
      </trkpt>
      <trkpt lat="43.70914" lon="6.79426">
        <ele>822.139201</ele>
        <time>2024-12-06T13:02:58.000Z</time>
      </trkpt>
      <trkpt lat="43.70917" lon="6.79429">
        <ele>821.963922</ele>
        <time>2024-12-06T13:02:59.000Z</time>
      </trkpt>
      <trkpt lat="43.70919" lon="6.79431">
        <ele>821.808074</ele>
        <time>2024-12-06T13:03:00.000Z</time>
      </trkpt>
      <trkpt lat="43.70921" lon="6.79434">
        <ele>821.671931</ele>
        <time>2024-12-06T13:03:01.000Z</time>
      </trkpt>
      <trkpt lat="43.70922" lon="6.79436">
        <ele>821.571839</ele>
        <time>2024-12-06T13:03:02.000Z</time>
      </trkpt>
      <trkpt lat="43.70922" lon="6.79437">
        <ele>821.544879</ele>
        <time>2024-12-06T13:03:03.000Z</time>
      </trkpt>
      <trkpt lat="43.70923" lon="6.79436">
        <ele>821.525156</ele>
        <time>2024-12-06T13:03:04.000Z</time>
      </trkpt>
      <trkpt lat="43.70923" lon="6.79436">
        <ele>821.525156</ele>
        <time>2024-12-06T13:03:16.000Z</time>
      </trkpt>
      <trkpt lat="43.70923" lon="6.79436">
        <ele>821.525156</ele>
        <time>2024-12-06T13:03:21.000Z</time>
      </trkpt>
      <trkpt lat="43.70923" lon="6.79436">
        <ele>821.525156</ele>
        <time>2024-12-06T13:03:22.000Z</time>
      </trkpt>
      <trkpt lat="43.70923" lon="6.79439">
        <ele>821.408979</ele>
        <time>2024-12-06T13:03:28.000Z</time>
      </trkpt>
      <trkpt lat="43.70925" lon="6.79444">
        <ele>821.199648</ele>
        <time>2024-12-06T13:03:30.000Z</time>
      </trkpt>
      <trkpt lat="43.70925" lon="6.79445">
        <ele>821.150744</ele>
        <time>2024-12-06T13:03:31.000Z</time>
      </trkpt>
      <trkpt lat="43.70926" lon="6.79445">
        <ele>821.134303</ele>
        <time>2024-12-06T13:03:33.000Z</time>
      </trkpt>
      <trkpt lat="43.70927" lon="6.79449">
        <ele>820.987312</ele>
        <time>2024-12-06T13:03:35.000Z</time>
      </trkpt>
      <trkpt lat="43.70928" lon="6.79452">
        <ele>820.855258</ele>
        <time>2024-12-06T13:03:36.000Z</time>
      </trkpt>
      <trkpt lat="43.70929" lon="6.79455">
        <ele>820.716415</ele>
        <time>2024-12-06T13:03:37.000Z</time>
      </trkpt>
      <trkpt lat="43.70934" lon="6.79474">
        <ele>819.930415</ele>
        <time>2024-12-06T13:03:42.000Z</time>
      </trkpt>
      <trkpt lat="43.70939" lon="6.79487">
        <ele>819.368192</ele>
        <time>2024-12-06T13:03:46.000Z</time>
      </trkpt>
      <trkpt lat="43.7094" lon="6.79489">
        <ele>819.270833</ele>
        <time>2024-12-06T13:03:47.000Z</time>
      </trkpt>
      <trkpt lat="43.7094" lon="6.7949">
        <ele>819.229133</ele>
        <time>2024-12-06T13:03:48.000Z</time>
      </trkpt>
      <trkpt lat="43.7094" lon="6.7949">
        <ele>819.229133</ele>
        <time>2024-12-06T13:03:53.000Z</time>
      </trkpt>
      <trkpt lat="43.70941" lon="6.79492">
        <ele>819.128373</ele>
        <time>2024-12-06T13:03:55.000Z</time>
      </trkpt>
      <trkpt lat="43.70942" lon="6.79494">
        <ele>819.034346</ele>
        <time>2024-12-06T13:03:56.000Z</time>
      </trkpt>
      <trkpt lat="43.70943" lon="6.79496">
        <ele>818.962188</ele>
        <time>2024-12-06T13:03:57.000Z</time>
      </trkpt>
      <trkpt lat="43.70944" lon="6.79496">
        <ele>818.892799</ele>
        <time>2024-12-06T13:03:58.000Z</time>
      </trkpt>
      <trkpt lat="43.70946" lon="6.79497">
        <ele>818.813483</ele>
        <time>2024-12-06T13:03:59.000Z</time>
      </trkpt>
      <trkpt lat="43.70947" lon="6.79498">
        <ele>818.736444</ele>
        <time>2024-12-06T13:04:00.000Z</time>
      </trkpt>
      <trkpt lat="43.70948" lon="6.79498">
        <ele>818.686078</ele>
        <time>2024-12-06T13:04:01.000Z</time>
      </trkpt>
      <trkpt lat="43.70949" lon="6.79498">
        <ele>818.654109</ele>
        <time>2024-12-06T13:04:02.000Z</time>
      </trkpt>
      <trkpt lat="43.70952" lon="6.79499">
        <ele>818.481492</ele>
        <time>2024-12-06T13:04:16.000Z</time>
      </trkpt>
      <trkpt lat="43.70956" lon="6.79499">
        <ele>818.241233</ele>
        <time>2024-12-06T13:04:21.000Z</time>
      </trkpt>
      <trkpt lat="43.70964" lon="6.79501">
        <ele>817.810555</ele>
        <time>2024-12-06T13:04:24.000Z</time>
      </trkpt>
      <trkpt lat="43.7098" lon="6.79504">
        <ele>816.977746</ele>
        <time>2024-12-06T13:04:28.000Z</time>
      </trkpt>
      <trkpt lat="43.70989" lon="6.79506">
        <ele>816.48619</ele>
        <time>2024-12-06T13:04:30.000Z</time>
      </trkpt>
      <trkpt lat="43.70993" lon="6.79507">
        <ele>816.249205</ele>
        <time>2024-12-06T13:04:31.000Z</time>
      </trkpt>
      <trkpt lat="43.70997" lon="6.79509">
        <ele>816.024198</ele>
        <time>2024-12-06T13:04:32.000Z</time>
      </trkpt>
      <trkpt lat="43.71002" lon="6.7951">
        <ele>815.793081</ele>
        <time>2024-12-06T13:04:33.000Z</time>
      </trkpt>
      <trkpt lat="43.71006" lon="6.79512">
        <ele>815.571468</ele>
        <time>2024-12-06T13:04:34.000Z</time>
      </trkpt>
      <trkpt lat="43.71013" lon="6.79517">
        <ele>815.139215</ele>
        <time>2024-12-06T13:04:36.000Z</time>
      </trkpt>
      <trkpt lat="43.71016" lon="6.79519">
        <ele>814.945678</ele>
        <time>2024-12-06T13:04:37.000Z</time>
      </trkpt>
      <trkpt lat="43.71019" lon="6.79522">
        <ele>814.766001</ele>
        <time>2024-12-06T13:04:38.000Z</time>
      </trkpt>
      <trkpt lat="43.71022" lon="6.79524">
        <ele>814.581356</ele>
        <time>2024-12-06T13:04:39.000Z</time>
      </trkpt>
      <trkpt lat="43.71026" lon="6.79526">
        <ele>814.371483</ele>
        <time>2024-12-06T13:04:40.000Z</time>
      </trkpt>
      <trkpt lat="43.71039" lon="6.79538">
        <ele>813.544661</ele>
        <time>2024-12-06T13:04:44.000Z</time>
      </trkpt>
      <trkpt lat="43.71054" lon="6.7955">
        <ele>812.982389</ele>
        <time>2024-12-06T13:04:48.000Z</time>
      </trkpt>
      <trkpt lat="43.71067" lon="6.79567">
        <ele>812.375905</ele>
        <time>2024-12-06T13:04:52.000Z</time>
      </trkpt>
      <trkpt lat="43.71073" lon="6.79579">
        <ele>812.034785</ele>
        <time>2024-12-06T13:04:54.000Z</time>
      </trkpt>
      <trkpt lat="43.71089" lon="6.79614">
        <ele>811.025904</ele>
        <time>2024-12-06T13:05:01.000Z</time>
      </trkpt>
      <trkpt lat="43.71095" lon="6.79627">
        <ele>810.653507</ele>
        <time>2024-12-06T13:05:04.000Z</time>
      </trkpt>
      <trkpt lat="43.71095" lon="6.7963">
        <ele>810.566406</ele>
        <time>2024-12-06T13:05:05.000Z</time>
      </trkpt>
      <trkpt lat="43.71096" lon="6.79633">
        <ele>810.503836</ele>
        <time>2024-12-06T13:05:06.000Z</time>
      </trkpt>
      <trkpt lat="43.71096" lon="6.79634">
        <ele>810.47966</ele>
        <time>2024-12-06T13:05:07.000Z</time>
      </trkpt>
      <trkpt lat="43.71096" lon="6.79634">
        <ele>810.47966</ele>
        <time>2024-12-06T13:05:09.000Z</time>
      </trkpt>
      <trkpt lat="43.71096" lon="6.79634">
        <ele>810.47966</ele>
        <time>2024-12-06T13:05:15.000Z</time>
      </trkpt>
      <trkpt lat="43.71097" lon="6.79638">
        <ele>810.362412</ele>
        <time>2024-12-06T13:05:18.000Z</time>
      </trkpt>
      <trkpt lat="43.71098" lon="6.79647">
        <ele>810.151517</ele>
        <time>2024-12-06T13:05:20.000Z</time>
      </trkpt>
      <trkpt lat="43.711" lon="6.79653">
        <ele>809.993118</ele>
        <time>2024-12-06T13:05:21.000Z</time>
      </trkpt>
      <trkpt lat="43.71101" lon="6.7966">
        <ele>809.815621</ele>
        <time>2024-12-06T13:05:22.000Z</time>
      </trkpt>
      <trkpt lat="43.71102" lon="6.79667">
        <ele>809.635989</ele>
        <time>2024-12-06T13:05:23.000Z</time>
      </trkpt>
      <trkpt lat="43.71104" lon="6.79684">
        <ele>809.233929</ele>
        <time>2024-12-06T13:05:25.000Z</time>
      </trkpt>
      <trkpt lat="43.71106" lon="6.79693">
        <ele>809.000277</ele>
        <time>2024-12-06T13:05:26.000Z</time>
      </trkpt>
      <trkpt lat="43.71108" lon="6.79702">
        <ele>808.77404</ele>
        <time>2024-12-06T13:05:27.000Z</time>
      </trkpt>
      <trkpt lat="43.71113" lon="6.79717">
        <ele>808.374341</ele>
        <time>2024-12-06T13:05:29.000Z</time>
      </trkpt>
      <trkpt lat="43.71116" lon="6.79726">
        <ele>808.13523</ele>
        <time>2024-12-06T13:05:30.000Z</time>
      </trkpt>
      <trkpt lat="43.71119" lon="6.79735">
        <ele>807.909856</ele>
        <time>2024-12-06T13:05:31.000Z</time>
      </trkpt>
      <trkpt lat="43.7112" lon="6.79741">
        <ele>807.734778</ele>
        <time>2024-12-06T13:05:32.000Z</time>
      </trkpt>
      <trkpt lat="43.71123" lon="6.79748">
        <ele>807.538368</ele>
        <time>2024-12-06T13:05:33.000Z</time>
      </trkpt>
      <trkpt lat="43.71126" lon="6.79756">
        <ele>807.192015</ele>
        <time>2024-12-06T13:05:34.000Z</time>
      </trkpt>
      <trkpt lat="43.7113" lon="6.79773">
        <ele>806.491468</ele>
        <time>2024-12-06T13:05:36.000Z</time>
      </trkpt>
      <trkpt lat="43.71131" lon="6.79781">
        <ele>806.155669</ele>
        <time>2024-12-06T13:05:37.000Z</time>
      </trkpt>
      <trkpt lat="43.71132" lon="6.79791">
        <ele>805.77943</ele>
        <time>2024-12-06T13:05:38.000Z</time>
      </trkpt>
      <trkpt lat="43.71132" lon="6.79801">
        <ele>805.392438</ele>
        <time>2024-12-06T13:05:39.000Z</time>
      </trkpt>
      <trkpt lat="43.71134" lon="6.79815">
        <ele>804.843296</ele>
        <time>2024-12-06T13:05:41.000Z</time>
      </trkpt>
      <trkpt lat="43.71135" lon="6.79819">
        <ele>804.651709</ele>
        <time>2024-12-06T13:05:42.000Z</time>
      </trkpt>
      <trkpt lat="43.71137" lon="6.79822">
        <ele>804.49638</ele>
        <time>2024-12-06T13:05:43.000Z</time>
      </trkpt>
      <trkpt lat="43.71139" lon="6.79825">
        <ele>804.3266</ele>
        <time>2024-12-06T13:05:44.000Z</time>
      </trkpt>
      <trkpt lat="43.71142" lon="6.79828">
        <ele>804.137014</ele>
        <time>2024-12-06T13:05:45.000Z</time>
      </trkpt>
      <trkpt lat="43.71148" lon="6.79836">
        <ele>803.682463</ele>
        <time>2024-12-06T13:05:47.000Z</time>
      </trkpt>
      <trkpt lat="43.71155" lon="6.79841">
        <ele>803.263027</ele>
        <time>2024-12-06T13:05:49.000Z</time>
      </trkpt>
      <trkpt lat="43.71157" lon="6.79844">
        <ele>803.091795</ele>
        <time>2024-12-06T13:05:50.000Z</time>
      </trkpt>
      <trkpt lat="43.71159" lon="6.79846">
        <ele>802.95834</ele>
        <time>2024-12-06T13:05:51.000Z</time>
      </trkpt>
      <trkpt lat="43.71161" lon="6.79848">
        <ele>802.827136</ele>
        <time>2024-12-06T13:05:52.000Z</time>
      </trkpt>
      <trkpt lat="43.71164" lon="6.79849">
        <ele>802.697764</ele>
        <time>2024-12-06T13:05:53.000Z</time>
      </trkpt>
      <trkpt lat="43.71166" lon="6.7985">
        <ele>802.562215</ele>
        <time>2024-12-06T13:05:54.000Z</time>
      </trkpt>
      <trkpt lat="43.71168" lon="6.79851">
        <ele>802.434327</ele>
        <time>2024-12-06T13:05:55.000Z</time>
      </trkpt>
      <trkpt lat="43.71171" lon="6.79853">
        <ele>802.280756</ele>
        <time>2024-12-06T13:05:56.000Z</time>
      </trkpt>
      <trkpt lat="43.71173" lon="6.79855">
        <ele>802.129238</ele>
        <time>2024-12-06T13:05:57.000Z</time>
      </trkpt>
      <trkpt lat="43.71175" lon="6.79858">
        <ele>801.966875</ele>
        <time>2024-12-06T13:05:58.000Z</time>
      </trkpt>
      <trkpt lat="43.71178" lon="6.79859">
        <ele>801.832463</ele>
        <time>2024-12-06T13:05:59.000Z</time>
      </trkpt>
      <trkpt lat="43.7118" lon="6.7986">
        <ele>801.719512</ele>
        <time>2024-12-06T13:06:00.000Z</time>
      </trkpt>
      <trkpt lat="43.71181" lon="6.79861">
        <ele>801.642567</ele>
        <time>2024-12-06T13:06:01.000Z</time>
      </trkpt>
      <trkpt lat="43.71182" lon="6.79862">
        <ele>801.591377</ele>
        <time>2024-12-06T13:06:02.000Z</time>
      </trkpt>
      <trkpt lat="43.71182" lon="6.79862">
        <ele>801.569395</ele>
        <time>2024-12-06T13:06:03.000Z</time>
      </trkpt>
      <trkpt lat="43.71182" lon="6.79862">
        <ele>801.569395</ele>
        <time>2024-12-06T13:06:24.000Z</time>
      </trkpt>
      <trkpt lat="43.71182" lon="6.79862">
        <ele>801.549116</ele>
        <time>2024-12-06T13:06:30.000Z</time>
      </trkpt>
      <trkpt lat="43.71182" lon="6.79863">
        <ele>801.526778</ele>
        <time>2024-12-06T13:06:39.000Z</time>
      </trkpt>
      <trkpt lat="43.71182" lon="6.79863">
        <ele>801.526778</ele>
        <time>2024-12-06T13:06:49.000Z</time>
      </trkpt>
      <trkpt lat="43.71182" lon="6.79863">
        <ele>801.526778</ele>
        <time>2024-12-06T13:06:51.000Z</time>
      </trkpt>
      <trkpt lat="43.71183" lon="6.79863">
        <ele>801.46527</ele>
        <time>2024-12-06T13:07:01.000Z</time>
      </trkpt>
      <trkpt lat="43.71184" lon="6.79864">
        <ele>801.39187</ele>
        <time>2024-12-06T13:07:02.000Z</time>
      </trkpt>
      <trkpt lat="43.71186" lon="6.79865">
        <ele>801.252169</ele>
        <time>2024-12-06T13:07:04.000Z</time>
      </trkpt>
      <trkpt lat="43.71192" lon="6.7987">
        <ele>800.918593</ele>
        <time>2024-12-06T13:07:07.000Z</time>
      </trkpt>
      <trkpt lat="43.71194" lon="6.79872">
        <ele>800.765119</ele>
        <time>2024-12-06T13:07:08.000Z</time>
      </trkpt>
      <trkpt lat="43.71196" lon="6.79876">
        <ele>800.599042</ele>
        <time>2024-12-06T13:07:09.000Z</time>
      </trkpt>
      <trkpt lat="43.71198" lon="6.79879">
        <ele>800.423749</ele>
        <time>2024-12-06T13:07:10.000Z</time>
      </trkpt>
      <trkpt lat="43.71199" lon="6.79883">
        <ele>800.262146</ele>
        <time>2024-12-06T13:07:11.000Z</time>
      </trkpt>
      <trkpt lat="43.71201" lon="6.79885">
        <ele>800.120344</ele>
        <time>2024-12-06T13:07:12.000Z</time>
      </trkpt>
      <trkpt lat="43.71204" lon="6.79887">
        <ele>799.968827</ele>
        <time>2024-12-06T13:07:13.000Z</time>
      </trkpt>
      <trkpt lat="43.71206" lon="6.79889">
        <ele>799.81761</ele>
        <time>2024-12-06T13:07:14.000Z</time>
      </trkpt>
      <trkpt lat="43.71208" lon="6.7989">
        <ele>799.679671</ele>
        <time>2024-12-06T13:07:15.000Z</time>
      </trkpt>
      <trkpt lat="43.71209" lon="6.79891">
        <ele>799.648436</ele>
        <time>2024-12-06T13:07:16.000Z</time>
      </trkpt>
      <trkpt lat="43.7121" lon="6.7989">
        <ele>799.577699</ele>
        <time>2024-12-06T13:07:19.000Z</time>
      </trkpt>
      <trkpt lat="43.71213" lon="6.79891">
        <ele>799.412475</ele>
        <time>2024-12-06T13:07:21.000Z</time>
      </trkpt>
      <trkpt lat="43.71218" lon="6.79893">
        <ele>799.142479</ele>
        <time>2024-12-06T13:07:23.000Z</time>
      </trkpt>
      <trkpt lat="43.71224" lon="6.79897">
        <ele>798.772522</ele>
        <time>2024-12-06T13:07:25.000Z</time>
      </trkpt>
      <trkpt lat="43.71234" lon="6.79902">
        <ele>798.214116</ele>
        <time>2024-12-06T13:07:28.000Z</time>
      </trkpt>
      <trkpt lat="43.71244" lon="6.79904">
        <ele>797.347061</ele>
        <time>2024-12-06T13:07:30.000Z</time>
      </trkpt>
      <trkpt lat="43.71248" lon="6.79904">
        <ele>796.765349</ele>
        <time>2024-12-06T13:07:31.000Z</time>
      </trkpt>
      <trkpt lat="43.71251" lon="6.79905">
        <ele>796.322825</ele>
        <time>2024-12-06T13:07:32.000Z</time>
      </trkpt>
      <trkpt lat="43.71254" lon="6.79905">
        <ele>795.918675</ele>
        <time>2024-12-06T13:07:33.000Z</time>
      </trkpt>
      <trkpt lat="43.71257" lon="6.79906">
        <ele>795.421655</ele>
        <time>2024-12-06T13:07:34.000Z</time>
      </trkpt>
      <trkpt lat="43.7126" lon="6.79908">
        <ele>794.990394</ele>
        <time>2024-12-06T13:07:35.000Z</time>
      </trkpt>
      <trkpt lat="43.71262" lon="6.79909">
        <ele>794.634122</ele>
        <time>2024-12-06T13:07:36.000Z</time>
      </trkpt>
      <trkpt lat="43.71264" lon="6.7991">
        <ele>794.268282</ele>
        <time>2024-12-06T13:07:37.000Z</time>
      </trkpt>
      <trkpt lat="43.71267" lon="6.7991">
        <ele>793.882082</ele>
        <time>2024-12-06T13:07:38.000Z</time>
      </trkpt>
      <trkpt lat="43.7127" lon="6.79911">
        <ele>793.444818</ele>
        <time>2024-12-06T13:07:39.000Z</time>
      </trkpt>
      <trkpt lat="43.71273" lon="6.79912">
        <ele>792.951911</ele>
        <time>2024-12-06T13:07:40.000Z</time>
      </trkpt>
      <trkpt lat="43.71276" lon="6.79914">
        <ele>792.496407</ele>
        <time>2024-12-06T13:07:41.000Z</time>
      </trkpt>
      <trkpt lat="43.71279" lon="6.79917">
        <ele>791.945509</ele>
        <time>2024-12-06T13:07:42.000Z</time>
      </trkpt>
      <trkpt lat="43.71281" lon="6.7992">
        <ele>791.462658</ele>
        <time>2024-12-06T13:07:43.000Z</time>
      </trkpt>
      <trkpt lat="43.71283" lon="6.79922">
        <ele>791.123864</ele>
        <time>2024-12-06T13:07:44.000Z</time>
      </trkpt>
      <trkpt lat="43.71286" lon="6.79923">
        <ele>790.634179</ele>
        <time>2024-12-06T13:07:45.000Z</time>
      </trkpt>
      <trkpt lat="43.7129" lon="6.79923">
        <ele>790.148553</ele>
        <time>2024-12-06T13:07:46.000Z</time>
      </trkpt>
      <trkpt lat="43.71293" lon="6.79923">
        <ele>789.604089</ele>
        <time>2024-12-06T13:07:47.000Z</time>
      </trkpt>
      <trkpt lat="43.71296" lon="6.79924">
        <ele>789.152459</ele>
        <time>2024-12-06T13:07:48.000Z</time>
      </trkpt>
      <trkpt lat="43.71299" lon="6.79927">
        <ele>788.631421</ele>
        <time>2024-12-06T13:07:49.000Z</time>
      </trkpt>
      <trkpt lat="43.71303" lon="6.79927">
        <ele>788.065913</ele>
        <time>2024-12-06T13:07:50.000Z</time>
      </trkpt>
      <trkpt lat="43.7131" lon="6.79925">
        <ele>786.96672</ele>
        <time>2024-12-06T13:07:51.000Z</time>
      </trkpt>
      <trkpt lat="43.71313" lon="6.79928">
        <ele>786.488427</ele>
        <time>2024-12-06T13:07:52.000Z</time>
      </trkpt>
      <trkpt lat="43.71315" lon="6.79933">
        <ele>785.858276</ele>
        <time>2024-12-06T13:07:53.000Z</time>
      </trkpt>
      <trkpt lat="43.71317" lon="6.79936">
        <ele>785.383814</ele>
        <time>2024-12-06T13:07:54.000Z</time>
      </trkpt>
      <trkpt lat="43.71319" lon="6.79939">
        <ele>784.961491</ele>
        <time>2024-12-06T13:07:55.000Z</time>
      </trkpt>
      <trkpt lat="43.71325" lon="6.79943">
        <ele>784.092966</ele>
        <time>2024-12-06T13:07:57.000Z</time>
      </trkpt>
      <trkpt lat="43.71328" lon="6.79943">
        <ele>783.607339</ele>
        <time>2024-12-06T13:07:58.000Z</time>
      </trkpt>
      <trkpt lat="43.71331" lon="6.79942">
        <ele>783.149275</ele>
        <time>2024-12-06T13:07:59.000Z</time>
      </trkpt>
      <trkpt lat="43.71333" lon="6.79944">
        <ele>782.801566</ele>
        <time>2024-12-06T13:08:00.000Z</time>
      </trkpt>
      <trkpt lat="43.71345" lon="6.79948">
        <ele>780.938362</ele>
        <time>2024-12-06T13:08:03.000Z</time>
      </trkpt>
      <trkpt lat="43.71352" lon="6.79947">
        <ele>779.897787</ele>
        <time>2024-12-06T13:08:04.000Z</time>
      </trkpt>
      <trkpt lat="43.71357" lon="6.79947">
        <ele>779.176173</ele>
        <time>2024-12-06T13:08:05.000Z</time>
      </trkpt>
      <trkpt lat="43.71362" lon="6.79947">
        <ele>778.526646</ele>
        <time>2024-12-06T13:08:06.000Z</time>
      </trkpt>
      <trkpt lat="43.71366" lon="6.79947">
        <ele>777.923343</ele>
        <time>2024-12-06T13:08:07.000Z</time>
      </trkpt>
      <trkpt lat="43.7137" lon="6.79946">
        <ele>777.279985</ele>
        <time>2024-12-06T13:08:08.000Z</time>
      </trkpt>
      <trkpt lat="43.71373" lon="6.79943">
        <ele>776.700471</ele>
        <time>2024-12-06T13:08:09.000Z</time>
      </trkpt>
      <trkpt lat="43.71377" lon="6.79941">
        <ele>776.112085</ele>
        <time>2024-12-06T13:08:10.000Z</time>
      </trkpt>
      <trkpt lat="43.71381" lon="6.79941">
        <ele>775.580733</ele>
        <time>2024-12-06T13:08:11.000Z</time>
      </trkpt>
      <trkpt lat="43.71386" lon="6.79939">
        <ele>774.817868</ele>
        <time>2024-12-06T13:08:12.000Z</time>
      </trkpt>
      <trkpt lat="43.71393" lon="6.79937">
        <ele>773.72089</ele>
        <time>2024-12-06T13:08:13.000Z</time>
      </trkpt>
      <trkpt lat="43.71397" lon="6.79935">
        <ele>773.142335</ele>
        <time>2024-12-06T13:08:14.000Z</time>
      </trkpt>
      <trkpt lat="43.714" lon="6.79935">
        <ele>772.668545</ele>
        <time>2024-12-06T13:08:15.000Z</time>
      </trkpt>
      <trkpt lat="43.71403" lon="6.79938">
        <ele>772.196561</ele>
        <time>2024-12-06T13:08:16.000Z</time>
      </trkpt>
      <trkpt lat="43.71406" lon="6.7994">
        <ele>771.570916</ele>
        <time>2024-12-06T13:08:17.000Z</time>
      </trkpt>
      <trkpt lat="43.7141" lon="6.79942">
        <ele>770.898024</ele>
        <time>2024-12-06T13:08:18.000Z</time>
      </trkpt>
      <trkpt lat="43.71415" lon="6.79945">
        <ele>770.00701</ele>
        <time>2024-12-06T13:08:19.000Z</time>
      </trkpt>
      <trkpt lat="43.71421" lon="6.79947">
        <ele>769.03292</ele>
        <time>2024-12-06T13:08:20.000Z</time>
      </trkpt>
      <trkpt lat="43.71425" lon="6.7995">
        <ele>768.270379</ele>
        <time>2024-12-06T13:08:21.000Z</time>
      </trkpt>
      <trkpt lat="43.71428" lon="6.79954">
        <ele>767.587094</ele>
        <time>2024-12-06T13:08:22.000Z</time>
      </trkpt>
      <trkpt lat="43.71431" lon="6.79959">
        <ele>766.74527</ele>
        <time>2024-12-06T13:08:23.000Z</time>
      </trkpt>
      <trkpt lat="43.71435" lon="6.79963">
        <ele>765.914804</ele>
        <time>2024-12-06T13:08:24.000Z</time>
      </trkpt>
      <trkpt lat="43.71439" lon="6.79965">
        <ele>765.237633</ele>
        <time>2024-12-06T13:08:25.000Z</time>
      </trkpt>
      <trkpt lat="43.71441" lon="6.79966">
        <ele>764.820895</ele>
        <time>2024-12-06T13:08:26.000Z</time>
      </trkpt>
      <trkpt lat="43.71443" lon="6.79966">
        <ele>764.465627</ele>
        <time>2024-12-06T13:08:27.000Z</time>
      </trkpt>
      <trkpt lat="43.71444" lon="6.79966">
        <ele>764.429987</ele>
        <time>2024-12-06T13:08:28.000Z</time>
      </trkpt>
      <trkpt lat="43.71444" lon="6.79966">
        <ele>764.429987</ele>
        <time>2024-12-06T13:08:30.000Z</time>
      </trkpt>
      <trkpt lat="43.71445" lon="6.79968">
        <ele>764.083918</ele>
        <time>2024-12-06T13:08:36.000Z</time>
      </trkpt>
      <trkpt lat="43.71446" lon="6.79969">
        <ele>763.896094</ele>
        <time>2024-12-06T13:08:37.000Z</time>
      </trkpt>
      <trkpt lat="43.71447" lon="6.7997">
        <ele>763.69616</ele>
        <time>2024-12-06T13:08:39.000Z</time>
      </trkpt>
      <trkpt lat="43.71447" lon="6.7997">
        <ele>763.69616</ele>
        <time>2024-12-06T13:08:41.000Z</time>
      </trkpt>
      <trkpt lat="43.71447" lon="6.7997">
        <ele>763.69616</ele>
        <time>2024-12-06T13:08:43.000Z</time>
      </trkpt>
      <trkpt lat="43.71447" lon="6.7997">
        <ele>763.659819</ele>
        <time>2024-12-06T13:08:45.000Z</time>
      </trkpt>
      <trkpt lat="43.71447" lon="6.7997">
        <ele>763.592782</ele>
        <time>2024-12-06T13:08:47.000Z</time>
      </trkpt>
      <trkpt lat="43.71447" lon="6.7997">
        <ele>763.474842</ele>
        <time>2024-12-06T13:08:54.000Z</time>
      </trkpt>
      <trkpt lat="43.71447" lon="6.7997">
        <ele>763.474842</ele>
        <time>2024-12-06T13:09:15.000Z</time>
      </trkpt>
      <trkpt lat="43.71449" lon="6.7997">
        <ele>763.172202</ele>
        <time>2024-12-06T13:09:19.000Z</time>
      </trkpt>
      <trkpt lat="43.71452" lon="6.7997">
        <ele>762.709437</ele>
        <time>2024-12-06T13:09:21.000Z</time>
      </trkpt>
      <trkpt lat="43.71453" lon="6.79971">
        <ele>762.506518</ele>
        <time>2024-12-06T13:09:22.000Z</time>
      </trkpt>
      <trkpt lat="43.71454" lon="6.79972">
        <ele>762.241211</ele>
        <time>2024-12-06T13:09:23.000Z</time>
      </trkpt>
      <trkpt lat="43.71461" lon="6.79974">
        <ele>761.100542</ele>
        <time>2024-12-06T13:09:25.000Z</time>
      </trkpt>
      <trkpt lat="43.71465" lon="6.79977">
        <ele>760.314071</ele>
        <time>2024-12-06T13:09:26.000Z</time>
      </trkpt>
      <trkpt lat="43.71469" lon="6.7998">
        <ele>759.512957</ele>
        <time>2024-12-06T13:09:27.000Z</time>
      </trkpt>
      <trkpt lat="43.71472" lon="6.79982">
        <ele>758.9733</ele>
        <time>2024-12-06T13:09:28.000Z</time>
      </trkpt>
      <trkpt lat="43.71474" lon="6.79984">
        <ele>758.628716</ele>
        <time>2024-12-06T13:09:29.000Z</time>
      </trkpt>
      <trkpt lat="43.71475" lon="6.79986">
        <ele>758.262358</ele>
        <time>2024-12-06T13:09:30.000Z</time>
      </trkpt>
      <trkpt lat="43.71477" lon="6.79988">
        <ele>757.908979</ele>
        <time>2024-12-06T13:09:31.000Z</time>
      </trkpt>
      <trkpt lat="43.71479" lon="6.7999">
        <ele>757.498336</ele>
        <time>2024-12-06T13:09:32.000Z</time>
      </trkpt>
      <trkpt lat="43.7148" lon="6.79992">
        <ele>757.203449</ele>
        <time>2024-12-06T13:09:33.000Z</time>
      </trkpt>
      <trkpt lat="43.71482" lon="6.79994">
        <ele>756.795886</ele>
        <time>2024-12-06T13:09:34.000Z</time>
      </trkpt>
      <trkpt lat="43.71485" lon="6.79998">
        <ele>756.070919</ele>
        <time>2024-12-06T13:09:35.000Z</time>
      </trkpt>
      <trkpt lat="43.71489" lon="6.80002">
        <ele>755.27069</ele>
        <time>2024-12-06T13:09:36.000Z</time>
      </trkpt>
      <trkpt lat="43.71495" lon="6.80009">
        <ele>753.981198</ele>
        <time>2024-12-06T13:09:38.000Z</time>
      </trkpt>
      <trkpt lat="43.71497" lon="6.80013">
        <ele>753.385128</ele>
        <time>2024-12-06T13:09:39.000Z</time>
      </trkpt>
      <trkpt lat="43.71499" lon="6.80016">
        <ele>752.854112</ele>
        <time>2024-12-06T13:09:40.000Z</time>
      </trkpt>
      <trkpt lat="43.71501" lon="6.8002">
        <ele>752.274857</ele>
        <time>2024-12-06T13:09:41.000Z</time>
      </trkpt>
      <trkpt lat="43.71503" lon="6.80023">
        <ele>751.84229</ele>
        <time>2024-12-06T13:09:42.000Z</time>
      </trkpt>
      <trkpt lat="43.71504" lon="6.80026">
        <ele>751.387028</ele>
        <time>2024-12-06T13:09:43.000Z</time>
      </trkpt>
      <trkpt lat="43.71508" lon="6.80033">
        <ele>750.315574</ele>
        <time>2024-12-06T13:09:45.000Z</time>
      </trkpt>
      <trkpt lat="43.71514" lon="6.80039">
        <ele>749.073527</ele>
        <time>2024-12-06T13:09:47.000Z</time>
      </trkpt>
      <trkpt lat="43.71516" lon="6.80041">
        <ele>748.646076</ele>
        <time>2024-12-06T13:09:48.000Z</time>
      </trkpt>
      <trkpt lat="43.71518" lon="6.80044">
        <ele>748.142594</ele>
        <time>2024-12-06T13:09:49.000Z</time>
      </trkpt>
      <trkpt lat="43.71525" lon="6.80048">
        <ele>746.909451</ele>
        <time>2024-12-06T13:09:51.000Z</time>
      </trkpt>
      <trkpt lat="43.71528" lon="6.80051">
        <ele>746.213399</ele>
        <time>2024-12-06T13:09:52.000Z</time>
      </trkpt>
      <trkpt lat="43.71536" lon="6.80058">
        <ele>744.777836</ele>
        <time>2024-12-06T13:09:54.000Z</time>
      </trkpt>
      <trkpt lat="43.71539" lon="6.80061">
        <ele>744.10934</ele>
        <time>2024-12-06T13:09:55.000Z</time>
      </trkpt>
      <trkpt lat="43.71542" lon="6.80064">
        <ele>743.447619</ele>
        <time>2024-12-06T13:09:56.000Z</time>
      </trkpt>
      <trkpt lat="43.71549" lon="6.80073">
        <ele>741.837836</ele>
        <time>2024-12-06T13:09:58.000Z</time>
      </trkpt>
      <trkpt lat="43.71559" lon="6.80081">
        <ele>740.034429</ele>
        <time>2024-12-06T13:10:01.000Z</time>
      </trkpt>
      <trkpt lat="43.71563" lon="6.80085">
        <ele>739.327197</ele>
        <time>2024-12-06T13:10:02.000Z</time>
      </trkpt>
      <trkpt lat="43.7157" lon="6.8009">
        <ele>738.046139</ele>
        <time>2024-12-06T13:10:04.000Z</time>
      </trkpt>
      <trkpt lat="43.71575" lon="6.80093">
        <ele>737.271438</ele>
        <time>2024-12-06T13:10:05.000Z</time>
      </trkpt>
      <trkpt lat="43.71578" lon="6.80098">
        <ele>736.576571</ele>
        <time>2024-12-06T13:10:06.000Z</time>
      </trkpt>
      <trkpt lat="43.71581" lon="6.80103">
        <ele>735.875277</ele>
        <time>2024-12-06T13:10:07.000Z</time>
      </trkpt>
      <trkpt lat="43.71585" lon="6.80108">
        <ele>735.099298</ele>
        <time>2024-12-06T13:10:08.000Z</time>
      </trkpt>
      <trkpt lat="43.71589" lon="6.80114">
        <ele>734.191933</ele>
        <time>2024-12-06T13:10:09.000Z</time>
      </trkpt>
      <trkpt lat="43.71592" lon="6.80117">
        <ele>733.618145</ele>
        <time>2024-12-06T13:10:10.000Z</time>
      </trkpt>
      <trkpt lat="43.71594" lon="6.80118">
        <ele>733.287618</ele>
        <time>2024-12-06T13:10:11.000Z</time>
      </trkpt>
      <trkpt lat="43.71596" lon="6.8012">
        <ele>732.950451</ele>
        <time>2024-12-06T13:10:12.000Z</time>
      </trkpt>
      <trkpt lat="43.71598" lon="6.80122">
        <ele>732.545704</ele>
        <time>2024-12-06T13:10:13.000Z</time>
      </trkpt>
      <trkpt lat="43.716" lon="6.80123">
        <ele>732.252221</ele>
        <time>2024-12-06T13:10:14.000Z</time>
      </trkpt>
      <trkpt lat="43.71602" lon="6.80124">
        <ele>731.941022</ele>
        <time>2024-12-06T13:10:15.000Z</time>
      </trkpt>
      <trkpt lat="43.71603" lon="6.80125">
        <ele>731.682082</ele>
        <time>2024-12-06T13:10:16.000Z</time>
      </trkpt>
      <trkpt lat="43.71611" lon="6.80128">
        <ele>730.467307</ele>
        <time>2024-12-06T13:10:18.000Z</time>
      </trkpt>
      <trkpt lat="43.71622" lon="6.80131">
        <ele>728.842789</ele>
        <time>2024-12-06T13:10:21.000Z</time>
      </trkpt>
      <trkpt lat="43.71631" lon="6.80132">
        <ele>727.48014</ele>
        <time>2024-12-06T13:10:23.000Z</time>
      </trkpt>
      <trkpt lat="43.71634" lon="6.80134">
        <ele>726.908826</ele>
        <time>2024-12-06T13:10:24.000Z</time>
      </trkpt>
      <trkpt lat="43.71638" lon="6.80135">
        <ele>726.334625</ele>
        <time>2024-12-06T13:10:25.000Z</time>
      </trkpt>
      <trkpt lat="43.71642" lon="6.80134">
        <ele>725.705588</ele>
        <time>2024-12-06T13:10:26.000Z</time>
      </trkpt>
      <trkpt lat="43.71649" lon="6.80133">
        <ele>724.672361</ele>
        <time>2024-12-06T13:10:28.000Z</time>
      </trkpt>
      <trkpt lat="43.71652" lon="6.80133">
        <ele>724.245789</ele>
        <time>2024-12-06T13:10:29.000Z</time>
      </trkpt>
      <trkpt lat="43.71658" lon="6.80137">
        <ele>723.171227</ele>
        <time>2024-12-06T13:10:31.000Z</time>
      </trkpt>
      <trkpt lat="43.71662" lon="6.80137">
        <ele>722.657044</ele>
        <time>2024-12-06T13:10:32.000Z</time>
      </trkpt>
      <trkpt lat="43.71666" lon="6.80134">
        <ele>721.970967</ele>
        <time>2024-12-06T13:10:33.000Z</time>
      </trkpt>
      <trkpt lat="43.71671" lon="6.80132">
        <ele>721.171325</ele>
        <time>2024-12-06T13:10:34.000Z</time>
      </trkpt>
      <trkpt lat="43.71676" lon="6.80129">
        <ele>720.320781</ele>
        <time>2024-12-06T13:10:35.000Z</time>
      </trkpt>
      <trkpt lat="43.71682" lon="6.80128">
        <ele>719.481127</ele>
        <time>2024-12-06T13:10:36.000Z</time>
      </trkpt>
      <trkpt lat="43.71698" lon="6.80125">
        <ele>717.056498</ele>
        <time>2024-12-06T13:10:39.000Z</time>
      </trkpt>
      <trkpt lat="43.71701" lon="6.80125">
        <ele>716.526656</ele>
        <time>2024-12-06T13:10:40.000Z</time>
      </trkpt>
      <trkpt lat="43.71704" lon="6.80125">
        <ele>716.027926</ele>
        <time>2024-12-06T13:10:41.000Z</time>
      </trkpt>
      <trkpt lat="43.71708" lon="6.80125">
        <ele>715.542456</ele>
        <time>2024-12-06T13:10:42.000Z</time>
      </trkpt>
      <trkpt lat="43.7171" lon="6.80124">
        <ele>715.222166</ele>
        <time>2024-12-06T13:10:43.000Z</time>
      </trkpt>
      <trkpt lat="43.71712" lon="6.80124">
        <ele>714.840506</ele>
        <time>2024-12-06T13:10:44.000Z</time>
      </trkpt>
      <trkpt lat="43.71715" lon="6.80123">
        <ele>714.416176</ele>
        <time>2024-12-06T13:10:45.000Z</time>
      </trkpt>
      <trkpt lat="43.71718" lon="6.80123">
        <ele>713.955706</ele>
        <time>2024-12-06T13:10:46.000Z</time>
      </trkpt>
      <trkpt lat="43.71721" lon="6.80123">
        <ele>713.27907</ele>
        <time>2024-12-06T13:10:47.000Z</time>
      </trkpt>
      <trkpt lat="43.71725" lon="6.80123">
        <ele>712.605274</ele>
        <time>2024-12-06T13:10:48.000Z</time>
      </trkpt>
      <trkpt lat="43.71733" lon="6.80122">
        <ele>711.202077</ele>
        <time>2024-12-06T13:10:50.000Z</time>
      </trkpt>
      <trkpt lat="43.71736" lon="6.80123">
        <ele>710.585436</ele>
        <time>2024-12-06T13:10:51.000Z</time>
      </trkpt>
      <trkpt lat="43.71739" lon="6.80125">
        <ele>709.900202</ele>
        <time>2024-12-06T13:10:52.000Z</time>
      </trkpt>
      <trkpt lat="43.71743" lon="6.80126">
        <ele>709.213515</ele>
        <time>2024-12-06T13:10:53.000Z</time>
      </trkpt>
      <trkpt lat="43.71749" lon="6.80128">
        <ele>708.091095</ele>
        <time>2024-12-06T13:10:55.000Z</time>
      </trkpt>
      <trkpt lat="43.71751" lon="6.8013">
        <ele>707.569332</ele>
        <time>2024-12-06T13:10:56.000Z</time>
      </trkpt>
      <trkpt lat="43.71754" lon="6.80132">
        <ele>706.963055</ele>
        <time>2024-12-06T13:10:57.000Z</time>
      </trkpt>
      <trkpt lat="43.71758" lon="6.80134">
        <ele>706.162954</ele>
        <time>2024-12-06T13:10:58.000Z</time>
      </trkpt>
      <trkpt lat="43.71764" lon="6.80136">
        <ele>705.014138</ele>
        <time>2024-12-06T13:11:00.000Z</time>
      </trkpt>
      <trkpt lat="43.71767" lon="6.80138">
        <ele>704.430266</ele>
        <time>2024-12-06T13:11:01.000Z</time>
      </trkpt>
      <trkpt lat="43.71771" lon="6.80141">
        <ele>703.552319</ele>
        <time>2024-12-06T13:11:02.000Z</time>
      </trkpt>
      <trkpt lat="43.71775" lon="6.80144">
        <ele>702.668363</ele>
        <time>2024-12-06T13:11:03.000Z</time>
      </trkpt>
      <trkpt lat="43.71783" lon="6.80148">
        <ele>701.099719</ele>
        <time>2024-12-06T13:11:05.000Z</time>
      </trkpt>
      <trkpt lat="43.71791" lon="6.80152">
        <ele>699.548409</ele>
        <time>2024-12-06T13:11:07.000Z</time>
      </trkpt>
      <trkpt lat="43.71797" lon="6.80161">
        <ele>697.961227</ele>
        <time>2024-12-06T13:11:09.000Z</time>
      </trkpt>
      <trkpt lat="43.71799" lon="6.80165">
        <ele>697.238056</ele>
        <time>2024-12-06T13:11:10.000Z</time>
      </trkpt>
      <trkpt lat="43.71801" lon="6.8017">
        <ele>696.519104</ele>
        <time>2024-12-06T13:11:11.000Z</time>
      </trkpt>
      <trkpt lat="43.71802" lon="6.80173">
        <ele>695.933865</ele>
        <time>2024-12-06T13:11:12.000Z</time>
      </trkpt>
      <trkpt lat="43.71803" lon="6.80178">
        <ele>695.234568</ele>
        <time>2024-12-06T13:11:13.000Z</time>
      </trkpt>
      <trkpt lat="43.71806" lon="6.80183">
        <ele>694.381282</ele>
        <time>2024-12-06T13:11:14.000Z</time>
      </trkpt>
      <trkpt lat="43.7181" lon="6.80186">
        <ele>693.573669</ele>
        <time>2024-12-06T13:11:15.000Z</time>
      </trkpt>
      <trkpt lat="43.71813" lon="6.8019">
        <ele>692.822084</ele>
        <time>2024-12-06T13:11:16.000Z</time>
      </trkpt>
      <trkpt lat="43.71815" lon="6.80194">
        <ele>692.139981</ele>
        <time>2024-12-06T13:11:17.000Z</time>
      </trkpt>
      <trkpt lat="43.71818" lon="6.80197">
        <ele>691.53316</ele>
        <time>2024-12-06T13:11:18.000Z</time>
      </trkpt>
      <trkpt lat="43.71819" lon="6.802">
        <ele>691.0041</ele>
        <time>2024-12-06T13:11:19.000Z</time>
      </trkpt>
      <trkpt lat="43.71822" lon="6.80202">
        <ele>690.527324</ele>
        <time>2024-12-06T13:11:20.000Z</time>
      </trkpt>
      <trkpt lat="43.71824" lon="6.80203">
        <ele>690.062684</ele>
        <time>2024-12-06T13:11:21.000Z</time>
      </trkpt>
      <trkpt lat="43.71826" lon="6.80204">
        <ele>689.713014</ele>
        <time>2024-12-06T13:11:22.000Z</time>
      </trkpt>
      <trkpt lat="43.71826" lon="6.80205">
        <ele>689.6122</ele>
        <time>2024-12-06T13:11:23.000Z</time>
      </trkpt>
      <trkpt lat="43.71826" lon="6.80204">
        <ele>689.534285</ele>
        <time>2024-12-06T13:11:25.000Z</time>
      </trkpt>
      <trkpt lat="43.71827" lon="6.80206">
        <ele>689.249455</ele>
        <time>2024-12-06T13:11:43.000Z</time>
      </trkpt>
      <trkpt lat="43.71827" lon="6.80207">
        <ele>689.135038</ele>
        <time>2024-12-06T13:11:44.000Z</time>
      </trkpt>
      <trkpt lat="43.71827" lon="6.80207">
        <ele>689.135038</ele>
        <time>2024-12-06T13:11:50.000Z</time>
      </trkpt>
      <trkpt lat="43.71827" lon="6.80207">
        <ele>689.135038</ele>
        <time>2024-12-06T13:11:57.000Z</time>
      </trkpt>
      <trkpt lat="43.71827" lon="6.80207">
        <ele>689.135038</ele>
        <time>2024-12-06T13:12:05.000Z</time>
      </trkpt>
      <trkpt lat="43.71827" lon="6.80207">
        <ele>689.135038</ele>
        <time>2024-12-06T13:12:12.000Z</time>
      </trkpt>
      <trkpt lat="43.71827" lon="6.80207">
        <ele>689.135038</ele>
        <time>2024-12-06T13:12:20.000Z</time>
      </trkpt>
      <trkpt lat="43.71827" lon="6.80207">
        <ele>689.135038</ele>
        <time>2024-12-06T13:12:25.000Z</time>
      </trkpt>
      <trkpt lat="43.71827" lon="6.80207">
        <ele>689.135038</ele>
        <time>2024-12-06T13:12:38.000Z</time>
      </trkpt>
      <trkpt lat="43.71827" lon="6.80207">
        <ele>689.135038</ele>
        <time>2024-12-06T13:12:50.000Z</time>
      </trkpt>
      <trkpt lat="43.71827" lon="6.80207">
        <ele>689.135038</ele>
        <time>2024-12-06T13:13:07.000Z</time>
      </trkpt>
      <trkpt lat="43.71827" lon="6.80207">
        <ele>689.135038</ele>
        <time>2024-12-06T13:13:18.000Z</time>
      </trkpt>
      <trkpt lat="43.71827" lon="6.80207">
        <ele>689.135038</ele>
        <time>2024-12-06T13:13:29.000Z</time>
      </trkpt>
      <trkpt lat="43.71827" lon="6.80207">
        <ele>689.135038</ele>
        <time>2024-12-06T13:13:40.000Z</time>
      </trkpt>
      <trkpt lat="43.71827" lon="6.80207">
        <ele>689.135038</ele>
        <time>2024-12-06T13:13:55.000Z</time>
      </trkpt>
      <trkpt lat="43.71827" lon="6.80207">
        <ele>689.135038</ele>
        <time>2024-12-06T13:14:06.000Z</time>
      </trkpt>
      <trkpt lat="43.71827" lon="6.80207">
        <ele>689.077328</ele>
        <time>2024-12-06T13:14:17.000Z</time>
      </trkpt>
      <trkpt lat="43.71827" lon="6.80207">
        <ele>689.077328</ele>
        <time>2024-12-06T13:14:30.000Z</time>
      </trkpt>
      <trkpt lat="43.71827" lon="6.80207">
        <ele>689.077328</ele>
        <time>2024-12-06T13:14:55.000Z</time>
      </trkpt>
      <trkpt lat="43.71827" lon="6.80207">
        <ele>689.077328</ele>
        <time>2024-12-06T13:15:30.000Z</time>
      </trkpt>
      <trkpt lat="43.71824" lon="6.80209">
        <ele>688.461347</ele>
        <time>2024-12-06T13:15:33.000Z</time>
      </trkpt>
      <trkpt lat="43.71821" lon="6.80211">
        <ele>687.89139</ele>
        <time>2024-12-06T13:15:35.000Z</time>
      </trkpt>
      <trkpt lat="43.71819" lon="6.80213">
        <ele>687.514319</ele>
        <time>2024-12-06T13:15:36.000Z</time>
      </trkpt>
      <trkpt lat="43.71817" lon="6.80214">
        <ele>687.111821</ele>
        <time>2024-12-06T13:15:37.000Z</time>
      </trkpt>
      <trkpt lat="43.71812" lon="6.80215">
        <ele>686.063448</ele>
        <time>2024-12-06T13:15:39.000Z</time>
      </trkpt>
      <trkpt lat="43.71808" lon="6.80216">
        <ele>685.326119</ele>
        <time>2024-12-06T13:15:40.000Z</time>
      </trkpt>
      <trkpt lat="43.71798" lon="6.80217">
        <ele>683.529505</ele>
        <time>2024-12-06T13:15:43.000Z</time>
      </trkpt>
      <trkpt lat="43.71796" lon="6.80216">
        <ele>683.073402</ele>
        <time>2024-12-06T13:15:44.000Z</time>
      </trkpt>
      <trkpt lat="43.71794" lon="6.80216">
        <ele>682.64136</ele>
        <time>2024-12-06T13:15:45.000Z</time>
      </trkpt>
      <trkpt lat="43.71792" lon="6.80215">
        <ele>682.248046</ele>
        <time>2024-12-06T13:15:46.000Z</time>
      </trkpt>
      <trkpt lat="43.7179" lon="6.80212">
        <ele>681.706247</ele>
        <time>2024-12-06T13:15:47.000Z</time>
      </trkpt>
      <trkpt lat="43.71788" lon="6.80209">
        <ele>681.128577</ele>
        <time>2024-12-06T13:15:48.000Z</time>
      </trkpt>
      <trkpt lat="43.71784" lon="6.80208">
        <ele>680.522696</ele>
        <time>2024-12-06T13:15:49.000Z</time>
      </trkpt>
      <trkpt lat="43.71781" lon="6.80208">
        <ele>679.999249</ele>
        <time>2024-12-06T13:15:50.000Z</time>
      </trkpt>
      <trkpt lat="43.71777" lon="6.8021">
        <ele>679.461887</ele>
        <time>2024-12-06T13:15:51.000Z</time>
      </trkpt>
      <trkpt lat="43.71769" lon="6.80216">
        <ele>678.265427</ele>
        <time>2024-12-06T13:15:53.000Z</time>
      </trkpt>
      <trkpt lat="43.71765" lon="6.80219">
        <ele>677.754453</ele>
        <time>2024-12-06T13:15:54.000Z</time>
      </trkpt>
      <trkpt lat="43.71762" lon="6.80222">
        <ele>677.222262</ele>
        <time>2024-12-06T13:15:55.000Z</time>
      </trkpt>
      <trkpt lat="43.71759" lon="6.80225">
        <ele>676.733154</ele>
        <time>2024-12-06T13:15:56.000Z</time>
      </trkpt>
      <trkpt lat="43.71755" lon="6.80228">
        <ele>676.18998</ele>
        <time>2024-12-06T13:15:57.000Z</time>
      </trkpt>
      <trkpt lat="43.71748" lon="6.80231">
        <ele>675.182098</ele>
        <time>2024-12-06T13:15:59.000Z</time>
      </trkpt>
      <trkpt lat="43.71745" lon="6.80231">
        <ele>674.758646</ele>
        <time>2024-12-06T13:16:00.000Z</time>
      </trkpt>
      <trkpt lat="43.71741" lon="6.80231">
        <ele>674.314149</ele>
        <time>2024-12-06T13:16:01.000Z</time>
      </trkpt>
      <trkpt lat="43.71738" lon="6.80232">
        <ele>673.855521</ele>
        <time>2024-12-06T13:16:02.000Z</time>
      </trkpt>
      <trkpt lat="43.71735" lon="6.80232">
        <ele>673.472262</ele>
        <time>2024-12-06T13:16:03.000Z</time>
      </trkpt>
      <trkpt lat="43.71732" lon="6.80233">
        <ele>673.040832</ele>
        <time>2024-12-06T13:16:04.000Z</time>
      </trkpt>
      <trkpt lat="43.71724" lon="6.80233">
        <ele>672.073569</ele>
        <time>2024-12-06T13:16:06.000Z</time>
      </trkpt>
      <trkpt lat="43.7172" lon="6.80233">
        <ele>671.510823</ele>
        <time>2024-12-06T13:16:07.000Z</time>
      </trkpt>
      <trkpt lat="43.7171" lon="6.80234">
        <ele>670.248079</ele>
        <time>2024-12-06T13:16:09.000Z</time>
      </trkpt>
      <trkpt lat="43.71705" lon="6.80236">
        <ele>669.533226</ele>
        <time>2024-12-06T13:16:10.000Z</time>
      </trkpt>
      <trkpt lat="43.717" lon="6.80237">
        <ele>668.853637</ele>
        <time>2024-12-06T13:16:11.000Z</time>
      </trkpt>
      <trkpt lat="43.71695" lon="6.80238">
        <ele>668.230596</ele>
        <time>2024-12-06T13:16:12.000Z</time>
      </trkpt>
      <trkpt lat="43.71692" lon="6.8024">
        <ele>667.726986</ele>
        <time>2024-12-06T13:16:13.000Z</time>
      </trkpt>
      <trkpt lat="43.71689" lon="6.80243">
        <ele>667.291424</ele>
        <time>2024-12-06T13:16:14.000Z</time>
      </trkpt>
      <trkpt lat="43.71686" lon="6.80245">
        <ele>666.817605</ele>
        <time>2024-12-06T13:16:15.000Z</time>
      </trkpt>
      <trkpt lat="43.71683" lon="6.80248">
        <ele>666.364991</ele>
        <time>2024-12-06T13:16:16.000Z</time>
      </trkpt>
      <trkpt lat="43.7168" lon="6.80252">
        <ele>665.854813</ele>
        <time>2024-12-06T13:16:17.000Z</time>
      </trkpt>
      <trkpt lat="43.71677" lon="6.80256">
        <ele>665.316767</ele>
        <time>2024-12-06T13:16:18.000Z</time>
      </trkpt>
      <trkpt lat="43.71675" lon="6.8026">
        <ele>664.778665</ele>
        <time>2024-12-06T13:16:19.000Z</time>
      </trkpt>
      <trkpt lat="43.71673" lon="6.80265">
        <ele>664.290595</ele>
        <time>2024-12-06T13:16:20.000Z</time>
      </trkpt>
      <trkpt lat="43.71672" lon="6.8027">
        <ele>663.787808</ele>
        <time>2024-12-06T13:16:21.000Z</time>
      </trkpt>
      <trkpt lat="43.71671" lon="6.80275">
        <ele>663.279477</ele>
        <time>2024-12-06T13:16:22.000Z</time>
      </trkpt>
      <trkpt lat="43.71669" lon="6.80281">
        <ele>662.71939</ele>
        <time>2024-12-06T13:16:23.000Z</time>
      </trkpt>
      <trkpt lat="43.71667" lon="6.80286">
        <ele>662.123395</ele>
        <time>2024-12-06T13:16:24.000Z</time>
      </trkpt>
      <trkpt lat="43.71664" lon="6.80291">
        <ele>661.502919</ele>
        <time>2024-12-06T13:16:25.000Z</time>
      </trkpt>
      <trkpt lat="43.71661" lon="6.80297">
        <ele>660.829472</ele>
        <time>2024-12-06T13:16:26.000Z</time>
      </trkpt>
      <trkpt lat="43.71657" lon="6.80302">
        <ele>660.168616</ele>
        <time>2024-12-06T13:16:27.000Z</time>
      </trkpt>
      <trkpt lat="43.71655" lon="6.80306">
        <ele>659.628834</ele>
        <time>2024-12-06T13:16:28.000Z</time>
      </trkpt>
      <trkpt lat="43.71652" lon="6.8031">
        <ele>659.090787</ele>
        <time>2024-12-06T13:16:29.000Z</time>
      </trkpt>
      <trkpt lat="43.71648" lon="6.80315">
        <ele>658.417339</ele>
        <time>2024-12-06T13:16:30.000Z</time>
      </trkpt>
      <trkpt lat="43.71645" lon="6.80321">
        <ele>657.751223</ele>
        <time>2024-12-06T13:16:31.000Z</time>
      </trkpt>
      <trkpt lat="43.71642" lon="6.80327">
        <ele>657.016202</ele>
        <time>2024-12-06T13:16:32.000Z</time>
      </trkpt>
      <trkpt lat="43.71635" lon="6.80339">
        <ele>655.81915</ele>
        <time>2024-12-06T13:16:34.000Z</time>
      </trkpt>
      <trkpt lat="43.71632" lon="6.80344">
        <ele>655.233983</ele>
        <time>2024-12-06T13:16:35.000Z</time>
      </trkpt>
      <trkpt lat="43.71628" lon="6.80349">
        <ele>654.760864</ele>
        <time>2024-12-06T13:16:36.000Z</time>
      </trkpt>
      <trkpt lat="43.71626" lon="6.80352">
        <ele>654.400003</ele>
        <time>2024-12-06T13:16:37.000Z</time>
      </trkpt>
      <trkpt lat="43.71623" lon="6.80354">
        <ele>654.076923</ele>
        <time>2024-12-06T13:16:38.000Z</time>
      </trkpt>
      <trkpt lat="43.71621" lon="6.80355">
        <ele>653.782829</ele>
        <time>2024-12-06T13:16:39.000Z</time>
      </trkpt>
      <trkpt lat="43.71618" lon="6.80357">
        <ele>653.4786</ele>
        <time>2024-12-06T13:16:40.000Z</time>
      </trkpt>
      <trkpt lat="43.71616" lon="6.80358">
        <ele>653.166862</ele>
        <time>2024-12-06T13:16:41.000Z</time>
      </trkpt>
      <trkpt lat="43.71608" lon="6.80361">
        <ele>652.272705</ele>
        <time>2024-12-06T13:16:44.000Z</time>
      </trkpt>
      <trkpt lat="43.71607" lon="6.80363">
        <ele>652.163537</ele>
        <time>2024-12-06T13:16:45.000Z</time>
      </trkpt>
      <trkpt lat="43.71607" lon="6.80363">
        <ele>652.099398</ele>
        <time>2024-12-06T13:16:49.000Z</time>
      </trkpt>
      <trkpt lat="43.71607" lon="6.80364">
        <ele>652.072489</ele>
        <time>2024-12-06T13:16:51.000Z</time>
      </trkpt>
      <trkpt lat="43.71607" lon="6.80364">
        <ele>652.072489</ele>
        <time>2024-12-06T13:16:53.000Z</time>
      </trkpt>
      <trkpt lat="43.71607" lon="6.80363">
        <ele>651.998279</ele>
        <time>2024-12-06T13:17:06.000Z</time>
      </trkpt>
      <trkpt lat="43.71607" lon="6.80363">
        <ele>651.998279</ele>
        <time>2024-12-06T13:17:09.000Z</time>
      </trkpt>
      <trkpt lat="43.71607" lon="6.80363">
        <ele>651.998279</ele>
        <time>2024-12-06T13:17:15.000Z</time>
      </trkpt>
      <trkpt lat="43.71607" lon="6.80363">
        <ele>651.998279</ele>
        <time>2024-12-06T13:17:23.000Z</time>
      </trkpt>
      <trkpt lat="43.71607" lon="6.80363">
        <ele>651.998279</ele>
        <time>2024-12-06T13:17:26.000Z</time>
      </trkpt>
      <trkpt lat="43.71607" lon="6.80363">
        <ele>651.998279</ele>
        <time>2024-12-06T13:17:30.000Z</time>
      </trkpt>
      <trkpt lat="43.71607" lon="6.80363">
        <ele>651.998279</ele>
        <time>2024-12-06T13:17:36.000Z</time>
      </trkpt>
      <trkpt lat="43.71607" lon="6.80363">
        <ele>651.998279</ele>
        <time>2024-12-06T13:17:41.000Z</time>
      </trkpt>
      <trkpt lat="43.71607" lon="6.80363">
        <ele>651.998279</ele>
        <time>2024-12-06T13:17:46.000Z</time>
      </trkpt>
      <trkpt lat="43.71607" lon="6.80363">
        <ele>651.998279</ele>
        <time>2024-12-06T13:17:50.000Z</time>
      </trkpt>
      <trkpt lat="43.71607" lon="6.80363">
        <ele>651.998279</ele>
        <time>2024-12-06T13:18:01.000Z</time>
      </trkpt>
      <trkpt lat="43.71607" lon="6.80363">
        <ele>651.998279</ele>
        <time>2024-12-06T13:18:11.000Z</time>
      </trkpt>
      <trkpt lat="43.71607" lon="6.80363">
        <ele>651.998279</ele>
        <time>2024-12-06T13:18:28.000Z</time>
      </trkpt>
      <trkpt lat="43.71607" lon="6.80367">
        <ele>651.68002</ele>
        <time>2024-12-06T13:18:34.000Z</time>
      </trkpt>
      <trkpt lat="43.71605" lon="6.80375">
        <ele>651.023822</ele>
        <time>2024-12-06T13:18:36.000Z</time>
      </trkpt>
      <trkpt lat="43.71602" lon="6.80379">
        <ele>650.576477</ele>
        <time>2024-12-06T13:18:37.000Z</time>
      </trkpt>
      <trkpt lat="43.71595" lon="6.80394">
        <ele>649.139057</ele>
        <time>2024-12-06T13:18:40.000Z</time>
      </trkpt>
      <trkpt lat="43.71592" lon="6.80398">
        <ele>648.698288</ele>
        <time>2024-12-06T13:18:41.000Z</time>
      </trkpt>
      <trkpt lat="43.7159" lon="6.80402">
        <ele>648.280125</ele>
        <time>2024-12-06T13:18:42.000Z</time>
      </trkpt>
      <trkpt lat="43.71587" lon="6.80405">
        <ele>647.884107</ele>
        <time>2024-12-06T13:18:43.000Z</time>
      </trkpt>
      <trkpt lat="43.71584" lon="6.80409">
        <ele>647.467017</ele>
        <time>2024-12-06T13:18:44.000Z</time>
      </trkpt>
      <trkpt lat="43.7158" lon="6.80411">
        <ele>646.974584</ele>
        <time>2024-12-06T13:18:45.000Z</time>
      </trkpt>
      <trkpt lat="43.71575" lon="6.80414">
        <ele>646.442817</ele>
        <time>2024-12-06T13:18:46.000Z</time>
      </trkpt>
      <trkpt lat="43.7157" lon="6.80416">
        <ele>645.854286</ele>
        <time>2024-12-06T13:18:47.000Z</time>
      </trkpt>
      <trkpt lat="43.71559" lon="6.80419">
        <ele>644.646806</ele>
        <time>2024-12-06T13:18:49.000Z</time>
      </trkpt>
      <trkpt lat="43.71554" lon="6.80418">
        <ele>644.108782</ele>
        <time>2024-12-06T13:18:50.000Z</time>
      </trkpt>
      <trkpt lat="43.7155" lon="6.80415">
        <ele>643.572589</ele>
        <time>2024-12-06T13:18:51.000Z</time>
      </trkpt>
      <trkpt lat="43.71546" lon="6.8041">
        <ele>642.990012</ele>
        <time>2024-12-06T13:18:52.000Z</time>
      </trkpt>
      <trkpt lat="43.71542" lon="6.80403">
        <ele>642.329107</ele>
        <time>2024-12-06T13:18:53.000Z</time>
      </trkpt>
      <trkpt lat="43.71538" lon="6.80396">
        <ele>641.612854</ele>
        <time>2024-12-06T13:18:54.000Z</time>
      </trkpt>
      <trkpt lat="43.71533" lon="6.8039">
        <ele>640.899376</ele>
        <time>2024-12-06T13:18:55.000Z</time>
      </trkpt>
      <trkpt lat="43.71529" lon="6.80383">
        <ele>640.166893</ele>
        <time>2024-12-06T13:18:56.000Z</time>
      </trkpt>
      <trkpt lat="43.71524" lon="6.80377">
        <ele>639.461496</ele>
        <time>2024-12-06T13:18:57.000Z</time>
      </trkpt>
      <trkpt lat="43.71518" lon="6.80373">
        <ele>638.78479</ele>
        <time>2024-12-06T13:18:58.000Z</time>
      </trkpt>
      <trkpt lat="43.71512" lon="6.80371">
        <ele>638.058687</ele>
        <time>2024-12-06T13:18:59.000Z</time>
      </trkpt>
      <trkpt lat="43.71504" lon="6.80372">
        <ele>637.247456</ele>
        <time>2024-12-06T13:19:00.000Z</time>
      </trkpt>
      <trkpt lat="43.71497" lon="6.80375">
        <ele>636.691848</ele>
        <time>2024-12-06T13:19:01.000Z</time>
      </trkpt>
      <trkpt lat="43.7149" lon="6.80378">
        <ele>636.165353</ele>
        <time>2024-12-06T13:19:02.000Z</time>
      </trkpt>
      <trkpt lat="43.71482" lon="6.80381">
        <ele>635.594264</ele>
        <time>2024-12-06T13:19:03.000Z</time>
      </trkpt>
      <trkpt lat="43.71474" lon="6.80382">
        <ele>635.003157</ele>
        <time>2024-12-06T13:19:04.000Z</time>
      </trkpt>
      <trkpt lat="43.71466" lon="6.80384">
        <ele>634.412854</ele>
        <time>2024-12-06T13:19:05.000Z</time>
      </trkpt>
      <trkpt lat="43.71458" lon="6.80384">
        <ele>633.872435</ele>
        <time>2024-12-06T13:19:06.000Z</time>
      </trkpt>
      <trkpt lat="43.71452" lon="6.80383">
        <ele>633.401753</ele>
        <time>2024-12-06T13:19:07.000Z</time>
      </trkpt>
      <trkpt lat="43.71446" lon="6.80382">
        <ele>632.937072</ele>
        <time>2024-12-06T13:19:08.000Z</time>
      </trkpt>
      <trkpt lat="43.71439" lon="6.8038">
        <ele>632.464318</ele>
        <time>2024-12-06T13:19:09.000Z</time>
      </trkpt>
      <trkpt lat="43.71433" lon="6.80378">
        <ele>631.996151</ele>
        <time>2024-12-06T13:19:10.000Z</time>
      </trkpt>
      <trkpt lat="43.71419" lon="6.80374">
        <ele>630.981293</ele>
        <time>2024-12-06T13:19:12.000Z</time>
      </trkpt>
      <trkpt lat="43.71404" lon="6.80375">
        <ele>629.906446</ele>
        <time>2024-12-06T13:19:14.000Z</time>
      </trkpt>
      <trkpt lat="43.71389" lon="6.80378">
        <ele>628.827916</ele>
        <time>2024-12-06T13:19:16.000Z</time>
      </trkpt>
      <trkpt lat="43.71382" lon="6.8038">
        <ele>628.321002</ele>
        <time>2024-12-06T13:19:17.000Z</time>
      </trkpt>
      <trkpt lat="43.71376" lon="6.80381">
        <ele>627.822858</ele>
        <time>2024-12-06T13:19:18.000Z</time>
      </trkpt>
      <trkpt lat="43.71362" lon="6.80381">
        <ele>626.834858</ele>
        <time>2024-12-06T13:19:20.000Z</time>
      </trkpt>
      <trkpt lat="43.71355" lon="6.80382">
        <ele>626.355873</ele>
        <time>2024-12-06T13:19:21.000Z</time>
      </trkpt>
      <trkpt lat="43.71342" lon="6.80382">
        <ele>625.38248</ele>
        <time>2024-12-06T13:19:23.000Z</time>
      </trkpt>
      <trkpt lat="43.71335" lon="6.8038">
        <ele>624.879217</ele>
        <time>2024-12-06T13:19:24.000Z</time>
      </trkpt>
      <trkpt lat="43.7132" lon="6.80377">
        <ele>623.729703</ele>
        <time>2024-12-06T13:19:26.000Z</time>
      </trkpt>
      <trkpt lat="43.71305" lon="6.80374">
        <ele>622.415404</ele>
        <time>2024-12-06T13:19:28.000Z</time>
      </trkpt>
      <trkpt lat="43.71298" lon="6.80374">
        <ele>621.767768</ele>
        <time>2024-12-06T13:19:29.000Z</time>
      </trkpt>
      <trkpt lat="43.7129" lon="6.80376">
        <ele>621.122808</ele>
        <time>2024-12-06T13:19:30.000Z</time>
      </trkpt>
      <trkpt lat="43.71283" lon="6.80381">
        <ele>620.441811</ele>
        <time>2024-12-06T13:19:31.000Z</time>
      </trkpt>
      <trkpt lat="43.71276" lon="6.80386">
        <ele>619.794612</ele>
        <time>2024-12-06T13:19:32.000Z</time>
      </trkpt>
      <trkpt lat="43.7127" lon="6.80392">
        <ele>619.128852</ele>
        <time>2024-12-06T13:19:33.000Z</time>
      </trkpt>
      <trkpt lat="43.71264" lon="6.80399">
        <ele>618.456075</ele>
        <time>2024-12-06T13:19:34.000Z</time>
      </trkpt>
      <trkpt lat="43.71258" lon="6.80407">
        <ele>617.810858</ele>
        <time>2024-12-06T13:19:35.000Z</time>
      </trkpt>
      <trkpt lat="43.71253" lon="6.80414">
        <ele>617.145626</ele>
        <time>2024-12-06T13:19:36.000Z</time>
      </trkpt>
      <trkpt lat="43.71248" lon="6.80423">
        <ele>616.454215</ele>
        <time>2024-12-06T13:19:37.000Z</time>
      </trkpt>
      <trkpt lat="43.71238" lon="6.80438">
        <ele>615.205351</ele>
        <time>2024-12-06T13:19:39.000Z</time>
      </trkpt>
      <trkpt lat="43.71233" lon="6.80443">
        <ele>614.697042</ele>
        <time>2024-12-06T13:19:40.000Z</time>
      </trkpt>
      <trkpt lat="43.71228" lon="6.80446">
        <ele>614.258522</ele>
        <time>2024-12-06T13:19:41.000Z</time>
      </trkpt>
      <trkpt lat="43.71225" lon="6.80447">
        <ele>613.980268</ele>
        <time>2024-12-06T13:19:42.000Z</time>
      </trkpt>
      <trkpt lat="43.71224" lon="6.80447">
        <ele>613.841721</ele>
        <time>2024-12-06T13:19:43.000Z</time>
      </trkpt>
      <trkpt lat="43.71223" lon="6.80447">
        <ele>613.771092</ele>
        <time>2024-12-06T13:19:46.000Z</time>
      </trkpt>
      <trkpt lat="43.71222" lon="6.80448">
        <ele>613.693724</ele>
        <time>2024-12-06T13:19:54.000Z</time>
      </trkpt>
      <trkpt lat="43.71213" lon="6.80452">
        <ele>612.84287</ele>
        <time>2024-12-06T13:20:01.000Z</time>
      </trkpt>
      <trkpt lat="43.71203" lon="6.80454">
        <ele>611.97906</ele>
        <time>2024-12-06T13:20:03.000Z</time>
      </trkpt>
      <trkpt lat="43.71197" lon="6.80455">
        <ele>611.52639</ele>
        <time>2024-12-06T13:20:04.000Z</time>
      </trkpt>
      <trkpt lat="43.7119" lon="6.80455">
        <ele>610.878315</ele>
        <time>2024-12-06T13:20:05.000Z</time>
      </trkpt>
      <trkpt lat="43.71179" lon="6.80457">
        <ele>610.004261</ele>
        <time>2024-12-06T13:20:06.000Z</time>
      </trkpt>
      <trkpt lat="43.71172" lon="6.80459">
        <ele>609.36763</ele>
        <time>2024-12-06T13:20:07.000Z</time>
      </trkpt>
      <trkpt lat="43.71161" lon="6.80463">
        <ele>607.89097</ele>
        <time>2024-12-06T13:20:08.000Z</time>
      </trkpt>
      <trkpt lat="43.71153" lon="6.80466">
        <ele>606.578812</ele>
        <time>2024-12-06T13:20:09.000Z</time>
      </trkpt>
      <trkpt lat="43.71145" lon="6.80469">
        <ele>605.391484</ele>
        <time>2024-12-06T13:20:10.000Z</time>
      </trkpt>
      <trkpt lat="43.71139" lon="6.80472">
        <ele>604.473269</ele>
        <time>2024-12-06T13:20:11.000Z</time>
      </trkpt>
      <trkpt lat="43.7113" lon="6.80474">
        <ele>603.02515</ele>
        <time>2024-12-06T13:20:12.000Z</time>
      </trkpt>
      <trkpt lat="43.71123" lon="6.80476">
        <ele>601.973232</ele>
        <time>2024-12-06T13:20:13.000Z</time>
      </trkpt>
      <trkpt lat="43.71115" lon="6.80477">
        <ele>600.778492</ele>
        <time>2024-12-06T13:20:14.000Z</time>
      </trkpt>
      <trkpt lat="43.71108" lon="6.80477">
        <ele>599.69409</ele>
        <time>2024-12-06T13:20:15.000Z</time>
      </trkpt>
      <trkpt lat="43.71099" lon="6.80478">
        <ele>598.410998</ele>
        <time>2024-12-06T13:20:16.000Z</time>
      </trkpt>
      <trkpt lat="43.71094" lon="6.80478">
        <ele>597.566984</ele>
        <time>2024-12-06T13:20:17.000Z</time>
      </trkpt>
      <trkpt lat="43.71086" lon="6.80476">
        <ele>596.424104</ele>
        <time>2024-12-06T13:20:18.000Z</time>
      </trkpt>
      <trkpt lat="43.71078" lon="6.80474">
        <ele>595.180926</ele>
        <time>2024-12-06T13:20:19.000Z</time>
      </trkpt>
      <trkpt lat="43.7107" lon="6.80473">
        <ele>593.89042</ele>
        <time>2024-12-06T13:20:20.000Z</time>
      </trkpt>
      <trkpt lat="43.7106" lon="6.80472">
        <ele>592.456333</ele>
        <time>2024-12-06T13:20:21.000Z</time>
      </trkpt>
      <trkpt lat="43.71052" lon="6.80474">
        <ele>591.261616</ele>
        <time>2024-12-06T13:20:22.000Z</time>
      </trkpt>
      <trkpt lat="43.71046" lon="6.80476">
        <ele>590.224537</ele>
        <time>2024-12-06T13:20:23.000Z</time>
      </trkpt>
      <trkpt lat="43.71039" lon="6.8048">
        <ele>589.216046</ele>
        <time>2024-12-06T13:20:24.000Z</time>
      </trkpt>
      <trkpt lat="43.71035" lon="6.80484">
        <ele>588.40928</ele>
        <time>2024-12-06T13:20:25.000Z</time>
      </trkpt>
      <trkpt lat="43.71033" lon="6.80491">
        <ele>587.568332</ele>
        <time>2024-12-06T13:20:26.000Z</time>
      </trkpt>
      <trkpt lat="43.71032" lon="6.80498">
        <ele>586.878375</ele>
        <time>2024-12-06T13:20:27.000Z</time>
      </trkpt>
      <trkpt lat="43.71033" lon="6.80507">
        <ele>585.849647</ele>
        <time>2024-12-06T13:20:28.000Z</time>
      </trkpt>
      <trkpt lat="43.71035" lon="6.80515">
        <ele>584.88687</ele>
        <time>2024-12-06T13:20:29.000Z</time>
      </trkpt>
      <trkpt lat="43.7104" lon="6.80524">
        <ele>583.75739</ele>
        <time>2024-12-06T13:20:30.000Z</time>
      </trkpt>
      <trkpt lat="43.71045" lon="6.80532">
        <ele>582.460951</ele>
        <time>2024-12-06T13:20:31.000Z</time>
      </trkpt>
      <trkpt lat="43.71051" lon="6.80542">
        <ele>581.356144</ele>
        <time>2024-12-06T13:20:32.000Z</time>
      </trkpt>
      <trkpt lat="43.71055" lon="6.80551">
        <ele>580.458881</ele>
        <time>2024-12-06T13:20:33.000Z</time>
      </trkpt>
      <trkpt lat="43.7106" lon="6.80558">
        <ele>579.653381</ele>
        <time>2024-12-06T13:20:34.000Z</time>
      </trkpt>
      <trkpt lat="43.71063" lon="6.80563">
        <ele>579.098737</ele>
        <time>2024-12-06T13:20:35.000Z</time>
      </trkpt>
      <trkpt lat="43.7107" lon="6.80568">
        <ele>578.217535</ele>
        <time>2024-12-06T13:20:36.000Z</time>
      </trkpt>
      <trkpt lat="43.71075" lon="6.80571">
        <ele>577.556542</ele>
        <time>2024-12-06T13:20:37.000Z</time>
      </trkpt>
      <trkpt lat="43.71082" lon="6.80574">
        <ele>576.785012</ele>
        <time>2024-12-06T13:20:38.000Z</time>
      </trkpt>
      <trkpt lat="43.71089" lon="6.80577">
        <ele>575.929838</ele>
        <time>2024-12-06T13:20:39.000Z</time>
      </trkpt>
      <trkpt lat="43.71097" lon="6.80579">
        <ele>575.036812</ele>
        <time>2024-12-06T13:20:40.000Z</time>
      </trkpt>
      <trkpt lat="43.71105" lon="6.80581">
        <ele>574.057497</ele>
        <time>2024-12-06T13:20:41.000Z</time>
      </trkpt>
      <trkpt lat="43.71113" lon="6.80583">
        <ele>573.143359</ele>
        <time>2024-12-06T13:20:42.000Z</time>
      </trkpt>
      <trkpt lat="43.7112" lon="6.80587">
        <ele>572.22881</ele>
        <time>2024-12-06T13:20:43.000Z</time>
      </trkpt>
      <trkpt lat="43.71135" lon="6.80587">
        <ele>570.550409</ele>
        <time>2024-12-06T13:20:45.000Z</time>
      </trkpt>
      <trkpt lat="43.71142" lon="6.80585">
        <ele>569.810607</ele>
        <time>2024-12-06T13:20:46.000Z</time>
      </trkpt>
      <trkpt lat="43.71147" lon="6.80583">
        <ele>569.103621</ele>
        <time>2024-12-06T13:20:47.000Z</time>
      </trkpt>
      <trkpt lat="43.71153" lon="6.80579">
        <ele>568.357041</ele>
        <time>2024-12-06T13:20:48.000Z</time>
      </trkpt>
      <trkpt lat="43.71159" lon="6.80573">
        <ele>567.60059</ele>
        <time>2024-12-06T13:20:49.000Z</time>
      </trkpt>
      <trkpt lat="43.71164" lon="6.80567">
        <ele>566.800426</ele>
        <time>2024-12-06T13:20:50.000Z</time>
      </trkpt>
      <trkpt lat="43.7117" lon="6.80559">
        <ele>565.821122</ele>
        <time>2024-12-06T13:20:51.000Z</time>
      </trkpt>
      <trkpt lat="43.71184" lon="6.80546">
        <ele>563.90461</ele>
        <time>2024-12-06T13:20:54.000Z</time>
      </trkpt>
      <trkpt lat="43.71187" lon="6.80547">
        <ele>563.544561</ele>
        <time>2024-12-06T13:20:55.000Z</time>
      </trkpt>
      <trkpt lat="43.71189" lon="6.8055">
        <ele>563.276992</ele>
        <time>2024-12-06T13:20:56.000Z</time>
      </trkpt>
      <trkpt lat="43.71188" lon="6.80554">
        <ele>562.939844</ele>
        <time>2024-12-06T13:20:57.000Z</time>
      </trkpt>
      <trkpt lat="43.71186" lon="6.80556">
        <ele>562.601067</ele>
        <time>2024-12-06T13:20:58.000Z</time>
      </trkpt>
      <trkpt lat="43.71183" lon="6.80559">
        <ele>562.192439</ele>
        <time>2024-12-06T13:20:59.000Z</time>
      </trkpt>
      <trkpt lat="43.71176" lon="6.80567">
        <ele>561.386321</ele>
        <time>2024-12-06T13:21:01.000Z</time>
      </trkpt>
      <trkpt lat="43.71172" lon="6.80571">
        <ele>561.357525</ele>
        <time>2024-12-06T13:21:02.000Z</time>
      </trkpt>
      <trkpt lat="43.7117" lon="6.80575">
        <ele>561.336139</ele>
        <time>2024-12-06T13:21:03.000Z</time>
      </trkpt>
      <trkpt lat="43.71169" lon="6.80579">
        <ele>561.316464</ele>
        <time>2024-12-06T13:21:04.000Z</time>
      </trkpt>
      <trkpt lat="43.71169" lon="6.80583">
        <ele>561.295847</ele>
        <time>2024-12-06T13:21:05.000Z</time>
      </trkpt>
      <trkpt lat="43.71171" lon="6.80588">
        <ele>561.273597</ele>
        <time>2024-12-06T13:21:06.000Z</time>
      </trkpt>
      <trkpt lat="43.71172" lon="6.80591">
        <ele>561.258292</ele>
        <time>2024-12-06T13:21:07.000Z</time>
      </trkpt>
      <trkpt lat="43.71173" lon="6.80594">
        <ele>561.243545</ele>
        <time>2024-12-06T13:21:08.000Z</time>
      </trkpt>
      <trkpt lat="43.71173" lon="6.80595">
        <ele>561.241759</ele>
        <time>2024-12-06T13:21:09.000Z</time>
      </trkpt>
      <trkpt lat="43.71173" lon="6.80595">
        <ele>561.238545</ele>
        <time>2024-12-06T13:21:11.000Z</time>
      </trkpt>
      <trkpt lat="43.71173" lon="6.80596">
        <ele>561.23271</ele>
        <time>2024-12-06T13:21:20.000Z</time>
      </trkpt>
      <trkpt lat="43.71173" lon="6.80597">
        <ele>561.229524</ele>
        <time>2024-12-06T13:21:27.000Z</time>
      </trkpt>
      <trkpt lat="43.71173" lon="6.80597">
        <ele>561.229524</ele>
        <time>2024-12-06T13:21:33.000Z</time>
      </trkpt>
      <trkpt lat="43.71173" lon="6.80597">
        <ele>561.229524</ele>
        <time>2024-12-06T13:21:45.000Z</time>
      </trkpt>
      <trkpt lat="43.71173" lon="6.80597">
        <ele>561.229524</ele>
        <time>2024-12-06T13:21:55.000Z</time>
      </trkpt>
      <trkpt lat="43.71173" lon="6.80597">
        <ele>561.229524</ele>
        <time>2024-12-06T13:21:57.000Z</time>
      </trkpt>
      <trkpt lat="43.71173" lon="6.80597">
        <ele>561.229524</ele>
        <time>2024-12-06T13:22:02.000Z</time>
      </trkpt>
      <trkpt lat="43.71175" lon="6.80601">
        <ele>561.207139</ele>
        <time>2024-12-06T13:22:08.000Z</time>
      </trkpt>
      <trkpt lat="43.71176" lon="6.80604">
        <ele>561.191525</ele>
        <time>2024-12-06T13:22:09.000Z</time>
      </trkpt>
      <trkpt lat="43.71177" lon="6.80608">
        <ele>561.174825</ele>
        <time>2024-12-06T13:22:10.000Z</time>
      </trkpt>
      <trkpt lat="43.7118" lon="6.80625">
        <ele>561.09539</ele>
        <time>2024-12-06T13:22:14.000Z</time>
      </trkpt>
      <trkpt lat="43.7118" lon="6.80635">
        <ele>561.051575</ele>
        <time>2024-12-06T13:22:16.000Z</time>
      </trkpt>
      <trkpt lat="43.71179" lon="6.8064">
        <ele>561.030069</ele>
        <time>2024-12-06T13:22:17.000Z</time>
      </trkpt>
      <trkpt lat="43.71178" lon="6.8066">
        <ele>560.941064</ele>
        <time>2024-12-06T13:22:21.000Z</time>
      </trkpt>
      <trkpt lat="43.71172" lon="6.80674">
        <ele>560.867459</ele>
        <time>2024-12-06T13:22:24.000Z</time>
      </trkpt>
      <trkpt lat="43.7117" lon="6.80678">
        <ele>560.843854</ele>
        <time>2024-12-06T13:22:25.000Z</time>
      </trkpt>
      <trkpt lat="43.71167" lon="6.80682">
        <ele>560.819749</ele>
        <time>2024-12-06T13:22:26.000Z</time>
      </trkpt>
      <trkpt lat="43.7116" lon="6.807">
        <ele>560.729588</ele>
        <time>2024-12-06T13:22:30.000Z</time>
      </trkpt>
      <trkpt lat="43.71159" lon="6.80704">
        <ele>560.709336</ele>
        <time>2024-12-06T13:22:31.000Z</time>
      </trkpt>
      <trkpt lat="43.71158" lon="6.80709">
        <ele>560.687782</ele>
        <time>2024-12-06T13:22:32.000Z</time>
      </trkpt>
      <trkpt lat="43.71158" lon="6.80713">
        <ele>560.671199</ele>
        <time>2024-12-06T13:22:33.000Z</time>
      </trkpt>
      <trkpt lat="43.71157" lon="6.80716">
        <ele>560.654387</ele>
        <time>2024-12-06T13:22:34.000Z</time>
      </trkpt>
      <trkpt lat="43.71156" lon="6.80719">
        <ele>560.639198</ele>
        <time>2024-12-06T13:22:35.000Z</time>
      </trkpt>
      <trkpt lat="43.71151" lon="6.80729">
        <ele>560.587102</ele>
        <time>2024-12-06T13:22:38.000Z</time>
      </trkpt>
      <trkpt lat="43.71149" lon="6.80732">
        <ele>560.566954</ele>
        <time>2024-12-06T13:22:39.000Z</time>
      </trkpt>
      <trkpt lat="43.71146" lon="6.80734">
        <ele>560.545553</ele>
        <time>2024-12-06T13:22:40.000Z</time>
      </trkpt>
      <trkpt lat="43.71143" lon="6.80736">
        <ele>560.527234</ele>
        <time>2024-12-06T13:22:41.000Z</time>
      </trkpt>
      <trkpt lat="43.7114" lon="6.80738">
        <ele>560.507605</ele>
        <time>2024-12-06T13:22:42.000Z</time>
      </trkpt>
      <trkpt lat="43.71137" lon="6.80739">
        <ele>560.489062</ele>
        <time>2024-12-06T13:22:43.000Z</time>
      </trkpt>
      <trkpt lat="43.71134" lon="6.80741">
        <ele>560.470094</ele>
        <time>2024-12-06T13:22:44.000Z</time>
      </trkpt>
      <trkpt lat="43.71131" lon="6.80742">
        <ele>560.447613</ele>
        <time>2024-12-06T13:22:45.000Z</time>
      </trkpt>
      <trkpt lat="43.71128" lon="6.80744">
        <ele>560.42902</ele>
        <time>2024-12-06T13:22:46.000Z</time>
      </trkpt>
      <trkpt lat="43.71126" lon="6.80746">
        <ele>560.414813</ele>
        <time>2024-12-06T13:22:47.000Z</time>
      </trkpt>
      <trkpt lat="43.71124" lon="6.80747">
        <ele>560.399666</ele>
        <time>2024-12-06T13:22:48.000Z</time>
      </trkpt>
      <trkpt lat="43.71122" lon="6.80749">
        <ele>560.385071</ele>
        <time>2024-12-06T13:22:49.000Z</time>
      </trkpt>
      <trkpt lat="43.7112" lon="6.8075">
        <ele>560.373285</ele>
        <time>2024-12-06T13:22:50.000Z</time>
      </trkpt>
      <trkpt lat="43.71118" lon="6.80752">
        <ele>560.358551</ele>
        <time>2024-12-06T13:22:51.000Z</time>
      </trkpt>
      <trkpt lat="43.71116" lon="6.80753">
        <ele>560.342209</ele>
        <time>2024-12-06T13:22:52.000Z</time>
      </trkpt>
      <trkpt lat="43.71114" lon="6.80754">
        <ele>560.327255</ele>
        <time>2024-12-06T13:22:53.000Z</time>
      </trkpt>
      <trkpt lat="43.71111" lon="6.80757">
        <ele>560.308152</ele>
        <time>2024-12-06T13:22:54.000Z</time>
      </trkpt>
      <trkpt lat="43.71108" lon="6.80759">
        <ele>560.294212</ele>
        <time>2024-12-06T13:22:55.000Z</time>
      </trkpt>
      <trkpt lat="43.71105" lon="6.8076">
        <ele>560.342924</ele>
        <time>2024-12-06T13:22:56.000Z</time>
      </trkpt>
      <trkpt lat="43.71102" lon="6.80761">
        <ele>560.395516</ele>
        <time>2024-12-06T13:22:57.000Z</time>
      </trkpt>
      <trkpt lat="43.71098" lon="6.80762">
        <ele>560.444687</ele>
        <time>2024-12-06T13:22:58.000Z</time>
      </trkpt>
      <trkpt lat="43.71095" lon="6.80762">
        <ele>560.494916</ele>
        <time>2024-12-06T13:22:59.000Z</time>
      </trkpt>
      <trkpt lat="43.71091" lon="6.80762">
        <ele>560.549577</ele>
        <time>2024-12-06T13:23:00.000Z</time>
      </trkpt>
      <trkpt lat="43.71088" lon="6.80761">
        <ele>560.598516</ele>
        <time>2024-12-06T13:23:01.000Z</time>
      </trkpt>
      <trkpt lat="43.71084" lon="6.80761">
        <ele>560.65171</ele>
        <time>2024-12-06T13:23:02.000Z</time>
      </trkpt>
      <trkpt lat="43.71081" lon="6.8076">
        <ele>560.704118</ele>
        <time>2024-12-06T13:23:03.000Z</time>
      </trkpt>
      <trkpt lat="43.71077" lon="6.8076">
        <ele>560.756525</ele>
        <time>2024-12-06T13:23:04.000Z</time>
      </trkpt>
      <trkpt lat="43.71074" lon="6.80759">
        <ele>560.805847</ele>
        <time>2024-12-06T13:23:05.000Z</time>
      </trkpt>
      <trkpt lat="43.71071" lon="6.80758">
        <ele>560.855169</ele>
        <time>2024-12-06T13:23:06.000Z</time>
      </trkpt>
      <trkpt lat="43.71067" lon="6.80757">
        <ele>560.904859</ele>
        <time>2024-12-06T13:23:07.000Z</time>
      </trkpt>
      <trkpt lat="43.71064" lon="6.80757">
        <ele>560.957103</ele>
        <time>2024-12-06T13:23:08.000Z</time>
      </trkpt>
      <trkpt lat="43.7106" lon="6.80756">
        <ele>561.009205</ele>
        <time>2024-12-06T13:23:09.000Z</time>
      </trkpt>
      <trkpt lat="43.71057" lon="6.80755">
        <ele>561.067304</ele>
        <time>2024-12-06T13:23:10.000Z</time>
      </trkpt>
      <trkpt lat="43.71053" lon="6.80755">
        <ele>561.119711</ele>
        <time>2024-12-06T13:23:11.000Z</time>
      </trkpt>
      <trkpt lat="43.71033" lon="6.80751">
        <ele>561.420463</ele>
        <time>2024-12-06T13:23:17.000Z</time>
      </trkpt>
      <trkpt lat="43.7103" lon="6.8075">
        <ele>561.467743</ele>
        <time>2024-12-06T13:23:18.000Z</time>
      </trkpt>
      <trkpt lat="43.71027" lon="6.80749">
        <ele>561.512166</ele>
        <time>2024-12-06T13:23:19.000Z</time>
      </trkpt>
      <trkpt lat="43.71024" lon="6.80747">
        <ele>561.55615</ele>
        <time>2024-12-06T13:23:20.000Z</time>
      </trkpt>
      <trkpt lat="43.71022" lon="6.80745">
        <ele>561.599899</ele>
        <time>2024-12-06T13:23:21.000Z</time>
      </trkpt>
      <trkpt lat="43.71019" lon="6.80743">
        <ele>561.63879</ele>
        <time>2024-12-06T13:23:22.000Z</time>
      </trkpt>
      <trkpt lat="43.71017" lon="6.80742">
        <ele>561.674565</ele>
        <time>2024-12-06T13:23:23.000Z</time>
      </trkpt>
      <trkpt lat="43.71015" lon="6.8074">
        <ele>561.71088</ele>
        <time>2024-12-06T13:23:24.000Z</time>
      </trkpt>
      <trkpt lat="43.7101" lon="6.80738">
        <ele>561.792207</ele>
        <time>2024-12-06T13:23:26.000Z</time>
      </trkpt>
      <trkpt lat="43.71007" lon="6.80737">
        <ele>561.831149</ele>
        <time>2024-12-06T13:23:27.000Z</time>
      </trkpt>
      <trkpt lat="43.71004" lon="6.80737">
        <ele>561.871037</ele>
        <time>2024-12-06T13:23:28.000Z</time>
      </trkpt>
      <trkpt lat="43.71001" lon="6.80737">
        <ele>561.915356</ele>
        <time>2024-12-06T13:23:29.000Z</time>
      </trkpt>
      <trkpt lat="43.70998" lon="6.80737">
        <ele>561.961944</ele>
        <time>2024-12-06T13:23:30.000Z</time>
      </trkpt>
      <trkpt lat="43.70995" lon="6.80736">
        <ele>562.007791</ele>
        <time>2024-12-06T13:23:31.000Z</time>
      </trkpt>
      <trkpt lat="43.70992" lon="6.80737">
        <ele>562.052226</ele>
        <time>2024-12-06T13:23:32.000Z</time>
      </trkpt>
      <trkpt lat="43.70989" lon="6.80737">
        <ele>562.101083</ele>
        <time>2024-12-06T13:23:33.000Z</time>
      </trkpt>
      <trkpt lat="43.70986" lon="6.80737">
        <ele>562.148406</ele>
        <time>2024-12-06T13:23:34.000Z</time>
      </trkpt>
      <trkpt lat="43.70982" lon="6.80737">
        <ele>562.197204</ele>
        <time>2024-12-06T13:23:35.000Z</time>
      </trkpt>
      <trkpt lat="43.70979" lon="6.80738">
        <ele>562.246699</ele>
        <time>2024-12-06T13:23:36.000Z</time>
      </trkpt>
      <trkpt lat="43.70976" lon="6.80739">
        <ele>562.29765</ele>
        <time>2024-12-06T13:23:37.000Z</time>
      </trkpt>
      <trkpt lat="43.70973" lon="6.8074">
        <ele>562.345512</ele>
        <time>2024-12-06T13:23:38.000Z</time>
      </trkpt>
      <trkpt lat="43.70969" lon="6.8074">
        <ele>562.400682</ele>
        <time>2024-12-06T13:23:39.000Z</time>
      </trkpt>
      <trkpt lat="43.70966" lon="6.80741">
        <ele>562.450589</ele>
        <time>2024-12-06T13:23:40.000Z</time>
      </trkpt>
      <trkpt lat="43.70962" lon="6.80742">
        <ele>562.499055</ele>
        <time>2024-12-06T13:23:41.000Z</time>
      </trkpt>
      <trkpt lat="43.70959" lon="6.80743">
        <ele>562.546917</ele>
        <time>2024-12-06T13:23:42.000Z</time>
      </trkpt>
      <trkpt lat="43.70956" lon="6.80744">
        <ele>562.591635</ele>
        <time>2024-12-06T13:23:43.000Z</time>
      </trkpt>
      <trkpt lat="43.70951" lon="6.80747">
        <ele>562.669956</ele>
        <time>2024-12-06T13:23:44.000Z</time>
      </trkpt>
      <trkpt lat="43.70947" lon="6.8075">
        <ele>562.746507</ele>
        <time>2024-12-06T13:23:45.000Z</time>
      </trkpt>
      <trkpt lat="43.70942" lon="6.80752">
        <ele>562.81527</ele>
        <time>2024-12-06T13:23:46.000Z</time>
      </trkpt>
      <trkpt lat="43.70936" lon="6.80756">
        <ele>562.914417</ele>
        <time>2024-12-06T13:23:47.000Z</time>
      </trkpt>
      <trkpt lat="43.70932" lon="6.80758">
        <ele>563.005387</ele>
        <time>2024-12-06T13:23:48.000Z</time>
      </trkpt>
      <trkpt lat="43.70922" lon="6.80766">
        <ele>563.302438</ele>
        <time>2024-12-06T13:23:50.000Z</time>
      </trkpt>
      <trkpt lat="43.70917" lon="6.8077">
        <ele>563.435666</ele>
        <time>2024-12-06T13:23:51.000Z</time>
      </trkpt>
      <trkpt lat="43.70913" lon="6.80775">
        <ele>563.569824</ele>
        <time>2024-12-06T13:23:52.000Z</time>
      </trkpt>
      <trkpt lat="43.70909" lon="6.80781">
        <ele>563.720625</ele>
        <time>2024-12-06T13:23:53.000Z</time>
      </trkpt>
      <trkpt lat="43.709" lon="6.80792">
        <ele>564.0236</ele>
        <time>2024-12-06T13:23:55.000Z</time>
      </trkpt>
      <trkpt lat="43.70893" lon="6.80797">
        <ele>564.220899</ele>
        <time>2024-12-06T13:23:56.000Z</time>
      </trkpt>
      <trkpt lat="43.70887" lon="6.808">
        <ele>564.378777</ele>
        <time>2024-12-06T13:23:57.000Z</time>
      </trkpt>
      <trkpt lat="43.70881" lon="6.808">
        <ele>564.53698</ele>
        <time>2024-12-06T13:23:58.000Z</time>
      </trkpt>
      <trkpt lat="43.70875" lon="6.80798">
        <ele>564.679776</ele>
        <time>2024-12-06T13:23:59.000Z</time>
      </trkpt>
      <trkpt lat="43.70871" lon="6.80795">
        <ele>564.788547</ele>
        <time>2024-12-06T13:24:00.000Z</time>
      </trkpt>
      <trkpt lat="43.70866" lon="6.80792">
        <ele>564.939813</ele>
        <time>2024-12-06T13:24:01.000Z</time>
      </trkpt>
      <trkpt lat="43.70861" lon="6.8079">
        <ele>565.060357</ele>
        <time>2024-12-06T13:24:02.000Z</time>
      </trkpt>
      <trkpt lat="43.70856" lon="6.8079">
        <ele>565.178499</ele>
        <time>2024-12-06T13:24:03.000Z</time>
      </trkpt>
      <trkpt lat="43.70852" lon="6.8079">
        <ele>565.294062</ele>
        <time>2024-12-06T13:24:04.000Z</time>
      </trkpt>
      <trkpt lat="43.70848" lon="6.8079">
        <ele>565.392142</ele>
        <time>2024-12-06T13:24:05.000Z</time>
      </trkpt>
      <trkpt lat="43.70842" lon="6.80791">
        <ele>565.528172</ele>
        <time>2024-12-06T13:24:06.000Z</time>
      </trkpt>
      <trkpt lat="43.70834" lon="6.80793">
        <ele>565.740724</ele>
        <time>2024-12-06T13:24:08.000Z</time>
      </trkpt>
      <trkpt lat="43.70829" lon="6.80795">
        <ele>565.875418</ele>
        <time>2024-12-06T13:24:09.000Z</time>
      </trkpt>
      <trkpt lat="43.70825" lon="6.80798">
        <ele>565.974327</ele>
        <time>2024-12-06T13:24:10.000Z</time>
      </trkpt>
      <trkpt lat="43.7082" lon="6.80804">
        <ele>566.157274</ele>
        <time>2024-12-06T13:24:12.000Z</time>
      </trkpt>
      <trkpt lat="43.70817" lon="6.80807">
        <ele>566.241952</ele>
        <time>2024-12-06T13:24:13.000Z</time>
      </trkpt>
      <trkpt lat="43.70814" lon="6.80809">
        <ele>566.322538</ele>
        <time>2024-12-06T13:24:14.000Z</time>
      </trkpt>
      <trkpt lat="43.70812" lon="6.80811">
        <ele>566.385585</ele>
        <time>2024-12-06T13:24:15.000Z</time>
      </trkpt>
      <trkpt lat="43.70805" lon="6.8082">
        <ele>566.625547</ele>
        <time>2024-12-06T13:24:18.000Z</time>
      </trkpt>
      <trkpt lat="43.70803" lon="6.80822">
        <ele>566.690612</ele>
        <time>2024-12-06T13:24:19.000Z</time>
      </trkpt>
      <trkpt lat="43.70801" lon="6.80824">
        <ele>566.74743</ele>
        <time>2024-12-06T13:24:20.000Z</time>
      </trkpt>
      <trkpt lat="43.70799" lon="6.80826">
        <ele>566.817782</ele>
        <time>2024-12-06T13:24:21.000Z</time>
      </trkpt>
      <trkpt lat="43.70798" lon="6.80828">
        <ele>566.864558</ele>
        <time>2024-12-06T13:24:22.000Z</time>
      </trkpt>
      <trkpt lat="43.70796" lon="6.80829">
        <ele>566.917004</ele>
        <time>2024-12-06T13:24:23.000Z</time>
      </trkpt>
      <trkpt lat="43.70793" lon="6.80831">
        <ele>566.987772</ele>
        <time>2024-12-06T13:24:24.000Z</time>
      </trkpt>
      <trkpt lat="43.70791" lon="6.80833">
        <ele>567.061607</ele>
        <time>2024-12-06T13:24:25.000Z</time>
      </trkpt>
      <trkpt lat="43.70789" lon="6.80835">
        <ele>567.120549</ele>
        <time>2024-12-06T13:24:26.000Z</time>
      </trkpt>
      <trkpt lat="43.70785" lon="6.80837">
        <ele>567.217757</ele>
        <time>2024-12-06T13:24:27.000Z</time>
      </trkpt>
      <trkpt lat="43.70782" lon="6.8084">
        <ele>567.308307</ele>
        <time>2024-12-06T13:24:28.000Z</time>
      </trkpt>
      <trkpt lat="43.7078" lon="6.80841">
        <ele>567.373026</ele>
        <time>2024-12-06T13:24:29.000Z</time>
      </trkpt>
      <trkpt lat="43.70777" lon="6.80843">
        <ele>567.438149</ele>
        <time>2024-12-06T13:24:30.000Z</time>
      </trkpt>
      <trkpt lat="43.70775" lon="6.80845">
        <ele>567.649822</ele>
        <time>2024-12-06T13:24:31.000Z</time>
      </trkpt>
      <trkpt lat="43.70773" lon="6.80846">
        <ele>567.862302</ele>
        <time>2024-12-06T13:24:32.000Z</time>
      </trkpt>
      <trkpt lat="43.7077" lon="6.80849">
        <ele>568.160288</ele>
        <time>2024-12-06T13:24:33.000Z</time>
      </trkpt>
      <trkpt lat="43.70767" lon="6.8085">
        <ele>568.401802</ele>
        <time>2024-12-06T13:24:34.000Z</time>
      </trkpt>
      <trkpt lat="43.70764" lon="6.80852">
        <ele>568.695048</ele>
        <time>2024-12-06T13:24:35.000Z</time>
      </trkpt>
      <trkpt lat="43.70761" lon="6.80854">
        <ele>568.993034</ele>
        <time>2024-12-06T13:24:36.000Z</time>
      </trkpt>
      <trkpt lat="43.70757" lon="6.80856">
        <ele>569.353373</ele>
        <time>2024-12-06T13:24:37.000Z</time>
      </trkpt>
      <trkpt lat="43.70754" lon="6.80857">
        <ele>569.655781</ele>
        <time>2024-12-06T13:24:38.000Z</time>
      </trkpt>
      <trkpt lat="43.70751" lon="6.80858">
        <ele>569.955189</ele>
        <time>2024-12-06T13:24:39.000Z</time>
      </trkpt>
      <trkpt lat="43.70747" lon="6.80859">
        <ele>570.266177</ele>
        <time>2024-12-06T13:24:40.000Z</time>
      </trkpt>
      <trkpt lat="43.70744" lon="6.8086">
        <ele>570.585761</ele>
        <time>2024-12-06T13:24:41.000Z</time>
      </trkpt>
      <trkpt lat="43.7074" lon="6.80861">
        <ele>570.88269</ele>
        <time>2024-12-06T13:24:42.000Z</time>
      </trkpt>
      <trkpt lat="43.70737" lon="6.80861">
        <ele>571.175233</ele>
        <time>2024-12-06T13:24:43.000Z</time>
      </trkpt>
      <trkpt lat="43.70734" lon="6.8086">
        <ele>571.452656</ele>
        <time>2024-12-06T13:24:44.000Z</time>
      </trkpt>
      <trkpt lat="43.70731" lon="6.80861">
        <ele>571.736556</ele>
        <time>2024-12-06T13:24:45.000Z</time>
      </trkpt>
      <trkpt lat="43.70728" lon="6.80861">
        <ele>572.020455</ele>
        <time>2024-12-06T13:24:46.000Z</time>
      </trkpt>
      <trkpt lat="43.70725" lon="6.8086">
        <ele>572.280335</ele>
        <time>2024-12-06T13:24:47.000Z</time>
      </trkpt>
      <trkpt lat="43.70722" lon="6.8086">
        <ele>572.538631</ele>
        <time>2024-12-06T13:24:48.000Z</time>
      </trkpt>
      <trkpt lat="43.70719" lon="6.80859">
        <ele>572.792027</ele>
        <time>2024-12-06T13:24:49.000Z</time>
      </trkpt>
      <trkpt lat="43.70716" lon="6.80858">
        <ele>573.043146</ele>
        <time>2024-12-06T13:24:50.000Z</time>
      </trkpt>
      <trkpt lat="43.70713" lon="6.80857">
        <ele>573.31664</ele>
        <time>2024-12-06T13:24:51.000Z</time>
      </trkpt>
      <trkpt lat="43.7071" lon="6.80857">
        <ele>573.584447</ele>
        <time>2024-12-06T13:24:52.000Z</time>
      </trkpt>
      <trkpt lat="43.70708" lon="6.80856">
        <ele>573.831721</ele>
        <time>2024-12-06T13:24:53.000Z</time>
      </trkpt>
      <trkpt lat="43.70704" lon="6.80854">
        <ele>574.117022</ele>
        <time>2024-12-06T13:24:54.000Z</time>
      </trkpt>
      <trkpt lat="43.70702" lon="6.80853">
        <ele>574.356196</ele>
        <time>2024-12-06T13:24:55.000Z</time>
      </trkpt>
      <trkpt lat="43.707" lon="6.80852">
        <ele>574.568039</ele>
        <time>2024-12-06T13:24:56.000Z</time>
      </trkpt>
      <trkpt lat="43.70697" lon="6.80851">
        <ele>574.817496</ele>
        <time>2024-12-06T13:24:57.000Z</time>
      </trkpt>
      <trkpt lat="43.70694" lon="6.8085">
        <ele>575.106908</ele>
        <time>2024-12-06T13:24:58.000Z</time>
      </trkpt>
      <trkpt lat="43.70691" lon="6.80849">
        <ele>575.371795</ele>
        <time>2024-12-06T13:24:59.000Z</time>
      </trkpt>
      <trkpt lat="43.70688" lon="6.80849">
        <ele>575.625191</ele>
        <time>2024-12-06T13:25:00.000Z</time>
      </trkpt>
      <trkpt lat="43.70685" lon="6.80848">
        <ele>575.861255</ele>
        <time>2024-12-06T13:25:01.000Z</time>
      </trkpt>
      <trkpt lat="43.70683" lon="6.80847">
        <ele>576.031588</ele>
        <time>2024-12-06T13:25:02.000Z</time>
      </trkpt>
      <trkpt lat="43.7068" lon="6.80846">
        <ele>576.322344</ele>
        <time>2024-12-06T13:25:03.000Z</time>
      </trkpt>
      <trkpt lat="43.70677" lon="6.80846">
        <ele>576.579685</ele>
        <time>2024-12-06T13:25:04.000Z</time>
      </trkpt>
      <trkpt lat="43.70675" lon="6.80846">
        <ele>576.820349</ele>
        <time>2024-12-06T13:25:05.000Z</time>
      </trkpt>
      <trkpt lat="43.70672" lon="6.80845">
        <ele>577.081254</ele>
        <time>2024-12-06T13:25:06.000Z</time>
      </trkpt>
      <trkpt lat="43.70669" lon="6.80844">
        <ele>577.307317</ele>
        <time>2024-12-06T13:25:07.000Z</time>
      </trkpt>
      <trkpt lat="43.70667" lon="6.80844">
        <ele>577.548748</ele>
        <time>2024-12-06T13:25:08.000Z</time>
      </trkpt>
      <trkpt lat="43.70664" lon="6.80843">
        <ele>577.816555</ele>
        <time>2024-12-06T13:25:09.000Z</time>
      </trkpt>
      <trkpt lat="43.7066" lon="6.80843">
        <ele>578.105967</ele>
        <time>2024-12-06T13:25:10.000Z</time>
      </trkpt>
      <trkpt lat="43.70657" lon="6.80841">
        <ele>578.391268</ele>
        <time>2024-12-06T13:25:11.000Z</time>
      </trkpt>
      <trkpt lat="43.70654" lon="6.80841">
        <ele>578.641486</ele>
        <time>2024-12-06T13:25:12.000Z</time>
      </trkpt>
      <trkpt lat="43.70652" lon="6.80841">
        <ele>578.889727</ele>
        <time>2024-12-06T13:25:13.000Z</time>
      </trkpt>
      <trkpt lat="43.70649" lon="6.8084">
        <ele>579.171845</ele>
        <time>2024-12-06T13:25:14.000Z</time>
      </trkpt>
      <trkpt lat="43.70645" lon="6.80839">
        <ele>579.466834</ele>
        <time>2024-12-06T13:25:15.000Z</time>
      </trkpt>
      <trkpt lat="43.70642" lon="6.80839">
        <ele>579.759306</ele>
        <time>2024-12-06T13:25:16.000Z</time>
      </trkpt>
      <trkpt lat="43.70639" lon="6.80839">
        <ele>580.051779</ele>
        <time>2024-12-06T13:25:17.000Z</time>
      </trkpt>
      <trkpt lat="43.70636" lon="6.8084">
        <ele>580.326845</ele>
        <time>2024-12-06T13:25:18.000Z</time>
      </trkpt>
      <trkpt lat="43.70633" lon="6.80841">
        <ele>580.612146</ele>
        <time>2024-12-06T13:25:19.000Z</time>
      </trkpt>
      <trkpt lat="43.70629" lon="6.80842">
        <ele>580.915924</ele>
        <time>2024-12-06T13:25:20.000Z</time>
      </trkpt>
      <trkpt lat="43.70626" lon="6.80841">
        <ele>581.186103</ele>
        <time>2024-12-06T13:25:21.000Z</time>
      </trkpt>
      <trkpt lat="43.70624" lon="6.8084">
        <ele>581.418753</ele>
        <time>2024-12-06T13:25:22.000Z</time>
      </trkpt>
      <trkpt lat="43.70621" lon="6.8084">
        <ele>581.649542</ele>
        <time>2024-12-06T13:25:23.000Z</time>
      </trkpt>
      <trkpt lat="43.70618" lon="6.8084">
        <ele>581.924587</ele>
        <time>2024-12-06T13:25:24.000Z</time>
      </trkpt>
      <trkpt lat="43.70615" lon="6.8084">
        <ele>582.155376</ele>
        <time>2024-12-06T13:25:25.000Z</time>
      </trkpt>
      <trkpt lat="43.70612" lon="6.8084">
        <ele>582.456984</ele>
        <time>2024-12-06T13:25:26.000Z</time>
      </trkpt>
      <trkpt lat="43.70609" lon="6.8084">
        <ele>582.678647</ele>
        <time>2024-12-06T13:25:27.000Z</time>
      </trkpt>
      <trkpt lat="43.70607" lon="6.80839">
        <ele>582.866522</ele>
        <time>2024-12-06T13:25:28.000Z</time>
      </trkpt>
      <trkpt lat="43.70605" lon="6.80839">
        <ele>583.091402</ele>
        <time>2024-12-06T13:25:29.000Z</time>
      </trkpt>
      <trkpt lat="43.70602" lon="6.80838">
        <ele>583.379606</ele>
        <time>2024-12-06T13:25:30.000Z</time>
      </trkpt>
      <trkpt lat="43.70599" lon="6.80838">
        <ele>583.54657</ele>
        <time>2024-12-06T13:25:31.000Z</time>
      </trkpt>
      <trkpt lat="43.70596" lon="6.80838">
        <ele>583.719782</ele>
        <time>2024-12-06T13:25:32.000Z</time>
      </trkpt>
      <trkpt lat="43.70593" lon="6.80838">
        <ele>583.8726</ele>
        <time>2024-12-06T13:25:33.000Z</time>
      </trkpt>
      <trkpt lat="43.7059" lon="6.80837">
        <ele>584.020621</ele>
        <time>2024-12-06T13:25:34.000Z</time>
      </trkpt>
      <trkpt lat="43.70587" lon="6.80837">
        <ele>584.172988</ele>
        <time>2024-12-06T13:25:35.000Z</time>
      </trkpt>
      <trkpt lat="43.70585" lon="6.80836">
        <ele>584.319606</ele>
        <time>2024-12-06T13:25:36.000Z</time>
      </trkpt>
      <trkpt lat="43.70582" lon="6.80836">
        <ele>584.461208</ele>
        <time>2024-12-06T13:25:37.000Z</time>
      </trkpt>
      <trkpt lat="43.7058" lon="6.80836">
        <ele>584.592056</ele>
        <time>2024-12-06T13:25:38.000Z</time>
      </trkpt>
      <trkpt lat="43.70577" lon="6.80837">
        <ele>584.742387</ele>
        <time>2024-12-06T13:25:39.000Z</time>
      </trkpt>
      <trkpt lat="43.70574" lon="6.80837">
        <ele>584.895205</ele>
        <time>2024-12-06T13:25:40.000Z</time>
      </trkpt>
      <trkpt lat="43.70571" lon="6.80836">
        <ele>585.064638</ele>
        <time>2024-12-06T13:25:41.000Z</time>
      </trkpt>
      <trkpt lat="43.70568" lon="6.80836">
        <ele>585.201367</ele>
        <time>2024-12-06T13:25:42.000Z</time>
      </trkpt>
      <trkpt lat="43.70566" lon="6.80835">
        <ele>585.326843</ele>
        <time>2024-12-06T13:25:43.000Z</time>
      </trkpt>
      <trkpt lat="43.70564" lon="6.80834">
        <ele>585.463246</ele>
        <time>2024-12-06T13:25:44.000Z</time>
      </trkpt>
      <trkpt lat="43.70561" lon="6.80833">
        <ele>585.627321</ele>
        <time>2024-12-06T13:25:45.000Z</time>
      </trkpt>
      <trkpt lat="43.70559" lon="6.80832">
        <ele>585.760086</ele>
        <time>2024-12-06T13:25:46.000Z</time>
      </trkpt>
      <trkpt lat="43.70557" lon="6.8083">
        <ele>585.852314</ele>
        <time>2024-12-06T13:25:47.000Z</time>
      </trkpt>
      <trkpt lat="43.70554" lon="6.80829">
        <ele>586.039299</ele>
        <time>2024-12-06T13:25:48.000Z</time>
      </trkpt>
      <trkpt lat="43.70551" lon="6.80827">
        <ele>586.219559</ele>
        <time>2024-12-06T13:25:49.000Z</time>
      </trkpt>
      <trkpt lat="43.70548" lon="6.80824">
        <ele>586.416591</ele>
        <time>2024-12-06T13:25:50.000Z</time>
      </trkpt>
      <trkpt lat="43.70546" lon="6.80821">
        <ele>586.586533</ele>
        <time>2024-12-06T13:25:51.000Z</time>
      </trkpt>
      <trkpt lat="43.70544" lon="6.80818">
        <ele>586.758565</ele>
        <time>2024-12-06T13:25:52.000Z</time>
      </trkpt>
      <trkpt lat="43.70541" lon="6.80815">
        <ele>586.947899</ele>
        <time>2024-12-06T13:25:53.000Z</time>
      </trkpt>
      <trkpt lat="43.70538" lon="6.80811">
        <ele>587.155492</ele>
        <time>2024-12-06T13:25:54.000Z</time>
      </trkpt>
      <trkpt lat="43.70536" lon="6.80807">
        <ele>587.359455</ele>
        <time>2024-12-06T13:25:55.000Z</time>
      </trkpt>
      <trkpt lat="43.70533" lon="6.80804">
        <ele>587.553385</ele>
        <time>2024-12-06T13:25:56.000Z</time>
      </trkpt>
      <trkpt lat="43.70531" lon="6.808">
        <ele>587.765706</ele>
        <time>2024-12-06T13:25:57.000Z</time>
      </trkpt>
      <trkpt lat="43.70528" lon="6.80796">
        <ele>587.99216</ele>
        <time>2024-12-06T13:25:58.000Z</time>
      </trkpt>
      <trkpt lat="43.70525" lon="6.80791">
        <ele>588.225998</ele>
        <time>2024-12-06T13:25:59.000Z</time>
      </trkpt>
      <trkpt lat="43.70523" lon="6.80786">
        <ele>588.453987</ele>
        <time>2024-12-06T13:26:00.000Z</time>
      </trkpt>
      <trkpt lat="43.70523" lon="6.80779">
        <ele>588.716157</ele>
        <time>2024-12-06T13:26:01.000Z</time>
      </trkpt>
      <trkpt lat="43.70519" lon="6.80774">
        <ele>588.984762</ele>
        <time>2024-12-06T13:26:02.000Z</time>
      </trkpt>
      <trkpt lat="43.70516" lon="6.80769">
        <ele>589.271482</ele>
        <time>2024-12-06T13:26:03.000Z</time>
      </trkpt>
      <trkpt lat="43.70513" lon="6.80763">
        <ele>589.547652</ele>
        <time>2024-12-06T13:26:04.000Z</time>
      </trkpt>
      <trkpt lat="43.70511" lon="6.80757">
        <ele>589.811157</ele>
        <time>2024-12-06T13:26:05.000Z</time>
      </trkpt>
      <trkpt lat="43.70508" lon="6.80751">
        <ele>590.077591</ele>
        <time>2024-12-06T13:26:06.000Z</time>
      </trkpt>
      <trkpt lat="43.70505" lon="6.80746">
        <ele>590.347196</ele>
        <time>2024-12-06T13:26:07.000Z</time>
      </trkpt>
      <trkpt lat="43.70502" lon="6.8074">
        <ele>590.61702</ele>
        <time>2024-12-06T13:26:08.000Z</time>
      </trkpt>
      <trkpt lat="43.705" lon="6.80735">
        <ele>590.874165</ele>
        <time>2024-12-06T13:26:09.000Z</time>
      </trkpt>
      <trkpt lat="43.70498" lon="6.80729">
        <ele>591.129154</ele>
        <time>2024-12-06T13:26:10.000Z</time>
      </trkpt>
      <trkpt lat="43.70494" lon="6.80724">
        <ele>591.407172</ele>
        <time>2024-12-06T13:26:11.000Z</time>
      </trkpt>
      <trkpt lat="43.70492" lon="6.80718">
        <ele>591.669268</ele>
        <time>2024-12-06T13:26:12.000Z</time>
      </trkpt>
      <trkpt lat="43.7049" lon="6.80712">
        <ele>591.932522</ele>
        <time>2024-12-06T13:26:13.000Z</time>
      </trkpt>
      <trkpt lat="43.70489" lon="6.80705">
        <ele>592.20262</ele>
        <time>2024-12-06T13:26:14.000Z</time>
      </trkpt>
      <trkpt lat="43.70487" lon="6.80698">
        <ele>592.487888</ele>
        <time>2024-12-06T13:26:15.000Z</time>
      </trkpt>
      <trkpt lat="43.70485" lon="6.80692">
        <ele>592.747795</ele>
        <time>2024-12-06T13:26:16.000Z</time>
      </trkpt>
      <trkpt lat="43.70483" lon="6.80686">
        <ele>593.000636</ele>
        <time>2024-12-06T13:26:17.000Z</time>
      </trkpt>
      <trkpt lat="43.70481" lon="6.8068">
        <ele>593.320307</ele>
        <time>2024-12-06T13:26:18.000Z</time>
      </trkpt>
      <trkpt lat="43.70478" lon="6.80668">
        <ele>594.145386</ele>
        <time>2024-12-06T13:26:20.000Z</time>
      </trkpt>
      <trkpt lat="43.70474" lon="6.80657">
        <ele>594.940989</ele>
        <time>2024-12-06T13:26:22.000Z</time>
      </trkpt>
      <trkpt lat="43.70471" lon="6.80646">
        <ele>595.707309</ele>
        <time>2024-12-06T13:26:24.000Z</time>
      </trkpt>
      <trkpt lat="43.70468" lon="6.80641">
        <ele>596.081079</ele>
        <time>2024-12-06T13:26:25.000Z</time>
      </trkpt>
      <trkpt lat="43.70464" lon="6.80637">
        <ele>596.477488</ele>
        <time>2024-12-06T13:26:26.000Z</time>
      </trkpt>
      <trkpt lat="43.70462" lon="6.80634">
        <ele>596.791091</ele>
        <time>2024-12-06T13:26:27.000Z</time>
      </trkpt>
      <trkpt lat="43.70459" lon="6.80632">
        <ele>597.085035</ele>
        <time>2024-12-06T13:26:28.000Z</time>
      </trkpt>
      <trkpt lat="43.70456" lon="6.8063">
        <ele>597.399807</ele>
        <time>2024-12-06T13:26:29.000Z</time>
      </trkpt>
      <trkpt lat="43.70453" lon="6.80629">
        <ele>597.656541</ele>
        <time>2024-12-06T13:26:30.000Z</time>
      </trkpt>
      <trkpt lat="43.7045" lon="6.80629">
        <ele>597.895455</ele>
        <time>2024-12-06T13:26:31.000Z</time>
      </trkpt>
      <trkpt lat="43.70447" lon="6.80629">
        <ele>598.177991</ele>
        <time>2024-12-06T13:26:32.000Z</time>
      </trkpt>
      <trkpt lat="43.70444" lon="6.8063">
        <ele>598.401791</ele>
        <time>2024-12-06T13:26:33.000Z</time>
      </trkpt>
      <trkpt lat="43.70442" lon="6.8063">
        <ele>598.575218</ele>
        <time>2024-12-06T13:26:34.000Z</time>
      </trkpt>
      <trkpt lat="43.70441" lon="6.80631">
        <ele>598.746309</ele>
        <time>2024-12-06T13:26:35.000Z</time>
      </trkpt>
      <trkpt lat="43.70439" lon="6.80632">
        <ele>598.933884</ele>
        <time>2024-12-06T13:26:36.000Z</time>
      </trkpt>
      <trkpt lat="43.70437" lon="6.80633">
        <ele>599.113147</ele>
        <time>2024-12-06T13:26:37.000Z</time>
      </trkpt>
      <trkpt lat="43.70435" lon="6.80634">
        <ele>599.316074</ele>
        <time>2024-12-06T13:26:38.000Z</time>
      </trkpt>
      <trkpt lat="43.70433" lon="6.80637">
        <ele>599.559793</ele>
        <time>2024-12-06T13:26:39.000Z</time>
      </trkpt>
      <trkpt lat="43.7043" lon="6.8064">
        <ele>599.858427</ele>
        <time>2024-12-06T13:26:40.000Z</time>
      </trkpt>
      <trkpt lat="43.70428" lon="6.80643">
        <ele>600.137257</ele>
        <time>2024-12-06T13:26:41.000Z</time>
      </trkpt>
      <trkpt lat="43.70425" lon="6.80646">
        <ele>600.445778</ele>
        <time>2024-12-06T13:26:42.000Z</time>
      </trkpt>
      <trkpt lat="43.70423" lon="6.8065">
        <ele>600.752122</ele>
        <time>2024-12-06T13:26:43.000Z</time>
      </trkpt>
      <trkpt lat="43.70421" lon="6.80654">
        <ele>601.088308</ele>
        <time>2024-12-06T13:26:44.000Z</time>
      </trkpt>
      <trkpt lat="43.70419" lon="6.80658">
        <ele>601.412059</ele>
        <time>2024-12-06T13:26:45.000Z</time>
      </trkpt>
      <trkpt lat="43.70418" lon="6.80663">
        <ele>601.727059</ele>
        <time>2024-12-06T13:26:46.000Z</time>
      </trkpt>
      <trkpt lat="43.70417" lon="6.80668">
        <ele>602.074202</ele>
        <time>2024-12-06T13:26:47.000Z</time>
      </trkpt>
      <trkpt lat="43.70416" lon="6.80673">
        <ele>602.391092</ele>
        <time>2024-12-06T13:26:48.000Z</time>
      </trkpt>
      <trkpt lat="43.70416" lon="6.80678">
        <ele>602.678363</ele>
        <time>2024-12-06T13:26:49.000Z</time>
      </trkpt>
      <trkpt lat="43.70415" lon="6.80682">
        <ele>602.973846</ele>
        <time>2024-12-06T13:26:50.000Z</time>
      </trkpt>
      <trkpt lat="43.70414" lon="6.80687">
        <ele>603.259288</ele>
        <time>2024-12-06T13:26:51.000Z</time>
      </trkpt>
      <trkpt lat="43.70413" lon="6.8069">
        <ele>603.505538</ele>
        <time>2024-12-06T13:26:52.000Z</time>
      </trkpt>
      <trkpt lat="43.70413" lon="6.80693">
        <ele>603.716332</ele>
        <time>2024-12-06T13:26:53.000Z</time>
      </trkpt>
      <trkpt lat="43.70411" lon="6.80697">
        <ele>603.953847</ele>
        <time>2024-12-06T13:26:54.000Z</time>
      </trkpt>
      <trkpt lat="43.7041" lon="6.80701">
        <ele>604.22673</ele>
        <time>2024-12-06T13:26:55.000Z</time>
      </trkpt>
      <trkpt lat="43.70409" lon="6.80705">
        <ele>604.487734</ele>
        <time>2024-12-06T13:26:56.000Z</time>
      </trkpt>
      <trkpt lat="43.70408" lon="6.80707">
        <ele>604.700635</ele>
        <time>2024-12-06T13:26:57.000Z</time>
      </trkpt>
      <trkpt lat="43.70406" lon="6.80711">
        <ele>604.990317</ele>
        <time>2024-12-06T13:26:58.000Z</time>
      </trkpt>
      <trkpt lat="43.70405" lon="6.80715">
        <ele>605.236227</ele>
        <time>2024-12-06T13:26:59.000Z</time>
      </trkpt>
      <trkpt lat="43.70404" lon="6.80719">
        <ele>605.530324</ele>
        <time>2024-12-06T13:27:00.000Z</time>
      </trkpt>
      <trkpt lat="43.70403" lon="6.80723">
        <ele>605.788179</ele>
        <time>2024-12-06T13:27:01.000Z</time>
      </trkpt>
      <trkpt lat="43.70402" lon="6.80727">
        <ele>606.079499</ele>
        <time>2024-12-06T13:27:02.000Z</time>
      </trkpt>
      <trkpt lat="43.704" lon="6.80731">
        <ele>606.374535</ele>
        <time>2024-12-06T13:27:03.000Z</time>
      </trkpt>
      <trkpt lat="43.70398" lon="6.80734">
        <ele>606.607602</ele>
        <time>2024-12-06T13:27:04.000Z</time>
      </trkpt>
      <trkpt lat="43.70397" lon="6.80737">
        <ele>606.829893</ele>
        <time>2024-12-06T13:27:05.000Z</time>
      </trkpt>
      <trkpt lat="43.70397" lon="6.80741">
        <ele>607.057882</ele>
        <time>2024-12-06T13:27:06.000Z</time>
      </trkpt>
      <trkpt lat="43.70396" lon="6.80744">
        <ele>607.277173</ele>
        <time>2024-12-06T13:27:07.000Z</time>
      </trkpt>
      <trkpt lat="43.70395" lon="6.80747">
        <ele>607.505689</ele>
        <time>2024-12-06T13:27:08.000Z</time>
      </trkpt>
      <trkpt lat="43.70393" lon="6.8075">
        <ele>607.760746</ele>
        <time>2024-12-06T13:27:09.000Z</time>
      </trkpt>
      <trkpt lat="43.70392" lon="6.80754">
        <ele>608.015802</ele>
        <time>2024-12-06T13:27:10.000Z</time>
      </trkpt>
      <trkpt lat="43.7039" lon="6.80758">
        <ele>608.289642</ele>
        <time>2024-12-06T13:27:11.000Z</time>
      </trkpt>
      <trkpt lat="43.70389" lon="6.80762">
        <ele>608.580027</ele>
        <time>2024-12-06T13:27:12.000Z</time>
      </trkpt>
      <trkpt lat="43.70387" lon="6.80765">
        <ele>608.859569</ele>
        <time>2024-12-06T13:27:13.000Z</time>
      </trkpt>
      <trkpt lat="43.70386" lon="6.80769">
        <ele>609.170079</ele>
        <time>2024-12-06T13:27:14.000Z</time>
      </trkpt>
      <trkpt lat="43.70383" lon="6.80773">
        <ele>609.593078</ele>
        <time>2024-12-06T13:27:15.000Z</time>
      </trkpt>
      <trkpt lat="43.70382" lon="6.80777">
        <ele>609.924332</ele>
        <time>2024-12-06T13:27:16.000Z</time>
      </trkpt>
      <trkpt lat="43.70381" lon="6.8078">
        <ele>610.230245</ele>
        <time>2024-12-06T13:27:17.000Z</time>
      </trkpt>
      <trkpt lat="43.70379" lon="6.80784">
        <ele>610.593193</ele>
        <time>2024-12-06T13:27:18.000Z</time>
      </trkpt>
      <trkpt lat="43.70377" lon="6.80788">
        <ele>611.00257</ele>
        <time>2024-12-06T13:27:19.000Z</time>
      </trkpt>
      <trkpt lat="43.70376" lon="6.80792">
        <ele>611.406381</ele>
        <time>2024-12-06T13:27:20.000Z</time>
      </trkpt>
      <trkpt lat="43.70374" lon="6.80796">
        <ele>611.765423</ele>
        <time>2024-12-06T13:27:21.000Z</time>
      </trkpt>
      <trkpt lat="43.70372" lon="6.808">
        <ele>612.163314</ele>
        <time>2024-12-06T13:27:22.000Z</time>
      </trkpt>
      <trkpt lat="43.70371" lon="6.80804">
        <ele>612.550146</ele>
        <time>2024-12-06T13:27:23.000Z</time>
      </trkpt>
      <trkpt lat="43.7037" lon="6.80808">
        <ele>612.90696</ele>
        <time>2024-12-06T13:27:24.000Z</time>
      </trkpt>
      <trkpt lat="43.70369" lon="6.80811">
        <ele>613.248347</ele>
        <time>2024-12-06T13:27:25.000Z</time>
      </trkpt>
      <trkpt lat="43.70367" lon="6.80814">
        <ele>613.529641</ele>
        <time>2024-12-06T13:27:26.000Z</time>
      </trkpt>
      <trkpt lat="43.70366" lon="6.80818">
        <ele>613.926281</ele>
        <time>2024-12-06T13:27:27.000Z</time>
      </trkpt>
      <trkpt lat="43.70364" lon="6.80821">
        <ele>614.262039</ele>
        <time>2024-12-06T13:27:28.000Z</time>
      </trkpt>
      <trkpt lat="43.70362" lon="6.80824">
        <ele>614.610637</ele>
        <time>2024-12-06T13:27:29.000Z</time>
      </trkpt>
      <trkpt lat="43.7036" lon="6.80828">
        <ele>614.972228</ele>
        <time>2024-12-06T13:27:30.000Z</time>
      </trkpt>
      <trkpt lat="43.70358" lon="6.80831">
        <ele>615.34233</ele>
        <time>2024-12-06T13:27:31.000Z</time>
      </trkpt>
      <trkpt lat="43.70356" lon="6.80835">
        <ele>615.738334</ele>
        <time>2024-12-06T13:27:32.000Z</time>
      </trkpt>
      <trkpt lat="43.70354" lon="6.80838">
        <ele>616.100847</ele>
        <time>2024-12-06T13:27:33.000Z</time>
      </trkpt>
      <trkpt lat="43.70352" lon="6.80841">
        <ele>616.440496</ele>
        <time>2024-12-06T13:27:34.000Z</time>
      </trkpt>
      <trkpt lat="43.7035" lon="6.80844">
        <ele>616.786039</ele>
        <time>2024-12-06T13:27:35.000Z</time>
      </trkpt>
      <trkpt lat="43.70347" lon="6.80847">
        <ele>617.114227</ele>
        <time>2024-12-06T13:27:36.000Z</time>
      </trkpt>
      <trkpt lat="43.70346" lon="6.80849">
        <ele>617.413847</ele>
        <time>2024-12-06T13:27:37.000Z</time>
      </trkpt>
      <trkpt lat="43.70344" lon="6.80851">
        <ele>617.654328</ele>
        <time>2024-12-06T13:27:38.000Z</time>
      </trkpt>
      <trkpt lat="43.70342" lon="6.80854">
        <ele>618.062586</ele>
        <time>2024-12-06T13:27:39.000Z</time>
      </trkpt>
      <trkpt lat="43.7034" lon="6.80857">
        <ele>618.384355</ele>
        <time>2024-12-06T13:27:40.000Z</time>
      </trkpt>
      <trkpt lat="43.70338" lon="6.8086">
        <ele>618.698256</ele>
        <time>2024-12-06T13:27:41.000Z</time>
      </trkpt>
      <trkpt lat="43.70336" lon="6.80862">
        <ele>619.006575</ele>
        <time>2024-12-06T13:27:42.000Z</time>
      </trkpt>
      <trkpt lat="43.70334" lon="6.80864">
        <ele>619.286281</ele>
        <time>2024-12-06T13:27:43.000Z</time>
      </trkpt>
      <trkpt lat="43.70332" lon="6.80866">
        <ele>619.573662</ele>
        <time>2024-12-06T13:27:44.000Z</time>
      </trkpt>
      <trkpt lat="43.7033" lon="6.80868">
        <ele>619.880341</ele>
        <time>2024-12-06T13:27:45.000Z</time>
      </trkpt>
      <trkpt lat="43.70326" lon="6.80868">
        <ele>620.254494</ele>
        <time>2024-12-06T13:27:46.000Z</time>
      </trkpt>
      <trkpt lat="43.70324" lon="6.80866">
        <ele>620.540742</ele>
        <time>2024-12-06T13:27:47.000Z</time>
      </trkpt>
      <trkpt lat="43.70321" lon="6.80864">
        <ele>620.932271</ele>
        <time>2024-12-06T13:27:48.000Z</time>
      </trkpt>
      <trkpt lat="43.70318" lon="6.80861">
        <ele>621.368062</ele>
        <time>2024-12-06T13:27:49.000Z</time>
      </trkpt>
      <trkpt lat="43.70317" lon="6.80859">
        <ele>621.654722</ele>
        <time>2024-12-06T13:27:50.000Z</time>
      </trkpt>
      <trkpt lat="43.70315" lon="6.80856">
        <ele>621.961829</ele>
        <time>2024-12-06T13:27:51.000Z</time>
      </trkpt>
      <trkpt lat="43.70314" lon="6.80851">
        <ele>622.342088</ele>
        <time>2024-12-06T13:27:52.000Z</time>
      </trkpt>
      <trkpt lat="43.70314" lon="6.80848">
        <ele>622.66536</ele>
        <time>2024-12-06T13:27:53.000Z</time>
      </trkpt>
      <trkpt lat="43.70313" lon="6.80842">
        <ele>623.12529</ele>
        <time>2024-12-06T13:27:54.000Z</time>
      </trkpt>
      <trkpt lat="43.70312" lon="6.80838">
        <ele>623.494068</ele>
        <time>2024-12-06T13:27:55.000Z</time>
      </trkpt>
      <trkpt lat="43.70311" lon="6.80834">
        <ele>623.850369</ele>
        <time>2024-12-06T13:27:56.000Z</time>
      </trkpt>
      <trkpt lat="43.7031" lon="6.80831">
        <ele>624.153183</ele>
        <time>2024-12-06T13:27:57.000Z</time>
      </trkpt>
      <trkpt lat="43.70309" lon="6.80825">
        <ele>624.624339</ele>
        <time>2024-12-06T13:27:58.000Z</time>
      </trkpt>
      <trkpt lat="43.70309" lon="6.80822">
        <ele>624.918969</ele>
        <time>2024-12-06T13:27:59.000Z</time>
      </trkpt>
      <trkpt lat="43.70308" lon="6.80817">
        <ele>625.363818</ele>
        <time>2024-12-06T13:28:00.000Z</time>
      </trkpt>
      <trkpt lat="43.70306" lon="6.80813">
        <ele>625.731974</ele>
        <time>2024-12-06T13:28:01.000Z</time>
      </trkpt>
      <trkpt lat="43.70306" lon="6.80808">
        <ele>626.113918</ele>
        <time>2024-12-06T13:28:02.000Z</time>
      </trkpt>
      <trkpt lat="43.70305" lon="6.80804">
        <ele>626.504032</ele>
        <time>2024-12-06T13:28:03.000Z</time>
      </trkpt>
      <trkpt lat="43.70304" lon="6.80799">
        <ele>626.877818</ele>
        <time>2024-12-06T13:28:04.000Z</time>
      </trkpt>
      <trkpt lat="43.70303" lon="6.80795">
        <ele>627.259762</ele>
        <time>2024-12-06T13:28:05.000Z</time>
      </trkpt>
      <trkpt lat="43.70302" lon="6.80791">
        <ele>627.67218</ele>
        <time>2024-12-06T13:28:06.000Z</time>
      </trkpt>
      <trkpt lat="43.70301" lon="6.80786">
        <ele>628.057397</ele>
        <time>2024-12-06T13:28:07.000Z</time>
      </trkpt>
      <trkpt lat="43.70301" lon="6.80781">
        <ele>628.446215</ele>
        <time>2024-12-06T13:28:08.000Z</time>
      </trkpt>
      <trkpt lat="43.703" lon="6.80777">
        <ele>628.839714</ele>
        <time>2024-12-06T13:28:09.000Z</time>
      </trkpt>
      <trkpt lat="43.70299" lon="6.80773">
        <ele>629.211969</ele>
        <time>2024-12-06T13:28:10.000Z</time>
      </trkpt>
      <trkpt lat="43.70298" lon="6.80769">
        <ele>629.564637</ele>
        <time>2024-12-06T13:28:11.000Z</time>
      </trkpt>
      <trkpt lat="43.70298" lon="6.80764">
        <ele>629.949854</ele>
        <time>2024-12-06T13:28:12.000Z</time>
      </trkpt>
      <trkpt lat="43.70297" lon="6.80759">
        <ele>630.37715</ele>
        <time>2024-12-06T13:28:13.000Z</time>
      </trkpt>
      <trkpt lat="43.70297" lon="6.80755">
        <ele>630.722843</ele>
        <time>2024-12-06T13:28:14.000Z</time>
      </trkpt>
      <trkpt lat="43.70295" lon="6.80749">
        <ele>631.240077</ele>
        <time>2024-12-06T13:28:15.000Z</time>
      </trkpt>
      <trkpt lat="43.70294" lon="6.80744">
        <ele>631.707382</ele>
        <time>2024-12-06T13:28:16.000Z</time>
      </trkpt>
      <trkpt lat="43.70293" lon="6.80738">
        <ele>632.174683</ele>
        <time>2024-12-06T13:28:17.000Z</time>
      </trkpt>
      <trkpt lat="43.70292" lon="6.80733">
        <ele>632.625977</ele>
        <time>2024-12-06T13:28:18.000Z</time>
      </trkpt>
      <trkpt lat="43.7029" lon="6.80728">
        <ele>633.08379</ele>
        <time>2024-12-06T13:28:19.000Z</time>
      </trkpt>
      <trkpt lat="43.70289" lon="6.80723">
        <ele>633.546868</ele>
        <time>2024-12-06T13:28:20.000Z</time>
      </trkpt>
      <trkpt lat="43.70287" lon="6.80718">
        <ele>633.988152</ele>
        <time>2024-12-06T13:28:21.000Z</time>
      </trkpt>
      <trkpt lat="43.70285" lon="6.80714">
        <ele>634.415051</ele>
        <time>2024-12-06T13:28:22.000Z</time>
      </trkpt>
      <trkpt lat="43.70283" lon="6.80711">
        <ele>634.772999</ele>
        <time>2024-12-06T13:28:23.000Z</time>
      </trkpt>
      <trkpt lat="43.70281" lon="6.80706">
        <ele>635.265996</ele>
        <time>2024-12-06T13:28:24.000Z</time>
      </trkpt>
      <trkpt lat="43.7028" lon="6.80702">
        <ele>635.591541</ele>
        <time>2024-12-06T13:28:25.000Z</time>
      </trkpt>
      <trkpt lat="43.70279" lon="6.80698">
        <ele>635.92838</ele>
        <time>2024-12-06T13:28:26.000Z</time>
      </trkpt>
      <trkpt lat="43.70278" lon="6.80694">
        <ele>636.29115</ele>
        <time>2024-12-06T13:28:27.000Z</time>
      </trkpt>
      <trkpt lat="43.70278" lon="6.8069">
        <ele>636.642692</ele>
        <time>2024-12-06T13:28:28.000Z</time>
      </trkpt>
      <trkpt lat="43.70277" lon="6.80686">
        <ele>636.991635</ele>
        <time>2024-12-06T13:28:29.000Z</time>
      </trkpt>
      <trkpt lat="43.70276" lon="6.80682">
        <ele>637.355903</ele>
        <time>2024-12-06T13:28:30.000Z</time>
      </trkpt>
      <trkpt lat="43.70275" lon="6.80678">
        <ele>637.70058</ele>
        <time>2024-12-06T13:28:31.000Z</time>
      </trkpt>
      <trkpt lat="43.70274" lon="6.80674">
        <ele>638.053119</ele>
        <time>2024-12-06T13:28:32.000Z</time>
      </trkpt>
      <trkpt lat="43.70273" lon="6.8067">
        <ele>638.386193</ele>
        <time>2024-12-06T13:28:33.000Z</time>
      </trkpt>
      <trkpt lat="43.70272" lon="6.80666">
        <ele>638.75907</ele>
        <time>2024-12-06T13:28:34.000Z</time>
      </trkpt>
      <trkpt lat="43.70271" lon="6.80662">
        <ele>639.115975</ele>
        <time>2024-12-06T13:28:35.000Z</time>
      </trkpt>
      <trkpt lat="43.7027" lon="6.80658">
        <ele>639.453649</ele>
        <time>2024-12-06T13:28:36.000Z</time>
      </trkpt>
      <trkpt lat="43.7027" lon="6.80654">
        <ele>639.773507</ele>
        <time>2024-12-06T13:28:37.000Z</time>
      </trkpt>
      <trkpt lat="43.7027" lon="6.8065">
        <ele>640.07359</ele>
        <time>2024-12-06T13:28:38.000Z</time>
      </trkpt>
      <trkpt lat="43.70269" lon="6.80648">
        <ele>640.313825</ele>
        <time>2024-12-06T13:28:39.000Z</time>
      </trkpt>
      <trkpt lat="43.70269" lon="6.80643">
        <ele>640.670429</ele>
        <time>2024-12-06T13:28:40.000Z</time>
      </trkpt>
      <trkpt lat="43.70268" lon="6.8064">
        <ele>640.948687</ele>
        <time>2024-12-06T13:28:41.000Z</time>
      </trkpt>
      <trkpt lat="43.70268" lon="6.80637">
        <ele>641.233991</ele>
        <time>2024-12-06T13:28:42.000Z</time>
      </trkpt>
      <trkpt lat="43.70267" lon="6.80633">
        <ele>641.526432</ele>
        <time>2024-12-06T13:28:43.000Z</time>
      </trkpt>
      <trkpt lat="43.70266" lon="6.8063">
        <ele>641.866927</ele>
        <time>2024-12-06T13:28:44.000Z</time>
      </trkpt>
      <trkpt lat="43.70264" lon="6.80627">
        <ele>642.150559</ele>
        <time>2024-12-06T13:28:45.000Z</time>
      </trkpt>
      <trkpt lat="43.70262" lon="6.80623">
        <ele>642.555663</ele>
        <time>2024-12-06T13:28:46.000Z</time>
      </trkpt>
      <trkpt lat="43.70261" lon="6.8062">
        <ele>642.867216</ele>
        <time>2024-12-06T13:28:47.000Z</time>
      </trkpt>
      <trkpt lat="43.7026" lon="6.80617">
        <ele>643.102582</ele>
        <time>2024-12-06T13:28:48.000Z</time>
      </trkpt>
      <trkpt lat="43.70259" lon="6.80614">
        <ele>643.404173</ele>
        <time>2024-12-06T13:28:49.000Z</time>
      </trkpt>
      <trkpt lat="43.70258" lon="6.80611">
        <ele>643.704443</ele>
        <time>2024-12-06T13:28:50.000Z</time>
      </trkpt>
      <trkpt lat="43.70256" lon="6.80607">
        <ele>644.096171</ele>
        <time>2024-12-06T13:28:51.000Z</time>
      </trkpt>
      <trkpt lat="43.70255" lon="6.80604">
        <ele>644.407161</ele>
        <time>2024-12-06T13:28:52.000Z</time>
      </trkpt>
      <trkpt lat="43.70252" lon="6.80602">
        <ele>644.705724</ele>
        <time>2024-12-06T13:28:53.000Z</time>
      </trkpt>
      <trkpt lat="43.7025" lon="6.80598">
        <ele>645.070834</ele>
        <time>2024-12-06T13:28:54.000Z</time>
      </trkpt>
      <trkpt lat="43.70248" lon="6.80595">
        <ele>645.446695</ele>
        <time>2024-12-06T13:28:55.000Z</time>
      </trkpt>
      <trkpt lat="43.70246" lon="6.80592">
        <ele>645.791031</ele>
        <time>2024-12-06T13:28:56.000Z</time>
      </trkpt>
      <trkpt lat="43.70244" lon="6.80588">
        <ele>646.218997</ele>
        <time>2024-12-06T13:28:57.000Z</time>
      </trkpt>
      <trkpt lat="43.70243" lon="6.80585">
        <ele>646.489208</ele>
        <time>2024-12-06T13:28:58.000Z</time>
      </trkpt>
      <trkpt lat="43.70241" lon="6.80582">
        <ele>646.809582</ele>
        <time>2024-12-06T13:28:59.000Z</time>
      </trkpt>
      <trkpt lat="43.70239" lon="6.80578">
        <ele>647.202037</ele>
        <time>2024-12-06T13:29:00.000Z</time>
      </trkpt>
      <trkpt lat="43.70238" lon="6.80575">
        <ele>647.473166</ele>
        <time>2024-12-06T13:29:01.000Z</time>
      </trkpt>
      <trkpt lat="43.70236" lon="6.80571">
        <ele>647.887047</ele>
        <time>2024-12-06T13:29:02.000Z</time>
      </trkpt>
      <trkpt lat="43.70235" lon="6.80567">
        <ele>648.25334</ele>
        <time>2024-12-06T13:29:03.000Z</time>
      </trkpt>
      <trkpt lat="43.70233" lon="6.80564">
        <ele>648.557798</ele>
        <time>2024-12-06T13:29:04.000Z</time>
      </trkpt>
      <trkpt lat="43.70232" lon="6.8056">
        <ele>648.949528</ele>
        <time>2024-12-06T13:29:05.000Z</time>
      </trkpt>
      <trkpt lat="43.70229" lon="6.80557">
        <ele>649.335849</ele>
        <time>2024-12-06T13:29:06.000Z</time>
      </trkpt>
      <trkpt lat="43.70227" lon="6.80552">
        <ele>649.789013</ele>
        <time>2024-12-06T13:29:07.000Z</time>
      </trkpt>
      <trkpt lat="43.70225" lon="6.80549">
        <ele>650.15521</ele>
        <time>2024-12-06T13:29:08.000Z</time>
      </trkpt>
      <trkpt lat="43.70223" lon="6.80546">
        <ele>650.50013</ele>
        <time>2024-12-06T13:29:09.000Z</time>
      </trkpt>
      <trkpt lat="43.70221" lon="6.80543">
        <ele>650.759668</ele>
        <time>2024-12-06T13:29:10.000Z</time>
      </trkpt>
      <trkpt lat="43.70219" lon="6.8054">
        <ele>651.116264</ele>
        <time>2024-12-06T13:29:11.000Z</time>
      </trkpt>
      <trkpt lat="43.70217" lon="6.80537">
        <ele>651.359397</ele>
        <time>2024-12-06T13:29:12.000Z</time>
      </trkpt>
      <trkpt lat="43.70215" lon="6.80535">
        <ele>651.648184</ele>
        <time>2024-12-06T13:29:13.000Z</time>
      </trkpt>
      <trkpt lat="43.70212" lon="6.80531">
        <ele>652.015961</ele>
        <time>2024-12-06T13:29:14.000Z</time>
      </trkpt>
      <trkpt lat="43.70211" lon="6.80529">
        <ele>652.250451</ele>
        <time>2024-12-06T13:29:15.000Z</time>
      </trkpt>
      <trkpt lat="43.70208" lon="6.80527">
        <ele>652.573723</ele>
        <time>2024-12-06T13:29:16.000Z</time>
      </trkpt>
      <trkpt lat="43.70206" lon="6.80525">
        <ele>652.861042</ele>
        <time>2024-12-06T13:29:17.000Z</time>
      </trkpt>
      <trkpt lat="43.70203" lon="6.80522">
        <ele>653.155134</ele>
        <time>2024-12-06T13:29:18.000Z</time>
      </trkpt>
      <trkpt lat="43.702" lon="6.8052">
        <ele>653.472549</ele>
        <time>2024-12-06T13:29:19.000Z</time>
      </trkpt>
      <trkpt lat="43.70198" lon="6.80519">
        <ele>653.76222</ele>
        <time>2024-12-06T13:29:20.000Z</time>
      </trkpt>
      <trkpt lat="43.70195" lon="6.80517">
        <ele>654.069281</ele>
        <time>2024-12-06T13:29:21.000Z</time>
      </trkpt>
      <trkpt lat="43.70192" lon="6.80516">
        <ele>654.371725</ele>
        <time>2024-12-06T13:29:22.000Z</time>
      </trkpt>
      <trkpt lat="43.70189" lon="6.80515">
        <ele>654.669221</ele>
        <time>2024-12-06T13:29:23.000Z</time>
      </trkpt>
      <trkpt lat="43.70186" lon="6.80514">
        <ele>655.004475</ele>
        <time>2024-12-06T13:29:24.000Z</time>
      </trkpt>
      <trkpt lat="43.70183" lon="6.80514">
        <ele>655.31884</ele>
        <time>2024-12-06T13:29:25.000Z</time>
      </trkpt>
      <trkpt lat="43.7018" lon="6.80512">
        <ele>655.612026</ele>
        <time>2024-12-06T13:29:26.000Z</time>
      </trkpt>
      <trkpt lat="43.70177" lon="6.80511">
        <ele>655.893056</ele>
        <time>2024-12-06T13:29:27.000Z</time>
      </trkpt>
      <trkpt lat="43.70174" lon="6.8051">
        <ele>656.205669</ele>
        <time>2024-12-06T13:29:28.000Z</time>
      </trkpt>
      <trkpt lat="43.70172" lon="6.80509">
        <ele>656.495216</ele>
        <time>2024-12-06T13:29:29.000Z</time>
      </trkpt>
      <trkpt lat="43.70169" lon="6.80508">
        <ele>656.788402</ele>
        <time>2024-12-06T13:29:30.000Z</time>
      </trkpt>
      <trkpt lat="43.70166" lon="6.80507">
        <ele>657.101015</ele>
        <time>2024-12-06T13:29:31.000Z</time>
      </trkpt>
      <trkpt lat="43.70163" lon="6.80505">
        <ele>657.40346</ele>
        <time>2024-12-06T13:29:32.000Z</time>
      </trkpt>
      <trkpt lat="43.7016" lon="6.80504">
        <ele>657.734264</ele>
        <time>2024-12-06T13:29:33.000Z</time>
      </trkpt>
      <trkpt lat="43.70156" lon="6.80502">
        <ele>658.117425</ele>
        <time>2024-12-06T13:29:34.000Z</time>
      </trkpt>
      <trkpt lat="43.70154" lon="6.80501">
        <ele>658.379784</ele>
        <time>2024-12-06T13:29:35.000Z</time>
      </trkpt>
      <trkpt lat="43.70151" lon="6.80499">
        <ele>658.697037</ele>
        <time>2024-12-06T13:29:36.000Z</time>
      </trkpt>
      <trkpt lat="43.70148" lon="6.80498">
        <ele>659.006421</ele>
        <time>2024-12-06T13:29:37.000Z</time>
      </trkpt>
      <trkpt lat="43.70145" lon="6.80497">
        <ele>659.307465</ele>
        <time>2024-12-06T13:29:38.000Z</time>
      </trkpt>
      <trkpt lat="43.70142" lon="6.80496">
        <ele>659.623848</ele>
        <time>2024-12-06T13:29:39.000Z</time>
      </trkpt>
      <trkpt lat="43.70139" lon="6.80495">
        <ele>659.950133</ele>
        <time>2024-12-06T13:29:40.000Z</time>
      </trkpt>
      <trkpt lat="43.70135" lon="6.80493">
        <ele>660.335708</ele>
        <time>2024-12-06T13:29:41.000Z</time>
      </trkpt>
      <trkpt lat="43.70133" lon="6.80492">
        <ele>660.599956</ele>
        <time>2024-12-06T13:29:42.000Z</time>
      </trkpt>
      <trkpt lat="43.70129" lon="6.8049">
        <ele>660.988318</ele>
        <time>2024-12-06T13:29:43.000Z</time>
      </trkpt>
      <trkpt lat="43.70127" lon="6.80489">
        <ele>661.25828</ele>
        <time>2024-12-06T13:29:44.000Z</time>
      </trkpt>
      <trkpt lat="43.70123" lon="6.80488">
        <ele>661.587198</ele>
        <time>2024-12-06T13:29:45.000Z</time>
      </trkpt>
      <trkpt lat="43.7012" lon="6.80487">
        <ele>661.919324</ele>
        <time>2024-12-06T13:29:46.000Z</time>
      </trkpt>
      <trkpt lat="43.70117" lon="6.80485">
        <ele>662.322163</ele>
        <time>2024-12-06T13:29:47.000Z</time>
      </trkpt>
      <trkpt lat="43.70114" lon="6.80484">
        <ele>662.58178</ele>
        <time>2024-12-06T13:29:48.000Z</time>
      </trkpt>
      <trkpt lat="43.7011" lon="6.80482">
        <ele>663.006021</ele>
        <time>2024-12-06T13:29:49.000Z</time>
      </trkpt>
      <trkpt lat="43.70107" lon="6.8048">
        <ele>663.341915</ele>
        <time>2024-12-06T13:29:50.000Z</time>
      </trkpt>
      <trkpt lat="43.70105" lon="6.80478">
        <ele>663.595746</ele>
        <time>2024-12-06T13:29:51.000Z</time>
      </trkpt>
      <trkpt lat="43.70102" lon="6.80476">
        <ele>663.907751</ele>
        <time>2024-12-06T13:29:52.000Z</time>
      </trkpt>
      <trkpt lat="43.70099" lon="6.80474">
        <ele>664.232108</ele>
        <time>2024-12-06T13:29:53.000Z</time>
      </trkpt>
      <trkpt lat="43.70097" lon="6.80472">
        <ele>664.572503</ele>
        <time>2024-12-06T13:29:54.000Z</time>
      </trkpt>
      <trkpt lat="43.70093" lon="6.80469">
        <ele>664.984989</ele>
        <time>2024-12-06T13:29:55.000Z</time>
      </trkpt>
      <trkpt lat="43.70091" lon="6.80467">
        <ele>665.267213</ele>
        <time>2024-12-06T13:29:56.000Z</time>
      </trkpt>
      <trkpt lat="43.70087" lon="6.80465">
        <ele>665.618162</ele>
        <time>2024-12-06T13:29:57.000Z</time>
      </trkpt>
      <trkpt lat="43.70084" lon="6.80462">
        <ele>665.984817</ele>
        <time>2024-12-06T13:29:58.000Z</time>
      </trkpt>
      <trkpt lat="43.70081" lon="6.8046">
        <ele>666.358633</ele>
        <time>2024-12-06T13:29:59.000Z</time>
      </trkpt>
      <trkpt lat="43.70077" lon="6.80456">
        <ele>666.839315</ele>
        <time>2024-12-06T13:30:00.000Z</time>
      </trkpt>
      <trkpt lat="43.70074" lon="6.80453">
        <ele>667.258177</ele>
        <time>2024-12-06T13:30:01.000Z</time>
      </trkpt>
      <trkpt lat="43.70071" lon="6.8045">
        <ele>667.571653</ele>
        <time>2024-12-06T13:30:02.000Z</time>
      </trkpt>
      <trkpt lat="43.70069" lon="6.80446">
        <ele>667.956707</ele>
        <time>2024-12-06T13:30:03.000Z</time>
      </trkpt>
      <trkpt lat="43.70066" lon="6.80442">
        <ele>668.346756</ele>
        <time>2024-12-06T13:30:04.000Z</time>
      </trkpt>
      <trkpt lat="43.70063" lon="6.80439">
        <ele>668.733073</ele>
        <time>2024-12-06T13:30:05.000Z</time>
      </trkpt>
      <trkpt lat="43.70061" lon="6.80434">
        <ele>668.982984</ele>
        <time>2024-12-06T13:30:06.000Z</time>
      </trkpt>
      <trkpt lat="43.70059" lon="6.80429">
        <ele>669.249153</ele>
        <time>2024-12-06T13:30:07.000Z</time>
      </trkpt>
      <trkpt lat="43.70057" lon="6.80426">
        <ele>669.434699</ele>
        <time>2024-12-06T13:30:08.000Z</time>
      </trkpt>
      <trkpt lat="43.70055" lon="6.80421">
        <ele>669.662638</ele>
        <time>2024-12-06T13:30:09.000Z</time>
      </trkpt>
      <trkpt lat="43.70053" lon="6.80416">
        <ele>669.915565</ele>
        <time>2024-12-06T13:30:10.000Z</time>
      </trkpt>
      <trkpt lat="43.70052" lon="6.80413">
        <ele>670.086066</ele>
        <time>2024-12-06T13:30:11.000Z</time>
      </trkpt>
      <trkpt lat="43.70049" lon="6.80409">
        <ele>670.295276</ele>
        <time>2024-12-06T13:30:12.000Z</time>
      </trkpt>
      <trkpt lat="43.70047" lon="6.80405">
        <ele>670.505416</ele>
        <time>2024-12-06T13:30:13.000Z</time>
      </trkpt>
      <trkpt lat="43.70044" lon="6.80401">
        <ele>670.771799</ele>
        <time>2024-12-06T13:30:14.000Z</time>
      </trkpt>
      <trkpt lat="43.70042" lon="6.80398">
        <ele>670.947103</ele>
        <time>2024-12-06T13:30:15.000Z</time>
      </trkpt>
      <trkpt lat="43.7004" lon="6.80394">
        <ele>671.18015</ele>
        <time>2024-12-06T13:30:16.000Z</time>
      </trkpt>
      <trkpt lat="43.70037" lon="6.8039">
        <ele>671.408997</ele>
        <time>2024-12-06T13:30:17.000Z</time>
      </trkpt>
      <trkpt lat="43.70035" lon="6.80387">
        <ele>671.624204</ele>
        <time>2024-12-06T13:30:18.000Z</time>
      </trkpt>
      <trkpt lat="43.70032" lon="6.80383">
        <ele>671.851095</ele>
        <time>2024-12-06T13:30:19.000Z</time>
      </trkpt>
      <trkpt lat="43.70029" lon="6.8038">
        <ele>672.068083</ele>
        <time>2024-12-06T13:30:20.000Z</time>
      </trkpt>
      <trkpt lat="43.70026" lon="6.80377">
        <ele>672.2832</ele>
        <time>2024-12-06T13:30:21.000Z</time>
      </trkpt>
      <trkpt lat="43.70024" lon="6.80373">
        <ele>672.491048</ele>
        <time>2024-12-06T13:30:22.000Z</time>
      </trkpt>
      <trkpt lat="43.70022" lon="6.8037">
        <ele>672.695788</ele>
        <time>2024-12-06T13:30:23.000Z</time>
      </trkpt>
      <trkpt lat="43.70019" lon="6.80367">
        <ele>672.898923</ele>
        <time>2024-12-06T13:30:24.000Z</time>
      </trkpt>
      <trkpt lat="43.70017" lon="6.80364">
        <ele>673.086089</ele>
        <time>2024-12-06T13:30:25.000Z</time>
      </trkpt>
      <trkpt lat="43.70014" lon="6.80362">
        <ele>673.277936</ele>
        <time>2024-12-06T13:30:26.000Z</time>
      </trkpt>
      <trkpt lat="43.70011" lon="6.8036">
        <ele>673.478122</ele>
        <time>2024-12-06T13:30:27.000Z</time>
      </trkpt>
      <trkpt lat="43.70007" lon="6.80359">
        <ele>673.716042</ele>
        <time>2024-12-06T13:30:28.000Z</time>
      </trkpt>
      <trkpt lat="43.70004" lon="6.80359">
        <ele>673.915744</ele>
        <time>2024-12-06T13:30:29.000Z</time>
      </trkpt>
      <trkpt lat="43.70001" lon="6.8036">
        <ele>674.105125</ele>
        <time>2024-12-06T13:30:30.000Z</time>
      </trkpt>
      <trkpt lat="43.69997" lon="6.80361">
        <ele>674.303609</ele>
        <time>2024-12-06T13:30:31.000Z</time>
      </trkpt>
      <trkpt lat="43.69994" lon="6.80362">
        <ele>674.498138</ele>
        <time>2024-12-06T13:30:32.000Z</time>
      </trkpt>
      <trkpt lat="43.69991" lon="6.80365">
        <ele>674.707813</ele>
        <time>2024-12-06T13:30:33.000Z</time>
      </trkpt>
      <trkpt lat="43.69989" lon="6.80367">
        <ele>674.89966</ele>
        <time>2024-12-06T13:30:34.000Z</time>
      </trkpt>
      <trkpt lat="43.69986" lon="6.8037">
        <ele>675.086827</ele>
        <time>2024-12-06T13:30:35.000Z</time>
      </trkpt>
      <trkpt lat="43.69984" lon="6.80373">
        <ele>675.287323</ele>
        <time>2024-12-06T13:30:36.000Z</time>
      </trkpt>
      <trkpt lat="43.69982" lon="6.80377">
        <ele>675.503663</ele>
        <time>2024-12-06T13:30:37.000Z</time>
      </trkpt>
      <trkpt lat="43.6998" lon="6.80381">
        <ele>675.737665</ele>
        <time>2024-12-06T13:30:38.000Z</time>
      </trkpt>
      <trkpt lat="43.69978" lon="6.80386">
        <ele>675.985912</ele>
        <time>2024-12-06T13:30:39.000Z</time>
      </trkpt>
      <trkpt lat="43.69975" lon="6.80391">
        <ele>676.23082</ele>
        <time>2024-12-06T13:30:40.000Z</time>
      </trkpt>
      <trkpt lat="43.69973" lon="6.80396">
        <ele>676.490589</ele>
        <time>2024-12-06T13:30:41.000Z</time>
      </trkpt>
      <trkpt lat="43.69971" lon="6.80401">
        <ele>676.758791</ele>
        <time>2024-12-06T13:30:42.000Z</time>
      </trkpt>
      <trkpt lat="43.69969" lon="6.80407">
        <ele>677.036711</ele>
        <time>2024-12-06T13:30:43.000Z</time>
      </trkpt>
      <trkpt lat="43.69967" lon="6.80412">
        <ele>677.304913</ele>
        <time>2024-12-06T13:30:44.000Z</time>
      </trkpt>
      <trkpt lat="43.69964" lon="6.80417">
        <ele>677.568448</ele>
        <time>2024-12-06T13:30:45.000Z</time>
      </trkpt>
      <trkpt lat="43.69962" lon="6.80423">
        <ele>677.84571</ele>
        <time>2024-12-06T13:30:46.000Z</time>
      </trkpt>
      <trkpt lat="43.6996" lon="6.80428">
        <ele>678.106241</ele>
        <time>2024-12-06T13:30:47.000Z</time>
      </trkpt>
      <trkpt lat="43.69958" lon="6.80433">
        <ele>678.374444</ele>
        <time>2024-12-06T13:30:48.000Z</time>
      </trkpt>
      <trkpt lat="43.69956" lon="6.80439">
        <ele>678.641763</ele>
        <time>2024-12-06T13:30:49.000Z</time>
      </trkpt>
      <trkpt lat="43.69953" lon="6.80444">
        <ele>678.904281</ele>
        <time>2024-12-06T13:30:50.000Z</time>
      </trkpt>
      <trkpt lat="43.69951" lon="6.80448">
        <ele>679.145954</ele>
        <time>2024-12-06T13:30:51.000Z</time>
      </trkpt>
      <trkpt lat="43.69949" lon="6.80453">
        <ele>679.383567</ele>
        <time>2024-12-06T13:30:52.000Z</time>
      </trkpt>
      <trkpt lat="43.69947" lon="6.80457">
        <ele>679.607743</ele>
        <time>2024-12-06T13:30:53.000Z</time>
      </trkpt>
      <trkpt lat="43.69945" lon="6.80462">
        <ele>679.739044</ele>
        <time>2024-12-06T13:30:54.000Z</time>
      </trkpt>
      <trkpt lat="43.69943" lon="6.80466">
        <ele>679.835694</ele>
        <time>2024-12-06T13:30:55.000Z</time>
      </trkpt>
      <trkpt lat="43.69942" lon="6.80471">
        <ele>679.935569</ele>
        <time>2024-12-06T13:30:56.000Z</time>
      </trkpt>
      <trkpt lat="43.6994" lon="6.80476">
        <ele>680.034332</ele>
        <time>2024-12-06T13:30:57.000Z</time>
      </trkpt>
      <trkpt lat="43.69938" lon="6.80481">
        <ele>680.136976</ele>
        <time>2024-12-06T13:30:58.000Z</time>
      </trkpt>
      <trkpt lat="43.69936" lon="6.80486">
        <ele>680.238475</ele>
        <time>2024-12-06T13:30:59.000Z</time>
      </trkpt>
      <trkpt lat="43.69934" lon="6.80491">
        <ele>680.342731</ele>
        <time>2024-12-06T13:31:00.000Z</time>
      </trkpt>
      <trkpt lat="43.69933" lon="6.80497">
        <ele>680.446435</ele>
        <time>2024-12-06T13:31:01.000Z</time>
      </trkpt>
      <trkpt lat="43.69931" lon="6.80502">
        <ele>680.548171</ele>
        <time>2024-12-06T13:31:02.000Z</time>
      </trkpt>
      <trkpt lat="43.6993" lon="6.80506">
        <ele>680.633867</ele>
        <time>2024-12-06T13:31:03.000Z</time>
      </trkpt>
      <trkpt lat="43.69928" lon="6.80512">
        <ele>680.758283</ele>
        <time>2024-12-06T13:31:04.000Z</time>
      </trkpt>
      <trkpt lat="43.69926" lon="6.80517">
        <ele>680.863048</ele>
        <time>2024-12-06T13:31:05.000Z</time>
      </trkpt>
      <trkpt lat="43.69924" lon="6.80522">
        <ele>680.952547</ele>
        <time>2024-12-06T13:31:06.000Z</time>
      </trkpt>
      <trkpt lat="43.69922" lon="6.80528">
        <ele>681.081949</ele>
        <time>2024-12-06T13:31:07.000Z</time>
      </trkpt>
      <trkpt lat="43.69914" lon="6.8055">
        <ele>681.527823</ele>
        <time>2024-12-06T13:31:12.000Z</time>
      </trkpt>
      <trkpt lat="43.69912" lon="6.80555">
        <ele>681.633698</ele>
        <time>2024-12-06T13:31:13.000Z</time>
      </trkpt>
      <trkpt lat="43.6991" lon="6.8056">
        <ele>681.725961</ele>
        <time>2024-12-06T13:31:14.000Z</time>
      </trkpt>
      <trkpt lat="43.69909" lon="6.80563">
        <ele>681.80121</ele>
        <time>2024-12-06T13:31:15.000Z</time>
      </trkpt>
      <trkpt lat="43.69907" lon="6.80569">
        <ele>681.911035</ele>
        <time>2024-12-06T13:31:16.000Z</time>
      </trkpt>
      <trkpt lat="43.69905" lon="6.80573">
        <ele>681.997303</ele>
        <time>2024-12-06T13:31:17.000Z</time>
      </trkpt>
      <trkpt lat="43.69904" lon="6.80576">
        <ele>682.068324</ele>
        <time>2024-12-06T13:31:18.000Z</time>
      </trkpt>
      <trkpt lat="43.69901" lon="6.80587">
        <ele>682.272042</ele>
        <time>2024-12-06T13:31:20.000Z</time>
      </trkpt>
      <trkpt lat="43.69897" lon="6.80618">
        <ele>682.852785</ele>
        <time>2024-12-06T13:31:26.000Z</time>
      </trkpt>
      <trkpt lat="43.69896" lon="6.80644">
        <ele>683.331501</ele>
        <time>2024-12-06T13:31:31.000Z</time>
      </trkpt>
      <trkpt lat="43.69895" lon="6.80675">
        <ele>683.889396</ele>
        <time>2024-12-06T13:31:37.000Z</time>
      </trkpt>
      <trkpt lat="43.69895" lon="6.80697">
        <ele>684.351926</ele>
        <time>2024-12-06T13:31:41.000Z</time>
      </trkpt>
      <trkpt lat="43.69895" lon="6.80702">
        <ele>684.504927</ele>
        <time>2024-12-06T13:31:42.000Z</time>
      </trkpt>
      <trkpt lat="43.69895" lon="6.80707">
        <ele>684.666268</ele>
        <time>2024-12-06T13:31:43.000Z</time>
      </trkpt>
      <trkpt lat="43.69894" lon="6.80712">
        <ele>684.824528</ele>
        <time>2024-12-06T13:31:44.000Z</time>
      </trkpt>
      <trkpt lat="43.69894" lon="6.80717">
        <ele>684.98089</ele>
        <time>2024-12-06T13:31:45.000Z</time>
      </trkpt>
      <trkpt lat="43.69893" lon="6.80722">
        <ele>685.137967</ele>
        <time>2024-12-06T13:31:46.000Z</time>
      </trkpt>
      <trkpt lat="43.69893" lon="6.80727">
        <ele>685.288404</ele>
        <time>2024-12-06T13:31:47.000Z</time>
      </trkpt>
      <trkpt lat="43.69893" lon="6.80731">
        <ele>685.408309</ele>
        <time>2024-12-06T13:31:48.000Z</time>
      </trkpt>
      <trkpt lat="43.69892" lon="6.80736">
        <ele>685.584019</ele>
        <time>2024-12-06T13:31:49.000Z</time>
      </trkpt>
      <trkpt lat="43.69892" lon="6.80741">
        <ele>685.727718</ele>
        <time>2024-12-06T13:31:50.000Z</time>
      </trkpt>
      <trkpt lat="43.69892" lon="6.80745">
        <ele>685.875045</ele>
        <time>2024-12-06T13:31:51.000Z</time>
      </trkpt>
      <trkpt lat="43.69891" lon="6.8075">
        <ele>686.023381</ele>
        <time>2024-12-06T13:31:52.000Z</time>
      </trkpt>
      <trkpt lat="43.69891" lon="6.80755">
        <ele>686.171718</ele>
        <time>2024-12-06T13:31:53.000Z</time>
      </trkpt>
      <trkpt lat="43.6989" lon="6.80759">
        <ele>686.314599</ele>
        <time>2024-12-06T13:31:54.000Z</time>
      </trkpt>
      <trkpt lat="43.69889" lon="6.80764">
        <ele>686.456266</ele>
        <time>2024-12-06T13:31:55.000Z</time>
      </trkpt>
      <trkpt lat="43.69889" lon="6.80768">
        <ele>686.599047</ele>
        <time>2024-12-06T13:31:56.000Z</time>
      </trkpt>
      <trkpt lat="43.69888" lon="6.80773">
        <ele>686.745828</ele>
        <time>2024-12-06T13:31:57.000Z</time>
      </trkpt>
      <trkpt lat="43.69887" lon="6.80778">
        <ele>686.901806</ele>
        <time>2024-12-06T13:31:58.000Z</time>
      </trkpt>
      <trkpt lat="43.69886" lon="6.80782">
        <ele>687.059667</ele>
        <time>2024-12-06T13:31:59.000Z</time>
      </trkpt>
      <trkpt lat="43.69885" lon="6.80787">
        <ele>687.214504</ele>
        <time>2024-12-06T13:32:00.000Z</time>
      </trkpt>
      <trkpt lat="43.69884" lon="6.80792">
        <ele>687.374406</ele>
        <time>2024-12-06T13:32:01.000Z</time>
      </trkpt>
      <trkpt lat="43.69884" lon="6.80797">
        <ele>687.524244</ele>
        <time>2024-12-06T13:32:02.000Z</time>
      </trkpt>
      <trkpt lat="43.69883" lon="6.80802">
        <ele>687.675013</ele>
        <time>2024-12-06T13:32:03.000Z</time>
      </trkpt>
      <trkpt lat="43.69882" lon="6.80806">
        <ele>687.816055</ele>
        <time>2024-12-06T13:32:04.000Z</time>
      </trkpt>
      <trkpt lat="43.69881" lon="6.80809">
        <ele>687.920447</ele>
        <time>2024-12-06T13:32:05.000Z</time>
      </trkpt>
      <trkpt lat="43.6988" lon="6.80814">
        <ele>688.093709</ele>
        <time>2024-12-06T13:32:06.000Z</time>
      </trkpt>
      <trkpt lat="43.69879" lon="6.80819">
        <ele>688.234751</ele>
        <time>2024-12-06T13:32:07.000Z</time>
      </trkpt>
      <trkpt lat="43.69878" lon="6.80823">
        <ele>688.371534</ele>
        <time>2024-12-06T13:32:08.000Z</time>
      </trkpt>
      <trkpt lat="43.69877" lon="6.80827">
        <ele>688.504136</ele>
        <time>2024-12-06T13:32:09.000Z</time>
      </trkpt>
      <trkpt lat="43.69876" lon="6.80831">
        <ele>688.636292</ele>
        <time>2024-12-06T13:32:10.000Z</time>
      </trkpt>
      <trkpt lat="43.69875" lon="6.80835">
        <ele>688.777334</ele>
        <time>2024-12-06T13:32:11.000Z</time>
      </trkpt>
      <trkpt lat="43.69874" lon="6.8084">
        <ele>688.923123</ele>
        <time>2024-12-06T13:32:12.000Z</time>
      </trkpt>
      <trkpt lat="43.69873" lon="6.80844">
        <ele>689.065905</ele>
        <time>2024-12-06T13:32:13.000Z</time>
      </trkpt>
      <trkpt lat="43.69872" lon="6.80848">
        <ele>689.205685</ele>
        <time>2024-12-06T13:32:14.000Z</time>
      </trkpt>
      <trkpt lat="43.69871" lon="6.80853">
        <ele>689.348467</ele>
        <time>2024-12-06T13:32:15.000Z</time>
      </trkpt>
      <trkpt lat="43.6987" lon="6.80858">
        <ele>689.500284</ele>
        <time>2024-12-06T13:32:16.000Z</time>
      </trkpt>
      <trkpt lat="43.6987" lon="6.80862">
        <ele>689.654094</ele>
        <time>2024-12-06T13:32:17.000Z</time>
      </trkpt>
      <trkpt lat="43.69868" lon="6.80867">
        <ele>689.803859</ele>
        <time>2024-12-06T13:32:18.000Z</time>
      </trkpt>
      <trkpt lat="43.69867" lon="6.80871">
        <ele>689.946283</ele>
        <time>2024-12-06T13:32:19.000Z</time>
      </trkpt>
      <trkpt lat="43.69866" lon="6.80876">
        <ele>690.090301</ele>
        <time>2024-12-06T13:32:20.000Z</time>
      </trkpt>
      <trkpt lat="43.69865" lon="6.8088">
        <ele>690.238627</ele>
        <time>2024-12-06T13:32:21.000Z</time>
      </trkpt>
      <trkpt lat="43.69864" lon="6.80885">
        <ele>690.388392</ele>
        <time>2024-12-06T13:32:22.000Z</time>
      </trkpt>
      <trkpt lat="43.69863" lon="6.80889">
        <ele>690.539706</ele>
        <time>2024-12-06T13:32:23.000Z</time>
      </trkpt>
      <trkpt lat="43.69862" lon="6.80894">
        <ele>690.690994</ele>
        <time>2024-12-06T13:32:24.000Z</time>
      </trkpt>
      <trkpt lat="43.6986" lon="6.80898">
        <ele>690.846633</ele>
        <time>2024-12-06T13:32:25.000Z</time>
      </trkpt>
      <trkpt lat="43.69859" lon="6.80902">
        <ele>690.975842</ele>
        <time>2024-12-06T13:32:26.000Z</time>
      </trkpt>
      <trkpt lat="43.69858" lon="6.80907">
        <ele>691.128822</ele>
        <time>2024-12-06T13:32:27.000Z</time>
      </trkpt>
      <trkpt lat="43.69857" lon="6.80912">
        <ele>691.308209</ele>
        <time>2024-12-06T13:32:28.000Z</time>
      </trkpt>
      <trkpt lat="43.69856" lon="6.80916">
        <ele>691.434479</ele>
        <time>2024-12-06T13:32:29.000Z</time>
      </trkpt>
      <trkpt lat="43.69855" lon="6.80922">
        <ele>691.63124</ele>
        <time>2024-12-06T13:32:30.000Z</time>
      </trkpt>
      <trkpt lat="43.69854" lon="6.80927">
        <ele>691.788469</ele>
        <time>2024-12-06T13:32:31.000Z</time>
      </trkpt>
      <trkpt lat="43.69853" lon="6.80932">
        <ele>691.93727</ele>
        <time>2024-12-06T13:32:32.000Z</time>
      </trkpt>
      <trkpt lat="43.69852" lon="6.80936">
        <ele>692.023222</ele>
        <time>2024-12-06T13:32:33.000Z</time>
      </trkpt>
      <trkpt lat="43.69851" lon="6.8094">
        <ele>692.098156</ele>
        <time>2024-12-06T13:32:34.000Z</time>
      </trkpt>
      <trkpt lat="43.69849" lon="6.80945">
        <ele>692.178304</ele>
        <time>2024-12-06T13:32:35.000Z</time>
      </trkpt>
      <trkpt lat="43.69849" lon="6.8095">
        <ele>692.255693</ele>
        <time>2024-12-06T13:32:36.000Z</time>
      </trkpt>
      <trkpt lat="43.69848" lon="6.80954">
        <ele>692.31503</ele>
        <time>2024-12-06T13:32:37.000Z</time>
      </trkpt>
      <trkpt lat="43.69847" lon="6.80958">
        <ele>692.388444</ele>
        <time>2024-12-06T13:32:38.000Z</time>
      </trkpt>
      <trkpt lat="43.69846" lon="6.80963">
        <ele>692.469485</ele>
        <time>2024-12-06T13:32:39.000Z</time>
      </trkpt>
      <trkpt lat="43.69845" lon="6.80967">
        <ele>692.544419</ele>
        <time>2024-12-06T13:32:40.000Z</time>
      </trkpt>
      <trkpt lat="43.69844" lon="6.80971">
        <ele>692.603223</ele>
        <time>2024-12-06T13:32:41.000Z</time>
      </trkpt>
      <trkpt lat="43.69843" lon="6.80976">
        <ele>692.68833</ele>
        <time>2024-12-06T13:32:42.000Z</time>
      </trkpt>
      <trkpt lat="43.69843" lon="6.80981">
        <ele>692.76209</ele>
        <time>2024-12-06T13:32:43.000Z</time>
      </trkpt>
      <trkpt lat="43.69842" lon="6.80985">
        <ele>692.834874</ele>
        <time>2024-12-06T13:32:44.000Z</time>
      </trkpt>
      <trkpt lat="43.69841" lon="6.8099">
        <ele>692.911255</ele>
        <time>2024-12-06T13:32:45.000Z</time>
      </trkpt>
      <trkpt lat="43.69841" lon="6.80993">
        <ele>692.970802</ele>
        <time>2024-12-06T13:32:46.000Z</time>
      </trkpt>
      <trkpt lat="43.6984" lon="6.80998">
        <ele>693.047658</ele>
        <time>2024-12-06T13:32:47.000Z</time>
      </trkpt>
      <trkpt lat="43.69839" lon="6.81003">
        <ele>693.127615</ele>
        <time>2024-12-06T13:32:48.000Z</time>
      </trkpt>
      <trkpt lat="43.69838" lon="6.81008">
        <ele>693.206719</ele>
        <time>2024-12-06T13:32:49.000Z</time>
      </trkpt>
      <trkpt lat="43.69838" lon="6.81013">
        <ele>693.289346</ele>
        <time>2024-12-06T13:32:50.000Z</time>
      </trkpt>
      <trkpt lat="43.69837" lon="6.81019">
        <ele>693.391562</ele>
        <time>2024-12-06T13:32:51.000Z</time>
      </trkpt>
      <trkpt lat="43.69836" lon="6.81025">
        <ele>693.478218</ele>
        <time>2024-12-06T13:32:52.000Z</time>
      </trkpt>
      <trkpt lat="43.69835" lon="6.81029">
        <ele>693.546362</ele>
        <time>2024-12-06T13:32:53.000Z</time>
      </trkpt>
      <trkpt lat="43.69834" lon="6.81034">
        <ele>693.632008</ele>
        <time>2024-12-06T13:32:54.000Z</time>
      </trkpt>
      <trkpt lat="43.69833" lon="6.8104">
        <ele>693.738438</ele>
        <time>2024-12-06T13:32:55.000Z</time>
      </trkpt>
      <trkpt lat="43.69832" lon="6.81046">
        <ele>693.822547</ele>
        <time>2024-12-06T13:32:56.000Z</time>
      </trkpt>
      <trkpt lat="43.69831" lon="6.81051">
        <ele>693.904562</ele>
        <time>2024-12-06T13:32:57.000Z</time>
      </trkpt>
      <trkpt lat="43.6983" lon="6.81056">
        <ele>693.986073</ele>
        <time>2024-12-06T13:32:58.000Z</time>
      </trkpt>
      <trkpt lat="43.69829" lon="6.8106">
        <ele>694.055206</ele>
        <time>2024-12-06T13:32:59.000Z</time>
      </trkpt>
      <trkpt lat="43.69829" lon="6.81066">
        <ele>694.152922</ele>
        <time>2024-12-06T13:33:00.000Z</time>
      </trkpt>
      <trkpt lat="43.69828" lon="6.81071">
        <ele>694.231688</ele>
        <time>2024-12-06T13:33:01.000Z</time>
      </trkpt>
      <trkpt lat="43.69828" lon="6.81075">
        <ele>694.29787</ele>
        <time>2024-12-06T13:33:02.000Z</time>
      </trkpt>
      <trkpt lat="43.69827" lon="6.8108">
        <ele>694.381686</ele>
        <time>2024-12-06T13:33:03.000Z</time>
      </trkpt>
      <trkpt lat="43.69827" lon="6.81086">
        <ele>694.480984</ele>
        <time>2024-12-06T13:33:04.000Z</time>
      </trkpt>
      <trkpt lat="43.69826" lon="6.81091">
        <ele>694.550307</ele>
        <time>2024-12-06T13:33:05.000Z</time>
      </trkpt>
      <trkpt lat="43.69825" lon="6.81096">
        <ele>694.636486</ele>
        <time>2024-12-06T13:33:06.000Z</time>
      </trkpt>
      <trkpt lat="43.69825" lon="6.81103">
        <ele>694.744955</ele>
        <time>2024-12-06T13:33:07.000Z</time>
      </trkpt>
      <trkpt lat="43.69823" lon="6.81128">
        <ele>695.154876</ele>
        <time>2024-12-06T13:33:12.000Z</time>
      </trkpt>
      <trkpt lat="43.69822" lon="6.81171">
        <ele>695.840456</ele>
        <time>2024-12-06T13:33:20.000Z</time>
      </trkpt>
      <trkpt lat="43.6982" lon="6.81221">
        <ele>697.043466</ele>
        <time>2024-12-06T13:33:29.000Z</time>
      </trkpt>
      <trkpt lat="43.69826" lon="6.81271">
        <ele>698.282565</ele>
        <time>2024-12-06T13:33:38.000Z</time>
      </trkpt>
      <trkpt lat="43.69832" lon="6.81297">
        <ele>698.966356</ele>
        <time>2024-12-06T13:33:43.000Z</time>
      </trkpt>
      <trkpt lat="43.69833" lon="6.81302">
        <ele>699.097594</ele>
        <time>2024-12-06T13:33:44.000Z</time>
      </trkpt>
      <trkpt lat="43.69835" lon="6.81313">
        <ele>699.364867</ele>
        <time>2024-12-06T13:33:46.000Z</time>
      </trkpt>
      <trkpt lat="43.69836" lon="6.81318">
        <ele>699.501813</ele>
        <time>2024-12-06T13:33:47.000Z</time>
      </trkpt>
      <trkpt lat="43.69837" lon="6.81323">
        <ele>699.631614</ele>
        <time>2024-12-06T13:33:48.000Z</time>
      </trkpt>
      <trkpt lat="43.69838" lon="6.81328">
        <ele>699.759584</ele>
        <time>2024-12-06T13:33:49.000Z</time>
      </trkpt>
      <trkpt lat="43.69839" lon="6.81337">
        <ele>699.994206</ele>
        <time>2024-12-06T13:33:51.000Z</time>
      </trkpt>
      <trkpt lat="43.6984" lon="6.81342">
        <ele>700.109296</ele>
        <time>2024-12-06T13:33:52.000Z</time>
      </trkpt>
      <trkpt lat="43.6984" lon="6.81346">
        <ele>700.230909</ele>
        <time>2024-12-06T13:33:53.000Z</time>
      </trkpt>
      <trkpt lat="43.69841" lon="6.81351">
        <ele>700.354957</ele>
        <time>2024-12-06T13:33:54.000Z</time>
      </trkpt>
      <trkpt lat="43.69842" lon="6.81356">
        <ele>700.479716</ele>
        <time>2024-12-06T13:33:55.000Z</time>
      </trkpt>
      <trkpt lat="43.69842" lon="6.81361">
        <ele>700.602185</ele>
        <time>2024-12-06T13:33:56.000Z</time>
      </trkpt>
      <trkpt lat="43.69843" lon="6.81366">
        <ele>700.724316</ele>
        <time>2024-12-06T13:33:57.000Z</time>
      </trkpt>
      <trkpt lat="43.69843" lon="6.81371">
        <ele>700.846205</ele>
        <time>2024-12-06T13:33:58.000Z</time>
      </trkpt>
      <trkpt lat="43.69843" lon="6.81377">
        <ele>700.992245</ele>
        <time>2024-12-06T13:33:59.000Z</time>
      </trkpt>
      <trkpt lat="43.69844" lon="6.81382">
        <ele>701.111901</ele>
        <time>2024-12-06T13:34:00.000Z</time>
      </trkpt>
      <trkpt lat="43.69844" lon="6.81385">
        <ele>701.206838</ele>
        <time>2024-12-06T13:34:01.000Z</time>
      </trkpt>
      <trkpt lat="43.69845" lon="6.81391">
        <ele>701.349894</ele>
        <time>2024-12-06T13:34:02.000Z</time>
      </trkpt>
      <trkpt lat="43.69845" lon="6.81395">
        <ele>701.450711</ele>
        <time>2024-12-06T13:34:03.000Z</time>
      </trkpt>
      <trkpt lat="43.69846" lon="6.814">
        <ele>701.578117</ele>
        <time>2024-12-06T13:34:04.000Z</time>
      </trkpt>
      <trkpt lat="43.69846" lon="6.81405">
        <ele>701.705938</ele>
        <time>2024-12-06T13:34:05.000Z</time>
      </trkpt>
      <trkpt lat="43.69846" lon="6.81411">
        <ele>701.857475</ele>
        <time>2024-12-06T13:34:06.000Z</time>
      </trkpt>
      <trkpt lat="43.69846" lon="6.81415">
        <ele>701.956878</ele>
        <time>2024-12-06T13:34:07.000Z</time>
      </trkpt>
      <trkpt lat="43.69846" lon="6.81422">
        <ele>702.113203</ele>
        <time>2024-12-06T13:34:08.000Z</time>
      </trkpt>
      <trkpt lat="43.69847" lon="6.81427">
        <ele>702.2515</ele>
        <time>2024-12-06T13:34:09.000Z</time>
      </trkpt>
      <trkpt lat="43.69847" lon="6.81432">
        <ele>702.364449</ele>
        <time>2024-12-06T13:34:10.000Z</time>
      </trkpt>
      <trkpt lat="43.69847" lon="6.81438">
        <ele>702.506645</ele>
        <time>2024-12-06T13:34:11.000Z</time>
      </trkpt>
      <trkpt lat="43.69847" lon="6.81443">
        <ele>702.648842</ele>
        <time>2024-12-06T13:34:12.000Z</time>
      </trkpt>
      <trkpt lat="43.69847" lon="6.81449">
        <ele>702.793806</ele>
        <time>2024-12-06T13:34:13.000Z</time>
      </trkpt>
      <trkpt lat="43.69847" lon="6.81455">
        <ele>702.943354</ele>
        <time>2024-12-06T13:34:14.000Z</time>
      </trkpt>
      <trkpt lat="43.69847" lon="6.81463">
        <ele>703.127208</ele>
        <time>2024-12-06T13:34:15.000Z</time>
      </trkpt>
      <trkpt lat="43.69848" lon="6.81469">
        <ele>703.274422</ele>
        <time>2024-12-06T13:34:16.000Z</time>
      </trkpt>
      <trkpt lat="43.69848" lon="6.81474">
        <ele>703.392118</ele>
        <time>2024-12-06T13:34:17.000Z</time>
      </trkpt>
      <trkpt lat="43.69848" lon="6.81481">
        <ele>703.571038</ele>
        <time>2024-12-06T13:34:18.000Z</time>
      </trkpt>
      <trkpt lat="43.69848" lon="6.81486">
        <ele>703.691184</ele>
        <time>2024-12-06T13:34:19.000Z</time>
      </trkpt>
      <trkpt lat="43.69848" lon="6.81492">
        <ele>703.836148</ele>
        <time>2024-12-06T13:34:20.000Z</time>
      </trkpt>
      <trkpt lat="43.69848" lon="6.81499">
        <ele>704.008251</ele>
        <time>2024-12-06T13:34:21.000Z</time>
      </trkpt>
      <trkpt lat="43.69849" lon="6.81503">
        <ele>704.122263</ele>
        <time>2024-12-06T13:34:22.000Z</time>
      </trkpt>
      <trkpt lat="43.69849" lon="6.81509">
        <ele>704.265064</ele>
        <time>2024-12-06T13:34:23.000Z</time>
      </trkpt>
      <trkpt lat="43.6985" lon="6.81516">
        <ele>704.424253</ele>
        <time>2024-12-06T13:34:24.000Z</time>
      </trkpt>
      <trkpt lat="43.69851" lon="6.81521">
        <ele>704.558159</ele>
        <time>2024-12-06T13:34:25.000Z</time>
      </trkpt>
      <trkpt lat="43.69851" lon="6.81525">
        <ele>704.664041</ele>
        <time>2024-12-06T13:34:26.000Z</time>
      </trkpt>
      <trkpt lat="43.69852" lon="6.81532">
        <ele>704.823842</ele>
        <time>2024-12-06T13:34:27.000Z</time>
      </trkpt>
      <trkpt lat="43.69853" lon="6.81536">
        <ele>704.938407</ele>
        <time>2024-12-06T13:34:28.000Z</time>
      </trkpt>
      <trkpt lat="43.69853" lon="6.81542">
        <ele>705.083371</ele>
        <time>2024-12-06T13:34:29.000Z</time>
      </trkpt>
      <trkpt lat="43.69853" lon="6.81548">
        <ele>705.228613</ele>
        <time>2024-12-06T13:34:30.000Z</time>
      </trkpt>
      <trkpt lat="43.69854" lon="6.81554">
        <ele>705.378467</ele>
        <time>2024-12-06T13:34:31.000Z</time>
      </trkpt>
      <trkpt lat="43.69854" lon="6.8156">
        <ele>705.520623</ele>
        <time>2024-12-06T13:34:32.000Z</time>
      </trkpt>
      <trkpt lat="43.69854" lon="6.81566">
        <ele>705.655809</ele>
        <time>2024-12-06T13:34:33.000Z</time>
      </trkpt>
      <trkpt lat="43.69854" lon="6.81571">
        <ele>705.793105</ele>
        <time>2024-12-06T13:34:34.000Z</time>
      </trkpt>
      <trkpt lat="43.69854" lon="6.81576">
        <ele>705.923051</ele>
        <time>2024-12-06T13:34:35.000Z</time>
      </trkpt>
      <trkpt lat="43.69854" lon="6.81582">
        <ele>706.057897</ele>
        <time>2024-12-06T13:34:36.000Z</time>
      </trkpt>
      <trkpt lat="43.69854" lon="6.81587">
        <ele>706.187842</ele>
        <time>2024-12-06T13:34:37.000Z</time>
      </trkpt>
      <trkpt lat="43.69854" lon="6.81593">
        <ele>706.317788</ele>
        <time>2024-12-06T13:34:38.000Z</time>
      </trkpt>
      <trkpt lat="43.69854" lon="6.81598">
        <ele>706.447866</ele>
        <time>2024-12-06T13:34:39.000Z</time>
      </trkpt>
      <trkpt lat="43.69854" lon="6.81604">
        <ele>706.609772</ele>
        <time>2024-12-06T13:34:40.000Z</time>
      </trkpt>
      <trkpt lat="43.69854" lon="6.81609">
        <ele>706.715381</ele>
        <time>2024-12-06T13:34:41.000Z</time>
      </trkpt>
      <trkpt lat="43.69854" lon="6.81614">
        <ele>706.847733</ele>
        <time>2024-12-06T13:34:42.000Z</time>
      </trkpt>
      <trkpt lat="43.69854" lon="6.81621">
        <ele>707.014433</ele>
        <time>2024-12-06T13:34:43.000Z</time>
      </trkpt>
      <trkpt lat="43.69854" lon="6.81626">
        <ele>707.127636</ele>
        <time>2024-12-06T13:34:44.000Z</time>
      </trkpt>
      <trkpt lat="43.69854" lon="6.81631">
        <ele>707.269792</ele>
        <time>2024-12-06T13:34:45.000Z</time>
      </trkpt>
      <trkpt lat="43.69854" lon="6.81637">
        <ele>707.417201</ele>
        <time>2024-12-06T13:34:46.000Z</time>
      </trkpt>
      <trkpt lat="43.69854" lon="6.81643">
        <ele>707.555123</ele>
        <time>2024-12-06T13:34:47.000Z</time>
      </trkpt>
      <trkpt lat="43.69855" lon="6.8165">
        <ele>707.723981</ele>
        <time>2024-12-06T13:34:48.000Z</time>
      </trkpt>
      <trkpt lat="43.69856" lon="6.81654">
        <ele>707.831318</ele>
        <time>2024-12-06T13:34:49.000Z</time>
      </trkpt>
      <trkpt lat="43.69857" lon="6.8166">
        <ele>707.987786</ele>
        <time>2024-12-06T13:34:50.000Z</time>
      </trkpt>
      <trkpt lat="43.69857" lon="6.81664">
        <ele>708.083118</ele>
        <time>2024-12-06T13:34:51.000Z</time>
      </trkpt>
      <trkpt lat="43.69859" lon="6.81674">
        <ele>708.31788</ele>
        <time>2024-12-06T13:34:53.000Z</time>
      </trkpt>
      <trkpt lat="43.6986" lon="6.81679">
        <ele>708.426211</ele>
        <time>2024-12-06T13:34:54.000Z</time>
      </trkpt>
      <trkpt lat="43.69861" lon="6.81683">
        <ele>708.536426</ele>
        <time>2024-12-06T13:34:55.000Z</time>
      </trkpt>
      <trkpt lat="43.69862" lon="6.81688">
        <ele>708.649008</ele>
        <time>2024-12-06T13:34:56.000Z</time>
      </trkpt>
      <trkpt lat="43.69864" lon="6.81693">
        <ele>708.763455</ele>
        <time>2024-12-06T13:34:57.000Z</time>
      </trkpt>
      <trkpt lat="43.69865" lon="6.81698">
        <ele>708.874726</ele>
        <time>2024-12-06T13:34:58.000Z</time>
      </trkpt>
      <trkpt lat="43.69867" lon="6.81703">
        <ele>709.010932</ele>
        <time>2024-12-06T13:34:59.000Z</time>
      </trkpt>
      <trkpt lat="43.69868" lon="6.81709">
        <ele>709.131628</ele>
        <time>2024-12-06T13:35:00.000Z</time>
      </trkpt>
      <trkpt lat="43.69869" lon="6.81713">
        <ele>709.230612</ele>
        <time>2024-12-06T13:35:01.000Z</time>
      </trkpt>
      <trkpt lat="43.6987" lon="6.81718">
        <ele>709.351308</ele>
        <time>2024-12-06T13:35:02.000Z</time>
      </trkpt>
      <trkpt lat="43.69871" lon="6.81723">
        <ele>709.472212</ele>
        <time>2024-12-06T13:35:03.000Z</time>
      </trkpt>
      <trkpt lat="43.69873" lon="6.81728">
        <ele>709.593116</ele>
        <time>2024-12-06T13:35:04.000Z</time>
      </trkpt>
      <trkpt lat="43.69875" lon="6.81734">
        <ele>709.739207</ele>
        <time>2024-12-06T13:35:05.000Z</time>
      </trkpt>
      <trkpt lat="43.69876" lon="6.81739">
        <ele>709.843191</ele>
        <time>2024-12-06T13:35:06.000Z</time>
      </trkpt>
      <trkpt lat="43.69878" lon="6.81744">
        <ele>709.976302</ele>
        <time>2024-12-06T13:35:07.000Z</time>
      </trkpt>
      <trkpt lat="43.69879" lon="6.8175">
        <ele>710.107321</ele>
        <time>2024-12-06T13:35:08.000Z</time>
      </trkpt>
      <trkpt lat="43.69881" lon="6.81755">
        <ele>710.235233</ele>
        <time>2024-12-06T13:35:09.000Z</time>
      </trkpt>
      <trkpt lat="43.69882" lon="6.8176">
        <ele>710.360194</ele>
        <time>2024-12-06T13:35:10.000Z</time>
      </trkpt>
      <trkpt lat="43.69884" lon="6.81766">
        <ele>710.485154</ele>
        <time>2024-12-06T13:35:11.000Z</time>
      </trkpt>
      <trkpt lat="43.69886" lon="6.81771">
        <ele>710.612634</ele>
        <time>2024-12-06T13:35:12.000Z</time>
      </trkpt>
      <trkpt lat="43.69887" lon="6.81776">
        <ele>710.740841</ele>
        <time>2024-12-06T13:35:13.000Z</time>
      </trkpt>
      <trkpt lat="43.69889" lon="6.81781">
        <ele>710.867839</ele>
        <time>2024-12-06T13:35:14.000Z</time>
      </trkpt>
      <trkpt lat="43.69891" lon="6.81788">
        <ele>711.016738</ele>
        <time>2024-12-06T13:35:15.000Z</time>
      </trkpt>
      <trkpt lat="43.69892" lon="6.81792">
        <ele>711.114542</ele>
        <time>2024-12-06T13:35:16.000Z</time>
      </trkpt>
      <trkpt lat="43.69893" lon="6.81797">
        <ele>711.235167</ele>
        <time>2024-12-06T13:35:17.000Z</time>
      </trkpt>
      <trkpt lat="43.69895" lon="6.81803">
        <ele>711.37473</ele>
        <time>2024-12-06T13:35:18.000Z</time>
      </trkpt>
      <trkpt lat="43.69896" lon="6.81806">
        <ele>711.467686</ele>
        <time>2024-12-06T13:35:19.000Z</time>
      </trkpt>
      <trkpt lat="43.69898" lon="6.81811">
        <ele>711.57659</ele>
        <time>2024-12-06T13:35:20.000Z</time>
      </trkpt>
      <trkpt lat="43.699" lon="6.81816">
        <ele>711.711374</ele>
        <time>2024-12-06T13:35:21.000Z</time>
      </trkpt>
      <trkpt lat="43.69901" lon="6.8182">
        <ele>711.800352</ele>
        <time>2024-12-06T13:35:22.000Z</time>
      </trkpt>
      <trkpt lat="43.69903" lon="6.81825">
        <ele>711.915978</ele>
        <time>2024-12-06T13:35:23.000Z</time>
      </trkpt>
      <trkpt lat="43.69904" lon="6.8183">
        <ele>712.031604</ele>
        <time>2024-12-06T13:35:24.000Z</time>
      </trkpt>
      <trkpt lat="43.69906" lon="6.81834">
        <ele>712.143871</ele>
        <time>2024-12-06T13:35:25.000Z</time>
      </trkpt>
      <trkpt lat="43.69908" lon="6.81839">
        <ele>712.260744</ele>
        <time>2024-12-06T13:35:26.000Z</time>
      </trkpt>
      <trkpt lat="43.69909" lon="6.81845">
        <ele>712.399531</ele>
        <time>2024-12-06T13:35:27.000Z</time>
      </trkpt>
      <trkpt lat="43.69911" lon="6.81848">
        <ele>712.489198</ele>
        <time>2024-12-06T13:35:28.000Z</time>
      </trkpt>
      <trkpt lat="43.69912" lon="6.81853">
        <ele>712.600082</ele>
        <time>2024-12-06T13:35:29.000Z</time>
      </trkpt>
      <trkpt lat="43.69914" lon="6.81857">
        <ele>712.713797</ele>
        <time>2024-12-06T13:35:30.000Z</time>
      </trkpt>
      <trkpt lat="43.69916" lon="6.81863">
        <ele>712.847955</ele>
        <time>2024-12-06T13:35:31.000Z</time>
      </trkpt>
      <trkpt lat="43.69917" lon="6.81866">
        <ele>712.938342</ele>
        <time>2024-12-06T13:35:32.000Z</time>
      </trkpt>
      <trkpt lat="43.69919" lon="6.81872">
        <ele>713.07645</ele>
        <time>2024-12-06T13:35:33.000Z</time>
      </trkpt>
      <trkpt lat="43.69921" lon="6.81877">
        <ele>713.191319</ele>
        <time>2024-12-06T13:35:34.000Z</time>
      </trkpt>
      <trkpt lat="43.69922" lon="6.8188">
        <ele>713.283659</ele>
        <time>2024-12-06T13:35:35.000Z</time>
      </trkpt>
      <trkpt lat="43.69925" lon="6.81886">
        <ele>713.423818</ele>
        <time>2024-12-06T13:35:36.000Z</time>
      </trkpt>
      <trkpt lat="43.69926" lon="6.81889">
        <ele>713.512263</ele>
        <time>2024-12-06T13:35:37.000Z</time>
      </trkpt>
      <trkpt lat="43.69928" lon="6.81893">
        <ele>713.613343</ele>
        <time>2024-12-06T13:35:38.000Z</time>
      </trkpt>
      <trkpt lat="43.69929" lon="6.81897">
        <ele>713.700119</ele>
        <time>2024-12-06T13:35:39.000Z</time>
      </trkpt>
      <trkpt lat="43.69931" lon="6.81901">
        <ele>713.724265</ele>
        <time>2024-12-06T13:35:40.000Z</time>
      </trkpt>
      <trkpt lat="43.69931" lon="6.81904">
        <ele>713.740955</ele>
        <time>2024-12-06T13:35:41.000Z</time>
      </trkpt>
      <trkpt lat="43.69932" lon="6.81908">
        <ele>713.761977</ele>
        <time>2024-12-06T13:35:42.000Z</time>
      </trkpt>
      <trkpt lat="43.69934" lon="6.81912">
        <ele>713.783767</ele>
        <time>2024-12-06T13:35:43.000Z</time>
      </trkpt>
      <trkpt lat="43.69935" lon="6.81915">
        <ele>713.80604</ele>
        <time>2024-12-06T13:35:44.000Z</time>
      </trkpt>
      <trkpt lat="43.69936" lon="6.81921">
        <ele>713.836028</ele>
        <time>2024-12-06T13:35:45.000Z</time>
      </trkpt>
      <trkpt lat="43.69938" lon="6.81924">
        <ele>713.858119</ele>
        <time>2024-12-06T13:35:46.000Z</time>
      </trkpt>
      <trkpt lat="43.6994" lon="6.81929">
        <ele>713.8876</ele>
        <time>2024-12-06T13:35:47.000Z</time>
      </trkpt>
      <trkpt lat="43.69942" lon="6.81934">
        <ele>713.917986</ele>
        <time>2024-12-06T13:35:48.000Z</time>
      </trkpt>
      <trkpt lat="43.69944" lon="6.8194">
        <ele>713.949868</ele>
        <time>2024-12-06T13:35:49.000Z</time>
      </trkpt>
      <trkpt lat="43.69946" lon="6.81945">
        <ele>713.981405</ele>
        <time>2024-12-06T13:35:50.000Z</time>
      </trkpt>
      <trkpt lat="43.69949" lon="6.8195">
        <ele>714.019307</ele>
        <time>2024-12-06T13:35:51.000Z</time>
      </trkpt>
      <trkpt lat="43.69952" lon="6.81954">
        <ele>714.045301</ele>
        <time>2024-12-06T13:35:52.000Z</time>
      </trkpt>
      <trkpt lat="43.69955" lon="6.81959">
        <ele>714.077372</ele>
        <time>2024-12-06T13:35:53.000Z</time>
      </trkpt>
      <trkpt lat="43.69958" lon="6.81963">
        <ele>714.10892</ele>
        <time>2024-12-06T13:35:54.000Z</time>
      </trkpt>
      <trkpt lat="43.69961" lon="6.81966">
        <ele>714.140903</ele>
        <time>2024-12-06T13:35:55.000Z</time>
      </trkpt>
      <trkpt lat="43.69972" lon="6.81978">
        <ele>714.240491</ele>
        <time>2024-12-06T13:35:58.000Z</time>
      </trkpt>
      <trkpt lat="43.69978" lon="6.81985">
        <ele>714.295893</ele>
        <time>2024-12-06T13:36:00.000Z</time>
      </trkpt>
      <trkpt lat="43.69982" lon="6.81989">
        <ele>714.332596</ele>
        <time>2024-12-06T13:36:01.000Z</time>
      </trkpt>
      <trkpt lat="43.70005" lon="6.82014">
        <ele>714.548075</ele>
        <time>2024-12-06T13:36:07.000Z</time>
      </trkpt>
      <trkpt lat="43.70009" lon="6.82018">
        <ele>714.577983</ele>
        <time>2024-12-06T13:36:08.000Z</time>
      </trkpt>
      <trkpt lat="43.70022" lon="6.82035">
        <ele>714.711031</ele>
        <time>2024-12-06T13:36:12.000Z</time>
      </trkpt>
      <trkpt lat="43.70025" lon="6.82039">
        <ele>714.739562</ele>
        <time>2024-12-06T13:36:13.000Z</time>
      </trkpt>
      <trkpt lat="43.70027" lon="6.82044">
        <ele>714.769043</ele>
        <time>2024-12-06T13:36:14.000Z</time>
      </trkpt>
      <trkpt lat="43.70029" lon="6.82048">
        <ele>714.796724</ele>
        <time>2024-12-06T13:36:15.000Z</time>
      </trkpt>
      <trkpt lat="43.70031" lon="6.82054">
        <ele>714.829206</ele>
        <time>2024-12-06T13:36:16.000Z</time>
      </trkpt>
      <trkpt lat="43.70034" lon="6.82061">
        <ele>714.874497</ele>
        <time>2024-12-06T13:36:18.000Z</time>
      </trkpt>
      <trkpt lat="43.70036" lon="6.82066">
        <ele>714.905447</ele>
        <time>2024-12-06T13:36:19.000Z</time>
      </trkpt>
      <trkpt lat="43.70037" lon="6.82071">
        <ele>714.928972</ele>
        <time>2024-12-06T13:36:20.000Z</time>
      </trkpt>
      <trkpt lat="43.70039" lon="6.82075">
        <ele>714.957531</ele>
        <time>2024-12-06T13:36:21.000Z</time>
      </trkpt>
      <trkpt lat="43.70043" lon="6.82086">
        <ele>714.944315</ele>
        <time>2024-12-06T13:36:23.000Z</time>
      </trkpt>
      <trkpt lat="43.70054" lon="6.82107">
        <ele>714.299609</ele>
        <time>2024-12-06T13:36:28.000Z</time>
      </trkpt>
      <trkpt lat="43.70063" lon="6.82126">
        <ele>713.756863</ele>
        <time>2024-12-06T13:36:32.000Z</time>
      </trkpt>
      <trkpt lat="43.70065" lon="6.8213">
        <ele>713.635863</ele>
        <time>2024-12-06T13:36:33.000Z</time>
      </trkpt>
      <trkpt lat="43.70066" lon="6.82133">
        <ele>713.541719</ele>
        <time>2024-12-06T13:36:34.000Z</time>
      </trkpt>
      <trkpt lat="43.70072" lon="6.82148">
        <ele>713.139877</ele>
        <time>2024-12-06T13:36:37.000Z</time>
      </trkpt>
      <trkpt lat="43.70073" lon="6.82153">
        <ele>713.007373</ele>
        <time>2024-12-06T13:36:38.000Z</time>
      </trkpt>
      <trkpt lat="43.70084" lon="6.82174">
        <ele>712.378461</ele>
        <time>2024-12-06T13:36:42.000Z</time>
      </trkpt>
      <trkpt lat="43.70086" lon="6.82178">
        <ele>712.241586</ele>
        <time>2024-12-06T13:36:43.000Z</time>
      </trkpt>
      <trkpt lat="43.70089" lon="6.82183">
        <ele>712.090764</ele>
        <time>2024-12-06T13:36:44.000Z</time>
      </trkpt>
      <trkpt lat="43.70091" lon="6.82188">
        <ele>711.967412</ele>
        <time>2024-12-06T13:36:45.000Z</time>
      </trkpt>
      <trkpt lat="43.70092" lon="6.82191">
        <ele>711.877566</ele>
        <time>2024-12-06T13:36:46.000Z</time>
      </trkpt>
      <trkpt lat="43.70094" lon="6.82196">
        <ele>711.746737</ele>
        <time>2024-12-06T13:36:47.000Z</time>
      </trkpt>
      <trkpt lat="43.70096" lon="6.82204">
        <ele>711.541802</ele>
        <time>2024-12-06T13:36:49.000Z</time>
      </trkpt>
      <trkpt lat="43.70098" lon="6.82208">
        <ele>711.409448</ele>
        <time>2024-12-06T13:36:50.000Z</time>
      </trkpt>
      <trkpt lat="43.70099" lon="6.82211">
        <ele>711.319981</ele>
        <time>2024-12-06T13:36:51.000Z</time>
      </trkpt>
      <trkpt lat="43.70102" lon="6.8222">
        <ele>711.081033</ele>
        <time>2024-12-06T13:36:53.000Z</time>
      </trkpt>
      <trkpt lat="43.70103" lon="6.82225">
        <ele>710.960142</ele>
        <time>2024-12-06T13:36:54.000Z</time>
      </trkpt>
      <trkpt lat="43.70104" lon="6.8223">
        <ele>710.825468</ele>
        <time>2024-12-06T13:36:55.000Z</time>
      </trkpt>
      <trkpt lat="43.70106" lon="6.82235">
        <ele>710.693865</ele>
        <time>2024-12-06T13:36:56.000Z</time>
      </trkpt>
      <trkpt lat="43.7011" lon="6.82246">
        <ele>710.405752</ele>
        <time>2024-12-06T13:36:58.000Z</time>
      </trkpt>
      <trkpt lat="43.70117" lon="6.82263">
        <ele>709.920493</ele>
        <time>2024-12-06T13:37:01.000Z</time>
      </trkpt>
      <trkpt lat="43.70126" lon="6.82294">
        <ele>709.100425</ele>
        <time>2024-12-06T13:37:05.000Z</time>
      </trkpt>
      <trkpt lat="43.70128" lon="6.82304">
        <ele>708.827242</ele>
        <time>2024-12-06T13:37:06.000Z</time>
      </trkpt>
      <trkpt lat="43.7013" lon="6.82315">
        <ele>708.510117</ele>
        <time>2024-12-06T13:37:07.000Z</time>
      </trkpt>
      <trkpt lat="43.70135" lon="6.82339">
        <ele>707.825861</ele>
        <time>2024-12-06T13:37:09.000Z</time>
      </trkpt>
      <trkpt lat="43.70138" lon="6.82351">
        <ele>707.462048</ele>
        <time>2024-12-06T13:37:10.000Z</time>
      </trkpt>
      <trkpt lat="43.70143" lon="6.82377">
        <ele>706.72173</ele>
        <time>2024-12-06T13:37:12.000Z</time>
      </trkpt>
      <trkpt lat="43.70147" lon="6.82403">
        <ele>705.989726</ele>
        <time>2024-12-06T13:37:14.000Z</time>
      </trkpt>
      <trkpt lat="43.70151" lon="6.82439">
        <ele>704.970447</ele>
        <time>2024-12-06T13:37:17.000Z</time>
      </trkpt>
      <trkpt lat="43.70152" lon="6.8245">
        <ele>704.662682</ele>
        <time>2024-12-06T13:37:18.000Z</time>
      </trkpt>
      <trkpt lat="43.70153" lon="6.82461">
        <ele>704.360858</ele>
        <time>2024-12-06T13:37:19.000Z</time>
      </trkpt>
      <trkpt lat="43.70154" lon="6.82471">
        <ele>704.068067</ele>
        <time>2024-12-06T13:37:20.000Z</time>
      </trkpt>
      <trkpt lat="43.70156" lon="6.82482">
        <ele>703.772462</ele>
        <time>2024-12-06T13:37:21.000Z</time>
      </trkpt>
      <trkpt lat="43.70157" lon="6.82492">
        <ele>703.47904</ele>
        <time>2024-12-06T13:37:22.000Z</time>
      </trkpt>
      <trkpt lat="43.7016" lon="6.82523">
        <ele>702.610093</ele>
        <time>2024-12-06T13:37:25.000Z</time>
      </trkpt>
      <trkpt lat="43.70161" lon="6.82533">
        <ele>702.334192</ele>
        <time>2024-12-06T13:37:26.000Z</time>
      </trkpt>
      <trkpt lat="43.70161" lon="6.82544">
        <ele>702.019663</ele>
        <time>2024-12-06T13:37:27.000Z</time>
      </trkpt>
      <trkpt lat="43.70161" lon="6.82551">
        <ele>702.040701</ele>
        <time>2024-12-06T13:37:28.000Z</time>
      </trkpt>
      <trkpt lat="43.70161" lon="6.8256">
        <ele>702.095178</ele>
        <time>2024-12-06T13:37:29.000Z</time>
      </trkpt>
      <trkpt lat="43.70161" lon="6.82568">
        <ele>702.148547</ele>
        <time>2024-12-06T13:37:30.000Z</time>
      </trkpt>
      <trkpt lat="43.7016" lon="6.82576">
        <ele>702.201696</ele>
        <time>2024-12-06T13:37:31.000Z</time>
      </trkpt>
      <trkpt lat="43.70159" lon="6.82583">
        <ele>702.251514</ele>
        <time>2024-12-06T13:37:32.000Z</time>
      </trkpt>
      <trkpt lat="43.70157" lon="6.82592">
        <ele>702.307224</ele>
        <time>2024-12-06T13:37:33.000Z</time>
      </trkpt>
      <trkpt lat="43.70156" lon="6.82598">
        <ele>702.352712</ele>
        <time>2024-12-06T13:37:34.000Z</time>
      </trkpt>
      <trkpt lat="43.70155" lon="6.82604">
        <ele>702.38785</ele>
        <time>2024-12-06T13:37:35.000Z</time>
      </trkpt>
      <trkpt lat="43.70153" lon="6.82611">
        <ele>702.440686</ele>
        <time>2024-12-06T13:37:36.000Z</time>
      </trkpt>
      <trkpt lat="43.70148" lon="6.82631">
        <ele>702.572203</ele>
        <time>2024-12-06T13:37:39.000Z</time>
      </trkpt>
      <trkpt lat="43.70139" lon="6.8267">
        <ele>702.839979</ele>
        <time>2024-12-06T13:37:45.000Z</time>
      </trkpt>
      <trkpt lat="43.70134" lon="6.82689">
        <ele>702.970263</ele>
        <time>2024-12-06T13:37:48.000Z</time>
      </trkpt>
      <trkpt lat="43.70133" lon="6.82695">
        <ele>703.01205</ele>
        <time>2024-12-06T13:37:49.000Z</time>
      </trkpt>
      <trkpt lat="43.70132" lon="6.82701">
        <ele>703.052195</ele>
        <time>2024-12-06T13:37:50.000Z</time>
      </trkpt>
      <trkpt lat="43.70131" lon="6.82707">
        <ele>703.090667</ele>
        <time>2024-12-06T13:37:51.000Z</time>
      </trkpt>
      <trkpt lat="43.7013" lon="6.82712">
        <ele>703.128961</ele>
        <time>2024-12-06T13:37:52.000Z</time>
      </trkpt>
      <trkpt lat="43.70129" lon="6.82718">
        <ele>703.16696</ele>
        <time>2024-12-06T13:37:53.000Z</time>
      </trkpt>
      <trkpt lat="43.70129" lon="6.82724">
        <ele>703.205392</ele>
        <time>2024-12-06T13:37:54.000Z</time>
      </trkpt>
      <trkpt lat="43.70129" lon="6.8273">
        <ele>703.245692</ele>
        <time>2024-12-06T13:37:55.000Z</time>
      </trkpt>
      <trkpt lat="43.7013" lon="6.82749">
        <ele>703.366529</ele>
        <time>2024-12-06T13:37:58.000Z</time>
      </trkpt>
      <trkpt lat="43.70131" lon="6.82755">
        <ele>703.405654</ele>
        <time>2024-12-06T13:37:59.000Z</time>
      </trkpt>
      <trkpt lat="43.70133" lon="6.8276">
        <ele>703.443535</ele>
        <time>2024-12-06T13:38:00.000Z</time>
      </trkpt>
      <trkpt lat="43.70134" lon="6.82766">
        <ele>703.482038</ele>
        <time>2024-12-06T13:38:01.000Z</time>
      </trkpt>
      <trkpt lat="43.70135" lon="6.82771">
        <ele>703.518025</ele>
        <time>2024-12-06T13:38:02.000Z</time>
      </trkpt>
      <trkpt lat="43.7014" lon="6.82779">
        <ele>703.584775</ele>
        <time>2024-12-06T13:38:04.000Z</time>
      </trkpt>
      <trkpt lat="43.70142" lon="6.82783">
        <ele>703.608205</ele>
        <time>2024-12-06T13:38:05.000Z</time>
      </trkpt>
      <trkpt lat="43.70144" lon="6.82786">
        <ele>703.56754</ele>
        <time>2024-12-06T13:38:06.000Z</time>
      </trkpt>
      <trkpt lat="43.70147" lon="6.82788">
        <ele>703.526695</ele>
        <time>2024-12-06T13:38:07.000Z</time>
      </trkpt>
      <trkpt lat="43.7015" lon="6.82791">
        <ele>703.483722</ele>
        <time>2024-12-06T13:38:08.000Z</time>
      </trkpt>
      <trkpt lat="43.70153" lon="6.82794">
        <ele>703.441839</ele>
        <time>2024-12-06T13:38:09.000Z</time>
      </trkpt>
      <trkpt lat="43.70155" lon="6.82797">
        <ele>703.401966</ele>
        <time>2024-12-06T13:38:10.000Z</time>
      </trkpt>
      <trkpt lat="43.7016" lon="6.82802">
        <ele>703.320108</ele>
        <time>2024-12-06T13:38:12.000Z</time>
      </trkpt>
      <trkpt lat="43.70163" lon="6.82806">
        <ele>703.272901</ele>
        <time>2024-12-06T13:38:13.000Z</time>
      </trkpt>
      <trkpt lat="43.70165" lon="6.82811">
        <ele>703.218272</ele>
        <time>2024-12-06T13:38:14.000Z</time>
      </trkpt>
      <trkpt lat="43.70168" lon="6.82816">
        <ele>703.156902</ele>
        <time>2024-12-06T13:38:15.000Z</time>
      </trkpt>
      <trkpt lat="43.70171" lon="6.82823">
        <ele>703.086197</ele>
        <time>2024-12-06T13:38:16.000Z</time>
      </trkpt>
      <trkpt lat="43.70174" lon="6.82829">
        <ele>703.014666</ele>
        <time>2024-12-06T13:38:17.000Z</time>
      </trkpt>
      <trkpt lat="43.70177" lon="6.82836">
        <ele>702.941605</ele>
        <time>2024-12-06T13:38:18.000Z</time>
      </trkpt>
      <trkpt lat="43.7018" lon="6.82843">
        <ele>702.867303</ele>
        <time>2024-12-06T13:38:19.000Z</time>
      </trkpt>
      <trkpt lat="43.70183" lon="6.82851">
        <ele>702.794712</ele>
        <time>2024-12-06T13:38:20.000Z</time>
      </trkpt>
      <trkpt lat="43.70188" lon="6.82864">
        <ele>702.657888</ele>
        <time>2024-12-06T13:38:22.000Z</time>
      </trkpt>
      <trkpt lat="43.70189" lon="6.82871">
        <ele>702.589914</ele>
        <time>2024-12-06T13:38:23.000Z</time>
      </trkpt>
      <trkpt lat="43.70191" lon="6.82878">
        <ele>702.522326</ele>
        <time>2024-12-06T13:38:24.000Z</time>
      </trkpt>
      <trkpt lat="43.70193" lon="6.82884">
        <ele>702.459915</ele>
        <time>2024-12-06T13:38:25.000Z</time>
      </trkpt>
      <trkpt lat="43.70195" lon="6.82891">
        <ele>702.39835</ele>
        <time>2024-12-06T13:38:26.000Z</time>
      </trkpt>
      <trkpt lat="43.70197" lon="6.82897">
        <ele>702.33463</ele>
        <time>2024-12-06T13:38:27.000Z</time>
      </trkpt>
      <trkpt lat="43.70198" lon="6.82904">
        <ele>702.270503</ele>
        <time>2024-12-06T13:38:28.000Z</time>
      </trkpt>
      <trkpt lat="43.702" lon="6.8291">
        <ele>702.209358</ele>
        <time>2024-12-06T13:38:29.000Z</time>
      </trkpt>
      <trkpt lat="43.70201" lon="6.82917">
        <ele>702.148066</ele>
        <time>2024-12-06T13:38:30.000Z</time>
      </trkpt>
      <trkpt lat="43.70202" lon="6.82923">
        <ele>702.085555</ele>
        <time>2024-12-06T13:38:31.000Z</time>
      </trkpt>
      <trkpt lat="43.70206" lon="6.82944">
        <ele>701.893238</ele>
        <time>2024-12-06T13:38:34.000Z</time>
      </trkpt>
      <trkpt lat="43.70206" lon="6.82959">
        <ele>701.755983</ele>
        <time>2024-12-06T13:38:36.000Z</time>
      </trkpt>
      <trkpt lat="43.70206" lon="6.82965">
        <ele>701.705027</ele>
        <time>2024-12-06T13:38:37.000Z</time>
      </trkpt>
      <trkpt lat="43.7021" lon="6.83002">
        <ele>701.360711</ele>
        <time>2024-12-06T13:38:42.000Z</time>
      </trkpt>
      <trkpt lat="43.7021" lon="6.83017">
        <ele>700.766224</ele>
        <time>2024-12-06T13:38:44.000Z</time>
      </trkpt>
      <trkpt lat="43.70211" lon="6.83036">
        <ele>699.994553</ele>
        <time>2024-12-06T13:38:46.000Z</time>
      </trkpt>
      <trkpt lat="43.70211" lon="6.83045">
        <ele>699.616579</ele>
        <time>2024-12-06T13:38:47.000Z</time>
      </trkpt>
      <trkpt lat="43.70211" lon="6.83054">
        <ele>699.239259</ele>
        <time>2024-12-06T13:38:48.000Z</time>
      </trkpt>
      <trkpt lat="43.7021" lon="6.83062">
        <ele>698.927471</ele>
        <time>2024-12-06T13:38:49.000Z</time>
      </trkpt>
      <trkpt lat="43.7021" lon="6.83071">
        <ele>698.524951</ele>
        <time>2024-12-06T13:38:50.000Z</time>
      </trkpt>
      <trkpt lat="43.7021" lon="6.83094">
        <ele>697.596198</ele>
        <time>2024-12-06T13:38:52.000Z</time>
      </trkpt>
      <trkpt lat="43.70211" lon="6.83102">
        <ele>697.23307</ele>
        <time>2024-12-06T13:38:53.000Z</time>
      </trkpt>
      <trkpt lat="43.70214" lon="6.83124">
        <ele>696.331996</ele>
        <time>2024-12-06T13:38:55.000Z</time>
      </trkpt>
      <trkpt lat="43.70216" lon="6.83148">
        <ele>695.331613</ele>
        <time>2024-12-06T13:38:57.000Z</time>
      </trkpt>
      <trkpt lat="43.70217" lon="6.83181">
        <ele>693.954207</ele>
        <time>2024-12-06T13:39:00.000Z</time>
      </trkpt>
      <trkpt lat="43.70218" lon="6.83192">
        <ele>693.507604</ele>
        <time>2024-12-06T13:39:01.000Z</time>
      </trkpt>
      <trkpt lat="43.70221" lon="6.83213">
        <ele>692.598803</ele>
        <time>2024-12-06T13:39:03.000Z</time>
      </trkpt>
      <trkpt lat="43.70222" lon="6.83224">
        <ele>692.13245</ele>
        <time>2024-12-06T13:39:04.000Z</time>
      </trkpt>
      <trkpt lat="43.70227" lon="6.83255">
        <ele>690.799491</ele>
        <time>2024-12-06T13:39:07.000Z</time>
      </trkpt>
      <trkpt lat="43.70228" lon="6.83267">
        <ele>690.301131</ele>
        <time>2024-12-06T13:39:08.000Z</time>
      </trkpt>
      <trkpt lat="43.7023" lon="6.83287">
        <ele>689.375282</ele>
        <time>2024-12-06T13:39:10.000Z</time>
      </trkpt>
      <trkpt lat="43.70231" lon="6.83297">
        <ele>688.928591</ele>
        <time>2024-12-06T13:39:11.000Z</time>
      </trkpt>
      <trkpt lat="43.70232" lon="6.83307">
        <ele>688.478779</ele>
        <time>2024-12-06T13:39:12.000Z</time>
      </trkpt>
      <trkpt lat="43.70234" lon="6.83319">
        <ele>687.941993</ele>
        <time>2024-12-06T13:39:13.000Z</time>
      </trkpt>
      <trkpt lat="43.70234" lon="6.83339">
        <ele>687.07642</ele>
        <time>2024-12-06T13:39:15.000Z</time>
      </trkpt>
      <trkpt lat="43.70231" lon="6.8337">
        <ele>685.689479</ele>
        <time>2024-12-06T13:39:18.000Z</time>
      </trkpt>
      <trkpt lat="43.7023" lon="6.83382">
        <ele>685.164813</ele>
        <time>2024-12-06T13:39:19.000Z</time>
      </trkpt>
      <trkpt lat="43.70229" lon="6.83392">
        <ele>684.705148</ele>
        <time>2024-12-06T13:39:20.000Z</time>
      </trkpt>
      <trkpt lat="43.70225" lon="6.8342">
        <ele>683.473093</ele>
        <time>2024-12-06T13:39:22.000Z</time>
      </trkpt>
      <trkpt lat="43.70225" lon="6.8343">
        <ele>683.020627</ele>
        <time>2024-12-06T13:39:23.000Z</time>
      </trkpt>
      <trkpt lat="43.70224" lon="6.83458">
        <ele>681.760561</ele>
        <time>2024-12-06T13:39:25.000Z</time>
      </trkpt>
      <trkpt lat="43.70224" lon="6.83484">
        <ele>680.62963</ele>
        <time>2024-12-06T13:39:27.000Z</time>
      </trkpt>
      <trkpt lat="43.70222" lon="6.83544">
        <ele>679.064344</ele>
        <time>2024-12-06T13:39:32.000Z</time>
      </trkpt>
      <trkpt lat="43.70221" lon="6.83553">
        <ele>678.869233</ele>
        <time>2024-12-06T13:39:33.000Z</time>
      </trkpt>
      <trkpt lat="43.70218" lon="6.83567">
        <ele>678.574067</ele>
        <time>2024-12-06T13:39:34.000Z</time>
      </trkpt>
      <trkpt lat="43.70216" lon="6.83578">
        <ele>678.329166</ele>
        <time>2024-12-06T13:39:35.000Z</time>
      </trkpt>
      <trkpt lat="43.70214" lon="6.83586">
        <ele>678.138002</ele>
        <time>2024-12-06T13:39:36.000Z</time>
      </trkpt>
      <trkpt lat="43.70211" lon="6.836">
        <ele>677.847814</ele>
        <time>2024-12-06T13:39:37.000Z</time>
      </trkpt>
      <trkpt lat="43.70209" lon="6.83611">
        <ele>677.607281</ele>
        <time>2024-12-06T13:39:38.000Z</time>
      </trkpt>
      <trkpt lat="43.70207" lon="6.83619">
        <ele>677.417718</ele>
        <time>2024-12-06T13:39:39.000Z</time>
      </trkpt>
      <trkpt lat="43.70204" lon="6.83632">
        <ele>677.142888</ele>
        <time>2024-12-06T13:39:40.000Z</time>
      </trkpt>
      <trkpt lat="43.70203" lon="6.8364">
        <ele>676.961433</ele>
        <time>2024-12-06T13:39:41.000Z</time>
      </trkpt>
      <trkpt lat="43.70198" lon="6.83663">
        <ele>676.459914</ele>
        <time>2024-12-06T13:39:43.000Z</time>
      </trkpt>
      <trkpt lat="43.70196" lon="6.83674">
        <ele>676.229141</ele>
        <time>2024-12-06T13:39:44.000Z</time>
      </trkpt>
      <trkpt lat="43.70193" lon="6.83684">
        <ele>676.003231</ele>
        <time>2024-12-06T13:39:45.000Z</time>
      </trkpt>
      <trkpt lat="43.70191" lon="6.83694">
        <ele>675.788506</ele>
        <time>2024-12-06T13:39:46.000Z</time>
      </trkpt>
      <trkpt lat="43.70188" lon="6.83703">
        <ele>675.574659</ele>
        <time>2024-12-06T13:39:47.000Z</time>
      </trkpt>
      <trkpt lat="43.70185" lon="6.83712">
        <ele>675.357751</ele>
        <time>2024-12-06T13:39:48.000Z</time>
      </trkpt>
      <trkpt lat="43.70183" lon="6.83722">
        <ele>675.149976</ele>
        <time>2024-12-06T13:39:49.000Z</time>
      </trkpt>
      <trkpt lat="43.7018" lon="6.83731">
        <ele>674.943243</ele>
        <time>2024-12-06T13:39:50.000Z</time>
      </trkpt>
      <trkpt lat="43.70179" lon="6.83738">
        <ele>674.781624</ele>
        <time>2024-12-06T13:39:51.000Z</time>
      </trkpt>
      <trkpt lat="43.70176" lon="6.83757">
        <ele>674.301032</ele>
        <time>2024-12-06T13:39:53.000Z</time>
      </trkpt>
      <trkpt lat="43.70174" lon="6.83766">
        <ele>674.083352</ele>
        <time>2024-12-06T13:39:54.000Z</time>
      </trkpt>
      <trkpt lat="43.70171" lon="6.83774">
        <ele>673.870357</ele>
        <time>2024-12-06T13:39:55.000Z</time>
      </trkpt>
      <trkpt lat="43.70168" lon="6.83784">
        <ele>673.603448</ele>
        <time>2024-12-06T13:39:56.000Z</time>
      </trkpt>
      <trkpt lat="43.70162" lon="6.83809">
        <ele>672.955322</ele>
        <time>2024-12-06T13:39:59.000Z</time>
      </trkpt>
      <trkpt lat="43.7016" lon="6.83816">
        <ele>672.786993</ele>
        <time>2024-12-06T13:40:00.000Z</time>
      </trkpt>
      <trkpt lat="43.70156" lon="6.83832">
        <ele>672.351858</ele>
        <time>2024-12-06T13:40:02.000Z</time>
      </trkpt>
      <trkpt lat="43.70154" lon="6.83838">
        <ele>672.201703</ele>
        <time>2024-12-06T13:40:03.000Z</time>
      </trkpt>
      <trkpt lat="43.70152" lon="6.83847">
        <ele>671.981843</ele>
        <time>2024-12-06T13:40:04.000Z</time>
      </trkpt>
      <trkpt lat="43.7015" lon="6.83855">
        <ele>671.775706</ele>
        <time>2024-12-06T13:40:05.000Z</time>
      </trkpt>
      <trkpt lat="43.70148" lon="6.83861">
        <ele>671.609665</ele>
        <time>2024-12-06T13:40:06.000Z</time>
      </trkpt>
      <trkpt lat="43.70146" lon="6.8387">
        <ele>671.379004</ele>
        <time>2024-12-06T13:40:07.000Z</time>
      </trkpt>
      <trkpt lat="43.70145" lon="6.83878">
        <ele>671.193282</ele>
        <time>2024-12-06T13:40:08.000Z</time>
      </trkpt>
      <trkpt lat="43.70145" lon="6.83884">
        <ele>671.043365</ele>
        <time>2024-12-06T13:40:09.000Z</time>
      </trkpt>
      <trkpt lat="43.70144" lon="6.83892">
        <ele>670.847501</ele>
        <time>2024-12-06T13:40:10.000Z</time>
      </trkpt>
      <trkpt lat="43.70144" lon="6.83901">
        <ele>670.623233</ele>
        <time>2024-12-06T13:40:11.000Z</time>
      </trkpt>
      <trkpt lat="43.70144" lon="6.83915">
        <ele>670.287105</ele>
        <time>2024-12-06T13:40:13.000Z</time>
      </trkpt>
      <trkpt lat="43.70144" lon="6.8393">
        <ele>669.912081</ele>
        <time>2024-12-06T13:40:15.000Z</time>
      </trkpt>
      <trkpt lat="43.70144" lon="6.83963">
        <ele>669.120634</ele>
        <time>2024-12-06T13:40:19.000Z</time>
      </trkpt>
      <trkpt lat="43.70144" lon="6.8398">
        <ele>668.764521</ele>
        <time>2024-12-06T13:40:21.000Z</time>
      </trkpt>
      <trkpt lat="43.70145" lon="6.83989">
        <ele>668.788763</ele>
        <time>2024-12-06T13:40:22.000Z</time>
      </trkpt>
      <trkpt lat="43.70146" lon="6.84007">
        <ele>668.837194</ele>
        <time>2024-12-06T13:40:24.000Z</time>
      </trkpt>
      <trkpt lat="43.7015" lon="6.84026">
        <ele>668.888862</ele>
        <time>2024-12-06T13:40:26.000Z</time>
      </trkpt>
      <trkpt lat="43.70162" lon="6.84069">
        <ele>669.008164</ele>
        <time>2024-12-06T13:40:30.000Z</time>
      </trkpt>
      <trkpt lat="43.70165" lon="6.84078">
        <ele>669.035856</ele>
        <time>2024-12-06T13:40:31.000Z</time>
      </trkpt>
      <trkpt lat="43.70168" lon="6.84089">
        <ele>669.067254</ele>
        <time>2024-12-06T13:40:32.000Z</time>
      </trkpt>
      <trkpt lat="43.70171" lon="6.84098">
        <ele>669.092519</ele>
        <time>2024-12-06T13:40:33.000Z</time>
      </trkpt>
      <trkpt lat="43.70172" lon="6.84105">
        <ele>669.112065</ele>
        <time>2024-12-06T13:40:34.000Z</time>
      </trkpt>
      <trkpt lat="43.70173" lon="6.84115">
        <ele>669.13905</ele>
        <time>2024-12-06T13:40:35.000Z</time>
      </trkpt>
      <trkpt lat="43.70173" lon="6.84122">
        <ele>669.1567</ele>
        <time>2024-12-06T13:40:36.000Z</time>
      </trkpt>
      <trkpt lat="43.70172" lon="6.8413">
        <ele>669.176879</ele>
        <time>2024-12-06T13:40:37.000Z</time>
      </trkpt>
      <trkpt lat="43.70171" lon="6.84137">
        <ele>669.198218</ele>
        <time>2024-12-06T13:40:38.000Z</time>
      </trkpt>
      <trkpt lat="43.70169" lon="6.84144">
        <ele>669.215577</ele>
        <time>2024-12-06T13:40:39.000Z</time>
      </trkpt>
      <trkpt lat="43.70168" lon="6.84148">
        <ele>669.228549</ele>
        <time>2024-12-06T13:40:40.000Z</time>
      </trkpt>
      <trkpt lat="43.70166" lon="6.84153">
        <ele>669.242951</ele>
        <time>2024-12-06T13:40:41.000Z</time>
      </trkpt>
      <trkpt lat="43.70166" lon="6.84156">
        <ele>669.250985</ele>
        <time>2024-12-06T13:40:42.000Z</time>
      </trkpt>
      <trkpt lat="43.70165" lon="6.8416">
        <ele>669.262635</ele>
        <time>2024-12-06T13:40:43.000Z</time>
      </trkpt>
      <trkpt lat="43.70163" lon="6.84164">
        <ele>669.274285</ele>
        <time>2024-12-06T13:40:44.000Z</time>
      </trkpt>
      <trkpt lat="43.70163" lon="6.84167">
        <ele>669.281592</ele>
        <time>2024-12-06T13:40:45.000Z</time>
      </trkpt>
      <trkpt lat="43.70162" lon="6.8417">
        <ele>669.290452</ele>
        <time>2024-12-06T13:40:46.000Z</time>
      </trkpt>
      <trkpt lat="43.70159" lon="6.84179">
        <ele>669.316468</ele>
        <time>2024-12-06T13:40:49.000Z</time>
      </trkpt>
      <trkpt lat="43.70158" lon="6.84182">
        <ele>669.323824</ele>
        <time>2024-12-06T13:40:50.000Z</time>
      </trkpt>
      <trkpt lat="43.70157" lon="6.84184">
        <ele>669.331758</ele>
        <time>2024-12-06T13:40:51.000Z</time>
      </trkpt>
      <trkpt lat="43.70156" lon="6.84187">
        <ele>669.339589</ele>
        <time>2024-12-06T13:40:52.000Z</time>
      </trkpt>
      <trkpt lat="43.70155" lon="6.84189">
        <ele>669.346405</ele>
        <time>2024-12-06T13:40:53.000Z</time>
      </trkpt>
      <trkpt lat="43.70154" lon="6.84192">
        <ele>669.35393</ele>
        <time>2024-12-06T13:40:54.000Z</time>
      </trkpt>
      <trkpt lat="43.70153" lon="6.84194">
        <ele>669.361834</ele>
        <time>2024-12-06T13:40:55.000Z</time>
      </trkpt>
      <trkpt lat="43.70152" lon="6.84197">
        <ele>669.369318</ele>
        <time>2024-12-06T13:40:56.000Z</time>
      </trkpt>
      <trkpt lat="43.70151" lon="6.842">
        <ele>669.377944</ele>
        <time>2024-12-06T13:40:57.000Z</time>
      </trkpt>
      <trkpt lat="43.70149" lon="6.84203">
        <ele>669.388629</ele>
        <time>2024-12-06T13:40:58.000Z</time>
      </trkpt>
      <trkpt lat="43.70147" lon="6.8421">
        <ele>669.409356</ele>
        <time>2024-12-06T13:41:00.000Z</time>
      </trkpt>
      <trkpt lat="43.70143" lon="6.84218">
        <ele>669.8216</ele>
        <time>2024-12-06T13:41:02.000Z</time>
      </trkpt>
      <trkpt lat="43.70142" lon="6.84223">
        <ele>670.071014</ele>
        <time>2024-12-06T13:41:03.000Z</time>
      </trkpt>
      <trkpt lat="43.70138" lon="6.84232">
        <ele>670.643435</ele>
        <time>2024-12-06T13:41:05.000Z</time>
      </trkpt>
      <trkpt lat="43.70137" lon="6.84236">
        <ele>670.860248</ele>
        <time>2024-12-06T13:41:06.000Z</time>
      </trkpt>
      <trkpt lat="43.70135" lon="6.84241">
        <ele>671.124601</ele>
        <time>2024-12-06T13:41:07.000Z</time>
      </trkpt>
      <trkpt lat="43.70134" lon="6.84247">
        <ele>671.443836</ele>
        <time>2024-12-06T13:41:08.000Z</time>
      </trkpt>
      <trkpt lat="43.70133" lon="6.84251">
        <ele>671.661103</ele>
        <time>2024-12-06T13:41:09.000Z</time>
      </trkpt>
      <trkpt lat="43.70133" lon="6.84256">
        <ele>671.917412</ele>
        <time>2024-12-06T13:41:10.000Z</time>
      </trkpt>
      <trkpt lat="43.70132" lon="6.84262">
        <ele>672.212762</ele>
        <time>2024-12-06T13:41:11.000Z</time>
      </trkpt>
      <trkpt lat="43.70132" lon="6.84265">
        <ele>672.393831</ele>
        <time>2024-12-06T13:41:12.000Z</time>
      </trkpt>
      <trkpt lat="43.70132" lon="6.84269">
        <ele>672.616627</ele>
        <time>2024-12-06T13:41:13.000Z</time>
      </trkpt>
      <trkpt lat="43.70132" lon="6.84272">
        <ele>672.752415</ele>
        <time>2024-12-06T13:41:14.000Z</time>
      </trkpt>
      <trkpt lat="43.70132" lon="6.84274">
        <ele>672.855808</ele>
        <time>2024-12-06T13:41:15.000Z</time>
      </trkpt>
      <trkpt lat="43.70132" lon="6.84277">
        <ele>673.005541</ele>
        <time>2024-12-06T13:41:16.000Z</time>
      </trkpt>
      <trkpt lat="43.70131" lon="6.84282">
        <ele>673.248356</ele>
        <time>2024-12-06T13:41:17.000Z</time>
      </trkpt>
      <trkpt lat="43.70131" lon="6.84285">
        <ele>673.43889</ele>
        <time>2024-12-06T13:41:18.000Z</time>
      </trkpt>
      <trkpt lat="43.7013" lon="6.8429">
        <ele>673.700285</ele>
        <time>2024-12-06T13:41:19.000Z</time>
      </trkpt>
      <trkpt lat="43.7013" lon="6.84296">
        <ele>673.980239</ele>
        <time>2024-12-06T13:41:20.000Z</time>
      </trkpt>
      <trkpt lat="43.7013" lon="6.84301">
        <ele>674.274294</ele>
        <time>2024-12-06T13:41:21.000Z</time>
      </trkpt>
      <trkpt lat="43.70129" lon="6.84307">
        <ele>674.558754</ele>
        <time>2024-12-06T13:41:22.000Z</time>
      </trkpt>
      <trkpt lat="43.70129" lon="6.84312">
        <ele>674.843214</ele>
        <time>2024-12-06T13:41:23.000Z</time>
      </trkpt>
      <trkpt lat="43.70129" lon="6.84317">
        <ele>675.099523</ele>
        <time>2024-12-06T13:41:24.000Z</time>
      </trkpt>
      <trkpt lat="43.70128" lon="6.84322">
        <ele>675.358964</ele>
        <time>2024-12-06T13:41:25.000Z</time>
      </trkpt>
      <trkpt lat="43.70128" lon="6.84328">
        <ele>675.673885</ele>
        <time>2024-12-06T13:41:26.000Z</time>
      </trkpt>
      <trkpt lat="43.70128" lon="6.84332">
        <ele>675.859686</ele>
        <time>2024-12-06T13:41:27.000Z</time>
      </trkpt>
      <trkpt lat="43.70128" lon="6.84337">
        <ele>676.114901</ele>
        <time>2024-12-06T13:41:28.000Z</time>
      </trkpt>
      <trkpt lat="43.70127" lon="6.84343">
        <ele>676.423254</ele>
        <time>2024-12-06T13:41:29.000Z</time>
      </trkpt>
      <trkpt lat="43.70126" lon="6.84347">
        <ele>676.636622</ele>
        <time>2024-12-06T13:41:30.000Z</time>
      </trkpt>
      <trkpt lat="43.70126" lon="6.84352">
        <ele>676.90119</ele>
        <time>2024-12-06T13:41:31.000Z</time>
      </trkpt>
      <trkpt lat="43.70126" lon="6.84357">
        <ele>677.164311</ele>
        <time>2024-12-06T13:41:32.000Z</time>
      </trkpt>
      <trkpt lat="43.70126" lon="6.84362">
        <ele>677.437743</ele>
        <time>2024-12-06T13:41:33.000Z</time>
      </trkpt>
      <trkpt lat="43.70126" lon="6.84368">
        <ele>677.711082</ele>
        <time>2024-12-06T13:41:34.000Z</time>
      </trkpt>
      <trkpt lat="43.70126" lon="6.84374">
        <ele>678.036073</ele>
        <time>2024-12-06T13:41:35.000Z</time>
      </trkpt>
      <trkpt lat="43.70126" lon="6.84379">
        <ele>678.299485</ele>
        <time>2024-12-06T13:41:36.000Z</time>
      </trkpt>
      <trkpt lat="43.70126" lon="6.84383">
        <ele>678.526856</ele>
        <time>2024-12-06T13:41:37.000Z</time>
      </trkpt>
      <trkpt lat="43.70126" lon="6.8439">
        <ele>678.852081</ele>
        <time>2024-12-06T13:41:38.000Z</time>
      </trkpt>
      <trkpt lat="43.70126" lon="6.84394">
        <ele>679.081791</ele>
        <time>2024-12-06T13:41:39.000Z</time>
      </trkpt>
      <trkpt lat="43.70126" lon="6.84399">
        <ele>679.350067</ele>
        <time>2024-12-06T13:41:40.000Z</time>
      </trkpt>
      <trkpt lat="43.70126" lon="6.84404">
        <ele>679.618628</ele>
        <time>2024-12-06T13:41:41.000Z</time>
      </trkpt>
      <trkpt lat="43.70125" lon="6.84409">
        <ele>679.877382</ele>
        <time>2024-12-06T13:41:42.000Z</time>
      </trkpt>
      <trkpt lat="43.70125" lon="6.84414">
        <ele>680.132597</ele>
        <time>2024-12-06T13:41:43.000Z</time>
      </trkpt>
      <trkpt lat="43.70124" lon="6.8442">
        <ele>680.433495</ele>
        <time>2024-12-06T13:41:44.000Z</time>
      </trkpt>
      <trkpt lat="43.70123" lon="6.84425">
        <ele>680.695431</ele>
        <time>2024-12-06T13:41:45.000Z</time>
      </trkpt>
      <trkpt lat="43.70121" lon="6.84429">
        <ele>680.924629</ele>
        <time>2024-12-06T13:41:46.000Z</time>
      </trkpt>
      <trkpt lat="43.70119" lon="6.84434">
        <ele>681.202346</ele>
        <time>2024-12-06T13:41:47.000Z</time>
      </trkpt>
      <trkpt lat="43.70117" lon="6.84439">
        <ele>681.529261</ele>
        <time>2024-12-06T13:41:48.000Z</time>
      </trkpt>
      <trkpt lat="43.70115" lon="6.84443">
        <ele>681.788467</ele>
        <time>2024-12-06T13:41:49.000Z</time>
      </trkpt>
      <trkpt lat="43.70113" lon="6.84446">
        <ele>681.985157</ele>
        <time>2024-12-06T13:41:50.000Z</time>
      </trkpt>
      <trkpt lat="43.70111" lon="6.84451">
        <ele>682.248381</ele>
        <time>2024-12-06T13:41:51.000Z</time>
      </trkpt>
      <trkpt lat="43.70109" lon="6.84455">
        <ele>682.264276</ele>
        <time>2024-12-06T13:41:52.000Z</time>
      </trkpt>
      <trkpt lat="43.70107" lon="6.84459">
        <ele>682.283434</ele>
        <time>2024-12-06T13:41:53.000Z</time>
      </trkpt>
      <trkpt lat="43.70105" lon="6.84464">
        <ele>682.305752</ele>
        <time>2024-12-06T13:41:54.000Z</time>
      </trkpt>
      <trkpt lat="43.70104" lon="6.84468">
        <ele>682.320496</ele>
        <time>2024-12-06T13:41:55.000Z</time>
      </trkpt>
      <trkpt lat="43.70102" lon="6.84472">
        <ele>682.338285</ele>
        <time>2024-12-06T13:41:56.000Z</time>
      </trkpt>
      <trkpt lat="43.701" lon="6.84477">
        <ele>682.35945</ele>
        <time>2024-12-06T13:41:57.000Z</time>
      </trkpt>
      <trkpt lat="43.70099" lon="6.84481">
        <ele>682.374438</ele>
        <time>2024-12-06T13:41:58.000Z</time>
      </trkpt>
      <trkpt lat="43.70097" lon="6.84485">
        <ele>682.393321</ele>
        <time>2024-12-06T13:41:59.000Z</time>
      </trkpt>
      <trkpt lat="43.70096" lon="6.84489">
        <ele>682.411131</ele>
        <time>2024-12-06T13:42:00.000Z</time>
      </trkpt>
      <trkpt lat="43.70094" lon="6.84494">
        <ele>682.43004</ele>
        <time>2024-12-06T13:42:01.000Z</time>
      </trkpt>
      <trkpt lat="43.70093" lon="6.84498">
        <ele>682.448161</ele>
        <time>2024-12-06T13:42:02.000Z</time>
      </trkpt>
      <trkpt lat="43.70091" lon="6.84504">
        <ele>682.470187</ele>
        <time>2024-12-06T13:42:03.000Z</time>
      </trkpt>
      <trkpt lat="43.7009" lon="6.84508">
        <ele>682.485738</ele>
        <time>2024-12-06T13:42:04.000Z</time>
      </trkpt>
      <trkpt lat="43.70089" lon="6.84513">
        <ele>682.507351</ele>
        <time>2024-12-06T13:42:05.000Z</time>
      </trkpt>
      <trkpt lat="43.70089" lon="6.84517">
        <ele>682.523501</ele>
        <time>2024-12-06T13:42:06.000Z</time>
      </trkpt>
      <trkpt lat="43.70088" lon="6.84523">
        <ele>682.542786</ele>
        <time>2024-12-06T13:42:07.000Z</time>
      </trkpt>
      <trkpt lat="43.70087" lon="6.84529">
        <ele>682.567923</ele>
        <time>2024-12-06T13:42:08.000Z</time>
      </trkpt>
      <trkpt lat="43.70086" lon="6.84533">
        <ele>682.584438</ele>
        <time>2024-12-06T13:42:09.000Z</time>
      </trkpt>
      <trkpt lat="43.70085" lon="6.84539">
        <ele>682.60546</ele>
        <time>2024-12-06T13:42:10.000Z</time>
      </trkpt>
      <trkpt lat="43.70084" lon="6.84545">
        <ele>682.627928</ele>
        <time>2024-12-06T13:42:11.000Z</time>
      </trkpt>
      <trkpt lat="43.70083" lon="6.84548">
        <ele>682.641896</ele>
        <time>2024-12-06T13:42:12.000Z</time>
      </trkpt>
      <trkpt lat="43.70083" lon="6.84552">
        <ele>682.657087</ele>
        <time>2024-12-06T13:42:13.000Z</time>
      </trkpt>
      <trkpt lat="43.70082" lon="6.84555">
        <ele>682.668149</ele>
        <time>2024-12-06T13:42:14.000Z</time>
      </trkpt>
      <trkpt lat="43.70081" lon="6.84558">
        <ele>682.67943</ele>
        <time>2024-12-06T13:42:15.000Z</time>
      </trkpt>
      <trkpt lat="43.70081" lon="6.84561">
        <ele>682.69106</ele>
        <time>2024-12-06T13:42:16.000Z</time>
      </trkpt>
      <trkpt lat="43.70079" lon="6.84564">
        <ele>682.703907</ele>
        <time>2024-12-06T13:42:17.000Z</time>
      </trkpt>
      <trkpt lat="43.70078" lon="6.84567">
        <ele>682.717123</ele>
        <time>2024-12-06T13:42:18.000Z</time>
      </trkpt>
      <trkpt lat="43.70078" lon="6.84571">
        <ele>682.731074</ele>
        <time>2024-12-06T13:42:19.000Z</time>
      </trkpt>
      <trkpt lat="43.70078" lon="6.84575">
        <ele>682.746947</ele>
        <time>2024-12-06T13:42:20.000Z</time>
      </trkpt>
      <trkpt lat="43.70077" lon="6.84579">
        <ele>682.763636</ele>
        <time>2024-12-06T13:42:21.000Z</time>
      </trkpt>
      <trkpt lat="43.70077" lon="6.84584">
        <ele>682.779955</ele>
        <time>2024-12-06T13:42:22.000Z</time>
      </trkpt>
      <trkpt lat="43.70076" lon="6.84588">
        <ele>682.797756</ele>
        <time>2024-12-06T13:42:23.000Z</time>
      </trkpt>
      <trkpt lat="43.70076" lon="6.84593">
        <ele>682.816747</ele>
        <time>2024-12-06T13:42:24.000Z</time>
      </trkpt>
      <trkpt lat="43.70075" lon="6.84599">
        <ele>682.837877</ele>
        <time>2024-12-06T13:42:25.000Z</time>
      </trkpt>
      <trkpt lat="43.70073" lon="6.84606">
        <ele>682.865953</ele>
        <time>2024-12-06T13:42:26.000Z</time>
      </trkpt>
      <trkpt lat="43.70072" lon="6.84611">
        <ele>682.887449</ele>
        <time>2024-12-06T13:42:27.000Z</time>
      </trkpt>
      <trkpt lat="43.7007" lon="6.84618">
        <ele>682.915919</ele>
        <time>2024-12-06T13:42:28.000Z</time>
      </trkpt>
      <trkpt lat="43.70067" lon="6.84626">
        <ele>682.949787</ele>
        <time>2024-12-06T13:42:29.000Z</time>
      </trkpt>
      <trkpt lat="43.70065" lon="6.84632">
        <ele>682.974544</ele>
        <time>2024-12-06T13:42:30.000Z</time>
      </trkpt>
      <trkpt lat="43.70062" lon="6.84641">
        <ele>683.009472</ele>
        <time>2024-12-06T13:42:31.000Z</time>
      </trkpt>
      <trkpt lat="43.7006" lon="6.8465">
        <ele>683.04524</ele>
        <time>2024-12-06T13:42:32.000Z</time>
      </trkpt>
      <trkpt lat="43.70054" lon="6.84668">
        <ele>683.120391</ele>
        <time>2024-12-06T13:42:34.000Z</time>
      </trkpt>
      <trkpt lat="43.70051" lon="6.84678">
        <ele>683.159546</ele>
        <time>2024-12-06T13:42:35.000Z</time>
      </trkpt>
      <trkpt lat="43.70043" lon="6.84696">
        <ele>683.176653</ele>
        <time>2024-12-06T13:42:37.000Z</time>
      </trkpt>
      <trkpt lat="43.70036" lon="6.84715">
        <ele>683.176653</ele>
        <time>2024-12-06T13:42:39.000Z</time>
      </trkpt>
      <trkpt lat="43.70024" lon="6.84745">
        <ele>683.176653</ele>
        <time>2024-12-06T13:42:42.000Z</time>
      </trkpt>
      <trkpt lat="43.70017" lon="6.84765">
        <ele>683.176653</ele>
        <time>2024-12-06T13:42:44.000Z</time>
      </trkpt>
      <trkpt lat="43.70014" lon="6.84773">
        <ele>683.176653</ele>
        <time>2024-12-06T13:42:45.000Z</time>
      </trkpt>
      <trkpt lat="43.70011" lon="6.8478">
        <ele>683.176653</ele>
        <time>2024-12-06T13:42:46.000Z</time>
      </trkpt>
      <trkpt lat="43.70008" lon="6.84786">
        <ele>683.176653</ele>
        <time>2024-12-06T13:42:47.000Z</time>
      </trkpt>
      <trkpt lat="43.70006" lon="6.84792">
        <ele>683.176653</ele>
        <time>2024-12-06T13:42:48.000Z</time>
      </trkpt>
      <trkpt lat="43.70003" lon="6.84794">
        <ele>683.176653</ele>
        <time>2024-12-06T13:42:49.000Z</time>
      </trkpt>
      <trkpt lat="43.7" lon="6.84794">
        <ele>683.176653</ele>
        <time>2024-12-06T13:42:50.000Z</time>
      </trkpt>
      <trkpt lat="43.69998" lon="6.84793">
        <ele>683.176653</ele>
        <time>2024-12-06T13:42:51.000Z</time>
      </trkpt>
      <trkpt lat="43.69997" lon="6.84793">
        <ele>683.176653</ele>
        <time>2024-12-06T13:42:52.000Z</time>
      </trkpt>
      <trkpt lat="43.69997" lon="6.84793">
        <ele>683.176653</ele>
        <time>2024-12-06T13:42:54.000Z</time>
      </trkpt>
      <trkpt lat="43.69997" lon="6.84793">
        <ele>683.176653</ele>
        <time>2024-12-06T13:43:01.000Z</time>
      </trkpt>
      <trkpt lat="43.69995" lon="6.84789">
        <ele>683.176653</ele>
        <time>2024-12-06T13:43:07.000Z</time>
      </trkpt>
      <trkpt lat="43.69994" lon="6.84786">
        <ele>683.176653</ele>
        <time>2024-12-06T13:43:08.000Z</time>
      </trkpt>
      <trkpt lat="43.69986" lon="6.8477">
        <ele>683.176653</ele>
        <time>2024-12-06T13:43:12.000Z</time>
      </trkpt>
      <trkpt lat="43.69982" lon="6.84766">
        <ele>683.176653</ele>
        <time>2024-12-06T13:43:13.000Z</time>
      </trkpt>
      <trkpt lat="43.69977" lon="6.84756">
        <ele>683.176653</ele>
        <time>2024-12-06T13:43:16.000Z</time>
      </trkpt>
      <trkpt lat="43.69977" lon="6.84756">
        <ele>683.176653</ele>
        <time>2024-12-06T13:43:17.000Z</time>
      </trkpt>
      <trkpt lat="43.69977" lon="6.84756">
        <ele>683.176653</ele>
        <time>2024-12-06T13:43:33.000Z</time>
      </trkpt>
    </trkseg>
  </trk>
</gpx>